<?xml version='1.0' encoding='UTF-8'?><gpx version="1.1" creator="JPX - https://github.com/jenetics/jpx" xmlns="http://www.topografix.com/GPX/1/1"><trk><trkseg><trkpt lat="40.465175" lon="15.0157067"><ele>27.0</ele><time>2026-04-12T07:25:23.181Z</time></trkpt><trkpt lat="40.4652467" lon="15.0156233"><ele>27.0</ele><time>2026-04-12T07:27:32.973Z</time></trkpt><trkpt lat="40.4653133" lon="15.015585"><ele>27.0</ele><time>2026-04-12T07:27:34.973Z</time></trkpt><trkpt lat="40.465385" lon="15.0155517"><ele>27.0</ele><time>2026-04-12T07:27:36.973Z</time></trkpt><trkpt lat="40.4654667" lon="15.01553"><ele>27.0</ele><time>2026-04-12T07:27:38.973Z</time></trkpt><trkpt lat="40.4655467" lon="15.0154983"><ele>27.0</ele><time>2026-04-12T07:27:40.973Z</time></trkpt><trkpt lat="40.4656217" lon="15.015455"><ele>26.833333333333332</ele><time>2026-04-12T07:27:42.973Z</time></trkpt><trkpt lat="40.46571" lon="15.015385"><ele>26.666666666666664</ele><time>2026-04-12T07:27:44.973Z</time></trkpt><trkpt lat="40.4657617" lon="15.015325"><ele>26.5</ele><time>2026-04-12T07:27:45.973Z</time></trkpt><trkpt lat="40.4658283" lon="15.0152583"><ele>26.333333333333332</ele><time>2026-04-12T07:27:46.973Z</time></trkpt><trkpt lat="40.465905" lon="15.0151933"><ele>26.166666666666664</ele><time>2026-04-12T07:27:47.973Z</time></trkpt><trkpt lat="40.4659983" lon="15.0151417"><ele>26.0</ele><time>2026-04-12T07:27:48.974Z</time></trkpt><trkpt lat="40.4661033" lon="15.0151"><ele>26.0</ele><time>2026-04-12T07:27:49.973Z</time></trkpt><trkpt lat="40.466225" lon="15.0150617"><ele>26.0</ele><time>2026-04-12T07:27:50.973Z</time></trkpt><trkpt lat="40.4663517" lon="15.0150317"><ele>26.0</ele><time>2026-04-12T07:27:51.973Z</time></trkpt><trkpt lat="40.4664817" lon="15.0149933"><ele>26.0</ele><time>2026-04-12T07:27:52.973Z</time></trkpt><trkpt lat="40.4666133" lon="15.0149583"><ele>26.0</ele><time>2026-04-12T07:27:53.974Z</time></trkpt><trkpt lat="40.4667467" lon="15.0149217"><ele>26.0</ele><time>2026-04-12T07:27:54.973Z</time></trkpt><trkpt lat="40.4668783" lon="15.014885"><ele>26.0</ele><time>2026-04-12T07:27:55.973Z</time></trkpt><trkpt lat="40.4670133" lon="15.0148517"><ele>26.0</ele><time>2026-04-12T07:27:56.973Z</time></trkpt><trkpt lat="40.4671433" lon="15.0148167"><ele>26.0</ele><time>2026-04-12T07:27:57.973Z</time></trkpt><trkpt lat="40.4672667" lon="15.0147867"><ele>26.0</ele><time>2026-04-12T07:27:58.973Z</time></trkpt><trkpt lat="40.4673833" lon="15.0147567"><ele>26.0</ele><time>2026-04-12T07:27:59.973Z</time></trkpt><trkpt lat="40.4674983" lon="15.0147233"><ele>26.0</ele><time>2026-04-12T07:28:00.973Z</time></trkpt><trkpt lat="40.467625" lon="15.0146867"><ele>26.0</ele><time>2026-04-12T07:28:01.973Z</time></trkpt><trkpt lat="40.4677617" lon="15.0146583"><ele>26.0</ele><time>2026-04-12T07:28:02.973Z</time></trkpt><trkpt lat="40.4678983" lon="15.0146217"><ele>26.0</ele><time>2026-04-12T07:28:03.973Z</time></trkpt><trkpt lat="40.4680417" lon="15.014585"><ele>26.0</ele><time>2026-04-12T07:28:04.973Z</time></trkpt><trkpt lat="40.46818" lon="15.0145467"><ele>25.75</ele><time>2026-04-12T07:28:05.973Z</time></trkpt><trkpt lat="40.4683217" lon="15.014515"><ele>25.5</ele><time>2026-04-12T07:28:06.973Z</time></trkpt><trkpt lat="40.4684617" lon="15.0144767"><ele>25.25</ele><time>2026-04-12T07:28:07.973Z</time></trkpt><trkpt lat="40.4686" lon="15.014435"><ele>25.0</ele><time>2026-04-12T07:28:08.973Z</time></trkpt><trkpt lat="40.46874" lon="15.0144"><ele>25.0</ele><time>2026-04-12T07:28:09.973Z</time></trkpt><trkpt lat="40.4688733" lon="15.0143683"><ele>25.0</ele><time>2026-04-12T07:28:10.973Z</time></trkpt><trkpt lat="40.4690083" lon="15.01433"><ele>25.0</ele><time>2026-04-12T07:28:11.973Z</time></trkpt><trkpt lat="40.4691383" lon="15.0142933"><ele>25.0</ele><time>2026-04-12T07:28:12.973Z</time></trkpt><trkpt lat="40.46927" lon="15.01426"><ele>25.0</ele><time>2026-04-12T07:28:13.973Z</time></trkpt><trkpt lat="40.4694017" lon="15.0142283"><ele>25.0</ele><time>2026-04-12T07:28:14.973Z</time></trkpt><trkpt lat="40.4695283" lon="15.0141967"><ele>25.0</ele><time>2026-04-12T07:28:15.973Z</time></trkpt><trkpt lat="40.4696467" lon="15.0141683"><ele>25.0</ele><time>2026-04-12T07:28:16.973Z</time></trkpt><trkpt lat="40.4697533" lon="15.01414"><ele>25.2</ele><time>2026-04-12T07:28:17.973Z</time></trkpt><trkpt lat="40.46985" lon="15.0141183"><ele>25.4</ele><time>2026-04-12T07:28:18.973Z</time></trkpt><trkpt lat="40.469945" lon="15.014095"><ele>25.6</ele><time>2026-04-12T07:28:19.973Z</time></trkpt><trkpt lat="40.4700417" lon="15.0140733"><ele>25.8</ele><time>2026-04-12T07:28:20.973Z</time></trkpt><trkpt lat="40.47014" lon="15.0140433"><ele>26.0</ele><time>2026-04-12T07:28:21.973Z</time></trkpt><trkpt lat="40.470235" lon="15.0139917"><ele>26.0</ele><time>2026-04-12T07:28:22.973Z</time></trkpt><trkpt lat="40.4703267" lon="15.01392"><ele>26.0</ele><time>2026-04-12T07:28:23.973Z</time></trkpt><trkpt lat="40.4704367" lon="15.0138517"><ele>26.0</ele><time>2026-04-12T07:28:24.973Z</time></trkpt><trkpt lat="40.4705567" lon="15.0138183"><ele>26.0</ele><time>2026-04-12T07:28:25.973Z</time></trkpt><trkpt lat="40.4706967" lon="15.013815"><ele>25.333333333333332</ele><time>2026-04-12T07:28:26.973Z</time></trkpt><trkpt lat="40.4708467" lon="15.0138167"><ele>24.666666666666664</ele><time>2026-04-12T07:28:27.973Z</time></trkpt><trkpt lat="40.471005" lon="15.0138217"><ele>24.0</ele><time>2026-04-12T07:28:28.973Z</time></trkpt><trkpt lat="40.4711667" lon="15.0138217"><ele>24.333333333333336</ele><time>2026-04-12T07:28:29.973Z</time></trkpt><trkpt lat="40.4713283" lon="15.0138267"><ele>24.666666666666668</ele><time>2026-04-12T07:28:30.972Z</time></trkpt><trkpt lat="40.4714883" lon="15.0138333"><ele>25.0</ele><time>2026-04-12T07:28:31.972Z</time></trkpt><trkpt lat="40.4716517" lon="15.0138467"><ele>25.0</ele><time>2026-04-12T07:28:32.972Z</time></trkpt><trkpt lat="40.4718167" lon="15.01386"><ele>25.0</ele><time>2026-04-12T07:28:33.972Z</time></trkpt><trkpt lat="40.471985" lon="15.0138783"><ele>25.0</ele><time>2026-04-12T07:28:34.972Z</time></trkpt><trkpt lat="40.4721483" lon="15.0139017"><ele>24.666666666666668</ele><time>2026-04-12T07:28:35.972Z</time></trkpt><trkpt lat="40.4723117" lon="15.0139217"><ele>24.333333333333336</ele><time>2026-04-12T07:28:36.972Z</time></trkpt><trkpt lat="40.4724717" lon="15.0139333"><ele>24.0</ele><time>2026-04-12T07:28:37.972Z</time></trkpt><trkpt lat="40.4726317" lon="15.0139467"><ele>24.0</ele><time>2026-04-12T07:28:38.973Z</time></trkpt><trkpt lat="40.472795" lon="15.0139683"><ele>24.0</ele><time>2026-04-12T07:28:39.972Z</time></trkpt><trkpt lat="40.4729533" lon="15.01399"><ele>24.0</ele><time>2026-04-12T07:28:40.972Z</time></trkpt><trkpt lat="40.473115" lon="15.0140017"><ele>23.666666666666668</ele><time>2026-04-12T07:28:41.972Z</time></trkpt><trkpt lat="40.4732767" lon="15.0140167"><ele>23.333333333333336</ele><time>2026-04-12T07:28:42.972Z</time></trkpt><trkpt lat="40.4734383" lon="15.01404"><ele>23.0</ele><time>2026-04-12T07:28:43.972Z</time></trkpt><trkpt lat="40.4736017" lon="15.0140667"><ele>23.0</ele><time>2026-04-12T07:28:44.972Z</time></trkpt><trkpt lat="40.4737667" lon="15.0140883"><ele>23.0</ele><time>2026-04-12T07:28:45.972Z</time></trkpt><trkpt lat="40.47393" lon="15.0141117"><ele>23.0</ele><time>2026-04-12T07:28:46.972Z</time></trkpt><trkpt lat="40.4740983" lon="15.0141367"><ele>23.0</ele><time>2026-04-12T07:28:47.972Z</time></trkpt><trkpt lat="40.4742617" lon="15.0141567"><ele>23.0</ele><time>2026-04-12T07:28:48.972Z</time></trkpt><trkpt lat="40.4744317" lon="15.0141767"><ele>23.0</ele><time>2026-04-12T07:28:49.973Z</time></trkpt><trkpt lat="40.4746033" lon="15.0141933"><ele>22.0</ele><time>2026-04-12T07:28:50.972Z</time></trkpt><trkpt lat="40.4747717" lon="15.0142133"><ele>21.0</ele><time>2026-04-12T07:28:51.972Z</time></trkpt><trkpt lat="40.4749417" lon="15.014235"><ele>20.0</ele><time>2026-04-12T07:28:52.972Z</time></trkpt><trkpt lat="40.475115" lon="15.0142483"><ele>20.0</ele><time>2026-04-12T07:28:53.972Z</time></trkpt><trkpt lat="40.4752833" lon="15.01427"><ele>20.0</ele><time>2026-04-12T07:28:54.972Z</time></trkpt><trkpt lat="40.4754517" lon="15.0142983"><ele>20.0</ele><time>2026-04-12T07:28:55.972Z</time></trkpt><trkpt lat="40.4756167" lon="15.0143217"><ele>20.666666666666668</ele><time>2026-04-12T07:28:56.973Z</time></trkpt><trkpt lat="40.4757767" lon="15.0143367"><ele>21.333333333333332</ele><time>2026-04-12T07:28:57.972Z</time></trkpt><trkpt lat="40.475945" lon="15.014355"><ele>22.0</ele><time>2026-04-12T07:28:58.972Z</time></trkpt><trkpt lat="40.4761133" lon="15.01437"><ele>21.333333333333332</ele><time>2026-04-12T07:28:59.972Z</time></trkpt><trkpt lat="40.4762783" lon="15.0143933"><ele>20.666666666666668</ele><time>2026-04-12T07:29:00.972Z</time></trkpt><trkpt lat="40.47644" lon="15.01441"><ele>20.0</ele><time>2026-04-12T07:29:01.972Z</time></trkpt><trkpt lat="40.4766033" lon="15.0144367"><ele>20.0</ele><time>2026-04-12T07:29:02.972Z</time></trkpt><trkpt lat="40.4767633" lon="15.014455"><ele>20.0</ele><time>2026-04-12T07:29:03.972Z</time></trkpt><trkpt lat="40.4769317" lon="15.0144767"><ele>20.0</ele><time>2026-04-12T07:29:04.972Z</time></trkpt><trkpt lat="40.477095" lon="15.0144983"><ele>19.666666666666668</ele><time>2026-04-12T07:29:05.972Z</time></trkpt><trkpt lat="40.4772583" lon="15.0145167"><ele>19.333333333333332</ele><time>2026-04-12T07:29:06.972Z</time></trkpt><trkpt lat="40.47742" lon="15.0145333"><ele>19.0</ele><time>2026-04-12T07:29:07.972Z</time></trkpt><trkpt lat="40.47757" lon="15.014555"><ele>19.0</ele><time>2026-04-12T07:29:08.972Z</time></trkpt><trkpt lat="40.4777167" lon="15.01457"><ele>19.0</ele><time>2026-04-12T07:29:09.972Z</time></trkpt><trkpt lat="40.47786" lon="15.01459"><ele>19.0</ele><time>2026-04-12T07:29:10.972Z</time></trkpt><trkpt lat="40.4780033" lon="15.0146083"><ele>19.0</ele><time>2026-04-12T07:29:11.972Z</time></trkpt><trkpt lat="40.4781467" lon="15.0146233"><ele>19.0</ele><time>2026-04-12T07:29:12.972Z</time></trkpt><trkpt lat="40.4782867" lon="15.0146417"><ele>19.0</ele><time>2026-04-12T07:29:13.972Z</time></trkpt><trkpt lat="40.478435" lon="15.0146583"><ele>19.0</ele><time>2026-04-12T07:29:14.972Z</time></trkpt><trkpt lat="40.4785867" lon="15.0146717"><ele>19.0</ele><time>2026-04-12T07:29:15.972Z</time></trkpt><trkpt lat="40.47874" lon="15.0146883"><ele>18.666666666666664</ele><time>2026-04-12T07:29:16.972Z</time></trkpt><trkpt lat="40.4788917" lon="15.014705"><ele>18.333333333333332</ele><time>2026-04-12T07:29:17.972Z</time></trkpt><trkpt lat="40.4790417" lon="15.0147233"><ele>18.0</ele><time>2026-04-12T07:29:18.972Z</time></trkpt><trkpt lat="40.4791967" lon="15.0147367"><ele>18.0</ele><time>2026-04-12T07:29:19.972Z</time></trkpt><trkpt lat="40.4793417" lon="15.014745"><ele>18.0</ele><time>2026-04-12T07:29:20.972Z</time></trkpt><trkpt lat="40.4794883" lon="15.0147617"><ele>18.0</ele><time>2026-04-12T07:29:21.972Z</time></trkpt><trkpt lat="40.4796433" lon="15.0147883"><ele>18.0</ele><time>2026-04-12T07:29:22.972Z</time></trkpt><trkpt lat="40.4798" lon="15.01481"><ele>17.666666666666668</ele><time>2026-04-12T07:29:23.972Z</time></trkpt><trkpt lat="40.479955" lon="15.014825"><ele>17.333333333333336</ele><time>2026-04-12T07:29:24.972Z</time></trkpt><trkpt lat="40.4801117" lon="15.0148483"><ele>17.0</ele><time>2026-04-12T07:29:25.972Z</time></trkpt><trkpt lat="40.48027" lon="15.0148717"><ele>17.0</ele><time>2026-04-12T07:29:26.972Z</time></trkpt><trkpt lat="40.48043" lon="15.0148917"><ele>17.0</ele><time>2026-04-12T07:29:27.972Z</time></trkpt><trkpt lat="40.4805917" lon="15.014915"><ele>17.0</ele><time>2026-04-12T07:29:28.972Z</time></trkpt><trkpt lat="40.480755" lon="15.014945"><ele>16.666666666666668</ele><time>2026-04-12T07:29:29.972Z</time></trkpt><trkpt lat="40.4809267" lon="15.0149667"><ele>16.333333333333332</ele><time>2026-04-12T07:29:30.972Z</time></trkpt><trkpt lat="40.4810883" lon="15.0149933"><ele>16.0</ele><time>2026-04-12T07:29:31.973Z</time></trkpt><trkpt lat="40.48126" lon="15.0150217"><ele>15.0</ele><time>2026-04-12T07:29:32.972Z</time></trkpt><trkpt lat="40.481435" lon="15.0150483"><ele>14.0</ele><time>2026-04-12T07:29:33.972Z</time></trkpt><trkpt lat="40.4816133" lon="15.0150717"><ele>13.0</ele><time>2026-04-12T07:29:34.972Z</time></trkpt><trkpt lat="40.481795" lon="15.015095"><ele>13.0</ele><time>2026-04-12T07:29:35.972Z</time></trkpt><trkpt lat="40.4819767" lon="15.0151117"><ele>13.0</ele><time>2026-04-12T07:29:36.972Z</time></trkpt><trkpt lat="40.4821633" lon="15.01513"><ele>13.0</ele><time>2026-04-12T07:29:37.972Z</time></trkpt><trkpt lat="40.48235" lon="15.0151483"><ele>12.666666666666666</ele><time>2026-04-12T07:29:38.972Z</time></trkpt><trkpt lat="40.482535" lon="15.0151667"><ele>12.333333333333332</ele><time>2026-04-12T07:29:39.972Z</time></trkpt><trkpt lat="40.4827217" lon="15.0151867"><ele>12.0</ele><time>2026-04-12T07:29:40.972Z</time></trkpt><trkpt lat="40.48291" lon="15.0152067"><ele>11.666666666666666</ele><time>2026-04-12T07:29:41.972Z</time></trkpt><trkpt lat="40.4830917" lon="15.01523"><ele>11.333333333333332</ele><time>2026-04-12T07:29:42.973Z</time></trkpt><trkpt lat="40.483275" lon="15.01525"><ele>11.0</ele><time>2026-04-12T07:29:43.972Z</time></trkpt><trkpt lat="40.4834583" lon="15.0152733"><ele>11.0</ele><time>2026-04-12T07:29:44.973Z</time></trkpt><trkpt lat="40.48364" lon="15.015295"><ele>11.0</ele><time>2026-04-12T07:29:45.972Z</time></trkpt><trkpt lat="40.48382" lon="15.0153167"><ele>11.0</ele><time>2026-04-12T07:29:46.973Z</time></trkpt><trkpt lat="40.4840017" lon="15.0153383"><ele>11.666666666666666</ele><time>2026-04-12T07:29:47.972Z</time></trkpt><trkpt lat="40.48419" lon="15.0153533"><ele>12.333333333333332</ele><time>2026-04-12T07:29:48.972Z</time></trkpt><trkpt lat="40.4843717" lon="15.0153783"><ele>13.0</ele><time>2026-04-12T07:29:49.972Z</time></trkpt><trkpt lat="40.4845633" lon="15.0154033"><ele>12.666666666666666</ele><time>2026-04-12T07:29:50.972Z</time></trkpt><trkpt lat="40.4847517" lon="15.0154217"><ele>12.333333333333332</ele><time>2026-04-12T07:29:51.972Z</time></trkpt><trkpt lat="40.4849467" lon="15.0154417"><ele>12.0</ele><time>2026-04-12T07:29:52.972Z</time></trkpt><trkpt lat="40.48514" lon="15.01546"><ele>12.0</ele><time>2026-04-12T07:29:53.972Z</time></trkpt><trkpt lat="40.485335" lon="15.015485"><ele>12.0</ele><time>2026-04-12T07:29:54.972Z</time></trkpt><trkpt lat="40.4855317" lon="15.0155083"><ele>12.0</ele><time>2026-04-12T07:29:55.972Z</time></trkpt><trkpt lat="40.4857283" lon="15.0155367"><ele>11.666666666666666</ele><time>2026-04-12T07:29:56.972Z</time></trkpt><trkpt lat="40.4859233" lon="15.0155683"><ele>11.333333333333332</ele><time>2026-04-12T07:29:57.972Z</time></trkpt><trkpt lat="40.4861233" lon="15.0155933"><ele>11.0</ele><time>2026-04-12T07:29:58.972Z</time></trkpt><trkpt lat="40.48632" lon="15.015615"><ele>10.333333333333332</ele><time>2026-04-12T07:29:59.972Z</time></trkpt><trkpt lat="40.4865167" lon="15.01564"><ele>9.666666666666666</ele><time>2026-04-12T07:30:00.972Z</time></trkpt><trkpt lat="40.4867133" lon="15.0156633"><ele>9.0</ele><time>2026-04-12T07:30:01.972Z</time></trkpt><trkpt lat="40.4869083" lon="15.0156867"><ele>9.666666666666666</ele><time>2026-04-12T07:30:02.972Z</time></trkpt><trkpt lat="40.4871017" lon="15.0157133"><ele>10.333333333333332</ele><time>2026-04-12T07:30:03.972Z</time></trkpt><trkpt lat="40.487295" lon="15.01574"><ele>11.0</ele><time>2026-04-12T07:30:04.972Z</time></trkpt><trkpt lat="40.487485" lon="15.0157683"><ele>11.0</ele><time>2026-04-12T07:30:05.972Z</time></trkpt><trkpt lat="40.487675" lon="15.015795"><ele>11.0</ele><time>2026-04-12T07:30:06.972Z</time></trkpt><trkpt lat="40.4878633" lon="15.0158083"><ele>11.0</ele><time>2026-04-12T07:30:07.972Z</time></trkpt><trkpt lat="40.4880483" lon="15.0158267"><ele>12.0</ele><time>2026-04-12T07:30:08.972Z</time></trkpt><trkpt lat="40.48823" lon="15.0158483"><ele>13.0</ele><time>2026-04-12T07:30:09.972Z</time></trkpt><trkpt lat="40.48841" lon="15.0158717"><ele>14.0</ele><time>2026-04-12T07:30:10.972Z</time></trkpt><trkpt lat="40.4885833" lon="15.0158933"><ele>15.333333333333334</ele><time>2026-04-12T07:30:11.972Z</time></trkpt><trkpt lat="40.48876" lon="15.01591"><ele>16.666666666666668</ele><time>2026-04-12T07:30:12.972Z</time></trkpt><trkpt lat="40.4889383" lon="15.01593"><ele>18.0</ele><time>2026-04-12T07:30:13.972Z</time></trkpt><trkpt lat="40.489115" lon="15.0159467"><ele>18.0</ele><time>2026-04-12T07:30:14.972Z</time></trkpt><trkpt lat="40.4892917" lon="15.01596"><ele>18.0</ele><time>2026-04-12T07:30:15.972Z</time></trkpt><trkpt lat="40.4894733" lon="15.0159883"><ele>18.0</ele><time>2026-04-12T07:30:16.972Z</time></trkpt><trkpt lat="40.489655" lon="15.01601"><ele>17.333333333333332</ele><time>2026-04-12T07:30:17.972Z</time></trkpt><trkpt lat="40.48983" lon="15.016025"><ele>16.666666666666664</ele><time>2026-04-12T07:30:18.972Z</time></trkpt><trkpt lat="40.4900083" lon="15.0160417"><ele>16.0</ele><time>2026-04-12T07:30:19.972Z</time></trkpt><trkpt lat="40.490185" lon="15.0160667"><ele>16.0</ele><time>2026-04-12T07:30:20.972Z</time></trkpt><trkpt lat="40.4903683" lon="15.016085"><ele>16.0</ele><time>2026-04-12T07:30:21.972Z</time></trkpt><trkpt lat="40.490545" lon="15.0161033"><ele>16.0</ele><time>2026-04-12T07:30:22.972Z</time></trkpt><trkpt lat="40.4907233" lon="15.0161333"><ele>16.333333333333332</ele><time>2026-04-12T07:30:23.972Z</time></trkpt><trkpt lat="40.4909" lon="15.01616"><ele>16.666666666666668</ele><time>2026-04-12T07:30:24.972Z</time></trkpt><trkpt lat="40.4910767" lon="15.01619"><ele>17.0</ele><time>2026-04-12T07:30:25.972Z</time></trkpt><trkpt lat="40.4912517" lon="15.0162117"><ele>17.333333333333336</ele><time>2026-04-12T07:30:26.972Z</time></trkpt><trkpt lat="40.49143" lon="15.01623"><ele>17.666666666666668</ele><time>2026-04-12T07:30:27.973Z</time></trkpt><trkpt lat="40.4916017" lon="15.0162483"><ele>18.0</ele><time>2026-04-12T07:30:28.972Z</time></trkpt><trkpt lat="40.4917833" lon="15.016265"><ele>18.0</ele><time>2026-04-12T07:30:29.972Z</time></trkpt><trkpt lat="40.4919533" lon="15.01629"><ele>18.0</ele><time>2026-04-12T07:30:30.972Z</time></trkpt><trkpt lat="40.49213" lon="15.0163083"><ele>18.0</ele><time>2026-04-12T07:30:31.972Z</time></trkpt><trkpt lat="40.4923167" lon="15.0163267"><ele>17.666666666666668</ele><time>2026-04-12T07:30:32.973Z</time></trkpt><trkpt lat="40.4924933" lon="15.0163467"><ele>17.333333333333336</ele><time>2026-04-12T07:30:33.972Z</time></trkpt><trkpt lat="40.49267" lon="15.0163667"><ele>17.0</ele><time>2026-04-12T07:30:34.972Z</time></trkpt><trkpt lat="40.4928467" lon="15.0163717"><ele>16.666666666666668</ele><time>2026-04-12T07:30:35.972Z</time></trkpt><trkpt lat="40.4930067" lon="15.0163683"><ele>16.333333333333332</ele><time>2026-04-12T07:30:36.972Z</time></trkpt><trkpt lat="40.4931583" lon="15.0163383"><ele>16.0</ele><time>2026-04-12T07:30:37.972Z</time></trkpt><trkpt lat="40.4932967" lon="15.0163067"><ele>16.0</ele><time>2026-04-12T07:30:38.972Z</time></trkpt><trkpt lat="40.4934267" lon="15.0162683"><ele>16.0</ele><time>2026-04-12T07:30:39.972Z</time></trkpt><trkpt lat="40.4935467" lon="15.0162317"><ele>16.0</ele><time>2026-04-12T07:30:40.972Z</time></trkpt><trkpt lat="40.493665" lon="15.016185"><ele>16.0</ele><time>2026-04-12T07:30:41.972Z</time></trkpt><trkpt lat="40.49378" lon="15.01613"><ele>16.25</ele><time>2026-04-12T07:30:42.972Z</time></trkpt><trkpt lat="40.4939017" lon="15.0160817"><ele>16.5</ele><time>2026-04-12T07:30:43.972Z</time></trkpt><trkpt lat="40.4940183" lon="15.016025"><ele>16.75</ele><time>2026-04-12T07:30:44.972Z</time></trkpt><trkpt lat="40.4941283" lon="15.0159733"><ele>17.0</ele><time>2026-04-12T07:30:45.972Z</time></trkpt><trkpt lat="40.4942367" lon="15.0159483"><ele>17.0</ele><time>2026-04-12T07:30:46.972Z</time></trkpt><trkpt lat="40.4943433" lon="15.015955"><ele>17.0</ele><time>2026-04-12T07:30:47.972Z</time></trkpt><trkpt lat="40.4944483" lon="15.0159767"><ele>17.0</ele><time>2026-04-12T07:30:48.972Z</time></trkpt><trkpt lat="40.49455" lon="15.0159883"><ele>17.0</ele><time>2026-04-12T07:30:49.972Z</time></trkpt><trkpt lat="40.49464" lon="15.01599"><ele>17.0</ele><time>2026-04-12T07:30:50.972Z</time></trkpt><trkpt lat="40.4947183" lon="15.0159867"><ele>16.6</ele><time>2026-04-12T07:30:51.972Z</time></trkpt><trkpt lat="40.49481" lon="15.0159817"><ele>16.2</ele><time>2026-04-12T07:30:52.972Z</time></trkpt><trkpt lat="40.4949133" lon="15.0159583"><ele>15.8</ele><time>2026-04-12T07:30:53.972Z</time></trkpt><trkpt lat="40.4950233" lon="15.0159217"><ele>15.4</ele><time>2026-04-12T07:30:54.972Z</time></trkpt><trkpt lat="40.4951517" lon="15.0158717"><ele>15.0</ele><time>2026-04-12T07:30:55.972Z</time></trkpt><trkpt lat="40.4952933" lon="15.0158167"><ele>14.0</ele><time>2026-04-12T07:30:56.972Z</time></trkpt><trkpt lat="40.49546" lon="15.015775"><ele>13.0</ele><time>2026-04-12T07:30:57.972Z</time></trkpt><trkpt lat="40.4956117" lon="15.0157083"><ele>12.0</ele><time>2026-04-12T07:30:58.972Z</time></trkpt><trkpt lat="40.49575" lon="15.0156483"><ele>12.0</ele><time>2026-04-12T07:30:59.972Z</time></trkpt><trkpt lat="40.49587" lon="15.0155967"><ele>12.0</ele><time>2026-04-12T07:31:00.972Z</time></trkpt><trkpt lat="40.49598" lon="15.0155617"><ele>12.0</ele><time>2026-04-12T07:31:01.972Z</time></trkpt><trkpt lat="40.49606" lon="15.01554"><ele>12.0</ele><time>2026-04-12T07:31:02.972Z</time></trkpt><trkpt lat="40.49614" lon="15.0155517"><ele>12.0</ele><time>2026-04-12T07:31:03.972Z</time></trkpt><trkpt lat="40.4962033" lon="15.0155933"><ele>12.0</ele><time>2026-04-12T07:31:04.972Z</time></trkpt><trkpt lat="40.4962417" lon="15.0156833"><ele>12.0</ele><time>2026-04-12T07:31:05.972Z</time></trkpt><trkpt lat="40.49627" lon="15.015805"><ele>12.0</ele><time>2026-04-12T07:31:06.972Z</time></trkpt><trkpt lat="40.496275" lon="15.01596"><ele>12.0</ele><time>2026-04-12T07:31:07.972Z</time></trkpt><trkpt lat="40.4962617" lon="15.0161383"><ele>12.0</ele><time>2026-04-12T07:31:08.972Z</time></trkpt><trkpt lat="40.4962583" lon="15.01632"><ele>12.0</ele><time>2026-04-12T07:31:09.972Z</time></trkpt><trkpt lat="40.4962617" lon="15.01651"><ele>12.0</ele><time>2026-04-12T07:31:10.972Z</time></trkpt><trkpt lat="40.49628" lon="15.0167033"><ele>12.0</ele><time>2026-04-12T07:31:11.973Z</time></trkpt><trkpt lat="40.4963083" lon="15.0169217"><ele>12.0</ele><time>2026-04-12T07:31:12.972Z</time></trkpt><trkpt lat="40.496335" lon="15.0171483"><ele>12.0</ele><time>2026-04-12T07:31:13.972Z</time></trkpt><trkpt lat="40.4963583" lon="15.0173867"><ele>12.0</ele><time>2026-04-12T07:31:14.972Z</time></trkpt><trkpt lat="40.496395" lon="15.0176183"><ele>12.333333333333332</ele><time>2026-04-12T07:31:15.972Z</time></trkpt><trkpt lat="40.496425" lon="15.0178583"><ele>12.666666666666666</ele><time>2026-04-12T07:31:16.972Z</time></trkpt><trkpt lat="40.496455" lon="15.018095"><ele>13.0</ele><time>2026-04-12T07:31:17.972Z</time></trkpt><trkpt lat="40.4964833" lon="15.01833"><ele>13.0</ele><time>2026-04-12T07:31:18.972Z</time></trkpt><trkpt lat="40.4965133" lon="15.0185617"><ele>13.0</ele><time>2026-04-12T07:31:19.972Z</time></trkpt><trkpt lat="40.4965467" lon="15.018795"><ele>13.0</ele><time>2026-04-12T07:31:20.972Z</time></trkpt><trkpt lat="40.4965817" lon="15.01903"><ele>13.666666666666666</ele><time>2026-04-12T07:31:21.972Z</time></trkpt><trkpt lat="40.4966133" lon="15.0192633"><ele>14.333333333333332</ele><time>2026-04-12T07:31:22.972Z</time></trkpt><trkpt lat="40.49664" lon="15.0194967"><ele>15.0</ele><time>2026-04-12T07:31:23.973Z</time></trkpt><trkpt lat="40.4966717" lon="15.0197333"><ele>15.0</ele><time>2026-04-12T07:31:24.972Z</time></trkpt><trkpt lat="40.4967033" lon="15.01996"><ele>15.0</ele><time>2026-04-12T07:31:25.972Z</time></trkpt><trkpt lat="40.4967383" lon="15.0201917"><ele>15.0</ele><time>2026-04-12T07:31:26.972Z</time></trkpt><trkpt lat="40.49677" lon="15.0204233"><ele>15.333333333333332</ele><time>2026-04-12T07:31:27.972Z</time></trkpt><trkpt lat="40.4968067" lon="15.020655"><ele>15.666666666666666</ele><time>2026-04-12T07:31:28.972Z</time></trkpt><trkpt lat="40.4968383" lon="15.0208817"><ele>16.0</ele><time>2026-04-12T07:31:29.972Z</time></trkpt><trkpt lat="40.4968683" lon="15.0211"><ele>17.333333333333332</ele><time>2026-04-12T07:31:30.972Z</time></trkpt><trkpt lat="40.496895" lon="15.0213183"><ele>18.666666666666668</ele><time>2026-04-12T07:31:31.972Z</time></trkpt><trkpt lat="40.4969217" lon="15.0215383"><ele>20.0</ele><time>2026-04-12T07:31:32.972Z</time></trkpt><trkpt lat="40.4969483" lon="15.0217533"><ele>20.0</ele><time>2026-04-12T07:31:33.972Z</time></trkpt><trkpt lat="40.4969817" lon="15.021965"><ele>20.0</ele><time>2026-04-12T07:31:34.973Z</time></trkpt><trkpt lat="40.4970167" lon="15.0221817"><ele>20.0</ele><time>2026-04-12T07:31:35.973Z</time></trkpt><trkpt lat="40.4970433" lon="15.0224083"><ele>19.666666666666668</ele><time>2026-04-12T07:31:36.972Z</time></trkpt><trkpt lat="40.49708" lon="15.0226383"><ele>19.333333333333332</ele><time>2026-04-12T07:31:37.972Z</time></trkpt><trkpt lat="40.49712" lon="15.0228767"><ele>19.0</ele><time>2026-04-12T07:31:38.972Z</time></trkpt><trkpt lat="40.49715" lon="15.0231183"><ele>19.0</ele><time>2026-04-12T07:31:39.972Z</time></trkpt><trkpt lat="40.4971783" lon="15.023365"><ele>19.0</ele><time>2026-04-12T07:31:40.972Z</time></trkpt><trkpt lat="40.4972083" lon="15.02361"><ele>19.0</ele><time>2026-04-12T07:31:41.972Z</time></trkpt><trkpt lat="40.4972383" lon="15.0238533"><ele>19.0</ele><time>2026-04-12T07:31:42.972Z</time></trkpt><trkpt lat="40.4972683" lon="15.0240967"><ele>19.0</ele><time>2026-04-12T07:31:43.972Z</time></trkpt><trkpt lat="40.4973033" lon="15.0243367"><ele>19.0</ele><time>2026-04-12T07:31:44.972Z</time></trkpt><trkpt lat="40.49734" lon="15.0245733"><ele>19.0</ele><time>2026-04-12T07:31:45.972Z</time></trkpt><trkpt lat="40.4973717" lon="15.02481"><ele>19.0</ele><time>2026-04-12T07:31:46.972Z</time></trkpt><trkpt lat="40.4974083" lon="15.02505"><ele>19.0</ele><time>2026-04-12T07:31:47.972Z</time></trkpt><trkpt lat="40.4974417" lon="15.02529"><ele>19.0</ele><time>2026-04-12T07:31:48.972Z</time></trkpt><trkpt lat="40.497475" lon="15.02553"><ele>19.0</ele><time>2026-04-12T07:31:49.972Z</time></trkpt><trkpt lat="40.4975067" lon="15.0257617"><ele>19.0</ele><time>2026-04-12T07:31:50.972Z</time></trkpt><trkpt lat="40.497535" lon="15.02598"><ele>19.0</ele><time>2026-04-12T07:31:51.972Z</time></trkpt><trkpt lat="40.4975667" lon="15.026185"><ele>19.0</ele><time>2026-04-12T07:31:52.972Z</time></trkpt><trkpt lat="40.497595" lon="15.0263783"><ele>19.0</ele><time>2026-04-12T07:31:53.972Z</time></trkpt><trkpt lat="40.49762" lon="15.0265633"><ele>19.0</ele><time>2026-04-12T07:31:54.972Z</time></trkpt><trkpt lat="40.497645" lon="15.026745"><ele>19.0</ele><time>2026-04-12T07:31:55.972Z</time></trkpt><trkpt lat="40.4976717" lon="15.0269317"><ele>19.0</ele><time>2026-04-12T07:31:56.972Z</time></trkpt><trkpt lat="40.4977" lon="15.02712"><ele>19.0</ele><time>2026-04-12T07:31:57.972Z</time></trkpt><trkpt lat="40.4977233" lon="15.0273067"><ele>19.25</ele><time>2026-04-12T07:31:58.973Z</time></trkpt><trkpt lat="40.4977533" lon="15.027495"><ele>19.5</ele><time>2026-04-12T07:31:59.972Z</time></trkpt><trkpt lat="40.4977817" lon="15.0276817"><ele>19.75</ele><time>2026-04-12T07:32:00.972Z</time></trkpt><trkpt lat="40.4978083" lon="15.02787"><ele>20.0</ele><time>2026-04-12T07:32:01.972Z</time></trkpt><trkpt lat="40.497835" lon="15.0280533"><ele>20.0</ele><time>2026-04-12T07:32:02.972Z</time></trkpt><trkpt lat="40.4978617" lon="15.0282433"><ele>20.0</ele><time>2026-04-12T07:32:03.972Z</time></trkpt><trkpt lat="40.4978867" lon="15.0284317"><ele>20.0</ele><time>2026-04-12T07:32:04.972Z</time></trkpt><trkpt lat="40.4979133" lon="15.0286167"><ele>20.0</ele><time>2026-04-12T07:32:05.972Z</time></trkpt><trkpt lat="40.4979433" lon="15.0288"><ele>20.0</ele><time>2026-04-12T07:32:06.972Z</time></trkpt><trkpt lat="40.49797" lon="15.0289867"><ele>20.0</ele><time>2026-04-12T07:32:07.972Z</time></trkpt><trkpt lat="40.4979917" lon="15.029175"><ele>20.0</ele><time>2026-04-12T07:32:08.972Z</time></trkpt><trkpt lat="40.4980133" lon="15.0293633"><ele>20.0</ele><time>2026-04-12T07:32:09.972Z</time></trkpt><trkpt lat="40.49804" lon="15.02957"><ele>20.333333333333336</ele><time>2026-04-12T07:32:10.972Z</time></trkpt><trkpt lat="40.4980717" lon="15.02979"><ele>20.666666666666668</ele><time>2026-04-12T07:32:11.972Z</time></trkpt><trkpt lat="40.4981067" lon="15.03003"><ele>21.0</ele><time>2026-04-12T07:32:12.972Z</time></trkpt><trkpt lat="40.49814" lon="15.0302817"><ele>21.0</ele><time>2026-04-12T07:32:13.972Z</time></trkpt><trkpt lat="40.498175" lon="15.0305383"><ele>21.0</ele><time>2026-04-12T07:32:14.972Z</time></trkpt><trkpt lat="40.49821" lon="15.0307933"><ele>21.0</ele><time>2026-04-12T07:32:15.972Z</time></trkpt><trkpt lat="40.4982483" lon="15.0310517"><ele>21.0</ele><time>2026-04-12T07:32:16.972Z</time></trkpt><trkpt lat="40.49829" lon="15.03131"><ele>21.0</ele><time>2026-04-12T07:32:17.972Z</time></trkpt><trkpt lat="40.4983283" lon="15.0315717"><ele>21.0</ele><time>2026-04-12T07:32:18.973Z</time></trkpt><trkpt lat="40.498365" lon="15.0318133"><ele>21.0</ele><time>2026-04-12T07:32:19.972Z</time></trkpt><trkpt lat="40.4983983" lon="15.0320533"><ele>21.0</ele><time>2026-04-12T07:32:20.972Z</time></trkpt><trkpt lat="40.4984283" lon="15.0322917"><ele>21.0</ele><time>2026-04-12T07:32:21.972Z</time></trkpt><trkpt lat="40.49846" lon="15.03253"><ele>21.0</ele><time>2026-04-12T07:32:22.972Z</time></trkpt><trkpt lat="40.49849" lon="15.0327667"><ele>21.0</ele><time>2026-04-12T07:32:23.972Z</time></trkpt><trkpt lat="40.49853" lon="15.0330017"><ele>21.0</ele><time>2026-04-12T07:32:24.972Z</time></trkpt><trkpt lat="40.4985617" lon="15.03324"><ele>21.333333333333332</ele><time>2026-04-12T07:32:25.972Z</time></trkpt><trkpt lat="40.49859" lon="15.0334783"><ele>21.666666666666664</ele><time>2026-04-12T07:32:26.972Z</time></trkpt><trkpt lat="40.4986267" lon="15.0337133"><ele>22.0</ele><time>2026-04-12T07:32:27.972Z</time></trkpt><trkpt lat="40.4986583" lon="15.0339533"><ele>22.333333333333332</ele><time>2026-04-12T07:32:28.972Z</time></trkpt><trkpt lat="40.4986983" lon="15.034185"><ele>22.666666666666668</ele><time>2026-04-12T07:32:29.972Z</time></trkpt><trkpt lat="40.4987283" lon="15.03442"><ele>23.0</ele><time>2026-04-12T07:32:30.972Z</time></trkpt><trkpt lat="40.49876" lon="15.0346517"><ele>22.0</ele><time>2026-04-12T07:32:31.972Z</time></trkpt><trkpt lat="40.4987883" lon="15.0348933"><ele>21.0</ele><time>2026-04-12T07:32:32.972Z</time></trkpt><trkpt lat="40.498825" lon="15.0351367"><ele>20.0</ele><time>2026-04-12T07:32:33.972Z</time></trkpt><trkpt lat="40.4988617" lon="15.0353883"><ele>20.0</ele><time>2026-04-12T07:32:34.973Z</time></trkpt><trkpt lat="40.4988983" lon="15.0356517"><ele>20.0</ele><time>2026-04-12T07:32:35.972Z</time></trkpt><trkpt lat="40.4989383" lon="15.0359117"><ele>20.0</ele><time>2026-04-12T07:32:36.972Z</time></trkpt><trkpt lat="40.498975" lon="15.0361733"><ele>20.333333333333336</ele><time>2026-04-12T07:32:37.972Z</time></trkpt><trkpt lat="40.4990133" lon="15.0364383"><ele>20.666666666666668</ele><time>2026-04-12T07:32:38.972Z</time></trkpt><trkpt lat="40.49905" lon="15.036705"><ele>21.0</ele><time>2026-04-12T07:32:39.972Z</time></trkpt><trkpt lat="40.4990883" lon="15.0369617"><ele>21.333333333333332</ele><time>2026-04-12T07:32:40.972Z</time></trkpt><trkpt lat="40.4991217" lon="15.0371983"><ele>21.666666666666664</ele><time>2026-04-12T07:32:41.972Z</time></trkpt><trkpt lat="40.4991517" lon="15.0374117"><ele>22.0</ele><time>2026-04-12T07:32:42.972Z</time></trkpt><trkpt lat="40.4991783" lon="15.0376"><ele>22.200000000000003</ele><time>2026-04-12T07:32:43.972Z</time></trkpt><trkpt lat="40.4992033" lon="15.037765"><ele>22.4</ele><time>2026-04-12T07:32:44.972Z</time></trkpt><trkpt lat="40.49922" lon="15.037915"><ele>22.6</ele><time>2026-04-12T07:32:45.972Z</time></trkpt><trkpt lat="40.4992433" lon="15.0380333"><ele>22.799999999999997</ele><time>2026-04-12T07:32:46.972Z</time></trkpt><trkpt lat="40.4992867" lon="15.03812"><ele>23.0</ele><time>2026-04-12T07:32:47.972Z</time></trkpt><trkpt lat="40.4993433" lon="15.0381883"><ele>23.0</ele><time>2026-04-12T07:32:48.972Z</time></trkpt><trkpt lat="40.4994217" lon="15.03823"><ele>23.0</ele><time>2026-04-12T07:32:49.972Z</time></trkpt><trkpt lat="40.49953" lon="15.0382617"><ele>23.0</ele><time>2026-04-12T07:32:50.972Z</time></trkpt><trkpt lat="40.499645" lon="15.038305"><ele>23.0</ele><time>2026-04-12T07:32:51.972Z</time></trkpt><trkpt lat="40.499775" lon="15.038355"><ele>23.75</ele><time>2026-04-12T07:32:52.972Z</time></trkpt><trkpt lat="40.4999117" lon="15.0383983"><ele>24.5</ele><time>2026-04-12T07:32:53.972Z</time></trkpt><trkpt lat="40.5000533" lon="15.0384533"><ele>25.25</ele><time>2026-04-12T07:32:54.973Z</time></trkpt><trkpt lat="40.5001967" lon="15.0385083"><ele>26.0</ele><time>2026-04-12T07:32:55.972Z</time></trkpt><trkpt lat="40.5003583" lon="15.0385667"><ele>25.333333333333332</ele><time>2026-04-12T07:32:56.972Z</time></trkpt><trkpt lat="40.500525" lon="15.0386183"><ele>24.666666666666664</ele><time>2026-04-12T07:32:57.972Z</time></trkpt><trkpt lat="40.500685" lon="15.03868"><ele>24.0</ele><time>2026-04-12T07:32:58.972Z</time></trkpt><trkpt lat="40.500835" lon="15.0387367"><ele>24.0</ele><time>2026-04-12T07:32:59.972Z</time></trkpt><trkpt lat="40.50097" lon="15.038785"><ele>24.0</ele><time>2026-04-12T07:33:00.972Z</time></trkpt><trkpt lat="40.5011017" lon="15.0388317"><ele>24.0</ele><time>2026-04-12T07:33:01.972Z</time></trkpt><trkpt lat="40.501225" lon="15.0388633"><ele>24.0</ele><time>2026-04-12T07:33:02.973Z</time></trkpt><trkpt lat="40.501355" lon="15.038855"><ele>23.333333333333332</ele><time>2026-04-12T07:33:03.972Z</time></trkpt><trkpt lat="40.5014917" lon="15.0388017"><ele>22.666666666666664</ele><time>2026-04-12T07:33:04.972Z</time></trkpt><trkpt lat="40.5016267" lon="15.0387083"><ele>22.0</ele><time>2026-04-12T07:33:05.972Z</time></trkpt><trkpt lat="40.501765" lon="15.0385933"><ele>22.0</ele><time>2026-04-12T07:33:06.972Z</time></trkpt><trkpt lat="40.5019133" lon="15.0384683"><ele>22.0</ele><time>2026-04-12T07:33:07.972Z</time></trkpt><trkpt lat="40.502065" lon="15.0383467"><ele>22.0</ele><time>2026-04-12T07:33:08.972Z</time></trkpt><trkpt lat="40.502225" lon="15.0382217"><ele>21.666666666666664</ele><time>2026-04-12T07:33:09.972Z</time></trkpt><trkpt lat="40.5023833" lon="15.0381"><ele>21.333333333333332</ele><time>2026-04-12T07:33:10.973Z</time></trkpt><trkpt lat="40.502525" lon="15.037985"><ele>21.0</ele><time>2026-04-12T07:33:11.972Z</time></trkpt><trkpt lat="40.5026567" lon="15.0378783"><ele>21.0</ele><time>2026-04-12T07:33:12.972Z</time></trkpt><trkpt lat="40.5027833" lon="15.037775"><ele>21.0</ele><time>2026-04-12T07:33:13.973Z</time></trkpt><trkpt lat="40.5029017" lon="15.0376883"><ele>21.0</ele><time>2026-04-12T07:33:14.972Z</time></trkpt><trkpt lat="40.5030183" lon="15.03761"><ele>21.0</ele><time>2026-04-12T07:33:15.972Z</time></trkpt><trkpt lat="40.5031383" lon="15.0375383"><ele>21.25</ele><time>2026-04-12T07:33:16.972Z</time></trkpt><trkpt lat="40.5032583" lon="15.037475"><ele>21.5</ele><time>2026-04-12T07:33:17.972Z</time></trkpt><trkpt lat="40.503375" lon="15.0374183"><ele>21.75</ele><time>2026-04-12T07:33:18.972Z</time></trkpt><trkpt lat="40.503495" lon="15.0373633"><ele>22.0</ele><time>2026-04-12T07:33:19.972Z</time></trkpt><trkpt lat="40.503635" lon="15.0373217"><ele>21.333333333333332</ele><time>2026-04-12T07:33:20.972Z</time></trkpt><trkpt lat="40.50379" lon="15.037275"><ele>20.666666666666668</ele><time>2026-04-12T07:33:21.972Z</time></trkpt><trkpt lat="40.5039533" lon="15.03723"><ele>20.0</ele><time>2026-04-12T07:33:22.972Z</time></trkpt><trkpt lat="40.5041317" lon="15.03718"><ele>20.0</ele><time>2026-04-12T07:33:23.972Z</time></trkpt><trkpt lat="40.5043083" lon="15.03714"><ele>20.0</ele><time>2026-04-12T07:33:24.972Z</time></trkpt><trkpt lat="40.5044783" lon="15.0370933"><ele>20.0</ele><time>2026-04-12T07:33:25.972Z</time></trkpt><trkpt lat="40.5046367" lon="15.0370433"><ele>19.5</ele><time>2026-04-12T07:33:26.972Z</time></trkpt><trkpt lat="40.504785" lon="15.0370017"><ele>19.0</ele><time>2026-04-12T07:33:27.972Z</time></trkpt><trkpt lat="40.5049233" lon="15.036965"><ele>18.5</ele><time>2026-04-12T07:33:28.973Z</time></trkpt><trkpt lat="40.5050583" lon="15.036945"><ele>18.0</ele><time>2026-04-12T07:33:29.972Z</time></trkpt><trkpt lat="40.505195" lon="15.0369367"><ele>18.0</ele><time>2026-04-12T07:33:30.972Z</time></trkpt><trkpt lat="40.50534" lon="15.036945"><ele>18.0</ele><time>2026-04-12T07:33:31.972Z</time></trkpt><trkpt lat="40.5054867" lon="15.0369583"><ele>18.0</ele><time>2026-04-12T07:33:32.972Z</time></trkpt><trkpt lat="40.5056333" lon="15.0369817"><ele>18.0</ele><time>2026-04-12T07:33:33.972Z</time></trkpt><trkpt lat="40.50578" lon="15.037"><ele>17.0</ele><time>2026-04-12T07:33:34.972Z</time></trkpt><trkpt lat="40.5059217" lon="15.0370267"><ele>16.0</ele><time>2026-04-12T07:33:35.973Z</time></trkpt><trkpt lat="40.506045" lon="15.0370767"><ele>15.0</ele><time>2026-04-12T07:33:36.972Z</time></trkpt><trkpt lat="40.5061583" lon="15.0371483"><ele>14.0</ele><time>2026-04-12T07:33:37.972Z</time></trkpt><trkpt lat="40.506265" lon="15.037255"><ele>14.0</ele><time>2026-04-12T07:33:38.972Z</time></trkpt><trkpt lat="40.5063583" lon="15.0373917"><ele>14.0</ele><time>2026-04-12T07:33:39.972Z</time></trkpt><trkpt lat="40.506435" lon="15.0375467"><ele>14.0</ele><time>2026-04-12T07:33:40.972Z</time></trkpt><trkpt lat="40.5065017" lon="15.037735"><ele>14.0</ele><time>2026-04-12T07:33:41.972Z</time></trkpt><trkpt lat="40.5065617" lon="15.0379317"><ele>14.0</ele><time>2026-04-12T07:33:42.972Z</time></trkpt><trkpt lat="40.5066217" lon="15.0381267"><ele>14.0</ele><time>2026-04-12T07:33:43.973Z</time></trkpt><trkpt lat="40.5066767" lon="15.038315"><ele>14.0</ele><time>2026-04-12T07:33:44.972Z</time></trkpt><trkpt lat="40.5067367" lon="15.0385117"><ele>14.333333333333334</ele><time>2026-04-12T07:33:45.972Z</time></trkpt><trkpt lat="40.5067983" lon="15.038725"><ele>14.666666666666668</ele><time>2026-04-12T07:33:46.972Z</time></trkpt><trkpt lat="40.5068567" lon="15.0389483"><ele>15.0</ele><time>2026-04-12T07:33:47.972Z</time></trkpt><trkpt lat="40.5069133" lon="15.03918"><ele>15.333333333333332</ele><time>2026-04-12T07:33:48.972Z</time></trkpt><trkpt lat="40.50698" lon="15.0394117"><ele>15.666666666666666</ele><time>2026-04-12T07:33:49.972Z</time></trkpt><trkpt lat="40.50703" lon="15.0396517"><ele>16.0</ele><time>2026-04-12T07:33:50.972Z</time></trkpt><trkpt lat="40.5070833" lon="15.0398967"><ele>17.333333333333332</ele><time>2026-04-12T07:33:51.972Z</time></trkpt><trkpt lat="40.507135" lon="15.0401183"><ele>18.666666666666668</ele><time>2026-04-12T07:33:52.972Z</time></trkpt><trkpt lat="40.507185" lon="15.0403217"><ele>20.0</ele><time>2026-04-12T07:33:53.972Z</time></trkpt><trkpt lat="40.5072267" lon="15.0405033"><ele>20.0</ele><time>2026-04-12T07:33:54.972Z</time></trkpt><trkpt lat="40.5072683" lon="15.040675"><ele>20.0</ele><time>2026-04-12T07:33:55.972Z</time></trkpt><trkpt lat="40.50733" lon="15.04083"><ele>20.0</ele><time>2026-04-12T07:33:56.972Z</time></trkpt><trkpt lat="40.5074117" lon="15.0409583"><ele>20.0</ele><time>2026-04-12T07:33:57.972Z</time></trkpt><trkpt lat="40.507495" lon="15.0410567"><ele>20.2</ele><time>2026-04-12T07:33:58.972Z</time></trkpt><trkpt lat="40.5075533" lon="15.041165"><ele>20.4</ele><time>2026-04-12T07:33:59.972Z</time></trkpt><trkpt lat="40.5075883" lon="15.0412933"><ele>20.6</ele><time>2026-04-12T07:34:00.972Z</time></trkpt><trkpt lat="40.507605" lon="15.0414433"><ele>20.8</ele><time>2026-04-12T07:34:01.972Z</time></trkpt><trkpt lat="40.5076133" lon="15.04161"><ele>21.0</ele><time>2026-04-12T07:34:02.973Z</time></trkpt><trkpt lat="40.5076183" lon="15.0417967"><ele>21.5</ele><time>2026-04-12T07:34:03.972Z</time></trkpt><trkpt lat="40.5076267" lon="15.0419817"><ele>22.0</ele><time>2026-04-12T07:34:04.972Z</time></trkpt><trkpt lat="40.5076333" lon="15.0421483"><ele>22.5</ele><time>2026-04-12T07:34:05.973Z</time></trkpt><trkpt lat="40.5076367" lon="15.04229"><ele>23.0</ele><time>2026-04-12T07:34:06.972Z</time></trkpt><trkpt lat="40.50764" lon="15.0424167"><ele>23.0</ele><time>2026-04-12T07:34:07.972Z</time></trkpt><trkpt lat="40.50765" lon="15.0425567"><ele>23.0</ele><time>2026-04-12T07:34:08.972Z</time></trkpt><trkpt lat="40.5076617" lon="15.0427083"><ele>23.0</ele><time>2026-04-12T07:34:09.972Z</time></trkpt><trkpt lat="40.50767" lon="15.0428733"><ele>23.0</ele><time>2026-04-12T07:34:10.972Z</time></trkpt><trkpt lat="40.5076783" lon="15.04305"><ele>23.0</ele><time>2026-04-12T07:34:11.972Z</time></trkpt><trkpt lat="40.5076983" lon="15.0432167"><ele>23.0</ele><time>2026-04-12T07:34:12.972Z</time></trkpt><trkpt lat="40.507705" lon="15.0433767"><ele>23.0</ele><time>2026-04-12T07:34:13.972Z</time></trkpt><trkpt lat="40.5077133" lon="15.0435317"><ele>23.0</ele><time>2026-04-12T07:34:14.972Z</time></trkpt><trkpt lat="40.50774" lon="15.0436617"><ele>23.599999999999998</ele><time>2026-04-12T07:34:15.972Z</time></trkpt><trkpt lat="40.5077917" lon="15.0437683"><ele>24.2</ele><time>2026-04-12T07:34:16.972Z</time></trkpt><trkpt lat="40.507875" lon="15.0438367"><ele>24.8</ele><time>2026-04-12T07:34:17.972Z</time></trkpt><trkpt lat="40.5079867" lon="15.04388"><ele>25.4</ele><time>2026-04-12T07:34:18.972Z</time></trkpt><trkpt lat="40.5081067" lon="15.0439117"><ele>26.0</ele><time>2026-04-12T07:34:19.972Z</time></trkpt><trkpt lat="40.50823" lon="15.043925"><ele>26.0</ele><time>2026-04-12T07:34:20.972Z</time></trkpt><trkpt lat="40.50834" lon="15.04396"><ele>26.0</ele><time>2026-04-12T07:34:21.972Z</time></trkpt><trkpt lat="40.5084417" lon="15.0440183"><ele>26.0</ele><time>2026-04-12T07:34:22.972Z</time></trkpt><trkpt lat="40.5085317" lon="15.0441083"><ele>26.0</ele><time>2026-04-12T07:34:23.972Z</time></trkpt><trkpt lat="40.5086083" lon="15.0442333"><ele>26.0</ele><time>2026-04-12T07:34:24.972Z</time></trkpt><trkpt lat="40.5086733" lon="15.044395"><ele>26.0</ele><time>2026-04-12T07:34:25.972Z</time></trkpt><trkpt lat="40.5087267" lon="15.044575"><ele>26.0</ele><time>2026-04-12T07:34:26.972Z</time></trkpt><trkpt lat="40.50878" lon="15.0447767"><ele>26.0</ele><time>2026-04-12T07:34:27.972Z</time></trkpt><trkpt lat="40.5088267" lon="15.0449667"><ele>25.6</ele><time>2026-04-12T07:34:28.972Z</time></trkpt><trkpt lat="40.508865" lon="15.0451217"><ele>25.200000000000003</ele><time>2026-04-12T07:34:29.973Z</time></trkpt><trkpt lat="40.5088967" lon="15.045235"><ele>24.799999999999997</ele><time>2026-04-12T07:34:30.972Z</time></trkpt><trkpt lat="40.50893" lon="15.0453167"><ele>24.4</ele><time>2026-04-12T07:34:31.972Z</time></trkpt><trkpt lat="40.5090233" lon="15.0453617"><ele>24.0</ele><time>2026-04-12T07:34:33.972Z</time></trkpt><trkpt lat="40.5091133" lon="15.0452567"><ele>24.0</ele><time>2026-04-12T07:34:35.972Z</time></trkpt><trkpt lat="40.509145" lon="15.0451567"><ele>24.0</ele><time>2026-04-12T07:34:36.972Z</time></trkpt><trkpt lat="40.5091683" lon="15.04503"><ele>24.0</ele><time>2026-04-12T07:34:37.972Z</time></trkpt><trkpt lat="40.5091967" lon="15.04488"><ele>24.0</ele><time>2026-04-12T07:34:38.972Z</time></trkpt><trkpt lat="40.5092433" lon="15.0447267"><ele>24.0</ele><time>2026-04-12T07:34:39.972Z</time></trkpt><trkpt lat="40.5093" lon="15.0445733"><ele>24.25</ele><time>2026-04-12T07:34:40.972Z</time></trkpt><trkpt lat="40.50937" lon="15.0444183"><ele>24.5</ele><time>2026-04-12T07:34:41.972Z</time></trkpt><trkpt lat="40.5094517" lon="15.04426"><ele>24.75</ele><time>2026-04-12T07:34:42.972Z</time></trkpt><trkpt lat="40.5095417" lon="15.044115"><ele>25.0</ele><time>2026-04-12T07:34:43.973Z</time></trkpt><trkpt lat="40.5096517" lon="15.0440033"><ele>23.5</ele><time>2026-04-12T07:34:44.973Z</time></trkpt><trkpt lat="40.509775" lon="15.0439217"><ele>22.0</ele><time>2026-04-12T07:34:45.972Z</time></trkpt><trkpt lat="40.509905" lon="15.0438683"><ele>20.5</ele><time>2026-04-12T07:34:46.972Z</time></trkpt><trkpt lat="40.5100417" lon="15.04383"><ele>19.0</ele><time>2026-04-12T07:34:47.972Z</time></trkpt><trkpt lat="40.5101933" lon="15.0438017"><ele>19.0</ele><time>2026-04-12T07:34:48.972Z</time></trkpt><trkpt lat="40.510355" lon="15.04378"><ele>19.0</ele><time>2026-04-12T07:34:49.972Z</time></trkpt><trkpt lat="40.5105167" lon="15.0437533"><ele>19.0</ele><time>2026-04-12T07:34:50.972Z</time></trkpt><trkpt lat="40.5106867" lon="15.0437317"><ele>16.666666666666664</ele><time>2026-04-12T07:34:51.972Z</time></trkpt><trkpt lat="40.5108467" lon="15.04372"><ele>14.333333333333332</ele><time>2026-04-12T07:34:52.972Z</time></trkpt><trkpt lat="40.511005" lon="15.0436883"><ele>12.0</ele><time>2026-04-12T07:34:53.973Z</time></trkpt><trkpt lat="40.5111633" lon="15.0436233"><ele>11.666666666666666</ele><time>2026-04-12T07:34:54.972Z</time></trkpt><trkpt lat="40.5113133" lon="15.0435333"><ele>11.333333333333332</ele><time>2026-04-12T07:34:55.972Z</time></trkpt><trkpt lat="40.5114583" lon="15.04342"><ele>11.0</ele><time>2026-04-12T07:34:56.972Z</time></trkpt><trkpt lat="40.5116017" lon="15.0432967"><ele>11.0</ele><time>2026-04-12T07:34:57.972Z</time></trkpt><trkpt lat="40.5117367" lon="15.0431767"><ele>11.0</ele><time>2026-04-12T07:34:58.972Z</time></trkpt><trkpt lat="40.5118767" lon="15.043045"><ele>11.0</ele><time>2026-04-12T07:34:59.972Z</time></trkpt><trkpt lat="40.5120083" lon="15.0429267"><ele>10.25</ele><time>2026-04-12T07:35:00.972Z</time></trkpt><trkpt lat="40.5121333" lon="15.0428083"><ele>9.5</ele><time>2026-04-12T07:35:01.972Z</time></trkpt><trkpt lat="40.5122483" lon="15.0427"><ele>8.75</ele><time>2026-04-12T07:35:02.972Z</time></trkpt><trkpt lat="40.51236" lon="15.0425967"><ele>8.0</ele><time>2026-04-12T07:35:03.972Z</time></trkpt><trkpt lat="40.5124667" lon="15.0425067"><ele>7.75</ele><time>2026-04-12T07:35:04.972Z</time></trkpt><trkpt lat="40.512565" lon="15.0424117"><ele>7.5</ele><time>2026-04-12T07:35:05.972Z</time></trkpt><trkpt lat="40.5126583" lon="15.0423067"><ele>7.25</ele><time>2026-04-12T07:35:06.972Z</time></trkpt><trkpt lat="40.51275" lon="15.0421917"><ele>7.0</ele><time>2026-04-12T07:35:07.973Z</time></trkpt><trkpt lat="40.5128333" lon="15.0420667"><ele>7.5</ele><time>2026-04-12T07:35:08.972Z</time></trkpt><trkpt lat="40.512915" lon="15.0419317"><ele>8.0</ele><time>2026-04-12T07:35:09.972Z</time></trkpt><trkpt lat="40.513" lon="15.04179"><ele>8.5</ele><time>2026-04-12T07:35:10.972Z</time></trkpt><trkpt lat="40.51309" lon="15.0416467"><ele>9.0</ele><time>2026-04-12T07:35:11.972Z</time></trkpt><trkpt lat="40.513185" lon="15.0415017"><ele>9.0</ele><time>2026-04-12T07:35:12.972Z</time></trkpt><trkpt lat="40.513285" lon="15.0413517"><ele>9.0</ele><time>2026-04-12T07:35:13.972Z</time></trkpt><trkpt lat="40.513385" lon="15.0411983"><ele>9.0</ele><time>2026-04-12T07:35:14.972Z</time></trkpt><trkpt lat="40.513485" lon="15.04105"><ele>9.0</ele><time>2026-04-12T07:35:15.972Z</time></trkpt><trkpt lat="40.513585" lon="15.0408983"><ele>9.0</ele><time>2026-04-12T07:35:16.972Z</time></trkpt><trkpt lat="40.513685" lon="15.040745"><ele>9.0</ele><time>2026-04-12T07:35:17.972Z</time></trkpt><trkpt lat="40.5137783" lon="15.0405867"><ele>8.333333333333334</ele><time>2026-04-12T07:35:18.973Z</time></trkpt><trkpt lat="40.5138733" lon="15.04043"><ele>7.666666666666667</ele><time>2026-04-12T07:35:19.972Z</time></trkpt><trkpt lat="40.51397" lon="15.040275"><ele>7.0</ele><time>2026-04-12T07:35:20.972Z</time></trkpt><trkpt lat="40.514065" lon="15.04013"><ele>7.0</ele><time>2026-04-12T07:35:21.972Z</time></trkpt><trkpt lat="40.51416" lon="15.0399817"><ele>7.0</ele><time>2026-04-12T07:35:22.972Z</time></trkpt><trkpt lat="40.5142517" lon="15.039845"><ele>7.0</ele><time>2026-04-12T07:35:23.972Z</time></trkpt><trkpt lat="40.5143367" lon="15.03972"><ele>7.0</ele><time>2026-04-12T07:35:24.972Z</time></trkpt><trkpt lat="40.514415" lon="15.0395933"><ele>7.0</ele><time>2026-04-12T07:35:25.972Z</time></trkpt><trkpt lat="40.5144883" lon="15.039485"><ele>6.999999999999999</ele><time>2026-04-12T07:35:26.972Z</time></trkpt><trkpt lat="40.514545" lon="15.0393933"><ele>6.999999999999999</ele><time>2026-04-12T07:35:27.972Z</time></trkpt><trkpt lat="40.5145867" lon="15.039325"><ele>7.0</ele><time>2026-04-12T07:35:28.972Z</time></trkpt><trkpt lat="40.514685" lon="15.0392917"><ele>7.0</ele><time>2026-04-12T07:35:42.971Z</time></trkpt><trkpt lat="40.5147967" lon="15.0393317"><ele>7.199999999999999</ele><time>2026-04-12T07:35:44.971Z</time></trkpt><trkpt lat="40.514875" lon="15.0393567"><ele>7.3999999999999995</ele><time>2026-04-12T07:35:45.971Z</time></trkpt><trkpt lat="40.514965" lon="15.0393833"><ele>7.6000000000000005</ele><time>2026-04-12T07:35:46.971Z</time></trkpt><trkpt lat="40.5150617" lon="15.039415"><ele>7.800000000000001</ele><time>2026-04-12T07:35:47.971Z</time></trkpt><trkpt lat="40.5151667" lon="15.0394467"><ele>8.0</ele><time>2026-04-12T07:35:48.971Z</time></trkpt><trkpt lat="40.515275" lon="15.0394783"><ele>8.0</ele><time>2026-04-12T07:35:49.971Z</time></trkpt><trkpt lat="40.5153933" lon="15.0395067"><ele>8.0</ele><time>2026-04-12T07:35:50.971Z</time></trkpt><trkpt lat="40.5155167" lon="15.039535"><ele>8.0</ele><time>2026-04-12T07:35:51.971Z</time></trkpt><trkpt lat="40.5156417" lon="15.039565"><ele>8.0</ele><time>2026-04-12T07:35:52.971Z</time></trkpt><trkpt lat="40.5157667" lon="15.0395983"><ele>8.0</ele><time>2026-04-12T07:35:53.971Z</time></trkpt><trkpt lat="40.5158983" lon="15.03964"><ele>8.0</ele><time>2026-04-12T07:35:54.971Z</time></trkpt><trkpt lat="40.5160267" lon="15.0396783"><ele>8.0</ele><time>2026-04-12T07:35:55.972Z</time></trkpt><trkpt lat="40.5161433" lon="15.03972"><ele>8.0</ele><time>2026-04-12T07:35:56.971Z</time></trkpt><trkpt lat="40.5162533" lon="15.0397517"><ele>8.0</ele><time>2026-04-12T07:35:57.971Z</time></trkpt><trkpt lat="40.51636" lon="15.0397733"><ele>8.0</ele><time>2026-04-12T07:35:58.971Z</time></trkpt><trkpt lat="40.5164667" lon="15.0397917"><ele>8.0</ele><time>2026-04-12T07:35:59.971Z</time></trkpt><trkpt lat="40.5165717" lon="15.0398133"><ele>8.0</ele><time>2026-04-12T07:36:00.971Z</time></trkpt><trkpt lat="40.5166783" lon="15.0398417"><ele>8.0</ele><time>2026-04-12T07:36:01.971Z</time></trkpt><trkpt lat="40.5167833" lon="15.0398767"><ele>8.0</ele><time>2026-04-12T07:36:02.971Z</time></trkpt><trkpt lat="40.5168833" lon="15.0399133"><ele>8.0</ele><time>2026-04-12T07:36:03.971Z</time></trkpt><trkpt lat="40.5169767" lon="15.039935"><ele>8.0</ele><time>2026-04-12T07:36:04.971Z</time></trkpt><trkpt lat="40.51708" lon="15.0399583"><ele>8.0</ele><time>2026-04-12T07:36:05.971Z</time></trkpt><trkpt lat="40.517185" lon="15.0399833"><ele>8.0</ele><time>2026-04-12T07:36:06.971Z</time></trkpt><trkpt lat="40.5172917" lon="15.04001"><ele>8.200000000000001</ele><time>2026-04-12T07:36:07.971Z</time></trkpt><trkpt lat="40.5173933" lon="15.0400367"><ele>8.4</ele><time>2026-04-12T07:36:08.972Z</time></trkpt><trkpt lat="40.5174833" lon="15.040065"><ele>8.600000000000001</ele><time>2026-04-12T07:36:09.971Z</time></trkpt><trkpt lat="40.5175733" lon="15.040095"><ele>8.8</ele><time>2026-04-12T07:36:10.971Z</time></trkpt><trkpt lat="40.5176567" lon="15.0401233"><ele>9.0</ele><time>2026-04-12T07:36:11.971Z</time></trkpt><trkpt lat="40.5177433" lon="15.04015"><ele>9.0</ele><time>2026-04-12T07:36:12.971Z</time></trkpt><trkpt lat="40.517825" lon="15.0401733"><ele>9.0</ele><time>2026-04-12T07:36:13.971Z</time></trkpt><trkpt lat="40.5179117" lon="15.040195"><ele>9.0</ele><time>2026-04-12T07:36:14.972Z</time></trkpt><trkpt lat="40.5179967" lon="15.0402167"><ele>9.0</ele><time>2026-04-12T07:36:15.972Z</time></trkpt><trkpt lat="40.5180717" lon="15.04023"><ele>9.0</ele><time>2026-04-12T07:36:16.971Z</time></trkpt><trkpt lat="40.518145" lon="15.0402467"><ele>9.0</ele><time>2026-04-12T07:36:17.971Z</time></trkpt><trkpt lat="40.518245" lon="15.0402717"><ele>9.0</ele><time>2026-04-12T07:36:19.971Z</time></trkpt><trkpt lat="40.5183317" lon="15.0402783"><ele>9.0</ele><time>2026-04-12T07:36:26.971Z</time></trkpt><trkpt lat="40.5184233" lon="15.04031"><ele>9.0</ele><time>2026-04-12T07:36:28.971Z</time></trkpt><trkpt lat="40.518485" lon="15.0403283"><ele>9.0</ele><time>2026-04-12T07:36:29.971Z</time></trkpt><trkpt lat="40.5185583" lon="15.0403483"><ele>9.0</ele><time>2026-04-12T07:36:30.971Z</time></trkpt><trkpt lat="40.5186483" lon="15.0403667"><ele>9.0</ele><time>2026-04-12T07:36:31.971Z</time></trkpt><trkpt lat="40.51874" lon="15.0403933"><ele>8.8</ele><time>2026-04-12T07:36:32.971Z</time></trkpt><trkpt lat="40.5188417" lon="15.0404167"><ele>8.600000000000001</ele><time>2026-04-12T07:36:33.971Z</time></trkpt><trkpt lat="40.5189517" lon="15.0404383"><ele>8.4</ele><time>2026-04-12T07:36:34.971Z</time></trkpt><trkpt lat="40.5190633" lon="15.0404633"><ele>8.200000000000001</ele><time>2026-04-12T07:36:35.971Z</time></trkpt><trkpt lat="40.519175" lon="15.0404933"><ele>8.0</ele><time>2026-04-12T07:36:36.971Z</time></trkpt><trkpt lat="40.5192867" lon="15.04052"><ele>8.0</ele><time>2026-04-12T07:36:37.971Z</time></trkpt><trkpt lat="40.5193967" lon="15.040545"><ele>8.0</ele><time>2026-04-12T07:36:38.971Z</time></trkpt><trkpt lat="40.5195067" lon="15.0405683"><ele>8.0</ele><time>2026-04-12T07:36:39.971Z</time></trkpt><trkpt lat="40.5196233" lon="15.0405917"><ele>8.0</ele><time>2026-04-12T07:36:40.971Z</time></trkpt><trkpt lat="40.519745" lon="15.0406183"><ele>8.5</ele><time>2026-04-12T07:36:41.971Z</time></trkpt><trkpt lat="40.519865" lon="15.040645"><ele>9.0</ele><time>2026-04-12T07:36:42.971Z</time></trkpt><trkpt lat="40.519985" lon="15.040675"><ele>9.5</ele><time>2026-04-12T07:36:43.971Z</time></trkpt><trkpt lat="40.5201" lon="15.0407033"><ele>10.0</ele><time>2026-04-12T07:36:44.971Z</time></trkpt><trkpt lat="40.5202167" lon="15.0407333"><ele>10.0</ele><time>2026-04-12T07:36:45.971Z</time></trkpt><trkpt lat="40.5203333" lon="15.0407617"><ele>10.0</ele><time>2026-04-12T07:36:46.971Z</time></trkpt><trkpt lat="40.520455" lon="15.0407883"><ele>10.0</ele><time>2026-04-12T07:36:47.971Z</time></trkpt><trkpt lat="40.5205667" lon="15.0408133"><ele>10.0</ele><time>2026-04-12T07:36:48.971Z</time></trkpt><trkpt lat="40.5206683" lon="15.0408333"><ele>10.0</ele><time>2026-04-12T07:36:49.971Z</time></trkpt><trkpt lat="40.5207617" lon="15.0408583"><ele>10.0</ele><time>2026-04-12T07:36:50.971Z</time></trkpt><trkpt lat="40.5208567" lon="15.0408883"><ele>10.0</ele><time>2026-04-12T07:36:51.971Z</time></trkpt><trkpt lat="40.52095" lon="15.04091"><ele>10.0</ele><time>2026-04-12T07:36:52.971Z</time></trkpt><trkpt lat="40.52104" lon="15.0409317"><ele>10.0</ele><time>2026-04-12T07:36:53.971Z</time></trkpt><trkpt lat="40.521125" lon="15.0409533"><ele>10.0</ele><time>2026-04-12T07:36:54.971Z</time></trkpt><trkpt lat="40.5212067" lon="15.0409717"><ele>10.0</ele><time>2026-04-12T07:36:55.971Z</time></trkpt><trkpt lat="40.5212883" lon="15.0409883"><ele>10.0</ele><time>2026-04-12T07:36:56.971Z</time></trkpt><trkpt lat="40.5213783" lon="15.0410067"><ele>10.0</ele><time>2026-04-12T07:36:57.971Z</time></trkpt><trkpt lat="40.521475" lon="15.04103"><ele>10.0</ele><time>2026-04-12T07:36:58.971Z</time></trkpt><trkpt lat="40.521575" lon="15.0410533"><ele>10.0</ele><time>2026-04-12T07:36:59.971Z</time></trkpt><trkpt lat="40.5216783" lon="15.0410783"><ele>10.0</ele><time>2026-04-12T07:37:00.971Z</time></trkpt><trkpt lat="40.5217833" lon="15.0411033"><ele>10.0</ele><time>2026-04-12T07:37:01.971Z</time></trkpt><trkpt lat="40.521895" lon="15.0411283"><ele>10.0</ele><time>2026-04-12T07:37:02.971Z</time></trkpt><trkpt lat="40.5220067" lon="15.041155"><ele>10.0</ele><time>2026-04-12T07:37:03.971Z</time></trkpt><trkpt lat="40.5221117" lon="15.0411783"><ele>10.0</ele><time>2026-04-12T07:37:04.971Z</time></trkpt><trkpt lat="40.52221" lon="15.0411983"><ele>10.0</ele><time>2026-04-12T07:37:05.971Z</time></trkpt><trkpt lat="40.522305" lon="15.0412217"><ele>10.0</ele><time>2026-04-12T07:37:06.971Z</time></trkpt><trkpt lat="40.522395" lon="15.0412433"><ele>10.0</ele><time>2026-04-12T07:37:07.971Z</time></trkpt><trkpt lat="40.5224733" lon="15.0412583"><ele>10.0</ele><time>2026-04-12T07:37:08.971Z</time></trkpt><trkpt lat="40.52254" lon="15.0412767"><ele>10.0</ele><time>2026-04-12T07:37:09.971Z</time></trkpt><trkpt lat="40.522645" lon="15.041305"><ele>10.0</ele><time>2026-04-12T07:37:11.971Z</time></trkpt><trkpt lat="40.5227133" lon="15.0413033"><ele>10.0</ele><time>2026-04-12T07:38:21.971Z</time></trkpt><trkpt lat="40.5228167" lon="15.041335"><ele>10.0</ele><time>2026-04-12T07:38:23.971Z</time></trkpt><trkpt lat="40.52288" lon="15.0413517"><ele>10.0</ele><time>2026-04-12T07:38:24.971Z</time></trkpt><trkpt lat="40.5229567" lon="15.0413683"><ele>10.0</ele><time>2026-04-12T07:38:25.971Z</time></trkpt><trkpt lat="40.523045" lon="15.0413883"><ele>10.0</ele><time>2026-04-12T07:38:26.971Z</time></trkpt><trkpt lat="40.5231333" lon="15.0414117"><ele>9.6</ele><time>2026-04-12T07:38:27.971Z</time></trkpt><trkpt lat="40.5232267" lon="15.0414283"><ele>9.2</ele><time>2026-04-12T07:38:28.971Z</time></trkpt><trkpt lat="40.5233167" lon="15.041455"><ele>8.8</ele><time>2026-04-12T07:38:29.971Z</time></trkpt><trkpt lat="40.5234117" lon="15.04148"><ele>8.4</ele><time>2026-04-12T07:38:30.972Z</time></trkpt><trkpt lat="40.5235" lon="15.0415"><ele>8.0</ele><time>2026-04-12T07:38:31.971Z</time></trkpt><trkpt lat="40.5235833" lon="15.0415233"><ele>7.999999999999999</ele><time>2026-04-12T07:38:32.971Z</time></trkpt><trkpt lat="40.523665" lon="15.0415367"><ele>8.0</ele><time>2026-04-12T07:38:33.971Z</time></trkpt><trkpt lat="40.5237467" lon="15.0415517"><ele>8.0</ele><time>2026-04-12T07:38:34.971Z</time></trkpt><trkpt lat="40.5238317" lon="15.0415717"><ele>8.0</ele><time>2026-04-12T07:38:35.971Z</time></trkpt><trkpt lat="40.5239167" lon="15.0416017"><ele>7.999999999999999</ele><time>2026-04-12T07:38:36.971Z</time></trkpt><trkpt lat="40.5240017" lon="15.0416233"><ele>8.0</ele><time>2026-04-12T07:38:37.971Z</time></trkpt><trkpt lat="40.5240833" lon="15.0416417"><ele>8.166666666666666</ele><time>2026-04-12T07:38:38.971Z</time></trkpt><trkpt lat="40.52416" lon="15.04166"><ele>8.333333333333332</ele><time>2026-04-12T07:38:39.971Z</time></trkpt><trkpt lat="40.5242383" lon="15.0416767"><ele>8.5</ele><time>2026-04-12T07:38:40.971Z</time></trkpt><trkpt lat="40.5243133" lon="15.041695"><ele>8.666666666666666</ele><time>2026-04-12T07:38:41.971Z</time></trkpt><trkpt lat="40.5243833" lon="15.0417117"><ele>8.833333333333334</ele><time>2026-04-12T07:38:42.971Z</time></trkpt><trkpt lat="40.5244867" lon="15.0417417"><ele>9.0</ele><time>2026-04-12T07:38:44.971Z</time></trkpt><trkpt lat="40.5245533" lon="15.0417567"><ele>9.2</ele><time>2026-04-12T07:39:36.971Z</time></trkpt><trkpt lat="40.5246833" lon="15.041785"><ele>9.4</ele><time>2026-04-12T07:39:38.971Z</time></trkpt><trkpt lat="40.5247667" lon="15.0418067"><ele>9.6</ele><time>2026-04-12T07:39:39.971Z</time></trkpt><trkpt lat="40.5248633" lon="15.0418267"><ele>9.8</ele><time>2026-04-12T07:39:40.971Z</time></trkpt><trkpt lat="40.5249667" lon="15.0418467"><ele>10.0</ele><time>2026-04-12T07:39:41.971Z</time></trkpt><trkpt lat="40.525065" lon="15.04187"><ele>10.0</ele><time>2026-04-12T07:39:42.972Z</time></trkpt><trkpt lat="40.5251683" lon="15.0418917"><ele>10.0</ele><time>2026-04-12T07:39:43.971Z</time></trkpt><trkpt lat="40.5252683" lon="15.0419117"><ele>10.0</ele><time>2026-04-12T07:39:44.971Z</time></trkpt><trkpt lat="40.5253583" lon="15.0419367"><ele>10.0</ele><time>2026-04-12T07:39:45.971Z</time></trkpt><trkpt lat="40.5254417" lon="15.0419583"><ele>10.0</ele><time>2026-04-12T07:39:46.971Z</time></trkpt><trkpt lat="40.52553" lon="15.0419767"><ele>10.0</ele><time>2026-04-12T07:39:47.971Z</time></trkpt><trkpt lat="40.52562" lon="15.0419967"><ele>10.0</ele><time>2026-04-12T07:39:48.971Z</time></trkpt><trkpt lat="40.5257133" lon="15.0420167"><ele>10.0</ele><time>2026-04-12T07:39:49.971Z</time></trkpt><trkpt lat="40.5258033" lon="15.0420417"><ele>10.0</ele><time>2026-04-12T07:39:50.971Z</time></trkpt><trkpt lat="40.5259" lon="15.04207"><ele>10.0</ele><time>2026-04-12T07:39:51.971Z</time></trkpt><trkpt lat="40.526005" lon="15.042095"><ele>10.0</ele><time>2026-04-12T07:39:52.971Z</time></trkpt><trkpt lat="40.5261167" lon="15.04212"><ele>10.0</ele><time>2026-04-12T07:39:53.971Z</time></trkpt><trkpt lat="40.5262333" lon="15.0421483"><ele>10.0</ele><time>2026-04-12T07:39:54.971Z</time></trkpt><trkpt lat="40.5263533" lon="15.042175"><ele>10.0</ele><time>2026-04-12T07:39:55.971Z</time></trkpt><trkpt lat="40.52646" lon="15.0422"><ele>10.0</ele><time>2026-04-12T07:39:56.971Z</time></trkpt><trkpt lat="40.5265633" lon="15.0422233"><ele>10.0</ele><time>2026-04-12T07:39:57.971Z</time></trkpt><trkpt lat="40.52666" lon="15.042245"><ele>10.0</ele><time>2026-04-12T07:39:58.971Z</time></trkpt><trkpt lat="40.5267483" lon="15.042265"><ele>10.0</ele><time>2026-04-12T07:39:59.971Z</time></trkpt><trkpt lat="40.5268333" lon="15.0422767"><ele>10.0</ele><time>2026-04-12T07:40:00.971Z</time></trkpt><trkpt lat="40.5269183" lon="15.0422917"><ele>10.0</ele><time>2026-04-12T07:40:01.971Z</time></trkpt><trkpt lat="40.52699" lon="15.0423083"><ele>10.0</ele><time>2026-04-12T07:40:02.971Z</time></trkpt><trkpt lat="40.5270783" lon="15.0423383"><ele>10.0</ele><time>2026-04-12T07:40:04.971Z</time></trkpt><trkpt lat="40.5271483" lon="15.0423017"><ele>10.0</ele><time>2026-04-12T07:40:08.971Z</time></trkpt><trkpt lat="40.527175" lon="15.0422133"><ele>10.0</ele><time>2026-04-12T07:40:10.971Z</time></trkpt><trkpt lat="40.527185" lon="15.04213"><ele>10.0</ele><time>2026-04-12T07:40:11.971Z</time></trkpt><trkpt lat="40.5271967" lon="15.0420267"><ele>10.2</ele><time>2026-04-12T07:40:12.971Z</time></trkpt><trkpt lat="40.5272117" lon="15.0418983"><ele>10.4</ele><time>2026-04-12T07:40:13.971Z</time></trkpt><trkpt lat="40.5272267" lon="15.0417717"><ele>10.600000000000001</ele><time>2026-04-12T07:40:14.971Z</time></trkpt><trkpt lat="40.527245" lon="15.041635"><ele>10.8</ele><time>2026-04-12T07:40:15.972Z</time></trkpt><trkpt lat="40.5272683" lon="15.0414883"><ele>11.0</ele><time>2026-04-12T07:40:16.972Z</time></trkpt><trkpt lat="40.5272883" lon="15.0413417"><ele>11.0</ele><time>2026-04-12T07:40:17.971Z</time></trkpt><trkpt lat="40.52731" lon="15.0411933"><ele>11.0</ele><time>2026-04-12T07:40:18.971Z</time></trkpt><trkpt lat="40.5273283" lon="15.04104"><ele>11.0</ele><time>2026-04-12T07:40:19.971Z</time></trkpt><trkpt lat="40.5273467" lon="15.0408883"><ele>11.0</ele><time>2026-04-12T07:40:20.971Z</time></trkpt><trkpt lat="40.5273667" lon="15.0407417"><ele>10.5</ele><time>2026-04-12T07:40:21.971Z</time></trkpt><trkpt lat="40.52739" lon="15.0406"><ele>10.0</ele><time>2026-04-12T07:40:22.971Z</time></trkpt><trkpt lat="40.5274117" lon="15.0404617"><ele>9.5</ele><time>2026-04-12T07:40:23.971Z</time></trkpt><trkpt lat="40.5274317" lon="15.0403133"><ele>9.0</ele><time>2026-04-12T07:40:24.971Z</time></trkpt><trkpt lat="40.5274533" lon="15.04016"><ele>9.0</ele><time>2026-04-12T07:40:25.971Z</time></trkpt><trkpt lat="40.5274733" lon="15.04"><ele>9.0</ele><time>2026-04-12T07:40:26.971Z</time></trkpt><trkpt lat="40.5274983" lon="15.03985"><ele>9.0</ele><time>2026-04-12T07:40:27.971Z</time></trkpt><trkpt lat="40.527515" lon="15.0397117"><ele>9.0</ele><time>2026-04-12T07:40:28.971Z</time></trkpt><trkpt lat="40.5275283" lon="15.0395833"><ele>9.0</ele><time>2026-04-12T07:40:29.971Z</time></trkpt><trkpt lat="40.5275467" lon="15.0394567"><ele>9.166666666666666</ele><time>2026-04-12T07:40:30.971Z</time></trkpt><trkpt lat="40.527565" lon="15.03934"><ele>9.333333333333334</ele><time>2026-04-12T07:40:31.971Z</time></trkpt><trkpt lat="40.5275767" lon="15.0392283"><ele>9.5</ele><time>2026-04-12T07:40:32.971Z</time></trkpt><trkpt lat="40.5275867" lon="15.03913"><ele>9.666666666666668</ele><time>2026-04-12T07:40:33.971Z</time></trkpt><trkpt lat="40.5276033" lon="15.039"><ele>9.833333333333334</ele><time>2026-04-12T07:40:35.971Z</time></trkpt><trkpt lat="40.5276283" lon="15.03892"><ele>10.0</ele><time>2026-04-12T07:40:38.971Z</time></trkpt><trkpt lat="40.527695" lon="15.0388967"><ele>10.0</ele><time>2026-04-12T07:40:41.971Z</time></trkpt><trkpt lat="40.5277717" lon="15.0389117"><ele>10.0</ele><time>2026-04-12T07:40:43.971Z</time></trkpt><trkpt lat="40.5278933" lon="15.0389467"><ele>10.0</ele><time>2026-04-12T07:40:45.971Z</time></trkpt><trkpt lat="40.5279683" lon="15.0389617"><ele>10.0</ele><time>2026-04-12T07:40:46.971Z</time></trkpt><trkpt lat="40.5280533" lon="15.0389833"><ele>10.0</ele><time>2026-04-12T07:40:47.971Z</time></trkpt><trkpt lat="40.5281433" lon="15.0390067"><ele>10.0</ele><time>2026-04-12T07:40:48.971Z</time></trkpt><trkpt lat="40.5282367" lon="15.0390317"><ele>10.0</ele><time>2026-04-12T07:40:49.971Z</time></trkpt><trkpt lat="40.5283383" lon="15.039055"><ele>10.0</ele><time>2026-04-12T07:40:50.971Z</time></trkpt><trkpt lat="40.52845" lon="15.0390783"><ele>10.0</ele><time>2026-04-12T07:40:51.971Z</time></trkpt><trkpt lat="40.528565" lon="15.0391033"><ele>10.0</ele><time>2026-04-12T07:40:52.971Z</time></trkpt><trkpt lat="40.5286867" lon="15.03913"><ele>10.0</ele><time>2026-04-12T07:40:53.971Z</time></trkpt><trkpt lat="40.5288183" lon="15.0391567"><ele>10.0</ele><time>2026-04-12T07:40:54.971Z</time></trkpt><trkpt lat="40.5289517" lon="15.039185"><ele>10.0</ele><time>2026-04-12T07:40:55.971Z</time></trkpt><trkpt lat="40.5290867" lon="15.0392167"><ele>10.0</ele><time>2026-04-12T07:40:56.971Z</time></trkpt><trkpt lat="40.529225" lon="15.03925"><ele>10.0</ele><time>2026-04-12T07:40:57.971Z</time></trkpt><trkpt lat="40.52937" lon="15.0392817"><ele>10.0</ele><time>2026-04-12T07:40:58.971Z</time></trkpt><trkpt lat="40.52951" lon="15.0393167"><ele>10.0</ele><time>2026-04-12T07:40:59.971Z</time></trkpt><trkpt lat="40.529655" lon="15.0393483"><ele>10.0</ele><time>2026-04-12T07:41:00.971Z</time></trkpt><trkpt lat="40.5298017" lon="15.039385"><ele>10.0</ele><time>2026-04-12T07:41:01.971Z</time></trkpt><trkpt lat="40.5299483" lon="15.03942"><ele>10.0</ele><time>2026-04-12T07:41:02.971Z</time></trkpt><trkpt lat="40.53009" lon="15.0394567"><ele>10.0</ele><time>2026-04-12T07:41:03.971Z</time></trkpt><trkpt lat="40.530235" lon="15.03949"><ele>10.0</ele><time>2026-04-12T07:41:04.971Z</time></trkpt><trkpt lat="40.5303817" lon="15.0395217"><ele>10.25</ele><time>2026-04-12T07:41:05.971Z</time></trkpt><trkpt lat="40.53053" lon="15.03955"><ele>10.5</ele><time>2026-04-12T07:41:06.971Z</time></trkpt><trkpt lat="40.530675" lon="15.0395867"><ele>10.75</ele><time>2026-04-12T07:41:07.971Z</time></trkpt><trkpt lat="40.53082" lon="15.0396267"><ele>11.0</ele><time>2026-04-12T07:41:08.971Z</time></trkpt><trkpt lat="40.5309683" lon="15.0396617"><ele>11.0</ele><time>2026-04-12T07:41:09.971Z</time></trkpt><trkpt lat="40.5311183" lon="15.039695"><ele>11.0</ele><time>2026-04-12T07:41:10.971Z</time></trkpt><trkpt lat="40.5312683" lon="15.0397317"><ele>11.0</ele><time>2026-04-12T07:41:11.971Z</time></trkpt><trkpt lat="40.5314167" lon="15.039765"><ele>10.333333333333332</ele><time>2026-04-12T07:41:12.972Z</time></trkpt><trkpt lat="40.5315667" lon="15.0398"><ele>9.666666666666666</ele><time>2026-04-12T07:41:13.971Z</time></trkpt><trkpt lat="40.5317167" lon="15.039835"><ele>9.0</ele><time>2026-04-12T07:41:14.971Z</time></trkpt><trkpt lat="40.5318667" lon="15.0398667"><ele>9.0</ele><time>2026-04-12T07:41:15.971Z</time></trkpt><trkpt lat="40.5320133" lon="15.0399033"><ele>9.0</ele><time>2026-04-12T07:41:16.971Z</time></trkpt><trkpt lat="40.5321683" lon="15.0399367"><ele>9.0</ele><time>2026-04-12T07:41:17.971Z</time></trkpt><trkpt lat="40.532325" lon="15.0399767"><ele>8.666666666666666</ele><time>2026-04-12T07:41:18.971Z</time></trkpt><trkpt lat="40.532485" lon="15.0400167"><ele>8.333333333333332</ele><time>2026-04-12T07:41:19.971Z</time></trkpt><trkpt lat="40.5326467" lon="15.0400533"><ele>8.0</ele><time>2026-04-12T07:41:20.971Z</time></trkpt><trkpt lat="40.5328067" lon="15.0400867"><ele>9.0</ele><time>2026-04-12T07:41:21.971Z</time></trkpt><trkpt lat="40.53297" lon="15.0401217"><ele>10.0</ele><time>2026-04-12T07:41:22.971Z</time></trkpt><trkpt lat="40.5331283" lon="15.0401583"><ele>11.0</ele><time>2026-04-12T07:41:23.971Z</time></trkpt><trkpt lat="40.53329" lon="15.040195"><ele>11.0</ele><time>2026-04-12T07:41:24.971Z</time></trkpt><trkpt lat="40.5334517" lon="15.0402333"><ele>11.0</ele><time>2026-04-12T07:41:25.971Z</time></trkpt><trkpt lat="40.5336183" lon="15.040275"><ele>11.0</ele><time>2026-04-12T07:41:26.971Z</time></trkpt><trkpt lat="40.533785" lon="15.0403133"><ele>11.333333333333332</ele><time>2026-04-12T07:41:27.971Z</time></trkpt><trkpt lat="40.5339583" lon="15.04035"><ele>11.666666666666666</ele><time>2026-04-12T07:41:28.971Z</time></trkpt><trkpt lat="40.53413" lon="15.040395"><ele>12.0</ele><time>2026-04-12T07:41:29.971Z</time></trkpt><trkpt lat="40.5343017" lon="15.0404333"><ele>12.0</ele><time>2026-04-12T07:41:30.971Z</time></trkpt><trkpt lat="40.534475" lon="15.040475"><ele>12.0</ele><time>2026-04-12T07:41:31.971Z</time></trkpt><trkpt lat="40.5346467" lon="15.0405133"><ele>12.0</ele><time>2026-04-12T07:41:32.971Z</time></trkpt><trkpt lat="40.534825" lon="15.0405517"><ele>12.0</ele><time>2026-04-12T07:41:33.971Z</time></trkpt><trkpt lat="40.535005" lon="15.0405917"><ele>12.0</ele><time>2026-04-12T07:41:34.971Z</time></trkpt><trkpt lat="40.5351833" lon="15.0406317"><ele>12.0</ele><time>2026-04-12T07:41:35.971Z</time></trkpt><trkpt lat="40.5353667" lon="15.0406717"><ele>12.0</ele><time>2026-04-12T07:41:36.972Z</time></trkpt><trkpt lat="40.5355483" lon="15.0407183"><ele>12.0</ele><time>2026-04-12T07:41:37.971Z</time></trkpt><trkpt lat="40.5357267" lon="15.04076"><ele>12.0</ele><time>2026-04-12T07:41:38.971Z</time></trkpt><trkpt lat="40.5359033" lon="15.0408033"><ele>12.0</ele><time>2026-04-12T07:41:39.971Z</time></trkpt><trkpt lat="40.5360817" lon="15.040845"><ele>12.0</ele><time>2026-04-12T07:41:40.971Z</time></trkpt><trkpt lat="40.53626" lon="15.0408867"><ele>12.0</ele><time>2026-04-12T07:41:41.971Z</time></trkpt><trkpt lat="40.5364367" lon="15.04093"><ele>12.333333333333332</ele><time>2026-04-12T07:41:42.972Z</time></trkpt><trkpt lat="40.5366117" lon="15.0409767"><ele>12.666666666666666</ele><time>2026-04-12T07:41:43.971Z</time></trkpt><trkpt lat="40.5367883" lon="15.0410233"><ele>13.0</ele><time>2026-04-12T07:41:44.971Z</time></trkpt><trkpt lat="40.5369667" lon="15.041065"><ele>12.666666666666666</ele><time>2026-04-12T07:41:45.972Z</time></trkpt><trkpt lat="40.5371417" lon="15.041105"><ele>12.333333333333332</ele><time>2026-04-12T07:41:46.971Z</time></trkpt><trkpt lat="40.5373233" lon="15.041145"><ele>12.0</ele><time>2026-04-12T07:41:47.971Z</time></trkpt><trkpt lat="40.5375" lon="15.0411817"><ele>12.0</ele><time>2026-04-12T07:41:48.971Z</time></trkpt><trkpt lat="40.5376717" lon="15.0412217"><ele>12.0</ele><time>2026-04-12T07:41:49.972Z</time></trkpt><trkpt lat="40.5378333" lon="15.0412567"><ele>12.0</ele><time>2026-04-12T07:41:50.971Z</time></trkpt><trkpt lat="40.538" lon="15.0412967"><ele>12.333333333333332</ele><time>2026-04-12T07:41:51.971Z</time></trkpt><trkpt lat="40.53816" lon="15.0413333"><ele>12.666666666666666</ele><time>2026-04-12T07:41:52.971Z</time></trkpt><trkpt lat="40.53832" lon="15.0413667"><ele>13.0</ele><time>2026-04-12T07:41:53.972Z</time></trkpt><trkpt lat="40.5384833" lon="15.0414033"><ele>13.0</ele><time>2026-04-12T07:41:54.971Z</time></trkpt><trkpt lat="40.53864" lon="15.0414467"><ele>13.0</ele><time>2026-04-12T07:41:55.971Z</time></trkpt><trkpt lat="40.5387967" lon="15.0414833"><ele>13.0</ele><time>2026-04-12T07:41:56.971Z</time></trkpt><trkpt lat="40.538955" lon="15.0415233"><ele>13.0</ele><time>2026-04-12T07:41:57.971Z</time></trkpt><trkpt lat="40.539115" lon="15.0415583"><ele>13.0</ele><time>2026-04-12T07:41:58.971Z</time></trkpt><trkpt lat="40.5392733" lon="15.0415983"><ele>13.0</ele><time>2026-04-12T07:41:59.971Z</time></trkpt><trkpt lat="40.5394433" lon="15.04163"><ele>13.333333333333332</ele><time>2026-04-12T07:42:00.971Z</time></trkpt><trkpt lat="40.5396083" lon="15.04167"><ele>13.666666666666668</ele><time>2026-04-12T07:42:01.971Z</time></trkpt><trkpt lat="40.539765" lon="15.0417067"><ele>14.0</ele><time>2026-04-12T07:42:02.971Z</time></trkpt><trkpt lat="40.5399133" lon="15.0417467"><ele>14.0</ele><time>2026-04-12T07:42:03.971Z</time></trkpt><trkpt lat="40.5400567" lon="15.0417867"><ele>14.0</ele><time>2026-04-12T07:42:04.971Z</time></trkpt><trkpt lat="40.5401933" lon="15.0418233"><ele>14.0</ele><time>2026-04-12T07:42:05.971Z</time></trkpt><trkpt lat="40.5403267" lon="15.0418467"><ele>14.0</ele><time>2026-04-12T07:42:06.971Z</time></trkpt><trkpt lat="40.5404467" lon="15.04187"><ele>14.0</ele><time>2026-04-12T07:42:07.971Z</time></trkpt><trkpt lat="40.5405583" lon="15.0418967"><ele>13.999999999999998</ele><time>2026-04-12T07:42:08.971Z</time></trkpt><trkpt lat="40.5406517" lon="15.0419333"><ele>13.999999999999998</ele><time>2026-04-12T07:42:09.971Z</time></trkpt><trkpt lat="40.5407283" lon="15.0419667"><ele>14.0</ele><time>2026-04-12T07:42:10.971Z</time></trkpt><trkpt lat="40.5408233" lon="15.0420117"><ele>14.0</ele><time>2026-04-12T07:42:12.971Z</time></trkpt><trkpt lat="40.5409617" lon="15.0420417"><ele>14.0</ele><time>2026-04-12T07:42:14.971Z</time></trkpt><trkpt lat="40.541055" lon="15.042045"><ele>13.999999999999998</ele><time>2026-04-12T07:42:15.971Z</time></trkpt><trkpt lat="40.5411567" lon="15.0420517"><ele>13.999999999999998</ele><time>2026-04-12T07:42:16.971Z</time></trkpt><trkpt lat="40.5412717" lon="15.042065"><ele>14.0</ele><time>2026-04-12T07:42:17.971Z</time></trkpt><trkpt lat="40.5414033" lon="15.042095"><ele>14.0</ele><time>2026-04-12T07:42:18.971Z</time></trkpt><trkpt lat="40.5415383" lon="15.0421283"><ele>14.25</ele><time>2026-04-12T07:42:19.971Z</time></trkpt><trkpt lat="40.5416783" lon="15.0421617"><ele>14.5</ele><time>2026-04-12T07:42:20.971Z</time></trkpt><trkpt lat="40.5418217" lon="15.0421933"><ele>14.75</ele><time>2026-04-12T07:42:21.971Z</time></trkpt><trkpt lat="40.5419617" lon="15.0422333"><ele>15.0</ele><time>2026-04-12T07:42:22.971Z</time></trkpt><trkpt lat="40.542105" lon="15.042265"><ele>15.0</ele><time>2026-04-12T07:42:23.971Z</time></trkpt><trkpt lat="40.54225" lon="15.0423017"><ele>15.0</ele><time>2026-04-12T07:42:24.971Z</time></trkpt><trkpt lat="40.5423983" lon="15.0423383"><ele>15.0</ele><time>2026-04-12T07:42:25.971Z</time></trkpt><trkpt lat="40.54255" lon="15.042375"><ele>15.0</ele><time>2026-04-12T07:42:26.971Z</time></trkpt><trkpt lat="40.5426917" lon="15.0424083"><ele>15.0</ele><time>2026-04-12T07:42:27.971Z</time></trkpt><trkpt lat="40.5428233" lon="15.042435"><ele>15.0</ele><time>2026-04-12T07:42:28.971Z</time></trkpt><trkpt lat="40.5429433" lon="15.04246"><ele>15.0</ele><time>2026-04-12T07:42:29.971Z</time></trkpt><trkpt lat="40.543045" lon="15.0424817"><ele>15.0</ele><time>2026-04-12T07:42:30.971Z</time></trkpt><trkpt lat="40.5431167" lon="15.0425"><ele>15.0</ele><time>2026-04-12T07:42:31.971Z</time></trkpt><trkpt lat="40.5431817" lon="15.0425283"><ele>15.0</ele><time>2026-04-12T07:42:33.971Z</time></trkpt><trkpt lat="40.5432533" lon="15.042575"><ele>15.0</ele><time>2026-04-12T07:42:40.971Z</time></trkpt><trkpt lat="40.5431833" lon="15.04253"><ele>15.0</ele><time>2026-04-12T07:42:49.971Z</time></trkpt><trkpt lat="40.5430833" lon="15.0425067"><ele>15.0</ele><time>2026-04-12T07:42:51.971Z</time></trkpt><trkpt lat="40.5429517" lon="15.0424767"><ele>15.0</ele><time>2026-04-12T07:42:53.971Z</time></trkpt><trkpt lat="40.5428733" lon="15.0424567"><ele>15.0</ele><time>2026-04-12T07:42:54.971Z</time></trkpt><trkpt lat="40.5427867" lon="15.042435"><ele>15.0</ele><time>2026-04-12T07:42:55.971Z</time></trkpt><trkpt lat="40.5426933" lon="15.04241"><ele>15.0</ele><time>2026-04-12T07:42:56.971Z</time></trkpt><trkpt lat="40.5426" lon="15.0423883"><ele>15.0</ele><time>2026-04-12T07:42:57.971Z</time></trkpt><trkpt lat="40.5425" lon="15.0423633"><ele>15.0</ele><time>2026-04-12T07:42:58.971Z</time></trkpt><trkpt lat="40.5423983" lon="15.04234"><ele>15.0</ele><time>2026-04-12T07:42:59.971Z</time></trkpt><trkpt lat="40.5422917" lon="15.0423183"><ele>15.0</ele><time>2026-04-12T07:43:00.971Z</time></trkpt><trkpt lat="40.5421833" lon="15.0422917"><ele>15.0</ele><time>2026-04-12T07:43:01.971Z</time></trkpt><trkpt lat="40.5420717" lon="15.0422667"><ele>15.0</ele><time>2026-04-12T07:43:02.971Z</time></trkpt><trkpt lat="40.5419633" lon="15.0422333"><ele>15.2</ele><time>2026-04-12T07:43:03.971Z</time></trkpt><trkpt lat="40.541855" lon="15.0422017"><ele>15.4</ele><time>2026-04-12T07:43:04.971Z</time></trkpt><trkpt lat="40.5417433" lon="15.0421717"><ele>15.600000000000001</ele><time>2026-04-12T07:43:05.971Z</time></trkpt><trkpt lat="40.5416333" lon="15.0421433"><ele>15.8</ele><time>2026-04-12T07:43:06.972Z</time></trkpt><trkpt lat="40.541525" lon="15.04212"><ele>16.0</ele><time>2026-04-12T07:43:07.971Z</time></trkpt><trkpt lat="40.541425" lon="15.0421017"><ele>15.999999999999998</ele><time>2026-04-12T07:43:08.972Z</time></trkpt><trkpt lat="40.5413317" lon="15.0420817"><ele>16.0</ele><time>2026-04-12T07:43:09.971Z</time></trkpt><trkpt lat="40.5412467" lon="15.0420717"><ele>16.0</ele><time>2026-04-12T07:43:10.971Z</time></trkpt><trkpt lat="40.5411667" lon="15.042055"><ele>16.0</ele><time>2026-04-12T07:43:11.972Z</time></trkpt><trkpt lat="40.5410983" lon="15.0420233"><ele>15.999999999999998</ele><time>2026-04-12T07:43:12.971Z</time></trkpt><trkpt lat="40.5410433" lon="15.04198"><ele>16.0</ele><time>2026-04-12T07:43:13.971Z</time></trkpt><trkpt lat="40.5409733" lon="15.0418683"><ele>15.600000000000001</ele><time>2026-04-12T07:43:15.972Z</time></trkpt><trkpt lat="40.54098" lon="15.0417133"><ele>15.200000000000001</ele><time>2026-04-12T07:43:17.971Z</time></trkpt><trkpt lat="40.5410133" lon="15.0416117"><ele>14.799999999999999</ele><time>2026-04-12T07:43:18.971Z</time></trkpt><trkpt lat="40.5410533" lon="15.041495"><ele>14.399999999999999</ele><time>2026-04-12T07:43:19.971Z</time></trkpt><trkpt lat="40.5410933" lon="15.04138"><ele>14.0</ele><time>2026-04-12T07:43:20.971Z</time></trkpt><trkpt lat="40.54114" lon="15.0412633"><ele>14.0</ele><time>2026-04-12T07:43:21.971Z</time></trkpt><trkpt lat="40.541185" lon="15.0411367"><ele>14.0</ele><time>2026-04-12T07:43:22.971Z</time></trkpt><trkpt lat="40.541235" lon="15.0410033"><ele>14.0</ele><time>2026-04-12T07:43:23.972Z</time></trkpt><trkpt lat="40.541285" lon="15.0408617"><ele>14.0</ele><time>2026-04-12T07:43:24.971Z</time></trkpt><trkpt lat="40.5413367" lon="15.0407183"><ele>14.25</ele><time>2026-04-12T07:43:25.971Z</time></trkpt><trkpt lat="40.54139" lon="15.0405783"><ele>14.5</ele><time>2026-04-12T07:43:26.971Z</time></trkpt><trkpt lat="40.5414467" lon="15.0404317"><ele>14.75</ele><time>2026-04-12T07:43:27.971Z</time></trkpt><trkpt lat="40.5414967" lon="15.0402867"><ele>15.0</ele><time>2026-04-12T07:43:28.971Z</time></trkpt><trkpt lat="40.54155" lon="15.0401333"><ele>15.0</ele><time>2026-04-12T07:43:29.971Z</time></trkpt><trkpt lat="40.5416083" lon="15.0399717"><ele>15.0</ele><time>2026-04-12T07:43:30.971Z</time></trkpt><trkpt lat="40.5416617" lon="15.0398217"><ele>15.0</ele><time>2026-04-12T07:43:31.971Z</time></trkpt><trkpt lat="40.5417183" lon="15.0396733"><ele>15.0</ele><time>2026-04-12T07:43:32.971Z</time></trkpt><trkpt lat="40.541775" lon="15.039515"><ele>15.0</ele><time>2026-04-12T07:43:33.971Z</time></trkpt><trkpt lat="40.5418317" lon="15.0393617"><ele>15.0</ele><time>2026-04-12T07:43:34.971Z</time></trkpt><trkpt lat="40.5418833" lon="15.0391967"><ele>15.0</ele><time>2026-04-12T07:43:35.971Z</time></trkpt><trkpt lat="40.541935" lon="15.0390317"><ele>15.0</ele><time>2026-04-12T07:43:36.971Z</time></trkpt><trkpt lat="40.5419933" lon="15.0388667"><ele>14.75</ele><time>2026-04-12T07:43:37.971Z</time></trkpt><trkpt lat="40.5420533" lon="15.0387033"><ele>14.5</ele><time>2026-04-12T07:43:38.971Z</time></trkpt><trkpt lat="40.5421133" lon="15.0385433"><ele>14.25</ele><time>2026-04-12T07:43:39.971Z</time></trkpt><trkpt lat="40.5421783" lon="15.0383767"><ele>14.0</ele><time>2026-04-12T07:43:40.971Z</time></trkpt><trkpt lat="40.54224" lon="15.0382067"><ele>14.0</ele><time>2026-04-12T07:43:41.971Z</time></trkpt><trkpt lat="40.5423033" lon="15.0380367"><ele>14.0</ele><time>2026-04-12T07:43:42.971Z</time></trkpt><trkpt lat="40.5423667" lon="15.0378633"><ele>14.0</ele><time>2026-04-12T07:43:43.971Z</time></trkpt><trkpt lat="40.542425" lon="15.037695"><ele>14.0</ele><time>2026-04-12T07:43:44.971Z</time></trkpt><trkpt lat="40.5424867" lon="15.0375267"><ele>14.0</ele><time>2026-04-12T07:43:45.972Z</time></trkpt><trkpt lat="40.5425417" lon="15.0373517"><ele>14.0</ele><time>2026-04-12T07:43:46.971Z</time></trkpt><trkpt lat="40.542595" lon="15.0371817"><ele>14.0</ele><time>2026-04-12T07:43:47.971Z</time></trkpt><trkpt lat="40.54266" lon="15.0370167"><ele>14.0</ele><time>2026-04-12T07:43:48.971Z</time></trkpt><trkpt lat="40.54273" lon="15.0368417"><ele>14.0</ele><time>2026-04-12T07:43:49.971Z</time></trkpt><trkpt lat="40.5427983" lon="15.0366583"><ele>14.0</ele><time>2026-04-12T07:43:50.971Z</time></trkpt><trkpt lat="40.5428683" lon="15.03647"><ele>14.0</ele><time>2026-04-12T07:43:51.971Z</time></trkpt><trkpt lat="40.5429367" lon="15.0362767"><ele>14.5</ele><time>2026-04-12T07:43:52.971Z</time></trkpt><trkpt lat="40.5430017" lon="15.036105"><ele>15.0</ele><time>2026-04-12T07:43:53.972Z</time></trkpt><trkpt lat="40.5430683" lon="15.0359333"><ele>15.5</ele><time>2026-04-12T07:43:54.971Z</time></trkpt><trkpt lat="40.5431367" lon="15.03575"><ele>16.0</ele><time>2026-04-12T07:43:55.971Z</time></trkpt><trkpt lat="40.543205" lon="15.0355633"><ele>16.333333333333332</ele><time>2026-04-12T07:43:56.971Z</time></trkpt><trkpt lat="40.5432733" lon="15.03537"><ele>16.666666666666668</ele><time>2026-04-12T07:43:57.971Z</time></trkpt><trkpt lat="40.5433467" lon="15.03518"><ele>17.0</ele><time>2026-04-12T07:43:58.971Z</time></trkpt><trkpt lat="40.54342" lon="15.0349917"><ele>16.666666666666668</ele><time>2026-04-12T07:43:59.971Z</time></trkpt><trkpt lat="40.5434933" lon="15.0347983"><ele>16.333333333333332</ele><time>2026-04-12T07:44:00.971Z</time></trkpt><trkpt lat="40.5435633" lon="15.0346033"><ele>16.0</ele><time>2026-04-12T07:44:01.971Z</time></trkpt><trkpt lat="40.5436417" lon="15.03441"><ele>16.0</ele><time>2026-04-12T07:44:02.971Z</time></trkpt><trkpt lat="40.54371" lon="15.0342133"><ele>16.0</ele><time>2026-04-12T07:44:03.971Z</time></trkpt><trkpt lat="40.5437817" lon="15.0340167"><ele>16.0</ele><time>2026-04-12T07:44:04.971Z</time></trkpt><trkpt lat="40.543855" lon="15.0338217"><ele>15.666666666666666</ele><time>2026-04-12T07:44:05.971Z</time></trkpt><trkpt lat="40.5439317" lon="15.0336217"><ele>15.333333333333332</ele><time>2026-04-12T07:44:06.971Z</time></trkpt><trkpt lat="40.544005" lon="15.03342"><ele>15.0</ele><time>2026-04-12T07:44:07.971Z</time></trkpt><trkpt lat="40.544075" lon="15.0332133"><ele>15.0</ele><time>2026-04-12T07:44:08.971Z</time></trkpt><trkpt lat="40.5441433" lon="15.0330033"><ele>15.0</ele><time>2026-04-12T07:44:09.971Z</time></trkpt><trkpt lat="40.5442167" lon="15.0328083"><ele>15.0</ele><time>2026-04-12T07:44:10.971Z</time></trkpt><trkpt lat="40.54429" lon="15.0326167"><ele>16.666666666666668</ele><time>2026-04-12T07:44:11.971Z</time></trkpt><trkpt lat="40.54436" lon="15.0324267"><ele>18.333333333333336</ele><time>2026-04-12T07:44:12.971Z</time></trkpt><trkpt lat="40.5444217" lon="15.0322283"><ele>20.0</ele><time>2026-04-12T07:44:13.971Z</time></trkpt><trkpt lat="40.5444917" lon="15.032045"><ele>21.666666666666668</ele><time>2026-04-12T07:44:14.971Z</time></trkpt><trkpt lat="40.5445567" lon="15.0318567"><ele>23.333333333333336</ele><time>2026-04-12T07:44:15.971Z</time></trkpt><trkpt lat="40.54463" lon="15.031665"><ele>25.0</ele><time>2026-04-12T07:44:16.971Z</time></trkpt><trkpt lat="40.5446983" lon="15.031475"><ele>25.666666666666668</ele><time>2026-04-12T07:44:17.971Z</time></trkpt><trkpt lat="40.54477" lon="15.031285"><ele>26.333333333333336</ele><time>2026-04-12T07:44:18.971Z</time></trkpt><trkpt lat="40.54484" lon="15.0311"><ele>27.0</ele><time>2026-04-12T07:44:19.971Z</time></trkpt><trkpt lat="40.5449067" lon="15.0309217"><ele>28.5</ele><time>2026-04-12T07:44:20.971Z</time></trkpt><trkpt lat="40.54497" lon="15.0307533"><ele>30.0</ele><time>2026-04-12T07:44:21.971Z</time></trkpt><trkpt lat="40.545025" lon="15.0305933"><ele>31.5</ele><time>2026-04-12T07:44:22.971Z</time></trkpt><trkpt lat="40.5450733" lon="15.0304483"><ele>33.0</ele><time>2026-04-12T07:44:23.971Z</time></trkpt><trkpt lat="40.5451183" lon="15.0303183"><ele>33.0</ele><time>2026-04-12T07:44:24.971Z</time></trkpt><trkpt lat="40.5451683" lon="15.0302033"><ele>33.0</ele><time>2026-04-12T07:44:25.971Z</time></trkpt><trkpt lat="40.545215" lon="15.0301033"><ele>33.0</ele><time>2026-04-12T07:44:26.971Z</time></trkpt><trkpt lat="40.5452633" lon="15.0300317"><ele>33.0</ele><time>2026-04-12T07:44:27.971Z</time></trkpt><trkpt lat="40.545335" lon="15.0299467"><ele>33.0</ele><time>2026-04-12T07:44:29.971Z</time></trkpt><trkpt lat="40.5454067" lon="15.029905"><ele>33.0</ele><time>2026-04-12T07:44:32.971Z</time></trkpt><trkpt lat="40.5454833" lon="15.0298967"><ele>33.199999999999996</ele><time>2026-04-12T07:44:34.971Z</time></trkpt><trkpt lat="40.5456" lon="15.0299517"><ele>33.4</ele><time>2026-04-12T07:44:36.971Z</time></trkpt><trkpt lat="40.5456667" lon="15.0300067"><ele>33.599999999999994</ele><time>2026-04-12T07:44:37.971Z</time></trkpt><trkpt lat="40.5457467" lon="15.0300733"><ele>33.8</ele><time>2026-04-12T07:44:38.971Z</time></trkpt><trkpt lat="40.5458383" lon="15.030145"><ele>34.0</ele><time>2026-04-12T07:44:39.971Z</time></trkpt><trkpt lat="40.5459383" lon="15.0302383"><ele>34.0</ele><time>2026-04-12T07:44:40.971Z</time></trkpt><trkpt lat="40.54605" lon="15.030335"><ele>34.0</ele><time>2026-04-12T07:44:41.971Z</time></trkpt><trkpt lat="40.5461717" lon="15.0304333"><ele>34.0</ele><time>2026-04-12T07:44:42.971Z</time></trkpt><trkpt lat="40.5463033" lon="15.0305433"><ele>34.0</ele><time>2026-04-12T07:44:43.971Z</time></trkpt><trkpt lat="40.546435" lon="15.030665"><ele>34.333333333333336</ele><time>2026-04-12T07:44:44.971Z</time></trkpt><trkpt lat="40.5465683" lon="15.0308017"><ele>34.666666666666664</ele><time>2026-04-12T07:44:45.971Z</time></trkpt><trkpt lat="40.54671" lon="15.0309333"><ele>35.0</ele><time>2026-04-12T07:44:46.971Z</time></trkpt><trkpt lat="40.5468433" lon="15.03108"><ele>35.0</ele><time>2026-04-12T07:44:47.971Z</time></trkpt><trkpt lat="40.546985" lon="15.031235"><ele>35.0</ele><time>2026-04-12T07:44:48.971Z</time></trkpt><trkpt lat="40.5471317" lon="15.031385"><ele>35.0</ele><time>2026-04-12T07:44:49.971Z</time></trkpt><trkpt lat="40.5472783" lon="15.031525"><ele>35.0</ele><time>2026-04-12T07:44:50.972Z</time></trkpt><trkpt lat="40.5474283" lon="15.0316617"><ele>35.0</ele><time>2026-04-12T07:44:51.971Z</time></trkpt><trkpt lat="40.547575" lon="15.0318017"><ele>35.0</ele><time>2026-04-12T07:44:52.971Z</time></trkpt><trkpt lat="40.5477217" lon="15.031945"><ele>35.0</ele><time>2026-04-12T07:44:53.971Z</time></trkpt><trkpt lat="40.5478633" lon="15.03208"><ele>35.0</ele><time>2026-04-12T07:44:54.972Z</time></trkpt><trkpt lat="40.5480083" lon="15.032215"><ele>35.0</ele><time>2026-04-12T07:44:55.971Z</time></trkpt><trkpt lat="40.548155" lon="15.032355"><ele>35.0</ele><time>2026-04-12T07:44:56.972Z</time></trkpt><trkpt lat="40.5483017" lon="15.0324967"><ele>35.0</ele><time>2026-04-12T07:44:57.971Z</time></trkpt><trkpt lat="40.5484517" lon="15.0326367"><ele>35.0</ele><time>2026-04-12T07:44:58.971Z</time></trkpt><trkpt lat="40.5486" lon="15.0327817"><ele>34.33333333333333</ele><time>2026-04-12T07:44:59.972Z</time></trkpt><trkpt lat="40.5487483" lon="15.0329267"><ele>33.666666666666664</ele><time>2026-04-12T07:45:00.971Z</time></trkpt><trkpt lat="40.5488983" lon="15.0330667"><ele>33.0</ele><time>2026-04-12T07:45:01.971Z</time></trkpt><trkpt lat="40.5490533" lon="15.033205"><ele>33.333333333333336</ele><time>2026-04-12T07:45:02.971Z</time></trkpt><trkpt lat="40.549205" lon="15.0333483"><ele>33.66666666666667</ele><time>2026-04-12T07:45:03.971Z</time></trkpt><trkpt lat="40.5493567" lon="15.0334917"><ele>34.0</ele><time>2026-04-12T07:45:04.971Z</time></trkpt><trkpt lat="40.54951" lon="15.0336417"><ele>34.0</ele><time>2026-04-12T07:45:05.971Z</time></trkpt><trkpt lat="40.5496617" lon="15.0337917"><ele>34.0</ele><time>2026-04-12T07:45:06.971Z</time></trkpt><trkpt lat="40.549815" lon="15.0339417"><ele>34.0</ele><time>2026-04-12T07:45:07.971Z</time></trkpt><trkpt lat="40.549975" lon="15.0340933"><ele>34.0</ele><time>2026-04-12T07:45:08.971Z</time></trkpt><trkpt lat="40.5501283" lon="15.034245"><ele>34.0</ele><time>2026-04-12T07:45:09.971Z</time></trkpt><trkpt lat="40.5502833" lon="15.0344017"><ele>34.0</ele><time>2026-04-12T07:45:10.971Z</time></trkpt><trkpt lat="40.5504367" lon="15.034555"><ele>34.333333333333336</ele><time>2026-04-12T07:45:11.971Z</time></trkpt><trkpt lat="40.5505917" lon="15.0347017"><ele>34.666666666666664</ele><time>2026-04-12T07:45:12.971Z</time></trkpt><trkpt lat="40.5507483" lon="15.0348467"><ele>35.0</ele><time>2026-04-12T07:45:13.971Z</time></trkpt><trkpt lat="40.5509067" lon="15.0349917"><ele>35.33333333333333</ele><time>2026-04-12T07:45:14.971Z</time></trkpt><trkpt lat="40.55106" lon="15.0351333"><ele>35.666666666666664</ele><time>2026-04-12T07:45:15.971Z</time></trkpt><trkpt lat="40.5512167" lon="15.0352767"><ele>36.0</ele><time>2026-04-12T07:45:16.971Z</time></trkpt><trkpt lat="40.5513667" lon="15.0354283"><ele>35.666666666666664</ele><time>2026-04-12T07:45:17.971Z</time></trkpt><trkpt lat="40.55152" lon="15.0355767"><ele>35.33333333333333</ele><time>2026-04-12T07:45:18.971Z</time></trkpt><trkpt lat="40.551675" lon="15.0357283"><ele>35.0</ele><time>2026-04-12T07:45:19.971Z</time></trkpt><trkpt lat="40.5518267" lon="15.0358817"><ele>35.0</ele><time>2026-04-12T07:45:20.971Z</time></trkpt><trkpt lat="40.5519783" lon="15.036025"><ele>35.0</ele><time>2026-04-12T07:45:21.971Z</time></trkpt><trkpt lat="40.5521267" lon="15.0361683"><ele>35.0</ele><time>2026-04-12T07:45:22.971Z</time></trkpt><trkpt lat="40.5522683" lon="15.03632"><ele>34.666666666666664</ele><time>2026-04-12T07:45:23.971Z</time></trkpt><trkpt lat="40.55239" lon="15.0364817"><ele>34.333333333333336</ele><time>2026-04-12T07:45:24.971Z</time></trkpt><trkpt lat="40.5524917" lon="15.03667"><ele>34.0</ele><time>2026-04-12T07:45:25.971Z</time></trkpt><trkpt lat="40.5525867" lon="15.036875"><ele>33.333333333333336</ele><time>2026-04-12T07:45:26.971Z</time></trkpt><trkpt lat="40.552675" lon="15.03707"><ele>32.666666666666664</ele><time>2026-04-12T07:45:27.971Z</time></trkpt><trkpt lat="40.5527617" lon="15.0372417"><ele>32.0</ele><time>2026-04-12T07:45:28.971Z</time></trkpt><trkpt lat="40.5528417" lon="15.0373767"><ele>31.200000000000003</ele><time>2026-04-12T07:45:29.971Z</time></trkpt><trkpt lat="40.5529217" lon="15.0374717"><ele>30.400000000000002</ele><time>2026-04-12T07:45:30.971Z</time></trkpt><trkpt lat="40.5530183" lon="15.0375333"><ele>29.599999999999998</ele><time>2026-04-12T07:45:31.971Z</time></trkpt><trkpt lat="40.5531233" lon="15.0375533"><ele>28.799999999999997</ele><time>2026-04-12T07:45:32.971Z</time></trkpt><trkpt lat="40.553245" lon="15.0375367"><ele>28.0</ele><time>2026-04-12T07:45:33.971Z</time></trkpt><trkpt lat="40.553375" lon="15.0375033"><ele>29.5</ele><time>2026-04-12T07:45:34.971Z</time></trkpt><trkpt lat="40.5535133" lon="15.0374617"><ele>31.0</ele><time>2026-04-12T07:45:35.971Z</time></trkpt><trkpt lat="40.5536617" lon="15.037425"><ele>32.5</ele><time>2026-04-12T07:45:36.971Z</time></trkpt><trkpt lat="40.5538133" lon="15.0373867"><ele>34.0</ele><time>2026-04-12T07:45:37.971Z</time></trkpt><trkpt lat="40.5539783" lon="15.0373567"><ele>34.0</ele><time>2026-04-12T07:45:38.971Z</time></trkpt><trkpt lat="40.554145" lon="15.0373283"><ele>34.0</ele><time>2026-04-12T07:45:39.971Z</time></trkpt><trkpt lat="40.5543133" lon="15.0373"><ele>34.0</ele><time>2026-04-12T07:45:40.971Z</time></trkpt><trkpt lat="40.5544883" lon="15.0372683"><ele>31.0</ele><time>2026-04-12T07:45:41.971Z</time></trkpt><trkpt lat="40.5546533" lon="15.0372467"><ele>28.0</ele><time>2026-04-12T07:45:42.971Z</time></trkpt><trkpt lat="40.5548183" lon="15.0372183"><ele>25.0</ele><time>2026-04-12T07:45:43.971Z</time></trkpt><trkpt lat="40.5549733" lon="15.0371883"><ele>25.0</ele><time>2026-04-12T07:45:44.971Z</time></trkpt><trkpt lat="40.55511" lon="15.037175"><ele>25.0</ele><time>2026-04-12T07:45:45.971Z</time></trkpt><trkpt lat="40.5552417" lon="15.03718"><ele>25.0</ele><time>2026-04-12T07:45:46.972Z</time></trkpt><trkpt lat="40.55536" lon="15.0372317"><ele>25.0</ele><time>2026-04-12T07:45:47.971Z</time></trkpt><trkpt lat="40.5554633" lon="15.0373033"><ele>24.75</ele><time>2026-04-12T07:45:48.972Z</time></trkpt><trkpt lat="40.5555417" lon="15.0374133"><ele>24.5</ele><time>2026-04-12T07:45:49.971Z</time></trkpt><trkpt lat="40.5555983" lon="15.03754"><ele>24.25</ele><time>2026-04-12T07:45:50.971Z</time></trkpt><trkpt lat="40.5556483" lon="15.037675"><ele>24.0</ele><time>2026-04-12T07:45:51.971Z</time></trkpt><trkpt lat="40.555675" lon="15.037825"><ele>24.0</ele><time>2026-04-12T07:45:52.971Z</time></trkpt><trkpt lat="40.5556967" lon="15.0379833"><ele>24.0</ele><time>2026-04-12T07:45:53.971Z</time></trkpt><trkpt lat="40.555725" lon="15.0381483"><ele>24.0</ele><time>2026-04-12T07:45:54.971Z</time></trkpt><trkpt lat="40.5557567" lon="15.0383167"><ele>24.0</ele><time>2026-04-12T07:45:55.971Z</time></trkpt><trkpt lat="40.5557883" lon="15.0384867"><ele>24.0</ele><time>2026-04-12T07:45:56.971Z</time></trkpt><trkpt lat="40.55583" lon="15.0386583"><ele>24.0</ele><time>2026-04-12T07:45:57.972Z</time></trkpt><trkpt lat="40.55588" lon="15.0388267"><ele>24.0</ele><time>2026-04-12T07:45:58.971Z</time></trkpt><trkpt lat="40.5559367" lon="15.0389933"><ele>24.0</ele><time>2026-04-12T07:45:59.971Z</time></trkpt><trkpt lat="40.5560017" lon="15.0391533"><ele>23.25</ele><time>2026-04-12T07:46:00.971Z</time></trkpt><trkpt lat="40.5560667" lon="15.0393183"><ele>22.5</ele><time>2026-04-12T07:46:01.972Z</time></trkpt><trkpt lat="40.55613" lon="15.0394833"><ele>21.75</ele><time>2026-04-12T07:46:02.971Z</time></trkpt><trkpt lat="40.556205" lon="15.03965"><ele>21.0</ele><time>2026-04-12T07:46:03.971Z</time></trkpt><trkpt lat="40.5562783" lon="15.0398067"><ele>22.25</ele><time>2026-04-12T07:46:04.971Z</time></trkpt><trkpt lat="40.5563483" lon="15.039955"><ele>23.5</ele><time>2026-04-12T07:46:05.971Z</time></trkpt><trkpt lat="40.55643" lon="15.0400867"><ele>24.75</ele><time>2026-04-12T07:46:06.972Z</time></trkpt><trkpt lat="40.5565267" lon="15.0402117"><ele>26.0</ele><time>2026-04-12T07:46:07.971Z</time></trkpt><trkpt lat="40.5566283" lon="15.0403283"><ele>26.0</ele><time>2026-04-12T07:46:08.971Z</time></trkpt><trkpt lat="40.5567233" lon="15.04046"><ele>26.0</ele><time>2026-04-12T07:46:09.971Z</time></trkpt><trkpt lat="40.55682" lon="15.0405867"><ele>26.0</ele><time>2026-04-12T07:46:10.971Z</time></trkpt><trkpt lat="40.55692" lon="15.040715"><ele>26.0</ele><time>2026-04-12T07:46:11.972Z</time></trkpt><trkpt lat="40.55702" lon="15.04084"><ele>26.75</ele><time>2026-04-12T07:46:12.971Z</time></trkpt><trkpt lat="40.55712" lon="15.04098"><ele>27.5</ele><time>2026-04-12T07:46:13.971Z</time></trkpt><trkpt lat="40.557215" lon="15.0411283"><ele>28.25</ele><time>2026-04-12T07:46:14.971Z</time></trkpt><trkpt lat="40.5573117" lon="15.0412717"><ele>29.0</ele><time>2026-04-12T07:46:15.971Z</time></trkpt><trkpt lat="40.5574217" lon="15.041405"><ele>29.0</ele><time>2026-04-12T07:46:16.971Z</time></trkpt><trkpt lat="40.55754" lon="15.0415333"><ele>29.0</ele><time>2026-04-12T07:46:17.971Z</time></trkpt><trkpt lat="40.5576733" lon="15.04166"><ele>29.0</ele><time>2026-04-12T07:46:18.971Z</time></trkpt><trkpt lat="40.5578217" lon="15.041775"><ele>30.0</ele><time>2026-04-12T07:46:19.971Z</time></trkpt><trkpt lat="40.5579733" lon="15.0418933"><ele>31.0</ele><time>2026-04-12T07:46:20.971Z</time></trkpt><trkpt lat="40.5581317" lon="15.0420117"><ele>32.0</ele><time>2026-04-12T07:46:21.971Z</time></trkpt><trkpt lat="40.5582933" lon="15.0421367"><ele>32.0</ele><time>2026-04-12T07:46:22.971Z</time></trkpt><trkpt lat="40.55846" lon="15.0422717"><ele>32.0</ele><time>2026-04-12T07:46:23.971Z</time></trkpt><trkpt lat="40.558625" lon="15.04238"><ele>32.0</ele><time>2026-04-12T07:46:24.971Z</time></trkpt><trkpt lat="40.5587917" lon="15.0424867"><ele>32.0</ele><time>2026-04-12T07:46:25.971Z</time></trkpt><trkpt lat="40.5589567" lon="15.0425967"><ele>32.0</ele><time>2026-04-12T07:46:26.971Z</time></trkpt><trkpt lat="40.5591233" lon="15.042705"><ele>32.0</ele><time>2026-04-12T07:46:27.971Z</time></trkpt><trkpt lat="40.559285" lon="15.04282"><ele>32.0</ele><time>2026-04-12T07:46:28.971Z</time></trkpt><trkpt lat="40.55944" lon="15.0429383"><ele>32.0</ele><time>2026-04-12T07:46:29.971Z</time></trkpt><trkpt lat="40.5595867" lon="15.0430633"><ele>32.0</ele><time>2026-04-12T07:46:30.971Z</time></trkpt><trkpt lat="40.5597267" lon="15.0431917"><ele>33.666666666666664</ele><time>2026-04-12T07:46:31.971Z</time></trkpt><trkpt lat="40.5598617" lon="15.0433233"><ele>35.333333333333336</ele><time>2026-04-12T07:46:32.971Z</time></trkpt><trkpt lat="40.56" lon="15.043455"><ele>37.0</ele><time>2026-04-12T07:46:33.971Z</time></trkpt><trkpt lat="40.5601417" lon="15.043565"><ele>37.0</ele><time>2026-04-12T07:46:34.971Z</time></trkpt><trkpt lat="40.5602917" lon="15.0436717"><ele>37.0</ele><time>2026-04-12T07:46:35.971Z</time></trkpt><trkpt lat="40.5604467" lon="15.0437633"><ele>37.0</ele><time>2026-04-12T07:46:36.971Z</time></trkpt><trkpt lat="40.56061" lon="15.043845"><ele>37.66666666666667</ele><time>2026-04-12T07:46:37.971Z</time></trkpt><trkpt lat="40.560785" lon="15.043935"><ele>38.333333333333336</ele><time>2026-04-12T07:46:38.97Z</time></trkpt><trkpt lat="40.56096" lon="15.0440267"><ele>39.0</ele><time>2026-04-12T07:46:39.97Z</time></trkpt><trkpt lat="40.5611433" lon="15.044115"><ele>40.0</ele><time>2026-04-12T07:46:40.97Z</time></trkpt><trkpt lat="40.561335" lon="15.0442033"><ele>41.0</ele><time>2026-04-12T07:46:41.97Z</time></trkpt><trkpt lat="40.561525" lon="15.0442733"><ele>42.0</ele><time>2026-04-12T07:46:42.97Z</time></trkpt><trkpt lat="40.56171" lon="15.04435"><ele>42.0</ele><time>2026-04-12T07:46:43.97Z</time></trkpt><trkpt lat="40.56189" lon="15.04442"><ele>42.0</ele><time>2026-04-12T07:46:44.97Z</time></trkpt><trkpt lat="40.56207" lon="15.044485"><ele>42.0</ele><time>2026-04-12T07:46:45.97Z</time></trkpt><trkpt lat="40.5622417" lon="15.04455"><ele>42.0</ele><time>2026-04-12T07:46:46.97Z</time></trkpt><trkpt lat="40.5624183" lon="15.0446183"><ele>42.0</ele><time>2026-04-12T07:46:47.97Z</time></trkpt><trkpt lat="40.5625983" lon="15.0446817"><ele>42.0</ele><time>2026-04-12T07:46:48.97Z</time></trkpt><trkpt lat="40.562775" lon="15.0447267"><ele>42.333333333333336</ele><time>2026-04-12T07:46:49.97Z</time></trkpt><trkpt lat="40.5629467" lon="15.0447617"><ele>42.66666666666667</ele><time>2026-04-12T07:46:50.97Z</time></trkpt><trkpt lat="40.563125" lon="15.0447733"><ele>43.0</ele><time>2026-04-12T07:46:51.97Z</time></trkpt><trkpt lat="40.5633033" lon="15.0447783"><ele>43.0</ele><time>2026-04-12T07:46:52.97Z</time></trkpt><trkpt lat="40.563485" lon="15.0447667"><ele>43.0</ele><time>2026-04-12T07:46:53.971Z</time></trkpt><trkpt lat="40.5636517" lon="15.0447417"><ele>43.0</ele><time>2026-04-12T07:46:54.97Z</time></trkpt><trkpt lat="40.5638267" lon="15.0447217"><ele>42.66666666666667</ele><time>2026-04-12T07:46:55.97Z</time></trkpt><trkpt lat="40.5640067" lon="15.0447067"><ele>42.333333333333336</ele><time>2026-04-12T07:46:56.97Z</time></trkpt><trkpt lat="40.5641817" lon="15.044695"><ele>42.0</ele><time>2026-04-12T07:46:57.97Z</time></trkpt><trkpt lat="40.5643583" lon="15.04468"><ele>42.0</ele><time>2026-04-12T07:46:58.97Z</time></trkpt><trkpt lat="40.5645283" lon="15.04466"><ele>42.0</ele><time>2026-04-12T07:46:59.97Z</time></trkpt><trkpt lat="40.5647" lon="15.0446417"><ele>42.0</ele><time>2026-04-12T07:47:00.971Z</time></trkpt><trkpt lat="40.56487" lon="15.0446283"><ele>41.666666666666664</ele><time>2026-04-12T07:47:01.97Z</time></trkpt><trkpt lat="40.5650367" lon="15.044605"><ele>41.33333333333333</ele><time>2026-04-12T07:47:02.97Z</time></trkpt><trkpt lat="40.565195" lon="15.0445967"><ele>41.0</ele><time>2026-04-12T07:47:03.97Z</time></trkpt><trkpt lat="40.565355" lon="15.0445867"><ele>41.666666666666664</ele><time>2026-04-12T07:47:04.97Z</time></trkpt><trkpt lat="40.5655133" lon="15.044575"><ele>42.333333333333336</ele><time>2026-04-12T07:47:05.97Z</time></trkpt><trkpt lat="40.56567" lon="15.0445667"><ele>43.0</ele><time>2026-04-12T07:47:06.97Z</time></trkpt><trkpt lat="40.565825" lon="15.0445583"><ele>43.0</ele><time>2026-04-12T07:47:07.97Z</time></trkpt><trkpt lat="40.565985" lon="15.0445533"><ele>43.0</ele><time>2026-04-12T07:47:08.971Z</time></trkpt><trkpt lat="40.5661483" lon="15.0445567"><ele>43.0</ele><time>2026-04-12T07:47:09.971Z</time></trkpt><trkpt lat="40.566315" lon="15.044565"><ele>43.0</ele><time>2026-04-12T07:47:10.971Z</time></trkpt><trkpt lat="40.5664867" lon="15.0445733"><ele>43.0</ele><time>2026-04-12T07:47:11.97Z</time></trkpt><trkpt lat="40.5666667" lon="15.0445867"><ele>43.0</ele><time>2026-04-12T07:47:12.97Z</time></trkpt><trkpt lat="40.566845" lon="15.0445983"><ele>43.0</ele><time>2026-04-12T07:47:13.97Z</time></trkpt><trkpt lat="40.5670333" lon="15.0446083"><ele>43.0</ele><time>2026-04-12T07:47:14.97Z</time></trkpt><trkpt lat="40.5672233" lon="15.0446133"><ele>43.0</ele><time>2026-04-12T07:47:15.971Z</time></trkpt><trkpt lat="40.5674083" lon="15.0446183"><ele>43.0</ele><time>2026-04-12T07:47:16.971Z</time></trkpt><trkpt lat="40.5675983" lon="15.0446233"><ele>43.0</ele><time>2026-04-12T07:47:17.97Z</time></trkpt><trkpt lat="40.5677883" lon="15.0446283"><ele>43.0</ele><time>2026-04-12T07:47:18.97Z</time></trkpt><trkpt lat="40.5679767" lon="15.044635"><ele>43.333333333333336</ele><time>2026-04-12T07:47:19.97Z</time></trkpt><trkpt lat="40.5681633" lon="15.0446433"><ele>43.666666666666664</ele><time>2026-04-12T07:47:20.97Z</time></trkpt><trkpt lat="40.5683517" lon="15.0446533"><ele>44.0</ele><time>2026-04-12T07:47:21.971Z</time></trkpt><trkpt lat="40.5685433" lon="15.0446633"><ele>43.666666666666664</ele><time>2026-04-12T07:47:22.97Z</time></trkpt><trkpt lat="40.568735" lon="15.044675"><ele>43.333333333333336</ele><time>2026-04-12T07:47:23.97Z</time></trkpt><trkpt lat="40.5689233" lon="15.044685"><ele>43.0</ele><time>2026-04-12T07:47:24.971Z</time></trkpt><trkpt lat="40.5691133" lon="15.0446983"><ele>43.0</ele><time>2026-04-12T07:47:25.97Z</time></trkpt><trkpt lat="40.5693017" lon="15.044715"><ele>43.0</ele><time>2026-04-12T07:47:26.97Z</time></trkpt><trkpt lat="40.569485" lon="15.044735"><ele>43.0</ele><time>2026-04-12T07:47:27.97Z</time></trkpt><trkpt lat="40.5696683" lon="15.0447533"><ele>42.66666666666667</ele><time>2026-04-12T07:47:28.97Z</time></trkpt><trkpt lat="40.56985" lon="15.0447783"><ele>42.333333333333336</ele><time>2026-04-12T07:47:29.97Z</time></trkpt><trkpt lat="40.570035" lon="15.0448033"><ele>42.0</ele><time>2026-04-12T07:47:30.97Z</time></trkpt><trkpt lat="40.5702167" lon="15.0448283"><ele>41.666666666666664</ele><time>2026-04-12T07:47:31.97Z</time></trkpt><trkpt lat="40.5703983" lon="15.0448483"><ele>41.33333333333333</ele><time>2026-04-12T07:47:32.97Z</time></trkpt><trkpt lat="40.5705767" lon="15.04487"><ele>41.0</ele><time>2026-04-12T07:47:33.97Z</time></trkpt><trkpt lat="40.5707483" lon="15.0448933"><ele>41.0</ele><time>2026-04-12T07:47:34.97Z</time></trkpt><trkpt lat="40.5709167" lon="15.044925"><ele>41.0</ele><time>2026-04-12T07:47:35.97Z</time></trkpt><trkpt lat="40.571085" lon="15.04495"><ele>41.0</ele><time>2026-04-12T07:47:36.97Z</time></trkpt><trkpt lat="40.5712467" lon="15.0449817"><ele>41.666666666666664</ele><time>2026-04-12T07:47:37.97Z</time></trkpt><trkpt lat="40.5714033" lon="15.0450083"><ele>42.333333333333336</ele><time>2026-04-12T07:47:38.97Z</time></trkpt><trkpt lat="40.5715667" lon="15.0450367"><ele>43.0</ele><time>2026-04-12T07:47:39.97Z</time></trkpt><trkpt lat="40.5717367" lon="15.04506"><ele>43.0</ele><time>2026-04-12T07:47:40.97Z</time></trkpt><trkpt lat="40.5719033" lon="15.0450933"><ele>43.0</ele><time>2026-04-12T07:47:41.97Z</time></trkpt><trkpt lat="40.5720683" lon="15.045125"><ele>43.0</ele><time>2026-04-12T07:47:42.97Z</time></trkpt><trkpt lat="40.5722367" lon="15.04517"><ele>43.333333333333336</ele><time>2026-04-12T07:47:43.97Z</time></trkpt><trkpt lat="40.572405" lon="15.045225"><ele>43.666666666666664</ele><time>2026-04-12T07:47:44.97Z</time></trkpt><trkpt lat="40.57258" lon="15.0452783"><ele>44.0</ele><time>2026-04-12T07:47:45.97Z</time></trkpt><trkpt lat="40.5727517" lon="15.0453333"><ele>43.666666666666664</ele><time>2026-04-12T07:47:46.97Z</time></trkpt><trkpt lat="40.5729267" lon="15.0453883"><ele>43.333333333333336</ele><time>2026-04-12T07:47:47.97Z</time></trkpt><trkpt lat="40.5731067" lon="15.04544"><ele>43.0</ele><time>2026-04-12T07:47:48.971Z</time></trkpt><trkpt lat="40.5732933" lon="15.045505"><ele>43.0</ele><time>2026-04-12T07:47:49.97Z</time></trkpt><trkpt lat="40.57348" lon="15.0455567"><ele>43.0</ele><time>2026-04-12T07:47:50.97Z</time></trkpt><trkpt lat="40.573675" lon="15.045615"><ele>43.0</ele><time>2026-04-12T07:47:51.97Z</time></trkpt><trkpt lat="40.573865" lon="15.0456783"><ele>43.333333333333336</ele><time>2026-04-12T07:47:52.97Z</time></trkpt><trkpt lat="40.574055" lon="15.0457383"><ele>43.666666666666664</ele><time>2026-04-12T07:47:53.97Z</time></trkpt><trkpt lat="40.57425" lon="15.0458"><ele>44.0</ele><time>2026-04-12T07:47:54.97Z</time></trkpt><trkpt lat="40.5744367" lon="15.04586"><ele>44.0</ele><time>2026-04-12T07:47:55.97Z</time></trkpt><trkpt lat="40.5746167" lon="15.0459183"><ele>44.0</ele><time>2026-04-12T07:47:56.97Z</time></trkpt><trkpt lat="40.5747933" lon="15.045975"><ele>44.0</ele><time>2026-04-12T07:47:57.97Z</time></trkpt><trkpt lat="40.57497" lon="15.0460383"><ele>44.0</ele><time>2026-04-12T07:47:58.97Z</time></trkpt><trkpt lat="40.575145" lon="15.0461267"><ele>44.0</ele><time>2026-04-12T07:47:59.97Z</time></trkpt><trkpt lat="40.5753117" lon="15.0462267"><ele>44.0</ele><time>2026-04-12T07:48:00.97Z</time></trkpt><trkpt lat="40.5754733" lon="15.0463383"><ele>43.666666666666664</ele><time>2026-04-12T07:48:01.97Z</time></trkpt><trkpt lat="40.575635" lon="15.046455"><ele>43.333333333333336</ele><time>2026-04-12T07:48:02.971Z</time></trkpt><trkpt lat="40.5758017" lon="15.0465617"><ele>43.0</ele><time>2026-04-12T07:48:03.97Z</time></trkpt><trkpt lat="40.5759683" lon="15.0466567"><ele>42.66666666666667</ele><time>2026-04-12T07:48:04.97Z</time></trkpt><trkpt lat="40.5761583" lon="15.0467283"><ele>42.333333333333336</ele><time>2026-04-12T07:48:05.97Z</time></trkpt><trkpt lat="40.5763583" lon="15.0467983"><ele>42.0</ele><time>2026-04-12T07:48:06.97Z</time></trkpt><trkpt lat="40.576565" lon="15.0468667"><ele>42.666666666666664</ele><time>2026-04-12T07:48:07.97Z</time></trkpt><trkpt lat="40.5767583" lon="15.0469333"><ele>43.33333333333333</ele><time>2026-04-12T07:48:08.97Z</time></trkpt><trkpt lat="40.5769417" lon="15.0469983"><ele>44.0</ele><time>2026-04-12T07:48:09.97Z</time></trkpt><trkpt lat="40.5771183" lon="15.0470667"><ele>44.0</ele><time>2026-04-12T07:48:10.97Z</time></trkpt><trkpt lat="40.5772867" lon="15.0471333"><ele>44.0</ele><time>2026-04-12T07:48:11.97Z</time></trkpt><trkpt lat="40.5774533" lon="15.0472"><ele>44.0</ele><time>2026-04-12T07:48:12.97Z</time></trkpt><trkpt lat="40.5776133" lon="15.0472667"><ele>44.0</ele><time>2026-04-12T07:48:13.97Z</time></trkpt><trkpt lat="40.577765" lon="15.0473333"><ele>44.0</ele><time>2026-04-12T07:48:14.971Z</time></trkpt><trkpt lat="40.57791" lon="15.0474183"><ele>44.0</ele><time>2026-04-12T07:48:15.97Z</time></trkpt><trkpt lat="40.5780483" lon="15.0475167"><ele>44.0</ele><time>2026-04-12T07:48:16.97Z</time></trkpt><trkpt lat="40.5781767" lon="15.047635"><ele>44.0</ele><time>2026-04-12T07:48:17.97Z</time></trkpt><trkpt lat="40.5783017" lon="15.04777"><ele>44.0</ele><time>2026-04-12T07:48:18.97Z</time></trkpt><trkpt lat="40.57842" lon="15.047915"><ele>44.0</ele><time>2026-04-12T07:48:19.97Z</time></trkpt><trkpt lat="40.57854" lon="15.048065"><ele>44.0</ele><time>2026-04-12T07:48:20.97Z</time></trkpt><trkpt lat="40.5786583" lon="15.04821"><ele>44.0</ele><time>2026-04-12T07:48:21.97Z</time></trkpt><trkpt lat="40.5787717" lon="15.0483533"><ele>44.0</ele><time>2026-04-12T07:48:22.97Z</time></trkpt><trkpt lat="40.5788783" lon="15.0484833"><ele>44.0</ele><time>2026-04-12T07:48:23.97Z</time></trkpt><trkpt lat="40.578985" lon="15.048615"><ele>44.0</ele><time>2026-04-12T07:48:24.97Z</time></trkpt><trkpt lat="40.5790933" lon="15.0487417"><ele>44.0</ele><time>2026-04-12T07:48:25.97Z</time></trkpt><trkpt lat="40.5792033" lon="15.04886"><ele>44.0</ele><time>2026-04-12T07:48:26.97Z</time></trkpt><trkpt lat="40.5793217" lon="15.04897"><ele>44.0</ele><time>2026-04-12T07:48:27.97Z</time></trkpt><trkpt lat="40.57945" lon="15.0490567"><ele>44.0</ele><time>2026-04-12T07:48:28.97Z</time></trkpt><trkpt lat="40.5795883" lon="15.0491333"><ele>44.0</ele><time>2026-04-12T07:48:29.971Z</time></trkpt><trkpt lat="40.579735" lon="15.0491867"><ele>42.666666666666664</ele><time>2026-04-12T07:48:30.97Z</time></trkpt><trkpt lat="40.57989" lon="15.0492267"><ele>41.333333333333336</ele><time>2026-04-12T07:48:31.97Z</time></trkpt><trkpt lat="40.580045" lon="15.0492533"><ele>40.0</ele><time>2026-04-12T07:48:32.97Z</time></trkpt><trkpt lat="40.5801967" lon="15.04927"><ele>40.0</ele><time>2026-04-12T07:48:33.97Z</time></trkpt><trkpt lat="40.580345" lon="15.0492833"><ele>40.0</ele><time>2026-04-12T07:48:34.97Z</time></trkpt><trkpt lat="40.580485" lon="15.0492983"><ele>40.0</ele><time>2026-04-12T07:48:35.97Z</time></trkpt><trkpt lat="40.5806167" lon="15.0493067"><ele>40.0</ele><time>2026-04-12T07:48:36.97Z</time></trkpt><trkpt lat="40.5807317" lon="15.0493117"><ele>39.8</ele><time>2026-04-12T07:48:37.97Z</time></trkpt><trkpt lat="40.580835" lon="15.04932"><ele>39.6</ele><time>2026-04-12T07:48:38.97Z</time></trkpt><trkpt lat="40.5809333" lon="15.0493267"><ele>39.4</ele><time>2026-04-12T07:48:39.97Z</time></trkpt><trkpt lat="40.5810183" lon="15.049335"><ele>39.2</ele><time>2026-04-12T07:48:40.97Z</time></trkpt><trkpt lat="40.5810883" lon="15.0493417"><ele>39.0</ele><time>2026-04-12T07:48:41.97Z</time></trkpt><trkpt lat="40.5812067" lon="15.049395"><ele>38.6</ele><time>2026-04-12T07:48:43.97Z</time></trkpt><trkpt lat="40.581265" lon="15.0494517"><ele>38.2</ele><time>2026-04-12T07:48:44.97Z</time></trkpt><trkpt lat="40.58131" lon="15.049545"><ele>37.800000000000004</ele><time>2026-04-12T07:48:45.97Z</time></trkpt><trkpt lat="40.581345" lon="15.0496617"><ele>37.4</ele><time>2026-04-12T07:48:46.97Z</time></trkpt><trkpt lat="40.5813683" lon="15.0497917"><ele>37.0</ele><time>2026-04-12T07:48:47.97Z</time></trkpt><trkpt lat="40.5813717" lon="15.049945"><ele>36.5</ele><time>2026-04-12T07:48:48.97Z</time></trkpt><trkpt lat="40.5813717" lon="15.0501133"><ele>36.0</ele><time>2026-04-12T07:48:49.97Z</time></trkpt><trkpt lat="40.581375" lon="15.0502983"><ele>35.5</ele><time>2026-04-12T07:48:50.97Z</time></trkpt><trkpt lat="40.5813783" lon="15.05049"><ele>35.0</ele><time>2026-04-12T07:48:51.97Z</time></trkpt><trkpt lat="40.5813817" lon="15.0506883"><ele>34.666666666666664</ele><time>2026-04-12T07:48:52.97Z</time></trkpt><trkpt lat="40.5813783" lon="15.0509033"><ele>34.333333333333336</ele><time>2026-04-12T07:48:53.97Z</time></trkpt><trkpt lat="40.5813767" lon="15.0511283"><ele>34.0</ele><time>2026-04-12T07:48:54.97Z</time></trkpt><trkpt lat="40.5813717" lon="15.0513533"><ele>34.0</ele><time>2026-04-12T07:48:55.97Z</time></trkpt><trkpt lat="40.581365" lon="15.0515783"><ele>34.0</ele><time>2026-04-12T07:48:56.971Z</time></trkpt><trkpt lat="40.5813533" lon="15.0518067"><ele>34.0</ele><time>2026-04-12T07:48:57.97Z</time></trkpt><trkpt lat="40.5813333" lon="15.0520383"><ele>34.0</ele><time>2026-04-12T07:48:58.97Z</time></trkpt><trkpt lat="40.5813067" lon="15.05227"><ele>34.0</ele><time>2026-04-12T07:48:59.97Z</time></trkpt><trkpt lat="40.5812817" lon="15.0524967"><ele>34.0</ele><time>2026-04-12T07:49:00.97Z</time></trkpt><trkpt lat="40.581255" lon="15.0527117"><ele>34.0</ele><time>2026-04-12T07:49:01.97Z</time></trkpt><trkpt lat="40.5812217" lon="15.05292"><ele>34.0</ele><time>2026-04-12T07:49:02.97Z</time></trkpt><trkpt lat="40.5811867" lon="15.0531267"><ele>34.0</ele><time>2026-04-12T07:49:03.97Z</time></trkpt><trkpt lat="40.5811567" lon="15.053335"><ele>34.333333333333336</ele><time>2026-04-12T07:49:04.97Z</time></trkpt><trkpt lat="40.58112" lon="15.053545"><ele>34.666666666666664</ele><time>2026-04-12T07:49:05.97Z</time></trkpt><trkpt lat="40.5810933" lon="15.05376"><ele>35.0</ele><time>2026-04-12T07:49:06.97Z</time></trkpt><trkpt lat="40.5810767" lon="15.0539867"><ele>34.666666666666664</ele><time>2026-04-12T07:49:07.97Z</time></trkpt><trkpt lat="40.5810667" lon="15.0542167"><ele>34.333333333333336</ele><time>2026-04-12T07:49:08.97Z</time></trkpt><trkpt lat="40.5810567" lon="15.05444"><ele>34.0</ele><time>2026-04-12T07:49:09.97Z</time></trkpt><trkpt lat="40.58105" lon="15.0546517"><ele>34.0</ele><time>2026-04-12T07:49:10.97Z</time></trkpt><trkpt lat="40.581045" lon="15.0548633"><ele>34.0</ele><time>2026-04-12T07:49:11.97Z</time></trkpt><trkpt lat="40.5810383" lon="15.0550767"><ele>34.0</ele><time>2026-04-12T07:49:12.97Z</time></trkpt><trkpt lat="40.58103" lon="15.0552933"><ele>34.0</ele><time>2026-04-12T07:49:13.97Z</time></trkpt><trkpt lat="40.58102" lon="15.055505"><ele>34.0</ele><time>2026-04-12T07:49:14.97Z</time></trkpt><trkpt lat="40.5810033" lon="15.0557183"><ele>34.0</ele><time>2026-04-12T07:49:15.971Z</time></trkpt><trkpt lat="40.580995" lon="15.0559233"><ele>34.0</ele><time>2026-04-12T07:49:16.97Z</time></trkpt><trkpt lat="40.5809883" lon="15.0561133"><ele>34.0</ele><time>2026-04-12T07:49:17.97Z</time></trkpt><trkpt lat="40.5809883" lon="15.05628"><ele>34.0</ele><time>2026-04-12T07:49:18.97Z</time></trkpt><trkpt lat="40.5810083" lon="15.056425"><ele>34.0</ele><time>2026-04-12T07:49:19.97Z</time></trkpt><trkpt lat="40.5810483" lon="15.0565517"><ele>34.4</ele><time>2026-04-12T07:49:20.97Z</time></trkpt><trkpt lat="40.5811083" lon="15.05666"><ele>34.8</ele><time>2026-04-12T07:49:21.97Z</time></trkpt><trkpt lat="40.5811783" lon="15.0567583"><ele>35.2</ele><time>2026-04-12T07:49:22.97Z</time></trkpt><trkpt lat="40.58125" lon="15.0568617"><ele>35.6</ele><time>2026-04-12T07:49:23.97Z</time></trkpt><trkpt lat="40.581325" lon="15.05697"><ele>36.0</ele><time>2026-04-12T07:49:24.97Z</time></trkpt><trkpt lat="40.5814017" lon="15.0571017"><ele>37.0</ele><time>2026-04-12T07:49:25.97Z</time></trkpt><trkpt lat="40.58148" lon="15.0572383"><ele>38.0</ele><time>2026-04-12T07:49:26.97Z</time></trkpt><trkpt lat="40.5815717" lon="15.05738"><ele>39.0</ele><time>2026-04-12T07:49:27.97Z</time></trkpt><trkpt lat="40.58167" lon="15.0575333"><ele>40.0</ele><time>2026-04-12T07:49:28.97Z</time></trkpt><trkpt lat="40.58177" lon="15.0577017"><ele>40.0</ele><time>2026-04-12T07:49:29.97Z</time></trkpt><trkpt lat="40.581865" lon="15.0578533"><ele>40.0</ele><time>2026-04-12T07:49:30.97Z</time></trkpt><trkpt lat="40.5819583" lon="15.0579983"><ele>40.0</ele><time>2026-04-12T07:49:31.97Z</time></trkpt><trkpt lat="40.58205" lon="15.0581467"><ele>40.0</ele><time>2026-04-12T07:49:32.97Z</time></trkpt><trkpt lat="40.582145" lon="15.0583017"><ele>40.333333333333336</ele><time>2026-04-12T07:49:33.97Z</time></trkpt><trkpt lat="40.58224" lon="15.058455"><ele>40.666666666666664</ele><time>2026-04-12T07:49:34.97Z</time></trkpt><trkpt lat="40.5823367" lon="15.0586133"><ele>41.0</ele><time>2026-04-12T07:49:35.97Z</time></trkpt><trkpt lat="40.5824367" lon="15.0587767"><ele>41.0</ele><time>2026-04-12T07:49:36.97Z</time></trkpt><trkpt lat="40.5825417" lon="15.0589433"><ele>41.0</ele><time>2026-04-12T07:49:37.97Z</time></trkpt><trkpt lat="40.5826517" lon="15.05911"><ele>41.0</ele><time>2026-04-12T07:49:38.97Z</time></trkpt><trkpt lat="40.5827517" lon="15.0592667"><ele>41.0</ele><time>2026-04-12T07:49:39.97Z</time></trkpt><trkpt lat="40.5828433" lon="15.0594233"><ele>41.0</ele><time>2026-04-12T07:49:40.97Z</time></trkpt><trkpt lat="40.5829317" lon="15.05957"><ele>41.0</ele><time>2026-04-12T07:49:41.97Z</time></trkpt><trkpt lat="40.58302" lon="15.0597183"><ele>41.0</ele><time>2026-04-12T07:49:42.97Z</time></trkpt><trkpt lat="40.5831133" lon="15.05987"><ele>42.0</ele><time>2026-04-12T07:49:43.97Z</time></trkpt><trkpt lat="40.5832183" lon="15.0600267"><ele>43.0</ele><time>2026-04-12T07:49:44.97Z</time></trkpt><trkpt lat="40.5833333" lon="15.060195"><ele>44.0</ele><time>2026-04-12T07:49:45.97Z</time></trkpt><trkpt lat="40.5834567" lon="15.060375"><ele>44.0</ele><time>2026-04-12T07:49:46.97Z</time></trkpt><trkpt lat="40.583575" lon="15.0605767"><ele>44.0</ele><time>2026-04-12T07:49:47.97Z</time></trkpt><trkpt lat="40.5836967" lon="15.0607917"><ele>44.0</ele><time>2026-04-12T07:49:48.97Z</time></trkpt><trkpt lat="40.5838183" lon="15.0610117"><ele>44.666666666666664</ele><time>2026-04-12T07:49:49.97Z</time></trkpt><trkpt lat="40.58395" lon="15.0612233"><ele>45.333333333333336</ele><time>2026-04-12T07:49:50.97Z</time></trkpt><trkpt lat="40.5840783" lon="15.0614333"><ele>46.0</ele><time>2026-04-12T07:49:51.97Z</time></trkpt><trkpt lat="40.5841983" lon="15.0616267"><ele>46.66666666666667</ele><time>2026-04-12T07:49:52.97Z</time></trkpt><trkpt lat="40.5843083" lon="15.06181"><ele>47.333333333333336</ele><time>2026-04-12T07:49:53.97Z</time></trkpt><trkpt lat="40.5844183" lon="15.0619817"><ele>48.0</ele><time>2026-04-12T07:49:54.97Z</time></trkpt><trkpt lat="40.584515" lon="15.0621417"><ele>48.0</ele><time>2026-04-12T07:49:55.97Z</time></trkpt><trkpt lat="40.584595" lon="15.06228"><ele>48.0</ele><time>2026-04-12T07:49:56.97Z</time></trkpt><trkpt lat="40.584665" lon="15.062385"><ele>48.0</ele><time>2026-04-12T07:49:57.97Z</time></trkpt><trkpt lat="40.58473" lon="15.062465"><ele>48.0</ele><time>2026-04-12T07:49:58.97Z</time></trkpt><trkpt lat="40.5848067" lon="15.0625217"><ele>48.0</ele><time>2026-04-12T07:49:59.97Z</time></trkpt><trkpt lat="40.5849" lon="15.0625617"><ele>48.25</ele><time>2026-04-12T07:50:00.97Z</time></trkpt><trkpt lat="40.58501" lon="15.06258"><ele>48.5</ele><time>2026-04-12T07:50:01.97Z</time></trkpt><trkpt lat="40.5851317" lon="15.06258"><ele>48.75</ele><time>2026-04-12T07:50:02.97Z</time></trkpt><trkpt lat="40.585255" lon="15.0625783"><ele>49.0</ele><time>2026-04-12T07:50:03.97Z</time></trkpt><trkpt lat="40.585365" lon="15.0625867"><ele>48.5</ele><time>2026-04-12T07:50:04.97Z</time></trkpt><trkpt lat="40.5854733" lon="15.0626033"><ele>48.0</ele><time>2026-04-12T07:50:05.97Z</time></trkpt><trkpt lat="40.5855883" lon="15.062635"><ele>47.5</ele><time>2026-04-12T07:50:06.97Z</time></trkpt><trkpt lat="40.5857033" lon="15.0626967"><ele>47.0</ele><time>2026-04-12T07:50:07.97Z</time></trkpt><trkpt lat="40.5858233" lon="15.0627867"><ele>47.0</ele><time>2026-04-12T07:50:08.97Z</time></trkpt><trkpt lat="40.585955" lon="15.0629033"><ele>47.0</ele><time>2026-04-12T07:50:09.97Z</time></trkpt><trkpt lat="40.5860967" lon="15.0630533"><ele>47.0</ele><time>2026-04-12T07:50:10.97Z</time></trkpt><trkpt lat="40.5862417" lon="15.0632183"><ele>47.0</ele><time>2026-04-12T07:50:11.97Z</time></trkpt><trkpt lat="40.5863883" lon="15.063385"><ele>47.0</ele><time>2026-04-12T07:50:12.97Z</time></trkpt><trkpt lat="40.5865367" lon="15.0635417"><ele>47.0</ele><time>2026-04-12T07:50:13.97Z</time></trkpt><trkpt lat="40.5866783" lon="15.06369"><ele>47.0</ele><time>2026-04-12T07:50:14.97Z</time></trkpt><trkpt lat="40.5868167" lon="15.06384"><ele>47.0</ele><time>2026-04-12T07:50:15.97Z</time></trkpt><trkpt lat="40.5869567" lon="15.063985"><ele>47.0</ele><time>2026-04-12T07:50:16.97Z</time></trkpt><trkpt lat="40.5871" lon="15.0641317"><ele>47.0</ele><time>2026-04-12T07:50:17.97Z</time></trkpt><trkpt lat="40.5872467" lon="15.064275"><ele>47.0</ele><time>2026-04-12T07:50:18.97Z</time></trkpt><trkpt lat="40.587385" lon="15.0644333"><ele>47.0</ele><time>2026-04-12T07:50:19.97Z</time></trkpt><trkpt lat="40.5875333" lon="15.0645867"><ele>47.0</ele><time>2026-04-12T07:50:20.97Z</time></trkpt><trkpt lat="40.5876833" lon="15.064745"><ele>47.0</ele><time>2026-04-12T07:50:21.97Z</time></trkpt><trkpt lat="40.5878367" lon="15.0649"><ele>47.0</ele><time>2026-04-12T07:50:22.97Z</time></trkpt><trkpt lat="40.5879833" lon="15.0650567"><ele>47.33333333333333</ele><time>2026-04-12T07:50:23.97Z</time></trkpt><trkpt lat="40.588135" lon="15.065215"><ele>47.666666666666664</ele><time>2026-04-12T07:50:24.97Z</time></trkpt><trkpt lat="40.5882867" lon="15.0653717"><ele>48.0</ele><time>2026-04-12T07:50:25.97Z</time></trkpt><trkpt lat="40.5884333" lon="15.0655283"><ele>48.0</ele><time>2026-04-12T07:50:26.97Z</time></trkpt><trkpt lat="40.5885733" lon="15.0656717"><ele>48.0</ele><time>2026-04-12T07:50:27.97Z</time></trkpt><trkpt lat="40.588705" lon="15.065805"><ele>48.0</ele><time>2026-04-12T07:50:28.97Z</time></trkpt><trkpt lat="40.5888383" lon="15.0659283"><ele>48.33333333333333</ele><time>2026-04-12T07:50:29.97Z</time></trkpt><trkpt lat="40.58897" lon="15.0660517"><ele>48.666666666666664</ele><time>2026-04-12T07:50:30.97Z</time></trkpt><trkpt lat="40.5891117" lon="15.066175"><ele>49.0</ele><time>2026-04-12T07:50:31.97Z</time></trkpt><trkpt lat="40.5892517" lon="15.0662967"><ele>49.0</ele><time>2026-04-12T07:50:32.97Z</time></trkpt><trkpt lat="40.589395" lon="15.0664183"><ele>49.0</ele><time>2026-04-12T07:50:33.97Z</time></trkpt><trkpt lat="40.5895383" lon="15.0665367"><ele>49.0</ele><time>2026-04-12T07:50:34.97Z</time></trkpt><trkpt lat="40.58968" lon="15.066655"><ele>49.33333333333333</ele><time>2026-04-12T07:50:35.971Z</time></trkpt><trkpt lat="40.5898183" lon="15.0667667"><ele>49.66666666666667</ele><time>2026-04-12T07:50:36.97Z</time></trkpt><trkpt lat="40.58995" lon="15.066875"><ele>50.0</ele><time>2026-04-12T07:50:37.97Z</time></trkpt><trkpt lat="40.590075" lon="15.06699"><ele>50.0</ele><time>2026-04-12T07:50:38.97Z</time></trkpt><trkpt lat="40.5901833" lon="15.0671333"><ele>50.0</ele><time>2026-04-12T07:50:39.97Z</time></trkpt><trkpt lat="40.59028" lon="15.06731"><ele>50.0</ele><time>2026-04-12T07:50:40.97Z</time></trkpt><trkpt lat="40.5903733" lon="15.0675033"><ele>50.0</ele><time>2026-04-12T07:50:41.97Z</time></trkpt><trkpt lat="40.5904783" lon="15.0676983"><ele>50.0</ele><time>2026-04-12T07:50:42.97Z</time></trkpt><trkpt lat="40.5905967" lon="15.0678783"><ele>50.0</ele><time>2026-04-12T07:50:43.97Z</time></trkpt><trkpt lat="40.590715" lon="15.0680583"><ele>50.0</ele><time>2026-04-12T07:50:44.97Z</time></trkpt><trkpt lat="40.59083" lon="15.0682417"><ele>50.0</ele><time>2026-04-12T07:50:45.97Z</time></trkpt><trkpt lat="40.5909333" lon="15.06844"><ele>50.0</ele><time>2026-04-12T07:50:46.97Z</time></trkpt><trkpt lat="40.5910267" lon="15.068655"><ele>50.333333333333336</ele><time>2026-04-12T07:50:47.97Z</time></trkpt><trkpt lat="40.5911183" lon="15.06887"><ele>50.66666666666667</ele><time>2026-04-12T07:50:48.97Z</time></trkpt><trkpt lat="40.5911933" lon="15.0690983"><ele>51.0</ele><time>2026-04-12T07:50:49.97Z</time></trkpt><trkpt lat="40.5912517" lon="15.0693333"><ele>51.0</ele><time>2026-04-12T07:50:50.97Z</time></trkpt><trkpt lat="40.5913" lon="15.069565"><ele>51.0</ele><time>2026-04-12T07:50:51.971Z</time></trkpt><trkpt lat="40.5913567" lon="15.0697867"><ele>51.0</ele><time>2026-04-12T07:50:52.97Z</time></trkpt><trkpt lat="40.5914233" lon="15.0699967"><ele>51.0</ele><time>2026-04-12T07:50:53.97Z</time></trkpt><trkpt lat="40.5915033" lon="15.0701867"><ele>51.0</ele><time>2026-04-12T07:50:54.97Z</time></trkpt><trkpt lat="40.591595" lon="15.07037"><ele>51.0</ele><time>2026-04-12T07:50:55.97Z</time></trkpt><trkpt lat="40.5917017" lon="15.0705433"><ele>51.0</ele><time>2026-04-12T07:50:56.971Z</time></trkpt><trkpt lat="40.591815" lon="15.0707133"><ele>51.0</ele><time>2026-04-12T07:50:57.97Z</time></trkpt><trkpt lat="40.5919417" lon="15.070875"><ele>51.0</ele><time>2026-04-12T07:50:58.97Z</time></trkpt><trkpt lat="40.59207" lon="15.0710317"><ele>50.66666666666667</ele><time>2026-04-12T07:50:59.97Z</time></trkpt><trkpt lat="40.5922017" lon="15.071185"><ele>50.333333333333336</ele><time>2026-04-12T07:51:00.97Z</time></trkpt><trkpt lat="40.5923283" lon="15.0713583"><ele>50.0</ele><time>2026-04-12T07:51:01.97Z</time></trkpt><trkpt lat="40.592445" lon="15.07154"><ele>51.0</ele><time>2026-04-12T07:51:02.97Z</time></trkpt><trkpt lat="40.5925567" lon="15.0717217"><ele>52.0</ele><time>2026-04-12T07:51:03.97Z</time></trkpt><trkpt lat="40.5926683" lon="15.07191"><ele>53.0</ele><time>2026-04-12T07:51:04.97Z</time></trkpt><trkpt lat="40.5927683" lon="15.0721033"><ele>52.66666666666667</ele><time>2026-04-12T07:51:05.97Z</time></trkpt><trkpt lat="40.5928783" lon="15.072285"><ele>52.33333333333333</ele><time>2026-04-12T07:51:06.97Z</time></trkpt><trkpt lat="40.5930133" lon="15.0724517"><ele>52.0</ele><time>2026-04-12T07:51:07.97Z</time></trkpt><trkpt lat="40.593155" lon="15.0726167"><ele>52.666666666666664</ele><time>2026-04-12T07:51:08.97Z</time></trkpt><trkpt lat="40.5932983" lon="15.07278"><ele>53.33333333333333</ele><time>2026-04-12T07:51:09.97Z</time></trkpt><trkpt lat="40.5934467" lon="15.0729383"><ele>54.0</ele><time>2026-04-12T07:51:10.97Z</time></trkpt><trkpt lat="40.5935933" lon="15.073095"><ele>54.33333333333333</ele><time>2026-04-12T07:51:11.97Z</time></trkpt><trkpt lat="40.59374" lon="15.0732633"><ele>54.666666666666664</ele><time>2026-04-12T07:51:12.97Z</time></trkpt><trkpt lat="40.593885" lon="15.07343"><ele>55.0</ele><time>2026-04-12T07:51:13.97Z</time></trkpt><trkpt lat="40.594035" lon="15.073595"><ele>55.33333333333333</ele><time>2026-04-12T07:51:14.97Z</time></trkpt><trkpt lat="40.59418" lon="15.0737633"><ele>55.66666666666667</ele><time>2026-04-12T07:51:15.97Z</time></trkpt><trkpt lat="40.5943283" lon="15.0739317"><ele>56.0</ele><time>2026-04-12T07:51:16.97Z</time></trkpt><trkpt lat="40.5944783" lon="15.07409"><ele>56.0</ele><time>2026-04-12T07:51:17.97Z</time></trkpt><trkpt lat="40.5946283" lon="15.0742583"><ele>56.0</ele><time>2026-04-12T07:51:18.97Z</time></trkpt><trkpt lat="40.59478" lon="15.0744367"><ele>56.0</ele><time>2026-04-12T07:51:19.97Z</time></trkpt><trkpt lat="40.5949317" lon="15.074605"><ele>56.0</ele><time>2026-04-12T07:51:20.97Z</time></trkpt><trkpt lat="40.595085" lon="15.074775"><ele>56.0</ele><time>2026-04-12T07:51:21.971Z</time></trkpt><trkpt lat="40.5952317" lon="15.0749433"><ele>56.0</ele><time>2026-04-12T07:51:22.97Z</time></trkpt><trkpt lat="40.5953867" lon="15.0751117"><ele>57.0</ele><time>2026-04-12T07:51:23.97Z</time></trkpt><trkpt lat="40.5955433" lon="15.075275"><ele>58.0</ele><time>2026-04-12T07:51:24.97Z</time></trkpt><trkpt lat="40.5957" lon="15.0754483"><ele>59.0</ele><time>2026-04-12T07:51:25.97Z</time></trkpt><trkpt lat="40.595855" lon="15.0756317"><ele>59.333333333333336</ele><time>2026-04-12T07:51:26.97Z</time></trkpt><trkpt lat="40.5960133" lon="15.0758117"><ele>59.66666666666667</ele><time>2026-04-12T07:51:27.97Z</time></trkpt><trkpt lat="40.5961617" lon="15.0759917"><ele>60.0</ele><time>2026-04-12T07:51:28.97Z</time></trkpt><trkpt lat="40.5963083" lon="15.0761717"><ele>60.0</ele><time>2026-04-12T07:51:29.97Z</time></trkpt><trkpt lat="40.596455" lon="15.0763583"><ele>60.0</ele><time>2026-04-12T07:51:30.97Z</time></trkpt><trkpt lat="40.5966033" lon="15.076545"><ele>60.0</ele><time>2026-04-12T07:51:31.97Z</time></trkpt><trkpt lat="40.5967483" lon="15.0767333"><ele>60.0</ele><time>2026-04-12T07:51:32.97Z</time></trkpt><trkpt lat="40.5968933" lon="15.0769133"><ele>60.0</ele><time>2026-04-12T07:51:33.97Z</time></trkpt><trkpt lat="40.5970417" lon="15.0770917"><ele>60.0</ele><time>2026-04-12T07:51:34.97Z</time></trkpt><trkpt lat="40.5971883" lon="15.07727"><ele>61.33333333333333</ele><time>2026-04-12T07:51:35.97Z</time></trkpt><trkpt lat="40.5973317" lon="15.0774467"><ele>62.666666666666664</ele><time>2026-04-12T07:51:36.97Z</time></trkpt><trkpt lat="40.5974733" lon="15.0776283"><ele>64.0</ele><time>2026-04-12T07:51:37.97Z</time></trkpt><trkpt lat="40.597615" lon="15.0778"><ele>64.0</ele><time>2026-04-12T07:51:38.97Z</time></trkpt><trkpt lat="40.5977567" lon="15.07797"><ele>64.0</ele><time>2026-04-12T07:51:39.97Z</time></trkpt><trkpt lat="40.5979033" lon="15.0781383"><ele>64.0</ele><time>2026-04-12T07:51:40.97Z</time></trkpt><trkpt lat="40.5980533" lon="15.0782867"><ele>64.33333333333333</ele><time>2026-04-12T07:51:41.97Z</time></trkpt><trkpt lat="40.5982133" lon="15.0784333"><ele>64.66666666666667</ele><time>2026-04-12T07:51:42.971Z</time></trkpt><trkpt lat="40.5983717" lon="15.078575"><ele>65.0</ele><time>2026-04-12T07:51:43.97Z</time></trkpt><trkpt lat="40.598525" lon="15.078725"><ele>65.66666666666667</ele><time>2026-04-12T07:51:44.97Z</time></trkpt><trkpt lat="40.598675" lon="15.0788917"><ele>66.33333333333333</ele><time>2026-04-12T07:51:45.97Z</time></trkpt><trkpt lat="40.5988217" lon="15.0790617"><ele>67.0</ele><time>2026-04-12T07:51:46.97Z</time></trkpt><trkpt lat="40.5989617" lon="15.079245"><ele>67.0</ele><time>2026-04-12T07:51:47.97Z</time></trkpt><trkpt lat="40.59909" lon="15.0794467"><ele>67.0</ele><time>2026-04-12T07:51:48.97Z</time></trkpt><trkpt lat="40.59921" lon="15.07966"><ele>67.0</ele><time>2026-04-12T07:51:49.97Z</time></trkpt><trkpt lat="40.5993183" lon="15.07988"><ele>66.66666666666666</ele><time>2026-04-12T07:51:50.97Z</time></trkpt><trkpt lat="40.599425" lon="15.080105"><ele>66.33333333333333</ele><time>2026-04-12T07:51:51.971Z</time></trkpt><trkpt lat="40.59953" lon="15.08033"><ele>66.0</ele><time>2026-04-12T07:51:52.97Z</time></trkpt><trkpt lat="40.599635" lon="15.08056"><ele>66.33333333333333</ele><time>2026-04-12T07:51:53.97Z</time></trkpt><trkpt lat="40.599735" lon="15.08079"><ele>66.66666666666666</ele><time>2026-04-12T07:51:54.97Z</time></trkpt><trkpt lat="40.59984" lon="15.0810167"><ele>67.0</ele><time>2026-04-12T07:51:55.97Z</time></trkpt><trkpt lat="40.59994" lon="15.0812383"><ele>67.0</ele><time>2026-04-12T07:51:56.97Z</time></trkpt><trkpt lat="40.6000433" lon="15.0814567"><ele>67.0</ele><time>2026-04-12T07:51:57.97Z</time></trkpt><trkpt lat="40.600145" lon="15.081675"><ele>67.0</ele><time>2026-04-12T07:51:58.97Z</time></trkpt><trkpt lat="40.600245" lon="15.08189"><ele>67.33333333333333</ele><time>2026-04-12T07:51:59.97Z</time></trkpt><trkpt lat="40.6003383" lon="15.082105"><ele>67.66666666666667</ele><time>2026-04-12T07:52:00.97Z</time></trkpt><trkpt lat="40.60043" lon="15.0823133"><ele>68.0</ele><time>2026-04-12T07:52:01.97Z</time></trkpt><trkpt lat="40.60052" lon="15.0825217"><ele>68.66666666666667</ele><time>2026-04-12T07:52:02.97Z</time></trkpt><trkpt lat="40.6006083" lon="15.0827283"><ele>69.33333333333333</ele><time>2026-04-12T07:52:03.97Z</time></trkpt><trkpt lat="40.6006983" lon="15.08293"><ele>70.0</ele><time>2026-04-12T07:52:04.97Z</time></trkpt><trkpt lat="40.6007867" lon="15.0831183"><ele>70.33333333333333</ele><time>2026-04-12T07:52:05.97Z</time></trkpt><trkpt lat="40.600875" lon="15.083305"><ele>70.66666666666667</ele><time>2026-04-12T07:52:06.97Z</time></trkpt><trkpt lat="40.6009633" lon="15.08349"><ele>71.0</ele><time>2026-04-12T07:52:07.97Z</time></trkpt><trkpt lat="40.6010533" lon="15.0836667"><ele>71.0</ele><time>2026-04-12T07:52:08.97Z</time></trkpt><trkpt lat="40.6011483" lon="15.0838467"><ele>71.0</ele><time>2026-04-12T07:52:09.97Z</time></trkpt><trkpt lat="40.6012317" lon="15.0840217"><ele>71.0</ele><time>2026-04-12T07:52:10.971Z</time></trkpt><trkpt lat="40.60131" lon="15.08418"><ele>72.5</ele><time>2026-04-12T07:52:11.97Z</time></trkpt><trkpt lat="40.601385" lon="15.0843283"><ele>74.0</ele><time>2026-04-12T07:52:12.97Z</time></trkpt><trkpt lat="40.601465" lon="15.0844683"><ele>75.5</ele><time>2026-04-12T07:52:13.97Z</time></trkpt><trkpt lat="40.60154" lon="15.0846017"><ele>77.0</ele><time>2026-04-12T07:52:14.97Z</time></trkpt><trkpt lat="40.6016083" lon="15.084725"><ele>77.0</ele><time>2026-04-12T07:52:15.97Z</time></trkpt><trkpt lat="40.6016717" lon="15.0848383"><ele>77.0</ele><time>2026-04-12T07:52:16.97Z</time></trkpt><trkpt lat="40.6017283" lon="15.0849467"><ele>77.0</ele><time>2026-04-12T07:52:17.97Z</time></trkpt><trkpt lat="40.601785" lon="15.0850417"><ele>77.0</ele><time>2026-04-12T07:52:18.97Z</time></trkpt><trkpt lat="40.601835" lon="15.085135"><ele>77.0</ele><time>2026-04-12T07:52:19.971Z</time></trkpt><trkpt lat="40.6018833" lon="15.0852183"><ele>76.66666666666667</ele><time>2026-04-12T07:52:20.97Z</time></trkpt><trkpt lat="40.6019183" lon="15.08529"><ele>76.33333333333334</ele><time>2026-04-12T07:52:21.97Z</time></trkpt><trkpt lat="40.6019933" lon="15.0853917"><ele>76.0</ele><time>2026-04-12T07:52:23.97Z</time></trkpt><trkpt lat="40.6020417" lon="15.0854583"><ele>75.66666666666667</ele><time>2026-04-12T07:52:24.97Z</time></trkpt><trkpt lat="40.60208" lon="15.085535"><ele>75.33333333333333</ele><time>2026-04-12T07:52:25.97Z</time></trkpt><trkpt lat="40.6021417" lon="15.0856567"><ele>75.0</ele><time>2026-04-12T07:52:27.971Z</time></trkpt><trkpt lat="40.6022183" lon="15.0857383"><ele>75.8</ele><time>2026-04-12T07:52:29.97Z</time></trkpt><trkpt lat="40.6022833" lon="15.0857967"><ele>76.6</ele><time>2026-04-12T07:52:30.97Z</time></trkpt><trkpt lat="40.6023733" lon="15.0858667"><ele>77.4</ele><time>2026-04-12T07:52:31.97Z</time></trkpt><trkpt lat="40.6024767" lon="15.08596"><ele>78.2</ele><time>2026-04-12T07:52:32.97Z</time></trkpt><trkpt lat="40.60259" lon="15.08606"><ele>79.0</ele><time>2026-04-12T07:52:33.97Z</time></trkpt><trkpt lat="40.6027067" lon="15.0861583"><ele>79.0</ele><time>2026-04-12T07:52:34.97Z</time></trkpt><trkpt lat="40.6028267" lon="15.086245"><ele>79.0</ele><time>2026-04-12T07:52:35.97Z</time></trkpt><trkpt lat="40.6029517" lon="15.0863233"><ele>79.0</ele><time>2026-04-12T07:52:36.97Z</time></trkpt><trkpt lat="40.6030767" lon="15.0864083"><ele>79.0</ele><time>2026-04-12T07:52:37.97Z</time></trkpt><trkpt lat="40.6031967" lon="15.0865"><ele>79.5</ele><time>2026-04-12T07:52:38.97Z</time></trkpt><trkpt lat="40.60331" lon="15.086585"><ele>80.0</ele><time>2026-04-12T07:52:39.97Z</time></trkpt><trkpt lat="40.603415" lon="15.08666"><ele>80.5</ele><time>2026-04-12T07:52:40.97Z</time></trkpt><trkpt lat="40.6035133" lon="15.0867333"><ele>81.0</ele><time>2026-04-12T07:52:41.97Z</time></trkpt><trkpt lat="40.6036083" lon="15.0868"><ele>81.6</ele><time>2026-04-12T07:52:42.97Z</time></trkpt><trkpt lat="40.6037" lon="15.0868633"><ele>82.19999999999999</ele><time>2026-04-12T07:52:43.97Z</time></trkpt><trkpt lat="40.60379" lon="15.0869317"><ele>82.80000000000001</ele><time>2026-04-12T07:52:44.97Z</time></trkpt><trkpt lat="40.603885" lon="15.0870017"><ele>83.4</ele><time>2026-04-12T07:52:45.971Z</time></trkpt><trkpt lat="40.60398" lon="15.08707"><ele>84.0</ele><time>2026-04-12T07:52:46.97Z</time></trkpt><trkpt lat="40.6040683" lon="15.087135"><ele>84.0</ele><time>2026-04-12T07:52:47.97Z</time></trkpt><trkpt lat="40.6041533" lon="15.0871933"><ele>84.0</ele><time>2026-04-12T07:52:48.97Z</time></trkpt><trkpt lat="40.60424" lon="15.0872483"><ele>84.0</ele><time>2026-04-12T07:52:49.97Z</time></trkpt><trkpt lat="40.604335" lon="15.0872917"><ele>84.0</ele><time>2026-04-12T07:52:50.97Z</time></trkpt><trkpt lat="40.604425" lon="15.087335"><ele>84.0</ele><time>2026-04-12T07:52:51.97Z</time></trkpt><trkpt lat="40.604515" lon="15.0873667"><ele>84.2</ele><time>2026-04-12T07:52:52.97Z</time></trkpt><trkpt lat="40.6046117" lon="15.087395"><ele>84.4</ele><time>2026-04-12T07:52:53.97Z</time></trkpt><trkpt lat="40.604715" lon="15.0874117"><ele>84.6</ele><time>2026-04-12T07:52:54.97Z</time></trkpt><trkpt lat="40.6048267" lon="15.0874283"><ele>84.8</ele><time>2026-04-12T07:52:55.97Z</time></trkpt><trkpt lat="40.6049383" lon="15.0874517"><ele>85.0</ele><time>2026-04-12T07:52:56.97Z</time></trkpt><trkpt lat="40.6050517" lon="15.08749"><ele>85.25</ele><time>2026-04-12T07:52:57.97Z</time></trkpt><trkpt lat="40.6051617" lon="15.0875383"><ele>85.5</ele><time>2026-04-12T07:52:58.97Z</time></trkpt><trkpt lat="40.6052717" lon="15.08762"><ele>85.75</ele><time>2026-04-12T07:52:59.97Z</time></trkpt><trkpt lat="40.605385" lon="15.087715"><ele>86.0</ele><time>2026-04-12T07:53:00.97Z</time></trkpt><trkpt lat="40.6055" lon="15.0878167"><ele>86.0</ele><time>2026-04-12T07:53:01.971Z</time></trkpt><trkpt lat="40.6056" lon="15.087915"><ele>86.0</ele><time>2026-04-12T07:53:02.97Z</time></trkpt><trkpt lat="40.6056917" lon="15.088005"><ele>86.0</ele><time>2026-04-12T07:53:03.97Z</time></trkpt><trkpt lat="40.605785" lon="15.0880967"><ele>86.0</ele><time>2026-04-12T07:53:04.97Z</time></trkpt><trkpt lat="40.6058883" lon="15.0881783"><ele>86.25</ele><time>2026-04-12T07:53:05.97Z</time></trkpt><trkpt lat="40.606" lon="15.0882683"><ele>86.5</ele><time>2026-04-12T07:53:06.97Z</time></trkpt><trkpt lat="40.606125" lon="15.0883533"><ele>86.75</ele><time>2026-04-12T07:53:07.97Z</time></trkpt><trkpt lat="40.6062517" lon="15.0884517"><ele>87.0</ele><time>2026-04-12T07:53:08.97Z</time></trkpt><trkpt lat="40.60637" lon="15.0885383"><ele>87.25</ele><time>2026-04-12T07:53:09.97Z</time></trkpt><trkpt lat="40.606475" lon="15.0886017"><ele>87.5</ele><time>2026-04-12T07:53:10.97Z</time></trkpt><trkpt lat="40.60658" lon="15.0886683"><ele>87.75</ele><time>2026-04-12T07:53:11.97Z</time></trkpt><trkpt lat="40.606685" lon="15.0887467"><ele>88.0</ele><time>2026-04-12T07:53:12.97Z</time></trkpt><trkpt lat="40.6067883" lon="15.0888217"><ele>88.0</ele><time>2026-04-12T07:53:13.97Z</time></trkpt><trkpt lat="40.6068983" lon="15.0888983"><ele>88.0</ele><time>2026-04-12T07:53:14.97Z</time></trkpt><trkpt lat="40.6070083" lon="15.0889733"><ele>88.0</ele><time>2026-04-12T07:53:15.97Z</time></trkpt><trkpt lat="40.6071133" lon="15.089035"><ele>88.0</ele><time>2026-04-12T07:53:16.97Z</time></trkpt><trkpt lat="40.6072133" lon="15.08909"><ele>88.80000000000001</ele><time>2026-04-12T07:53:17.97Z</time></trkpt><trkpt lat="40.607305" lon="15.0891333"><ele>89.6</ele><time>2026-04-12T07:53:18.97Z</time></trkpt><trkpt lat="40.607405" lon="15.0891633"><ele>90.4</ele><time>2026-04-12T07:53:19.97Z</time></trkpt><trkpt lat="40.6074983" lon="15.08919"><ele>91.19999999999999</ele><time>2026-04-12T07:53:20.97Z</time></trkpt><trkpt lat="40.6075917" lon="15.0892133"><ele>92.0</ele><time>2026-04-12T07:53:21.971Z</time></trkpt><trkpt lat="40.6076717" lon="15.08924"><ele>92.0</ele><time>2026-04-12T07:53:22.97Z</time></trkpt><trkpt lat="40.6077533" lon="15.089255"><ele>92.0</ele><time>2026-04-12T07:53:23.97Z</time></trkpt><trkpt lat="40.6078217" lon="15.08927"><ele>92.0</ele><time>2026-04-12T07:53:24.97Z</time></trkpt><trkpt lat="40.6079033" lon="15.0893233"><ele>92.0</ele><time>2026-04-12T07:53:26.971Z</time></trkpt><trkpt lat="40.6079317" lon="15.089425"><ele>92.0</ele><time>2026-04-12T07:53:30.97Z</time></trkpt><trkpt lat="40.6078983" lon="15.08955"><ele>92.0</ele><time>2026-04-12T07:53:32.97Z</time></trkpt><trkpt lat="40.60785" lon="15.0896717"><ele>92.0</ele><time>2026-04-12T07:53:34.97Z</time></trkpt><trkpt lat="40.6078167" lon="15.08977"><ele>92.0</ele><time>2026-04-12T07:53:36.97Z</time></trkpt><trkpt lat="40.6078117" lon="15.0898783"><ele>92.0</ele><time>2026-04-12T07:53:39.97Z</time></trkpt><trkpt lat="40.607875" lon="15.0899733"><ele>92.0</ele><time>2026-04-12T07:53:41.97Z</time></trkpt><trkpt lat="40.60798" lon="15.09006"><ele>92.0</ele><time>2026-04-12T07:53:43.97Z</time></trkpt><trkpt lat="40.608085" lon="15.0901383"><ele>92.8</ele><time>2026-04-12T07:53:45.97Z</time></trkpt><trkpt lat="40.6081833" lon="15.0902117"><ele>93.6</ele><time>2026-04-12T07:53:47.97Z</time></trkpt><trkpt lat="40.60828" lon="15.0902883"><ele>94.39999999999999</ele><time>2026-04-12T07:53:49.97Z</time></trkpt><trkpt lat="40.6083817" lon="15.0903517"><ele>95.19999999999999</ele><time>2026-04-12T07:53:51.97Z</time></trkpt><trkpt lat="40.6084517" lon="15.0904417"><ele>96.0</ele><time>2026-04-12T07:53:53.97Z</time></trkpt><trkpt lat="40.6084467" lon="15.09057"><ele>96.0</ele><time>2026-04-12T07:53:55.97Z</time></trkpt><trkpt lat="40.60837" lon="15.0907167"><ele>96.0</ele><time>2026-04-12T07:53:57.97Z</time></trkpt><trkpt lat="40.60831" lon="15.090815"><ele>96.0</ele><time>2026-04-12T07:53:58.97Z</time></trkpt><trkpt lat="40.6082367" lon="15.0909117"><ele>96.0</ele><time>2026-04-12T07:53:59.971Z</time></trkpt><trkpt lat="40.6081617" lon="15.0910017"><ele>96.0</ele><time>2026-04-12T07:54:00.97Z</time></trkpt><trkpt lat="40.6080983" lon="15.0910783"><ele>96.0</ele><time>2026-04-12T07:54:01.97Z</time></trkpt><trkpt lat="40.6080567" lon="15.09115"><ele>96.0</ele><time>2026-04-12T07:54:02.97Z</time></trkpt><trkpt lat="40.60799" lon="15.0912383"><ele>96.0</ele><time>2026-04-12T07:54:04.97Z</time></trkpt><trkpt lat="40.6079483" lon="15.0913033"><ele>96.0</ele><time>2026-04-12T07:54:06.97Z</time></trkpt><trkpt lat="40.6079267" lon="15.0913833"><ele>96.0</ele><time>2026-04-12T07:54:09.97Z</time></trkpt><trkpt lat="40.6078783" lon="15.09149"><ele>96.0</ele><time>2026-04-12T07:54:11.97Z</time></trkpt><trkpt lat="40.607835" lon="15.0915683"><ele>95.8</ele><time>2026-04-12T07:54:12.97Z</time></trkpt><trkpt lat="40.6077833" lon="15.0916617"><ele>95.6</ele><time>2026-04-12T07:54:13.97Z</time></trkpt><trkpt lat="40.6077317" lon="15.0917567"><ele>95.4</ele><time>2026-04-12T07:54:14.97Z</time></trkpt><trkpt lat="40.6076633" lon="15.091845"><ele>95.2</ele><time>2026-04-12T07:54:15.97Z</time></trkpt><trkpt lat="40.6076" lon="15.0919417"><ele>95.0</ele><time>2026-04-12T07:54:16.971Z</time></trkpt><trkpt lat="40.6075467" lon="15.0920417"><ele>95.0</ele><time>2026-04-12T07:54:17.97Z</time></trkpt><trkpt lat="40.6074867" lon="15.0921383"><ele>95.0</ele><time>2026-04-12T07:54:18.971Z</time></trkpt><trkpt lat="40.6074283" lon="15.0922433"><ele>95.0</ele><time>2026-04-12T07:54:19.971Z</time></trkpt><trkpt lat="40.6073783" lon="15.0923467"><ele>95.0</ele><time>2026-04-12T07:54:20.97Z</time></trkpt><trkpt lat="40.60733" lon="15.0924583"><ele>95.0</ele><time>2026-04-12T07:54:21.97Z</time></trkpt><trkpt lat="40.607285" lon="15.0925733"><ele>94.4</ele><time>2026-04-12T07:54:22.97Z</time></trkpt><trkpt lat="40.6072567" lon="15.0926917"><ele>93.8</ele><time>2026-04-12T07:54:23.97Z</time></trkpt><trkpt lat="40.60723" lon="15.092815"><ele>93.19999999999999</ele><time>2026-04-12T07:54:24.97Z</time></trkpt><trkpt lat="40.607195" lon="15.0929483"><ele>92.6</ele><time>2026-04-12T07:54:25.97Z</time></trkpt><trkpt lat="40.6071567" lon="15.0930783"><ele>92.0</ele><time>2026-04-12T07:54:26.97Z</time></trkpt><trkpt lat="40.6071217" lon="15.0932083"><ele>92.39999999999999</ele><time>2026-04-12T07:54:27.97Z</time></trkpt><trkpt lat="40.607095" lon="15.0933433"><ele>92.8</ele><time>2026-04-12T07:54:28.97Z</time></trkpt><trkpt lat="40.6070783" lon="15.0934817"><ele>93.2</ele><time>2026-04-12T07:54:29.971Z</time></trkpt><trkpt lat="40.607045" lon="15.0936133"><ele>93.6</ele><time>2026-04-12T07:54:30.97Z</time></trkpt><trkpt lat="40.6070217" lon="15.0937467"><ele>94.0</ele><time>2026-04-12T07:54:31.97Z</time></trkpt><trkpt lat="40.6069983" lon="15.0938767"><ele>93.80000000000001</ele><time>2026-04-12T07:54:32.97Z</time></trkpt><trkpt lat="40.6069783" lon="15.0940083"><ele>93.60000000000001</ele><time>2026-04-12T07:54:33.97Z</time></trkpt><trkpt lat="40.6069517" lon="15.09414"><ele>93.4</ele><time>2026-04-12T07:54:34.97Z</time></trkpt><trkpt lat="40.60692" lon="15.0942683"><ele>93.2</ele><time>2026-04-12T07:54:35.97Z</time></trkpt><trkpt lat="40.6068883" lon="15.0943933"><ele>93.0</ele><time>2026-04-12T07:54:36.97Z</time></trkpt><trkpt lat="40.6068617" lon="15.0945233"><ele>93.4</ele><time>2026-04-12T07:54:37.97Z</time></trkpt><trkpt lat="40.606845" lon="15.0946533"><ele>93.80000000000001</ele><time>2026-04-12T07:54:38.971Z</time></trkpt><trkpt lat="40.6068233" lon="15.0947867"><ele>94.2</ele><time>2026-04-12T07:54:39.97Z</time></trkpt><trkpt lat="40.6068017" lon="15.0949167"><ele>94.6</ele><time>2026-04-12T07:54:40.97Z</time></trkpt><trkpt lat="40.6067717" lon="15.095055"><ele>95.0</ele><time>2026-04-12T07:54:41.97Z</time></trkpt><trkpt lat="40.6067333" lon="15.0951883"><ele>95.0</ele><time>2026-04-12T07:54:42.97Z</time></trkpt><trkpt lat="40.6067067" lon="15.0953333"><ele>95.0</ele><time>2026-04-12T07:54:43.97Z</time></trkpt><trkpt lat="40.6066767" lon="15.0954817"><ele>95.0</ele><time>2026-04-12T07:54:44.97Z</time></trkpt><trkpt lat="40.60665" lon="15.0956333"><ele>95.0</ele><time>2026-04-12T07:54:45.97Z</time></trkpt><trkpt lat="40.6066183" lon="15.0957767"><ele>94.75</ele><time>2026-04-12T07:54:46.971Z</time></trkpt><trkpt lat="40.6065817" lon="15.095925"><ele>94.5</ele><time>2026-04-12T07:54:47.97Z</time></trkpt><trkpt lat="40.6065467" lon="15.0960783"><ele>94.25</ele><time>2026-04-12T07:54:48.97Z</time></trkpt><trkpt lat="40.6065167" lon="15.09623"><ele>94.0</ele><time>2026-04-12T07:54:49.97Z</time></trkpt><trkpt lat="40.606485" lon="15.096385"><ele>94.0</ele><time>2026-04-12T07:54:50.97Z</time></trkpt><trkpt lat="40.606455" lon="15.096535"><ele>94.0</ele><time>2026-04-12T07:54:51.97Z</time></trkpt><trkpt lat="40.606425" lon="15.0966867"><ele>94.0</ele><time>2026-04-12T07:54:52.97Z</time></trkpt><trkpt lat="40.6063833" lon="15.0968367"><ele>94.0</ele><time>2026-04-12T07:54:53.97Z</time></trkpt><trkpt lat="40.6063433" lon="15.0969883"><ele>94.0</ele><time>2026-04-12T07:54:54.97Z</time></trkpt><trkpt lat="40.60631" lon="15.0971433"><ele>94.0</ele><time>2026-04-12T07:54:55.97Z</time></trkpt><trkpt lat="40.6062783" lon="15.097295"><ele>94.0</ele><time>2026-04-12T07:54:56.971Z</time></trkpt><trkpt lat="40.6062467" lon="15.097445"><ele>94.0</ele><time>2026-04-12T07:54:57.97Z</time></trkpt><trkpt lat="40.6062167" lon="15.097595"><ele>94.0</ele><time>2026-04-12T07:54:58.97Z</time></trkpt><trkpt lat="40.6061883" lon="15.097745"><ele>94.0</ele><time>2026-04-12T07:54:59.97Z</time></trkpt><trkpt lat="40.6061633" lon="15.0978983"><ele>94.0</ele><time>2026-04-12T07:55:00.97Z</time></trkpt><trkpt lat="40.6061367" lon="15.0980517"><ele>94.0</ele><time>2026-04-12T07:55:01.971Z</time></trkpt><trkpt lat="40.6061067" lon="15.098205"><ele>94.25</ele><time>2026-04-12T07:55:02.97Z</time></trkpt><trkpt lat="40.6060733" lon="15.0983533"><ele>94.5</ele><time>2026-04-12T07:55:03.97Z</time></trkpt><trkpt lat="40.6060417" lon="15.0985067"><ele>94.75</ele><time>2026-04-12T07:55:04.97Z</time></trkpt><trkpt lat="40.6060233" lon="15.0986667"><ele>95.0</ele><time>2026-04-12T07:55:05.97Z</time></trkpt><trkpt lat="40.60601" lon="15.0988217"><ele>95.0</ele><time>2026-04-12T07:55:06.97Z</time></trkpt><trkpt lat="40.605995" lon="15.0989783"><ele>95.0</ele><time>2026-04-12T07:55:07.97Z</time></trkpt><trkpt lat="40.6059917" lon="15.0991433"><ele>95.0</ele><time>2026-04-12T07:55:08.97Z</time></trkpt><trkpt lat="40.6059783" lon="15.0993083"><ele>95.0</ele><time>2026-04-12T07:55:09.97Z</time></trkpt><trkpt lat="40.6059683" lon="15.099475"><ele>95.0</ele><time>2026-04-12T07:55:10.97Z</time></trkpt><trkpt lat="40.6059617" lon="15.099645"><ele>95.0</ele><time>2026-04-12T07:55:11.97Z</time></trkpt><trkpt lat="40.6059567" lon="15.0998133"><ele>95.0</ele><time>2026-04-12T07:55:12.97Z</time></trkpt><trkpt lat="40.6059567" lon="15.09999"><ele>95.0</ele><time>2026-04-12T07:55:13.97Z</time></trkpt><trkpt lat="40.6059567" lon="15.1001617"><ele>95.25</ele><time>2026-04-12T07:55:14.97Z</time></trkpt><trkpt lat="40.60596" lon="15.1003367"><ele>95.5</ele><time>2026-04-12T07:55:15.97Z</time></trkpt><trkpt lat="40.6059533" lon="15.1005"><ele>95.75</ele><time>2026-04-12T07:55:16.97Z</time></trkpt><trkpt lat="40.6059533" lon="15.100675"><ele>96.0</ele><time>2026-04-12T07:55:17.97Z</time></trkpt><trkpt lat="40.6059417" lon="15.1008467"><ele>95.5</ele><time>2026-04-12T07:55:18.97Z</time></trkpt><trkpt lat="40.6059283" lon="15.1010217"><ele>95.0</ele><time>2026-04-12T07:55:19.97Z</time></trkpt><trkpt lat="40.60591" lon="15.1011917"><ele>94.5</ele><time>2026-04-12T07:55:20.97Z</time></trkpt><trkpt lat="40.60589" lon="15.1013633"><ele>94.0</ele><time>2026-04-12T07:55:21.97Z</time></trkpt><trkpt lat="40.605865" lon="15.10153"><ele>94.0</ele><time>2026-04-12T07:55:22.971Z</time></trkpt><trkpt lat="40.60584" lon="15.10169"><ele>94.0</ele><time>2026-04-12T07:55:23.97Z</time></trkpt><trkpt lat="40.605815" lon="15.1018483"><ele>94.0</ele><time>2026-04-12T07:55:24.971Z</time></trkpt><trkpt lat="40.605795" lon="15.102005"><ele>94.0</ele><time>2026-04-12T07:55:25.97Z</time></trkpt><trkpt lat="40.6057767" lon="15.1021533"><ele>94.0</ele><time>2026-04-12T07:55:26.97Z</time></trkpt><trkpt lat="40.60577" lon="15.1022867"><ele>94.0</ele><time>2026-04-12T07:55:27.97Z</time></trkpt><trkpt lat="40.60576" lon="15.1023967"><ele>94.0</ele><time>2026-04-12T07:55:28.97Z</time></trkpt><trkpt lat="40.6057583" lon="15.1024817"><ele>94.0</ele><time>2026-04-12T07:55:29.97Z</time></trkpt><trkpt lat="40.6057483" lon="15.1025717"><ele>94.0</ele><time>2026-04-12T07:55:31.97Z</time></trkpt><trkpt lat="40.605725" lon="15.1026567"><ele>94.0</ele><time>2026-04-12T07:55:35.971Z</time></trkpt><trkpt lat="40.605705" lon="15.1027367"><ele>94.4</ele><time>2026-04-12T07:55:37.97Z</time></trkpt><trkpt lat="40.605675" lon="15.1028333"><ele>94.80000000000001</ele><time>2026-04-12T07:55:39.971Z</time></trkpt><trkpt lat="40.6056517" lon="15.1029217"><ele>95.19999999999999</ele><time>2026-04-12T07:55:49.97Z</time></trkpt><trkpt lat="40.6056167" lon="15.1031033"><ele>95.6</ele><time>2026-04-12T07:55:51.97Z</time></trkpt><trkpt lat="40.6055983" lon="15.10321"><ele>96.0</ele><time>2026-04-12T07:55:52.97Z</time></trkpt><trkpt lat="40.6055783" lon="15.1033333"><ele>96.4</ele><time>2026-04-12T07:55:53.97Z</time></trkpt><trkpt lat="40.6055467" lon="15.103455"><ele>96.8</ele><time>2026-04-12T07:55:54.97Z</time></trkpt><trkpt lat="40.60551" lon="15.1035867"><ele>97.2</ele><time>2026-04-12T07:55:55.97Z</time></trkpt><trkpt lat="40.605465" lon="15.1037233"><ele>97.60000000000001</ele><time>2026-04-12T07:55:56.97Z</time></trkpt><trkpt lat="40.605415" lon="15.103865"><ele>98.0</ele><time>2026-04-12T07:55:57.97Z</time></trkpt><trkpt lat="40.60536" lon="15.1040083"><ele>97.75</ele><time>2026-04-12T07:55:58.97Z</time></trkpt><trkpt lat="40.6052967" lon="15.104155"><ele>97.5</ele><time>2026-04-12T07:55:59.971Z</time></trkpt><trkpt lat="40.6052283" lon="15.1043"><ele>97.25</ele><time>2026-04-12T07:56:00.971Z</time></trkpt><trkpt lat="40.6051567" lon="15.1044533"><ele>97.0</ele><time>2026-04-12T07:56:01.97Z</time></trkpt><trkpt lat="40.60508" lon="15.1046083"><ele>97.0</ele><time>2026-04-12T07:56:02.97Z</time></trkpt><trkpt lat="40.6050033" lon="15.1047567"><ele>97.0</ele><time>2026-04-12T07:56:03.97Z</time></trkpt><trkpt lat="40.6049167" lon="15.1049017"><ele>97.0</ele><time>2026-04-12T07:56:04.97Z</time></trkpt><trkpt lat="40.604845" lon="15.105065"><ele>97.0</ele><time>2026-04-12T07:56:05.97Z</time></trkpt><trkpt lat="40.6047783" lon="15.10524"><ele>97.0</ele><time>2026-04-12T07:56:06.97Z</time></trkpt><trkpt lat="40.604715" lon="15.1054117"><ele>97.0</ele><time>2026-04-12T07:56:07.97Z</time></trkpt><trkpt lat="40.6046567" lon="15.10559"><ele>97.0</ele><time>2026-04-12T07:56:08.97Z</time></trkpt><trkpt lat="40.604595" lon="15.105765"><ele>97.0</ele><time>2026-04-12T07:56:09.97Z</time></trkpt><trkpt lat="40.6045317" lon="15.1059417"><ele>95.75</ele><time>2026-04-12T07:56:10.97Z</time></trkpt><trkpt lat="40.6044683" lon="15.10612"><ele>94.5</ele><time>2026-04-12T07:56:11.971Z</time></trkpt><trkpt lat="40.604405" lon="15.1062967"><ele>93.25</ele><time>2026-04-12T07:56:12.97Z</time></trkpt><trkpt lat="40.6043433" lon="15.1064783"><ele>92.0</ele><time>2026-04-12T07:56:13.97Z</time></trkpt><trkpt lat="40.6042783" lon="15.1066433"><ele>91.25</ele><time>2026-04-12T07:56:14.97Z</time></trkpt><trkpt lat="40.60421" lon="15.10681"><ele>90.5</ele><time>2026-04-12T07:56:15.97Z</time></trkpt><trkpt lat="40.6041433" lon="15.1069817"><ele>89.75</ele><time>2026-04-12T07:56:16.97Z</time></trkpt><trkpt lat="40.60408" lon="15.107155"><ele>89.0</ele><time>2026-04-12T07:56:17.97Z</time></trkpt><trkpt lat="40.6040117" lon="15.1073267"><ele>90.66666666666667</ele><time>2026-04-12T07:56:18.97Z</time></trkpt><trkpt lat="40.6039467" lon="15.1074983"><ele>92.33333333333333</ele><time>2026-04-12T07:56:19.97Z</time></trkpt><trkpt lat="40.603875" lon="15.1076783"><ele>94.0</ele><time>2026-04-12T07:56:20.97Z</time></trkpt><trkpt lat="40.6038033" lon="15.1078633"><ele>94.0</ele><time>2026-04-12T07:56:21.97Z</time></trkpt><trkpt lat="40.6037383" lon="15.1080333"><ele>94.0</ele><time>2026-04-12T07:56:22.97Z</time></trkpt><trkpt lat="40.6036817" lon="15.1082017"><ele>94.0</ele><time>2026-04-12T07:56:23.97Z</time></trkpt><trkpt lat="40.6036217" lon="15.1083667"><ele>94.0</ele><time>2026-04-12T07:56:24.97Z</time></trkpt><trkpt lat="40.6035617" lon="15.1085383"><ele>93.66666666666666</ele><time>2026-04-12T07:56:25.97Z</time></trkpt><trkpt lat="40.6034933" lon="15.1087217"><ele>93.33333333333333</ele><time>2026-04-12T07:56:26.97Z</time></trkpt><trkpt lat="40.6034183" lon="15.1089067"><ele>93.0</ele><time>2026-04-12T07:56:27.97Z</time></trkpt><trkpt lat="40.603335" lon="15.1090867"><ele>93.66666666666667</ele><time>2026-04-12T07:56:28.97Z</time></trkpt><trkpt lat="40.60325" lon="15.1092633"><ele>94.33333333333334</ele><time>2026-04-12T07:56:29.97Z</time></trkpt><trkpt lat="40.603145" lon="15.1094383"><ele>95.0</ele><time>2026-04-12T07:56:30.97Z</time></trkpt><trkpt lat="40.60302" lon="15.109605"><ele>95.0</ele><time>2026-04-12T07:56:31.97Z</time></trkpt><trkpt lat="40.6028867" lon="15.1097617"><ele>95.0</ele><time>2026-04-12T07:56:32.97Z</time></trkpt><trkpt lat="40.602745" lon="15.1099167"><ele>95.0</ele><time>2026-04-12T07:56:33.97Z</time></trkpt><trkpt lat="40.6025983" lon="15.11007"><ele>94.0</ele><time>2026-04-12T07:56:34.97Z</time></trkpt><trkpt lat="40.6024517" lon="15.110215"><ele>93.0</ele><time>2026-04-12T07:56:35.97Z</time></trkpt><trkpt lat="40.60231" lon="15.1103533"><ele>92.0</ele><time>2026-04-12T07:56:36.97Z</time></trkpt><trkpt lat="40.60217" lon="15.1104883"><ele>92.0</ele><time>2026-04-12T07:56:37.97Z</time></trkpt><trkpt lat="40.602035" lon="15.1106167"><ele>92.0</ele><time>2026-04-12T07:56:38.97Z</time></trkpt><trkpt lat="40.601905" lon="15.1107467"><ele>92.0</ele><time>2026-04-12T07:56:39.97Z</time></trkpt><trkpt lat="40.6017767" lon="15.110895"><ele>92.66666666666667</ele><time>2026-04-12T07:56:40.97Z</time></trkpt><trkpt lat="40.6016617" lon="15.1110517"><ele>93.33333333333333</ele><time>2026-04-12T07:56:41.97Z</time></trkpt><trkpt lat="40.6015267" lon="15.111195"><ele>94.0</ele><time>2026-04-12T07:56:42.97Z</time></trkpt><trkpt lat="40.6013883" lon="15.1113267"><ele>94.0</ele><time>2026-04-12T07:56:43.97Z</time></trkpt><trkpt lat="40.6012383" lon="15.1114367"><ele>94.0</ele><time>2026-04-12T07:56:44.97Z</time></trkpt><trkpt lat="40.60109" lon="15.11154"><ele>94.0</ele><time>2026-04-12T07:56:45.97Z</time></trkpt><trkpt lat="40.60095" lon="15.111645"><ele>92.33333333333333</ele><time>2026-04-12T07:56:46.97Z</time></trkpt><trkpt lat="40.6008083" lon="15.1117733"><ele>90.66666666666667</ele><time>2026-04-12T07:56:47.97Z</time></trkpt><trkpt lat="40.6006567" lon="15.1118983"><ele>89.0</ele><time>2026-04-12T07:56:48.97Z</time></trkpt><trkpt lat="40.60051" lon="15.1120467"><ele>89.0</ele><time>2026-04-12T07:56:49.97Z</time></trkpt><trkpt lat="40.60035" lon="15.1121867"><ele>89.0</ele><time>2026-04-12T07:56:50.97Z</time></trkpt><trkpt lat="40.600185" lon="15.1123167"><ele>89.0</ele><time>2026-04-12T07:56:51.97Z</time></trkpt><trkpt lat="40.6000217" lon="15.1124233"><ele>89.0</ele><time>2026-04-12T07:56:52.97Z</time></trkpt><trkpt lat="40.59987" lon="15.11251"><ele>89.0</ele><time>2026-04-12T07:56:53.97Z</time></trkpt><trkpt lat="40.599735" lon="15.11258"><ele>89.0</ele><time>2026-04-12T07:56:54.97Z</time></trkpt><trkpt lat="40.5996183" lon="15.1126467"><ele>89.0</ele><time>2026-04-12T07:56:55.97Z</time></trkpt><trkpt lat="40.5995167" lon="15.1127083"><ele>88.4</ele><time>2026-04-12T07:56:56.97Z</time></trkpt><trkpt lat="40.5994233" lon="15.1127783"><ele>87.80000000000001</ele><time>2026-04-12T07:56:57.97Z</time></trkpt><trkpt lat="40.5993267" lon="15.1128467"><ele>87.19999999999999</ele><time>2026-04-12T07:56:58.97Z</time></trkpt><trkpt lat="40.59923" lon="15.1129067"><ele>86.6</ele><time>2026-04-12T07:56:59.97Z</time></trkpt><trkpt lat="40.5991317" lon="15.11297"><ele>86.0</ele><time>2026-04-12T07:57:00.971Z</time></trkpt><trkpt lat="40.5990317" lon="15.11303"><ele>86.0</ele><time>2026-04-12T07:57:01.97Z</time></trkpt><trkpt lat="40.5989467" lon="15.113095"><ele>86.0</ele><time>2026-04-12T07:57:02.97Z</time></trkpt><trkpt lat="40.5988617" lon="15.113155"><ele>86.0</ele><time>2026-04-12T07:57:03.971Z</time></trkpt><trkpt lat="40.59878" lon="15.1132133"><ele>86.0</ele><time>2026-04-12T07:57:04.97Z</time></trkpt><trkpt lat="40.5987117" lon="15.113265"><ele>86.0</ele><time>2026-04-12T07:57:05.971Z</time></trkpt><trkpt lat="40.5986433" lon="15.1133333"><ele>85.33333333333334</ele><time>2026-04-12T07:57:06.97Z</time></trkpt><trkpt lat="40.5985867" lon="15.1134067"><ele>84.66666666666667</ele><time>2026-04-12T07:57:07.97Z</time></trkpt><trkpt lat="40.5985433" lon="15.1134767"><ele>84.0</ele><time>2026-04-12T07:57:08.969Z</time></trkpt><trkpt lat="40.598485" lon="15.11359"><ele>83.33333333333333</ele><time>2026-04-12T07:57:10.969Z</time></trkpt><trkpt lat="40.59844" lon="15.1136683"><ele>82.66666666666666</ele><time>2026-04-12T07:57:12.97Z</time></trkpt><trkpt lat="40.59839" lon="15.1137433"><ele>82.0</ele><time>2026-04-12T07:57:15.97Z</time></trkpt><trkpt lat="40.5983383" lon="15.1138767"><ele>82.0</ele><time>2026-04-12T07:57:17.969Z</time></trkpt><trkpt lat="40.5982817" lon="15.1140083"><ele>82.0</ele><time>2026-04-12T07:57:19.969Z</time></trkpt><trkpt lat="40.5982317" lon="15.1141117"><ele>82.0</ele><time>2026-04-12T07:57:21.969Z</time></trkpt><trkpt lat="40.59823" lon="15.1142"><ele>82.0</ele><time>2026-04-12T07:57:23.969Z</time></trkpt><trkpt lat="40.5982783" lon="15.1142567"><ele>82.0</ele><time>2026-04-12T07:57:25.969Z</time></trkpt><trkpt lat="40.5983767" lon="15.1142783"><ele>82.0</ele><time>2026-04-12T07:57:28.969Z</time></trkpt><trkpt lat="40.59848" lon="15.1142967"><ele>82.66666666666666</ele><time>2026-04-12T07:57:30.969Z</time></trkpt><trkpt lat="40.5985983" lon="15.1143067"><ele>83.33333333333333</ele><time>2026-04-12T07:57:32.969Z</time></trkpt><trkpt lat="40.5986667" lon="15.1143133"><ele>84.0</ele><time>2026-04-12T07:57:33.969Z</time></trkpt><trkpt lat="40.5987367" lon="15.1143233"><ele>84.66666666666667</ele><time>2026-04-12T07:57:34.969Z</time></trkpt><trkpt lat="40.598805" lon="15.1143317"><ele>85.33333333333334</ele><time>2026-04-12T07:57:35.969Z</time></trkpt><trkpt lat="40.59888" lon="15.11434"><ele>86.0</ele><time>2026-04-12T07:57:36.969Z</time></trkpt><trkpt lat="40.5989633" lon="15.1143483"><ele>86.66666666666667</ele><time>2026-04-12T07:57:37.969Z</time></trkpt><trkpt lat="40.599045" lon="15.1143583"><ele>87.33333333333334</ele><time>2026-04-12T07:57:38.969Z</time></trkpt><trkpt lat="40.5991317" lon="15.114355"><ele>88.0</ele><time>2026-04-12T07:57:39.969Z</time></trkpt><trkpt lat="40.5992183" lon="15.114365"><ele>88.66666666666667</ele><time>2026-04-12T07:57:40.969Z</time></trkpt><trkpt lat="40.59931" lon="15.1143667"><ele>89.33333333333333</ele><time>2026-04-12T07:57:41.969Z</time></trkpt><trkpt lat="40.5994067" lon="15.1143717"><ele>90.0</ele><time>2026-04-12T07:57:42.969Z</time></trkpt><trkpt lat="40.5995067" lon="15.1143767"><ele>90.8</ele><time>2026-04-12T07:57:43.969Z</time></trkpt><trkpt lat="40.5996017" lon="15.11438"><ele>91.6</ele><time>2026-04-12T07:57:44.969Z</time></trkpt><trkpt lat="40.5997017" lon="15.1143833"><ele>92.4</ele><time>2026-04-12T07:57:45.969Z</time></trkpt><trkpt lat="40.5997983" lon="15.1143983"><ele>93.2</ele><time>2026-04-12T07:57:46.969Z</time></trkpt><trkpt lat="40.5999117" lon="15.1143983"><ele>94.0</ele><time>2026-04-12T07:57:47.969Z</time></trkpt><trkpt lat="40.6000133" lon="15.11441"><ele>94.0</ele><time>2026-04-12T07:57:48.969Z</time></trkpt><trkpt lat="40.60012" lon="15.1144133"><ele>94.0</ele><time>2026-04-12T07:57:49.969Z</time></trkpt><trkpt lat="40.6002267" lon="15.11442"><ele>94.0</ele><time>2026-04-12T07:57:50.969Z</time></trkpt><trkpt lat="40.6003317" lon="15.1144233"><ele>94.0</ele><time>2026-04-12T07:57:51.969Z</time></trkpt><trkpt lat="40.600445" lon="15.1144283"><ele>94.0</ele><time>2026-04-12T07:57:52.97Z</time></trkpt><trkpt lat="40.6005517" lon="15.1144333"><ele>94.2</ele><time>2026-04-12T07:57:53.969Z</time></trkpt><trkpt lat="40.60066" lon="15.1144383"><ele>94.4</ele><time>2026-04-12T07:57:54.969Z</time></trkpt><trkpt lat="40.6007717" lon="15.1144483"><ele>94.6</ele><time>2026-04-12T07:57:55.969Z</time></trkpt><trkpt lat="40.6008817" lon="15.1144533"><ele>94.8</ele><time>2026-04-12T07:57:56.969Z</time></trkpt><trkpt lat="40.6009983" lon="15.11445"><ele>95.0</ele><time>2026-04-12T07:57:57.97Z</time></trkpt><trkpt lat="40.6011117" lon="15.1144583"><ele>95.4</ele><time>2026-04-12T07:57:58.969Z</time></trkpt><trkpt lat="40.6012217" lon="15.11447"><ele>95.8</ele><time>2026-04-12T07:57:59.969Z</time></trkpt><trkpt lat="40.60133" lon="15.1144817"><ele>96.19999999999999</ele><time>2026-04-12T07:58:00.969Z</time></trkpt><trkpt lat="40.60143" lon="15.1144933"><ele>96.6</ele><time>2026-04-12T07:58:01.969Z</time></trkpt><trkpt lat="40.60152" lon="15.1145033"><ele>97.0</ele><time>2026-04-12T07:58:02.969Z</time></trkpt><trkpt lat="40.6016067" lon="15.1145067"><ele>97.00000000000001</ele><time>2026-04-12T07:58:03.969Z</time></trkpt><trkpt lat="40.6016883" lon="15.1145117"><ele>97.0</ele><time>2026-04-12T07:58:04.969Z</time></trkpt><trkpt lat="40.6017667" lon="15.11452"><ele>97.0</ele><time>2026-04-12T07:58:05.969Z</time></trkpt><trkpt lat="40.6018433" lon="15.1145267"><ele>97.0</ele><time>2026-04-12T07:58:06.969Z</time></trkpt><trkpt lat="40.60192" lon="15.1145333"><ele>97.00000000000001</ele><time>2026-04-12T07:58:07.969Z</time></trkpt><trkpt lat="40.6019933" lon="15.1145417"><ele>97.0</ele><time>2026-04-12T07:58:08.969Z</time></trkpt><trkpt lat="40.6020667" lon="15.1145467"><ele>97.16666666666667</ele><time>2026-04-12T07:58:09.97Z</time></trkpt><trkpt lat="40.6021433" lon="15.11455"><ele>97.33333333333334</ele><time>2026-04-12T07:58:10.969Z</time></trkpt><trkpt lat="40.602215" lon="15.1145517"><ele>97.5</ele><time>2026-04-12T07:58:11.969Z</time></trkpt><trkpt lat="40.602285" lon="15.1145517"><ele>97.66666666666666</ele><time>2026-04-12T07:58:12.97Z</time></trkpt><trkpt lat="40.60236" lon="15.1145567"><ele>97.83333333333333</ele><time>2026-04-12T07:58:13.969Z</time></trkpt><trkpt lat="40.6024383" lon="15.1145667"><ele>98.0</ele><time>2026-04-12T07:58:14.969Z</time></trkpt><trkpt lat="40.6025183" lon="15.1145683"><ele>97.99999999999999</ele><time>2026-04-12T07:58:15.97Z</time></trkpt><trkpt lat="40.6025933" lon="15.114575"><ele>98.0</ele><time>2026-04-12T07:58:16.969Z</time></trkpt><trkpt lat="40.60267" lon="15.11458"><ele>98.0</ele><time>2026-04-12T07:58:17.969Z</time></trkpt><trkpt lat="40.602745" lon="15.1145867"><ele>98.0</ele><time>2026-04-12T07:58:18.969Z</time></trkpt><trkpt lat="40.60282" lon="15.114585"><ele>97.99999999999999</ele><time>2026-04-12T07:58:19.969Z</time></trkpt><trkpt lat="40.6029033" lon="15.114585"><ele>98.0</ele><time>2026-04-12T07:58:20.969Z</time></trkpt><trkpt lat="40.6029883" lon="15.1145867"><ele>98.16666666666666</ele><time>2026-04-12T07:58:21.969Z</time></trkpt><trkpt lat="40.6030667" lon="15.1145933"><ele>98.33333333333333</ele><time>2026-04-12T07:58:22.969Z</time></trkpt><trkpt lat="40.6031517" lon="15.1145983"><ele>98.5</ele><time>2026-04-12T07:58:23.969Z</time></trkpt><trkpt lat="40.60324" lon="15.1146083"><ele>98.66666666666666</ele><time>2026-04-12T07:58:24.969Z</time></trkpt><trkpt lat="40.603325" lon="15.1146117"><ele>98.83333333333333</ele><time>2026-04-12T07:58:25.969Z</time></trkpt><trkpt lat="40.6034133" lon="15.1146167"><ele>99.0</ele><time>2026-04-12T07:58:26.969Z</time></trkpt><trkpt lat="40.6035017" lon="15.1146133"><ele>99.0</ele><time>2026-04-12T07:58:27.969Z</time></trkpt><trkpt lat="40.6035883" lon="15.1146133"><ele>99.0</ele><time>2026-04-12T07:58:28.969Z</time></trkpt><trkpt lat="40.6036767" lon="15.114615"><ele>99.0</ele><time>2026-04-12T07:58:29.969Z</time></trkpt><trkpt lat="40.60376" lon="15.1146233"><ele>99.0</ele><time>2026-04-12T07:58:30.969Z</time></trkpt><trkpt lat="40.6038417" lon="15.1146333"><ele>99.0</ele><time>2026-04-12T07:58:31.969Z</time></trkpt><trkpt lat="40.603925" lon="15.1146467"><ele>99.0</ele><time>2026-04-12T07:58:32.969Z</time></trkpt><trkpt lat="40.6040133" lon="15.114655"><ele>99.66666666666667</ele><time>2026-04-12T07:58:33.969Z</time></trkpt><trkpt lat="40.6040933" lon="15.1146617"><ele>100.33333333333334</ele><time>2026-04-12T07:58:34.969Z</time></trkpt><trkpt lat="40.6041817" lon="15.1146717"><ele>101.0</ele><time>2026-04-12T07:58:35.97Z</time></trkpt><trkpt lat="40.6042617" lon="15.1146833"><ele>101.66666666666667</ele><time>2026-04-12T07:58:36.969Z</time></trkpt><trkpt lat="40.60434" lon="15.1146933"><ele>102.33333333333334</ele><time>2026-04-12T07:58:37.97Z</time></trkpt><trkpt lat="40.6044167" lon="15.114705"><ele>103.0</ele><time>2026-04-12T07:58:38.969Z</time></trkpt><trkpt lat="40.6044817" lon="15.114715"><ele>103.2</ele><time>2026-04-12T07:58:39.969Z</time></trkpt><trkpt lat="40.6045933" lon="15.1147283"><ele>103.4</ele><time>2026-04-12T07:58:41.969Z</time></trkpt><trkpt lat="40.60469" lon="15.1147367"><ele>103.60000000000001</ele><time>2026-04-12T07:58:43.969Z</time></trkpt><trkpt lat="40.6047617" lon="15.1147433"><ele>103.80000000000001</ele><time>2026-04-12T07:58:45.97Z</time></trkpt><trkpt lat="40.6048283" lon="15.11475"><ele>104.0</ele><time>2026-04-12T07:58:47.969Z</time></trkpt><trkpt lat="40.60493" lon="15.1147667"><ele>104.0</ele><time>2026-04-12T07:58:53.969Z</time></trkpt><trkpt lat="40.6050683" lon="15.114775"><ele>104.0</ele><time>2026-04-12T07:58:55.969Z</time></trkpt><trkpt lat="40.6051417" lon="15.1147767"><ele>104.0</ele><time>2026-04-12T07:58:56.969Z</time></trkpt><trkpt lat="40.6052267" lon="15.1147833"><ele>104.0</ele><time>2026-04-12T07:58:57.969Z</time></trkpt><trkpt lat="40.6053267" lon="15.11479"><ele>104.0</ele><time>2026-04-12T07:58:58.969Z</time></trkpt><trkpt lat="40.60543" lon="15.114795"><ele>104.0</ele><time>2026-04-12T07:58:59.969Z</time></trkpt><trkpt lat="40.605535" lon="15.1147983"><ele>104.0</ele><time>2026-04-12T07:59:00.969Z</time></trkpt><trkpt lat="40.6056417" lon="15.1148083"><ele>104.0</ele><time>2026-04-12T07:59:01.969Z</time></trkpt><trkpt lat="40.60575" lon="15.1148267"><ele>104.0</ele><time>2026-04-12T07:59:02.969Z</time></trkpt><trkpt lat="40.605855" lon="15.1148583"><ele>104.0</ele><time>2026-04-12T07:59:03.969Z</time></trkpt><trkpt lat="40.605955" lon="15.1149133"><ele>104.0</ele><time>2026-04-12T07:59:04.969Z</time></trkpt><trkpt lat="40.6060483" lon="15.1149817"><ele>104.0</ele><time>2026-04-12T07:59:05.969Z</time></trkpt><trkpt lat="40.6061483" lon="15.1150333"><ele>104.0</ele><time>2026-04-12T07:59:06.969Z</time></trkpt><trkpt lat="40.60626" lon="15.1150617"><ele>104.0</ele><time>2026-04-12T07:59:07.969Z</time></trkpt><trkpt lat="40.6063767" lon="15.1150683"><ele>104.0</ele><time>2026-04-12T07:59:08.969Z</time></trkpt><trkpt lat="40.6065033" lon="15.1150617"><ele>105.0</ele><time>2026-04-12T07:59:09.969Z</time></trkpt><trkpt lat="40.6066217" lon="15.1150483"><ele>106.0</ele><time>2026-04-12T07:59:10.97Z</time></trkpt><trkpt lat="40.6067467" lon="15.11503"><ele>107.0</ele><time>2026-04-12T07:59:11.969Z</time></trkpt><trkpt lat="40.6068683" lon="15.115015"><ele>108.0</ele><time>2026-04-12T07:59:12.969Z</time></trkpt><trkpt lat="40.6069833" lon="15.1149967"><ele>108.4</ele><time>2026-04-12T07:59:13.969Z</time></trkpt><trkpt lat="40.60709" lon="15.1149767"><ele>108.80000000000001</ele><time>2026-04-12T07:59:14.969Z</time></trkpt><trkpt lat="40.607195" lon="15.1149567"><ele>109.2</ele><time>2026-04-12T07:59:15.969Z</time></trkpt><trkpt lat="40.6072933" lon="15.1149433"><ele>109.6</ele><time>2026-04-12T07:59:16.969Z</time></trkpt><trkpt lat="40.6073933" lon="15.11493"><ele>110.0</ele><time>2026-04-12T07:59:17.969Z</time></trkpt><trkpt lat="40.6074967" lon="15.11492"><ele>110.2</ele><time>2026-04-12T07:59:18.969Z</time></trkpt><trkpt lat="40.607605" lon="15.1149017"><ele>110.4</ele><time>2026-04-12T07:59:19.969Z</time></trkpt><trkpt lat="40.6077117" lon="15.1148933"><ele>110.6</ele><time>2026-04-12T07:59:20.969Z</time></trkpt><trkpt lat="40.6078217" lon="15.1148867"><ele>110.8</ele><time>2026-04-12T07:59:21.969Z</time></trkpt><trkpt lat="40.6079183" lon="15.1148883"><ele>111.0</ele><time>2026-04-12T07:59:22.969Z</time></trkpt><trkpt lat="40.60801" lon="15.1149067"><ele>111.0</ele><time>2026-04-12T07:59:23.969Z</time></trkpt><trkpt lat="40.6081017" lon="15.1149183"><ele>111.0</ele><time>2026-04-12T07:59:24.969Z</time></trkpt><trkpt lat="40.6081983" lon="15.114935"><ele>111.0</ele><time>2026-04-12T07:59:25.969Z</time></trkpt><trkpt lat="40.60829" lon="15.114945"><ele>111.0</ele><time>2026-04-12T07:59:26.969Z</time></trkpt><trkpt lat="40.6083767" lon="15.1149633"><ele>111.0</ele><time>2026-04-12T07:59:27.969Z</time></trkpt><trkpt lat="40.6084417" lon="15.114985"><ele>111.0</ele><time>2026-04-12T07:59:28.969Z</time></trkpt><trkpt lat="40.6085233" lon="15.115005"><ele>111.0</ele><time>2026-04-12T07:59:30.969Z</time></trkpt><trkpt lat="40.6086117" lon="15.11502"><ele>111.0</ele><time>2026-04-12T07:59:40.969Z</time></trkpt><trkpt lat="40.60875" lon="15.11503"><ele>111.0</ele><time>2026-04-12T07:59:42.969Z</time></trkpt><trkpt lat="40.6088367" lon="15.1150317"><ele>111.0</ele><time>2026-04-12T07:59:43.969Z</time></trkpt><trkpt lat="40.6089317" lon="15.1150417"><ele>111.0</ele><time>2026-04-12T07:59:44.969Z</time></trkpt><trkpt lat="40.6090333" lon="15.115055"><ele>111.25</ele><time>2026-04-12T07:59:45.969Z</time></trkpt><trkpt lat="40.609135" lon="15.115065"><ele>111.5</ele><time>2026-04-12T07:59:46.969Z</time></trkpt><trkpt lat="40.6092467" lon="15.11507"><ele>111.75</ele><time>2026-04-12T07:59:47.969Z</time></trkpt><trkpt lat="40.609365" lon="15.1150783"><ele>112.0</ele><time>2026-04-12T07:59:48.969Z</time></trkpt><trkpt lat="40.6094883" lon="15.115095"><ele>112.25</ele><time>2026-04-12T07:59:49.969Z</time></trkpt><trkpt lat="40.6096117" lon="15.1151133"><ele>112.5</ele><time>2026-04-12T07:59:50.969Z</time></trkpt><trkpt lat="40.6097333" lon="15.1151417"><ele>112.75</ele><time>2026-04-12T07:59:51.969Z</time></trkpt><trkpt lat="40.6098633" lon="15.1151617"><ele>113.0</ele><time>2026-04-12T07:59:52.969Z</time></trkpt><trkpt lat="40.6099967" lon="15.1151733"><ele>113.0</ele><time>2026-04-12T07:59:53.969Z</time></trkpt><trkpt lat="40.610135" lon="15.1151783"><ele>113.0</ele><time>2026-04-12T07:59:54.969Z</time></trkpt><trkpt lat="40.6102733" lon="15.11519"><ele>113.0</ele><time>2026-04-12T07:59:55.969Z</time></trkpt><trkpt lat="40.6104083" lon="15.1152067"><ele>113.0</ele><time>2026-04-12T07:59:56.969Z</time></trkpt><trkpt lat="40.6105467" lon="15.1152167"><ele>114.25</ele><time>2026-04-12T07:59:57.969Z</time></trkpt><trkpt lat="40.610685" lon="15.1152317"><ele>115.5</ele><time>2026-04-12T07:59:58.969Z</time></trkpt><trkpt lat="40.6108233" lon="15.115245"><ele>116.75</ele><time>2026-04-12T07:59:59.97Z</time></trkpt><trkpt lat="40.6109567" lon="15.1152667"><ele>118.0</ele><time>2026-04-12T08:00:00.97Z</time></trkpt><trkpt lat="40.61109" lon="15.115285"><ele>118.0</ele><time>2026-04-12T08:00:01.969Z</time></trkpt><trkpt lat="40.6112233" lon="15.1153067"><ele>118.0</ele><time>2026-04-12T08:00:02.969Z</time></trkpt><trkpt lat="40.6113533" lon="15.11533"><ele>118.0</ele><time>2026-04-12T08:00:03.969Z</time></trkpt><trkpt lat="40.6114867" lon="15.1153533"><ele>118.0</ele><time>2026-04-12T08:00:04.969Z</time></trkpt><trkpt lat="40.6116017" lon="15.1153767"><ele>118.0</ele><time>2026-04-12T08:00:05.969Z</time></trkpt><trkpt lat="40.611705" lon="15.115395"><ele>118.00000000000001</ele><time>2026-04-12T08:00:06.97Z</time></trkpt><trkpt lat="40.6118117" lon="15.1154233"><ele>118.00000000000001</ele><time>2026-04-12T08:00:07.969Z</time></trkpt><trkpt lat="40.6119233" lon="15.1154367"><ele>118.0</ele><time>2026-04-12T08:00:08.969Z</time></trkpt><trkpt lat="40.61204" lon="15.11545"><ele>118.0</ele><time>2026-04-12T08:00:09.969Z</time></trkpt><trkpt lat="40.6121617" lon="15.1154783"><ele>118.25</ele><time>2026-04-12T08:00:10.969Z</time></trkpt><trkpt lat="40.6122933" lon="15.1155"><ele>118.5</ele><time>2026-04-12T08:00:11.97Z</time></trkpt><trkpt lat="40.6124317" lon="15.1155183"><ele>118.75</ele><time>2026-04-12T08:00:12.969Z</time></trkpt><trkpt lat="40.6125633" lon="15.115535"><ele>119.0</ele><time>2026-04-12T08:00:13.969Z</time></trkpt><trkpt lat="40.6126967" lon="15.1155583"><ele>119.5</ele><time>2026-04-12T08:00:14.969Z</time></trkpt><trkpt lat="40.612825" lon="15.1155833"><ele>120.0</ele><time>2026-04-12T08:00:15.969Z</time></trkpt><trkpt lat="40.6129517" lon="15.115605"><ele>120.5</ele><time>2026-04-12T08:00:16.969Z</time></trkpt><trkpt lat="40.6130883" lon="15.1156267"><ele>121.0</ele><time>2026-04-12T08:00:17.969Z</time></trkpt><trkpt lat="40.6132267" lon="15.1156567"><ele>121.0</ele><time>2026-04-12T08:00:18.969Z</time></trkpt><trkpt lat="40.6133683" lon="15.1156833"><ele>121.0</ele><time>2026-04-12T08:00:19.969Z</time></trkpt><trkpt lat="40.6134983" lon="15.1157017"><ele>121.0</ele><time>2026-04-12T08:00:20.969Z</time></trkpt><trkpt lat="40.61362" lon="15.115705"><ele>121.0</ele><time>2026-04-12T08:00:21.969Z</time></trkpt><trkpt lat="40.6137417" lon="15.115705"><ele>121.00000000000001</ele><time>2026-04-12T08:00:22.969Z</time></trkpt><trkpt lat="40.6138417" lon="15.11569"><ele>121.0</ele><time>2026-04-12T08:00:23.969Z</time></trkpt><trkpt lat="40.6139267" lon="15.1156783"><ele>121.0</ele><time>2026-04-12T08:00:24.969Z</time></trkpt><trkpt lat="40.6139967" lon="15.1156917"><ele>121.0</ele><time>2026-04-12T08:00:25.969Z</time></trkpt><trkpt lat="40.6140883" lon="15.1157683"><ele>121.00000000000001</ele><time>2026-04-12T08:00:27.969Z</time></trkpt><trkpt lat="40.614115" lon="15.1158617"><ele>121.0</ele><time>2026-04-12T08:00:28.969Z</time></trkpt><trkpt lat="40.6141383" lon="15.11598"><ele>121.0</ele><time>2026-04-12T08:00:29.969Z</time></trkpt><trkpt lat="40.6141717" lon="15.1161133"><ele>121.0</ele><time>2026-04-12T08:00:30.969Z</time></trkpt><trkpt lat="40.6142183" lon="15.116255"><ele>121.0</ele><time>2026-04-12T08:00:31.969Z</time></trkpt><trkpt lat="40.61427" lon="15.1164167"><ele>121.0</ele><time>2026-04-12T08:00:32.969Z</time></trkpt><trkpt lat="40.6143233" lon="15.1165917"><ele>121.0</ele><time>2026-04-12T08:00:33.969Z</time></trkpt><trkpt lat="40.6143917" lon="15.116755"><ele>121.0</ele><time>2026-04-12T08:00:34.969Z</time></trkpt><trkpt lat="40.6144583" lon="15.11692"><ele>121.0</ele><time>2026-04-12T08:00:35.969Z</time></trkpt><trkpt lat="40.6145233" lon="15.11708"><ele>121.0</ele><time>2026-04-12T08:00:36.969Z</time></trkpt><trkpt lat="40.61459" lon="15.1172417"><ele>121.0</ele><time>2026-04-12T08:00:37.969Z</time></trkpt><trkpt lat="40.6146517" lon="15.1174067"><ele>121.0</ele><time>2026-04-12T08:00:38.969Z</time></trkpt><trkpt lat="40.614715" lon="15.117575"><ele>121.0</ele><time>2026-04-12T08:00:39.969Z</time></trkpt><trkpt lat="40.6147783" lon="15.11774"><ele>121.0</ele><time>2026-04-12T08:00:40.969Z</time></trkpt><trkpt lat="40.6148283" lon="15.1179183"><ele>121.0</ele><time>2026-04-12T08:00:41.969Z</time></trkpt><trkpt lat="40.6148717" lon="15.1181"><ele>121.0</ele><time>2026-04-12T08:00:42.969Z</time></trkpt><trkpt lat="40.6149133" lon="15.1182833"><ele>121.0</ele><time>2026-04-12T08:00:43.969Z</time></trkpt><trkpt lat="40.6149533" lon="15.1184667"><ele>121.0</ele><time>2026-04-12T08:00:44.969Z</time></trkpt><trkpt lat="40.6149783" lon="15.1186517"><ele>121.25</ele><time>2026-04-12T08:00:45.969Z</time></trkpt><trkpt lat="40.615" lon="15.1188183"><ele>121.5</ele><time>2026-04-12T08:00:46.969Z</time></trkpt><trkpt lat="40.6150183" lon="15.1189867"><ele>121.75</ele><time>2026-04-12T08:00:47.969Z</time></trkpt><trkpt lat="40.6150383" lon="15.119155"><ele>122.0</ele><time>2026-04-12T08:00:48.969Z</time></trkpt><trkpt lat="40.6150617" lon="15.1193283"><ele>121.0</ele><time>2026-04-12T08:00:49.969Z</time></trkpt><trkpt lat="40.6151" lon="15.1194983"><ele>120.0</ele><time>2026-04-12T08:00:50.969Z</time></trkpt><trkpt lat="40.6151383" lon="15.1196667"><ele>119.0</ele><time>2026-04-12T08:00:51.969Z</time></trkpt><trkpt lat="40.6151883" lon="15.11983"><ele>118.0</ele><time>2026-04-12T08:00:52.969Z</time></trkpt><trkpt lat="40.6152317" lon="15.1199917"><ele>118.0</ele><time>2026-04-12T08:00:53.97Z</time></trkpt><trkpt lat="40.6152683" lon="15.1201417"><ele>118.0</ele><time>2026-04-12T08:00:54.969Z</time></trkpt><trkpt lat="40.615305" lon="15.1203"><ele>118.0</ele><time>2026-04-12T08:00:55.969Z</time></trkpt><trkpt lat="40.6153483" lon="15.1204567"><ele>118.0</ele><time>2026-04-12T08:00:56.969Z</time></trkpt><trkpt lat="40.61539" lon="15.120605"><ele>119.0</ele><time>2026-04-12T08:00:57.969Z</time></trkpt><trkpt lat="40.6154233" lon="15.12077"><ele>120.0</ele><time>2026-04-12T08:00:58.969Z</time></trkpt><trkpt lat="40.6154483" lon="15.1209367"><ele>121.0</ele><time>2026-04-12T08:00:59.969Z</time></trkpt><trkpt lat="40.6154667" lon="15.1211"><ele>122.0</ele><time>2026-04-12T08:01:00.969Z</time></trkpt><trkpt lat="40.61548" lon="15.1212683"><ele>122.0</ele><time>2026-04-12T08:01:01.969Z</time></trkpt><trkpt lat="40.6154983" lon="15.1214367"><ele>122.0</ele><time>2026-04-12T08:01:02.969Z</time></trkpt><trkpt lat="40.6155133" lon="15.1216183"><ele>122.0</ele><time>2026-04-12T08:01:03.969Z</time></trkpt><trkpt lat="40.615515" lon="15.1218"><ele>122.0</ele><time>2026-04-12T08:01:04.969Z</time></trkpt><trkpt lat="40.6155067" lon="15.1219817"><ele>119.5</ele><time>2026-04-12T08:01:05.969Z</time></trkpt><trkpt lat="40.61549" lon="15.1221617"><ele>117.0</ele><time>2026-04-12T08:01:06.97Z</time></trkpt><trkpt lat="40.6154617" lon="15.1223317"><ele>114.5</ele><time>2026-04-12T08:01:07.969Z</time></trkpt><trkpt lat="40.6154167" lon="15.1224967"><ele>112.0</ele><time>2026-04-12T08:01:08.969Z</time></trkpt><trkpt lat="40.6153617" lon="15.1226583"><ele>111.75</ele><time>2026-04-12T08:01:09.969Z</time></trkpt><trkpt lat="40.6153017" lon="15.1228167"><ele>111.5</ele><time>2026-04-12T08:01:10.969Z</time></trkpt><trkpt lat="40.6152283" lon="15.12297"><ele>111.25</ele><time>2026-04-12T08:01:11.969Z</time></trkpt><trkpt lat="40.6151417" lon="15.12312"><ele>111.0</ele><time>2026-04-12T08:01:12.969Z</time></trkpt><trkpt lat="40.61505" lon="15.12326"><ele>107.0</ele><time>2026-04-12T08:01:13.969Z</time></trkpt><trkpt lat="40.61495" lon="15.1233917"><ele>103.0</ele><time>2026-04-12T08:01:14.969Z</time></trkpt><trkpt lat="40.6148417" lon="15.12352"><ele>99.0</ele><time>2026-04-12T08:01:15.969Z</time></trkpt><trkpt lat="40.61474" lon="15.1236533"><ele>95.0</ele><time>2026-04-12T08:01:16.969Z</time></trkpt><trkpt lat="40.6146417" lon="15.123785"><ele>95.0</ele><time>2026-04-12T08:01:17.969Z</time></trkpt><trkpt lat="40.614545" lon="15.1239183"><ele>95.0</ele><time>2026-04-12T08:01:18.969Z</time></trkpt><trkpt lat="40.6144417" lon="15.1240433"><ele>95.0</ele><time>2026-04-12T08:01:19.969Z</time></trkpt><trkpt lat="40.6143317" lon="15.124155"><ele>95.0</ele><time>2026-04-12T08:01:20.969Z</time></trkpt><trkpt lat="40.6142133" lon="15.12424"><ele>93.75</ele><time>2026-04-12T08:01:21.969Z</time></trkpt><trkpt lat="40.6140883" lon="15.1243133"><ele>92.5</ele><time>2026-04-12T08:01:22.969Z</time></trkpt><trkpt lat="40.6139667" lon="15.1243867"><ele>91.25</ele><time>2026-04-12T08:01:23.969Z</time></trkpt><trkpt lat="40.6138533" lon="15.1244517"><ele>90.0</ele><time>2026-04-12T08:01:24.969Z</time></trkpt><trkpt lat="40.6137517" lon="15.124525"><ele>88.75</ele><time>2026-04-12T08:01:25.969Z</time></trkpt><trkpt lat="40.613655" lon="15.12461"><ele>87.5</ele><time>2026-04-12T08:01:26.969Z</time></trkpt><trkpt lat="40.6135717" lon="15.124705"><ele>86.25</ele><time>2026-04-12T08:01:27.969Z</time></trkpt><trkpt lat="40.61349" lon="15.1248117"><ele>85.0</ele><time>2026-04-12T08:01:28.969Z</time></trkpt><trkpt lat="40.613405" lon="15.124925"><ele>85.0</ele><time>2026-04-12T08:01:29.969Z</time></trkpt><trkpt lat="40.6133117" lon="15.1250233"><ele>85.0</ele><time>2026-04-12T08:01:30.969Z</time></trkpt><trkpt lat="40.6132167" lon="15.12512"><ele>85.0</ele><time>2026-04-12T08:01:31.969Z</time></trkpt><trkpt lat="40.6131333" lon="15.1252217"><ele>85.0</ele><time>2026-04-12T08:01:32.969Z</time></trkpt><trkpt lat="40.6130517" lon="15.125325"><ele>85.0</ele><time>2026-04-12T08:01:33.969Z</time></trkpt><trkpt lat="40.6129683" lon="15.1254267"><ele>85.0</ele><time>2026-04-12T08:01:34.969Z</time></trkpt><trkpt lat="40.612885" lon="15.125525"><ele>85.0</ele><time>2026-04-12T08:01:35.969Z</time></trkpt><trkpt lat="40.6128033" lon="15.1256217"><ele>85.0</ele><time>2026-04-12T08:01:36.969Z</time></trkpt><trkpt lat="40.61272" lon="15.1257233"><ele>85.0</ele><time>2026-04-12T08:01:37.969Z</time></trkpt><trkpt lat="40.6126283" lon="15.1258133"><ele>83.25</ele><time>2026-04-12T08:01:38.969Z</time></trkpt><trkpt lat="40.6125267" lon="15.1258867"><ele>81.5</ele><time>2026-04-12T08:01:39.969Z</time></trkpt><trkpt lat="40.61242" lon="15.125935"><ele>79.75</ele><time>2026-04-12T08:01:40.969Z</time></trkpt><trkpt lat="40.61231" lon="15.1259783"><ele>78.0</ele><time>2026-04-12T08:01:41.969Z</time></trkpt><trkpt lat="40.6121967" lon="15.126005"><ele>78.0</ele><time>2026-04-12T08:01:42.969Z</time></trkpt><trkpt lat="40.612085" lon="15.1260283"><ele>78.0</ele><time>2026-04-12T08:01:43.969Z</time></trkpt><trkpt lat="40.611975" lon="15.1260667"><ele>78.0</ele><time>2026-04-12T08:01:44.969Z</time></trkpt><trkpt lat="40.6118667" lon="15.126125"><ele>78.0</ele><time>2026-04-12T08:01:45.97Z</time></trkpt><trkpt lat="40.6117683" lon="15.1262067"><ele>80.0</ele><time>2026-04-12T08:01:46.969Z</time></trkpt><trkpt lat="40.6116667" lon="15.1262967"><ele>82.0</ele><time>2026-04-12T08:01:47.969Z</time></trkpt><trkpt lat="40.6115633" lon="15.1263933"><ele>84.0</ele><time>2026-04-12T08:01:48.969Z</time></trkpt><trkpt lat="40.6114517" lon="15.1264817"><ele>86.0</ele><time>2026-04-12T08:01:49.969Z</time></trkpt><trkpt lat="40.6113367" lon="15.1265717"><ele>82.25</ele><time>2026-04-12T08:01:50.969Z</time></trkpt><trkpt lat="40.6112233" lon="15.1266533"><ele>78.5</ele><time>2026-04-12T08:01:51.969Z</time></trkpt><trkpt lat="40.61111" lon="15.12672"><ele>74.75</ele><time>2026-04-12T08:01:52.969Z</time></trkpt><trkpt lat="40.6109933" lon="15.1267783"><ele>71.0</ele><time>2026-04-12T08:01:53.969Z</time></trkpt><trkpt lat="40.6108867" lon="15.1268383"><ele>71.0</ele><time>2026-04-12T08:01:54.97Z</time></trkpt><trkpt lat="40.6107883" lon="15.126895"><ele>71.0</ele><time>2026-04-12T08:01:55.969Z</time></trkpt><trkpt lat="40.610695" lon="15.126955"><ele>71.0</ele><time>2026-04-12T08:01:56.969Z</time></trkpt><trkpt lat="40.610605" lon="15.1270167"><ele>71.0</ele><time>2026-04-12T08:01:57.969Z</time></trkpt><trkpt lat="40.6105117" lon="15.1270783"><ele>71.0</ele><time>2026-04-12T08:01:58.969Z</time></trkpt><trkpt lat="40.610415" lon="15.12713"><ele>69.39999999999999</ele><time>2026-04-12T08:01:59.969Z</time></trkpt><trkpt lat="40.610315" lon="15.1271867"><ele>67.8</ele><time>2026-04-12T08:02:00.969Z</time></trkpt><trkpt lat="40.6102233" lon="15.127255"><ele>66.19999999999999</ele><time>2026-04-12T08:02:01.969Z</time></trkpt><trkpt lat="40.6101333" lon="15.1273283"><ele>64.6</ele><time>2026-04-12T08:02:02.969Z</time></trkpt><trkpt lat="40.6100467" lon="15.1274167"><ele>63.0</ele><time>2026-04-12T08:02:03.969Z</time></trkpt><trkpt lat="40.6099717" lon="15.1275167"><ele>63.0</ele><time>2026-04-12T08:02:04.969Z</time></trkpt><trkpt lat="40.6099083" lon="15.1276267"><ele>63.0</ele><time>2026-04-12T08:02:05.969Z</time></trkpt><trkpt lat="40.6098517" lon="15.1277433"><ele>63.0</ele><time>2026-04-12T08:02:06.969Z</time></trkpt><trkpt lat="40.6097933" lon="15.1278667"><ele>63.0</ele><time>2026-04-12T08:02:07.969Z</time></trkpt><trkpt lat="40.609735" lon="15.127985"><ele>63.0</ele><time>2026-04-12T08:02:08.969Z</time></trkpt><trkpt lat="40.6096883" lon="15.1281017"><ele>63.0</ele><time>2026-04-12T08:02:09.969Z</time></trkpt><trkpt lat="40.6096483" lon="15.1282217"><ele>63.0</ele><time>2026-04-12T08:02:10.969Z</time></trkpt><trkpt lat="40.6096083" lon="15.1283533"><ele>63.0</ele><time>2026-04-12T08:02:11.969Z</time></trkpt><trkpt lat="40.60957" lon="15.12849"><ele>63.0</ele><time>2026-04-12T08:02:12.969Z</time></trkpt><trkpt lat="40.6095433" lon="15.12862"><ele>63.0</ele><time>2026-04-12T08:02:13.969Z</time></trkpt><trkpt lat="40.60951" lon="15.128745"><ele>62.166666666666664</ele><time>2026-04-12T08:02:14.969Z</time></trkpt><trkpt lat="40.6094733" lon="15.128855"><ele>61.33333333333333</ele><time>2026-04-12T08:02:15.969Z</time></trkpt><trkpt lat="40.6094483" lon="15.1289417"><ele>60.5</ele><time>2026-04-12T08:02:16.969Z</time></trkpt><trkpt lat="40.6094067" lon="15.1290283"><ele>59.666666666666664</ele><time>2026-04-12T08:02:18.969Z</time></trkpt><trkpt lat="40.609395" lon="15.1291367"><ele>58.83333333333333</ele><time>2026-04-12T08:05:50.968Z</time></trkpt><trkpt lat="40.6093983" lon="15.1292617"><ele>58.0</ele><time>2026-04-12T08:05:52.968Z</time></trkpt><trkpt lat="40.6094183" lon="15.1293983"><ele>57.99999999999999</ele><time>2026-04-12T08:05:54.968Z</time></trkpt><trkpt lat="40.6094733" lon="15.1295333"><ele>58.0</ele><time>2026-04-12T08:05:56.968Z</time></trkpt><trkpt lat="40.6095083" lon="15.1296033"><ele>58.0</ele><time>2026-04-12T08:05:57.968Z</time></trkpt><trkpt lat="40.609545" lon="15.129675"><ele>58.0</ele><time>2026-04-12T08:05:58.968Z</time></trkpt><trkpt lat="40.609585" lon="15.1297467"><ele>57.99999999999999</ele><time>2026-04-12T08:05:59.968Z</time></trkpt><trkpt lat="40.6096117" lon="15.1298283"><ele>58.0</ele><time>2026-04-12T08:06:00.968Z</time></trkpt><trkpt lat="40.609625" lon="15.12992"><ele>57.85714285714286</ele><time>2026-04-12T08:06:01.969Z</time></trkpt><trkpt lat="40.6096183" lon="15.1300117"><ele>57.714285714285715</ele><time>2026-04-12T08:06:02.968Z</time></trkpt><trkpt lat="40.6095967" lon="15.1301033"><ele>57.57142857142857</ele><time>2026-04-12T08:06:03.968Z</time></trkpt><trkpt lat="40.6095583" lon="15.1301767"><ele>57.42857142857143</ele><time>2026-04-12T08:06:04.969Z</time></trkpt><trkpt lat="40.60951" lon="15.1302333"><ele>57.28571428571428</ele><time>2026-04-12T08:06:05.968Z</time></trkpt><trkpt lat="40.6094467" lon="15.1302633"><ele>57.14285714285714</ele><time>2026-04-12T08:06:06.968Z</time></trkpt><trkpt lat="40.60937" lon="15.130265"><ele>57.0</ele><time>2026-04-12T08:06:07.968Z</time></trkpt><trkpt lat="40.6092833" lon="15.130265"><ele>57.0</ele><time>2026-04-12T08:06:08.968Z</time></trkpt><trkpt lat="40.60919" lon="15.1302617"><ele>57.0</ele><time>2026-04-12T08:06:09.968Z</time></trkpt><trkpt lat="40.6090983" lon="15.1302617"><ele>57.0</ele><time>2026-04-12T08:06:10.968Z</time></trkpt><trkpt lat="40.609005" lon="15.1302583"><ele>57.0</ele><time>2026-04-12T08:06:11.968Z</time></trkpt><trkpt lat="40.608915" lon="15.13026"><ele>57.0</ele><time>2026-04-12T08:06:12.968Z</time></trkpt><trkpt lat="40.6088233" lon="15.1302617"><ele>57.0</ele><time>2026-04-12T08:06:13.968Z</time></trkpt><trkpt lat="40.6087267" lon="15.13027"><ele>57.0</ele><time>2026-04-12T08:06:14.968Z</time></trkpt><trkpt lat="40.60861" lon="15.13026"><ele>57.0</ele><time>2026-04-12T08:06:15.968Z</time></trkpt><trkpt lat="40.6085233" lon="15.1302667"><ele>57.0</ele><time>2026-04-12T08:06:16.968Z</time></trkpt><trkpt lat="40.6084333" lon="15.130275"><ele>57.0</ele><time>2026-04-12T08:06:17.968Z</time></trkpt><trkpt lat="40.6083367" lon="15.1302983"><ele>56.8</ele><time>2026-04-12T08:06:18.968Z</time></trkpt><trkpt lat="40.6082367" lon="15.130295"><ele>56.6</ele><time>2026-04-12T08:06:19.968Z</time></trkpt><trkpt lat="40.6081467" lon="15.13029"><ele>56.39999999999999</ele><time>2026-04-12T08:06:20.968Z</time></trkpt><trkpt lat="40.6080517" lon="15.13032"><ele>56.199999999999996</ele><time>2026-04-12T08:06:21.968Z</time></trkpt><trkpt lat="40.6079583" lon="15.13037"><ele>56.0</ele><time>2026-04-12T08:06:22.968Z</time></trkpt><trkpt lat="40.607875" lon="15.1304167"><ele>55.50000000000001</ele><time>2026-04-12T08:06:23.968Z</time></trkpt><trkpt lat="40.6077983" lon="15.1304767"><ele>55.0</ele><time>2026-04-12T08:06:24.968Z</time></trkpt><trkpt lat="40.6077267" lon="15.1305517"><ele>54.5</ele><time>2026-04-12T08:06:25.968Z</time></trkpt><trkpt lat="40.60767" lon="15.1306317"><ele>54.0</ele><time>2026-04-12T08:06:26.968Z</time></trkpt><trkpt lat="40.6076283" lon="15.13071"><ele>53.50000000000001</ele><time>2026-04-12T08:06:27.968Z</time></trkpt><trkpt lat="40.6075967" lon="15.1308"><ele>53.0</ele><time>2026-04-12T08:06:28.968Z</time></trkpt><trkpt lat="40.6075817" lon="15.130895"><ele>54.66666666666667</ele><time>2026-04-12T08:06:29.968Z</time></trkpt><trkpt lat="40.6075767" lon="15.130995"><ele>56.333333333333336</ele><time>2026-04-12T08:06:30.968Z</time></trkpt><trkpt lat="40.6075667" lon="15.1310967"><ele>58.0</ele><time>2026-04-12T08:06:31.968Z</time></trkpt><trkpt lat="40.6075467" lon="15.1312067"><ele>59.66666666666667</ele><time>2026-04-12T08:06:32.968Z</time></trkpt><trkpt lat="40.6075167" lon="15.1313133"><ele>61.333333333333336</ele><time>2026-04-12T08:06:33.968Z</time></trkpt><trkpt lat="40.60747" lon="15.13141"><ele>63.0</ele><time>2026-04-12T08:06:34.969Z</time></trkpt><trkpt lat="40.6074133" lon="15.1314933"><ele>65.6</ele><time>2026-04-12T08:06:35.968Z</time></trkpt><trkpt lat="40.607345" lon="15.1315717"><ele>68.19999999999999</ele><time>2026-04-12T08:06:36.968Z</time></trkpt><trkpt lat="40.607265" lon="15.1316583"><ele>70.8</ele><time>2026-04-12T08:06:37.968Z</time></trkpt><trkpt lat="40.6071833" lon="15.13174"><ele>73.39999999999999</ele><time>2026-04-12T08:06:38.968Z</time></trkpt><trkpt lat="40.6071017" lon="15.1318233"><ele>76.0</ele><time>2026-04-12T08:06:39.968Z</time></trkpt><trkpt lat="40.607025" lon="15.1319067"><ele>76.0</ele><time>2026-04-12T08:06:40.969Z</time></trkpt><trkpt lat="40.6069633" lon="15.1319883"><ele>76.0</ele><time>2026-04-12T08:06:41.968Z</time></trkpt><trkpt lat="40.6069217" lon="15.132055"><ele>76.0</ele><time>2026-04-12T08:06:42.968Z</time></trkpt><trkpt lat="40.6068867" lon="15.132165"><ele>76.0</ele><time>2026-04-12T08:06:44.968Z</time></trkpt><trkpt lat="40.6069167" lon="15.13229"><ele>76.0</ele><time>2026-04-12T08:06:47.968Z</time></trkpt><trkpt lat="40.607" lon="15.13236"><ele>76.0</ele><time>2026-04-12T08:06:49.968Z</time></trkpt><trkpt lat="40.6070633" lon="15.132375"><ele>76.0</ele><time>2026-04-12T08:06:50.969Z</time></trkpt><trkpt lat="40.6071433" lon="15.13237"><ele>76.0</ele><time>2026-04-12T08:06:51.968Z</time></trkpt><trkpt lat="40.6072217" lon="15.13235"><ele>76.0</ele><time>2026-04-12T08:06:52.968Z</time></trkpt><trkpt lat="40.60731" lon="15.1323233"><ele>76.0</ele><time>2026-04-12T08:06:53.968Z</time></trkpt><trkpt lat="40.60741" lon="15.13229"><ele>76.0</ele><time>2026-04-12T08:06:54.968Z</time></trkpt><trkpt lat="40.6075167" lon="15.13226"><ele>76.0</ele><time>2026-04-12T08:06:55.968Z</time></trkpt><trkpt lat="40.6076267" lon="15.1322233"><ele>76.0</ele><time>2026-04-12T08:06:56.968Z</time></trkpt><trkpt lat="40.6077283" lon="15.1321933"><ele>76.0</ele><time>2026-04-12T08:06:57.968Z</time></trkpt><trkpt lat="40.6078367" lon="15.1321867"><ele>76.0</ele><time>2026-04-12T08:06:58.968Z</time></trkpt><trkpt lat="40.6079483" lon="15.1321867"><ele>76.0</ele><time>2026-04-12T08:06:59.968Z</time></trkpt><trkpt lat="40.608065" lon="15.132195"><ele>77.4</ele><time>2026-04-12T08:07:00.968Z</time></trkpt><trkpt lat="40.60818" lon="15.1322067"><ele>78.8</ele><time>2026-04-12T08:07:01.968Z</time></trkpt><trkpt lat="40.6082817" lon="15.13225"><ele>80.2</ele><time>2026-04-12T08:07:02.968Z</time></trkpt><trkpt lat="40.6083717" lon="15.1323283"><ele>81.60000000000001</ele><time>2026-04-12T08:07:03.968Z</time></trkpt><trkpt lat="40.608445" lon="15.1324417"><ele>83.0</ele><time>2026-04-12T08:07:04.968Z</time></trkpt><trkpt lat="40.6085017" lon="15.13258"><ele>86.5</ele><time>2026-04-12T08:07:05.968Z</time></trkpt><trkpt lat="40.6085517" lon="15.1327383"><ele>90.0</ele><time>2026-04-12T08:07:06.968Z</time></trkpt><trkpt lat="40.6086017" lon="15.1328983"><ele>93.5</ele><time>2026-04-12T08:07:07.968Z</time></trkpt><trkpt lat="40.6086417" lon="15.13305"><ele>97.0</ele><time>2026-04-12T08:07:08.968Z</time></trkpt><trkpt lat="40.60868" lon="15.1331917"><ele>97.0</ele><time>2026-04-12T08:07:09.968Z</time></trkpt><trkpt lat="40.6087217" lon="15.133315"><ele>97.0</ele><time>2026-04-12T08:07:10.968Z</time></trkpt><trkpt lat="40.608775" lon="15.133425"><ele>97.0</ele><time>2026-04-12T08:07:11.968Z</time></trkpt><trkpt lat="40.60885" lon="15.133525"><ele>97.0</ele><time>2026-04-12T08:07:12.968Z</time></trkpt><trkpt lat="40.6089467" lon="15.1336067"><ele>97.0</ele><time>2026-04-12T08:07:13.968Z</time></trkpt><trkpt lat="40.6090583" lon="15.1336717"><ele>97.0</ele><time>2026-04-12T08:07:14.968Z</time></trkpt><trkpt lat="40.6091783" lon="15.1337217"><ele>97.0</ele><time>2026-04-12T08:07:15.968Z</time></trkpt><trkpt lat="40.6092917" lon="15.13377"><ele>97.0</ele><time>2026-04-12T08:07:16.968Z</time></trkpt><trkpt lat="40.6094067" lon="15.1338167"><ele>97.0</ele><time>2026-04-12T08:07:17.968Z</time></trkpt><trkpt lat="40.60952" lon="15.133855"><ele>98.0</ele><time>2026-04-12T08:07:18.968Z</time></trkpt><trkpt lat="40.6096433" lon="15.1338767"><ele>99.0</ele><time>2026-04-12T08:07:19.968Z</time></trkpt><trkpt lat="40.609765" lon="15.1338883"><ele>100.0</ele><time>2026-04-12T08:07:20.969Z</time></trkpt><trkpt lat="40.6098833" lon="15.1338917"><ele>101.0</ele><time>2026-04-12T08:07:21.968Z</time></trkpt><trkpt lat="40.6100017" lon="15.1339017"><ele>101.0</ele><time>2026-04-12T08:07:22.968Z</time></trkpt><trkpt lat="40.61012" lon="15.1339167"><ele>101.0</ele><time>2026-04-12T08:07:23.968Z</time></trkpt><trkpt lat="40.6102367" lon="15.133945"><ele>101.0</ele><time>2026-04-12T08:07:24.968Z</time></trkpt><trkpt lat="40.6103533" lon="15.1339917"><ele>101.0</ele><time>2026-04-12T08:07:25.968Z</time></trkpt><trkpt lat="40.61046" lon="15.134075"><ele>99.25</ele><time>2026-04-12T08:07:26.969Z</time></trkpt><trkpt lat="40.6105583" lon="15.1341817"><ele>97.5</ele><time>2026-04-12T08:07:27.968Z</time></trkpt><trkpt lat="40.6106383" lon="15.1343033"><ele>95.75</ele><time>2026-04-12T08:07:28.969Z</time></trkpt><trkpt lat="40.6107067" lon="15.134435"><ele>94.0</ele><time>2026-04-12T08:07:29.968Z</time></trkpt><trkpt lat="40.6107667" lon="15.1345833"><ele>94.0</ele><time>2026-04-12T08:07:30.968Z</time></trkpt><trkpt lat="40.6108283" lon="15.1347267"><ele>94.0</ele><time>2026-04-12T08:07:31.968Z</time></trkpt><trkpt lat="40.6109083" lon="15.134855"><ele>94.0</ele><time>2026-04-12T08:07:32.968Z</time></trkpt><trkpt lat="40.611005" lon="15.1349633"><ele>94.0</ele><time>2026-04-12T08:07:33.968Z</time></trkpt><trkpt lat="40.6111" lon="15.135065"><ele>90.75</ele><time>2026-04-12T08:07:34.968Z</time></trkpt><trkpt lat="40.6111883" lon="15.1351683"><ele>87.5</ele><time>2026-04-12T08:07:35.968Z</time></trkpt><trkpt lat="40.6112533" lon="15.13528"><ele>84.25</ele><time>2026-04-12T08:07:36.968Z</time></trkpt><trkpt lat="40.6112933" lon="15.1354183"><ele>81.0</ele><time>2026-04-12T08:07:37.968Z</time></trkpt><trkpt lat="40.61132" lon="15.13557"><ele>79.5</ele><time>2026-04-12T08:07:38.968Z</time></trkpt><trkpt lat="40.6113567" lon="15.1357267"><ele>78.0</ele><time>2026-04-12T08:07:39.968Z</time></trkpt><trkpt lat="40.6114" lon="15.135865"><ele>76.5</ele><time>2026-04-12T08:07:40.968Z</time></trkpt><trkpt lat="40.611445" lon="15.1359967"><ele>75.0</ele><time>2026-04-12T08:07:41.968Z</time></trkpt><trkpt lat="40.6114967" lon="15.136115"><ele>75.0</ele><time>2026-04-12T08:07:42.969Z</time></trkpt><trkpt lat="40.611545" lon="15.1362283"><ele>75.0</ele><time>2026-04-12T08:07:43.968Z</time></trkpt><trkpt lat="40.6115917" lon="15.1363333"><ele>75.0</ele><time>2026-04-12T08:07:44.968Z</time></trkpt><trkpt lat="40.6116367" lon="15.13643"><ele>75.0</ele><time>2026-04-12T08:07:45.968Z</time></trkpt><trkpt lat="40.61167" lon="15.13653"><ele>75.0</ele><time>2026-04-12T08:07:46.968Z</time></trkpt><trkpt lat="40.6117067" lon="15.136635"><ele>75.0</ele><time>2026-04-12T08:07:47.968Z</time></trkpt><trkpt lat="40.6117367" lon="15.136765"><ele>73.5</ele><time>2026-04-12T08:07:48.968Z</time></trkpt><trkpt lat="40.6117667" lon="15.1369067"><ele>72.0</ele><time>2026-04-12T08:07:49.968Z</time></trkpt><trkpt lat="40.611805" lon="15.1370533"><ele>70.5</ele><time>2026-04-12T08:07:50.968Z</time></trkpt><trkpt lat="40.611845" lon="15.1372067"><ele>69.0</ele><time>2026-04-12T08:07:51.968Z</time></trkpt><trkpt lat="40.6118883" lon="15.1373517"><ele>68.5</ele><time>2026-04-12T08:07:52.968Z</time></trkpt><trkpt lat="40.6119417" lon="15.137485"><ele>68.0</ele><time>2026-04-12T08:07:53.968Z</time></trkpt><trkpt lat="40.6119967" lon="15.1376233"><ele>67.5</ele><time>2026-04-12T08:07:54.968Z</time></trkpt><trkpt lat="40.6120533" lon="15.1377617"><ele>67.0</ele><time>2026-04-12T08:07:55.968Z</time></trkpt><trkpt lat="40.61211" lon="15.1378933"><ele>68.8</ele><time>2026-04-12T08:07:56.968Z</time></trkpt><trkpt lat="40.6121667" lon="15.13802"><ele>70.6</ele><time>2026-04-12T08:07:57.968Z</time></trkpt><trkpt lat="40.61222" lon="15.1381317"><ele>72.39999999999999</ele><time>2026-04-12T08:07:58.969Z</time></trkpt><trkpt lat="40.6122633" lon="15.13824"><ele>74.2</ele><time>2026-04-12T08:07:59.968Z</time></trkpt><trkpt lat="40.6123067" lon="15.1383583"><ele>76.0</ele><time>2026-04-12T08:08:00.968Z</time></trkpt><trkpt lat="40.6123567" lon="15.1384833"><ele>76.0</ele><time>2026-04-12T08:08:01.968Z</time></trkpt><trkpt lat="40.6124183" lon="15.1386133"><ele>76.0</ele><time>2026-04-12T08:08:02.969Z</time></trkpt><trkpt lat="40.6124767" lon="15.1387517"><ele>76.0</ele><time>2026-04-12T08:08:03.968Z</time></trkpt><trkpt lat="40.6125383" lon="15.1388933"><ele>76.0</ele><time>2026-04-12T08:08:04.968Z</time></trkpt><trkpt lat="40.6126033" lon="15.1390333"><ele>75.0</ele><time>2026-04-12T08:08:05.969Z</time></trkpt><trkpt lat="40.6126733" lon="15.1391817"><ele>74.0</ele><time>2026-04-12T08:08:06.969Z</time></trkpt><trkpt lat="40.6127433" lon="15.1393317"><ele>73.0</ele><time>2026-04-12T08:08:07.968Z</time></trkpt><trkpt lat="40.612815" lon="15.1394817"><ele>72.0</ele><time>2026-04-12T08:08:08.968Z</time></trkpt><trkpt lat="40.61288" lon="15.1396383"><ele>74.5</ele><time>2026-04-12T08:08:09.968Z</time></trkpt><trkpt lat="40.6129483" lon="15.1397917"><ele>77.0</ele><time>2026-04-12T08:08:10.968Z</time></trkpt><trkpt lat="40.61301" lon="15.13995"><ele>79.5</ele><time>2026-04-12T08:08:11.968Z</time></trkpt><trkpt lat="40.6130667" lon="15.1401033"><ele>82.0</ele><time>2026-04-12T08:08:12.968Z</time></trkpt><trkpt lat="40.6131233" lon="15.1402533"><ele>82.0</ele><time>2026-04-12T08:08:13.968Z</time></trkpt><trkpt lat="40.6131717" lon="15.1403917"><ele>82.0</ele><time>2026-04-12T08:08:14.968Z</time></trkpt><trkpt lat="40.6132083" lon="15.1405317"><ele>82.0</ele><time>2026-04-12T08:08:15.969Z</time></trkpt><trkpt lat="40.6132417" lon="15.1406717"><ele>82.0</ele><time>2026-04-12T08:08:16.968Z</time></trkpt><trkpt lat="40.6132717" lon="15.14083"><ele>80.25</ele><time>2026-04-12T08:08:17.968Z</time></trkpt><trkpt lat="40.6133067" lon="15.140995"><ele>78.5</ele><time>2026-04-12T08:08:18.968Z</time></trkpt><trkpt lat="40.6133433" lon="15.1411667"><ele>76.75</ele><time>2026-04-12T08:08:19.968Z</time></trkpt><trkpt lat="40.6133817" lon="15.14134"><ele>75.0</ele><time>2026-04-12T08:08:20.968Z</time></trkpt><trkpt lat="40.6134183" lon="15.1415167"><ele>73.25</ele><time>2026-04-12T08:08:21.968Z</time></trkpt><trkpt lat="40.6134517" lon="15.1416967"><ele>71.5</ele><time>2026-04-12T08:08:22.968Z</time></trkpt><trkpt lat="40.613485" lon="15.1418783"><ele>69.75</ele><time>2026-04-12T08:08:23.968Z</time></trkpt><trkpt lat="40.613525" lon="15.1420617"><ele>68.0</ele><time>2026-04-12T08:08:24.968Z</time></trkpt><trkpt lat="40.6135683" lon="15.142245"><ele>69.25</ele><time>2026-04-12T08:08:25.968Z</time></trkpt><trkpt lat="40.613605" lon="15.1424267"><ele>70.5</ele><time>2026-04-12T08:08:26.968Z</time></trkpt><trkpt lat="40.6136417" lon="15.142605"><ele>71.75</ele><time>2026-04-12T08:08:27.968Z</time></trkpt><trkpt lat="40.6136783" lon="15.1427817"><ele>73.0</ele><time>2026-04-12T08:08:28.968Z</time></trkpt><trkpt lat="40.6137183" lon="15.1429617"><ele>73.0</ele><time>2026-04-12T08:08:29.968Z</time></trkpt><trkpt lat="40.6137567" lon="15.1431433"><ele>73.0</ele><time>2026-04-12T08:08:30.968Z</time></trkpt><trkpt lat="40.6137933" lon="15.143325"><ele>73.0</ele><time>2026-04-12T08:08:31.968Z</time></trkpt><trkpt lat="40.6138283" lon="15.143505"><ele>73.0</ele><time>2026-04-12T08:08:32.968Z</time></trkpt><trkpt lat="40.6138617" lon="15.1436817"><ele>72.5</ele><time>2026-04-12T08:08:33.968Z</time></trkpt><trkpt lat="40.613895" lon="15.1438567"><ele>72.0</ele><time>2026-04-12T08:08:34.968Z</time></trkpt><trkpt lat="40.613935" lon="15.1440317"><ele>71.5</ele><time>2026-04-12T08:08:35.968Z</time></trkpt><trkpt lat="40.6139617" lon="15.1442067"><ele>71.0</ele><time>2026-04-12T08:08:36.969Z</time></trkpt><trkpt lat="40.6139717" lon="15.14439"><ele>70.0</ele><time>2026-04-12T08:08:37.968Z</time></trkpt><trkpt lat="40.6139583" lon="15.14457"><ele>69.0</ele><time>2026-04-12T08:08:38.968Z</time></trkpt><trkpt lat="40.6139417" lon="15.14476"><ele>68.0</ele><time>2026-04-12T08:08:39.968Z</time></trkpt><trkpt lat="40.6139183" lon="15.14495"><ele>67.0</ele><time>2026-04-12T08:08:40.968Z</time></trkpt><trkpt lat="40.613895" lon="15.1451383"><ele>67.0</ele><time>2026-04-12T08:08:41.968Z</time></trkpt><trkpt lat="40.6138767" lon="15.1453317"><ele>67.0</ele><time>2026-04-12T08:08:42.968Z</time></trkpt><trkpt lat="40.6138533" lon="15.1455133"><ele>67.0</ele><time>2026-04-12T08:08:43.969Z</time></trkpt><trkpt lat="40.61383" lon="15.145705"><ele>67.0</ele><time>2026-04-12T08:08:44.968Z</time></trkpt><trkpt lat="40.61381" lon="15.1458983"><ele>67.75</ele><time>2026-04-12T08:08:45.968Z</time></trkpt><trkpt lat="40.6137883" lon="15.1460883"><ele>68.5</ele><time>2026-04-12T08:08:46.968Z</time></trkpt><trkpt lat="40.6137683" lon="15.14627"><ele>69.25</ele><time>2026-04-12T08:08:47.968Z</time></trkpt><trkpt lat="40.6137483" lon="15.14645"><ele>70.0</ele><time>2026-04-12T08:08:48.968Z</time></trkpt><trkpt lat="40.6137333" lon="15.1466267"><ele>71.5</ele><time>2026-04-12T08:08:49.968Z</time></trkpt><trkpt lat="40.6137133" lon="15.1468117"><ele>73.0</ele><time>2026-04-12T08:08:50.968Z</time></trkpt><trkpt lat="40.6136983" lon="15.14699"><ele>74.5</ele><time>2026-04-12T08:08:51.968Z</time></trkpt><trkpt lat="40.6136833" lon="15.14717"><ele>76.0</ele><time>2026-04-12T08:08:52.968Z</time></trkpt><trkpt lat="40.6136667" lon="15.1473583"><ele>71.33333333333333</ele><time>2026-04-12T08:08:53.968Z</time></trkpt><trkpt lat="40.6136517" lon="15.147555"><ele>66.66666666666667</ele><time>2026-04-12T08:08:54.968Z</time></trkpt><trkpt lat="40.6136367" lon="15.1477517"><ele>62.0</ele><time>2026-04-12T08:08:55.968Z</time></trkpt><trkpt lat="40.6136283" lon="15.1479483"><ele>62.0</ele><time>2026-04-12T08:08:56.968Z</time></trkpt><trkpt lat="40.613625" lon="15.148145"><ele>62.0</ele><time>2026-04-12T08:08:57.968Z</time></trkpt><trkpt lat="40.6136317" lon="15.1483433"><ele>62.0</ele><time>2026-04-12T08:08:58.969Z</time></trkpt><trkpt lat="40.6136417" lon="15.14854"><ele>62.66666666666667</ele><time>2026-04-12T08:08:59.968Z</time></trkpt><trkpt lat="40.6136467" lon="15.1487417"><ele>63.33333333333333</ele><time>2026-04-12T08:09:00.968Z</time></trkpt><trkpt lat="40.613655" lon="15.1489417"><ele>64.0</ele><time>2026-04-12T08:09:01.968Z</time></trkpt><trkpt lat="40.6136717" lon="15.1491367"><ele>68.0</ele><time>2026-04-12T08:09:02.968Z</time></trkpt><trkpt lat="40.6136917" lon="15.1493333"><ele>72.0</ele><time>2026-04-12T08:09:03.968Z</time></trkpt><trkpt lat="40.61371" lon="15.14953"><ele>76.0</ele><time>2026-04-12T08:09:04.968Z</time></trkpt><trkpt lat="40.6137317" lon="15.1497283"><ele>75.66666666666666</ele><time>2026-04-12T08:09:05.968Z</time></trkpt><trkpt lat="40.6137517" lon="15.149925"><ele>75.33333333333333</ele><time>2026-04-12T08:09:06.968Z</time></trkpt><trkpt lat="40.6137783" lon="15.150125"><ele>75.0</ele><time>2026-04-12T08:09:07.968Z</time></trkpt><trkpt lat="40.6138033" lon="15.15032"><ele>75.0</ele><time>2026-04-12T08:09:08.968Z</time></trkpt><trkpt lat="40.6138367" lon="15.15051"><ele>75.0</ele><time>2026-04-12T08:09:09.968Z</time></trkpt><trkpt lat="40.6138717" lon="15.1507033"><ele>75.0</ele><time>2026-04-12T08:09:10.968Z</time></trkpt><trkpt lat="40.61391" lon="15.1508933"><ele>75.0</ele><time>2026-04-12T08:09:11.968Z</time></trkpt><trkpt lat="40.6139583" lon="15.1510733"><ele>75.0</ele><time>2026-04-12T08:09:12.968Z</time></trkpt><trkpt lat="40.6140167" lon="15.1512383"><ele>75.0</ele><time>2026-04-12T08:09:13.968Z</time></trkpt><trkpt lat="40.6140783" lon="15.1513917"><ele>75.0</ele><time>2026-04-12T08:09:14.968Z</time></trkpt><trkpt lat="40.6141367" lon="15.151535"><ele>75.0</ele><time>2026-04-12T08:09:15.968Z</time></trkpt><trkpt lat="40.61419" lon="15.1516667"><ele>73.4</ele><time>2026-04-12T08:09:16.968Z</time></trkpt><trkpt lat="40.6142333" lon="15.1517883"><ele>71.8</ele><time>2026-04-12T08:09:17.968Z</time></trkpt><trkpt lat="40.6142633" lon="15.1519"><ele>70.2</ele><time>2026-04-12T08:09:18.968Z</time></trkpt><trkpt lat="40.6142867" lon="15.1519917"><ele>68.6</ele><time>2026-04-12T08:09:19.968Z</time></trkpt><trkpt lat="40.614325" lon="15.1521283"><ele>67.0</ele><time>2026-04-12T08:09:21.968Z</time></trkpt><trkpt lat="40.6143917" lon="15.15218"><ele>67.0</ele><time>2026-04-12T08:09:23.968Z</time></trkpt><trkpt lat="40.614475" lon="15.15221"><ele>67.0</ele><time>2026-04-12T08:09:25.968Z</time></trkpt><trkpt lat="40.6145967" lon="15.1522333"><ele>67.0</ele><time>2026-04-12T08:09:27.968Z</time></trkpt><trkpt lat="40.6146733" lon="15.1522333"><ele>67.0</ele><time>2026-04-12T08:09:28.968Z</time></trkpt><trkpt lat="40.61476" lon="15.1522383"><ele>67.0</ele><time>2026-04-12T08:09:29.968Z</time></trkpt><trkpt lat="40.6148467" lon="15.15223"><ele>69.0</ele><time>2026-04-12T08:09:30.968Z</time></trkpt><trkpt lat="40.6149283" lon="15.15224"><ele>71.0</ele><time>2026-04-12T08:09:31.968Z</time></trkpt><trkpt lat="40.615005" lon="15.1522767"><ele>73.0</ele><time>2026-04-12T08:09:32.969Z</time></trkpt><trkpt lat="40.61508" lon="15.15234"><ele>75.0</ele><time>2026-04-12T08:09:33.968Z</time></trkpt><trkpt lat="40.6151517" lon="15.1524183"><ele>77.0</ele><time>2026-04-12T08:09:34.968Z</time></trkpt><trkpt lat="40.61522" lon="15.152495"><ele>79.0</ele><time>2026-04-12T08:09:35.968Z</time></trkpt><trkpt lat="40.615285" lon="15.1525633"><ele>84.4</ele><time>2026-04-12T08:09:36.968Z</time></trkpt><trkpt lat="40.6153833" lon="15.1526333"><ele>89.80000000000001</ele><time>2026-04-12T08:09:38.968Z</time></trkpt><trkpt lat="40.61545" lon="15.1525833"><ele>95.19999999999999</ele><time>2026-04-12T08:09:40.969Z</time></trkpt><trkpt lat="40.6154533" lon="15.152465"><ele>100.6</ele><time>2026-04-12T08:09:42.968Z</time></trkpt><trkpt lat="40.6154167" lon="15.1523367"><ele>106.0</ele><time>2026-04-12T08:09:44.968Z</time></trkpt><trkpt lat="40.61538" lon="15.1522117"><ele>106.00000000000001</ele><time>2026-04-12T08:09:46.968Z</time></trkpt><trkpt lat="40.61541" lon="15.1521167"><ele>106.0</ele><time>2026-04-12T08:09:48.968Z</time></trkpt><trkpt lat="40.615485" lon="15.1521467"><ele>106.0</ele><time>2026-04-12T08:09:50.968Z</time></trkpt><trkpt lat="40.6155483" lon="15.1522733"><ele>106.0</ele><time>2026-04-12T08:09:52.968Z</time></trkpt><trkpt lat="40.6156083" lon="15.15238"><ele>106.00000000000001</ele><time>2026-04-12T08:09:54.968Z</time></trkpt><trkpt lat="40.6156733" lon="15.1523783"><ele>106.0</ele><time>2026-04-12T08:09:57.968Z</time></trkpt><trkpt lat="40.61566" lon="15.1522933"><ele>107.00000000000001</ele><time>2026-04-12T08:09:59.968Z</time></trkpt><trkpt lat="40.615615" lon="15.1521683"><ele>108.0</ele><time>2026-04-12T08:10:01.968Z</time></trkpt><trkpt lat="40.615585" lon="15.152085"><ele>109.0</ele><time>2026-04-12T08:10:02.968Z</time></trkpt><trkpt lat="40.6155617" lon="15.1519917"><ele>110.0</ele><time>2026-04-12T08:10:03.968Z</time></trkpt><trkpt lat="40.615545" lon="15.1518967"><ele>111.00000000000001</ele><time>2026-04-12T08:10:04.968Z</time></trkpt><trkpt lat="40.6155367" lon="15.1517867"><ele>112.0</ele><time>2026-04-12T08:10:05.968Z</time></trkpt><trkpt lat="40.6155367" lon="15.151675"><ele>112.0</ele><time>2026-04-12T08:10:06.968Z</time></trkpt><trkpt lat="40.6155267" lon="15.15156"><ele>111.99999999999999</ele><time>2026-04-12T08:10:07.968Z</time></trkpt><trkpt lat="40.615515" lon="15.151435"><ele>111.99999999999999</ele><time>2026-04-12T08:10:08.968Z</time></trkpt><trkpt lat="40.6154983" lon="15.15133"><ele>112.0</ele><time>2026-04-12T08:10:09.968Z</time></trkpt><trkpt lat="40.6154983" lon="15.1511867"><ele>112.0</ele><time>2026-04-12T08:10:11.968Z</time></trkpt><trkpt lat="40.6155583" lon="15.151085"><ele>112.33333333333334</ele><time>2026-04-12T08:10:13.968Z</time></trkpt><trkpt lat="40.6156617" lon="15.151015"><ele>112.66666666666667</ele><time>2026-04-12T08:10:15.968Z</time></trkpt><trkpt lat="40.6157217" lon="15.1509767"><ele>113.0</ele><time>2026-04-12T08:10:16.969Z</time></trkpt><trkpt lat="40.6158183" lon="15.150915"><ele>113.33333333333334</ele><time>2026-04-12T08:10:18.968Z</time></trkpt><trkpt lat="40.6158633" lon="15.1508567"><ele>113.66666666666667</ele><time>2026-04-12T08:10:20.968Z</time></trkpt><trkpt lat="40.6158733" lon="15.1507367"><ele>114.0</ele><time>2026-04-12T08:10:27.968Z</time></trkpt><trkpt lat="40.615905" lon="15.150585"><ele>114.0</ele><time>2026-04-12T08:10:29.968Z</time></trkpt><trkpt lat="40.6159867" lon="15.1504583"><ele>114.0</ele><time>2026-04-12T08:10:31.968Z</time></trkpt><trkpt lat="40.6160567" lon="15.1504083"><ele>114.0</ele><time>2026-04-12T08:10:32.968Z</time></trkpt><trkpt lat="40.6161383" lon="15.1503467"><ele>114.0</ele><time>2026-04-12T08:10:33.968Z</time></trkpt><trkpt lat="40.6162167" lon="15.1502967"><ele>114.0</ele><time>2026-04-12T08:10:34.969Z</time></trkpt><trkpt lat="40.6163033" lon="15.1502433"><ele>116.6</ele><time>2026-04-12T08:10:35.968Z</time></trkpt><trkpt lat="40.61639" lon="15.1501867"><ele>119.2</ele><time>2026-04-12T08:10:36.968Z</time></trkpt><trkpt lat="40.6164783" lon="15.150135"><ele>121.79999999999998</ele><time>2026-04-12T08:10:37.968Z</time></trkpt><trkpt lat="40.6165633" lon="15.1500783"><ele>124.39999999999999</ele><time>2026-04-12T08:10:38.968Z</time></trkpt><trkpt lat="40.6166483" lon="15.1500283"><ele>127.0</ele><time>2026-04-12T08:10:39.968Z</time></trkpt><trkpt lat="40.6167317" lon="15.149975"><ele>127.00000000000001</ele><time>2026-04-12T08:10:40.968Z</time></trkpt><trkpt lat="40.6168117" lon="15.1499233"><ele>127.0</ele><time>2026-04-12T08:10:41.968Z</time></trkpt><trkpt lat="40.6168933" lon="15.149865"><ele>127.0</ele><time>2026-04-12T08:10:42.968Z</time></trkpt><trkpt lat="40.616975" lon="15.1498167"><ele>127.0</ele><time>2026-04-12T08:10:43.968Z</time></trkpt><trkpt lat="40.61705" lon="15.1497717"><ele>127.00000000000001</ele><time>2026-04-12T08:10:44.968Z</time></trkpt><trkpt lat="40.6171233" lon="15.149725"><ele>127.0</ele><time>2026-04-12T08:10:45.968Z</time></trkpt><trkpt lat="40.6172017" lon="15.1496767"><ele>128.0</ele><time>2026-04-12T08:10:46.968Z</time></trkpt><trkpt lat="40.6172817" lon="15.149625"><ele>129.0</ele><time>2026-04-12T08:10:47.968Z</time></trkpt><trkpt lat="40.61736" lon="15.1495783"><ele>130.0</ele><time>2026-04-12T08:10:48.968Z</time></trkpt><trkpt lat="40.6174417" lon="15.1495217"><ele>131.0</ele><time>2026-04-12T08:10:49.968Z</time></trkpt><trkpt lat="40.617525" lon="15.1494633"><ele>132.0</ele><time>2026-04-12T08:10:50.968Z</time></trkpt><trkpt lat="40.6176117" lon="15.1494017"><ele>132.0</ele><time>2026-04-12T08:10:51.968Z</time></trkpt><trkpt lat="40.6177017" lon="15.1493517"><ele>132.0</ele><time>2026-04-12T08:10:52.968Z</time></trkpt><trkpt lat="40.6177917" lon="15.1492967"><ele>132.0</ele><time>2026-04-12T08:10:53.968Z</time></trkpt><trkpt lat="40.6178717" lon="15.14924"><ele>132.0</ele><time>2026-04-12T08:10:54.968Z</time></trkpt><trkpt lat="40.6179533" lon="15.149185"><ele>132.0</ele><time>2026-04-12T08:10:55.968Z</time></trkpt><trkpt lat="40.6180233" lon="15.1491333"><ele>133.2</ele><time>2026-04-12T08:10:56.968Z</time></trkpt><trkpt lat="40.6181233" lon="15.1491033"><ele>134.39999999999998</ele><time>2026-04-12T08:10:58.969Z</time></trkpt><trkpt lat="40.61818" lon="15.1491983"><ele>135.60000000000002</ele><time>2026-04-12T08:11:01.968Z</time></trkpt><trkpt lat="40.6182183" lon="15.149355"><ele>136.8</ele><time>2026-04-12T08:11:03.968Z</time></trkpt><trkpt lat="40.6182417" lon="15.1494583"><ele>138.0</ele><time>2026-04-12T08:11:04.968Z</time></trkpt><trkpt lat="40.6182667" lon="15.14956"><ele>138.0</ele><time>2026-04-12T08:11:05.968Z</time></trkpt><trkpt lat="40.61829" lon="15.1496683"><ele>138.0</ele><time>2026-04-12T08:11:06.968Z</time></trkpt><trkpt lat="40.618315" lon="15.1497717"><ele>138.0</ele><time>2026-04-12T08:11:07.968Z</time></trkpt><trkpt lat="40.6183383" lon="15.14987"><ele>138.0</ele><time>2026-04-12T08:11:08.968Z</time></trkpt><trkpt lat="40.61836" lon="15.1499667"><ele>138.0</ele><time>2026-04-12T08:11:09.968Z</time></trkpt><trkpt lat="40.618385" lon="15.1500683"><ele>138.0</ele><time>2026-04-12T08:11:10.968Z</time></trkpt><trkpt lat="40.6184083" lon="15.1501817"><ele>138.6</ele><time>2026-04-12T08:11:11.968Z</time></trkpt><trkpt lat="40.61844" lon="15.15029"><ele>139.20000000000002</ele><time>2026-04-12T08:11:12.968Z</time></trkpt><trkpt lat="40.618475" lon="15.1503983"><ele>139.8</ele><time>2026-04-12T08:11:13.969Z</time></trkpt><trkpt lat="40.61853" lon="15.1504883"><ele>140.4</ele><time>2026-04-12T08:11:14.968Z</time></trkpt><trkpt lat="40.61859" lon="15.1505383"><ele>141.0</ele><time>2026-04-12T08:11:15.968Z</time></trkpt><trkpt lat="40.6187167" lon="15.1505433"><ele>142.0</ele><time>2026-04-12T08:11:17.968Z</time></trkpt><trkpt lat="40.61878" lon="15.1505317"><ele>143.0</ele><time>2026-04-12T08:11:18.968Z</time></trkpt><trkpt lat="40.61891" lon="15.1505383"><ele>144.0</ele><time>2026-04-12T08:11:20.968Z</time></trkpt><trkpt lat="40.61899" lon="15.1505417"><ele>145.0</ele><time>2026-04-12T08:11:21.968Z</time></trkpt><trkpt lat="40.61908" lon="15.1505417"><ele>146.0</ele><time>2026-04-12T08:11:22.968Z</time></trkpt><trkpt lat="40.6191767" lon="15.1505417"><ele>146.0</ele><time>2026-04-12T08:11:23.968Z</time></trkpt><trkpt lat="40.61927" lon="15.1505467"><ele>146.0</ele><time>2026-04-12T08:11:24.968Z</time></trkpt><trkpt lat="40.6193733" lon="15.15055"><ele>146.0</ele><time>2026-04-12T08:11:25.968Z</time></trkpt><trkpt lat="40.61948" lon="15.1505483"><ele>146.0</ele><time>2026-04-12T08:11:26.968Z</time></trkpt><trkpt lat="40.61958" lon="15.1505617"><ele>146.0</ele><time>2026-04-12T08:11:27.968Z</time></trkpt><trkpt lat="40.619675" lon="15.1505717"><ele>146.83333333333331</ele><time>2026-04-12T08:11:28.969Z</time></trkpt><trkpt lat="40.61977" lon="15.1505733"><ele>147.66666666666666</ele><time>2026-04-12T08:11:29.968Z</time></trkpt><trkpt lat="40.6198617" lon="15.150585"><ele>148.5</ele><time>2026-04-12T08:11:30.968Z</time></trkpt><trkpt lat="40.619945" lon="15.150585"><ele>149.33333333333334</ele><time>2026-04-12T08:11:31.968Z</time></trkpt><trkpt lat="40.6200267" lon="15.15058"><ele>150.16666666666669</ele><time>2026-04-12T08:11:32.968Z</time></trkpt><trkpt lat="40.6201167" lon="15.1505667"><ele>151.0</ele><time>2026-04-12T08:11:33.968Z</time></trkpt><trkpt lat="40.6201967" lon="15.1505333"><ele>151.0</ele><time>2026-04-12T08:11:34.968Z</time></trkpt><trkpt lat="40.6202767" lon="15.1504783"><ele>151.0</ele><time>2026-04-12T08:11:35.968Z</time></trkpt><trkpt lat="40.620355" lon="15.1503967"><ele>151.0</ele><time>2026-04-12T08:11:36.968Z</time></trkpt><trkpt lat="40.6204333" lon="15.1502967"><ele>151.0</ele><time>2026-04-12T08:11:37.968Z</time></trkpt><trkpt lat="40.620515" lon="15.1501967"><ele>151.0</ele><time>2026-04-12T08:11:38.968Z</time></trkpt><trkpt lat="40.6205983" lon="15.1501"><ele>152.0</ele><time>2026-04-12T08:11:39.968Z</time></trkpt><trkpt lat="40.6206717" lon="15.1500067"><ele>153.0</ele><time>2026-04-12T08:11:40.968Z</time></trkpt><trkpt lat="40.620755" lon="15.1499217"><ele>154.0</ele><time>2026-04-12T08:11:41.968Z</time></trkpt><trkpt lat="40.6208317" lon="15.149835"><ele>155.0</ele><time>2026-04-12T08:11:42.968Z</time></trkpt><trkpt lat="40.6209" lon="15.1497467"><ele>156.0</ele><time>2026-04-12T08:11:43.968Z</time></trkpt><trkpt lat="40.6209683" lon="15.1496633"><ele>156.0</ele><time>2026-04-12T08:11:44.968Z</time></trkpt><trkpt lat="40.621035" lon="15.1495967"><ele>156.0</ele><time>2026-04-12T08:11:45.968Z</time></trkpt><trkpt lat="40.621105" lon="15.1495433"><ele>156.0</ele><time>2026-04-12T08:11:46.968Z</time></trkpt><trkpt lat="40.62118" lon="15.1495017"><ele>156.0</ele><time>2026-04-12T08:11:47.968Z</time></trkpt><trkpt lat="40.62126" lon="15.1494633"><ele>156.0</ele><time>2026-04-12T08:11:48.968Z</time></trkpt><trkpt lat="40.62135" lon="15.1494267"><ele>156.0</ele><time>2026-04-12T08:11:49.968Z</time></trkpt><trkpt lat="40.6214433" lon="15.1493917"><ele>157.0</ele><time>2026-04-12T08:11:50.968Z</time></trkpt><trkpt lat="40.6215417" lon="15.1493583"><ele>158.0</ele><time>2026-04-12T08:11:51.968Z</time></trkpt><trkpt lat="40.6216433" lon="15.1493267"><ele>159.0</ele><time>2026-04-12T08:11:52.968Z</time></trkpt><trkpt lat="40.62175" lon="15.1492933"><ele>160.0</ele><time>2026-04-12T08:11:53.968Z</time></trkpt><trkpt lat="40.6218583" lon="15.1492567"><ele>161.0</ele><time>2026-04-12T08:11:54.968Z</time></trkpt><trkpt lat="40.621965" lon="15.1492183"><ele>162.20000000000002</ele><time>2026-04-12T08:11:55.968Z</time></trkpt><trkpt lat="40.6220617" lon="15.1491883"><ele>163.4</ele><time>2026-04-12T08:11:56.968Z</time></trkpt><trkpt lat="40.62216" lon="15.1491533"><ele>164.6</ele><time>2026-04-12T08:11:57.968Z</time></trkpt><trkpt lat="40.6222483" lon="15.1491233"><ele>165.8</ele><time>2026-04-12T08:11:58.968Z</time></trkpt><trkpt lat="40.6223317" lon="15.149105"><ele>167.0</ele><time>2026-04-12T08:11:59.968Z</time></trkpt><trkpt lat="40.622405" lon="15.1490833"><ele>167.0</ele><time>2026-04-12T08:12:00.968Z</time></trkpt><trkpt lat="40.62247" lon="15.14907"><ele>167.0</ele><time>2026-04-12T08:12:01.969Z</time></trkpt><trkpt lat="40.6225483" lon="15.1490483"><ele>167.0</ele><time>2026-04-12T08:12:03.968Z</time></trkpt><trkpt lat="40.6226067" lon="15.1489883"><ele>167.0</ele><time>2026-04-12T08:12:05.968Z</time></trkpt><trkpt lat="40.6226817" lon="15.1488467"><ele>167.0</ele><time>2026-04-12T08:12:07.967Z</time></trkpt><trkpt lat="40.6227233" lon="15.148755"><ele>167.0</ele><time>2026-04-12T08:12:08.968Z</time></trkpt><trkpt lat="40.6227733" lon="15.1486617"><ele>167.33333333333331</ele><time>2026-04-12T08:12:09.967Z</time></trkpt><trkpt lat="40.6228167" lon="15.148565"><ele>167.66666666666666</ele><time>2026-04-12T08:12:10.968Z</time></trkpt><trkpt lat="40.6228583" lon="15.148475"><ele>168.0</ele><time>2026-04-12T08:12:11.967Z</time></trkpt><trkpt lat="40.6228967" lon="15.148395"><ele>168.33333333333334</ele><time>2026-04-12T08:12:12.968Z</time></trkpt><trkpt lat="40.6229333" lon="15.1483167"><ele>168.66666666666669</ele><time>2026-04-12T08:12:13.967Z</time></trkpt><trkpt lat="40.622975" lon="15.1482333"><ele>169.0</ele><time>2026-04-12T08:12:14.967Z</time></trkpt><trkpt lat="40.6230133" lon="15.1481517"><ele>169.0</ele><time>2026-04-12T08:12:15.967Z</time></trkpt><trkpt lat="40.6230533" lon="15.148065"><ele>169.0</ele><time>2026-04-12T08:12:16.967Z</time></trkpt><trkpt lat="40.6231017" lon="15.1479833"><ele>169.0</ele><time>2026-04-12T08:12:17.967Z</time></trkpt><trkpt lat="40.623145" lon="15.1478967"><ele>169.0</ele><time>2026-04-12T08:12:18.967Z</time></trkpt><trkpt lat="40.6231867" lon="15.1478067"><ele>169.0</ele><time>2026-04-12T08:12:19.967Z</time></trkpt><trkpt lat="40.6232383" lon="15.1477133"><ele>169.0</ele><time>2026-04-12T08:12:20.967Z</time></trkpt><trkpt lat="40.6232983" lon="15.1476183"><ele>169.0</ele><time>2026-04-12T08:12:21.967Z</time></trkpt><trkpt lat="40.6233567" lon="15.1475233"><ele>169.0</ele><time>2026-04-12T08:12:22.967Z</time></trkpt><trkpt lat="40.6234183" lon="15.1474283"><ele>169.0</ele><time>2026-04-12T08:12:23.967Z</time></trkpt><trkpt lat="40.6234833" lon="15.147345"><ele>169.0</ele><time>2026-04-12T08:12:24.967Z</time></trkpt><trkpt lat="40.6235467" lon="15.147265"><ele>169.0</ele><time>2026-04-12T08:12:25.968Z</time></trkpt><trkpt lat="40.6236117" lon="15.1471883"><ele>169.83333333333334</ele><time>2026-04-12T08:12:26.967Z</time></trkpt><trkpt lat="40.623675" lon="15.147115"><ele>170.66666666666669</ele><time>2026-04-12T08:12:27.967Z</time></trkpt><trkpt lat="40.6237417" lon="15.14705"><ele>171.5</ele><time>2026-04-12T08:12:28.967Z</time></trkpt><trkpt lat="40.623805" lon="15.1469933"><ele>172.33333333333334</ele><time>2026-04-12T08:12:29.967Z</time></trkpt><trkpt lat="40.623865" lon="15.1469283"><ele>173.16666666666666</ele><time>2026-04-12T08:12:30.967Z</time></trkpt><trkpt lat="40.623925" lon="15.146865"><ele>174.0</ele><time>2026-04-12T08:12:31.967Z</time></trkpt><trkpt lat="40.6239867" lon="15.1468033"><ele>174.0</ele><time>2026-04-12T08:12:32.967Z</time></trkpt><trkpt lat="40.62405" lon="15.1467333"><ele>174.0</ele><time>2026-04-12T08:12:33.967Z</time></trkpt><trkpt lat="40.6241117" lon="15.14666"><ele>174.0</ele><time>2026-04-12T08:12:34.967Z</time></trkpt><trkpt lat="40.6241733" lon="15.146595"><ele>174.0</ele><time>2026-04-12T08:12:35.967Z</time></trkpt><trkpt lat="40.6242383" lon="15.1465233"><ele>174.0</ele><time>2026-04-12T08:12:36.967Z</time></trkpt><trkpt lat="40.6243033" lon="15.1464417"><ele>174.0</ele><time>2026-04-12T08:12:37.968Z</time></trkpt><trkpt lat="40.6243717" lon="15.1463633"><ele>173.79999999999998</ele><time>2026-04-12T08:12:38.967Z</time></trkpt><trkpt lat="40.6244367" lon="15.14628"><ele>173.6</ele><time>2026-04-12T08:12:39.967Z</time></trkpt><trkpt lat="40.6245083" lon="15.1461933"><ele>173.4</ele><time>2026-04-12T08:12:40.967Z</time></trkpt><trkpt lat="40.6245817" lon="15.14611"><ele>173.2</ele><time>2026-04-12T08:12:41.968Z</time></trkpt><trkpt lat="40.6246517" lon="15.1460267"><ele>173.0</ele><time>2026-04-12T08:12:42.967Z</time></trkpt><trkpt lat="40.6247217" lon="15.1459483"><ele>172.83333333333331</ele><time>2026-04-12T08:12:43.967Z</time></trkpt><trkpt lat="40.624795" lon="15.1458633"><ele>172.66666666666666</ele><time>2026-04-12T08:12:44.967Z</time></trkpt><trkpt lat="40.6248683" lon="15.1457783"><ele>172.5</ele><time>2026-04-12T08:12:45.967Z</time></trkpt><trkpt lat="40.6249317" lon="15.1457067"><ele>172.33333333333334</ele><time>2026-04-12T08:12:46.967Z</time></trkpt><trkpt lat="40.624995" lon="15.1456367"><ele>172.16666666666669</ele><time>2026-04-12T08:12:47.967Z</time></trkpt><trkpt lat="40.6250583" lon="15.14556"><ele>172.0</ele><time>2026-04-12T08:12:48.967Z</time></trkpt><trkpt lat="40.62512" lon="15.1454917"><ele>172.0</ele><time>2026-04-12T08:12:49.967Z</time></trkpt><trkpt lat="40.6251817" lon="15.145425"><ele>172.0</ele><time>2026-04-12T08:12:50.967Z</time></trkpt><trkpt lat="40.6252383" lon="15.14535"><ele>172.0</ele><time>2026-04-12T08:12:51.967Z</time></trkpt><trkpt lat="40.62529" lon="15.14527"><ele>172.0</ele><time>2026-04-12T08:12:52.967Z</time></trkpt><trkpt lat="40.6253383" lon="15.1451833"><ele>172.0</ele><time>2026-04-12T08:12:53.967Z</time></trkpt><trkpt lat="40.6253817" lon="15.1450933"><ele>172.0</ele><time>2026-04-12T08:12:54.967Z</time></trkpt><trkpt lat="40.6254183" lon="15.145"><ele>172.00000000000003</ele><time>2026-04-12T08:12:55.968Z</time></trkpt><trkpt lat="40.62545" lon="15.144905"><ele>172.0</ele><time>2026-04-12T08:12:56.967Z</time></trkpt><trkpt lat="40.6254833" lon="15.1448117"><ele>172.0</ele><time>2026-04-12T08:12:57.967Z</time></trkpt><trkpt lat="40.6255117" lon="15.1447133"><ele>172.0</ele><time>2026-04-12T08:12:58.967Z</time></trkpt><trkpt lat="40.6255367" lon="15.1446167"><ele>172.0</ele><time>2026-04-12T08:12:59.967Z</time></trkpt><trkpt lat="40.625555" lon="15.144535"><ele>172.00000000000003</ele><time>2026-04-12T08:13:00.967Z</time></trkpt><trkpt lat="40.6255767" lon="15.1444533"><ele>172.0</ele><time>2026-04-12T08:13:02.967Z</time></trkpt><trkpt lat="40.6255767" lon="15.1443683"><ele>172.0</ele><time>2026-04-12T08:13:45.968Z</time></trkpt><trkpt lat="40.6255933" lon="15.1442367"><ele>172.0</ele><time>2026-04-12T08:13:47.967Z</time></trkpt><trkpt lat="40.6256183" lon="15.1440867"><ele>172.0</ele><time>2026-04-12T08:13:49.967Z</time></trkpt><trkpt lat="40.62564" lon="15.1439983"><ele>172.0</ele><time>2026-04-12T08:13:50.967Z</time></trkpt><trkpt lat="40.6256667" lon="15.1439083"><ele>172.0</ele><time>2026-04-12T08:13:51.967Z</time></trkpt><trkpt lat="40.6256983" lon="15.1438167"><ele>172.0</ele><time>2026-04-12T08:13:52.967Z</time></trkpt><trkpt lat="40.6257283" lon="15.1437267"><ele>171.42857142857144</ele><time>2026-04-12T08:13:53.967Z</time></trkpt><trkpt lat="40.6257567" lon="15.1436383"><ele>170.85714285714286</ele><time>2026-04-12T08:13:54.967Z</time></trkpt><trkpt lat="40.6257817" lon="15.1435517"><ele>170.28571428571428</ele><time>2026-04-12T08:13:55.967Z</time></trkpt><trkpt lat="40.6258017" lon="15.1434633"><ele>169.71428571428572</ele><time>2026-04-12T08:13:56.967Z</time></trkpt><trkpt lat="40.625825" lon="15.143375"><ele>169.14285714285714</ele><time>2026-04-12T08:13:57.967Z</time></trkpt><trkpt lat="40.6258483" lon="15.1432867"><ele>168.57142857142858</ele><time>2026-04-12T08:13:58.967Z</time></trkpt><trkpt lat="40.6258733" lon="15.143205"><ele>168.0</ele><time>2026-04-12T08:13:59.968Z</time></trkpt><trkpt lat="40.6259033" lon="15.1431217"><ele>167.57142857142858</ele><time>2026-04-12T08:14:00.967Z</time></trkpt><trkpt lat="40.6259433" lon="15.143055"><ele>167.14285714285714</ele><time>2026-04-12T08:14:01.967Z</time></trkpt><trkpt lat="40.625995" lon="15.143"><ele>166.71428571428572</ele><time>2026-04-12T08:14:02.967Z</time></trkpt><trkpt lat="40.6260533" lon="15.1429633"><ele>166.28571428571428</ele><time>2026-04-12T08:14:03.967Z</time></trkpt><trkpt lat="40.6261167" lon="15.1429483"><ele>165.85714285714286</ele><time>2026-04-12T08:14:04.967Z</time></trkpt><trkpt lat="40.6261867" lon="15.14293"><ele>165.42857142857144</ele><time>2026-04-12T08:14:05.967Z</time></trkpt><trkpt lat="40.6262583" lon="15.1429"><ele>165.0</ele><time>2026-04-12T08:14:06.967Z</time></trkpt><trkpt lat="40.6263183" lon="15.1428483"><ele>165.00000000000003</ele><time>2026-04-12T08:14:07.967Z</time></trkpt><trkpt lat="40.6263717" lon="15.1427817"><ele>165.0</ele><time>2026-04-12T08:14:08.967Z</time></trkpt><trkpt lat="40.626415" lon="15.14271"><ele>165.0</ele><time>2026-04-12T08:14:09.967Z</time></trkpt><trkpt lat="40.6264433" lon="15.1426267"><ele>165.0</ele><time>2026-04-12T08:14:10.967Z</time></trkpt><trkpt lat="40.626465" lon="15.1425333"><ele>165.0</ele><time>2026-04-12T08:14:11.967Z</time></trkpt><trkpt lat="40.626485" lon="15.142435"><ele>165.00000000000003</ele><time>2026-04-12T08:14:12.968Z</time></trkpt><trkpt lat="40.62651" lon="15.142335"><ele>165.0</ele><time>2026-04-12T08:14:13.967Z</time></trkpt><trkpt lat="40.6265333" lon="15.142235"><ele>166.0</ele><time>2026-04-12T08:14:14.967Z</time></trkpt><trkpt lat="40.6265617" lon="15.1421383"><ele>167.0</ele><time>2026-04-12T08:14:15.967Z</time></trkpt><trkpt lat="40.6265983" lon="15.1420467"><ele>168.0</ele><time>2026-04-12T08:14:16.967Z</time></trkpt><trkpt lat="40.6266317" lon="15.141965"><ele>169.0</ele><time>2026-04-12T08:14:17.967Z</time></trkpt><trkpt lat="40.62669" lon="15.141825"><ele>170.0</ele><time>2026-04-12T08:14:19.967Z</time></trkpt><trkpt lat="40.6267267" lon="15.1417567"><ele>171.0</ele><time>2026-04-12T08:14:20.967Z</time></trkpt><trkpt lat="40.6267733" lon="15.1417"><ele>170.99999999999997</ele><time>2026-04-12T08:14:21.967Z</time></trkpt><trkpt lat="40.626825" lon="15.141645"><ele>171.0</ele><time>2026-04-12T08:14:22.967Z</time></trkpt><trkpt lat="40.626875" lon="15.14159"><ele>171.0</ele><time>2026-04-12T08:14:23.967Z</time></trkpt><trkpt lat="40.6269217" lon="15.1415317"><ele>171.0</ele><time>2026-04-12T08:14:24.967Z</time></trkpt><trkpt lat="40.6269733" lon="15.1414783"><ele>171.0</ele><time>2026-04-12T08:14:25.967Z</time></trkpt><trkpt lat="40.627025" lon="15.1414183"><ele>170.99999999999997</ele><time>2026-04-12T08:14:26.967Z</time></trkpt><trkpt lat="40.6270717" lon="15.1413467"><ele>171.0</ele><time>2026-04-12T08:14:27.967Z</time></trkpt><trkpt lat="40.62712" lon="15.1412683"><ele>172.83333333333334</ele><time>2026-04-12T08:14:28.967Z</time></trkpt><trkpt lat="40.6271683" lon="15.1411917"><ele>174.66666666666666</ele><time>2026-04-12T08:14:29.967Z</time></trkpt><trkpt lat="40.6272133" lon="15.141115"><ele>176.5</ele><time>2026-04-12T08:14:30.967Z</time></trkpt><trkpt lat="40.6272583" lon="15.1410417"><ele>178.33333333333331</ele><time>2026-04-12T08:14:31.967Z</time></trkpt><trkpt lat="40.627305" lon="15.1409633"><ele>180.16666666666666</ele><time>2026-04-12T08:14:32.967Z</time></trkpt><trkpt lat="40.627355" lon="15.1408783"><ele>182.0</ele><time>2026-04-12T08:14:33.967Z</time></trkpt><trkpt lat="40.6274033" lon="15.14079"><ele>182.16666666666666</ele><time>2026-04-12T08:14:34.967Z</time></trkpt><trkpt lat="40.6274533" lon="15.1406983"><ele>182.33333333333331</ele><time>2026-04-12T08:14:35.967Z</time></trkpt><trkpt lat="40.6274967" lon="15.1406017"><ele>182.5</ele><time>2026-04-12T08:14:36.967Z</time></trkpt><trkpt lat="40.6275333" lon="15.1405017"><ele>182.66666666666666</ele><time>2026-04-12T08:14:37.967Z</time></trkpt><trkpt lat="40.6275767" lon="15.1404033"><ele>182.83333333333334</ele><time>2026-04-12T08:14:38.967Z</time></trkpt><trkpt lat="40.6276267" lon="15.1403033"><ele>183.0</ele><time>2026-04-12T08:14:39.967Z</time></trkpt><trkpt lat="40.627675" lon="15.1402167"><ele>183.0</ele><time>2026-04-12T08:14:40.967Z</time></trkpt><trkpt lat="40.6277317" lon="15.1401317"><ele>183.0</ele><time>2026-04-12T08:14:41.967Z</time></trkpt><trkpt lat="40.627785" lon="15.14004"><ele>183.0</ele><time>2026-04-12T08:14:42.967Z</time></trkpt><trkpt lat="40.6278367" lon="15.1399483"><ele>183.0</ele><time>2026-04-12T08:14:43.967Z</time></trkpt><trkpt lat="40.627895" lon="15.13986"><ele>183.0</ele><time>2026-04-12T08:14:44.967Z</time></trkpt><trkpt lat="40.62795" lon="15.1397917"><ele>183.0</ele><time>2026-04-12T08:14:45.967Z</time></trkpt><trkpt lat="40.6280317" lon="15.1397"><ele>184.16666666666666</ele><time>2026-04-12T08:14:47.967Z</time></trkpt><trkpt lat="40.6280867" lon="15.1396333"><ele>185.33333333333334</ele><time>2026-04-12T08:14:49.967Z</time></trkpt><trkpt lat="40.6281467" lon="15.13955"><ele>186.5</ele><time>2026-04-12T08:14:51.967Z</time></trkpt><trkpt lat="40.6282017" lon="15.1394583"><ele>187.66666666666669</ele><time>2026-04-12T08:14:53.967Z</time></trkpt><trkpt lat="40.6282517" lon="15.13939"><ele>188.83333333333334</ele><time>2026-04-12T08:14:55.967Z</time></trkpt><trkpt lat="40.6283" lon="15.13933"><ele>190.0</ele><time>2026-04-12T08:14:57.967Z</time></trkpt><trkpt lat="40.6283467" lon="15.13927"><ele>190.0</ele><time>2026-04-12T08:14:59.967Z</time></trkpt><trkpt lat="40.6283933" lon="15.1392117"><ele>190.0</ele><time>2026-04-12T08:15:01.967Z</time></trkpt><trkpt lat="40.628465" lon="15.139135"><ele>190.0</ele><time>2026-04-12T08:15:03.968Z</time></trkpt><trkpt lat="40.62857" lon="15.139025"><ele>190.0</ele><time>2026-04-12T08:15:05.967Z</time></trkpt><trkpt lat="40.628625" lon="15.13897"><ele>190.0</ele><time>2026-04-12T08:15:06.967Z</time></trkpt><trkpt lat="40.6286817" lon="15.1389117"><ele>190.0</ele><time>2026-04-12T08:15:07.967Z</time></trkpt><trkpt lat="40.6287417" lon="15.1388583"><ele>189.83333333333334</ele><time>2026-04-12T08:15:08.967Z</time></trkpt><trkpt lat="40.628835" lon="15.1387617"><ele>189.66666666666669</ele><time>2026-04-12T08:15:10.967Z</time></trkpt><trkpt lat="40.6288917" lon="15.138685"><ele>189.5</ele><time>2026-04-12T08:15:12.967Z</time></trkpt><trkpt lat="40.6288633" lon="15.1386083"><ele>189.33333333333334</ele><time>2026-04-12T08:15:15.967Z</time></trkpt><trkpt lat="40.6287667" lon="15.1386017"><ele>189.16666666666666</ele><time>2026-04-12T08:15:17.967Z</time></trkpt><trkpt lat="40.6286983" lon="15.138605"><ele>189.0</ele><time>2026-04-12T08:15:18.967Z</time></trkpt><trkpt lat="40.6286233" lon="15.138605"><ele>189.0</ele><time>2026-04-12T08:15:19.967Z</time></trkpt><trkpt lat="40.628545" lon="15.13861"><ele>189.0</ele><time>2026-04-12T08:15:20.967Z</time></trkpt><trkpt lat="40.628465" lon="15.1386183"><ele>189.0</ele><time>2026-04-12T08:15:21.967Z</time></trkpt><trkpt lat="40.62838" lon="15.13862"><ele>189.0</ele><time>2026-04-12T08:15:22.967Z</time></trkpt><trkpt lat="40.6282917" lon="15.13862"><ele>189.0</ele><time>2026-04-12T08:15:23.967Z</time></trkpt><trkpt lat="40.6281983" lon="15.1386217"><ele>189.0</ele><time>2026-04-12T08:15:24.968Z</time></trkpt><trkpt lat="40.6281017" lon="15.1386267"><ele>189.0</ele><time>2026-04-12T08:15:25.967Z</time></trkpt><trkpt lat="40.6280017" lon="15.1386367"><ele>189.0</ele><time>2026-04-12T08:15:26.967Z</time></trkpt><trkpt lat="40.627905" lon="15.1386417"><ele>189.0</ele><time>2026-04-12T08:15:27.967Z</time></trkpt><trkpt lat="40.6278067" lon="15.13865"><ele>189.0</ele><time>2026-04-12T08:15:28.967Z</time></trkpt><trkpt lat="40.6277017" lon="15.1386583"><ele>189.0</ele><time>2026-04-12T08:15:29.967Z</time></trkpt><trkpt lat="40.6275967" lon="15.13866"><ele>188.0</ele><time>2026-04-12T08:15:30.967Z</time></trkpt><trkpt lat="40.6274917" lon="15.1386583"><ele>187.0</ele><time>2026-04-12T08:15:31.967Z</time></trkpt><trkpt lat="40.6273867" lon="15.1386567"><ele>186.0</ele><time>2026-04-12T08:15:32.967Z</time></trkpt><trkpt lat="40.6272883" lon="15.1386583"><ele>185.0</ele><time>2026-04-12T08:15:33.967Z</time></trkpt><trkpt lat="40.6271867" lon="15.13866"><ele>184.0</ele><time>2026-04-12T08:15:34.967Z</time></trkpt><trkpt lat="40.6270917" lon="15.1386617"><ele>184.0</ele><time>2026-04-12T08:15:35.967Z</time></trkpt><trkpt lat="40.6269967" lon="15.1386733"><ele>184.0</ele><time>2026-04-12T08:15:36.968Z</time></trkpt><trkpt lat="40.6268967" lon="15.138685"><ele>184.0</ele><time>2026-04-12T08:15:37.967Z</time></trkpt><trkpt lat="40.6267983" lon="15.1387017"><ele>184.0</ele><time>2026-04-12T08:15:38.967Z</time></trkpt><trkpt lat="40.6267033" lon="15.13872"><ele>184.0</ele><time>2026-04-12T08:15:39.967Z</time></trkpt><trkpt lat="40.6266067" lon="15.1387417"><ele>182.39999999999998</ele><time>2026-04-12T08:15:40.968Z</time></trkpt><trkpt lat="40.62651" lon="15.138755"><ele>180.8</ele><time>2026-04-12T08:15:41.967Z</time></trkpt><trkpt lat="40.62641" lon="15.1387533"><ele>179.2</ele><time>2026-04-12T08:15:42.967Z</time></trkpt><trkpt lat="40.62631" lon="15.1387483"><ele>177.60000000000002</ele><time>2026-04-12T08:15:43.967Z</time></trkpt><trkpt lat="40.6262117" lon="15.1387383"><ele>176.0</ele><time>2026-04-12T08:15:44.967Z</time></trkpt><trkpt lat="40.62611" lon="15.1387317"><ele>174.60000000000002</ele><time>2026-04-12T08:15:45.967Z</time></trkpt><trkpt lat="40.6260067" lon="15.138725"><ele>173.2</ele><time>2026-04-12T08:15:46.967Z</time></trkpt><trkpt lat="40.6259067" lon="15.1387233"><ele>171.8</ele><time>2026-04-12T08:15:47.968Z</time></trkpt><trkpt lat="40.6257983" lon="15.1387067"><ele>170.39999999999998</ele><time>2026-04-12T08:15:48.967Z</time></trkpt><trkpt lat="40.62569" lon="15.1386833"><ele>169.0</ele><time>2026-04-12T08:15:49.967Z</time></trkpt><trkpt lat="40.6255833" lon="15.1386683"><ele>169.0</ele><time>2026-04-12T08:15:50.967Z</time></trkpt><trkpt lat="40.6254733" lon="15.1386533"><ele>169.0</ele><time>2026-04-12T08:15:51.967Z</time></trkpt><trkpt lat="40.6253617" lon="15.1386367"><ele>169.0</ele><time>2026-04-12T08:15:52.968Z</time></trkpt><trkpt lat="40.62525" lon="15.13863"><ele>169.0</ele><time>2026-04-12T08:15:53.967Z</time></trkpt><trkpt lat="40.62514" lon="15.1386267"><ele>169.0</ele><time>2026-04-12T08:15:54.967Z</time></trkpt><trkpt lat="40.62503" lon="15.13862"><ele>167.79999999999998</ele><time>2026-04-12T08:15:55.967Z</time></trkpt><trkpt lat="40.624925" lon="15.1386083"><ele>166.6</ele><time>2026-04-12T08:15:56.967Z</time></trkpt><trkpt lat="40.6248183" lon="15.1385867"><ele>165.4</ele><time>2026-04-12T08:15:57.967Z</time></trkpt><trkpt lat="40.624715" lon="15.1385583"><ele>164.2</ele><time>2026-04-12T08:15:58.967Z</time></trkpt><trkpt lat="40.624615" lon="15.1385267"><ele>163.0</ele><time>2026-04-12T08:15:59.967Z</time></trkpt><trkpt lat="40.62452" lon="15.1384933"><ele>162.16666666666669</ele><time>2026-04-12T08:16:00.967Z</time></trkpt><trkpt lat="40.6244233" lon="15.13846"><ele>161.33333333333334</ele><time>2026-04-12T08:16:01.967Z</time></trkpt><trkpt lat="40.6243333" lon="15.13843"><ele>160.5</ele><time>2026-04-12T08:16:02.967Z</time></trkpt><trkpt lat="40.6242467" lon="15.1384"><ele>159.66666666666666</ele><time>2026-04-12T08:16:03.967Z</time></trkpt><trkpt lat="40.6241683" lon="15.1383683"><ele>158.83333333333331</ele><time>2026-04-12T08:16:04.967Z</time></trkpt><trkpt lat="40.6240933" lon="15.13834"><ele>158.0</ele><time>2026-04-12T08:16:05.967Z</time></trkpt><trkpt lat="40.6240217" lon="15.1383167"><ele>158.0</ele><time>2026-04-12T08:16:06.967Z</time></trkpt><trkpt lat="40.6239533" lon="15.1382917"><ele>158.0</ele><time>2026-04-12T08:16:07.967Z</time></trkpt><trkpt lat="40.6238883" lon="15.138265"><ele>158.0</ele><time>2026-04-12T08:16:08.967Z</time></trkpt><trkpt lat="40.6237683" lon="15.1382167"><ele>158.0</ele><time>2026-04-12T08:16:10.968Z</time></trkpt><trkpt lat="40.6236817" lon="15.13819"><ele>158.0</ele><time>2026-04-12T08:16:12.967Z</time></trkpt><trkpt lat="40.6236133" lon="15.1382067"><ele>158.0</ele><time>2026-04-12T08:16:15.967Z</time></trkpt><trkpt lat="40.6235533" lon="15.1382833"><ele>157.20000000000002</ele><time>2026-04-12T08:16:17.968Z</time></trkpt><trkpt lat="40.6234967" lon="15.13844"><ele>156.4</ele><time>2026-04-12T08:16:19.967Z</time></trkpt><trkpt lat="40.6234683" lon="15.13854"><ele>155.60000000000002</ele><time>2026-04-12T08:16:20.967Z</time></trkpt><trkpt lat="40.6234433" lon="15.1386417"><ele>154.8</ele><time>2026-04-12T08:16:21.968Z</time></trkpt><trkpt lat="40.6234217" lon="15.1387533"><ele>154.0</ele><time>2026-04-12T08:16:22.967Z</time></trkpt><trkpt lat="40.6234" lon="15.138865"><ele>154.0</ele><time>2026-04-12T08:16:23.967Z</time></trkpt><trkpt lat="40.62338" lon="15.1389817"><ele>154.0</ele><time>2026-04-12T08:16:24.967Z</time></trkpt><trkpt lat="40.6233617" lon="15.1390933"><ele>154.0</ele><time>2026-04-12T08:16:25.967Z</time></trkpt><trkpt lat="40.6233517" lon="15.139185"><ele>154.0</ele><time>2026-04-12T08:16:26.967Z</time></trkpt><trkpt lat="40.6233233" lon="15.1392833"><ele>154.0</ele><time>2026-04-12T08:16:28.967Z</time></trkpt><trkpt lat="40.6232983" lon="15.1393783"><ele>154.0</ele><time>2026-04-12T08:16:41.967Z</time></trkpt><trkpt lat="40.623265" lon="15.1395267"><ele>154.16666666666669</ele><time>2026-04-12T08:16:43.967Z</time></trkpt><trkpt lat="40.6232267" lon="15.13968"><ele>154.33333333333334</ele><time>2026-04-12T08:16:45.967Z</time></trkpt><trkpt lat="40.6232033" lon="15.1397617"><ele>154.5</ele><time>2026-04-12T08:16:46.967Z</time></trkpt><trkpt lat="40.6231867" lon="15.1398467"><ele>154.66666666666666</ele><time>2026-04-12T08:16:47.967Z</time></trkpt><trkpt lat="40.6231667" lon="15.1399267"><ele>154.83333333333331</ele><time>2026-04-12T08:16:48.967Z</time></trkpt><trkpt lat="40.62314" lon="15.1400683"><ele>155.0</ele><time>2026-04-12T08:16:50.967Z</time></trkpt><trkpt lat="40.6231117" lon="15.1401517"><ele>154.5</ele><time>2026-04-12T08:17:00.967Z</time></trkpt><trkpt lat="40.62308" lon="15.14024"><ele>154.0</ele><time>2026-04-12T08:17:03.967Z</time></trkpt><trkpt lat="40.6230367" lon="15.1403167"><ele>153.5</ele><time>2026-04-12T08:17:10.967Z</time></trkpt><trkpt lat="40.62299" lon="15.14038"><ele>153.0</ele><time>2026-04-12T08:17:12.967Z</time></trkpt><trkpt lat="40.6229283" lon="15.14046"><ele>152.5</ele><time>2026-04-12T08:17:14.967Z</time></trkpt><trkpt lat="40.6228633" lon="15.1405383"><ele>152.0</ele><time>2026-04-12T08:17:16.967Z</time></trkpt><trkpt lat="40.6228067" lon="15.1407"><ele>149.79999999999998</ele><time>2026-04-12T08:18:16.967Z</time></trkpt><trkpt lat="40.6227867" lon="15.1407967"><ele>147.6</ele><time>2026-04-12T08:18:18.967Z</time></trkpt><trkpt lat="40.6227433" lon="15.1409183"><ele>145.39999999999998</ele><time>2026-04-12T08:18:20.967Z</time></trkpt><trkpt lat="40.6226833" lon="15.1410417"><ele>143.2</ele><time>2026-04-12T08:18:22.967Z</time></trkpt><trkpt lat="40.6226167" lon="15.14114"><ele>141.0</ele><time>2026-04-12T08:18:24.967Z</time></trkpt><trkpt lat="40.622525" lon="15.141235"><ele>141.0</ele><time>2026-04-12T08:18:26.967Z</time></trkpt><trkpt lat="40.6224733" lon="15.141285"><ele>141.0</ele><time>2026-04-12T08:18:27.967Z</time></trkpt><trkpt lat="40.6224183" lon="15.1413317"><ele>141.0</ele><time>2026-04-12T08:18:28.967Z</time></trkpt><trkpt lat="40.6223567" lon="15.1413783"><ele>141.0</ele><time>2026-04-12T08:18:29.967Z</time></trkpt><trkpt lat="40.622295" lon="15.1414183"><ele>141.0</ele><time>2026-04-12T08:18:30.967Z</time></trkpt><trkpt lat="40.6222333" lon="15.1414533"><ele>141.0</ele><time>2026-04-12T08:18:31.967Z</time></trkpt><trkpt lat="40.62217" lon="15.1414717"><ele>141.0</ele><time>2026-04-12T08:18:32.967Z</time></trkpt><trkpt lat="40.6221067" lon="15.1414933"><ele>141.0</ele><time>2026-04-12T08:18:33.967Z</time></trkpt><trkpt lat="40.621985" lon="15.1415217"><ele>141.0</ele><time>2026-04-12T08:18:35.967Z</time></trkpt><trkpt lat="40.6219217" lon="15.1415283"><ele>141.0</ele><time>2026-04-12T08:18:36.967Z</time></trkpt><trkpt lat="40.6218117" lon="15.1415733"><ele>141.0</ele><time>2026-04-12T08:18:38.967Z</time></trkpt><trkpt lat="40.6217267" lon="15.1416583"><ele>141.0</ele><time>2026-04-12T08:18:40.967Z</time></trkpt><trkpt lat="40.6216517" lon="15.1417783"><ele>141.66666666666666</ele><time>2026-04-12T08:18:42.967Z</time></trkpt><trkpt lat="40.62161" lon="15.1418417"><ele>142.33333333333334</ele><time>2026-04-12T08:18:43.967Z</time></trkpt><trkpt lat="40.6215633" lon="15.1419067"><ele>143.0</ele><time>2026-04-12T08:18:44.967Z</time></trkpt><trkpt lat="40.6214717" lon="15.1420167"><ele>143.66666666666669</ele><time>2026-04-12T08:18:46.967Z</time></trkpt><trkpt lat="40.6213867" lon="15.1421267"><ele>144.33333333333334</ele><time>2026-04-12T08:18:48.968Z</time></trkpt><trkpt lat="40.6213367" lon="15.142185"><ele>145.0</ele><time>2026-04-12T08:18:49.967Z</time></trkpt><trkpt lat="40.6212883" lon="15.14225"><ele>145.0</ele><time>2026-04-12T08:18:50.967Z</time></trkpt><trkpt lat="40.6212383" lon="15.1423067"><ele>145.0</ele><time>2026-04-12T08:18:51.967Z</time></trkpt><trkpt lat="40.6211833" lon="15.142365"><ele>145.0</ele><time>2026-04-12T08:18:52.968Z</time></trkpt><trkpt lat="40.6211333" lon="15.142425"><ele>145.0</ele><time>2026-04-12T08:18:53.967Z</time></trkpt><trkpt lat="40.6210833" lon="15.1424833"><ele>145.0</ele><time>2026-04-12T08:18:54.967Z</time></trkpt><trkpt lat="40.6210333" lon="15.1425433"><ele>145.0</ele><time>2026-04-12T08:18:55.967Z</time></trkpt><trkpt lat="40.6209867" lon="15.142605"><ele>145.0</ele><time>2026-04-12T08:18:56.967Z</time></trkpt><trkpt lat="40.62094" lon="15.142665"><ele>144.83333333333334</ele><time>2026-04-12T08:18:57.967Z</time></trkpt><trkpt lat="40.62089" lon="15.1427167"><ele>144.66666666666669</ele><time>2026-04-12T08:18:58.967Z</time></trkpt><trkpt lat="40.6207833" lon="15.1428117"><ele>144.5</ele><time>2026-04-12T08:19:00.967Z</time></trkpt><trkpt lat="40.62072" lon="15.1428667"><ele>144.33333333333334</ele><time>2026-04-12T08:19:01.967Z</time></trkpt><trkpt lat="40.6206617" lon="15.14293"><ele>144.16666666666666</ele><time>2026-04-12T08:19:02.967Z</time></trkpt><trkpt lat="40.6206017" lon="15.1429983"><ele>144.0</ele><time>2026-04-12T08:19:03.967Z</time></trkpt><trkpt lat="40.6205433" lon="15.1430667"><ele>144.0</ele><time>2026-04-12T08:19:04.967Z</time></trkpt><trkpt lat="40.6204783" lon="15.1431317"><ele>144.0</ele><time>2026-04-12T08:19:05.968Z</time></trkpt><trkpt lat="40.6204217" lon="15.143195"><ele>144.0</ele><time>2026-04-12T08:19:06.967Z</time></trkpt><trkpt lat="40.6203733" lon="15.143255"><ele>144.0</ele><time>2026-04-12T08:19:07.967Z</time></trkpt><trkpt lat="40.6202917" lon="15.14335"><ele>144.0</ele><time>2026-04-12T08:19:09.968Z</time></trkpt><trkpt lat="40.6202417" lon="15.143405"><ele>144.0</ele><time>2026-04-12T08:19:11.967Z</time></trkpt><trkpt lat="40.6201533" lon="15.1434117"><ele>143.2</ele><time>2026-04-12T08:19:14.967Z</time></trkpt><trkpt lat="40.6200733" lon="15.1433467"><ele>142.4</ele><time>2026-04-12T08:19:16.967Z</time></trkpt><trkpt lat="40.6199717" lon="15.14327"><ele>141.6</ele><time>2026-04-12T08:19:18.967Z</time></trkpt><trkpt lat="40.6198633" lon="15.1431983"><ele>140.8</ele><time>2026-04-12T08:19:20.967Z</time></trkpt><trkpt lat="40.6198083" lon="15.1431567"><ele>140.0</ele><time>2026-04-12T08:19:21.967Z</time></trkpt><trkpt lat="40.619705" lon="15.14307"><ele>139.66666666666666</ele><time>2026-04-12T08:19:23.967Z</time></trkpt><trkpt lat="40.6196383" lon="15.143015"><ele>139.33333333333331</ele><time>2026-04-12T08:19:25.967Z</time></trkpt><trkpt lat="40.6195667" lon="15.1429767"><ele>139.0</ele><time>2026-04-12T08:19:27.967Z</time></trkpt><trkpt lat="40.6194733" lon="15.1429267"><ele>138.66666666666666</ele><time>2026-04-12T08:19:29.968Z</time></trkpt><trkpt lat="40.6193717" lon="15.14285"><ele>138.33333333333334</ele><time>2026-04-12T08:19:31.967Z</time></trkpt><trkpt lat="40.6193133" lon="15.142805"><ele>138.0</ele><time>2026-04-12T08:19:32.967Z</time></trkpt><trkpt lat="40.6192583" lon="15.14276"><ele>137.25</ele><time>2026-04-12T08:19:33.967Z</time></trkpt><trkpt lat="40.6191583" lon="15.142675"><ele>136.5</ele><time>2026-04-12T08:19:35.967Z</time></trkpt><trkpt lat="40.619065" lon="15.1425917"><ele>135.75</ele><time>2026-04-12T08:19:37.967Z</time></trkpt><trkpt lat="40.618975" lon="15.142505"><ele>135.0</ele><time>2026-04-12T08:19:39.967Z</time></trkpt><trkpt lat="40.618885" lon="15.14243"><ele>134.25</ele><time>2026-04-12T08:19:41.967Z</time></trkpt><trkpt lat="40.6187883" lon="15.1423533"><ele>133.5</ele><time>2026-04-12T08:19:43.967Z</time></trkpt><trkpt lat="40.6186883" lon="15.1422767"><ele>132.75</ele><time>2026-04-12T08:19:45.968Z</time></trkpt><trkpt lat="40.61859" lon="15.1422033"><ele>132.0</ele><time>2026-04-12T08:19:47.967Z</time></trkpt><trkpt lat="40.6184917" lon="15.1421233"><ele>131.0</ele><time>2026-04-12T08:19:49.967Z</time></trkpt><trkpt lat="40.61839" lon="15.1420417"><ele>130.0</ele><time>2026-04-12T08:19:51.967Z</time></trkpt><trkpt lat="40.61829" lon="15.1419517"><ele>129.0</ele><time>2026-04-12T08:19:53.967Z</time></trkpt><trkpt lat="40.61818" lon="15.1418767"><ele>128.0</ele><time>2026-04-12T08:19:55.966Z</time></trkpt><trkpt lat="40.6181267" lon="15.1418317"><ele>127.0</ele><time>2026-04-12T08:19:56.966Z</time></trkpt><trkpt lat="40.6180233" lon="15.141745"><ele>127.0</ele><time>2026-04-12T08:19:58.966Z</time></trkpt><trkpt lat="40.6179267" lon="15.1416783"><ele>126.99999999999999</ele><time>2026-04-12T08:20:00.966Z</time></trkpt><trkpt lat="40.6178317" lon="15.1415933"><ele>126.99999999999999</ele><time>2026-04-12T08:20:02.966Z</time></trkpt><trkpt lat="40.6177583" lon="15.1415317"><ele>127.0</ele><time>2026-04-12T08:20:04.966Z</time></trkpt><trkpt lat="40.6176933" lon="15.1414683"><ele>127.0</ele><time>2026-04-12T08:20:07.966Z</time></trkpt><trkpt lat="40.6176817" lon="15.141365"><ele>126.66666666666667</ele><time>2026-04-12T08:20:11.966Z</time></trkpt><trkpt lat="40.617725" lon="15.1412933"><ele>126.33333333333334</ele><time>2026-04-12T08:20:14.966Z</time></trkpt><trkpt lat="40.6177583" lon="15.141195"><ele>126.0</ele><time>2026-04-12T08:20:16.966Z</time></trkpt><trkpt lat="40.6177833" lon="15.1410683"><ele>125.66666666666666</ele><time>2026-04-12T08:20:18.966Z</time></trkpt><trkpt lat="40.6178067" lon="15.1409583"><ele>125.33333333333333</ele><time>2026-04-12T08:20:20.966Z</time></trkpt><trkpt lat="40.6178333" lon="15.1408617"><ele>125.0</ele><time>2026-04-12T08:20:22.967Z</time></trkpt><trkpt lat="40.6178683" lon="15.1407017"><ele>124.49999999999999</ele><time>2026-04-12T08:20:24.966Z</time></trkpt><trkpt lat="40.6178933" lon="15.1406067"><ele>124.0</ele><time>2026-04-12T08:20:25.966Z</time></trkpt><trkpt lat="40.6179217" lon="15.1405083"><ele>123.5</ele><time>2026-04-12T08:20:26.967Z</time></trkpt><trkpt lat="40.6179633" lon="15.1404317"><ele>123.0</ele><time>2026-04-12T08:20:27.966Z</time></trkpt><trkpt lat="40.6180133" lon="15.1403767"><ele>122.49999999999999</ele><time>2026-04-12T08:20:28.967Z</time></trkpt><trkpt lat="40.6181267" lon="15.140295"><ele>122.0</ele><time>2026-04-12T08:20:30.966Z</time></trkpt><trkpt lat="40.618195" lon="15.1402567"><ele>121.99999999999999</ele><time>2026-04-12T08:20:31.966Z</time></trkpt><trkpt lat="40.6182583" lon="15.140215"><ele>122.0</ele><time>2026-04-12T08:20:32.966Z</time></trkpt><trkpt lat="40.6183233" lon="15.1401683"><ele>122.0</ele><time>2026-04-12T08:20:33.966Z</time></trkpt><trkpt lat="40.6183867" lon="15.1401267"><ele>122.0</ele><time>2026-04-12T08:20:34.966Z</time></trkpt><trkpt lat="40.6184483" lon="15.1400833"><ele>121.99999999999999</ele><time>2026-04-12T08:20:35.967Z</time></trkpt><trkpt lat="40.6185067" lon="15.14004"><ele>122.0</ele><time>2026-04-12T08:20:36.966Z</time></trkpt><trkpt lat="40.618615" lon="15.1399683"><ele>122.0</ele><time>2026-04-12T08:20:38.966Z</time></trkpt><trkpt lat="40.618715" lon="15.1398967"><ele>121.99999999999999</ele><time>2026-04-12T08:20:40.966Z</time></trkpt><trkpt lat="40.6187733" lon="15.139855"><ele>121.99999999999999</ele><time>2026-04-12T08:20:41.966Z</time></trkpt><trkpt lat="40.61889" lon="15.13979"><ele>122.0</ele><time>2026-04-12T08:20:43.966Z</time></trkpt><trkpt lat="40.618955" lon="15.1397467"><ele>122.0</ele><time>2026-04-12T08:20:44.966Z</time></trkpt><trkpt lat="40.61902" lon="15.1397017"><ele>121.99999999999999</ele><time>2026-04-12T08:20:45.966Z</time></trkpt><trkpt lat="40.619085" lon="15.1396567"><ele>122.0</ele><time>2026-04-12T08:20:46.966Z</time></trkpt><trkpt lat="40.61915" lon="15.1396167"><ele>122.0</ele><time>2026-04-12T08:20:47.966Z</time></trkpt><trkpt lat="40.61922" lon="15.13957"><ele>122.0</ele><time>2026-04-12T08:20:48.966Z</time></trkpt><trkpt lat="40.61929" lon="15.139525"><ele>121.99999999999999</ele><time>2026-04-12T08:20:49.966Z</time></trkpt><trkpt lat="40.6193617" lon="15.1394783"><ele>122.0</ele><time>2026-04-12T08:20:50.967Z</time></trkpt><trkpt lat="40.6194367" lon="15.1394267"><ele>122.7142857142857</ele><time>2026-04-12T08:20:51.966Z</time></trkpt><trkpt lat="40.61951" lon="15.1393833"><ele>123.42857142857142</ele><time>2026-04-12T08:20:52.966Z</time></trkpt><trkpt lat="40.6195783" lon="15.1393367"><ele>124.14285714285714</ele><time>2026-04-12T08:20:53.966Z</time></trkpt><trkpt lat="40.6196417" lon="15.1392917"><ele>124.85714285714285</ele><time>2026-04-12T08:20:54.966Z</time></trkpt><trkpt lat="40.619705" lon="15.139245"><ele>125.57142857142856</ele><time>2026-04-12T08:20:55.966Z</time></trkpt><trkpt lat="40.6197633" lon="15.139205"><ele>126.28571428571429</ele><time>2026-04-12T08:20:56.966Z</time></trkpt><trkpt lat="40.61982" lon="15.1391533"><ele>127.0</ele><time>2026-04-12T08:20:57.966Z</time></trkpt><trkpt lat="40.6198633" lon="15.13909"><ele>127.57142857142858</ele><time>2026-04-12T08:20:58.966Z</time></trkpt><trkpt lat="40.61989" lon="15.1390117"><ele>128.14285714285714</ele><time>2026-04-12T08:20:59.966Z</time></trkpt><trkpt lat="40.6199083" lon="15.1389283"><ele>128.71428571428572</ele><time>2026-04-12T08:21:00.966Z</time></trkpt><trkpt lat="40.6199183" lon="15.1388433"><ele>129.28571428571428</ele><time>2026-04-12T08:21:01.966Z</time></trkpt><trkpt lat="40.6199133" lon="15.138755"><ele>129.85714285714286</ele><time>2026-04-12T08:21:02.967Z</time></trkpt><trkpt lat="40.6199" lon="15.1386583"><ele>130.42857142857144</ele><time>2026-04-12T08:21:03.966Z</time></trkpt><trkpt lat="40.6198767" lon="15.1385533"><ele>131.0</ele><time>2026-04-12T08:21:04.966Z</time></trkpt><trkpt lat="40.6198467" lon="15.13844"><ele>131.0</ele><time>2026-04-12T08:21:05.966Z</time></trkpt><trkpt lat="40.61981" lon="15.1383367"><ele>131.0</ele><time>2026-04-12T08:21:06.966Z</time></trkpt><trkpt lat="40.6197667" lon="15.13826"><ele>131.0</ele><time>2026-04-12T08:21:07.966Z</time></trkpt><trkpt lat="40.61971" lon="15.138215"><ele>131.0</ele><time>2026-04-12T08:21:08.967Z</time></trkpt><trkpt lat="40.6196267" lon="15.1381983"><ele>131.0</ele><time>2026-04-12T08:21:09.966Z</time></trkpt><trkpt lat="40.6195517" lon="15.1381983"><ele>131.0</ele><time>2026-04-12T08:21:10.966Z</time></trkpt><trkpt lat="40.6194833" lon="15.1381617"><ele>131.16666666666666</ele><time>2026-04-12T08:21:11.966Z</time></trkpt><trkpt lat="40.6194367" lon="15.138105"><ele>131.33333333333331</ele><time>2026-04-12T08:21:12.966Z</time></trkpt><trkpt lat="40.61941" lon="15.1379467"><ele>131.5</ele><time>2026-04-12T08:21:14.966Z</time></trkpt><trkpt lat="40.6194333" lon="15.1378167"><ele>131.66666666666666</ele><time>2026-04-12T08:21:16.966Z</time></trkpt><trkpt lat="40.6194367" lon="15.1377117"><ele>131.83333333333334</ele><time>2026-04-12T08:21:19.966Z</time></trkpt><trkpt lat="40.619385" lon="15.13766"><ele>132.0</ele><time>2026-04-12T08:21:30.966Z</time></trkpt><trkpt lat="40.6193133" lon="15.13761"><ele>132.0</ele><time>2026-04-12T08:21:32.966Z</time></trkpt><trkpt lat="40.6192267" lon="15.13755"><ele>132.0</ele><time>2026-04-12T08:21:34.966Z</time></trkpt><trkpt lat="40.6191433" lon="15.1374317"><ele>132.0</ele><time>2026-04-12T08:21:36.966Z</time></trkpt><trkpt lat="40.6191" lon="15.1373683"><ele>132.0</ele><time>2026-04-12T08:21:37.966Z</time></trkpt><trkpt lat="40.6190533" lon="15.1373"><ele>132.0</ele><time>2026-04-12T08:21:38.966Z</time></trkpt><trkpt lat="40.6190117" lon="15.1372133"><ele>132.0</ele><time>2026-04-12T08:21:39.966Z</time></trkpt><trkpt lat="40.61897" lon="15.1371267"><ele>132.2</ele><time>2026-04-12T08:21:40.966Z</time></trkpt><trkpt lat="40.6189217" lon="15.1370283"><ele>132.39999999999998</ele><time>2026-04-12T08:21:41.966Z</time></trkpt><trkpt lat="40.6188783" lon="15.1369167"><ele>132.60000000000002</ele><time>2026-04-12T08:21:42.966Z</time></trkpt><trkpt lat="40.61883" lon="15.1368133"><ele>132.8</ele><time>2026-04-12T08:21:43.966Z</time></trkpt><trkpt lat="40.618785" lon="15.1367"><ele>133.0</ele><time>2026-04-12T08:21:44.966Z</time></trkpt><trkpt lat="40.6187483" lon="15.1365933"><ele>133.0</ele><time>2026-04-12T08:21:45.966Z</time></trkpt><trkpt lat="40.61871" lon="15.1364933"><ele>133.0</ele><time>2026-04-12T08:21:46.966Z</time></trkpt><trkpt lat="40.61868" lon="15.1363983"><ele>133.0</ele><time>2026-04-12T08:21:47.966Z</time></trkpt><trkpt lat="40.61866" lon="15.1362967"><ele>133.0</ele><time>2026-04-12T08:21:48.966Z</time></trkpt><trkpt lat="40.618645" lon="15.136185"><ele>133.0</ele><time>2026-04-12T08:21:49.966Z</time></trkpt><trkpt lat="40.6186317" lon="15.136065"><ele>133.0</ele><time>2026-04-12T08:21:50.966Z</time></trkpt><trkpt lat="40.6186233" lon="15.13595"><ele>132.85714285714286</ele><time>2026-04-12T08:21:51.966Z</time></trkpt><trkpt lat="40.6186233" lon="15.1358483"><ele>132.71428571428572</ele><time>2026-04-12T08:21:52.967Z</time></trkpt><trkpt lat="40.618635" lon="15.1357517"><ele>132.57142857142856</ele><time>2026-04-12T08:21:53.966Z</time></trkpt><trkpt lat="40.6186533" lon="15.1356667"><ele>132.42857142857144</ele><time>2026-04-12T08:21:54.966Z</time></trkpt><trkpt lat="40.6186733" lon="15.13558"><ele>132.28571428571428</ele><time>2026-04-12T08:21:55.966Z</time></trkpt><trkpt lat="40.6187067" lon="15.135505"><ele>132.14285714285714</ele><time>2026-04-12T08:21:56.966Z</time></trkpt><trkpt lat="40.6187483" lon="15.1354267"><ele>132.0</ele><time>2026-04-12T08:21:57.967Z</time></trkpt><trkpt lat="40.61879" lon="15.135345"><ele>132.0</ele><time>2026-04-12T08:21:58.966Z</time></trkpt><trkpt lat="40.61884" lon="15.135265"><ele>132.0</ele><time>2026-04-12T08:21:59.966Z</time></trkpt><trkpt lat="40.618885" lon="15.1351917"><ele>132.0</ele><time>2026-04-12T08:22:00.966Z</time></trkpt><trkpt lat="40.6189483" lon="15.1350783"><ele>132.0</ele><time>2026-04-12T08:22:02.967Z</time></trkpt><trkpt lat="40.6189717" lon="15.1349733"><ele>132.0</ele><time>2026-04-12T08:22:05.966Z</time></trkpt><trkpt lat="40.6189617" lon="15.1348517"><ele>132.0</ele><time>2026-04-12T08:22:07.966Z</time></trkpt><trkpt lat="40.6189433" lon="15.1347683"><ele>131.83333333333334</ele><time>2026-04-12T08:22:08.967Z</time></trkpt><trkpt lat="40.61892" lon="15.13469"><ele>131.66666666666666</ele><time>2026-04-12T08:22:09.966Z</time></trkpt><trkpt lat="40.6189083" lon="15.1345517"><ele>131.5</ele><time>2026-04-12T08:22:11.966Z</time></trkpt><trkpt lat="40.6189383" lon="15.1343933"><ele>131.33333333333331</ele><time>2026-04-12T08:22:13.966Z</time></trkpt><trkpt lat="40.61896" lon="15.1343"><ele>131.16666666666666</ele><time>2026-04-12T08:22:14.966Z</time></trkpt><trkpt lat="40.6189783" lon="15.1342083"><ele>131.0</ele><time>2026-04-12T08:22:15.967Z</time></trkpt><trkpt lat="40.619" lon="15.1341133"><ele>130.8</ele><time>2026-04-12T08:22:16.966Z</time></trkpt><trkpt lat="40.6190233" lon="15.1339917"><ele>130.6</ele><time>2026-04-12T08:22:17.966Z</time></trkpt><trkpt lat="40.6190383" lon="15.1338533"><ele>130.4</ele><time>2026-04-12T08:22:18.966Z</time></trkpt><trkpt lat="40.6190567" lon="15.1337"><ele>130.2</ele><time>2026-04-12T08:22:19.966Z</time></trkpt><trkpt lat="40.61908" lon="15.1335617"><ele>130.0</ele><time>2026-04-12T08:22:20.966Z</time></trkpt><trkpt lat="40.619105" lon="15.13343"><ele>130.0</ele><time>2026-04-12T08:22:21.966Z</time></trkpt><trkpt lat="40.619125" lon="15.133315"><ele>130.0</ele><time>2026-04-12T08:22:22.966Z</time></trkpt><trkpt lat="40.6191517" lon="15.13321"><ele>130.0</ele><time>2026-04-12T08:22:23.966Z</time></trkpt><trkpt lat="40.6191733" lon="15.1331083"><ele>130.0</ele><time>2026-04-12T08:22:24.966Z</time></trkpt><trkpt lat="40.6192" lon="15.133005"><ele>130.0</ele><time>2026-04-12T08:22:25.966Z</time></trkpt><trkpt lat="40.6192267" lon="15.132895"><ele>130.0</ele><time>2026-04-12T08:22:26.966Z</time></trkpt><trkpt lat="40.619255" lon="15.132785"><ele>129.66666666666669</ele><time>2026-04-12T08:22:27.967Z</time></trkpt><trkpt lat="40.6192867" lon="15.1326767"><ele>129.33333333333334</ele><time>2026-04-12T08:22:28.966Z</time></trkpt><trkpt lat="40.6193133" lon="15.1325733"><ele>129.0</ele><time>2026-04-12T08:22:29.966Z</time></trkpt><trkpt lat="40.6193383" lon="15.1324717"><ele>128.66666666666666</ele><time>2026-04-12T08:22:30.966Z</time></trkpt><trkpt lat="40.6193667" lon="15.132375"><ele>128.33333333333331</ele><time>2026-04-12T08:22:31.966Z</time></trkpt><trkpt lat="40.619395" lon="15.13228"><ele>128.0</ele><time>2026-04-12T08:22:32.966Z</time></trkpt><trkpt lat="40.619425" lon="15.1321867"><ele>127.99999999999999</ele><time>2026-04-12T08:22:33.966Z</time></trkpt><trkpt lat="40.6194583" lon="15.1320933"><ele>128.0</ele><time>2026-04-12T08:22:34.966Z</time></trkpt><trkpt lat="40.6194967" lon="15.1320017"><ele>128.0</ele><time>2026-04-12T08:22:35.966Z</time></trkpt><trkpt lat="40.6195333" lon="15.1319067"><ele>128.0</ele><time>2026-04-12T08:22:36.966Z</time></trkpt><trkpt lat="40.6195667" lon="15.13182"><ele>127.99999999999999</ele><time>2026-04-12T08:22:37.966Z</time></trkpt><trkpt lat="40.6196117" lon="15.1317433"><ele>128.0</ele><time>2026-04-12T08:22:38.966Z</time></trkpt><trkpt lat="40.6196617" lon="15.1316733"><ele>127.99999999999999</ele><time>2026-04-12T08:22:39.966Z</time></trkpt><trkpt lat="40.6197067" lon="15.1316133"><ele>128.0</ele><time>2026-04-12T08:22:40.967Z</time></trkpt><trkpt lat="40.6197883" lon="15.1315183"><ele>128.0</ele><time>2026-04-12T08:22:42.966Z</time></trkpt><trkpt lat="40.6198583" lon="15.13145"><ele>128.0</ele><time>2026-04-12T08:22:44.966Z</time></trkpt><trkpt lat="40.6199233" lon="15.1313767"><ele>127.99999999999999</ele><time>2026-04-12T08:22:46.966Z</time></trkpt><trkpt lat="40.619995" lon="15.1313167"><ele>128.0</ele><time>2026-04-12T08:22:48.966Z</time></trkpt><trkpt lat="40.6200533" lon="15.1312617"><ele>128.0</ele><time>2026-04-12T08:22:50.966Z</time></trkpt><trkpt lat="40.6201467" lon="15.131175"><ele>128.0</ele><time>2026-04-12T08:23:00.966Z</time></trkpt><trkpt lat="40.6202533" lon="15.131085"><ele>128.0</ele><time>2026-04-12T08:23:02.966Z</time></trkpt><trkpt lat="40.62031" lon="15.1310333"><ele>128.0</ele><time>2026-04-12T08:23:03.966Z</time></trkpt><trkpt lat="40.620365" lon="15.1309767"><ele>128.0</ele><time>2026-04-12T08:23:04.966Z</time></trkpt><trkpt lat="40.6204233" lon="15.130905"><ele>128.33333333333331</ele><time>2026-04-12T08:23:05.966Z</time></trkpt><trkpt lat="40.6204783" lon="15.1308217"><ele>128.66666666666666</ele><time>2026-04-12T08:23:06.966Z</time></trkpt><trkpt lat="40.6205383" lon="15.130735"><ele>129.0</ele><time>2026-04-12T08:23:07.966Z</time></trkpt><trkpt lat="40.6206033" lon="15.1306433"><ele>129.33333333333334</ele><time>2026-04-12T08:23:08.966Z</time></trkpt><trkpt lat="40.6206667" lon="15.1305583"><ele>129.66666666666669</ele><time>2026-04-12T08:23:09.967Z</time></trkpt><trkpt lat="40.62073" lon="15.1304783"><ele>130.0</ele><time>2026-04-12T08:23:10.966Z</time></trkpt><trkpt lat="40.6207967" lon="15.1303983"><ele>130.0</ele><time>2026-04-12T08:23:11.966Z</time></trkpt><trkpt lat="40.6208567" lon="15.1303233"><ele>130.0</ele><time>2026-04-12T08:23:12.966Z</time></trkpt><trkpt lat="40.62091" lon="15.130255"><ele>130.0</ele><time>2026-04-12T08:23:13.966Z</time></trkpt><trkpt lat="40.6209633" lon="15.1301867"><ele>130.0</ele><time>2026-04-12T08:23:14.967Z</time></trkpt><trkpt lat="40.6210183" lon="15.1301233"><ele>130.0</ele><time>2026-04-12T08:23:15.966Z</time></trkpt><trkpt lat="40.6210817" lon="15.13006"><ele>130.0</ele><time>2026-04-12T08:23:16.966Z</time></trkpt><trkpt lat="40.6211567" lon="15.1300017"><ele>130.0</ele><time>2026-04-12T08:23:17.966Z</time></trkpt><trkpt lat="40.6212367" lon="15.1299367"><ele>130.0</ele><time>2026-04-12T08:23:18.966Z</time></trkpt><trkpt lat="40.6213233" lon="15.1298767"><ele>130.0</ele><time>2026-04-12T08:23:19.966Z</time></trkpt><trkpt lat="40.62141" lon="15.1298267"><ele>130.0</ele><time>2026-04-12T08:23:20.966Z</time></trkpt><trkpt lat="40.6215017" lon="15.12979"><ele>130.0</ele><time>2026-04-12T08:23:21.966Z</time></trkpt><trkpt lat="40.621595" lon="15.129755"><ele>130.0</ele><time>2026-04-12T08:23:22.966Z</time></trkpt><trkpt lat="40.621695" lon="15.12972"><ele>130.0</ele><time>2026-04-12T08:23:23.966Z</time></trkpt><trkpt lat="40.6218033" lon="15.12967"><ele>130.0</ele><time>2026-04-12T08:23:24.966Z</time></trkpt><trkpt lat="40.6219217" lon="15.129615"><ele>130.0</ele><time>2026-04-12T08:23:25.967Z</time></trkpt><trkpt lat="40.6220167" lon="15.129565"><ele>130.0</ele><time>2026-04-12T08:23:26.967Z</time></trkpt><trkpt lat="40.6221083" lon="15.1295167"><ele>130.8</ele><time>2026-04-12T08:23:27.966Z</time></trkpt><trkpt lat="40.6221867" lon="15.1294617"><ele>131.6</ele><time>2026-04-12T08:23:28.966Z</time></trkpt><trkpt lat="40.62226" lon="15.129405"><ele>132.4</ele><time>2026-04-12T08:23:29.966Z</time></trkpt><trkpt lat="40.6223283" lon="15.1293317"><ele>133.2</ele><time>2026-04-12T08:23:30.966Z</time></trkpt><trkpt lat="40.6223983" lon="15.1292483"><ele>134.0</ele><time>2026-04-12T08:23:31.966Z</time></trkpt><trkpt lat="40.6224667" lon="15.1291533"><ele>134.0</ele><time>2026-04-12T08:23:32.966Z</time></trkpt><trkpt lat="40.622525" lon="15.1290617"><ele>134.0</ele><time>2026-04-12T08:23:33.966Z</time></trkpt><trkpt lat="40.62258" lon="15.12898"><ele>134.0</ele><time>2026-04-12T08:23:34.966Z</time></trkpt><trkpt lat="40.6226283" lon="15.1289033"><ele>134.0</ele><time>2026-04-12T08:23:35.966Z</time></trkpt><trkpt lat="40.6226783" lon="15.128835"><ele>134.0</ele><time>2026-04-12T08:23:36.966Z</time></trkpt><trkpt lat="40.6227617" lon="15.1287333"><ele>134.0</ele><time>2026-04-12T08:23:38.966Z</time></trkpt><trkpt lat="40.6228383" lon="15.1286617"><ele>133.83333333333331</ele><time>2026-04-12T08:23:40.966Z</time></trkpt><trkpt lat="40.6229" lon="15.1286133"><ele>133.66666666666666</ele><time>2026-04-12T08:23:42.967Z</time></trkpt><trkpt lat="40.6229483" lon="15.1285467"><ele>133.5</ele><time>2026-04-12T08:24:40.966Z</time></trkpt><trkpt lat="40.62303" lon="15.128515"><ele>133.33333333333334</ele><time>2026-04-12T08:24:43.966Z</time></trkpt><trkpt lat="40.623135" lon="15.1285133"><ele>133.16666666666669</ele><time>2026-04-12T08:24:45.966Z</time></trkpt><trkpt lat="40.6232" lon="15.1285083"><ele>133.0</ele><time>2026-04-12T08:24:46.967Z</time></trkpt><trkpt lat="40.6232767" lon="15.1285017"><ele>133.0</ele><time>2026-04-12T08:24:47.966Z</time></trkpt><trkpt lat="40.6233633" lon="15.128485"><ele>133.0</ele><time>2026-04-12T08:24:48.966Z</time></trkpt><trkpt lat="40.62345" lon="15.1284717"><ele>133.0</ele><time>2026-04-12T08:24:49.966Z</time></trkpt><trkpt lat="40.6235433" lon="15.1284733"><ele>133.0</ele><time>2026-04-12T08:24:50.966Z</time></trkpt><trkpt lat="40.6236467" lon="15.128455"><ele>133.0</ele><time>2026-04-12T08:24:51.966Z</time></trkpt><trkpt lat="40.6237533" lon="15.12843"><ele>133.4</ele><time>2026-04-12T08:24:52.966Z</time></trkpt><trkpt lat="40.6238583" lon="15.1283817"><ele>133.8</ele><time>2026-04-12T08:24:53.966Z</time></trkpt><trkpt lat="40.6239617" lon="15.12832"><ele>134.2</ele><time>2026-04-12T08:24:54.966Z</time></trkpt><trkpt lat="40.624055" lon="15.1282483"><ele>134.6</ele><time>2026-04-12T08:24:55.967Z</time></trkpt><trkpt lat="40.6241467" lon="15.12818"><ele>135.0</ele><time>2026-04-12T08:24:56.966Z</time></trkpt><trkpt lat="40.6242317" lon="15.12813"><ele>135.0</ele><time>2026-04-12T08:24:57.966Z</time></trkpt><trkpt lat="40.6243167" lon="15.1281033"><ele>135.0</ele><time>2026-04-12T08:24:58.966Z</time></trkpt><trkpt lat="40.6244033" lon="15.1280917"><ele>135.0</ele><time>2026-04-12T08:24:59.966Z</time></trkpt><trkpt lat="40.624495" lon="15.1280933"><ele>135.0</ele><time>2026-04-12T08:25:00.966Z</time></trkpt><trkpt lat="40.6245883" lon="15.12809"><ele>135.0</ele><time>2026-04-12T08:25:01.966Z</time></trkpt><trkpt lat="40.6246967" lon="15.1280983"><ele>135.6</ele><time>2026-04-12T08:25:02.966Z</time></trkpt><trkpt lat="40.6248" lon="15.1281"><ele>136.2</ele><time>2026-04-12T08:25:03.966Z</time></trkpt><trkpt lat="40.6249017" lon="15.1280917"><ele>136.8</ele><time>2026-04-12T08:25:04.966Z</time></trkpt><trkpt lat="40.625" lon="15.1280883"><ele>137.4</ele><time>2026-04-12T08:25:05.966Z</time></trkpt><trkpt lat="40.6250867" lon="15.1280733"><ele>138.0</ele><time>2026-04-12T08:25:06.966Z</time></trkpt><trkpt lat="40.6251633" lon="15.1280567"><ele>138.0</ele><time>2026-04-12T08:25:07.966Z</time></trkpt><trkpt lat="40.625225" lon="15.1280383"><ele>138.0</ele><time>2026-04-12T08:25:08.966Z</time></trkpt><trkpt lat="40.62533" lon="15.1279817"><ele>138.0</ele><time>2026-04-12T08:25:10.966Z</time></trkpt><trkpt lat="40.6254383" lon="15.1279167"><ele>138.0</ele><time>2026-04-12T08:25:12.966Z</time></trkpt><trkpt lat="40.6255017" lon="15.127875"><ele>138.0</ele><time>2026-04-12T08:25:13.966Z</time></trkpt><trkpt lat="40.6255683" lon="15.12784"><ele>138.0</ele><time>2026-04-12T08:25:14.966Z</time></trkpt><trkpt lat="40.6256383" lon="15.1278"><ele>138.4</ele><time>2026-04-12T08:25:15.966Z</time></trkpt><trkpt lat="40.6257133" lon="15.127765"><ele>138.8</ele><time>2026-04-12T08:25:16.967Z</time></trkpt><trkpt lat="40.62579" lon="15.1277283"><ele>139.2</ele><time>2026-04-12T08:25:17.966Z</time></trkpt><trkpt lat="40.6258767" lon="15.1276883"><ele>139.6</ele><time>2026-04-12T08:25:18.966Z</time></trkpt><trkpt lat="40.6259767" lon="15.127665"><ele>140.0</ele><time>2026-04-12T08:25:19.966Z</time></trkpt><trkpt lat="40.6260767" lon="15.127635"><ele>141.25</ele><time>2026-04-12T08:25:20.966Z</time></trkpt><trkpt lat="40.6261867" lon="15.12762"><ele>142.5</ele><time>2026-04-12T08:25:21.966Z</time></trkpt><trkpt lat="40.6263067" lon="15.1276083"><ele>143.75</ele><time>2026-04-12T08:25:22.966Z</time></trkpt><trkpt lat="40.6264367" lon="15.1276083"><ele>145.0</ele><time>2026-04-12T08:25:23.967Z</time></trkpt><trkpt lat="40.626565" lon="15.1276083"><ele>145.0</ele><time>2026-04-12T08:25:24.966Z</time></trkpt><trkpt lat="40.626695" lon="15.1275983"><ele>145.0</ele><time>2026-04-12T08:25:25.966Z</time></trkpt><trkpt lat="40.6268167" lon="15.1275667"><ele>145.0</ele><time>2026-04-12T08:25:26.966Z</time></trkpt><trkpt lat="40.62692" lon="15.127525"><ele>145.0</ele><time>2026-04-12T08:25:27.966Z</time></trkpt><trkpt lat="40.62701" lon="15.1274583"><ele>145.33333333333334</ele><time>2026-04-12T08:25:28.966Z</time></trkpt><trkpt lat="40.6270833" lon="15.1273867"><ele>145.66666666666669</ele><time>2026-04-12T08:25:29.966Z</time></trkpt><trkpt lat="40.6271483" lon="15.127305"><ele>146.0</ele><time>2026-04-12T08:25:30.966Z</time></trkpt><trkpt lat="40.6272033" lon="15.1272217"><ele>146.33333333333334</ele><time>2026-04-12T08:25:31.966Z</time></trkpt><trkpt lat="40.6272683" lon="15.1271383"><ele>146.66666666666666</ele><time>2026-04-12T08:25:32.966Z</time></trkpt><trkpt lat="40.62733" lon="15.12706"><ele>147.0</ele><time>2026-04-12T08:25:33.966Z</time></trkpt><trkpt lat="40.627385" lon="15.1269867"><ele>147.0</ele><time>2026-04-12T08:25:34.967Z</time></trkpt><trkpt lat="40.6274533" lon="15.1269267"><ele>147.0</ele><time>2026-04-12T08:25:35.966Z</time></trkpt><trkpt lat="40.6275267" lon="15.1268683"><ele>147.0</ele><time>2026-04-12T08:25:36.966Z</time></trkpt><trkpt lat="40.627605" lon="15.1268067"><ele>147.0</ele><time>2026-04-12T08:25:37.966Z</time></trkpt><trkpt lat="40.6276817" lon="15.12675"><ele>147.0</ele><time>2026-04-12T08:25:38.966Z</time></trkpt><trkpt lat="40.627755" lon="15.1266933"><ele>147.0</ele><time>2026-04-12T08:25:39.966Z</time></trkpt><trkpt lat="40.62783" lon="15.1266367"><ele>146.5</ele><time>2026-04-12T08:25:40.966Z</time></trkpt><trkpt lat="40.6279017" lon="15.126585"><ele>146.0</ele><time>2026-04-12T08:25:41.966Z</time></trkpt><trkpt lat="40.6279767" lon="15.1265417"><ele>145.5</ele><time>2026-04-12T08:25:42.966Z</time></trkpt><trkpt lat="40.6280533" lon="15.1264983"><ele>145.0</ele><time>2026-04-12T08:25:43.966Z</time></trkpt><trkpt lat="40.6281283" lon="15.12646"><ele>144.5</ele><time>2026-04-12T08:25:44.966Z</time></trkpt><trkpt lat="40.628205" lon="15.1264333"><ele>144.0</ele><time>2026-04-12T08:25:45.966Z</time></trkpt><trkpt lat="40.6282767" lon="15.126395"><ele>144.0</ele><time>2026-04-12T08:25:46.966Z</time></trkpt><trkpt lat="40.62835" lon="15.1263583"><ele>144.0</ele><time>2026-04-12T08:25:47.966Z</time></trkpt><trkpt lat="40.62843" lon="15.1263383"><ele>144.0</ele><time>2026-04-12T08:25:48.966Z</time></trkpt><trkpt lat="40.62852" lon="15.1263317"><ele>144.0</ele><time>2026-04-12T08:25:49.966Z</time></trkpt><trkpt lat="40.6286133" lon="15.12635"><ele>144.0</ele><time>2026-04-12T08:25:50.966Z</time></trkpt><trkpt lat="40.6287117" lon="15.1263783"><ele>144.0</ele><time>2026-04-12T08:25:51.966Z</time></trkpt><trkpt lat="40.628805" lon="15.1264083"><ele>143.83333333333334</ele><time>2026-04-12T08:25:52.967Z</time></trkpt><trkpt lat="40.6289" lon="15.126435"><ele>143.66666666666666</ele><time>2026-04-12T08:25:53.966Z</time></trkpt><trkpt lat="40.628985" lon="15.1264567"><ele>143.5</ele><time>2026-04-12T08:25:54.966Z</time></trkpt><trkpt lat="40.6290633" lon="15.1264717"><ele>143.33333333333331</ele><time>2026-04-12T08:25:55.966Z</time></trkpt><trkpt lat="40.6291317" lon="15.1264967"><ele>143.16666666666666</ele><time>2026-04-12T08:25:56.966Z</time></trkpt><trkpt lat="40.6292117" lon="15.1265183"><ele>143.0</ele><time>2026-04-12T08:25:57.966Z</time></trkpt><trkpt lat="40.6292817" lon="15.1265417"><ele>144.6</ele><time>2026-04-12T08:25:58.966Z</time></trkpt><trkpt lat="40.6293967" lon="15.12657"><ele>146.20000000000002</ele><time>2026-04-12T08:26:00.966Z</time></trkpt><trkpt lat="40.6295333" lon="15.1266067"><ele>147.8</ele><time>2026-04-12T08:26:02.967Z</time></trkpt><trkpt lat="40.6296183" lon="15.1266233"><ele>149.4</ele><time>2026-04-12T08:26:03.966Z</time></trkpt><trkpt lat="40.629715" lon="15.1266417"><ele>151.0</ele><time>2026-04-12T08:26:04.966Z</time></trkpt><trkpt lat="40.6298167" lon="15.1266533"><ele>151.4</ele><time>2026-04-12T08:26:05.966Z</time></trkpt><trkpt lat="40.629915" lon="15.1266533"><ele>151.8</ele><time>2026-04-12T08:26:06.966Z</time></trkpt><trkpt lat="40.6300117" lon="15.1266617"><ele>152.20000000000002</ele><time>2026-04-12T08:26:07.966Z</time></trkpt><trkpt lat="40.630115" lon="15.126665"><ele>152.6</ele><time>2026-04-12T08:26:08.967Z</time></trkpt><trkpt lat="40.6302283" lon="15.126675"><ele>153.0</ele><time>2026-04-12T08:26:09.966Z</time></trkpt><trkpt lat="40.6303417" lon="15.12669"><ele>153.5</ele><time>2026-04-12T08:26:10.967Z</time></trkpt><trkpt lat="40.6304583" lon="15.1267217"><ele>154.0</ele><time>2026-04-12T08:26:11.966Z</time></trkpt><trkpt lat="40.6305767" lon="15.1267467"><ele>154.5</ele><time>2026-04-12T08:26:12.966Z</time></trkpt><trkpt lat="40.6307067" lon="15.1267617"><ele>155.0</ele><time>2026-04-12T08:26:13.966Z</time></trkpt><trkpt lat="40.6308333" lon="15.1267683"><ele>155.0</ele><time>2026-04-12T08:26:14.966Z</time></trkpt><trkpt lat="40.63097" lon="15.1267833"><ele>155.0</ele><time>2026-04-12T08:26:15.966Z</time></trkpt><trkpt lat="40.63111" lon="15.1267933"><ele>155.0</ele><time>2026-04-12T08:26:16.966Z</time></trkpt><trkpt lat="40.6312483" lon="15.1268017"><ele>155.0</ele><time>2026-04-12T08:26:17.966Z</time></trkpt><trkpt lat="40.63138" lon="15.1268117"><ele>155.0</ele><time>2026-04-12T08:26:18.966Z</time></trkpt><trkpt lat="40.6315033" lon="15.1268217"><ele>155.0</ele><time>2026-04-12T08:26:19.966Z</time></trkpt><trkpt lat="40.6316383" lon="15.1268283"><ele>155.0</ele><time>2026-04-12T08:26:20.966Z</time></trkpt><trkpt lat="40.631775" lon="15.1268367"><ele>155.0</ele><time>2026-04-12T08:26:21.966Z</time></trkpt><trkpt lat="40.6319183" lon="15.1268317"><ele>156.0</ele><time>2026-04-12T08:26:22.966Z</time></trkpt><trkpt lat="40.6320467" lon="15.1268333"><ele>157.0</ele><time>2026-04-12T08:26:23.966Z</time></trkpt><trkpt lat="40.632165" lon="15.1268283"><ele>158.0</ele><time>2026-04-12T08:26:24.966Z</time></trkpt><trkpt lat="40.6322767" lon="15.1268167"><ele>159.0</ele><time>2026-04-12T08:26:25.966Z</time></trkpt><trkpt lat="40.6323867" lon="15.1268083"><ele>159.0</ele><time>2026-04-12T08:26:26.966Z</time></trkpt><trkpt lat="40.6324967" lon="15.126795"><ele>159.0</ele><time>2026-04-12T08:26:27.966Z</time></trkpt><trkpt lat="40.6326067" lon="15.1267833"><ele>159.0</ele><time>2026-04-12T08:26:28.966Z</time></trkpt><trkpt lat="40.6327083" lon="15.1267683"><ele>159.0</ele><time>2026-04-12T08:26:29.966Z</time></trkpt><trkpt lat="40.6327967" lon="15.126755"><ele>159.0</ele><time>2026-04-12T08:26:30.966Z</time></trkpt><trkpt lat="40.6328867" lon="15.12674"><ele>159.4</ele><time>2026-04-12T08:26:31.966Z</time></trkpt><trkpt lat="40.632985" lon="15.1267167"><ele>159.8</ele><time>2026-04-12T08:26:32.966Z</time></trkpt><trkpt lat="40.633085" lon="15.1266933"><ele>160.20000000000002</ele><time>2026-04-12T08:26:33.966Z</time></trkpt><trkpt lat="40.6331817" lon="15.1266733"><ele>160.60000000000002</ele><time>2026-04-12T08:26:34.966Z</time></trkpt><trkpt lat="40.6332783" lon="15.1266533"><ele>161.0</ele><time>2026-04-12T08:26:35.966Z</time></trkpt><trkpt lat="40.6333683" lon="15.1266333"><ele>161.0</ele><time>2026-04-12T08:26:36.966Z</time></trkpt><trkpt lat="40.6334567" lon="15.126625"><ele>161.0</ele><time>2026-04-12T08:26:37.966Z</time></trkpt><trkpt lat="40.6335433" lon="15.126625"><ele>161.0</ele><time>2026-04-12T08:26:38.966Z</time></trkpt><trkpt lat="40.6336183" lon="15.1266317"><ele>161.0</ele><time>2026-04-12T08:26:39.966Z</time></trkpt><trkpt lat="40.6336817" lon="15.126645"><ele>161.0</ele><time>2026-04-12T08:26:40.966Z</time></trkpt><trkpt lat="40.63379" lon="15.1266583"><ele>161.0</ele><time>2026-04-12T08:26:42.966Z</time></trkpt><trkpt lat="40.6339" lon="15.1266967"><ele>161.5</ele><time>2026-04-12T08:26:44.966Z</time></trkpt><trkpt lat="40.63402" lon="15.126745"><ele>162.0</ele><time>2026-04-12T08:26:46.966Z</time></trkpt><trkpt lat="40.6340833" lon="15.1267633"><ele>162.5</ele><time>2026-04-12T08:26:47.966Z</time></trkpt><trkpt lat="40.6341483" lon="15.126775"><ele>163.0</ele><time>2026-04-12T08:26:48.966Z</time></trkpt><trkpt lat="40.6342717" lon="15.1267917"><ele>163.5</ele><time>2026-04-12T08:26:50.966Z</time></trkpt><trkpt lat="40.6343367" lon="15.1267917"><ele>164.0</ele><time>2026-04-12T08:26:51.966Z</time></trkpt><trkpt lat="40.6344017" lon="15.1267817"><ele>164.0</ele><time>2026-04-12T08:26:52.966Z</time></trkpt><trkpt lat="40.6345" lon="15.1267833"><ele>164.0</ele><time>2026-04-12T08:26:54.966Z</time></trkpt><trkpt lat="40.6345167" lon="15.1268867"><ele>164.0</ele><time>2026-04-12T08:26:57.966Z</time></trkpt><trkpt lat="40.63444" lon="15.1269567"><ele>164.0</ele><time>2026-04-12T08:26:59.966Z</time></trkpt><trkpt lat="40.6343717" lon="15.1269983"><ele>164.0</ele><time>2026-04-12T08:27:02.966Z</time></trkpt><trkpt lat="40.634305" lon="15.12705"><ele>164.0</ele><time>2026-04-12T08:27:05.966Z</time></trkpt><trkpt lat="40.6342267" lon="15.1271283"><ele>164.0</ele><time>2026-04-12T08:27:07.966Z</time></trkpt><trkpt lat="40.6341783" lon="15.1271817"><ele>164.0</ele><time>2026-04-12T08:27:08.966Z</time></trkpt><trkpt lat="40.634125" lon="15.1272383"><ele>164.0</ele><time>2026-04-12T08:27:09.966Z</time></trkpt><trkpt lat="40.6340733" lon="15.1272983"><ele>164.0</ele><time>2026-04-12T08:27:10.966Z</time></trkpt><trkpt lat="40.6340183" lon="15.12737"><ele>164.0</ele><time>2026-04-12T08:27:11.966Z</time></trkpt><trkpt lat="40.6339583" lon="15.12745"><ele>164.0</ele><time>2026-04-12T08:27:12.966Z</time></trkpt><trkpt lat="40.63389" lon="15.1275317"><ele>164.6</ele><time>2026-04-12T08:27:13.966Z</time></trkpt><trkpt lat="40.63382" lon="15.1276183"><ele>165.2</ele><time>2026-04-12T08:27:14.966Z</time></trkpt><trkpt lat="40.6337467" lon="15.127705"><ele>165.79999999999998</ele><time>2026-04-12T08:27:15.966Z</time></trkpt><trkpt lat="40.6336733" lon="15.1277833"><ele>166.39999999999998</ele><time>2026-04-12T08:27:16.966Z</time></trkpt><trkpt lat="40.6335917" lon="15.1278433"><ele>167.0</ele><time>2026-04-12T08:27:17.966Z</time></trkpt><trkpt lat="40.63351" lon="15.1278967"><ele>167.0</ele><time>2026-04-12T08:27:18.966Z</time></trkpt><trkpt lat="40.6334267" lon="15.1279417"><ele>167.0</ele><time>2026-04-12T08:27:19.966Z</time></trkpt><trkpt lat="40.6333417" lon="15.1279867"><ele>167.0</ele><time>2026-04-12T08:27:20.966Z</time></trkpt><trkpt lat="40.6332617" lon="15.1280283"><ele>167.0</ele><time>2026-04-12T08:27:21.966Z</time></trkpt><trkpt lat="40.633195" lon="15.12806"><ele>167.0</ele><time>2026-04-12T08:27:22.966Z</time></trkpt><trkpt lat="40.6331017" lon="15.1281017"><ele>167.0</ele><time>2026-04-12T08:27:24.966Z</time></trkpt><trkpt lat="40.63307" lon="15.128175"><ele>167.83333333333331</ele><time>2026-04-12T08:27:27.965Z</time></trkpt><trkpt lat="40.6331" lon="15.1282633"><ele>168.66666666666666</ele><time>2026-04-12T08:27:29.965Z</time></trkpt><trkpt lat="40.6331483" lon="15.12842"><ele>169.5</ele><time>2026-04-12T08:27:31.965Z</time></trkpt><trkpt lat="40.6331683" lon="15.12851"><ele>170.33333333333334</ele><time>2026-04-12T08:27:32.965Z</time></trkpt><trkpt lat="40.6331833" lon="15.1286"><ele>171.16666666666669</ele><time>2026-04-12T08:27:33.965Z</time></trkpt><trkpt lat="40.6332083" lon="15.1286867"><ele>172.0</ele><time>2026-04-12T08:27:34.965Z</time></trkpt><trkpt lat="40.6332267" lon="15.1287833"><ele>172.0</ele><time>2026-04-12T08:27:35.965Z</time></trkpt><trkpt lat="40.6332533" lon="15.1288767"><ele>172.0</ele><time>2026-04-12T08:27:36.965Z</time></trkpt><trkpt lat="40.6332833" lon="15.1289667"><ele>172.0</ele><time>2026-04-12T08:27:37.965Z</time></trkpt><trkpt lat="40.6333117" lon="15.1290617"><ele>172.0</ele><time>2026-04-12T08:27:38.965Z</time></trkpt><trkpt lat="40.6333317" lon="15.1291583"><ele>172.0</ele><time>2026-04-12T08:27:39.966Z</time></trkpt><trkpt lat="40.633355" lon="15.12925"><ele>172.0</ele><time>2026-04-12T08:27:40.965Z</time></trkpt><trkpt lat="40.6333867" lon="15.1293367"><ele>172.71428571428572</ele><time>2026-04-12T08:27:41.965Z</time></trkpt><trkpt lat="40.6334183" lon="15.1294317"><ele>173.42857142857144</ele><time>2026-04-12T08:27:42.966Z</time></trkpt><trkpt lat="40.6334533" lon="15.12952"><ele>174.14285714285717</ele><time>2026-04-12T08:27:43.965Z</time></trkpt><trkpt lat="40.633485" lon="15.1296067"><ele>174.85714285714286</ele><time>2026-04-12T08:27:44.965Z</time></trkpt><trkpt lat="40.6335183" lon="15.1296933"><ele>175.57142857142856</ele><time>2026-04-12T08:27:45.965Z</time></trkpt><trkpt lat="40.6335517" lon="15.12977"><ele>176.2857142857143</ele><time>2026-04-12T08:27:46.965Z</time></trkpt><trkpt lat="40.6335767" lon="15.12985"><ele>177.0</ele><time>2026-04-12T08:27:47.965Z</time></trkpt><trkpt lat="40.63359" lon="15.1299317"><ele>177.66666666666666</ele><time>2026-04-12T08:27:48.965Z</time></trkpt><trkpt lat="40.633585" lon="15.130095"><ele>178.33333333333334</ele><time>2026-04-12T08:27:50.965Z</time></trkpt><trkpt lat="40.633605" lon="15.1301883"><ele>179.0</ele><time>2026-04-12T08:27:51.965Z</time></trkpt><trkpt lat="40.633635" lon="15.1302833"><ele>179.66666666666669</ele><time>2026-04-12T08:27:52.965Z</time></trkpt><trkpt lat="40.63366" lon="15.130375"><ele>180.33333333333334</ele><time>2026-04-12T08:27:53.966Z</time></trkpt><trkpt lat="40.6336867" lon="15.1304733"><ele>181.0</ele><time>2026-04-12T08:27:54.965Z</time></trkpt><trkpt lat="40.6337117" lon="15.1305683"><ele>181.0</ele><time>2026-04-12T08:27:55.965Z</time></trkpt><trkpt lat="40.633725" lon="15.1306667"><ele>181.0</ele><time>2026-04-12T08:27:56.965Z</time></trkpt><trkpt lat="40.633755" lon="15.13076"><ele>181.0</ele><time>2026-04-12T08:27:57.965Z</time></trkpt><trkpt lat="40.6337933" lon="15.1308567"><ele>181.0</ele><time>2026-04-12T08:27:58.965Z</time></trkpt><trkpt lat="40.6338367" lon="15.1309467"><ele>181.0</ele><time>2026-04-12T08:27:59.965Z</time></trkpt><trkpt lat="40.63388" lon="15.1310217"><ele>181.0</ele><time>2026-04-12T08:28:00.965Z</time></trkpt><trkpt lat="40.6339317" lon="15.1311683"><ele>182.0</ele><time>2026-04-12T08:28:02.965Z</time></trkpt><trkpt lat="40.63396" lon="15.1312467"><ele>183.0</ele><time>2026-04-12T08:28:03.965Z</time></trkpt><trkpt lat="40.6339867" lon="15.13133"><ele>184.0</ele><time>2026-04-12T08:28:04.965Z</time></trkpt><trkpt lat="40.634045" lon="15.1314667"><ele>185.0</ele><time>2026-04-12T08:28:06.965Z</time></trkpt><trkpt lat="40.6340983" lon="15.13161"><ele>186.0</ele><time>2026-04-12T08:28:08.965Z</time></trkpt><trkpt lat="40.63412" lon="15.1316967"><ele>187.0</ele><time>2026-04-12T08:28:09.965Z</time></trkpt><trkpt lat="40.63414" lon="15.1317917"><ele>188.0</ele><time>2026-04-12T08:28:10.965Z</time></trkpt><trkpt lat="40.6341883" lon="15.131945"><ele>189.0</ele><time>2026-04-12T08:28:12.965Z</time></trkpt><trkpt lat="40.6342217" lon="15.1320967"><ele>190.0</ele><time>2026-04-12T08:28:14.965Z</time></trkpt><trkpt lat="40.6342633" lon="15.1322367"><ele>191.0</ele><time>2026-04-12T08:28:16.965Z</time></trkpt><trkpt lat="40.6343167" lon="15.1323817"><ele>191.66666666666666</ele><time>2026-04-12T08:28:18.965Z</time></trkpt><trkpt lat="40.63434" lon="15.13246"><ele>192.33333333333331</ele><time>2026-04-12T08:28:19.965Z</time></trkpt><trkpt lat="40.634365" lon="15.1325967"><ele>193.0</ele><time>2026-04-12T08:28:21.965Z</time></trkpt><trkpt lat="40.63439" lon="15.1326783"><ele>193.66666666666666</ele><time>2026-04-12T08:28:23.965Z</time></trkpt><trkpt lat="40.6344083" lon="15.13278"><ele>194.33333333333334</ele><time>2026-04-12T08:28:46.966Z</time></trkpt><trkpt lat="40.634345" lon="15.13287"><ele>195.0</ele><time>2026-04-12T08:28:48.966Z</time></trkpt><trkpt lat="40.63431" lon="15.132975"><ele>195.0</ele><time>2026-04-12T08:28:50.965Z</time></trkpt><trkpt lat="40.634355" lon="15.1330433"><ele>195.0</ele><time>2026-04-12T08:28:53.965Z</time></trkpt><trkpt lat="40.63445" lon="15.1330683"><ele>195.0</ele><time>2026-04-12T08:28:55.965Z</time></trkpt><trkpt lat="40.6345217" lon="15.1330767"><ele>195.0</ele><time>2026-04-12T08:28:56.965Z</time></trkpt><trkpt lat="40.6346" lon="15.133075"><ele>195.0</ele><time>2026-04-12T08:28:57.965Z</time></trkpt><trkpt lat="40.634675" lon="15.13306"><ele>195.0</ele><time>2026-04-12T08:28:58.965Z</time></trkpt><trkpt lat="40.6347517" lon="15.1330317"><ele>195.5</ele><time>2026-04-12T08:28:59.965Z</time></trkpt><trkpt lat="40.634825" lon="15.1329783"><ele>196.0</ele><time>2026-04-12T08:29:00.966Z</time></trkpt><trkpt lat="40.6349" lon="15.1329233"><ele>196.5</ele><time>2026-04-12T08:29:01.965Z</time></trkpt><trkpt lat="40.6349717" lon="15.1328683"><ele>197.0</ele><time>2026-04-12T08:29:02.965Z</time></trkpt><trkpt lat="40.635035" lon="15.1328183"><ele>197.5</ele><time>2026-04-12T08:29:03.965Z</time></trkpt><trkpt lat="40.63509" lon="15.1327767"><ele>198.0</ele><time>2026-04-12T08:29:04.965Z</time></trkpt><trkpt lat="40.6351733" lon="15.1326817"><ele>198.0</ele><time>2026-04-12T08:29:06.965Z</time></trkpt><trkpt lat="40.635225" lon="15.1326233"><ele>198.0</ele><time>2026-04-12T08:29:08.965Z</time></trkpt><trkpt lat="40.6353033" lon="15.132695"><ele>198.0</ele><time>2026-04-12T08:29:15.965Z</time></trkpt><trkpt lat="40.635375" lon="15.1328483"><ele>198.0</ele><time>2026-04-12T08:29:17.965Z</time></trkpt><trkpt lat="40.6354117" lon="15.1329417"><ele>198.0</ele><time>2026-04-12T08:29:18.965Z</time></trkpt><trkpt lat="40.6354467" lon="15.133045"><ele>198.16666666666666</ele><time>2026-04-12T08:29:19.965Z</time></trkpt><trkpt lat="40.6354767" lon="15.133135"><ele>198.33333333333331</ele><time>2026-04-12T08:29:20.965Z</time></trkpt><trkpt lat="40.6355317" lon="15.1332683"><ele>198.5</ele><time>2026-04-12T08:29:22.965Z</time></trkpt><trkpt lat="40.6355733" lon="15.1333567"><ele>198.66666666666666</ele><time>2026-04-12T08:29:24.965Z</time></trkpt><trkpt lat="40.6356083" lon="15.13343"><ele>198.83333333333331</ele><time>2026-04-12T08:29:27.965Z</time></trkpt><trkpt lat="40.6356517" lon="15.1334933"><ele>199.0</ele><time>2026-04-12T08:29:29.965Z</time></trkpt><trkpt lat="40.6356983" lon="15.13356"><ele>199.66666666666666</ele><time>2026-04-12T08:29:32.966Z</time></trkpt><trkpt lat="40.635735" lon="15.1336517"><ele>200.33333333333331</ele><time>2026-04-12T08:29:35.965Z</time></trkpt><trkpt lat="40.6357533" lon="15.1337333"><ele>201.0</ele><time>2026-04-12T08:29:37.965Z</time></trkpt><trkpt lat="40.6357483" lon="15.1338567"><ele>201.66666666666669</ele><time>2026-04-12T08:29:40.965Z</time></trkpt><trkpt lat="40.635735" lon="15.13394"><ele>202.33333333333334</ele><time>2026-04-12T08:29:42.965Z</time></trkpt><trkpt lat="40.6357867" lon="15.1340483"><ele>203.0</ele><time>2026-04-12T08:29:45.965Z</time></trkpt><trkpt lat="40.63583" lon="15.1341333"><ele>203.60000000000002</ele><time>2026-04-12T08:29:47.965Z</time></trkpt><trkpt lat="40.6358417" lon="15.1342267"><ele>204.20000000000002</ele><time>2026-04-12T08:29:49.965Z</time></trkpt><trkpt lat="40.6358783" lon="15.1343667"><ele>204.8</ele><time>2026-04-12T08:29:51.965Z</time></trkpt><trkpt lat="40.6359233" lon="15.1344917"><ele>205.4</ele><time>2026-04-12T08:29:53.965Z</time></trkpt><trkpt lat="40.6359833" lon="15.1345883"><ele>206.0</ele><time>2026-04-12T08:29:55.965Z</time></trkpt><trkpt lat="40.636085" lon="15.1346383"><ele>206.4</ele><time>2026-04-12T08:29:57.965Z</time></trkpt><trkpt lat="40.6361983" lon="15.1347033"><ele>206.8</ele><time>2026-04-12T08:29:59.965Z</time></trkpt><trkpt lat="40.6363083" lon="15.1347583"><ele>207.20000000000002</ele><time>2026-04-12T08:30:01.965Z</time></trkpt><trkpt lat="40.6364133" lon="15.13483"><ele>207.60000000000002</ele><time>2026-04-12T08:30:03.965Z</time></trkpt><trkpt lat="40.6364733" lon="15.1348667"><ele>208.0</ele><time>2026-04-12T08:30:04.965Z</time></trkpt><trkpt lat="40.6365317" lon="15.1349"><ele>208.8</ele><time>2026-04-12T08:30:05.965Z</time></trkpt><trkpt lat="40.636595" lon="15.1349317"><ele>209.60000000000002</ele><time>2026-04-12T08:30:06.965Z</time></trkpt><trkpt lat="40.6367033" lon="15.1349883"><ele>210.39999999999998</ele><time>2026-04-12T08:30:08.965Z</time></trkpt><trkpt lat="40.6368083" lon="15.1350633"><ele>211.2</ele><time>2026-04-12T08:30:10.965Z</time></trkpt><trkpt lat="40.6368817" lon="15.1351767"><ele>212.0</ele><time>2026-04-12T08:30:12.965Z</time></trkpt><trkpt lat="40.6369417" lon="15.1352983"><ele>212.33333333333334</ele><time>2026-04-12T08:30:14.965Z</time></trkpt><trkpt lat="40.637015" lon="15.1354217"><ele>212.66666666666669</ele><time>2026-04-12T08:30:16.965Z</time></trkpt><trkpt lat="40.6370517" lon="15.1354933"><ele>213.0</ele><time>2026-04-12T08:30:17.965Z</time></trkpt><trkpt lat="40.637115" lon="15.1356233"><ele>213.33333333333331</ele><time>2026-04-12T08:30:19.965Z</time></trkpt><trkpt lat="40.637135" lon="15.1357067"><ele>213.66666666666666</ele><time>2026-04-12T08:30:20.965Z</time></trkpt><trkpt lat="40.63715" lon="15.1357933"><ele>214.0</ele><time>2026-04-12T08:30:21.965Z</time></trkpt><trkpt lat="40.6371633" lon="15.1358867"><ele>214.83333333333331</ele><time>2026-04-12T08:30:22.965Z</time></trkpt><trkpt lat="40.6371917" lon="15.13598"><ele>215.66666666666666</ele><time>2026-04-12T08:30:23.965Z</time></trkpt><trkpt lat="40.6372167" lon="15.1360667"><ele>216.5</ele><time>2026-04-12T08:30:24.965Z</time></trkpt><trkpt lat="40.637245" lon="15.1361517"><ele>217.33333333333331</ele><time>2026-04-12T08:30:25.965Z</time></trkpt><trkpt lat="40.637275" lon="15.1362433"><ele>218.16666666666666</ele><time>2026-04-12T08:30:26.965Z</time></trkpt><trkpt lat="40.6373033" lon="15.1363417"><ele>219.0</ele><time>2026-04-12T08:30:27.965Z</time></trkpt><trkpt lat="40.6373283" lon="15.1364467"><ele>219.0</ele><time>2026-04-12T08:30:28.965Z</time></trkpt><trkpt lat="40.63735" lon="15.1365483"><ele>219.0</ele><time>2026-04-12T08:30:29.965Z</time></trkpt><trkpt lat="40.6373783" lon="15.13665"><ele>219.0</ele><time>2026-04-12T08:30:30.965Z</time></trkpt><trkpt lat="40.6374083" lon="15.1367333"><ele>219.0</ele><time>2026-04-12T08:30:31.965Z</time></trkpt><trkpt lat="40.6374617" lon="15.1368683"><ele>219.0</ele><time>2026-04-12T08:30:33.965Z</time></trkpt><trkpt lat="40.637505" lon="15.1369683"><ele>219.0</ele><time>2026-04-12T08:30:35.965Z</time></trkpt><trkpt lat="40.63758" lon="15.1369983"><ele>219.66666666666666</ele><time>2026-04-12T08:30:38.965Z</time></trkpt><trkpt lat="40.63766" lon="15.1369517"><ele>220.33333333333331</ele><time>2026-04-12T08:30:49.965Z</time></trkpt><trkpt lat="40.6377433" lon="15.136905"><ele>221.0</ele><time>2026-04-12T08:30:51.965Z</time></trkpt><trkpt lat="40.63783" lon="15.13686"><ele>221.66666666666666</ele><time>2026-04-12T08:30:53.966Z</time></trkpt><trkpt lat="40.6378983" lon="15.1368317"><ele>222.33333333333331</ele><time>2026-04-12T08:30:55.965Z</time></trkpt><trkpt lat="40.63798" lon="15.1368667"><ele>223.0</ele><time>2026-04-12T08:30:58.965Z</time></trkpt><trkpt lat="40.6380217" lon="15.13694"><ele>223.33333333333331</ele><time>2026-04-12T08:31:00.965Z</time></trkpt><trkpt lat="40.638055" lon="15.1370367"><ele>223.66666666666666</ele><time>2026-04-12T08:31:02.965Z</time></trkpt><trkpt lat="40.6380983" lon="15.1371283"><ele>224.0</ele><time>2026-04-12T08:31:04.965Z</time></trkpt><trkpt lat="40.6381417" lon="15.1371983"><ele>224.33333333333331</ele><time>2026-04-12T08:31:06.965Z</time></trkpt><trkpt lat="40.6382067" lon="15.1372467"><ele>224.66666666666666</ele><time>2026-04-12T08:39:56.963Z</time></trkpt><trkpt lat="40.6382833" lon="15.1371933"><ele>225.0</ele><time>2026-04-12T08:39:58.963Z</time></trkpt><trkpt lat="40.6383767" lon="15.1371367"><ele>225.0</ele><time>2026-04-12T08:40:00.963Z</time></trkpt><trkpt lat="40.6384883" lon="15.1370767"><ele>225.0</ele><time>2026-04-12T08:40:02.963Z</time></trkpt><trkpt lat="40.6385983" lon="15.137"><ele>225.0</ele><time>2026-04-12T08:40:04.963Z</time></trkpt><trkpt lat="40.6387017" lon="15.1369183"><ele>225.0</ele><time>2026-04-12T08:40:06.963Z</time></trkpt><trkpt lat="40.638805" lon="15.1368317"><ele>225.2</ele><time>2026-04-12T08:40:08.963Z</time></trkpt><trkpt lat="40.6388983" lon="15.13673"><ele>225.4</ele><time>2026-04-12T08:40:10.963Z</time></trkpt><trkpt lat="40.6389967" lon="15.1366383"><ele>225.60000000000002</ele><time>2026-04-12T08:40:12.963Z</time></trkpt><trkpt lat="40.6390517" lon="15.1365867"><ele>225.8</ele><time>2026-04-12T08:40:13.963Z</time></trkpt><trkpt lat="40.6391467" lon="15.136485"><ele>226.0</ele><time>2026-04-12T08:40:15.963Z</time></trkpt><trkpt lat="40.639245" lon="15.1363867"><ele>225.20000000000002</ele><time>2026-04-12T08:40:17.963Z</time></trkpt><trkpt lat="40.63935" lon="15.1363117"><ele>224.40000000000003</ele><time>2026-04-12T08:40:19.963Z</time></trkpt><trkpt lat="40.6394567" lon="15.1362517"><ele>223.6</ele><time>2026-04-12T08:40:21.963Z</time></trkpt><trkpt lat="40.6395483" lon="15.136225"><ele>222.8</ele><time>2026-04-12T08:40:23.963Z</time></trkpt><trkpt lat="40.6396017" lon="15.1362733"><ele>222.0</ele><time>2026-04-12T08:40:25.963Z</time></trkpt><trkpt lat="40.6396517" lon="15.1364067"><ele>222.0</ele><time>2026-04-12T08:40:27.963Z</time></trkpt><trkpt lat="40.6396817" lon="15.1364983"><ele>222.0</ele><time>2026-04-12T08:40:28.963Z</time></trkpt><trkpt lat="40.6397083" lon="15.1365867"><ele>222.0</ele><time>2026-04-12T08:40:29.963Z</time></trkpt><trkpt lat="40.63973" lon="15.1366717"><ele>222.0</ele><time>2026-04-12T08:40:30.963Z</time></trkpt><trkpt lat="40.63975" lon="15.1367517"><ele>222.0</ele><time>2026-04-12T08:40:31.964Z</time></trkpt><trkpt lat="40.6397983" lon="15.13689"><ele>222.0</ele><time>2026-04-12T08:40:33.963Z</time></trkpt><trkpt lat="40.6398333" lon="15.1369767"><ele>223.2</ele><time>2026-04-12T08:40:36.963Z</time></trkpt><trkpt lat="40.63985" lon="15.1370867"><ele>224.39999999999998</ele><time>2026-04-12T08:40:40.963Z</time></trkpt><trkpt lat="40.639815" lon="15.1372"><ele>225.60000000000002</ele><time>2026-04-12T08:40:42.963Z</time></trkpt><trkpt lat="40.6397567" lon="15.137345"><ele>226.8</ele><time>2026-04-12T08:40:44.963Z</time></trkpt><trkpt lat="40.6396983" lon="15.1374933"><ele>228.0</ele><time>2026-04-12T08:40:46.963Z</time></trkpt><trkpt lat="40.63967" lon="15.1375683"><ele>228.42857142857142</ele><time>2026-04-12T08:40:47.963Z</time></trkpt><trkpt lat="40.6396417" lon="15.137645"><ele>228.85714285714283</ele><time>2026-04-12T08:40:48.963Z</time></trkpt><trkpt lat="40.63961" lon="15.1377233"><ele>229.28571428571428</ele><time>2026-04-12T08:40:49.963Z</time></trkpt><trkpt lat="40.6395767" lon="15.1378033"><ele>229.71428571428572</ele><time>2026-04-12T08:40:50.963Z</time></trkpt><trkpt lat="40.6395417" lon="15.137885"><ele>230.14285714285714</ele><time>2026-04-12T08:40:51.963Z</time></trkpt><trkpt lat="40.6395017" lon="15.1379667"><ele>230.57142857142856</ele><time>2026-04-12T08:40:52.963Z</time></trkpt><trkpt lat="40.6394617" lon="15.1380517"><ele>231.0</ele><time>2026-04-12T08:40:53.964Z</time></trkpt><trkpt lat="40.6394217" lon="15.1381383"><ele>231.66666666666666</ele><time>2026-04-12T08:40:54.963Z</time></trkpt><trkpt lat="40.6393833" lon="15.138235"><ele>232.33333333333331</ele><time>2026-04-12T08:40:55.963Z</time></trkpt><trkpt lat="40.6393483" lon="15.1383233"><ele>233.0</ele><time>2026-04-12T08:40:56.963Z</time></trkpt><trkpt lat="40.6393117" lon="15.1384117"><ele>233.66666666666666</ele><time>2026-04-12T08:40:57.963Z</time></trkpt><trkpt lat="40.63927" lon="15.1384983"><ele>234.33333333333331</ele><time>2026-04-12T08:40:58.963Z</time></trkpt><trkpt lat="40.6392283" lon="15.138585"><ele>235.0</ele><time>2026-04-12T08:40:59.963Z</time></trkpt><trkpt lat="40.63918" lon="15.1386717"><ele>235.0</ele><time>2026-04-12T08:41:00.963Z</time></trkpt><trkpt lat="40.6391233" lon="15.13876"><ele>235.0</ele><time>2026-04-12T08:41:01.964Z</time></trkpt><trkpt lat="40.639055" lon="15.138865"><ele>235.0</ele><time>2026-04-12T08:41:02.964Z</time></trkpt><trkpt lat="40.6389833" lon="15.138975"><ele>235.0</ele><time>2026-04-12T08:41:03.963Z</time></trkpt><trkpt lat="40.6389133" lon="15.1391"><ele>235.0</ele><time>2026-04-12T08:41:04.963Z</time></trkpt><trkpt lat="40.6388383" lon="15.139235"><ele>234.75</ele><time>2026-04-12T08:41:05.964Z</time></trkpt><trkpt lat="40.638765" lon="15.139385"><ele>234.5</ele><time>2026-04-12T08:41:06.963Z</time></trkpt><trkpt lat="40.6386933" lon="15.139525"><ele>234.25</ele><time>2026-04-12T08:41:07.963Z</time></trkpt><trkpt lat="40.6386233" lon="15.139645"><ele>234.0</ele><time>2026-04-12T08:41:08.963Z</time></trkpt><trkpt lat="40.6385583" lon="15.1397633"><ele>234.0</ele><time>2026-04-12T08:41:09.963Z</time></trkpt><trkpt lat="40.6384867" lon="15.1398733"><ele>233.99999999999997</ele><time>2026-04-12T08:41:10.963Z</time></trkpt><trkpt lat="40.63841" lon="15.1399667"><ele>233.99999999999997</ele><time>2026-04-12T08:41:11.963Z</time></trkpt><trkpt lat="40.63833" lon="15.1400717"><ele>234.0</ele><time>2026-04-12T08:41:12.963Z</time></trkpt><trkpt lat="40.6382567" lon="15.140185"><ele>234.0</ele><time>2026-04-12T08:41:13.963Z</time></trkpt><trkpt lat="40.6381933" lon="15.14029"><ele>234.83333333333334</ele><time>2026-04-12T08:41:14.963Z</time></trkpt><trkpt lat="40.6381367" lon="15.1403767"><ele>235.66666666666669</ele><time>2026-04-12T08:41:15.963Z</time></trkpt><trkpt lat="40.6380817" lon="15.1404533"><ele>236.5</ele><time>2026-04-12T08:41:16.963Z</time></trkpt><trkpt lat="40.6380217" lon="15.1405183"><ele>237.33333333333334</ele><time>2026-04-12T08:41:17.964Z</time></trkpt><trkpt lat="40.6379533" lon="15.14057"><ele>238.16666666666669</ele><time>2026-04-12T08:41:18.963Z</time></trkpt><trkpt lat="40.6378867" lon="15.1406367"><ele>239.0</ele><time>2026-04-12T08:41:19.963Z</time></trkpt><trkpt lat="40.6378167" lon="15.1406983"><ele>239.33333333333334</ele><time>2026-04-12T08:41:20.963Z</time></trkpt><trkpt lat="40.63775" lon="15.1407567"><ele>239.66666666666669</ele><time>2026-04-12T08:41:21.963Z</time></trkpt><trkpt lat="40.6376833" lon="15.140815"><ele>240.0</ele><time>2026-04-12T08:41:22.963Z</time></trkpt><trkpt lat="40.6376267" lon="15.140875"><ele>240.33333333333331</ele><time>2026-04-12T08:41:23.963Z</time></trkpt><trkpt lat="40.63757" lon="15.140935"><ele>240.66666666666666</ele><time>2026-04-12T08:41:24.963Z</time></trkpt><trkpt lat="40.6375117" lon="15.140995"><ele>241.0</ele><time>2026-04-12T08:41:25.963Z</time></trkpt><trkpt lat="40.6374517" lon="15.1410667"><ele>240.99999999999997</ele><time>2026-04-12T08:41:26.963Z</time></trkpt><trkpt lat="40.6373883" lon="15.1411467"><ele>241.0</ele><time>2026-04-12T08:41:27.963Z</time></trkpt><trkpt lat="40.637325" lon="15.1412217"><ele>241.0</ele><time>2026-04-12T08:41:28.963Z</time></trkpt><trkpt lat="40.63727" lon="15.1412867"><ele>241.0</ele><time>2026-04-12T08:41:29.963Z</time></trkpt><trkpt lat="40.63722" lon="15.1413383"><ele>240.99999999999997</ele><time>2026-04-12T08:41:30.963Z</time></trkpt><trkpt lat="40.6371633" lon="15.1414033"><ele>241.0</ele><time>2026-04-12T08:41:32.963Z</time></trkpt><trkpt lat="40.6371783" lon="15.141505"><ele>241.49999999999997</ele><time>2026-04-12T08:41:36.963Z</time></trkpt><trkpt lat="40.6372433" lon="15.1415767"><ele>242.0</ele><time>2026-04-12T08:41:38.963Z</time></trkpt><trkpt lat="40.6373317" lon="15.1416733"><ele>242.5</ele><time>2026-04-12T08:41:40.963Z</time></trkpt><trkpt lat="40.6373783" lon="15.1417317"><ele>243.0</ele><time>2026-04-12T08:41:41.963Z</time></trkpt><trkpt lat="40.6374233" lon="15.1418083"><ele>243.49999999999997</ele><time>2026-04-12T08:41:42.963Z</time></trkpt><trkpt lat="40.6374683" lon="15.1418833"><ele>244.0</ele><time>2026-04-12T08:41:43.963Z</time></trkpt><trkpt lat="40.6375167" lon="15.141965"><ele>243.99999999999997</ele><time>2026-04-12T08:41:44.963Z</time></trkpt><trkpt lat="40.6375667" lon="15.1420433"><ele>244.0</ele><time>2026-04-12T08:41:45.963Z</time></trkpt><trkpt lat="40.6376083" lon="15.142125"><ele>244.0</ele><time>2026-04-12T08:41:46.963Z</time></trkpt><trkpt lat="40.6376483" lon="15.1422017"><ele>244.0</ele><time>2026-04-12T08:41:47.963Z</time></trkpt><trkpt lat="40.6376833" lon="15.1422783"><ele>243.99999999999997</ele><time>2026-04-12T08:41:48.963Z</time></trkpt><trkpt lat="40.63775" lon="15.142425"><ele>244.0</ele><time>2026-04-12T08:41:50.964Z</time></trkpt><trkpt lat="40.6377833" lon="15.1424967"><ele>245.16666666666666</ele><time>2026-04-12T08:41:51.963Z</time></trkpt><trkpt lat="40.6378183" lon="15.14258"><ele>246.33333333333331</ele><time>2026-04-12T08:43:34.962Z</time></trkpt><trkpt lat="40.6378717" lon="15.14266"><ele>247.5</ele><time>2026-04-12T08:43:41.963Z</time></trkpt><trkpt lat="40.6379333" lon="15.1427317"><ele>248.66666666666669</ele><time>2026-04-12T08:43:43.962Z</time></trkpt><trkpt lat="40.6379917" lon="15.1428017"><ele>249.83333333333334</ele><time>2026-04-12T08:43:45.962Z</time></trkpt><trkpt lat="40.6380533" lon="15.14288"><ele>251.0</ele><time>2026-04-12T08:43:47.962Z</time></trkpt><trkpt lat="40.6381283" lon="15.142965"><ele>251.00000000000003</ele><time>2026-04-12T08:43:49.962Z</time></trkpt><trkpt lat="40.6381767" lon="15.1430267"><ele>251.0</ele><time>2026-04-12T08:43:50.962Z</time></trkpt><trkpt lat="40.6382217" lon="15.1430967"><ele>251.0</ele><time>2026-04-12T08:43:51.962Z</time></trkpt><trkpt lat="40.6382617" lon="15.143165"><ele>251.0</ele><time>2026-04-12T08:43:52.962Z</time></trkpt><trkpt lat="40.6383083" lon="15.1432317"><ele>251.00000000000003</ele><time>2026-04-12T08:43:53.962Z</time></trkpt><trkpt lat="40.6383533" lon="15.1433017"><ele>251.0</ele><time>2026-04-12T08:43:54.962Z</time></trkpt><trkpt lat="40.638445" lon="15.1433967"><ele>251.75</ele><time>2026-04-12T08:43:56.962Z</time></trkpt><trkpt lat="40.63856" lon="15.1434783"><ele>252.5</ele><time>2026-04-12T08:43:58.962Z</time></trkpt><trkpt lat="40.6386467" lon="15.143535"><ele>253.25</ele><time>2026-04-12T08:43:59.962Z</time></trkpt><trkpt lat="40.6387467" lon="15.143615"><ele>254.0</ele><time>2026-04-12T08:44:00.962Z</time></trkpt><trkpt lat="40.6388517" lon="15.1437017"><ele>254.6</ele><time>2026-04-12T08:44:01.962Z</time></trkpt><trkpt lat="40.63894" lon="15.143775"><ele>255.2</ele><time>2026-04-12T08:44:02.962Z</time></trkpt><trkpt lat="40.6390183" lon="15.14384"><ele>255.79999999999998</ele><time>2026-04-12T08:44:03.962Z</time></trkpt><trkpt lat="40.6390783" lon="15.143895"><ele>256.4</ele><time>2026-04-12T08:44:04.962Z</time></trkpt><trkpt lat="40.6391783" lon="15.1439767"><ele>257.0</ele><time>2026-04-12T08:44:06.962Z</time></trkpt><trkpt lat="40.6392467" lon="15.1440467"><ele>257.0</ele><time>2026-04-12T08:44:08.962Z</time></trkpt><trkpt lat="40.6393183" lon="15.1440133"><ele>257.0</ele><time>2026-04-12T08:44:12.962Z</time></trkpt><trkpt lat="40.63935" lon="15.1439167"><ele>257.0</ele><time>2026-04-12T08:44:14.962Z</time></trkpt><trkpt lat="40.63941" lon="15.1438033"><ele>257.0</ele><time>2026-04-12T08:44:16.962Z</time></trkpt><trkpt lat="40.6394883" lon="15.14368"><ele>257.0</ele><time>2026-04-12T08:44:18.962Z</time></trkpt><trkpt lat="40.63953" lon="15.1436133"><ele>257.0</ele><time>2026-04-12T08:44:19.962Z</time></trkpt><trkpt lat="40.6395817" lon="15.143545"><ele>257.1666666666667</ele><time>2026-04-12T08:44:20.962Z</time></trkpt><trkpt lat="40.6396367" lon="15.1434667"><ele>257.33333333333337</ele><time>2026-04-12T08:44:21.962Z</time></trkpt><trkpt lat="40.639695" lon="15.1433817"><ele>257.5</ele><time>2026-04-12T08:44:22.962Z</time></trkpt><trkpt lat="40.6397533" lon="15.1433017"><ele>257.6666666666667</ele><time>2026-04-12T08:44:23.962Z</time></trkpt><trkpt lat="40.6398117" lon="15.1432117"><ele>257.8333333333333</ele><time>2026-04-12T08:44:24.962Z</time></trkpt><trkpt lat="40.6398683" lon="15.1431233"><ele>258.0</ele><time>2026-04-12T08:44:25.962Z</time></trkpt><trkpt lat="40.639925" lon="15.1430383"><ele>258.0</ele><time>2026-04-12T08:44:26.962Z</time></trkpt><trkpt lat="40.6399767" lon="15.1429617"><ele>258.0</ele><time>2026-04-12T08:44:27.962Z</time></trkpt><trkpt lat="40.6400217" lon="15.1428967"><ele>258.0</ele><time>2026-04-12T08:44:28.962Z</time></trkpt><trkpt lat="40.64009" lon="15.1428133"><ele>258.0</ele><time>2026-04-12T08:44:30.962Z</time></trkpt><trkpt lat="40.6401683" lon="15.1427233"><ele>258.0</ele><time>2026-04-12T08:44:33.962Z</time></trkpt><trkpt lat="40.640255" lon="15.1426033"><ele>257.8</ele><time>2026-04-12T08:44:35.962Z</time></trkpt><trkpt lat="40.6403117" lon="15.1425083"><ele>257.6</ele><time>2026-04-12T08:44:36.962Z</time></trkpt><trkpt lat="40.6403667" lon="15.1424017"><ele>257.4</ele><time>2026-04-12T08:44:37.962Z</time></trkpt><trkpt lat="40.6404117" lon="15.1422867"><ele>257.2</ele><time>2026-04-12T08:44:38.962Z</time></trkpt><trkpt lat="40.6404467" lon="15.1421683"><ele>257.0</ele><time>2026-04-12T08:44:39.962Z</time></trkpt><trkpt lat="40.6404883" lon="15.14205"><ele>257.0</ele><time>2026-04-12T08:44:40.962Z</time></trkpt><trkpt lat="40.6405367" lon="15.14193"><ele>257.0</ele><time>2026-04-12T08:44:41.962Z</time></trkpt><trkpt lat="40.6405833" lon="15.1418233"><ele>257.0</ele><time>2026-04-12T08:44:42.963Z</time></trkpt><trkpt lat="40.6406317" lon="15.141725"><ele>257.0</ele><time>2026-04-12T08:44:43.963Z</time></trkpt><trkpt lat="40.6406717" lon="15.1416267"><ele>257.0</ele><time>2026-04-12T08:44:44.962Z</time></trkpt><trkpt lat="40.6407167" lon="15.1415417"><ele>257.0</ele><time>2026-04-12T08:44:45.962Z</time></trkpt><trkpt lat="40.6407617" lon="15.14146"><ele>256.83333333333337</ele><time>2026-04-12T08:44:46.962Z</time></trkpt><trkpt lat="40.6408133" lon="15.1413833"><ele>256.6666666666667</ele><time>2026-04-12T08:44:47.963Z</time></trkpt><trkpt lat="40.6408717" lon="15.1413"><ele>256.5</ele><time>2026-04-12T08:44:48.962Z</time></trkpt><trkpt lat="40.640945" lon="15.1412267"><ele>256.3333333333333</ele><time>2026-04-12T08:44:49.962Z</time></trkpt><trkpt lat="40.64102" lon="15.14114"><ele>256.16666666666663</ele><time>2026-04-12T08:44:50.962Z</time></trkpt><trkpt lat="40.6410867" lon="15.14106"><ele>256.0</ele><time>2026-04-12T08:44:51.962Z</time></trkpt><trkpt lat="40.6411483" lon="15.1409933"><ele>255.99999999999997</ele><time>2026-04-12T08:44:52.962Z</time></trkpt><trkpt lat="40.6412133" lon="15.1409317"><ele>256.0</ele><time>2026-04-12T08:44:53.962Z</time></trkpt><trkpt lat="40.6412833" lon="15.14088"><ele>256.0</ele><time>2026-04-12T08:44:54.962Z</time></trkpt><trkpt lat="40.6413617" lon="15.1408233"><ele>256.0</ele><time>2026-04-12T08:44:55.962Z</time></trkpt><trkpt lat="40.6414483" lon="15.1407667"><ele>255.99999999999997</ele><time>2026-04-12T08:44:56.962Z</time></trkpt><trkpt lat="40.6415283" lon="15.14072"><ele>256.0</ele><time>2026-04-12T08:44:57.962Z</time></trkpt><trkpt lat="40.641605" lon="15.1406817"><ele>255.60000000000002</ele><time>2026-04-12T08:44:58.963Z</time></trkpt><trkpt lat="40.6416867" lon="15.1406533"><ele>255.20000000000002</ele><time>2026-04-12T08:44:59.962Z</time></trkpt><trkpt lat="40.6417767" lon="15.14062"><ele>254.79999999999998</ele><time>2026-04-12T08:45:00.962Z</time></trkpt><trkpt lat="40.6418717" lon="15.1405783"><ele>254.39999999999998</ele><time>2026-04-12T08:45:01.962Z</time></trkpt><trkpt lat="40.6419583" lon="15.140535"><ele>254.0</ele><time>2026-04-12T08:45:02.963Z</time></trkpt><trkpt lat="40.6420383" lon="15.140495"><ele>254.0</ele><time>2026-04-12T08:45:03.962Z</time></trkpt><trkpt lat="40.6421117" lon="15.1404617"><ele>254.0</ele><time>2026-04-12T08:45:04.962Z</time></trkpt><trkpt lat="40.6421767" lon="15.1404283"><ele>254.0</ele><time>2026-04-12T08:45:05.962Z</time></trkpt><trkpt lat="40.6422333" lon="15.14039"><ele>254.0</ele><time>2026-04-12T08:45:06.962Z</time></trkpt><trkpt lat="40.6422933" lon="15.1403467"><ele>254.0</ele><time>2026-04-12T08:45:07.962Z</time></trkpt><trkpt lat="40.64235" lon="15.1402983"><ele>254.0</ele><time>2026-04-12T08:45:08.962Z</time></trkpt><trkpt lat="40.64243" lon="15.1402283"><ele>254.0</ele><time>2026-04-12T08:45:10.962Z</time></trkpt><trkpt lat="40.6425" lon="15.1402"><ele>254.0</ele><time>2026-04-12T08:45:13.962Z</time></trkpt><trkpt lat="40.64254" lon="15.1403083"><ele>253.99999999999997</ele><time>2026-04-12T08:45:29.962Z</time></trkpt><trkpt lat="40.642595" lon="15.1404467"><ele>253.99999999999997</ele><time>2026-04-12T08:45:31.962Z</time></trkpt><trkpt lat="40.6426667" lon="15.1405817"><ele>254.0</ele><time>2026-04-12T08:45:33.962Z</time></trkpt><trkpt lat="40.6427083" lon="15.1406517"><ele>254.0</ele><time>2026-04-12T08:45:34.962Z</time></trkpt><trkpt lat="40.64275" lon="15.1407283"><ele>254.57142857142858</ele><time>2026-04-12T08:45:35.962Z</time></trkpt><trkpt lat="40.6427883" lon="15.1408083"><ele>255.1428571428571</ele><time>2026-04-12T08:45:36.962Z</time></trkpt><trkpt lat="40.6428317" lon="15.1408967"><ele>255.7142857142857</ele><time>2026-04-12T08:45:37.962Z</time></trkpt><trkpt lat="40.6428733" lon="15.1409767"><ele>256.2857142857143</ele><time>2026-04-12T08:45:38.962Z</time></trkpt><trkpt lat="40.6429117" lon="15.1410483"><ele>256.85714285714283</ele><time>2026-04-12T08:45:39.962Z</time></trkpt><trkpt lat="40.6429417" lon="15.1411267"><ele>257.4285714285714</ele><time>2026-04-12T08:45:40.962Z</time></trkpt><trkpt lat="40.6429767" lon="15.1412133"><ele>258.0</ele><time>2026-04-12T08:45:41.962Z</time></trkpt><trkpt lat="40.643015" lon="15.1413033"><ele>258.57142857142856</ele><time>2026-04-12T08:45:42.962Z</time></trkpt><trkpt lat="40.64305" lon="15.1413883"><ele>259.1428571428571</ele><time>2026-04-12T08:45:43.962Z</time></trkpt><trkpt lat="40.64308" lon="15.1414717"><ele>259.7142857142857</ele><time>2026-04-12T08:45:44.962Z</time></trkpt><trkpt lat="40.64311" lon="15.141555"><ele>260.2857142857143</ele><time>2026-04-12T08:45:45.962Z</time></trkpt><trkpt lat="40.6431383" lon="15.14164"><ele>260.8571428571429</ele><time>2026-04-12T08:45:46.962Z</time></trkpt><trkpt lat="40.64317" lon="15.1417317"><ele>261.42857142857144</ele><time>2026-04-12T08:45:47.962Z</time></trkpt><trkpt lat="40.643205" lon="15.1418317"><ele>262.0</ele><time>2026-04-12T08:45:48.962Z</time></trkpt><trkpt lat="40.6432367" lon="15.1419283"><ele>262.66666666666663</ele><time>2026-04-12T08:45:49.962Z</time></trkpt><trkpt lat="40.6432733" lon="15.1420133"><ele>263.3333333333333</ele><time>2026-04-12T08:45:50.962Z</time></trkpt><trkpt lat="40.64331" lon="15.1420867"><ele>264.0</ele><time>2026-04-12T08:45:51.962Z</time></trkpt><trkpt lat="40.6433717" lon="15.1422017"><ele>264.6666666666667</ele><time>2026-04-12T08:45:53.962Z</time></trkpt><trkpt lat="40.6434217" lon="15.1423017"><ele>265.33333333333337</ele><time>2026-04-12T08:45:55.962Z</time></trkpt><trkpt lat="40.6434733" lon="15.1424"><ele>266.0</ele><time>2026-04-12T08:45:57.962Z</time></trkpt><trkpt lat="40.6435533" lon="15.1425"><ele>267.2</ele><time>2026-04-12T08:45:59.962Z</time></trkpt><trkpt lat="40.6436" lon="15.1426017"><ele>268.40000000000003</ele><time>2026-04-12T08:46:01.963Z</time></trkpt><trkpt lat="40.6436383" lon="15.1427333"><ele>269.6</ele><time>2026-04-12T08:46:03.962Z</time></trkpt><trkpt lat="40.6436867" lon="15.1428833"><ele>270.8</ele><time>2026-04-12T08:46:05.962Z</time></trkpt><trkpt lat="40.6437317" lon="15.143"><ele>272.0</ele><time>2026-04-12T08:46:07.962Z</time></trkpt><trkpt lat="40.6437767" lon="15.1430933"><ele>272.83333333333337</ele><time>2026-04-12T08:46:10.962Z</time></trkpt><trkpt lat="40.643835" lon="15.14314"><ele>273.6666666666667</ele><time>2026-04-12T08:46:14.962Z</time></trkpt><trkpt lat="40.6439067" lon="15.14308"><ele>274.5</ele><time>2026-04-12T08:46:17.962Z</time></trkpt><trkpt lat="40.6439617" lon="15.14303"><ele>275.3333333333333</ele><time>2026-04-12T08:46:19.962Z</time></trkpt><trkpt lat="40.644035" lon="15.143045"><ele>276.16666666666663</ele><time>2026-04-12T08:46:22.962Z</time></trkpt><trkpt lat="40.6440767" lon="15.1431233"><ele>277.0</ele><time>2026-04-12T08:46:24.962Z</time></trkpt><trkpt lat="40.6441383" lon="15.1432317"><ele>278.0</ele><time>2026-04-12T08:46:26.962Z</time></trkpt><trkpt lat="40.6442133" lon="15.1433233"><ele>279.0</ele><time>2026-04-12T08:46:28.962Z</time></trkpt><trkpt lat="40.6442983" lon="15.1434083"><ele>280.0</ele><time>2026-04-12T08:46:30.962Z</time></trkpt><trkpt lat="40.6443933" lon="15.1434883"><ele>281.0</ele><time>2026-04-12T08:46:32.962Z</time></trkpt><trkpt lat="40.6444817" lon="15.1435933"><ele>282.0</ele><time>2026-04-12T08:46:34.962Z</time></trkpt><trkpt lat="40.644545" lon="15.1437233"><ele>282.6</ele><time>2026-04-12T08:46:36.962Z</time></trkpt><trkpt lat="40.6445783" lon="15.143795"><ele>283.2</ele><time>2026-04-12T08:46:37.962Z</time></trkpt><trkpt lat="40.6446417" lon="15.1439233"><ele>283.8</ele><time>2026-04-12T08:46:39.962Z</time></trkpt><trkpt lat="40.6446917" lon="15.1440533"><ele>284.4</ele><time>2026-04-12T08:46:41.962Z</time></trkpt><trkpt lat="40.6447617" lon="15.1441883"><ele>285.0</ele><time>2026-04-12T08:46:43.962Z</time></trkpt><trkpt lat="40.6447967" lon="15.144265"><ele>286.0</ele><time>2026-04-12T08:46:44.962Z</time></trkpt><trkpt lat="40.6448583" lon="15.1444117"><ele>287.0</ele><time>2026-04-12T08:46:46.962Z</time></trkpt><trkpt lat="40.6448933" lon="15.1444917"><ele>288.0</ele><time>2026-04-12T08:46:47.963Z</time></trkpt><trkpt lat="40.6449317" lon="15.1445683"><ele>289.0</ele><time>2026-04-12T08:46:48.962Z</time></trkpt><trkpt lat="40.6449817" lon="15.144655"><ele>290.0</ele><time>2026-04-12T08:46:49.962Z</time></trkpt><trkpt lat="40.6450267" lon="15.1447317"><ele>291.0</ele><time>2026-04-12T08:46:50.962Z</time></trkpt><trkpt lat="40.645075" lon="15.1448017"><ele>291.0</ele><time>2026-04-12T08:46:51.962Z</time></trkpt><trkpt lat="40.64512" lon="15.144875"><ele>291.0</ele><time>2026-04-12T08:46:52.962Z</time></trkpt><trkpt lat="40.64516" lon="15.1449517"><ele>291.0</ele><time>2026-04-12T08:46:53.962Z</time></trkpt><trkpt lat="40.6452067" lon="15.14502"><ele>291.0</ele><time>2026-04-12T08:46:54.962Z</time></trkpt><trkpt lat="40.64529" lon="15.1451467"><ele>291.0</ele><time>2026-04-12T08:46:56.962Z</time></trkpt><trkpt lat="40.6453667" lon="15.145255"><ele>292.6666666666667</ele><time>2026-04-12T08:46:58.962Z</time></trkpt><trkpt lat="40.6454117" lon="15.14532"><ele>294.3333333333333</ele><time>2026-04-12T08:47:00.962Z</time></trkpt><trkpt lat="40.64543" lon="15.1454017"><ele>296.0</ele><time>2026-04-12T08:47:02.961Z</time></trkpt><trkpt lat="40.6454333" lon="15.1455"><ele>297.66666666666663</ele><time>2026-04-12T08:47:04.961Z</time></trkpt><trkpt lat="40.64542" lon="15.1456267"><ele>299.3333333333333</ele><time>2026-04-12T08:47:06.961Z</time></trkpt><trkpt lat="40.645385" lon="15.145755"><ele>301.0</ele><time>2026-04-12T08:47:08.961Z</time></trkpt><trkpt lat="40.645355" lon="15.1458767"><ele>302.0</ele><time>2026-04-12T08:47:10.961Z</time></trkpt><trkpt lat="40.64533" lon="15.1459817"><ele>303.0</ele><time>2026-04-12T08:47:17.961Z</time></trkpt><trkpt lat="40.6453" lon="15.1461017"><ele>304.0</ele><time>2026-04-12T08:47:19.961Z</time></trkpt><trkpt lat="40.6453017" lon="15.146225"><ele>305.0</ele><time>2026-04-12T08:47:21.961Z</time></trkpt><trkpt lat="40.64532" lon="15.1463783"><ele>306.0</ele><time>2026-04-12T08:47:23.961Z</time></trkpt><trkpt lat="40.6453433" lon="15.1464667"><ele>307.0</ele><time>2026-04-12T08:47:24.961Z</time></trkpt><trkpt lat="40.6453683" lon="15.1465583"><ele>308.0</ele><time>2026-04-12T08:47:25.961Z</time></trkpt><trkpt lat="40.645395" lon="15.1466583"><ele>309.0</ele><time>2026-04-12T08:47:26.961Z</time></trkpt><trkpt lat="40.6454167" lon="15.1467617"><ele>310.0</ele><time>2026-04-12T08:47:27.961Z</time></trkpt><trkpt lat="40.6454367" lon="15.1468733"><ele>311.0</ele><time>2026-04-12T08:47:28.961Z</time></trkpt><trkpt lat="40.6454417" lon="15.1469833"><ele>312.0</ele><time>2026-04-12T08:47:29.961Z</time></trkpt><trkpt lat="40.6454617" lon="15.14708"><ele>312.0</ele><time>2026-04-12T08:47:30.961Z</time></trkpt><trkpt lat="40.645475" lon="15.1471667"><ele>312.0</ele><time>2026-04-12T08:47:31.961Z</time></trkpt><trkpt lat="40.6455" lon="15.1472867"><ele>312.0</ele><time>2026-04-12T08:47:33.961Z</time></trkpt><trkpt lat="40.645525" lon="15.14738"><ele>312.0</ele><time>2026-04-12T08:47:35.961Z</time></trkpt><trkpt lat="40.6455633" lon="15.1474683"><ele>312.0</ele><time>2026-04-12T08:47:38.962Z</time></trkpt><trkpt lat="40.645605" lon="15.1475583"><ele>312.0</ele><time>2026-04-12T08:47:43.962Z</time></trkpt><trkpt lat="40.6456683" lon="15.1475833"><ele>312.1666666666667</ele><time>2026-04-12T08:47:46.961Z</time></trkpt><trkpt lat="40.6457817" lon="15.1476217"><ele>312.3333333333333</ele><time>2026-04-12T08:47:48.961Z</time></trkpt><trkpt lat="40.6458467" lon="15.1476367"><ele>312.5</ele><time>2026-04-12T08:47:49.961Z</time></trkpt><trkpt lat="40.64591" lon="15.1476583"><ele>312.66666666666663</ele><time>2026-04-12T08:47:50.961Z</time></trkpt><trkpt lat="40.6459817" lon="15.147675"><ele>312.8333333333333</ele><time>2026-04-12T08:47:51.961Z</time></trkpt><trkpt lat="40.6460583" lon="15.1476983"><ele>313.0</ele><time>2026-04-12T08:47:52.961Z</time></trkpt><trkpt lat="40.64614" lon="15.1477217"><ele>314.3333333333333</ele><time>2026-04-12T08:47:53.961Z</time></trkpt><trkpt lat="40.6462167" lon="15.1477383"><ele>315.66666666666663</ele><time>2026-04-12T08:47:54.961Z</time></trkpt><trkpt lat="40.646295" lon="15.1477533"><ele>317.0</ele><time>2026-04-12T08:47:55.961Z</time></trkpt><trkpt lat="40.6463733" lon="15.147765"><ele>318.3333333333333</ele><time>2026-04-12T08:47:56.962Z</time></trkpt><trkpt lat="40.6464617" lon="15.1477817"><ele>319.6666666666667</ele><time>2026-04-12T08:47:57.961Z</time></trkpt><trkpt lat="40.6465467" lon="15.1478017"><ele>321.0</ele><time>2026-04-12T08:47:58.961Z</time></trkpt><trkpt lat="40.646635" lon="15.1478233"><ele>321.0</ele><time>2026-04-12T08:47:59.961Z</time></trkpt><trkpt lat="40.6467483" lon="15.1478517"><ele>321.0</ele><time>2026-04-12T08:48:00.961Z</time></trkpt><trkpt lat="40.64691" lon="15.1478783"><ele>321.0</ele><time>2026-04-12T08:48:01.961Z</time></trkpt><trkpt lat="40.6470817" lon="15.1478983"><ele>323.3333333333333</ele><time>2026-04-12T08:48:02.961Z</time></trkpt><trkpt lat="40.6472383" lon="15.1479217"><ele>325.66666666666663</ele><time>2026-04-12T08:48:03.961Z</time></trkpt><trkpt lat="40.6474017" lon="15.1479467"><ele>328.0</ele><time>2026-04-12T08:48:04.961Z</time></trkpt><trkpt lat="40.6475783" lon="15.1479617"><ele>328.0</ele><time>2026-04-12T08:48:05.961Z</time></trkpt><trkpt lat="40.6477317" lon="15.1479767"><ele>328.0</ele><time>2026-04-12T08:48:06.961Z</time></trkpt><trkpt lat="40.6478717" lon="15.14798"><ele>328.0</ele><time>2026-04-12T08:48:07.961Z</time></trkpt><trkpt lat="40.647995" lon="15.1479917"><ele>328.0</ele><time>2026-04-12T08:48:08.961Z</time></trkpt><trkpt lat="40.6481133" lon="15.1480183"><ele>329.5</ele><time>2026-04-12T08:48:09.961Z</time></trkpt><trkpt lat="40.6482433" lon="15.148055"><ele>331.0</ele><time>2026-04-12T08:48:10.961Z</time></trkpt><trkpt lat="40.6483717" lon="15.1480933"><ele>332.5</ele><time>2026-04-12T08:48:11.961Z</time></trkpt><trkpt lat="40.6484883" lon="15.148135"><ele>334.0</ele><time>2026-04-12T08:48:12.961Z</time></trkpt><trkpt lat="40.64859" lon="15.1481783"><ele>334.66666666666663</ele><time>2026-04-12T08:48:13.961Z</time></trkpt><trkpt lat="40.6486733" lon="15.1482117"><ele>335.3333333333333</ele><time>2026-04-12T08:48:14.961Z</time></trkpt><trkpt lat="40.6487383" lon="15.1482383"><ele>336.0</ele><time>2026-04-12T08:48:15.961Z</time></trkpt><trkpt lat="40.64884" lon="15.1482933"><ele>336.6666666666667</ele><time>2026-04-12T08:48:17.961Z</time></trkpt><trkpt lat="40.6489067" lon="15.148315"><ele>337.33333333333337</ele><time>2026-04-12T08:48:19.961Z</time></trkpt><trkpt lat="40.6489917" lon="15.1482317"><ele>338.0</ele><time>2026-04-12T08:48:38.961Z</time></trkpt><trkpt lat="40.64893" lon="15.1481383"><ele>338.0</ele><time>2026-04-12T08:48:40.961Z</time></trkpt><trkpt lat="40.6488567" lon="15.1480183"><ele>338.0</ele><time>2026-04-12T08:48:42.961Z</time></trkpt><trkpt lat="40.6487883" lon="15.1478867"><ele>338.0</ele><time>2026-04-12T08:48:44.961Z</time></trkpt><trkpt lat="40.648755" lon="15.1478133"><ele>338.0</ele><time>2026-04-12T08:48:45.961Z</time></trkpt><trkpt lat="40.6487217" lon="15.1477333"><ele>338.0</ele><time>2026-04-12T08:48:46.961Z</time></trkpt><trkpt lat="40.6486967" lon="15.1476483"><ele>338.0</ele><time>2026-04-12T08:48:47.961Z</time></trkpt><trkpt lat="40.6486717" lon="15.14757"><ele>338.0</ele><time>2026-04-12T08:48:48.961Z</time></trkpt><trkpt lat="40.64864" lon="15.1474917"><ele>338.0</ele><time>2026-04-12T08:48:49.961Z</time></trkpt><trkpt lat="40.64861" lon="15.1474067"><ele>338.0</ele><time>2026-04-12T08:48:50.961Z</time></trkpt><trkpt lat="40.6485833" lon="15.1473133"><ele>338.0</ele><time>2026-04-12T08:48:51.961Z</time></trkpt><trkpt lat="40.6485517" lon="15.1472033"><ele>338.0</ele><time>2026-04-12T08:48:52.961Z</time></trkpt><trkpt lat="40.6485267" lon="15.1471033"><ele>338.0</ele><time>2026-04-12T08:48:53.961Z</time></trkpt><trkpt lat="40.6485033" lon="15.1470017"><ele>336.8571428571429</ele><time>2026-04-12T08:48:54.961Z</time></trkpt><trkpt lat="40.64848" lon="15.14691"><ele>335.7142857142857</ele><time>2026-04-12T08:48:55.961Z</time></trkpt><trkpt lat="40.6484567" lon="15.1468317"><ele>334.57142857142856</ele><time>2026-04-12T08:48:56.961Z</time></trkpt><trkpt lat="40.64842" lon="15.1467117"><ele>333.42857142857144</ele><time>2026-04-12T08:48:58.961Z</time></trkpt><trkpt lat="40.6483817" lon="15.1466317"><ele>332.2857142857143</ele><time>2026-04-12T08:49:00.961Z</time></trkpt><trkpt lat="40.6483517" lon="15.146555"><ele>331.14285714285717</ele><time>2026-04-12T08:49:02.961Z</time></trkpt><trkpt lat="40.6483117" lon="15.1464867"><ele>330.0</ele><time>2026-04-12T08:49:31.961Z</time></trkpt><trkpt lat="40.648335" lon="15.1465767"><ele>330.0</ele><time>2026-04-12T08:49:34.962Z</time></trkpt><trkpt lat="40.6483533" lon="15.1466633"><ele>330.0</ele><time>2026-04-12T08:49:36.961Z</time></trkpt><trkpt lat="40.6483817" lon="15.1467433"><ele>330.0</ele><time>2026-04-12T08:49:38.961Z</time></trkpt><trkpt lat="40.648415" lon="15.146835"><ele>330.0</ele><time>2026-04-12T08:49:40.962Z</time></trkpt><trkpt lat="40.6484483" lon="15.14696"><ele>330.0</ele><time>2026-04-12T08:49:42.961Z</time></trkpt><trkpt lat="40.6485" lon="15.1470983"><ele>330.0</ele><time>2026-04-12T08:49:44.961Z</time></trkpt><trkpt lat="40.648525" lon="15.147175"><ele>330.0</ele><time>2026-04-12T08:49:45.961Z</time></trkpt><trkpt lat="40.6485733" lon="15.1473233"><ele>330.0</ele><time>2026-04-12T08:49:47.961Z</time></trkpt><trkpt lat="40.64859" lon="15.1474033"><ele>330.0</ele><time>2026-04-12T08:49:48.961Z</time></trkpt><trkpt lat="40.6486183" lon="15.1475017"><ele>330.0</ele><time>2026-04-12T08:49:50.961Z</time></trkpt><trkpt lat="40.6486617" lon="15.1476167"><ele>330.0</ele><time>2026-04-12T08:49:58.961Z</time></trkpt><trkpt lat="40.6487017" lon="15.1476917"><ele>330.0</ele><time>2026-04-12T08:49:59.961Z</time></trkpt><trkpt lat="40.6487417" lon="15.1477867"><ele>331.3333333333333</ele><time>2026-04-12T08:50:00.961Z</time></trkpt><trkpt lat="40.6487917" lon="15.1478917"><ele>332.6666666666667</ele><time>2026-04-12T08:50:01.961Z</time></trkpt><trkpt lat="40.648835" lon="15.147985"><ele>334.0</ele><time>2026-04-12T08:50:02.961Z</time></trkpt><trkpt lat="40.6488683" lon="15.1480683"><ele>335.33333333333337</ele><time>2026-04-12T08:50:03.961Z</time></trkpt><trkpt lat="40.64892" lon="15.1481667"><ele>336.6666666666667</ele><time>2026-04-12T08:50:05.961Z</time></trkpt><trkpt lat="40.6489717" lon="15.148235"><ele>338.0</ele><time>2026-04-12T08:50:07.961Z</time></trkpt><trkpt lat="40.649055" lon="15.1483117"><ele>339.0</ele><time>2026-04-12T08:50:09.962Z</time></trkpt><trkpt lat="40.649165" lon="15.1483517"><ele>340.0</ele><time>2026-04-12T08:50:11.961Z</time></trkpt><trkpt lat="40.649275" lon="15.1483833"><ele>341.0</ele><time>2026-04-12T08:50:13.961Z</time></trkpt><trkpt lat="40.6493533" lon="15.1484"><ele>342.0</ele><time>2026-04-12T08:50:15.961Z</time></trkpt><trkpt lat="40.64942" lon="15.1484233"><ele>343.0</ele><time>2026-04-12T08:50:17.961Z</time></trkpt><trkpt lat="40.6495283" lon="15.1484633"><ele>343.59999999999997</ele><time>2026-04-12T08:50:19.961Z</time></trkpt><trkpt lat="40.6496417" lon="15.148495"><ele>344.2</ele><time>2026-04-12T08:50:21.961Z</time></trkpt><trkpt lat="40.6497333" lon="15.1485317"><ele>344.8</ele><time>2026-04-12T08:50:23.961Z</time></trkpt><trkpt lat="40.6498083" lon="15.148555"><ele>345.4</ele><time>2026-04-12T08:50:25.961Z</time></trkpt><trkpt lat="40.649875" lon="15.14858"><ele>346.0</ele><time>2026-04-12T08:50:27.961Z</time></trkpt><trkpt lat="40.64996" lon="15.148715"><ele>346.0</ele><time>2026-04-12T09:04:13.957Z</time></trkpt><trkpt lat="40.6500283" lon="15.1487317"><ele>346.0</ele><time>2026-04-12T09:04:15.957Z</time></trkpt><trkpt lat="40.650145" lon="15.148795"><ele>346.0</ele><time>2026-04-12T09:04:17.957Z</time></trkpt><trkpt lat="40.6502067" lon="15.1488383"><ele>346.0</ele><time>2026-04-12T09:04:18.957Z</time></trkpt><trkpt lat="40.650275" lon="15.1489283"><ele>346.0</ele><time>2026-04-12T09:04:20.957Z</time></trkpt><trkpt lat="40.65028" lon="15.1490317"><ele>346.0</ele><time>2026-04-12T09:04:27.957Z</time></trkpt><trkpt lat="40.650215" lon="15.1491467"><ele>347.6</ele><time>2026-04-12T09:05:10.957Z</time></trkpt><trkpt lat="40.650175" lon="15.149215"><ele>349.20000000000005</ele><time>2026-04-12T09:05:12.957Z</time></trkpt><trkpt lat="40.6501483" lon="15.1493733"><ele>350.79999999999995</ele><time>2026-04-12T09:05:14.957Z</time></trkpt><trkpt lat="40.6501333" lon="15.1494817"><ele>352.4</ele><time>2026-04-12T09:05:15.957Z</time></trkpt><trkpt lat="40.650125" lon="15.149605"><ele>354.0</ele><time>2026-04-12T09:05:16.957Z</time></trkpt><trkpt lat="40.6500983" lon="15.1497167"><ele>354.0</ele><time>2026-04-12T09:05:17.957Z</time></trkpt><trkpt lat="40.6500883" lon="15.1498317"><ele>354.0</ele><time>2026-04-12T09:05:18.958Z</time></trkpt><trkpt lat="40.6500767" lon="15.1499417"><ele>354.0</ele><time>2026-04-12T09:05:19.957Z</time></trkpt><trkpt lat="40.6500633" lon="15.1500367"><ele>354.0</ele><time>2026-04-12T09:05:20.957Z</time></trkpt><trkpt lat="40.650035" lon="15.1501783"><ele>354.0</ele><time>2026-04-12T09:05:22.958Z</time></trkpt><trkpt lat="40.6500017" lon="15.1502667"><ele>354.0</ele><time>2026-04-12T09:05:24.958Z</time></trkpt><trkpt lat="40.6499467" lon="15.1503617"><ele>354.5</ele><time>2026-04-12T09:05:26.958Z</time></trkpt><trkpt lat="40.649915" lon="15.1504383"><ele>355.0</ele><time>2026-04-12T09:05:28.957Z</time></trkpt><trkpt lat="40.649945" lon="15.150535"><ele>355.5</ele><time>2026-04-12T09:19:11.952Z</time></trkpt><trkpt lat="40.649905" lon="15.1506367"><ele>356.0</ele><time>2026-04-12T09:19:13.952Z</time></trkpt><trkpt lat="40.64987" lon="15.1507483"><ele>356.5</ele><time>2026-04-12T09:19:15.952Z</time></trkpt><trkpt lat="40.6498433" lon="15.1508783"><ele>357.0</ele><time>2026-04-12T09:19:17.952Z</time></trkpt><trkpt lat="40.6498267" lon="15.15104"><ele>357.57142857142856</ele><time>2026-04-12T09:19:19.952Z</time></trkpt><trkpt lat="40.6498117" lon="15.1511333"><ele>358.1428571428571</ele><time>2026-04-12T09:19:20.952Z</time></trkpt><trkpt lat="40.649805" lon="15.1512233"><ele>358.7142857142857</ele><time>2026-04-12T09:19:21.952Z</time></trkpt><trkpt lat="40.64979" lon="15.1513083"><ele>359.2857142857143</ele><time>2026-04-12T09:19:22.953Z</time></trkpt><trkpt lat="40.6497767" lon="15.1514033"><ele>359.85714285714283</ele><time>2026-04-12T09:19:23.952Z</time></trkpt><trkpt lat="40.6497717" lon="15.151505"><ele>360.42857142857144</ele><time>2026-04-12T09:19:24.952Z</time></trkpt><trkpt lat="40.649765" lon="15.1516083"><ele>361.0</ele><time>2026-04-12T09:19:25.952Z</time></trkpt><trkpt lat="40.6497617" lon="15.1517117"><ele>361.16666666666663</ele><time>2026-04-12T09:19:26.952Z</time></trkpt><trkpt lat="40.6497617" lon="15.1518183"><ele>361.3333333333333</ele><time>2026-04-12T09:19:27.952Z</time></trkpt><trkpt lat="40.6497583" lon="15.1519367"><ele>361.5</ele><time>2026-04-12T09:19:28.952Z</time></trkpt><trkpt lat="40.6497633" lon="15.152045"><ele>361.6666666666667</ele><time>2026-04-12T09:19:29.952Z</time></trkpt><trkpt lat="40.6497617" lon="15.1521583"><ele>361.83333333333337</ele><time>2026-04-12T09:19:30.952Z</time></trkpt><trkpt lat="40.6497667" lon="15.15228"><ele>362.0</ele><time>2026-04-12T09:19:31.952Z</time></trkpt><trkpt lat="40.6497767" lon="15.1524017"><ele>362.20000000000005</ele><time>2026-04-12T09:19:32.952Z</time></trkpt><trkpt lat="40.6497917" lon="15.152535"><ele>362.4</ele><time>2026-04-12T09:19:33.952Z</time></trkpt><trkpt lat="40.6498083" lon="15.1526733"><ele>362.6</ele><time>2026-04-12T09:19:34.952Z</time></trkpt><trkpt lat="40.6498267" lon="15.1528133"><ele>362.79999999999995</ele><time>2026-04-12T09:19:35.953Z</time></trkpt><trkpt lat="40.6498483" lon="15.1529533"><ele>363.0</ele><time>2026-04-12T09:19:36.952Z</time></trkpt><trkpt lat="40.6498783" lon="15.15309"><ele>364.0</ele><time>2026-04-12T09:19:37.952Z</time></trkpt><trkpt lat="40.6499033" lon="15.1532317"><ele>365.0</ele><time>2026-04-12T09:19:38.953Z</time></trkpt><trkpt lat="40.649925" lon="15.15338"><ele>366.0</ele><time>2026-04-12T09:19:39.952Z</time></trkpt><trkpt lat="40.649925" lon="15.153535"><ele>367.0</ele><time>2026-04-12T09:19:40.952Z</time></trkpt><trkpt lat="40.6499217" lon="15.1536983"><ele>367.0</ele><time>2026-04-12T09:19:41.952Z</time></trkpt><trkpt lat="40.6499233" lon="15.1538533"><ele>367.0</ele><time>2026-04-12T09:19:42.952Z</time></trkpt><trkpt lat="40.6499167" lon="15.1540183"><ele>367.0</ele><time>2026-04-12T09:19:43.952Z</time></trkpt><trkpt lat="40.64992" lon="15.154175"><ele>367.0</ele><time>2026-04-12T09:19:44.952Z</time></trkpt><trkpt lat="40.6499217" lon="15.1543267"><ele>367.0</ele><time>2026-04-12T09:19:45.952Z</time></trkpt><trkpt lat="40.649925" lon="15.1544717"><ele>367.0</ele><time>2026-04-12T09:19:46.952Z</time></trkpt><trkpt lat="40.6499167" lon="15.1546183"><ele>367.0</ele><time>2026-04-12T09:19:47.952Z</time></trkpt><trkpt lat="40.6499167" lon="15.154765"><ele>367.0</ele><time>2026-04-12T09:19:48.952Z</time></trkpt><trkpt lat="40.6499067" lon="15.15491"><ele>367.0</ele><time>2026-04-12T09:19:49.953Z</time></trkpt><trkpt lat="40.6499" lon="15.15506"><ele>367.40000000000003</ele><time>2026-04-12T09:19:50.952Z</time></trkpt><trkpt lat="40.649895" lon="15.15521"><ele>367.8</ele><time>2026-04-12T09:19:51.952Z</time></trkpt><trkpt lat="40.6498983" lon="15.15535"><ele>368.2</ele><time>2026-04-12T09:19:52.952Z</time></trkpt><trkpt lat="40.6498917" lon="15.1554917"><ele>368.6</ele><time>2026-04-12T09:19:53.952Z</time></trkpt><trkpt lat="40.6499" lon="15.1556383"><ele>369.0</ele><time>2026-04-12T09:19:54.952Z</time></trkpt><trkpt lat="40.6499217" lon="15.1557817"><ele>369.0</ele><time>2026-04-12T09:19:55.952Z</time></trkpt><trkpt lat="40.6499433" lon="15.1559267"><ele>369.0</ele><time>2026-04-12T09:19:56.952Z</time></trkpt><trkpt lat="40.6499633" lon="15.156075"><ele>369.0</ele><time>2026-04-12T09:19:57.952Z</time></trkpt><trkpt lat="40.6499867" lon="15.15622"><ele>369.0</ele><time>2026-04-12T09:19:58.952Z</time></trkpt><trkpt lat="40.6499983" lon="15.156375"><ele>369.0</ele><time>2026-04-12T09:19:59.952Z</time></trkpt><trkpt lat="40.6500017" lon="15.1565233"><ele>369.0</ele><time>2026-04-12T09:20:00.952Z</time></trkpt><trkpt lat="40.649995" lon="15.1566717"><ele>369.0</ele><time>2026-04-12T09:20:01.953Z</time></trkpt><trkpt lat="40.6499717" lon="15.15682"><ele>369.0</ele><time>2026-04-12T09:20:02.953Z</time></trkpt><trkpt lat="40.6499633" lon="15.15697"><ele>369.4</ele><time>2026-04-12T09:20:03.952Z</time></trkpt><trkpt lat="40.6499633" lon="15.1571167"><ele>369.79999999999995</ele><time>2026-04-12T09:20:04.952Z</time></trkpt><trkpt lat="40.6499633" lon="15.157255"><ele>370.20000000000005</ele><time>2026-04-12T09:20:05.952Z</time></trkpt><trkpt lat="40.6499633" lon="15.1573983"><ele>370.6</ele><time>2026-04-12T09:20:06.952Z</time></trkpt><trkpt lat="40.6499683" lon="15.1575467"><ele>371.0</ele><time>2026-04-12T09:20:07.952Z</time></trkpt><trkpt lat="40.64997" lon="15.1576833"><ele>371.20000000000005</ele><time>2026-04-12T09:20:08.953Z</time></trkpt><trkpt lat="40.6499567" lon="15.1578167"><ele>371.40000000000003</ele><time>2026-04-12T09:20:09.952Z</time></trkpt><trkpt lat="40.64992" lon="15.1579483"><ele>371.6</ele><time>2026-04-12T09:20:10.952Z</time></trkpt><trkpt lat="40.6498733" lon="15.1580767"><ele>371.8</ele><time>2026-04-12T09:20:11.952Z</time></trkpt><trkpt lat="40.6498133" lon="15.158205"><ele>372.0</ele><time>2026-04-12T09:20:12.952Z</time></trkpt><trkpt lat="40.64975" lon="15.1583383"><ele>372.8</ele><time>2026-04-12T09:20:13.952Z</time></trkpt><trkpt lat="40.649695" lon="15.1584667"><ele>373.6</ele><time>2026-04-12T09:20:14.952Z</time></trkpt><trkpt lat="40.64966" lon="15.1586017"><ele>374.40000000000003</ele><time>2026-04-12T09:20:15.952Z</time></trkpt><trkpt lat="40.6496283" lon="15.1587467"><ele>375.20000000000005</ele><time>2026-04-12T09:20:16.952Z</time></trkpt><trkpt lat="40.64961" lon="15.158895"><ele>376.0</ele><time>2026-04-12T09:20:17.953Z</time></trkpt><trkpt lat="40.6495933" lon="15.1590583"><ele>376.75</ele><time>2026-04-12T09:20:18.952Z</time></trkpt><trkpt lat="40.6495867" lon="15.1592217"><ele>377.5</ele><time>2026-04-12T09:20:19.952Z</time></trkpt><trkpt lat="40.6495883" lon="15.1593867"><ele>378.25</ele><time>2026-04-12T09:20:20.952Z</time></trkpt><trkpt lat="40.64959" lon="15.1595483"><ele>379.0</ele><time>2026-04-12T09:20:21.952Z</time></trkpt><trkpt lat="40.64959" lon="15.1597083"><ele>379.0</ele><time>2026-04-12T09:20:22.952Z</time></trkpt><trkpt lat="40.6495917" lon="15.1598733"><ele>379.0</ele><time>2026-04-12T09:20:23.952Z</time></trkpt><trkpt lat="40.6495917" lon="15.16004"><ele>379.0</ele><time>2026-04-12T09:20:24.953Z</time></trkpt><trkpt lat="40.6495833" lon="15.1601983"><ele>379.0</ele><time>2026-04-12T09:20:25.952Z</time></trkpt><trkpt lat="40.6495833" lon="15.1603633"><ele>379.0</ele><time>2026-04-12T09:20:26.953Z</time></trkpt><trkpt lat="40.64959" lon="15.1605333"><ele>379.0</ele><time>2026-04-12T09:20:27.952Z</time></trkpt><trkpt lat="40.649605" lon="15.1607033"><ele>379.0</ele><time>2026-04-12T09:20:28.952Z</time></trkpt><trkpt lat="40.6496283" lon="15.1608683"><ele>379.0</ele><time>2026-04-12T09:20:29.952Z</time></trkpt><trkpt lat="40.649645" lon="15.1610367"><ele>379.0</ele><time>2026-04-12T09:20:30.952Z</time></trkpt><trkpt lat="40.6496633" lon="15.1612117"><ele>379.0</ele><time>2026-04-12T09:20:31.952Z</time></trkpt><trkpt lat="40.6496733" lon="15.161395"><ele>379.0</ele><time>2026-04-12T09:20:32.952Z</time></trkpt><trkpt lat="40.649675" lon="15.1615733"><ele>379.0</ele><time>2026-04-12T09:20:33.952Z</time></trkpt><trkpt lat="40.649675" lon="15.1617467"><ele>379.0</ele><time>2026-04-12T09:20:34.952Z</time></trkpt><trkpt lat="40.6496783" lon="15.1619267"><ele>379.0</ele><time>2026-04-12T09:20:35.952Z</time></trkpt><trkpt lat="40.6496833" lon="15.1621083"><ele>379.0</ele><time>2026-04-12T09:20:36.952Z</time></trkpt><trkpt lat="40.6496833" lon="15.162295"><ele>379.0</ele><time>2026-04-12T09:20:37.952Z</time></trkpt><trkpt lat="40.6496817" lon="15.162475"><ele>379.25</ele><time>2026-04-12T09:20:38.952Z</time></trkpt><trkpt lat="40.6496783" lon="15.1626567"><ele>379.5</ele><time>2026-04-12T09:20:39.952Z</time></trkpt><trkpt lat="40.649665" lon="15.1628317"><ele>379.75</ele><time>2026-04-12T09:20:40.952Z</time></trkpt><trkpt lat="40.6496517" lon="15.1630217"><ele>380.0</ele><time>2026-04-12T09:20:41.952Z</time></trkpt><trkpt lat="40.6496417" lon="15.1632067"><ele>379.5</ele><time>2026-04-12T09:20:42.953Z</time></trkpt><trkpt lat="40.6496383" lon="15.163395"><ele>379.0</ele><time>2026-04-12T09:20:43.953Z</time></trkpt><trkpt lat="40.6496467" lon="15.1635783"><ele>378.5</ele><time>2026-04-12T09:20:44.952Z</time></trkpt><trkpt lat="40.649655" lon="15.1637617"><ele>378.0</ele><time>2026-04-12T09:20:45.952Z</time></trkpt><trkpt lat="40.64966" lon="15.16394"><ele>377.5</ele><time>2026-04-12T09:20:46.952Z</time></trkpt><trkpt lat="40.64966" lon="15.1641233"><ele>377.0</ele><time>2026-04-12T09:20:47.952Z</time></trkpt><trkpt lat="40.6496617" lon="15.1642983"><ele>376.5</ele><time>2026-04-12T09:20:48.952Z</time></trkpt><trkpt lat="40.6496667" lon="15.16447"><ele>376.0</ele><time>2026-04-12T09:20:49.952Z</time></trkpt><trkpt lat="40.64967" lon="15.1646467"><ele>376.0</ele><time>2026-04-12T09:20:50.952Z</time></trkpt><trkpt lat="40.649675" lon="15.16482"><ele>376.0</ele><time>2026-04-12T09:20:51.952Z</time></trkpt><trkpt lat="40.649685" lon="15.165"><ele>376.0</ele><time>2026-04-12T09:20:52.952Z</time></trkpt><trkpt lat="40.64969" lon="15.1651867"><ele>376.0</ele><time>2026-04-12T09:20:53.952Z</time></trkpt><trkpt lat="40.649675" lon="15.16539"><ele>376.0</ele><time>2026-04-12T09:20:54.952Z</time></trkpt><trkpt lat="40.6496617" lon="15.1656067"><ele>376.0</ele><time>2026-04-12T09:20:55.952Z</time></trkpt><trkpt lat="40.649645" lon="15.1658117"><ele>376.0</ele><time>2026-04-12T09:20:56.952Z</time></trkpt><trkpt lat="40.649635" lon="15.1660117"><ele>376.0</ele><time>2026-04-12T09:20:57.952Z</time></trkpt><trkpt lat="40.6496267" lon="15.166205"><ele>376.0</ele><time>2026-04-12T09:20:58.953Z</time></trkpt><trkpt lat="40.6496267" lon="15.1663933"><ele>376.0</ele><time>2026-04-12T09:20:59.952Z</time></trkpt><trkpt lat="40.6496167" lon="15.1665833"><ele>376.0</ele><time>2026-04-12T09:21:00.952Z</time></trkpt><trkpt lat="40.6496033" lon="15.1667667"><ele>376.0</ele><time>2026-04-12T09:21:01.952Z</time></trkpt><trkpt lat="40.6495933" lon="15.166955"><ele>376.0</ele><time>2026-04-12T09:21:02.952Z</time></trkpt><trkpt lat="40.6495983" lon="15.1671433"><ele>376.0</ele><time>2026-04-12T09:21:03.952Z</time></trkpt><trkpt lat="40.6496267" lon="15.1673317"><ele>376.0</ele><time>2026-04-12T09:21:04.953Z</time></trkpt><trkpt lat="40.6496733" lon="15.167515"><ele>376.0</ele><time>2026-04-12T09:21:05.953Z</time></trkpt><trkpt lat="40.649745" lon="15.1676867"><ele>376.0</ele><time>2026-04-12T09:21:06.952Z</time></trkpt><trkpt lat="40.6498183" lon="15.1678567"><ele>376.0</ele><time>2026-04-12T09:21:07.952Z</time></trkpt><trkpt lat="40.649895" lon="15.16802"><ele>376.0</ele><time>2026-04-12T09:21:08.952Z</time></trkpt><trkpt lat="40.6499667" lon="15.1681817"><ele>376.5</ele><time>2026-04-12T09:21:09.952Z</time></trkpt><trkpt lat="40.650025" lon="15.1683567"><ele>377.0</ele><time>2026-04-12T09:21:10.952Z</time></trkpt><trkpt lat="40.6500633" lon="15.1685417"><ele>377.5</ele><time>2026-04-12T09:21:11.952Z</time></trkpt><trkpt lat="40.650105" lon="15.1687267"><ele>378.0</ele><time>2026-04-12T09:21:12.952Z</time></trkpt><trkpt lat="40.650145" lon="15.1689117"><ele>378.5</ele><time>2026-04-12T09:21:13.952Z</time></trkpt><trkpt lat="40.6501833" lon="15.1690867"><ele>379.0</ele><time>2026-04-12T09:21:14.952Z</time></trkpt><trkpt lat="40.6502083" lon="15.1692667"><ele>379.5</ele><time>2026-04-12T09:21:15.953Z</time></trkpt><trkpt lat="40.6502167" lon="15.1694433"><ele>380.0</ele><time>2026-04-12T09:21:16.952Z</time></trkpt><trkpt lat="40.6502033" lon="15.1696267"><ele>380.0</ele><time>2026-04-12T09:21:17.952Z</time></trkpt><trkpt lat="40.65018" lon="15.1698117"><ele>380.0</ele><time>2026-04-12T09:21:18.952Z</time></trkpt><trkpt lat="40.6501633" lon="15.16999"><ele>380.0</ele><time>2026-04-12T09:21:19.952Z</time></trkpt><trkpt lat="40.6501567" lon="15.17017"><ele>380.0</ele><time>2026-04-12T09:21:20.953Z</time></trkpt><trkpt lat="40.6501633" lon="15.1703483"><ele>380.0</ele><time>2026-04-12T09:21:21.952Z</time></trkpt><trkpt lat="40.65019" lon="15.1705133"><ele>380.0</ele><time>2026-04-12T09:21:22.952Z</time></trkpt><trkpt lat="40.6502417" lon="15.170665"><ele>380.0</ele><time>2026-04-12T09:21:23.952Z</time></trkpt><trkpt lat="40.6503017" lon="15.17081"><ele>380.0</ele><time>2026-04-12T09:21:24.952Z</time></trkpt><trkpt lat="40.6503683" lon="15.170955"><ele>379.5</ele><time>2026-04-12T09:21:25.952Z</time></trkpt><trkpt lat="40.6504333" lon="15.171095"><ele>379.0</ele><time>2026-04-12T09:21:26.952Z</time></trkpt><trkpt lat="40.6505033" lon="15.1712283"><ele>378.5</ele><time>2026-04-12T09:21:27.952Z</time></trkpt><trkpt lat="40.6505733" lon="15.171365"><ele>378.0</ele><time>2026-04-12T09:21:28.952Z</time></trkpt><trkpt lat="40.6506533" lon="15.171495"><ele>377.5</ele><time>2026-04-12T09:21:29.952Z</time></trkpt><trkpt lat="40.6507367" lon="15.1716217"><ele>377.0</ele><time>2026-04-12T09:21:30.952Z</time></trkpt><trkpt lat="40.650825" lon="15.1717483"><ele>376.5</ele><time>2026-04-12T09:21:31.952Z</time></trkpt><trkpt lat="40.65093" lon="15.171875"><ele>376.0</ele><time>2026-04-12T09:21:32.952Z</time></trkpt><trkpt lat="40.6510433" lon="15.17199"><ele>376.0</ele><time>2026-04-12T09:21:33.952Z</time></trkpt><trkpt lat="40.6511617" lon="15.1721083"><ele>376.0</ele><time>2026-04-12T09:21:34.952Z</time></trkpt><trkpt lat="40.651265" lon="15.17224"><ele>376.0</ele><time>2026-04-12T09:21:35.952Z</time></trkpt><trkpt lat="40.6513633" lon="15.1723683"><ele>376.0</ele><time>2026-04-12T09:21:36.952Z</time></trkpt><trkpt lat="40.6514283" lon="15.1725233"><ele>376.0</ele><time>2026-04-12T09:21:37.952Z</time></trkpt><trkpt lat="40.6514683" lon="15.1726917"><ele>376.0</ele><time>2026-04-12T09:21:38.952Z</time></trkpt><trkpt lat="40.6514933" lon="15.1728733"><ele>376.0</ele><time>2026-04-12T09:21:39.952Z</time></trkpt><trkpt lat="40.6515133" lon="15.17306"><ele>376.0</ele><time>2026-04-12T09:21:40.952Z</time></trkpt><trkpt lat="40.6515317" lon="15.17325"><ele>375.25</ele><time>2026-04-12T09:21:41.952Z</time></trkpt><trkpt lat="40.65157" lon="15.1734333"><ele>374.5</ele><time>2026-04-12T09:21:42.952Z</time></trkpt><trkpt lat="40.65162" lon="15.17361"><ele>373.75</ele><time>2026-04-12T09:21:43.952Z</time></trkpt><trkpt lat="40.6516917" lon="15.1737633"><ele>373.0</ele><time>2026-04-12T09:21:44.952Z</time></trkpt><trkpt lat="40.651775" lon="15.17391"><ele>374.75</ele><time>2026-04-12T09:21:45.952Z</time></trkpt><trkpt lat="40.6518483" lon="15.1740583"><ele>376.5</ele><time>2026-04-12T09:21:46.952Z</time></trkpt><trkpt lat="40.6519167" lon="15.1742"><ele>378.25</ele><time>2026-04-12T09:21:47.952Z</time></trkpt><trkpt lat="40.65198" lon="15.1743533"><ele>380.0</ele><time>2026-04-12T09:21:48.952Z</time></trkpt><trkpt lat="40.6520367" lon="15.1745117"><ele>380.0</ele><time>2026-04-12T09:21:49.952Z</time></trkpt><trkpt lat="40.6521083" lon="15.174665"><ele>380.0</ele><time>2026-04-12T09:21:50.952Z</time></trkpt><trkpt lat="40.65219" lon="15.1748133"><ele>380.0</ele><time>2026-04-12T09:21:51.951Z</time></trkpt><trkpt lat="40.6522817" lon="15.17495"><ele>380.0</ele><time>2026-04-12T09:21:52.951Z</time></trkpt><trkpt lat="40.6523617" lon="15.1750867"><ele>377.83333333333337</ele><time>2026-04-12T09:21:53.951Z</time></trkpt><trkpt lat="40.6524233" lon="15.1751967"><ele>375.6666666666667</ele><time>2026-04-12T09:21:54.951Z</time></trkpt><trkpt lat="40.652465" lon="15.175275"><ele>373.5</ele><time>2026-04-12T09:21:55.951Z</time></trkpt><trkpt lat="40.6525017" lon="15.1753517"><ele>371.3333333333333</ele><time>2026-04-12T09:21:57.951Z</time></trkpt><trkpt lat="40.65253" lon="15.1754633"><ele>369.16666666666663</ele><time>2026-04-12T09:22:01.951Z</time></trkpt><trkpt lat="40.6525633" lon="15.1756033"><ele>367.0</ele><time>2026-04-12T09:22:03.951Z</time></trkpt><trkpt lat="40.652595" lon="15.1756983"><ele>368.40000000000003</ele><time>2026-04-12T09:22:04.951Z</time></trkpt><trkpt lat="40.6526317" lon="15.1758067"><ele>369.8</ele><time>2026-04-12T09:22:05.951Z</time></trkpt><trkpt lat="40.6526717" lon="15.17592"><ele>371.2</ele><time>2026-04-12T09:22:06.951Z</time></trkpt><trkpt lat="40.65273" lon="15.17603"><ele>372.6</ele><time>2026-04-12T09:22:07.951Z</time></trkpt><trkpt lat="40.6528033" lon="15.1761383"><ele>374.0</ele><time>2026-04-12T09:22:08.951Z</time></trkpt><trkpt lat="40.6528867" lon="15.1762533"><ele>374.0</ele><time>2026-04-12T09:22:09.951Z</time></trkpt><trkpt lat="40.6529833" lon="15.17637"><ele>374.0</ele><time>2026-04-12T09:22:10.951Z</time></trkpt><trkpt lat="40.6530933" lon="15.1764917"><ele>374.0</ele><time>2026-04-12T09:22:11.951Z</time></trkpt><trkpt lat="40.6532167" lon="15.1766133"><ele>374.0</ele><time>2026-04-12T09:22:12.951Z</time></trkpt><trkpt lat="40.6533317" lon="15.1767183"><ele>374.25</ele><time>2026-04-12T09:22:13.951Z</time></trkpt><trkpt lat="40.6534433" lon="15.1768167"><ele>374.5</ele><time>2026-04-12T09:22:14.952Z</time></trkpt><trkpt lat="40.6535383" lon="15.1769417"><ele>374.75</ele><time>2026-04-12T09:22:15.951Z</time></trkpt><trkpt lat="40.6536" lon="15.1771067"><ele>375.0</ele><time>2026-04-12T09:22:16.951Z</time></trkpt><trkpt lat="40.6536483" lon="15.17729"><ele>369.6666666666667</ele><time>2026-04-12T09:22:17.951Z</time></trkpt><trkpt lat="40.6537167" lon="15.1774783"><ele>364.33333333333337</ele><time>2026-04-12T09:22:18.951Z</time></trkpt><trkpt lat="40.6538183" lon="15.1776533"><ele>359.0</ele><time>2026-04-12T09:22:19.951Z</time></trkpt><trkpt lat="40.6539283" lon="15.17783"><ele>359.0</ele><time>2026-04-12T09:22:20.951Z</time></trkpt><trkpt lat="40.6540383" lon="15.1780133"><ele>359.0</ele><time>2026-04-12T09:22:21.952Z</time></trkpt><trkpt lat="40.65415" lon="15.1782017"><ele>359.0</ele><time>2026-04-12T09:22:22.951Z</time></trkpt><trkpt lat="40.6542667" lon="15.17839"><ele>358.6666666666667</ele><time>2026-04-12T09:22:23.951Z</time></trkpt><trkpt lat="40.6543733" lon="15.1785833"><ele>358.3333333333333</ele><time>2026-04-12T09:22:24.951Z</time></trkpt><trkpt lat="40.6544717" lon="15.1787783"><ele>358.0</ele><time>2026-04-12T09:22:25.951Z</time></trkpt><trkpt lat="40.654555" lon="15.17897"><ele>356.75</ele><time>2026-04-12T09:22:26.951Z</time></trkpt><trkpt lat="40.6546117" lon="15.17916"><ele>355.5</ele><time>2026-04-12T09:22:27.951Z</time></trkpt><trkpt lat="40.654655" lon="15.1793367"><ele>354.25</ele><time>2026-04-12T09:22:28.951Z</time></trkpt><trkpt lat="40.6546983" lon="15.1794933"><ele>353.0</ele><time>2026-04-12T09:22:29.951Z</time></trkpt><trkpt lat="40.6547683" lon="15.17964"><ele>353.0</ele><time>2026-04-12T09:22:30.951Z</time></trkpt><trkpt lat="40.65487" lon="15.1797633"><ele>353.0</ele><time>2026-04-12T09:22:31.951Z</time></trkpt><trkpt lat="40.6550033" lon="15.1798567"><ele>353.0</ele><time>2026-04-12T09:22:32.951Z</time></trkpt><trkpt lat="40.6551533" lon="15.1799383"><ele>354.0</ele><time>2026-04-12T09:22:33.951Z</time></trkpt><trkpt lat="40.6553083" lon="15.1800067"><ele>355.0</ele><time>2026-04-12T09:22:34.951Z</time></trkpt><trkpt lat="40.65545" lon="15.1800783"><ele>356.0</ele><time>2026-04-12T09:22:35.951Z</time></trkpt><trkpt lat="40.6555867" lon="15.180145"><ele>356.0</ele><time>2026-04-12T09:22:36.951Z</time></trkpt><trkpt lat="40.65572" lon="15.18022"><ele>356.0</ele><time>2026-04-12T09:22:37.951Z</time></trkpt><trkpt lat="40.65584" lon="15.1803283"><ele>356.0</ele><time>2026-04-12T09:22:38.951Z</time></trkpt><trkpt lat="40.6559467" lon="15.1804883"><ele>356.0</ele><time>2026-04-12T09:22:39.951Z</time></trkpt><trkpt lat="40.6560467" lon="15.1806633"><ele>356.0</ele><time>2026-04-12T09:22:40.951Z</time></trkpt><trkpt lat="40.656155" lon="15.180835"><ele>356.0</ele><time>2026-04-12T09:22:41.951Z</time></trkpt><trkpt lat="40.656285" lon="15.1809783"><ele>354.33333333333337</ele><time>2026-04-12T09:22:42.951Z</time></trkpt><trkpt lat="40.6564183" lon="15.1810967"><ele>352.6666666666667</ele><time>2026-04-12T09:22:43.951Z</time></trkpt><trkpt lat="40.65655" lon="15.181205"><ele>351.0</ele><time>2026-04-12T09:22:44.951Z</time></trkpt><trkpt lat="40.6566783" lon="15.1812833"><ele>351.0</ele><time>2026-04-12T09:22:45.951Z</time></trkpt><trkpt lat="40.6568067" lon="15.18134"><ele>351.0</ele><time>2026-04-12T09:22:46.951Z</time></trkpt><trkpt lat="40.6569417" lon="15.1813433"><ele>351.0</ele><time>2026-04-12T09:22:47.951Z</time></trkpt><trkpt lat="40.657085" lon="15.181295"><ele>351.0</ele><time>2026-04-12T09:22:48.951Z</time></trkpt><trkpt lat="40.65724" lon="15.1812217"><ele>351.3333333333333</ele><time>2026-04-12T09:22:49.951Z</time></trkpt><trkpt lat="40.6573883" lon="15.18116"><ele>351.66666666666663</ele><time>2026-04-12T09:22:50.951Z</time></trkpt><trkpt lat="40.6575417" lon="15.1811183"><ele>352.0</ele><time>2026-04-12T09:22:51.951Z</time></trkpt><trkpt lat="40.6576983" lon="15.1810967"><ele>350.3333333333333</ele><time>2026-04-12T09:22:52.951Z</time></trkpt><trkpt lat="40.6578517" lon="15.1811083"><ele>348.6666666666667</ele><time>2026-04-12T09:22:53.951Z</time></trkpt><trkpt lat="40.6580083" lon="15.1811467"><ele>347.0</ele><time>2026-04-12T09:22:54.952Z</time></trkpt><trkpt lat="40.658165" lon="15.1811967"><ele>347.0</ele><time>2026-04-12T09:22:55.951Z</time></trkpt><trkpt lat="40.6583183" lon="15.181235"><ele>347.0</ele><time>2026-04-12T09:22:56.951Z</time></trkpt><trkpt lat="40.6584683" lon="15.1812683"><ele>347.0</ele><time>2026-04-12T09:22:57.951Z</time></trkpt><trkpt lat="40.6586133" lon="15.1812833"><ele>345.25</ele><time>2026-04-12T09:22:58.951Z</time></trkpt><trkpt lat="40.6587483" lon="15.1813067"><ele>343.5</ele><time>2026-04-12T09:22:59.951Z</time></trkpt><trkpt lat="40.658875" lon="15.1813583"><ele>341.75</ele><time>2026-04-12T09:23:00.951Z</time></trkpt><trkpt lat="40.6589917" lon="15.1814533"><ele>340.0</ele><time>2026-04-12T09:23:01.952Z</time></trkpt><trkpt lat="40.6591" lon="15.1815733"><ele>338.0</ele><time>2026-04-12T09:23:02.951Z</time></trkpt><trkpt lat="40.6592" lon="15.1816967"><ele>336.0</ele><time>2026-04-12T09:23:03.951Z</time></trkpt><trkpt lat="40.659305" lon="15.1818283"><ele>334.0</ele><time>2026-04-12T09:23:04.951Z</time></trkpt><trkpt lat="40.659405" lon="15.1819633"><ele>332.0</ele><time>2026-04-12T09:23:05.951Z</time></trkpt><trkpt lat="40.659505" lon="15.1820967"><ele>337.0</ele><time>2026-04-12T09:23:06.951Z</time></trkpt><trkpt lat="40.659605" lon="15.1822333"><ele>342.0</ele><time>2026-04-12T09:23:07.951Z</time></trkpt><trkpt lat="40.6596983" lon="15.1823967"><ele>347.0</ele><time>2026-04-12T09:23:08.951Z</time></trkpt><trkpt lat="40.6597667" lon="15.1825817"><ele>347.0</ele><time>2026-04-12T09:23:09.951Z</time></trkpt><trkpt lat="40.65982" lon="15.1827917"><ele>347.0</ele><time>2026-04-12T09:23:10.951Z</time></trkpt><trkpt lat="40.65986" lon="15.182995"><ele>347.0</ele><time>2026-04-12T09:23:11.951Z</time></trkpt><trkpt lat="40.6599017" lon="15.1831817"><ele>346.20000000000005</ele><time>2026-04-12T09:23:12.951Z</time></trkpt><trkpt lat="40.659945" lon="15.1833483"><ele>345.4</ele><time>2026-04-12T09:23:13.951Z</time></trkpt><trkpt lat="40.6599783" lon="15.1834883"><ele>344.6</ele><time>2026-04-12T09:23:14.951Z</time></trkpt><trkpt lat="40.65998" lon="15.18361"><ele>343.79999999999995</ele><time>2026-04-12T09:23:15.951Z</time></trkpt><trkpt lat="40.659955" lon="15.18372"><ele>343.0</ele><time>2026-04-12T09:23:16.951Z</time></trkpt><trkpt lat="40.659885" lon="15.1838133"><ele>343.0</ele><time>2026-04-12T09:23:17.951Z</time></trkpt><trkpt lat="40.6597983" lon="15.1839233"><ele>343.0</ele><time>2026-04-12T09:23:18.951Z</time></trkpt><trkpt lat="40.659715" lon="15.1840683"><ele>343.0</ele><time>2026-04-12T09:23:19.951Z</time></trkpt><trkpt lat="40.6596533" lon="15.184235"><ele>343.0</ele><time>2026-04-12T09:23:20.951Z</time></trkpt><trkpt lat="40.6596317" lon="15.18442"><ele>344.25</ele><time>2026-04-12T09:23:21.951Z</time></trkpt><trkpt lat="40.65965" lon="15.1845867"><ele>345.5</ele><time>2026-04-12T09:23:22.951Z</time></trkpt><trkpt lat="40.65969" lon="15.1847467"><ele>346.75</ele><time>2026-04-12T09:23:23.951Z</time></trkpt><trkpt lat="40.6597433" lon="15.1849083"><ele>348.0</ele><time>2026-04-12T09:23:24.951Z</time></trkpt><trkpt lat="40.6597967" lon="15.185065"><ele>349.5</ele><time>2026-04-12T09:23:25.951Z</time></trkpt><trkpt lat="40.65982" lon="15.1852367"><ele>351.0</ele><time>2026-04-12T09:23:26.951Z</time></trkpt><trkpt lat="40.659815" lon="15.1854133"><ele>352.5</ele><time>2026-04-12T09:23:27.951Z</time></trkpt><trkpt lat="40.6597717" lon="15.18559"><ele>354.0</ele><time>2026-04-12T09:23:28.951Z</time></trkpt><trkpt lat="40.6597017" lon="15.185775"><ele>354.6666666666667</ele><time>2026-04-12T09:23:29.951Z</time></trkpt><trkpt lat="40.6596433" lon="15.1859633"><ele>355.33333333333337</ele><time>2026-04-12T09:23:30.951Z</time></trkpt><trkpt lat="40.6595717" lon="15.1861533"><ele>356.0</ele><time>2026-04-12T09:23:31.951Z</time></trkpt><trkpt lat="40.6595183" lon="15.1863367"><ele>359.0</ele><time>2026-04-12T09:23:32.951Z</time></trkpt><trkpt lat="40.65947" lon="15.1865233"><ele>362.0</ele><time>2026-04-12T09:23:33.952Z</time></trkpt><trkpt lat="40.659425" lon="15.1867117"><ele>365.0</ele><time>2026-04-12T09:23:34.951Z</time></trkpt><trkpt lat="40.6593733" lon="15.1868983"><ele>361.5</ele><time>2026-04-12T09:23:35.951Z</time></trkpt><trkpt lat="40.6593317" lon="15.1870883"><ele>358.0</ele><time>2026-04-12T09:23:36.951Z</time></trkpt><trkpt lat="40.6592883" lon="15.18727"><ele>354.5</ele><time>2026-04-12T09:23:37.951Z</time></trkpt><trkpt lat="40.6592433" lon="15.187455"><ele>351.0</ele><time>2026-04-12T09:23:38.951Z</time></trkpt><trkpt lat="40.6592017" lon="15.1876267"><ele>351.0</ele><time>2026-04-12T09:23:39.951Z</time></trkpt><trkpt lat="40.6591567" lon="15.1877983"><ele>351.0</ele><time>2026-04-12T09:23:40.951Z</time></trkpt><trkpt lat="40.6591183" lon="15.187965"><ele>351.0</ele><time>2026-04-12T09:23:41.951Z</time></trkpt><trkpt lat="40.6590917" lon="15.18814"><ele>351.0</ele><time>2026-04-12T09:23:42.951Z</time></trkpt><trkpt lat="40.6590767" lon="15.1883217"><ele>353.0</ele><time>2026-04-12T09:23:43.951Z</time></trkpt><trkpt lat="40.65907" lon="15.1885083"><ele>355.0</ele><time>2026-04-12T09:23:44.951Z</time></trkpt><trkpt lat="40.6590783" lon="15.1886967"><ele>357.0</ele><time>2026-04-12T09:23:45.951Z</time></trkpt><trkpt lat="40.6590733" lon="15.18888"><ele>359.0</ele><time>2026-04-12T09:23:46.951Z</time></trkpt><trkpt lat="40.6590617" lon="15.18906"><ele>360.25</ele><time>2026-04-12T09:23:47.951Z</time></trkpt><trkpt lat="40.6590283" lon="15.1892433"><ele>361.5</ele><time>2026-04-12T09:23:48.951Z</time></trkpt><trkpt lat="40.6589717" lon="15.1894117"><ele>362.75</ele><time>2026-04-12T09:23:49.951Z</time></trkpt><trkpt lat="40.6589" lon="15.189555"><ele>364.0</ele><time>2026-04-12T09:23:50.951Z</time></trkpt><trkpt lat="40.6588233" lon="15.1896867"><ele>364.0</ele><time>2026-04-12T09:23:51.951Z</time></trkpt><trkpt lat="40.65876" lon="15.18982"><ele>364.0</ele><time>2026-04-12T09:23:52.951Z</time></trkpt><trkpt lat="40.6587117" lon="15.1899483"><ele>364.0</ele><time>2026-04-12T09:23:53.951Z</time></trkpt><trkpt lat="40.6586883" lon="15.1900833"><ele>364.0</ele><time>2026-04-12T09:23:54.951Z</time></trkpt><trkpt lat="40.658675" lon="15.1902217"><ele>364.0</ele><time>2026-04-12T09:23:55.951Z</time></trkpt><trkpt lat="40.6586533" lon="15.1903767"><ele>362.79999999999995</ele><time>2026-04-12T09:23:56.951Z</time></trkpt><trkpt lat="40.65863" lon="15.190535"><ele>361.59999999999997</ele><time>2026-04-12T09:23:57.952Z</time></trkpt><trkpt lat="40.658605" lon="15.1906833"><ele>360.4</ele><time>2026-04-12T09:23:58.951Z</time></trkpt><trkpt lat="40.6585817" lon="15.19082"><ele>359.2</ele><time>2026-04-12T09:23:59.951Z</time></trkpt><trkpt lat="40.6585467" lon="15.1909417"><ele>358.0</ele><time>2026-04-12T09:24:00.951Z</time></trkpt><trkpt lat="40.658515" lon="15.1910717"><ele>358.0</ele><time>2026-04-12T09:24:01.951Z</time></trkpt><trkpt lat="40.6584833" lon="15.191215"><ele>358.0</ele><time>2026-04-12T09:24:02.951Z</time></trkpt><trkpt lat="40.6584633" lon="15.19138"><ele>358.0</ele><time>2026-04-12T09:24:03.951Z</time></trkpt><trkpt lat="40.6584583" lon="15.19155"><ele>358.0</ele><time>2026-04-12T09:24:04.951Z</time></trkpt><trkpt lat="40.6584667" lon="15.19171"><ele>358.75</ele><time>2026-04-12T09:24:05.951Z</time></trkpt><trkpt lat="40.6584783" lon="15.19186"><ele>359.5</ele><time>2026-04-12T09:24:06.951Z</time></trkpt><trkpt lat="40.6584933" lon="15.1920017"><ele>360.25</ele><time>2026-04-12T09:24:07.951Z</time></trkpt><trkpt lat="40.6585183" lon="15.192155"><ele>361.0</ele><time>2026-04-12T09:24:08.951Z</time></trkpt><trkpt lat="40.65854" lon="15.1923183"><ele>361.5</ele><time>2026-04-12T09:24:09.951Z</time></trkpt><trkpt lat="40.6585617" lon="15.192495"><ele>362.0</ele><time>2026-04-12T09:24:10.951Z</time></trkpt><trkpt lat="40.6585617" lon="15.19268"><ele>362.5</ele><time>2026-04-12T09:24:11.951Z</time></trkpt><trkpt lat="40.658555" lon="15.1928517"><ele>363.0</ele><time>2026-04-12T09:24:12.951Z</time></trkpt><trkpt lat="40.6585517" lon="15.1929917"><ele>363.0</ele><time>2026-04-12T09:24:13.951Z</time></trkpt><trkpt lat="40.6585533" lon="15.19312"><ele>363.0</ele><time>2026-04-12T09:24:14.951Z</time></trkpt><trkpt lat="40.658565" lon="15.1932267"><ele>363.0</ele><time>2026-04-12T09:24:15.951Z</time></trkpt><trkpt lat="40.6586067" lon="15.1933067"><ele>363.0</ele><time>2026-04-12T09:24:16.951Z</time></trkpt><trkpt lat="40.6586717" lon="15.193335"><ele>363.0</ele><time>2026-04-12T09:24:17.951Z</time></trkpt><trkpt lat="40.6587433" lon="15.1933017"><ele>363.0</ele><time>2026-04-12T09:24:18.951Z</time></trkpt><trkpt lat="40.6588133" lon="15.1932133"><ele>367.5</ele><time>2026-04-12T09:24:19.951Z</time></trkpt><trkpt lat="40.6588817" lon="15.1930933"><ele>372.0</ele><time>2026-04-12T09:24:20.951Z</time></trkpt><trkpt lat="40.6589483" lon="15.19295"><ele>376.5</ele><time>2026-04-12T09:24:21.951Z</time></trkpt><trkpt lat="40.6590133" lon="15.1927933"><ele>381.0</ele><time>2026-04-12T09:24:22.951Z</time></trkpt><trkpt lat="40.6590783" lon="15.1926117"><ele>381.0</ele><time>2026-04-12T09:24:23.951Z</time></trkpt><trkpt lat="40.65913" lon="15.1924233"><ele>381.0</ele><time>2026-04-12T09:24:24.952Z</time></trkpt><trkpt lat="40.6591783" lon="15.1922467"><ele>381.0</ele><time>2026-04-12T09:24:25.951Z</time></trkpt><trkpt lat="40.6592117" lon="15.192095"><ele>381.0</ele><time>2026-04-12T09:24:26.951Z</time></trkpt><trkpt lat="40.6592" lon="15.191955"><ele>380.8</ele><time>2026-04-12T09:24:27.951Z</time></trkpt><trkpt lat="40.659155" lon="15.1918233"><ele>380.6</ele><time>2026-04-12T09:24:28.951Z</time></trkpt><trkpt lat="40.6590983" lon="15.1917"><ele>380.4</ele><time>2026-04-12T09:24:29.951Z</time></trkpt><trkpt lat="40.6590517" lon="15.1915933"><ele>380.2</ele><time>2026-04-12T09:24:30.951Z</time></trkpt><trkpt lat="40.65904" lon="15.1914817"><ele>380.0</ele><time>2026-04-12T09:24:31.951Z</time></trkpt><trkpt lat="40.6590633" lon="15.1914017"><ele>380.0</ele><time>2026-04-12T09:24:32.951Z</time></trkpt><trkpt lat="40.6591833" lon="15.1913767"><ele>380.0</ele><time>2026-04-12T09:24:34.951Z</time></trkpt><trkpt lat="40.6592633" lon="15.191435"><ele>380.0</ele><time>2026-04-12T09:24:35.951Z</time></trkpt><trkpt lat="40.6593467" lon="15.1915283"><ele>380.0</ele><time>2026-04-12T09:24:36.951Z</time></trkpt><trkpt lat="40.6594367" lon="15.1916317"><ele>380.0</ele><time>2026-04-12T09:24:37.951Z</time></trkpt><trkpt lat="40.659535" lon="15.19174"><ele>383.0</ele><time>2026-04-12T09:24:38.951Z</time></trkpt><trkpt lat="40.6596367" lon="15.1918467"><ele>386.0</ele><time>2026-04-12T09:24:39.951Z</time></trkpt><trkpt lat="40.6597233" lon="15.1919467"><ele>389.0</ele><time>2026-04-12T09:24:40.951Z</time></trkpt><trkpt lat="40.6597933" lon="15.1920183"><ele>392.0</ele><time>2026-04-12T09:24:41.951Z</time></trkpt><trkpt lat="40.65987" lon="15.1920583"><ele>395.0</ele><time>2026-04-12T09:24:42.951Z</time></trkpt><trkpt lat="40.6599483" lon="15.1920383"><ele>395.0</ele><time>2026-04-12T09:24:43.951Z</time></trkpt><trkpt lat="40.6600133" lon="15.1919683"><ele>395.0</ele><time>2026-04-12T09:24:44.951Z</time></trkpt><trkpt lat="40.6600533" lon="15.19186"><ele>395.0</ele><time>2026-04-12T09:24:45.951Z</time></trkpt><trkpt lat="40.6600717" lon="15.1917317"><ele>395.0</ele><time>2026-04-12T09:24:46.951Z</time></trkpt><trkpt lat="40.6600733" lon="15.1915767"><ele>395.0</ele><time>2026-04-12T09:24:47.951Z</time></trkpt><trkpt lat="40.660085" lon="15.191405"><ele>395.4</ele><time>2026-04-12T09:24:48.951Z</time></trkpt><trkpt lat="40.6601033" lon="15.1912483"><ele>395.8</ele><time>2026-04-12T09:24:49.951Z</time></trkpt><trkpt lat="40.660135" lon="15.1911383"><ele>396.20000000000005</ele><time>2026-04-12T09:24:50.951Z</time></trkpt><trkpt lat="40.66018" lon="15.1910567"><ele>396.6</ele><time>2026-04-12T09:24:51.952Z</time></trkpt><trkpt lat="40.6602867" lon="15.19104"><ele>397.0</ele><time>2026-04-12T09:24:53.952Z</time></trkpt><trkpt lat="40.6603367" lon="15.1911483"><ele>399.25</ele><time>2026-04-12T09:24:54.951Z</time></trkpt><trkpt lat="40.6603683" lon="15.1912883"><ele>401.5</ele><time>2026-04-12T09:24:55.951Z</time></trkpt><trkpt lat="40.6604067" lon="15.1914633"><ele>403.75</ele><time>2026-04-12T09:24:56.951Z</time></trkpt><trkpt lat="40.66046" lon="15.1916317"><ele>406.0</ele><time>2026-04-12T09:24:57.951Z</time></trkpt><trkpt lat="40.66055" lon="15.19175"><ele>406.5</ele><time>2026-04-12T09:24:58.951Z</time></trkpt><trkpt lat="40.6606717" lon="15.1918383"><ele>407.0</ele><time>2026-04-12T09:24:59.951Z</time></trkpt><trkpt lat="40.6608017" lon="15.1919017"><ele>407.5</ele><time>2026-04-12T09:25:00.951Z</time></trkpt><trkpt lat="40.660915" lon="15.1919517"><ele>408.0</ele><time>2026-04-12T09:25:01.951Z</time></trkpt><trkpt lat="40.661005" lon="15.191995"><ele>408.0</ele><time>2026-04-12T09:25:02.951Z</time></trkpt><trkpt lat="40.6610817" lon="15.191995"><ele>408.0</ele><time>2026-04-12T09:25:03.951Z</time></trkpt><trkpt lat="40.6611333" lon="15.1919367"><ele>408.0</ele><time>2026-04-12T09:25:04.951Z</time></trkpt><trkpt lat="40.6611467" lon="15.1918483"><ele>408.0</ele><time>2026-04-12T09:25:05.951Z</time></trkpt><trkpt lat="40.6611317" lon="15.1917617"><ele>408.0</ele><time>2026-04-12T09:25:06.951Z</time></trkpt><trkpt lat="40.66109" lon="15.19167"><ele>408.0</ele><time>2026-04-12T09:25:07.951Z</time></trkpt><trkpt lat="40.6610417" lon="15.1915767"><ele>408.0</ele><time>2026-04-12T09:25:08.951Z</time></trkpt><trkpt lat="40.6610117" lon="15.1914867"><ele>407.59999999999997</ele><time>2026-04-12T09:25:09.951Z</time></trkpt><trkpt lat="40.6610783" lon="15.19137"><ele>407.2</ele><time>2026-04-12T09:25:11.951Z</time></trkpt><trkpt lat="40.661165" lon="15.1913533"><ele>406.8</ele><time>2026-04-12T09:25:12.951Z</time></trkpt><trkpt lat="40.66127" lon="15.191355"><ele>406.4</ele><time>2026-04-12T09:25:13.951Z</time></trkpt><trkpt lat="40.6613717" lon="15.1913683"><ele>406.0</ele><time>2026-04-12T09:25:14.951Z</time></trkpt><trkpt lat="40.661465" lon="15.19138"><ele>407.1666666666667</ele><time>2026-04-12T09:25:15.951Z</time></trkpt><trkpt lat="40.6615533" lon="15.1913817"><ele>408.33333333333337</ele><time>2026-04-12T09:25:16.951Z</time></trkpt><trkpt lat="40.6616333" lon="15.191375"><ele>409.5</ele><time>2026-04-12T09:25:17.951Z</time></trkpt><trkpt lat="40.661715" lon="15.1913667"><ele>410.66666666666663</ele><time>2026-04-12T09:25:18.951Z</time></trkpt><trkpt lat="40.661795" lon="15.1913383"><ele>411.8333333333333</ele><time>2026-04-12T09:25:19.951Z</time></trkpt><trkpt lat="40.6618633" lon="15.1913067"><ele>413.0</ele><time>2026-04-12T09:25:20.95Z</time></trkpt><trkpt lat="40.6619283" lon="15.19127"><ele>413.85714285714283</ele><time>2026-04-12T09:25:21.95Z</time></trkpt><trkpt lat="40.661995" lon="15.19123"><ele>414.7142857142857</ele><time>2026-04-12T09:25:22.95Z</time></trkpt><trkpt lat="40.662055" lon="15.191185"><ele>415.57142857142856</ele><time>2026-04-12T09:25:23.95Z</time></trkpt><trkpt lat="40.6621133" lon="15.19114"><ele>416.42857142857144</ele><time>2026-04-12T09:25:24.95Z</time></trkpt><trkpt lat="40.66217" lon="15.1910867"><ele>417.2857142857143</ele><time>2026-04-12T09:25:25.95Z</time></trkpt><trkpt lat="40.6622283" lon="15.1910317"><ele>418.1428571428571</ele><time>2026-04-12T09:25:26.95Z</time></trkpt><trkpt lat="40.6622867" lon="15.1909833"><ele>419.0</ele><time>2026-04-12T09:25:27.95Z</time></trkpt><trkpt lat="40.6623417" lon="15.1909283"><ele>418.99999999999994</ele><time>2026-04-12T09:25:28.95Z</time></trkpt><trkpt lat="40.6624017" lon="15.1908717"><ele>419.0</ele><time>2026-04-12T09:25:29.95Z</time></trkpt><trkpt lat="40.66246" lon="15.1908133"><ele>419.0</ele><time>2026-04-12T09:25:30.95Z</time></trkpt><trkpt lat="40.6625183" lon="15.19076"><ele>419.0</ele><time>2026-04-12T09:25:31.95Z</time></trkpt><trkpt lat="40.662575" lon="15.1907"><ele>418.99999999999994</ele><time>2026-04-12T09:25:32.95Z</time></trkpt><trkpt lat="40.6626367" lon="15.1906283"><ele>419.0</ele><time>2026-04-12T09:25:33.95Z</time></trkpt><trkpt lat="40.662705" lon="15.1905283"><ele>419.25</ele><time>2026-04-12T09:25:34.95Z</time></trkpt><trkpt lat="40.6627767" lon="15.1904033"><ele>419.5</ele><time>2026-04-12T09:25:35.95Z</time></trkpt><trkpt lat="40.6628467" lon="15.19026"><ele>419.75</ele><time>2026-04-12T09:25:36.95Z</time></trkpt><trkpt lat="40.66292" lon="15.1901017"><ele>420.0</ele><time>2026-04-12T09:25:37.95Z</time></trkpt><trkpt lat="40.6629967" lon="15.1899233"><ele>422.66666666666663</ele><time>2026-04-12T09:25:38.95Z</time></trkpt><trkpt lat="40.6630833" lon="15.1897367"><ele>425.3333333333333</ele><time>2026-04-12T09:25:39.95Z</time></trkpt><trkpt lat="40.6631683" lon="15.18955"><ele>428.0</ele><time>2026-04-12T09:25:40.95Z</time></trkpt><trkpt lat="40.6632567" lon="15.1893633"><ele>428.0</ele><time>2026-04-12T09:25:41.95Z</time></trkpt><trkpt lat="40.6633567" lon="15.189175"><ele>428.0</ele><time>2026-04-12T09:25:42.95Z</time></trkpt><trkpt lat="40.6634683" lon="15.1889867"><ele>428.0</ele><time>2026-04-12T09:25:43.95Z</time></trkpt><trkpt lat="40.6635883" lon="15.1888083"><ele>429.0</ele><time>2026-04-12T09:25:44.95Z</time></trkpt><trkpt lat="40.66371" lon="15.188645"><ele>430.0</ele><time>2026-04-12T09:25:45.95Z</time></trkpt><trkpt lat="40.663835" lon="15.1884883"><ele>431.0</ele><time>2026-04-12T09:25:46.95Z</time></trkpt><trkpt lat="40.6639533" lon="15.1883283"><ele>431.66666666666663</ele><time>2026-04-12T09:25:47.95Z</time></trkpt><trkpt lat="40.6640617" lon="15.1881417"><ele>432.33333333333337</ele><time>2026-04-12T09:25:48.95Z</time></trkpt><trkpt lat="40.6641567" lon="15.1879317"><ele>433.0</ele><time>2026-04-12T09:25:49.95Z</time></trkpt><trkpt lat="40.6642483" lon="15.187705"><ele>433.0</ele><time>2026-04-12T09:25:50.95Z</time></trkpt><trkpt lat="40.664335" lon="15.187485"><ele>433.0</ele><time>2026-04-12T09:25:51.95Z</time></trkpt><trkpt lat="40.6644183" lon="15.1872567"><ele>433.0</ele><time>2026-04-12T09:25:52.95Z</time></trkpt><trkpt lat="40.6645033" lon="15.187035"><ele>436.6666666666667</ele><time>2026-04-12T09:25:53.95Z</time></trkpt><trkpt lat="40.664595" lon="15.18681"><ele>440.33333333333337</ele><time>2026-04-12T09:25:54.95Z</time></trkpt><trkpt lat="40.664685" lon="15.1865883"><ele>444.0</ele><time>2026-04-12T09:25:55.95Z</time></trkpt><trkpt lat="40.6647633" lon="15.1863767"><ele>444.75</ele><time>2026-04-12T09:25:56.95Z</time></trkpt><trkpt lat="40.66483" lon="15.1861917"><ele>445.5</ele><time>2026-04-12T09:25:57.95Z</time></trkpt><trkpt lat="40.6649033" lon="15.18603"><ele>446.25</ele><time>2026-04-12T09:25:58.95Z</time></trkpt><trkpt lat="40.6649917" lon="15.1858767"><ele>447.0</ele><time>2026-04-12T09:25:59.95Z</time></trkpt><trkpt lat="40.6650917" lon="15.185745"><ele>447.75</ele><time>2026-04-12T09:26:00.95Z</time></trkpt><trkpt lat="40.66519" lon="15.1856283"><ele>448.5</ele><time>2026-04-12T09:26:01.95Z</time></trkpt><trkpt lat="40.66528" lon="15.1855333"><ele>449.25</ele><time>2026-04-12T09:26:02.95Z</time></trkpt><trkpt lat="40.6653683" lon="15.1854533"><ele>450.0</ele><time>2026-04-12T09:26:03.951Z</time></trkpt><trkpt lat="40.6654517" lon="15.185385"><ele>450.0</ele><time>2026-04-12T09:26:04.95Z</time></trkpt><trkpt lat="40.6655333" lon="15.1853217"><ele>450.0</ele><time>2026-04-12T09:26:05.95Z</time></trkpt><trkpt lat="40.665615" lon="15.1852517"><ele>450.0</ele><time>2026-04-12T09:26:06.95Z</time></trkpt><trkpt lat="40.6657" lon="15.18518"><ele>450.0</ele><time>2026-04-12T09:26:07.95Z</time></trkpt><trkpt lat="40.6657883" lon="15.1851033"><ele>450.0</ele><time>2026-04-12T09:26:08.95Z</time></trkpt><trkpt lat="40.6658833" lon="15.1850117"><ele>450.0</ele><time>2026-04-12T09:26:09.951Z</time></trkpt><trkpt lat="40.6659817" lon="15.1849183"><ele>450.0</ele><time>2026-04-12T09:26:10.95Z</time></trkpt><trkpt lat="40.6660783" lon="15.1848367"><ele>450.0</ele><time>2026-04-12T09:26:11.95Z</time></trkpt><trkpt lat="40.6661817" lon="15.1847583"><ele>450.0</ele><time>2026-04-12T09:26:12.95Z</time></trkpt><trkpt lat="40.6662867" lon="15.1847167"><ele>449.25</ele><time>2026-04-12T09:26:13.95Z</time></trkpt><trkpt lat="40.6663917" lon="15.1847033"><ele>448.5</ele><time>2026-04-12T09:26:14.95Z</time></trkpt><trkpt lat="40.666505" lon="15.1847283"><ele>447.75</ele><time>2026-04-12T09:26:15.951Z</time></trkpt><trkpt lat="40.6666233" lon="15.1847667"><ele>447.0</ele><time>2026-04-12T09:26:16.95Z</time></trkpt><trkpt lat="40.6667417" lon="15.1848083"><ele>447.0</ele><time>2026-04-12T09:26:17.95Z</time></trkpt><trkpt lat="40.666865" lon="15.1848467"><ele>447.0</ele><time>2026-04-12T09:26:18.95Z</time></trkpt><trkpt lat="40.66699" lon="15.1848733"><ele>447.0</ele><time>2026-04-12T09:26:19.95Z</time></trkpt><trkpt lat="40.66712" lon="15.1848867"><ele>447.0</ele><time>2026-04-12T09:26:20.95Z</time></trkpt><trkpt lat="40.6672417" lon="15.1848983"><ele>447.0</ele><time>2026-04-12T09:26:21.95Z</time></trkpt><trkpt lat="40.6673617" lon="15.1849117"><ele>447.0</ele><time>2026-04-12T09:26:22.95Z</time></trkpt><trkpt lat="40.6674867" lon="15.1849183"><ele>447.0</ele><time>2026-04-12T09:26:23.951Z</time></trkpt><trkpt lat="40.6676133" lon="15.1849183"><ele>447.0</ele><time>2026-04-12T09:26:24.95Z</time></trkpt><trkpt lat="40.6677433" lon="15.1849183"><ele>447.5</ele><time>2026-04-12T09:26:25.951Z</time></trkpt><trkpt lat="40.6678767" lon="15.1849233"><ele>448.0</ele><time>2026-04-12T09:26:26.95Z</time></trkpt><trkpt lat="40.6680017" lon="15.1849417"><ele>448.5</ele><time>2026-04-12T09:26:27.95Z</time></trkpt><trkpt lat="40.6681233" lon="15.18497"><ele>449.0</ele><time>2026-04-12T09:26:28.95Z</time></trkpt><trkpt lat="40.6682383" lon="15.184995"><ele>449.0</ele><time>2026-04-12T09:26:29.951Z</time></trkpt><trkpt lat="40.668355" lon="15.1850167"><ele>449.0</ele><time>2026-04-12T09:26:30.95Z</time></trkpt><trkpt lat="40.6684733" lon="15.1850417"><ele>449.0</ele><time>2026-04-12T09:26:31.95Z</time></trkpt><trkpt lat="40.668585" lon="15.1850683"><ele>449.0</ele><time>2026-04-12T09:26:32.95Z</time></trkpt><trkpt lat="40.668705" lon="15.1851067"><ele>449.0</ele><time>2026-04-12T09:26:33.95Z</time></trkpt><trkpt lat="40.6688283" lon="15.185155"><ele>449.0</ele><time>2026-04-12T09:26:34.95Z</time></trkpt><trkpt lat="40.66895" lon="15.185215"><ele>449.0</ele><time>2026-04-12T09:26:35.95Z</time></trkpt><trkpt lat="40.6690733" lon="15.1852783"><ele>449.0</ele><time>2026-04-12T09:26:36.95Z</time></trkpt><trkpt lat="40.6691833" lon="15.1853317"><ele>449.0</ele><time>2026-04-12T09:26:37.95Z</time></trkpt><trkpt lat="40.6692883" lon="15.1853817"><ele>449.0</ele><time>2026-04-12T09:26:38.95Z</time></trkpt><trkpt lat="40.66939" lon="15.1854183"><ele>449.0</ele><time>2026-04-12T09:26:39.95Z</time></trkpt><trkpt lat="40.669485" lon="15.1854517"><ele>449.0</ele><time>2026-04-12T09:26:40.95Z</time></trkpt><trkpt lat="40.6695633" lon="15.185495"><ele>449.0</ele><time>2026-04-12T09:26:41.95Z</time></trkpt><trkpt lat="40.6696183" lon="15.1855767"><ele>450.0</ele><time>2026-04-12T09:26:42.95Z</time></trkpt><trkpt lat="40.669655" lon="15.1856783"><ele>451.0</ele><time>2026-04-12T09:26:43.95Z</time></trkpt><trkpt lat="40.6696733" lon="15.1858017"><ele>452.0</ele><time>2026-04-12T09:26:44.951Z</time></trkpt><trkpt lat="40.669685" lon="15.185935"><ele>453.0</ele><time>2026-04-12T09:26:45.95Z</time></trkpt><trkpt lat="40.6696967" lon="15.1860733"><ele>454.0</ele><time>2026-04-12T09:26:46.95Z</time></trkpt><trkpt lat="40.66971" lon="15.1862133"><ele>454.0</ele><time>2026-04-12T09:26:47.95Z</time></trkpt><trkpt lat="40.669725" lon="15.18636"><ele>454.0</ele><time>2026-04-12T09:26:48.951Z</time></trkpt><trkpt lat="40.66974" lon="15.1865067"><ele>454.0</ele><time>2026-04-12T09:26:49.95Z</time></trkpt><trkpt lat="40.669755" lon="15.1866517"><ele>454.0</ele><time>2026-04-12T09:26:50.95Z</time></trkpt><trkpt lat="40.6697617" lon="15.1867983"><ele>454.0</ele><time>2026-04-12T09:26:51.95Z</time></trkpt><trkpt lat="40.6697567" lon="15.1869367"><ele>454.2</ele><time>2026-04-12T09:26:52.95Z</time></trkpt><trkpt lat="40.6697333" lon="15.1870717"><ele>454.4</ele><time>2026-04-12T09:26:53.95Z</time></trkpt><trkpt lat="40.6697067" lon="15.1871917"><ele>454.6</ele><time>2026-04-12T09:26:54.95Z</time></trkpt><trkpt lat="40.6696683" lon="15.1872983"><ele>454.8</ele><time>2026-04-12T09:26:55.95Z</time></trkpt><trkpt lat="40.6696317" lon="15.1874167"><ele>455.0</ele><time>2026-04-12T09:26:56.95Z</time></trkpt><trkpt lat="40.6696033" lon="15.1875517"><ele>455.0</ele><time>2026-04-12T09:26:57.95Z</time></trkpt><trkpt lat="40.669585" lon="15.187705"><ele>455.0</ele><time>2026-04-12T09:26:58.95Z</time></trkpt><trkpt lat="40.6695833" lon="15.1878667"><ele>455.0</ele><time>2026-04-12T09:26:59.95Z</time></trkpt><trkpt lat="40.6695867" lon="15.18804"><ele>455.0</ele><time>2026-04-12T09:27:00.95Z</time></trkpt><trkpt lat="40.6695883" lon="15.1882217"><ele>455.0</ele><time>2026-04-12T09:27:01.95Z</time></trkpt><trkpt lat="40.66959" lon="15.1884"><ele>455.0</ele><time>2026-04-12T09:27:02.95Z</time></trkpt><trkpt lat="40.6695933" lon="15.18858"><ele>455.0</ele><time>2026-04-12T09:27:03.95Z</time></trkpt><trkpt lat="40.6695983" lon="15.18876"><ele>455.0</ele><time>2026-04-12T09:27:04.95Z</time></trkpt><trkpt lat="40.6695883" lon="15.1889383"><ele>454.5</ele><time>2026-04-12T09:27:05.95Z</time></trkpt><trkpt lat="40.66957" lon="15.1891117"><ele>454.0</ele><time>2026-04-12T09:27:06.951Z</time></trkpt><trkpt lat="40.6695433" lon="15.189285"><ele>453.5</ele><time>2026-04-12T09:27:07.95Z</time></trkpt><trkpt lat="40.6695133" lon="15.18946"><ele>453.0</ele><time>2026-04-12T09:27:08.95Z</time></trkpt><trkpt lat="40.6694867" lon="15.1896167"><ele>453.0</ele><time>2026-04-12T09:27:09.95Z</time></trkpt><trkpt lat="40.6694483" lon="15.1897567"><ele>452.99999999999994</ele><time>2026-04-12T09:27:10.95Z</time></trkpt><trkpt lat="40.6694117" lon="15.18989"><ele>452.99999999999994</ele><time>2026-04-12T09:27:11.95Z</time></trkpt><trkpt lat="40.6694017" lon="15.19002"><ele>453.0</ele><time>2026-04-12T09:27:12.95Z</time></trkpt><trkpt lat="40.6694267" lon="15.1901417"><ele>453.0</ele><time>2026-04-12T09:27:13.95Z</time></trkpt><trkpt lat="40.66949" lon="15.19025"><ele>451.0</ele><time>2026-04-12T09:27:14.95Z</time></trkpt><trkpt lat="40.6695717" lon="15.19033"><ele>449.0</ele><time>2026-04-12T09:27:15.951Z</time></trkpt><trkpt lat="40.6696717" lon="15.190385"><ele>447.0</ele><time>2026-04-12T09:27:16.95Z</time></trkpt><trkpt lat="40.6697867" lon="15.1904317"><ele>445.0</ele><time>2026-04-12T09:27:17.95Z</time></trkpt><trkpt lat="40.669915" lon="15.1904633"><ele>445.0</ele><time>2026-04-12T09:27:18.95Z</time></trkpt><trkpt lat="40.67005" lon="15.1904917"><ele>445.0</ele><time>2026-04-12T09:27:19.95Z</time></trkpt><trkpt lat="40.6701933" lon="15.1905183"><ele>445.0</ele><time>2026-04-12T09:27:20.951Z</time></trkpt><trkpt lat="40.6703383" lon="15.190555"><ele>445.0</ele><time>2026-04-12T09:27:21.951Z</time></trkpt><trkpt lat="40.6704867" lon="15.19058"><ele>444.33333333333337</ele><time>2026-04-12T09:27:22.95Z</time></trkpt><trkpt lat="40.6706483" lon="15.1905733"><ele>443.66666666666663</ele><time>2026-04-12T09:27:23.95Z</time></trkpt><trkpt lat="40.6708117" lon="15.1905217"><ele>443.0</ele><time>2026-04-12T09:27:24.95Z</time></trkpt><trkpt lat="40.6709667" lon="15.1904517"><ele>443.0</ele><time>2026-04-12T09:27:25.95Z</time></trkpt><trkpt lat="40.6711" lon="15.1903633"><ele>443.0</ele><time>2026-04-12T09:27:26.95Z</time></trkpt><trkpt lat="40.671215" lon="15.1902517"><ele>443.0</ele><time>2026-04-12T09:27:27.95Z</time></trkpt><trkpt lat="40.6713117" lon="15.1901267"><ele>443.0</ele><time>2026-04-12T09:27:28.95Z</time></trkpt><trkpt lat="40.6713933" lon="15.1899933"><ele>443.0</ele><time>2026-04-12T09:27:29.95Z</time></trkpt><trkpt lat="40.67149" lon="15.189875"><ele>442.99999999999994</ele><time>2026-04-12T09:27:30.95Z</time></trkpt><trkpt lat="40.6715917" lon="15.1897933"><ele>442.99999999999994</ele><time>2026-04-12T09:27:31.95Z</time></trkpt><trkpt lat="40.6716867" lon="15.189765"><ele>443.0</ele><time>2026-04-12T09:27:32.95Z</time></trkpt><trkpt lat="40.67178" lon="15.18977"><ele>443.0</ele><time>2026-04-12T09:27:33.95Z</time></trkpt><trkpt lat="40.6718617" lon="15.1898133"><ele>441.0</ele><time>2026-04-12T09:27:34.95Z</time></trkpt><trkpt lat="40.6719417" lon="15.1898933"><ele>438.99999999999994</ele><time>2026-04-12T09:27:35.95Z</time></trkpt><trkpt lat="40.6720117" lon="15.1900067"><ele>436.99999999999994</ele><time>2026-04-12T09:27:36.95Z</time></trkpt><trkpt lat="40.6720783" lon="15.1901267"><ele>435.0</ele><time>2026-04-12T09:27:37.95Z</time></trkpt><trkpt lat="40.67215" lon="15.19024"><ele>433.0</ele><time>2026-04-12T09:27:38.951Z</time></trkpt><trkpt lat="40.67222" lon="15.1903433"><ele>433.00000000000006</ele><time>2026-04-12T09:27:39.95Z</time></trkpt><trkpt lat="40.672295" lon="15.190415"><ele>433.0</ele><time>2026-04-12T09:27:40.95Z</time></trkpt><trkpt lat="40.6723783" lon="15.1904583"><ele>433.0</ele><time>2026-04-12T09:27:41.95Z</time></trkpt><trkpt lat="40.6724617" lon="15.1904533"><ele>433.0</ele><time>2026-04-12T09:27:42.95Z</time></trkpt><trkpt lat="40.6725383" lon="15.1904067"><ele>433.00000000000006</ele><time>2026-04-12T09:27:43.951Z</time></trkpt><trkpt lat="40.6726067" lon="15.19033"><ele>433.0</ele><time>2026-04-12T09:27:44.95Z</time></trkpt><trkpt lat="40.6726733" lon="15.190245"><ele>433.0</ele><time>2026-04-12T09:27:45.95Z</time></trkpt><trkpt lat="40.6727433" lon="15.1901467"><ele>432.99999999999994</ele><time>2026-04-12T09:27:46.95Z</time></trkpt><trkpt lat="40.6728233" lon="15.1900483"><ele>432.99999999999994</ele><time>2026-04-12T09:27:47.95Z</time></trkpt><trkpt lat="40.6729183" lon="15.1899667"><ele>433.0</ele><time>2026-04-12T09:27:48.95Z</time></trkpt><trkpt lat="40.6730317" lon="15.18992"><ele>433.0</ele><time>2026-04-12T09:27:49.95Z</time></trkpt><trkpt lat="40.6731533" lon="15.1899067"><ele>431.75</ele><time>2026-04-12T09:27:50.95Z</time></trkpt><trkpt lat="40.6732767" lon="15.189925"><ele>430.5</ele><time>2026-04-12T09:27:51.95Z</time></trkpt><trkpt lat="40.6733967" lon="15.1899667"><ele>429.25</ele><time>2026-04-12T09:27:52.95Z</time></trkpt><trkpt lat="40.6735167" lon="15.190035"><ele>428.0</ele><time>2026-04-12T09:27:53.95Z</time></trkpt><trkpt lat="40.673635" lon="15.1901183"><ele>428.0</ele><time>2026-04-12T09:27:54.95Z</time></trkpt><trkpt lat="40.673755" lon="15.1902117"><ele>428.0</ele><time>2026-04-12T09:27:55.951Z</time></trkpt><trkpt lat="40.6738783" lon="15.1903067"><ele>428.0</ele><time>2026-04-12T09:27:56.95Z</time></trkpt><trkpt lat="40.6740083" lon="15.19039"><ele>428.0</ele><time>2026-04-12T09:27:57.95Z</time></trkpt><trkpt lat="40.6741417" lon="15.1904517"><ele>428.0</ele><time>2026-04-12T09:27:58.95Z</time></trkpt><trkpt lat="40.6742767" lon="15.1904833"><ele>428.0</ele><time>2026-04-12T09:27:59.95Z</time></trkpt><trkpt lat="40.6744167" lon="15.1904983"><ele>428.0</ele><time>2026-04-12T09:28:00.95Z</time></trkpt><trkpt lat="40.67455" lon="15.190475"><ele>428.0</ele><time>2026-04-12T09:28:01.95Z</time></trkpt><trkpt lat="40.67468" lon="15.1904167"><ele>424.66666666666663</ele><time>2026-04-12T09:28:02.951Z</time></trkpt><trkpt lat="40.6748117" lon="15.1903267"><ele>421.33333333333337</ele><time>2026-04-12T09:28:03.95Z</time></trkpt><trkpt lat="40.67494" lon="15.1902167"><ele>418.0</ele><time>2026-04-12T09:28:04.95Z</time></trkpt><trkpt lat="40.6750617" lon="15.1900917"><ele>418.0</ele><time>2026-04-12T09:28:05.95Z</time></trkpt><trkpt lat="40.6751733" lon="15.1899483"><ele>418.0</ele><time>2026-04-12T09:28:06.95Z</time></trkpt><trkpt lat="40.675275" lon="15.1897967"><ele>418.0</ele><time>2026-04-12T09:28:07.95Z</time></trkpt><trkpt lat="40.6753683" lon="15.189645"><ele>417.75</ele><time>2026-04-12T09:28:08.95Z</time></trkpt><trkpt lat="40.675465" lon="15.1895083"><ele>417.5</ele><time>2026-04-12T09:28:09.95Z</time></trkpt><trkpt lat="40.675575" lon="15.1893883"><ele>417.25</ele><time>2026-04-12T09:28:10.95Z</time></trkpt><trkpt lat="40.6756833" lon="15.18929"><ele>417.0</ele><time>2026-04-12T09:28:11.95Z</time></trkpt><trkpt lat="40.675785" lon="15.18921"><ele>417.0</ele><time>2026-04-12T09:28:12.95Z</time></trkpt><trkpt lat="40.6758917" lon="15.18916"><ele>417.0</ele><time>2026-04-12T09:28:13.95Z</time></trkpt><trkpt lat="40.6760067" lon="15.1891483"><ele>417.0</ele><time>2026-04-12T09:28:14.95Z</time></trkpt><trkpt lat="40.6761133" lon="15.1891917"><ele>417.0</ele><time>2026-04-12T09:28:15.95Z</time></trkpt><trkpt lat="40.6762067" lon="15.18928"><ele>418.0</ele><time>2026-04-12T09:28:16.95Z</time></trkpt><trkpt lat="40.6762883" lon="15.1893867"><ele>419.0</ele><time>2026-04-12T09:28:17.95Z</time></trkpt><trkpt lat="40.6763617" lon="15.1894967"><ele>420.0</ele><time>2026-04-12T09:28:18.95Z</time></trkpt><trkpt lat="40.67643" lon="15.1895967"><ele>421.0</ele><time>2026-04-12T09:28:19.95Z</time></trkpt><trkpt lat="40.6765" lon="15.1896983"><ele>422.0</ele><time>2026-04-12T09:28:20.95Z</time></trkpt><trkpt lat="40.6765733" lon="15.1898017"><ele>420.40000000000003</ele><time>2026-04-12T09:28:21.95Z</time></trkpt><trkpt lat="40.6766333" lon="15.189905"><ele>418.8</ele><time>2026-04-12T09:28:22.95Z</time></trkpt><trkpt lat="40.6766917" lon="15.19002"><ele>417.2</ele><time>2026-04-12T09:28:23.95Z</time></trkpt><trkpt lat="40.6767233" lon="15.1901517"><ele>415.6</ele><time>2026-04-12T09:28:24.95Z</time></trkpt><trkpt lat="40.6767233" lon="15.1902917"><ele>414.0</ele><time>2026-04-12T09:28:25.95Z</time></trkpt><trkpt lat="40.6767" lon="15.19045"><ele>414.0</ele><time>2026-04-12T09:28:26.95Z</time></trkpt><trkpt lat="40.6766717" lon="15.1906233"><ele>414.0</ele><time>2026-04-12T09:28:27.95Z</time></trkpt><trkpt lat="40.67665" lon="15.1907967"><ele>414.0</ele><time>2026-04-12T09:28:28.95Z</time></trkpt><trkpt lat="40.676625" lon="15.1909633"><ele>414.0</ele><time>2026-04-12T09:28:29.95Z</time></trkpt><trkpt lat="40.6765967" lon="15.1911267"><ele>412.6</ele><time>2026-04-12T09:28:30.95Z</time></trkpt><trkpt lat="40.6765633" lon="15.191275"><ele>411.2</ele><time>2026-04-12T09:28:31.95Z</time></trkpt><trkpt lat="40.676555" lon="15.1914117"><ele>409.8</ele><time>2026-04-12T09:28:32.95Z</time></trkpt><trkpt lat="40.676585" lon="15.1915383"><ele>408.40000000000003</ele><time>2026-04-12T09:28:33.95Z</time></trkpt><trkpt lat="40.6766483" lon="15.1916433"><ele>407.0</ele><time>2026-04-12T09:28:34.95Z</time></trkpt><trkpt lat="40.6767333" lon="15.1916933"><ele>406.49999999999994</ele><time>2026-04-12T09:28:35.95Z</time></trkpt><trkpt lat="40.67683" lon="15.19172"><ele>406.0</ele><time>2026-04-12T09:28:36.95Z</time></trkpt><trkpt lat="40.6769267" lon="15.19171"><ele>405.5</ele><time>2026-04-12T09:28:37.95Z</time></trkpt><trkpt lat="40.6770067" lon="15.1917"><ele>405.0</ele><time>2026-04-12T09:28:38.95Z</time></trkpt><trkpt lat="40.6770733" lon="15.1917217"><ele>404.49999999999994</ele><time>2026-04-12T09:28:39.95Z</time></trkpt><trkpt lat="40.6771267" lon="15.1917917"><ele>404.0</ele><time>2026-04-12T09:28:40.95Z</time></trkpt><trkpt lat="40.6771567" lon="15.1918833"><ele>404.0</ele><time>2026-04-12T09:28:41.95Z</time></trkpt><trkpt lat="40.6771833" lon="15.1919933"><ele>404.0</ele><time>2026-04-12T09:28:42.95Z</time></trkpt><trkpt lat="40.6772" lon="15.1921183"><ele>404.0</ele><time>2026-04-12T09:28:43.95Z</time></trkpt><trkpt lat="40.677215" lon="15.192255"><ele>404.0</ele><time>2026-04-12T09:28:44.95Z</time></trkpt><trkpt lat="40.6772367" lon="15.19241"><ele>404.0</ele><time>2026-04-12T09:28:45.951Z</time></trkpt><trkpt lat="40.67726" lon="15.1925783"><ele>403.25</ele><time>2026-04-12T09:28:46.95Z</time></trkpt><trkpt lat="40.6772883" lon="15.19276"><ele>402.5</ele><time>2026-04-12T09:28:47.95Z</time></trkpt><trkpt lat="40.6773183" lon="15.1929367"><ele>401.75</ele><time>2026-04-12T09:28:48.95Z</time></trkpt><trkpt lat="40.6773617" lon="15.1930967"><ele>401.0</ele><time>2026-04-12T09:28:49.95Z</time></trkpt><trkpt lat="40.6774317" lon="15.1932267"><ele>400.0</ele><time>2026-04-12T09:28:50.95Z</time></trkpt><trkpt lat="40.6775317" lon="15.1933317"><ele>399.0</ele><time>2026-04-12T09:28:51.95Z</time></trkpt><trkpt lat="40.6776533" lon="15.1934283"><ele>398.0</ele><time>2026-04-12T09:28:52.95Z</time></trkpt><trkpt lat="40.6777867" lon="15.1935283"><ele>397.0</ele><time>2026-04-12T09:28:53.95Z</time></trkpt><trkpt lat="40.6779133" lon="15.1936233"><ele>397.0</ele><time>2026-04-12T09:28:54.95Z</time></trkpt><trkpt lat="40.6780333" lon="15.19372"><ele>397.0</ele><time>2026-04-12T09:28:55.95Z</time></trkpt><trkpt lat="40.6781483" lon="15.193815"><ele>397.0</ele><time>2026-04-12T09:28:56.95Z</time></trkpt><trkpt lat="40.6782517" lon="15.19393"><ele>397.0</ele><time>2026-04-12T09:28:57.95Z</time></trkpt><trkpt lat="40.6783317" lon="15.1940667"><ele>394.25</ele><time>2026-04-12T09:28:58.95Z</time></trkpt><trkpt lat="40.6783867" lon="15.19424"><ele>391.5</ele><time>2026-04-12T09:28:59.95Z</time></trkpt><trkpt lat="40.6784333" lon="15.1944283"><ele>388.75</ele><time>2026-04-12T09:29:00.95Z</time></trkpt><trkpt lat="40.678475" lon="15.1946167"><ele>386.0</ele><time>2026-04-12T09:29:01.95Z</time></trkpt><trkpt lat="40.6785067" lon="15.194805"><ele>384.5</ele><time>2026-04-12T09:29:02.95Z</time></trkpt><trkpt lat="40.678525" lon="15.1949917"><ele>383.0</ele><time>2026-04-12T09:29:03.95Z</time></trkpt><trkpt lat="40.67852" lon="15.1951767"><ele>381.5</ele><time>2026-04-12T09:29:04.95Z</time></trkpt><trkpt lat="40.6785067" lon="15.195365"><ele>380.0</ele><time>2026-04-12T09:29:05.95Z</time></trkpt><trkpt lat="40.6784767" lon="15.1955533"><ele>378.33333333333337</ele><time>2026-04-12T09:29:06.95Z</time></trkpt><trkpt lat="40.6784333" lon="15.1957467"><ele>376.6666666666667</ele><time>2026-04-12T09:29:07.95Z</time></trkpt><trkpt lat="40.6783933" lon="15.1959467"><ele>375.0</ele><time>2026-04-12T09:29:08.95Z</time></trkpt><trkpt lat="40.678355" lon="15.196135"><ele>375.0</ele><time>2026-04-12T09:29:09.95Z</time></trkpt><trkpt lat="40.678315" lon="15.19633"><ele>375.0</ele><time>2026-04-12T09:29:10.95Z</time></trkpt><trkpt lat="40.678265" lon="15.196525"><ele>375.0</ele><time>2026-04-12T09:29:11.95Z</time></trkpt><trkpt lat="40.678215" lon="15.1967183"><ele>374.3333333333333</ele><time>2026-04-12T09:29:12.95Z</time></trkpt><trkpt lat="40.6781517" lon="15.19691"><ele>373.66666666666663</ele><time>2026-04-12T09:29:13.95Z</time></trkpt><trkpt lat="40.6780917" lon="15.1970967"><ele>373.0</ele><time>2026-04-12T09:29:14.95Z</time></trkpt><trkpt lat="40.67806" lon="15.1972867"><ele>371.66666666666663</ele><time>2026-04-12T09:29:15.95Z</time></trkpt><trkpt lat="40.67804" lon="15.197495"><ele>370.3333333333333</ele><time>2026-04-12T09:29:16.95Z</time></trkpt><trkpt lat="40.6780367" lon="15.1977033"><ele>369.0</ele><time>2026-04-12T09:29:17.95Z</time></trkpt><trkpt lat="40.6780467" lon="15.1979067"><ele>369.0</ele><time>2026-04-12T09:29:18.95Z</time></trkpt><trkpt lat="40.6780633" lon="15.198115"><ele>369.0</ele><time>2026-04-12T09:29:19.951Z</time></trkpt><trkpt lat="40.6780833" lon="15.1983283"><ele>369.0</ele><time>2026-04-12T09:29:20.95Z</time></trkpt><trkpt lat="40.6781083" lon="15.1985367"><ele>369.0</ele><time>2026-04-12T09:29:21.95Z</time></trkpt><trkpt lat="40.67814" lon="15.198735"><ele>369.0</ele><time>2026-04-12T09:29:22.95Z</time></trkpt><trkpt lat="40.6781683" lon="15.198915"><ele>369.0</ele><time>2026-04-12T09:29:23.95Z</time></trkpt><trkpt lat="40.6781983" lon="15.199075"><ele>369.0</ele><time>2026-04-12T09:29:24.951Z</time></trkpt><trkpt lat="40.678225" lon="15.1992317"><ele>368.5</ele><time>2026-04-12T09:29:25.949Z</time></trkpt><trkpt lat="40.6782733" lon="15.1993817"><ele>368.0</ele><time>2026-04-12T09:29:26.949Z</time></trkpt><trkpt lat="40.67835" lon="15.1995233"><ele>367.5</ele><time>2026-04-12T09:29:27.949Z</time></trkpt><trkpt lat="40.678455" lon="15.19964"><ele>367.0</ele><time>2026-04-12T09:29:28.949Z</time></trkpt><trkpt lat="40.6785783" lon="15.1997367"><ele>365.75</ele><time>2026-04-12T09:29:29.95Z</time></trkpt><trkpt lat="40.67871" lon="15.19982"><ele>364.5</ele><time>2026-04-12T09:29:30.949Z</time></trkpt><trkpt lat="40.6788417" lon="15.1998917"><ele>363.25</ele><time>2026-04-12T09:29:31.949Z</time></trkpt><trkpt lat="40.6789583" lon="15.1999633"><ele>362.0</ele><time>2026-04-12T09:29:32.949Z</time></trkpt><trkpt lat="40.6790767" lon="15.20005"><ele>362.0</ele><time>2026-04-12T09:29:33.949Z</time></trkpt><trkpt lat="40.6791867" lon="15.20016"><ele>362.0</ele><time>2026-04-12T09:29:34.949Z</time></trkpt><trkpt lat="40.6792767" lon="15.2002967"><ele>362.0</ele><time>2026-04-12T09:29:35.949Z</time></trkpt><trkpt lat="40.6793483" lon="15.2004633"><ele>362.0</ele><time>2026-04-12T09:29:36.949Z</time></trkpt><trkpt lat="40.679415" lon="15.2006417"><ele>362.25</ele><time>2026-04-12T09:29:37.949Z</time></trkpt><trkpt lat="40.6794783" lon="15.20081"><ele>362.5</ele><time>2026-04-12T09:29:38.949Z</time></trkpt><trkpt lat="40.6795417" lon="15.2009733"><ele>362.75</ele><time>2026-04-12T09:29:39.949Z</time></trkpt><trkpt lat="40.6795983" lon="15.2011317"><ele>363.0</ele><time>2026-04-12T09:29:40.95Z</time></trkpt><trkpt lat="40.6796517" lon="15.2012833"><ele>363.0</ele><time>2026-04-12T09:29:41.949Z</time></trkpt><trkpt lat="40.679705" lon="15.2014283"><ele>363.0</ele><time>2026-04-12T09:29:42.949Z</time></trkpt><trkpt lat="40.679755" lon="15.2015683"><ele>363.0</ele><time>2026-04-12T09:29:43.949Z</time></trkpt><trkpt lat="40.6798117" lon="15.2017183"><ele>363.0</ele><time>2026-04-12T09:29:44.949Z</time></trkpt><trkpt lat="40.6798767" lon="15.2018833"><ele>361.5</ele><time>2026-04-12T09:29:45.949Z</time></trkpt><trkpt lat="40.6799333" lon="15.2020533"><ele>360.0</ele><time>2026-04-12T09:29:46.949Z</time></trkpt><trkpt lat="40.679985" lon="15.2022133"><ele>358.5</ele><time>2026-04-12T09:29:47.949Z</time></trkpt><trkpt lat="40.6800367" lon="15.202365"><ele>357.0</ele><time>2026-04-12T09:29:48.949Z</time></trkpt><trkpt lat="40.6800817" lon="15.20251"><ele>356.0</ele><time>2026-04-12T09:29:49.949Z</time></trkpt><trkpt lat="40.6801283" lon="15.2026383"><ele>355.0</ele><time>2026-04-12T09:29:50.949Z</time></trkpt><trkpt lat="40.680175" lon="15.202745"><ele>354.0</ele><time>2026-04-12T09:29:51.949Z</time></trkpt><trkpt lat="40.6802183" lon="15.20284"><ele>353.0</ele><time>2026-04-12T09:29:52.949Z</time></trkpt><trkpt lat="40.6802767" lon="15.20292"><ele>352.0</ele><time>2026-04-12T09:29:53.949Z</time></trkpt><trkpt lat="40.6803367" lon="15.2029833"><ele>351.0</ele><time>2026-04-12T09:29:54.95Z</time></trkpt><trkpt lat="40.68042" lon="15.2030533"><ele>350.8333333333333</ele><time>2026-04-12T09:29:56.949Z</time></trkpt><trkpt lat="40.6804333" lon="15.2031467"><ele>350.6666666666667</ele><time>2026-04-12T09:29:59.949Z</time></trkpt><trkpt lat="40.68037" lon="15.20326"><ele>350.5</ele><time>2026-04-12T09:30:01.949Z</time></trkpt><trkpt lat="40.6803283" lon="15.2033333"><ele>350.33333333333337</ele><time>2026-04-12T09:30:02.95Z</time></trkpt><trkpt lat="40.6802817" lon="15.2034117"><ele>350.1666666666667</ele><time>2026-04-12T09:30:03.949Z</time></trkpt><trkpt lat="40.6802433" lon="15.2035017"><ele>350.0</ele><time>2026-04-12T09:30:04.949Z</time></trkpt><trkpt lat="40.68021" lon="15.20359"><ele>348.5</ele><time>2026-04-12T09:30:05.949Z</time></trkpt><trkpt lat="40.6801717" lon="15.2036767"><ele>347.0</ele><time>2026-04-12T09:30:06.95Z</time></trkpt><trkpt lat="40.68014" lon="15.2037617"><ele>345.5</ele><time>2026-04-12T09:30:07.949Z</time></trkpt><trkpt lat="40.6801217" lon="15.2038533"><ele>344.0</ele><time>2026-04-12T09:30:08.949Z</time></trkpt><trkpt lat="40.6801067" lon="15.2039533"><ele>342.5</ele><time>2026-04-12T09:30:09.949Z</time></trkpt><trkpt lat="40.6800933" lon="15.2040583"><ele>341.0</ele><time>2026-04-12T09:30:10.949Z</time></trkpt><trkpt lat="40.68008" lon="15.20416"><ele>339.83333333333337</ele><time>2026-04-12T09:30:11.949Z</time></trkpt><trkpt lat="40.6800633" lon="15.2042617"><ele>338.6666666666667</ele><time>2026-04-12T09:30:12.949Z</time></trkpt><trkpt lat="40.6800417" lon="15.2043633"><ele>337.5</ele><time>2026-04-12T09:30:13.949Z</time></trkpt><trkpt lat="40.68002" lon="15.2044583"><ele>336.3333333333333</ele><time>2026-04-12T09:30:14.949Z</time></trkpt><trkpt lat="40.6799983" lon="15.2045517"><ele>335.16666666666663</ele><time>2026-04-12T09:30:15.949Z</time></trkpt><trkpt lat="40.6799717" lon="15.2046483"><ele>334.0</ele><time>2026-04-12T09:30:16.949Z</time></trkpt><trkpt lat="40.679945" lon="15.2047483"><ele>332.2</ele><time>2026-04-12T09:30:17.949Z</time></trkpt><trkpt lat="40.6799117" lon="15.2048567"><ele>330.4</ele><time>2026-04-12T09:30:18.95Z</time></trkpt><trkpt lat="40.6798733" lon="15.2049567"><ele>328.6</ele><time>2026-04-12T09:30:19.949Z</time></trkpt><trkpt lat="40.679835" lon="15.2050583"><ele>326.8</ele><time>2026-04-12T09:30:20.949Z</time></trkpt><trkpt lat="40.6797917" lon="15.20517"><ele>325.0</ele><time>2026-04-12T09:30:21.949Z</time></trkpt><trkpt lat="40.6797467" lon="15.2052817"><ele>325.0</ele><time>2026-04-12T09:30:22.949Z</time></trkpt><trkpt lat="40.6797017" lon="15.2054"><ele>325.0</ele><time>2026-04-12T09:30:23.949Z</time></trkpt><trkpt lat="40.6796483" lon="15.205505"><ele>325.0</ele><time>2026-04-12T09:30:24.949Z</time></trkpt><trkpt lat="40.6795783" lon="15.2055983"><ele>325.0</ele><time>2026-04-12T09:30:25.949Z</time></trkpt><trkpt lat="40.67951" lon="15.2057"><ele>325.0</ele><time>2026-04-12T09:30:26.949Z</time></trkpt><trkpt lat="40.6794483" lon="15.205805"><ele>322.66666666666663</ele><time>2026-04-12T09:30:27.949Z</time></trkpt><trkpt lat="40.679405" lon="15.2059233"><ele>320.3333333333333</ele><time>2026-04-12T09:30:28.949Z</time></trkpt><trkpt lat="40.6793567" lon="15.206035"><ele>318.0</ele><time>2026-04-12T09:30:29.949Z</time></trkpt><trkpt lat="40.6793067" lon="15.206145"><ele>315.6666666666667</ele><time>2026-04-12T09:30:30.949Z</time></trkpt><trkpt lat="40.6792567" lon="15.2062333"><ele>313.33333333333337</ele><time>2026-04-12T09:30:31.949Z</time></trkpt><trkpt lat="40.6792167" lon="15.2062983"><ele>311.0</ele><time>2026-04-12T09:30:32.949Z</time></trkpt><trkpt lat="40.6791617" lon="15.2063817"><ele>311.0</ele><time>2026-04-12T09:30:34.949Z</time></trkpt><trkpt lat="40.6792233" lon="15.2064783"><ele>311.0</ele><time>2026-04-12T09:30:38.949Z</time></trkpt><trkpt lat="40.67934" lon="15.2065483"><ele>311.0</ele><time>2026-04-12T09:30:40.949Z</time></trkpt><trkpt lat="40.6794133" lon="15.206595"><ele>311.0</ele><time>2026-04-12T09:30:41.95Z</time></trkpt><trkpt lat="40.6794883" lon="15.206655"><ele>311.0</ele><time>2026-04-12T09:30:42.949Z</time></trkpt><trkpt lat="40.6795567" lon="15.2067217"><ele>310.0</ele><time>2026-04-12T09:30:43.949Z</time></trkpt><trkpt lat="40.67962" lon="15.206795"><ele>309.0</ele><time>2026-04-12T09:30:44.949Z</time></trkpt><trkpt lat="40.67968" lon="15.2068667"><ele>308.0</ele><time>2026-04-12T09:30:45.949Z</time></trkpt><trkpt lat="40.6797383" lon="15.20694"><ele>307.0</ele><time>2026-04-12T09:30:46.949Z</time></trkpt><trkpt lat="40.6797917" lon="15.2070083"><ele>306.0</ele><time>2026-04-12T09:30:47.949Z</time></trkpt><trkpt lat="40.6798383" lon="15.2070717"><ele>305.0</ele><time>2026-04-12T09:30:48.949Z</time></trkpt><trkpt lat="40.679935" lon="15.2071567"><ele>305.0</ele><time>2026-04-12T09:30:50.949Z</time></trkpt><trkpt lat="40.6800417" lon="15.207225"><ele>305.0</ele><time>2026-04-12T09:30:52.949Z</time></trkpt><trkpt lat="40.6801017" lon="15.2072517"><ele>305.0</ele><time>2026-04-12T09:30:53.949Z</time></trkpt><trkpt lat="40.6802" lon="15.2072967"><ele>305.0</ele><time>2026-04-12T09:30:55.949Z</time></trkpt><trkpt lat="40.68031" lon="15.20741"><ele>305.0</ele><time>2026-04-12T09:30:58.949Z</time></trkpt><trkpt lat="40.680385" lon="15.2075167"><ele>303.6</ele><time>2026-04-12T09:31:00.949Z</time></trkpt><trkpt lat="40.6804883" lon="15.2075967"><ele>302.2</ele><time>2026-04-12T09:31:02.949Z</time></trkpt><trkpt lat="40.6805717" lon="15.2077017"><ele>300.8</ele><time>2026-04-12T09:31:04.949Z</time></trkpt><trkpt lat="40.680595" lon="15.2078183"><ele>299.4</ele><time>2026-04-12T09:31:06.949Z</time></trkpt><trkpt lat="40.68058" lon="15.2079133"><ele>298.0</ele><time>2026-04-12T09:31:08.949Z</time></trkpt><trkpt lat="40.6805767" lon="15.2080217"><ele>298.0</ele><time>2026-04-12T09:31:10.949Z</time></trkpt><trkpt lat="40.680615" lon="15.2081433"><ele>298.0</ele><time>2026-04-12T09:31:12.949Z</time></trkpt><trkpt lat="40.680675" lon="15.208245"><ele>298.0</ele><time>2026-04-12T09:31:14.949Z</time></trkpt><trkpt lat="40.68074" lon="15.2083417"><ele>298.0</ele><time>2026-04-12T09:31:16.949Z</time></trkpt><trkpt lat="40.6808033" lon="15.2084117"><ele>298.0</ele><time>2026-04-12T09:31:18.949Z</time></trkpt><trkpt lat="40.6808683" lon="15.2084583"><ele>297.4</ele><time>2026-04-12T09:31:20.949Z</time></trkpt><trkpt lat="40.6809467" lon="15.2085117"><ele>296.8</ele><time>2026-04-12T09:31:23.95Z</time></trkpt><trkpt lat="40.6810383" lon="15.20856"><ele>296.2</ele><time>2026-04-12T09:31:44.949Z</time></trkpt><trkpt lat="40.681135" lon="15.2086283"><ele>295.6</ele><time>2026-04-12T09:31:46.95Z</time></trkpt><trkpt lat="40.6812017" lon="15.2087283"><ele>295.0</ele><time>2026-04-12T09:31:48.949Z</time></trkpt><trkpt lat="40.68122" lon="15.2088933"><ele>295.0</ele><time>2026-04-12T09:31:50.949Z</time></trkpt><trkpt lat="40.6812183" lon="15.2089883"><ele>295.0</ele><time>2026-04-12T09:31:51.949Z</time></trkpt><trkpt lat="40.6812217" lon="15.20914"><ele>295.0</ele><time>2026-04-12T09:31:53.949Z</time></trkpt><trkpt lat="40.68125" lon="15.2092683"><ele>295.0</ele><time>2026-04-12T09:31:55.949Z</time></trkpt><trkpt lat="40.681295" lon="15.209385"><ele>295.0</ele><time>2026-04-12T09:31:57.949Z</time></trkpt><trkpt lat="40.6813133" lon="15.2095233"><ele>293.8</ele><time>2026-04-12T09:31:59.949Z</time></trkpt><trkpt lat="40.681375" lon="15.20965"><ele>292.6</ele><time>2026-04-12T09:32:01.949Z</time></trkpt><trkpt lat="40.6814667" lon="15.2097167"><ele>291.4</ele><time>2026-04-12T09:32:03.949Z</time></trkpt><trkpt lat="40.681575" lon="15.209765"><ele>290.2</ele><time>2026-04-12T09:32:05.949Z</time></trkpt><trkpt lat="40.68167" lon="15.20977"><ele>289.0</ele><time>2026-04-12T09:32:07.949Z</time></trkpt><trkpt lat="40.6817683" lon="15.2097533"><ele>289.0</ele><time>2026-04-12T09:32:09.949Z</time></trkpt><trkpt lat="40.681875" lon="15.20979"><ele>289.0</ele><time>2026-04-12T09:32:11.949Z</time></trkpt><trkpt lat="40.6819317" lon="15.2098267"><ele>289.0</ele><time>2026-04-12T09:32:12.949Z</time></trkpt><trkpt lat="40.6819917" lon="15.2098683"><ele>289.0</ele><time>2026-04-12T09:32:13.949Z</time></trkpt><trkpt lat="40.6821017" lon="15.2098867"><ele>289.0</ele><time>2026-04-12T09:32:15.949Z</time></trkpt><trkpt lat="40.6822067" lon="15.2098717"><ele>288.4</ele><time>2026-04-12T09:32:17.949Z</time></trkpt><trkpt lat="40.6823033" lon="15.20991"><ele>287.79999999999995</ele><time>2026-04-12T09:32:19.949Z</time></trkpt><trkpt lat="40.682375" lon="15.2099933"><ele>287.20000000000005</ele><time>2026-04-12T09:32:21.949Z</time></trkpt><trkpt lat="40.6824183" lon="15.2100967"><ele>286.6</ele><time>2026-04-12T09:32:23.949Z</time></trkpt><trkpt lat="40.6824783" lon="15.2102017"><ele>286.0</ele><time>2026-04-12T09:32:26.95Z</time></trkpt><trkpt lat="40.682555" lon="15.2102167"><ele>286.0</ele><time>2026-04-12T09:32:29.949Z</time></trkpt><trkpt lat="40.682645" lon="15.2102117"><ele>286.0</ele><time>2026-04-12T09:32:31.949Z</time></trkpt><trkpt lat="40.6827617" lon="15.2101933"><ele>286.0</ele><time>2026-04-12T09:32:33.949Z</time></trkpt><trkpt lat="40.6828467" lon="15.2102183"><ele>286.0</ele><time>2026-04-12T09:32:35.95Z</time></trkpt><trkpt lat="40.6829083" lon="15.21029"><ele>286.0</ele><time>2026-04-12T09:32:37.949Z</time></trkpt><trkpt lat="40.6829783" lon="15.210395"><ele>287.0</ele><time>2026-04-12T09:32:39.949Z</time></trkpt><trkpt lat="40.6830667" lon="15.2104667"><ele>288.0</ele><time>2026-04-12T09:32:41.949Z</time></trkpt><trkpt lat="40.6831567" lon="15.2105283"><ele>289.0</ele><time>2026-04-12T09:32:43.949Z</time></trkpt><trkpt lat="40.6832467" lon="15.210595"><ele>290.0</ele><time>2026-04-12T09:32:45.949Z</time></trkpt><trkpt lat="40.68334" lon="15.2106567"><ele>291.0</ele><time>2026-04-12T09:32:47.949Z</time></trkpt><trkpt lat="40.68344" lon="15.2107233"><ele>291.0</ele><time>2026-04-12T09:32:49.949Z</time></trkpt><trkpt lat="40.6835017" lon="15.210775"><ele>291.0</ele><time>2026-04-12T09:32:50.949Z</time></trkpt><trkpt lat="40.68356" lon="15.2108433"><ele>291.0</ele><time>2026-04-12T09:32:51.949Z</time></trkpt><trkpt lat="40.6836067" lon="15.2109217"><ele>291.0</ele><time>2026-04-12T09:32:52.949Z</time></trkpt><trkpt lat="40.6836433" lon="15.2110133"><ele>291.0</ele><time>2026-04-12T09:32:53.949Z</time></trkpt><trkpt lat="40.6836817" lon="15.2111017"><ele>291.0</ele><time>2026-04-12T09:32:54.949Z</time></trkpt><trkpt lat="40.6837183" lon="15.21118"><ele>292.8333333333333</ele><time>2026-04-12T09:32:55.949Z</time></trkpt><trkpt lat="40.6837467" lon="15.21126"><ele>294.6666666666667</ele><time>2026-04-12T09:32:56.949Z</time></trkpt><trkpt lat="40.6838233" lon="15.2113833"><ele>296.5</ele><time>2026-04-12T09:32:58.949Z</time></trkpt><trkpt lat="40.68388" lon="15.2114233"><ele>298.33333333333337</ele><time>2026-04-12T09:32:59.949Z</time></trkpt><trkpt lat="40.6839433" lon="15.2114667"><ele>300.1666666666667</ele><time>2026-04-12T09:33:00.949Z</time></trkpt><trkpt lat="40.6840217" lon="15.211515"><ele>302.0</ele><time>2026-04-12T09:33:01.949Z</time></trkpt><trkpt lat="40.6841217" lon="15.211565"><ele>302.0</ele><time>2026-04-12T09:33:02.949Z</time></trkpt><trkpt lat="40.6842367" lon="15.211635"><ele>302.0</ele><time>2026-04-12T09:33:03.949Z</time></trkpt><trkpt lat="40.6843483" lon="15.2117383"><ele>302.0</ele><time>2026-04-12T09:33:04.949Z</time></trkpt><trkpt lat="40.68445" lon="15.2118783"><ele>302.0</ele><time>2026-04-12T09:33:05.949Z</time></trkpt><trkpt lat="40.6845517" lon="15.2120433"><ele>305.25</ele><time>2026-04-12T09:33:06.949Z</time></trkpt><trkpt lat="40.6846733" lon="15.2121817"><ele>308.5</ele><time>2026-04-12T09:33:07.949Z</time></trkpt><trkpt lat="40.68479" lon="15.21229"><ele>311.75</ele><time>2026-04-12T09:33:08.949Z</time></trkpt><trkpt lat="40.684895" lon="15.212415"><ele>315.0</ele><time>2026-04-12T09:33:09.949Z</time></trkpt><trkpt lat="40.6849867" lon="15.21257"><ele>315.0</ele><time>2026-04-12T09:33:10.949Z</time></trkpt><trkpt lat="40.6850833" lon="15.2127583"><ele>315.0</ele><time>2026-04-12T09:33:11.949Z</time></trkpt><trkpt lat="40.6851883" lon="15.212975"><ele>315.0</ele><time>2026-04-12T09:33:12.949Z</time></trkpt><trkpt lat="40.68527" lon="15.2131817"><ele>319.25</ele><time>2026-04-12T09:33:13.949Z</time></trkpt><trkpt lat="40.68533" lon="15.2133617"><ele>323.5</ele><time>2026-04-12T09:33:14.949Z</time></trkpt><trkpt lat="40.6853883" lon="15.2135183"><ele>327.75</ele><time>2026-04-12T09:33:15.949Z</time></trkpt><trkpt lat="40.6854367" lon="15.213645"><ele>332.0</ele><time>2026-04-12T09:33:16.949Z</time></trkpt><trkpt lat="40.6854917" lon="15.21375"><ele>332.0</ele><time>2026-04-12T09:33:17.949Z</time></trkpt><trkpt lat="40.685565" lon="15.21383"><ele>332.0</ele><time>2026-04-12T09:33:18.949Z</time></trkpt><trkpt lat="40.6856583" lon="15.213895"><ele>332.0</ele><time>2026-04-12T09:33:19.949Z</time></trkpt><trkpt lat="40.685775" lon="15.2139317"><ele>332.0</ele><time>2026-04-12T09:33:20.95Z</time></trkpt><trkpt lat="40.6858983" lon="15.2139617"><ele>332.0</ele><time>2026-04-12T09:33:21.949Z</time></trkpt><trkpt lat="40.6860183" lon="15.21399"><ele>334.40000000000003</ele><time>2026-04-12T09:33:22.949Z</time></trkpt><trkpt lat="40.686135" lon="15.2140117"><ele>336.8</ele><time>2026-04-12T09:33:23.949Z</time></trkpt><trkpt lat="40.6862483" lon="15.214035"><ele>339.2</ele><time>2026-04-12T09:33:24.949Z</time></trkpt><trkpt lat="40.68634" lon="15.21406"><ele>341.6</ele><time>2026-04-12T09:33:25.949Z</time></trkpt><trkpt lat="40.686425" lon="15.2140867"><ele>344.0</ele><time>2026-04-12T09:33:27.949Z</time></trkpt><trkpt lat="40.6864817" lon="15.214045"><ele>343.6</ele><time>2026-04-12T09:33:31.949Z</time></trkpt><trkpt lat="40.6864917" lon="15.2139433"><ele>343.2</ele><time>2026-04-12T09:33:34.949Z</time></trkpt><trkpt lat="40.6865117" lon="15.21385"><ele>342.8</ele><time>2026-04-12T09:33:36.949Z</time></trkpt><trkpt lat="40.6865867" lon="15.2137117"><ele>342.40000000000003</ele><time>2026-04-12T09:33:38.949Z</time></trkpt><trkpt lat="40.6866567" lon="15.2136367"><ele>342.0</ele><time>2026-04-12T09:33:39.949Z</time></trkpt><trkpt lat="40.6867517" lon="15.2135617"><ele>342.0</ele><time>2026-04-12T09:33:40.949Z</time></trkpt><trkpt lat="40.6868517" lon="15.2134867"><ele>342.0</ele><time>2026-04-12T09:33:41.949Z</time></trkpt><trkpt lat="40.68694" lon="15.2134233"><ele>342.0</ele><time>2026-04-12T09:33:42.949Z</time></trkpt><trkpt lat="40.6870083" lon="15.213355"><ele>342.0</ele><time>2026-04-12T09:33:43.949Z</time></trkpt><trkpt lat="40.6870633" lon="15.2132883"><ele>342.0</ele><time>2026-04-12T09:33:44.949Z</time></trkpt><trkpt lat="40.68711" lon="15.2132233"><ele>342.0</ele><time>2026-04-12T09:33:45.949Z</time></trkpt><trkpt lat="40.6871467" lon="15.2131517"><ele>342.20000000000005</ele><time>2026-04-12T09:33:46.949Z</time></trkpt><trkpt lat="40.6872017" lon="15.213025"><ele>342.4</ele><time>2026-04-12T09:33:48.949Z</time></trkpt><trkpt lat="40.6872617" lon="15.2129233"><ele>342.6</ele><time>2026-04-12T09:33:50.949Z</time></trkpt><trkpt lat="40.6872983" lon="15.212815"><ele>342.79999999999995</ele><time>2026-04-12T09:33:52.949Z</time></trkpt><trkpt lat="40.6873433" lon="15.2127067"><ele>343.0</ele><time>2026-04-12T09:33:54.949Z</time></trkpt><trkpt lat="40.687385" lon="15.2126433"><ele>343.0</ele><time>2026-04-12T09:33:56.949Z</time></trkpt><trkpt lat="40.6874217" lon="15.212595"><ele>343.0</ele><time>2026-04-12T09:41:47.972Z</time></trkpt><trkpt lat="40.6874767" lon="15.212515"><ele>343.0</ele><time>2026-04-12T09:41:51.972Z</time></trkpt><trkpt lat="40.6875283" lon="15.2124433"><ele>343.0</ele><time>2026-04-12T09:41:54.972Z</time></trkpt><trkpt lat="40.6875833" lon="15.21237"><ele>343.0</ele><time>2026-04-12T09:41:57.972Z</time></trkpt><trkpt lat="40.6876383" lon="15.21229"><ele>343.0</ele><time>2026-04-12T09:42:00.972Z</time></trkpt><trkpt lat="40.6876533" lon="15.2121917"><ele>343.0</ele><time>2026-04-12T09:42:05.972Z</time></trkpt><trkpt lat="40.68766" lon="15.2120867"><ele>343.42857142857144</ele><time>2026-04-12T09:42:08.972Z</time></trkpt><trkpt lat="40.6876633" lon="15.211975"><ele>343.8571428571429</ele><time>2026-04-12T09:42:11.972Z</time></trkpt><trkpt lat="40.6876767" lon="15.2118917"><ele>344.2857142857143</ele><time>2026-04-12T09:42:15.972Z</time></trkpt><trkpt lat="40.6877117" lon="15.2117933"><ele>344.7142857142857</ele><time>2026-04-12T09:42:25.972Z</time></trkpt><trkpt lat="40.68775" lon="15.2117117"><ele>345.14285714285717</ele><time>2026-04-12T09:42:26.972Z</time></trkpt><trkpt lat="40.6877867" lon="15.211635"><ele>345.57142857142856</ele><time>2026-04-12T09:42:27.972Z</time></trkpt><trkpt lat="40.6878167" lon="15.2115533"><ele>346.0</ele><time>2026-04-12T09:42:28.972Z</time></trkpt><trkpt lat="40.6878467" lon="15.2114717"><ele>348.66666666666663</ele><time>2026-04-12T09:42:29.972Z</time></trkpt><trkpt lat="40.6878717" lon="15.2113717"><ele>351.3333333333333</ele><time>2026-04-12T09:42:30.972Z</time></trkpt><trkpt lat="40.6878883" lon="15.2112783"><ele>354.0</ele><time>2026-04-12T09:42:31.972Z</time></trkpt><trkpt lat="40.6878983" lon="15.2111733"><ele>356.6666666666667</ele><time>2026-04-12T09:42:32.972Z</time></trkpt><trkpt lat="40.68791" lon="15.2110633"><ele>359.33333333333337</ele><time>2026-04-12T09:42:33.972Z</time></trkpt><trkpt lat="40.6879183" lon="15.2109367"><ele>362.0</ele><time>2026-04-12T09:42:34.972Z</time></trkpt><trkpt lat="40.6879283" lon="15.2108017"><ele>362.0</ele><time>2026-04-12T09:42:35.972Z</time></trkpt><trkpt lat="40.6879467" lon="15.2106717"><ele>362.0</ele><time>2026-04-12T09:42:36.972Z</time></trkpt><trkpt lat="40.6879717" lon="15.21054"><ele>362.0</ele><time>2026-04-12T09:42:37.972Z</time></trkpt><trkpt lat="40.688025" lon="15.210415"><ele>362.0</ele><time>2026-04-12T09:42:38.972Z</time></trkpt><trkpt lat="40.68809" lon="15.2103"><ele>362.0</ele><time>2026-04-12T09:42:39.972Z</time></trkpt><trkpt lat="40.68815" lon="15.2101933"><ele>363.20000000000005</ele><time>2026-04-12T09:42:40.972Z</time></trkpt><trkpt lat="40.6882033" lon="15.2100917"><ele>364.4</ele><time>2026-04-12T09:42:41.972Z</time></trkpt><trkpt lat="40.6882583" lon="15.2099967"><ele>365.6</ele><time>2026-04-12T09:42:42.972Z</time></trkpt><trkpt lat="40.688315" lon="15.2098983"><ele>366.79999999999995</ele><time>2026-04-12T09:42:43.973Z</time></trkpt><trkpt lat="40.68837" lon="15.2097983"><ele>368.0</ele><time>2026-04-12T09:42:44.972Z</time></trkpt><trkpt lat="40.688415" lon="15.2096983"><ele>370.0</ele><time>2026-04-12T09:42:45.972Z</time></trkpt><trkpt lat="40.688455" lon="15.2095867"><ele>372.0</ele><time>2026-04-12T09:42:46.972Z</time></trkpt><trkpt lat="40.6884817" lon="15.209465"><ele>374.0</ele><time>2026-04-12T09:42:47.972Z</time></trkpt><trkpt lat="40.6885067" lon="15.209345"><ele>376.0</ele><time>2026-04-12T09:42:48.972Z</time></trkpt><trkpt lat="40.688555" lon="15.2092367"><ele>378.0</ele><time>2026-04-12T09:42:49.972Z</time></trkpt><trkpt lat="40.6886217" lon="15.2091383"><ele>378.59999999999997</ele><time>2026-04-12T09:42:50.972Z</time></trkpt><trkpt lat="40.6887067" lon="15.2090683"><ele>379.2</ele><time>2026-04-12T09:42:51.973Z</time></trkpt><trkpt lat="40.6888017" lon="15.2090167"><ele>379.8</ele><time>2026-04-12T09:42:52.973Z</time></trkpt><trkpt lat="40.6888967" lon="15.2089717"><ele>380.4</ele><time>2026-04-12T09:42:53.972Z</time></trkpt><trkpt lat="40.68898" lon="15.2089167"><ele>381.0</ele><time>2026-04-12T09:42:54.973Z</time></trkpt><trkpt lat="40.6890617" lon="15.2088583"><ele>382.20000000000005</ele><time>2026-04-12T09:42:55.972Z</time></trkpt><trkpt lat="40.689145" lon="15.2087883"><ele>383.40000000000003</ele><time>2026-04-12T09:42:56.972Z</time></trkpt><trkpt lat="40.68922" lon="15.2087017"><ele>384.6</ele><time>2026-04-12T09:42:57.972Z</time></trkpt><trkpt lat="40.6892983" lon="15.208595"><ele>385.8</ele><time>2026-04-12T09:42:58.972Z</time></trkpt><trkpt lat="40.6893883" lon="15.2084883"><ele>387.0</ele><time>2026-04-12T09:42:59.972Z</time></trkpt><trkpt lat="40.68948" lon="15.2083833"><ele>387.0</ele><time>2026-04-12T09:43:00.972Z</time></trkpt><trkpt lat="40.6895683" lon="15.20828"><ele>387.0</ele><time>2026-04-12T09:43:01.972Z</time></trkpt><trkpt lat="40.6896483" lon="15.2081817"><ele>387.0</ele><time>2026-04-12T09:43:02.972Z</time></trkpt><trkpt lat="40.6897217" lon="15.208085"><ele>387.0</ele><time>2026-04-12T09:43:03.972Z</time></trkpt><trkpt lat="40.6898" lon="15.208005"><ele>387.0</ele><time>2026-04-12T09:43:04.973Z</time></trkpt><trkpt lat="40.6898933" lon="15.207935"><ele>386.1666666666667</ele><time>2026-04-12T09:43:05.972Z</time></trkpt><trkpt lat="40.6899733" lon="15.2078933"><ele>385.3333333333333</ele><time>2026-04-12T09:43:06.972Z</time></trkpt><trkpt lat="40.6900767" lon="15.207865"><ele>384.5</ele><time>2026-04-12T09:43:08.972Z</time></trkpt><trkpt lat="40.6901733" lon="15.2079017"><ele>383.66666666666663</ele><time>2026-04-12T09:43:10.972Z</time></trkpt><trkpt lat="40.690235" lon="15.2079383"><ele>382.8333333333333</ele><time>2026-04-12T09:43:11.973Z</time></trkpt><trkpt lat="40.6903083" lon="15.2079617"><ele>382.0</ele><time>2026-04-12T09:43:12.972Z</time></trkpt><trkpt lat="40.6903833" lon="15.20796"><ele>382.0</ele><time>2026-04-12T09:43:13.972Z</time></trkpt><trkpt lat="40.6904583" lon="15.20793"><ele>382.0</ele><time>2026-04-12T09:43:14.972Z</time></trkpt><trkpt lat="40.6905383" lon="15.207875"><ele>382.0</ele><time>2026-04-12T09:43:15.973Z</time></trkpt><trkpt lat="40.6906267" lon="15.2078017"><ele>382.0</ele><time>2026-04-12T09:43:16.972Z</time></trkpt><trkpt lat="40.6907183" lon="15.2077317"><ele>382.0</ele><time>2026-04-12T09:43:17.972Z</time></trkpt><trkpt lat="40.6908" lon="15.2076667"><ele>382.0</ele><time>2026-04-12T09:43:18.972Z</time></trkpt><trkpt lat="40.6908733" lon="15.2075833"><ele>382.0</ele><time>2026-04-12T09:43:19.972Z</time></trkpt><trkpt lat="40.6909317" lon="15.2074867"><ele>382.0</ele><time>2026-04-12T09:43:20.972Z</time></trkpt><trkpt lat="40.6909617" lon="15.2073683"><ele>382.0</ele><time>2026-04-12T09:43:21.972Z</time></trkpt><trkpt lat="40.6909767" lon="15.2072367"><ele>382.0</ele><time>2026-04-12T09:43:22.972Z</time></trkpt><trkpt lat="40.6909917" lon="15.2070983"><ele>382.0</ele><time>2026-04-12T09:43:23.972Z</time></trkpt><trkpt lat="40.691" lon="15.2069567"><ele>382.0</ele><time>2026-04-12T09:43:24.972Z</time></trkpt><trkpt lat="40.6910083" lon="15.2068117"><ele>382.0</ele><time>2026-04-12T09:43:25.972Z</time></trkpt><trkpt lat="40.6910167" lon="15.2066783"><ele>382.0</ele><time>2026-04-12T09:43:26.972Z</time></trkpt><trkpt lat="40.6910433" lon="15.206555"><ele>382.0</ele><time>2026-04-12T09:43:27.972Z</time></trkpt><trkpt lat="40.6910883" lon="15.2064467"><ele>380.0</ele><time>2026-04-12T09:43:28.972Z</time></trkpt><trkpt lat="40.6911533" lon="15.206355"><ele>378.0</ele><time>2026-04-12T09:43:29.972Z</time></trkpt><trkpt lat="40.6912317" lon="15.20627"><ele>376.0</ele><time>2026-04-12T09:43:30.972Z</time></trkpt><trkpt lat="40.6913133" lon="15.206195"><ele>374.0</ele><time>2026-04-12T09:43:31.972Z</time></trkpt><trkpt lat="40.691395" lon="15.206125"><ele>372.0</ele><time>2026-04-12T09:43:32.972Z</time></trkpt><trkpt lat="40.6914717" lon="15.2060567"><ele>372.0</ele><time>2026-04-12T09:43:33.972Z</time></trkpt><trkpt lat="40.6915433" lon="15.20598"><ele>372.0</ele><time>2026-04-12T09:43:34.972Z</time></trkpt><trkpt lat="40.6916083" lon="15.20589"><ele>372.0</ele><time>2026-04-12T09:43:35.972Z</time></trkpt><trkpt lat="40.6916667" lon="15.2058"><ele>372.0</ele><time>2026-04-12T09:43:36.973Z</time></trkpt><trkpt lat="40.691735" lon="15.205725"><ele>372.0</ele><time>2026-04-12T09:43:37.972Z</time></trkpt><trkpt lat="40.6918067" lon="15.2056817"><ele>372.0</ele><time>2026-04-12T09:43:38.972Z</time></trkpt><trkpt lat="40.691885" lon="15.20566"><ele>371.5</ele><time>2026-04-12T09:43:39.972Z</time></trkpt><trkpt lat="40.69196" lon="15.2056317"><ele>371.0</ele><time>2026-04-12T09:43:40.972Z</time></trkpt><trkpt lat="40.6920367" lon="15.2055783"><ele>370.5</ele><time>2026-04-12T09:43:41.973Z</time></trkpt><trkpt lat="40.6921067" lon="15.205505"><ele>370.0</ele><time>2026-04-12T09:43:42.972Z</time></trkpt><trkpt lat="40.69216" lon="15.2054217"><ele>369.5</ele><time>2026-04-12T09:43:43.972Z</time></trkpt><trkpt lat="40.6921967" lon="15.205325"><ele>369.0</ele><time>2026-04-12T09:43:44.972Z</time></trkpt><trkpt lat="40.6922217" lon="15.2052117"><ele>369.0</ele><time>2026-04-12T09:43:45.972Z</time></trkpt><trkpt lat="40.692245" lon="15.2050933"><ele>369.0</ele><time>2026-04-12T09:43:46.972Z</time></trkpt><trkpt lat="40.69227" lon="15.2049833"><ele>369.0</ele><time>2026-04-12T09:43:47.972Z</time></trkpt><trkpt lat="40.692295" lon="15.2048833"><ele>369.0</ele><time>2026-04-12T09:43:48.972Z</time></trkpt><trkpt lat="40.6923283" lon="15.2048017"><ele>369.0</ele><time>2026-04-12T09:43:49.972Z</time></trkpt><trkpt lat="40.6923733" lon="15.2047367"><ele>369.0</ele><time>2026-04-12T09:43:50.972Z</time></trkpt><trkpt lat="40.6924367" lon="15.2046783"><ele>370.6</ele><time>2026-04-12T09:43:51.972Z</time></trkpt><trkpt lat="40.6925167" lon="15.20463"><ele>372.2</ele><time>2026-04-12T09:43:52.972Z</time></trkpt><trkpt lat="40.692605" lon="15.204595"><ele>373.8</ele><time>2026-04-12T09:43:53.972Z</time></trkpt><trkpt lat="40.6926967" lon="15.2045783"><ele>375.40000000000003</ele><time>2026-04-12T09:43:54.972Z</time></trkpt><trkpt lat="40.6927983" lon="15.2045917"><ele>377.0</ele><time>2026-04-12T09:43:55.973Z</time></trkpt><trkpt lat="40.6928983" lon="15.2046183"><ele>377.6</ele><time>2026-04-12T09:43:56.972Z</time></trkpt><trkpt lat="40.6929967" lon="15.20465"><ele>378.20000000000005</ele><time>2026-04-12T09:43:57.972Z</time></trkpt><trkpt lat="40.6930967" lon="15.2046883"><ele>378.8</ele><time>2026-04-12T09:43:58.972Z</time></trkpt><trkpt lat="40.6931967" lon="15.2047333"><ele>379.4</ele><time>2026-04-12T09:43:59.972Z</time></trkpt><trkpt lat="40.6932867" lon="15.2047733"><ele>380.0</ele><time>2026-04-12T09:44:00.973Z</time></trkpt><trkpt lat="40.69338" lon="15.20481"><ele>380.0</ele><time>2026-04-12T09:44:01.973Z</time></trkpt><trkpt lat="40.6934733" lon="15.204825"><ele>380.0</ele><time>2026-04-12T09:44:02.972Z</time></trkpt><trkpt lat="40.6935633" lon="15.2048117"><ele>380.0</ele><time>2026-04-12T09:44:03.972Z</time></trkpt><trkpt lat="40.6936517" lon="15.204765"><ele>380.0</ele><time>2026-04-12T09:44:04.972Z</time></trkpt><trkpt lat="40.69374" lon="15.2046967"><ele>380.0</ele><time>2026-04-12T09:44:05.973Z</time></trkpt><trkpt lat="40.69383" lon="15.2046233"><ele>380.2</ele><time>2026-04-12T09:44:06.972Z</time></trkpt><trkpt lat="40.6939267" lon="15.2045583"><ele>380.4</ele><time>2026-04-12T09:44:07.972Z</time></trkpt><trkpt lat="40.6940217" lon="15.2044867"><ele>380.6</ele><time>2026-04-12T09:44:08.972Z</time></trkpt><trkpt lat="40.694105" lon="15.2043933"><ele>380.8</ele><time>2026-04-12T09:44:09.972Z</time></trkpt><trkpt lat="40.69418" lon="15.20429"><ele>381.0</ele><time>2026-04-12T09:44:10.972Z</time></trkpt><trkpt lat="40.6942467" lon="15.2041817"><ele>381.0</ele><time>2026-04-12T09:44:11.972Z</time></trkpt><trkpt lat="40.69431" lon="15.204075"><ele>381.0</ele><time>2026-04-12T09:44:12.972Z</time></trkpt><trkpt lat="40.694375" lon="15.20399"><ele>381.0</ele><time>2026-04-12T09:44:13.972Z</time></trkpt><trkpt lat="40.694455" lon="15.2039267"><ele>381.0</ele><time>2026-04-12T09:44:14.972Z</time></trkpt><trkpt lat="40.6945383" lon="15.2038883"><ele>381.0</ele><time>2026-04-12T09:44:15.973Z</time></trkpt><trkpt lat="40.694615" lon="15.2038683"><ele>383.1666666666667</ele><time>2026-04-12T09:44:16.972Z</time></trkpt><trkpt lat="40.6947" lon="15.2038483"><ele>385.33333333333337</ele><time>2026-04-12T09:44:17.972Z</time></trkpt><trkpt lat="40.6947867" lon="15.20384"><ele>387.5</ele><time>2026-04-12T09:44:18.972Z</time></trkpt><trkpt lat="40.6948767" lon="15.20384"><ele>389.6666666666667</ele><time>2026-04-12T09:44:19.972Z</time></trkpt><trkpt lat="40.69497" lon="15.20385"><ele>391.83333333333337</ele><time>2026-04-12T09:44:20.972Z</time></trkpt><trkpt lat="40.6950583" lon="15.2038783"><ele>394.0</ele><time>2026-04-12T09:44:21.972Z</time></trkpt><trkpt lat="40.6951517" lon="15.2039217"><ele>394.0</ele><time>2026-04-12T09:44:22.972Z</time></trkpt><trkpt lat="40.69525" lon="15.2039633"><ele>394.0</ele><time>2026-04-12T09:44:23.972Z</time></trkpt><trkpt lat="40.6953533" lon="15.204"><ele>394.0</ele><time>2026-04-12T09:44:24.972Z</time></trkpt><trkpt lat="40.6954583" lon="15.2040383"><ele>394.0</ele><time>2026-04-12T09:44:25.972Z</time></trkpt><trkpt lat="40.6955583" lon="15.2040733"><ele>394.0</ele><time>2026-04-12T09:44:26.972Z</time></trkpt><trkpt lat="40.6956433" lon="15.204105"><ele>393.33333333333337</ele><time>2026-04-12T09:44:27.972Z</time></trkpt><trkpt lat="40.69571" lon="15.2041267"><ele>392.6666666666667</ele><time>2026-04-12T09:44:28.972Z</time></trkpt><trkpt lat="40.6958117" lon="15.2041517"><ele>392.0</ele><time>2026-04-12T09:44:30.972Z</time></trkpt><trkpt lat="40.6958667" lon="15.2042017"><ele>391.33333333333337</ele><time>2026-04-12T09:44:33.972Z</time></trkpt><trkpt lat="40.695875" lon="15.2042867"><ele>390.6666666666667</ele><time>2026-04-12T09:44:36.972Z</time></trkpt><trkpt lat="40.6958083" lon="15.2044017"><ele>390.0</ele><time>2026-04-12T09:44:48.972Z</time></trkpt><trkpt lat="40.6957433" lon="15.20449"><ele>390.0</ele><time>2026-04-12T09:44:50.972Z</time></trkpt><trkpt lat="40.6956667" lon="15.2046167"><ele>390.0</ele><time>2026-04-12T09:44:52.972Z</time></trkpt><trkpt lat="40.6956283" lon="15.2047"><ele>390.0</ele><time>2026-04-12T09:44:53.973Z</time></trkpt><trkpt lat="40.6955983" lon="15.2047783"><ele>390.0</ele><time>2026-04-12T09:44:54.972Z</time></trkpt><trkpt lat="40.69557" lon="15.2048667"><ele>390.0</ele><time>2026-04-12T09:44:55.972Z</time></trkpt><trkpt lat="40.6955483" lon="15.204965"><ele>390.0</ele><time>2026-04-12T09:44:56.972Z</time></trkpt><trkpt lat="40.6955483" lon="15.20507"><ele>388.0</ele><time>2026-04-12T09:44:57.972Z</time></trkpt><trkpt lat="40.6955633" lon="15.2051833"><ele>386.0</ele><time>2026-04-12T09:44:58.972Z</time></trkpt><trkpt lat="40.6955867" lon="15.2053083"><ele>384.0</ele><time>2026-04-12T09:44:59.972Z</time></trkpt><trkpt lat="40.695615" lon="15.2054367"><ele>382.0</ele><time>2026-04-12T09:45:00.973Z</time></trkpt><trkpt lat="40.6956483" lon="15.20556"><ele>380.0</ele><time>2026-04-12T09:45:01.972Z</time></trkpt><trkpt lat="40.6956967" lon="15.2056683"><ele>378.2</ele><time>2026-04-12T09:45:02.972Z</time></trkpt><trkpt lat="40.6957667" lon="15.20576"><ele>376.4</ele><time>2026-04-12T09:45:03.972Z</time></trkpt><trkpt lat="40.6958483" lon="15.2058317"><ele>374.6</ele><time>2026-04-12T09:45:04.972Z</time></trkpt><trkpt lat="40.69594" lon="15.205895"><ele>372.8</ele><time>2026-04-12T09:45:05.972Z</time></trkpt><trkpt lat="40.69604" lon="15.2059267"><ele>371.0</ele><time>2026-04-12T09:45:06.972Z</time></trkpt><trkpt lat="40.6961433" lon="15.20595"><ele>371.0</ele><time>2026-04-12T09:45:07.971Z</time></trkpt><trkpt lat="40.6962433" lon="15.2059583"><ele>371.0</ele><time>2026-04-12T09:45:08.971Z</time></trkpt><trkpt lat="40.69635" lon="15.2059783"><ele>371.0</ele><time>2026-04-12T09:45:09.971Z</time></trkpt><trkpt lat="40.6964517" lon="15.2059983"><ele>371.0</ele><time>2026-04-12T09:45:10.971Z</time></trkpt><trkpt lat="40.69655" lon="15.20602"><ele>371.0</ele><time>2026-04-12T09:45:11.971Z</time></trkpt><trkpt lat="40.696645" lon="15.20605"><ele>371.0</ele><time>2026-04-12T09:45:12.971Z</time></trkpt><trkpt lat="40.6967433" lon="15.2060817"><ele>371.0</ele><time>2026-04-12T09:45:13.971Z</time></trkpt><trkpt lat="40.6968433" lon="15.2061117"><ele>371.0</ele><time>2026-04-12T09:45:14.971Z</time></trkpt><trkpt lat="40.69694" lon="15.20615"><ele>371.0</ele><time>2026-04-12T09:45:15.972Z</time></trkpt><trkpt lat="40.6970283" lon="15.2062067"><ele>371.0</ele><time>2026-04-12T09:45:16.971Z</time></trkpt><trkpt lat="40.6971083" lon="15.206275"><ele>370.33333333333337</ele><time>2026-04-12T09:45:17.971Z</time></trkpt><trkpt lat="40.69719" lon="15.20635"><ele>369.6666666666667</ele><time>2026-04-12T09:45:18.972Z</time></trkpt><trkpt lat="40.69727" lon="15.2064167"><ele>369.0</ele><time>2026-04-12T09:45:19.971Z</time></trkpt><trkpt lat="40.697345" lon="15.2064833"><ele>368.3333333333333</ele><time>2026-04-12T09:45:20.971Z</time></trkpt><trkpt lat="40.69741" lon="15.20655"><ele>367.66666666666663</ele><time>2026-04-12T09:45:21.971Z</time></trkpt><trkpt lat="40.6974717" lon="15.20661"><ele>367.0</ele><time>2026-04-12T09:45:22.971Z</time></trkpt><trkpt lat="40.69753" lon="15.206675"><ele>367.0</ele><time>2026-04-12T09:45:23.971Z</time></trkpt><trkpt lat="40.69759" lon="15.2067367"><ele>367.0</ele><time>2026-04-12T09:45:24.971Z</time></trkpt><trkpt lat="40.69765" lon="15.2067967"><ele>367.0</ele><time>2026-04-12T09:45:25.971Z</time></trkpt><trkpt lat="40.6977133" lon="15.2068533"><ele>367.0</ele><time>2026-04-12T09:45:26.972Z</time></trkpt><trkpt lat="40.69778" lon="15.2069033"><ele>367.0</ele><time>2026-04-12T09:45:27.971Z</time></trkpt><trkpt lat="40.69785" lon="15.2069233"><ele>367.0</ele><time>2026-04-12T09:45:28.971Z</time></trkpt><trkpt lat="40.6979233" lon="15.20693"><ele>368.20000000000005</ele><time>2026-04-12T09:45:29.971Z</time></trkpt><trkpt lat="40.6980017" lon="15.206905"><ele>369.4</ele><time>2026-04-12T09:45:30.972Z</time></trkpt><trkpt lat="40.6980833" lon="15.2068717"><ele>370.6</ele><time>2026-04-12T09:45:31.971Z</time></trkpt><trkpt lat="40.698175" lon="15.2068283"><ele>371.79999999999995</ele><time>2026-04-12T09:45:32.971Z</time></trkpt><trkpt lat="40.69827" lon="15.206785"><ele>373.0</ele><time>2026-04-12T09:45:33.971Z</time></trkpt><trkpt lat="40.6983683" lon="15.2067417"><ele>373.0</ele><time>2026-04-12T09:45:34.971Z</time></trkpt><trkpt lat="40.698465" lon="15.2066967"><ele>373.0</ele><time>2026-04-12T09:45:35.971Z</time></trkpt><trkpt lat="40.6985517" lon="15.2066517"><ele>373.0</ele><time>2026-04-12T09:45:36.971Z</time></trkpt><trkpt lat="40.6986367" lon="15.2066"><ele>373.0</ele><time>2026-04-12T09:45:37.971Z</time></trkpt><trkpt lat="40.6987183" lon="15.2065383"><ele>373.0</ele><time>2026-04-12T09:45:38.971Z</time></trkpt><trkpt lat="40.698795" lon="15.2064717"><ele>375.4</ele><time>2026-04-12T09:45:39.971Z</time></trkpt><trkpt lat="40.6988683" lon="15.2063983"><ele>377.79999999999995</ele><time>2026-04-12T09:45:40.971Z</time></trkpt><trkpt lat="40.69894" lon="15.2063217"><ele>380.2</ele><time>2026-04-12T09:45:41.971Z</time></trkpt><trkpt lat="40.6990117" lon="15.2062367"><ele>382.6</ele><time>2026-04-12T09:45:42.972Z</time></trkpt><trkpt lat="40.6990867" lon="15.20615"><ele>385.0</ele><time>2026-04-12T09:45:43.971Z</time></trkpt><trkpt lat="40.6991683" lon="15.206065"><ele>385.0</ele><time>2026-04-12T09:45:44.971Z</time></trkpt><trkpt lat="40.6992533" lon="15.20599"><ele>385.0</ele><time>2026-04-12T09:45:45.971Z</time></trkpt><trkpt lat="40.69934" lon="15.20592"><ele>385.0</ele><time>2026-04-12T09:45:46.971Z</time></trkpt><trkpt lat="40.699425" lon="15.20585"><ele>385.0</ele><time>2026-04-12T09:45:47.971Z</time></trkpt><trkpt lat="40.6995067" lon="15.2057867"><ele>385.0</ele><time>2026-04-12T09:45:48.971Z</time></trkpt><trkpt lat="40.6995867" lon="15.2057083"><ele>386.2</ele><time>2026-04-12T09:45:49.971Z</time></trkpt><trkpt lat="40.6996633" lon="15.205625"><ele>387.4</ele><time>2026-04-12T09:45:50.971Z</time></trkpt><trkpt lat="40.6997367" lon="15.2055317"><ele>388.6</ele><time>2026-04-12T09:45:51.971Z</time></trkpt><trkpt lat="40.6998083" lon="15.2054283"><ele>389.8</ele><time>2026-04-12T09:45:52.971Z</time></trkpt><trkpt lat="40.6998883" lon="15.2053283"><ele>391.0</ele><time>2026-04-12T09:45:53.971Z</time></trkpt><trkpt lat="40.6999717" lon="15.2052317"><ele>391.0</ele><time>2026-04-12T09:45:54.971Z</time></trkpt><trkpt lat="40.7000583" lon="15.2051367"><ele>391.0</ele><time>2026-04-12T09:45:55.971Z</time></trkpt><trkpt lat="40.7001417" lon="15.20505"><ele>391.0</ele><time>2026-04-12T09:45:56.971Z</time></trkpt><trkpt lat="40.700235" lon="15.20497"><ele>391.0</ele><time>2026-04-12T09:45:57.971Z</time></trkpt><trkpt lat="40.70032" lon="15.204905"><ele>391.0</ele><time>2026-04-12T09:45:58.971Z</time></trkpt><trkpt lat="40.7004033" lon="15.2048483"><ele>392.4</ele><time>2026-04-12T09:45:59.971Z</time></trkpt><trkpt lat="40.7004967" lon="15.2048067"><ele>393.8</ele><time>2026-04-12T09:46:00.971Z</time></trkpt><trkpt lat="40.7005933" lon="15.2047717"><ele>395.2</ele><time>2026-04-12T09:46:01.971Z</time></trkpt><trkpt lat="40.7006933" lon="15.2047317"><ele>396.59999999999997</ele><time>2026-04-12T09:46:02.971Z</time></trkpt><trkpt lat="40.70079" lon="15.2046933"><ele>398.0</ele><time>2026-04-12T09:46:03.971Z</time></trkpt><trkpt lat="40.7008917" lon="15.2046517"><ele>398.0</ele><time>2026-04-12T09:46:04.971Z</time></trkpt><trkpt lat="40.7009867" lon="15.2046117"><ele>398.0</ele><time>2026-04-12T09:46:05.971Z</time></trkpt><trkpt lat="40.70108" lon="15.2045717"><ele>398.0</ele><time>2026-04-12T09:46:06.971Z</time></trkpt><trkpt lat="40.7011683" lon="15.2045283"><ele>398.0</ele><time>2026-04-12T09:46:07.971Z</time></trkpt><trkpt lat="40.70126" lon="15.204475"><ele>398.0</ele><time>2026-04-12T09:46:08.971Z</time></trkpt><trkpt lat="40.7013517" lon="15.2044383"><ele>399.0</ele><time>2026-04-12T09:46:09.971Z</time></trkpt><trkpt lat="40.70145" lon="15.2044217"><ele>400.0</ele><time>2026-04-12T09:46:10.971Z</time></trkpt><trkpt lat="40.701545" lon="15.2044"><ele>401.0</ele><time>2026-04-12T09:46:11.971Z</time></trkpt><trkpt lat="40.701635" lon="15.2043683"><ele>402.0</ele><time>2026-04-12T09:46:12.971Z</time></trkpt><trkpt lat="40.7017183" lon="15.2043217"><ele>403.0</ele><time>2026-04-12T09:46:13.971Z</time></trkpt><trkpt lat="40.7017967" lon="15.20427"><ele>403.0</ele><time>2026-04-12T09:46:14.971Z</time></trkpt><trkpt lat="40.7018783" lon="15.20423"><ele>403.0</ele><time>2026-04-12T09:46:15.971Z</time></trkpt><trkpt lat="40.70197" lon="15.2041967"><ele>403.0</ele><time>2026-04-12T09:46:16.971Z</time></trkpt><trkpt lat="40.7020683" lon="15.2041667"><ele>403.0</ele><time>2026-04-12T09:46:17.971Z</time></trkpt><trkpt lat="40.7021717" lon="15.2041483"><ele>403.0</ele><time>2026-04-12T09:46:18.971Z</time></trkpt><trkpt lat="40.70227" lon="15.2041417"><ele>403.33333333333337</ele><time>2026-04-12T09:46:19.971Z</time></trkpt><trkpt lat="40.7023567" lon="15.2041483"><ele>403.6666666666667</ele><time>2026-04-12T09:46:20.971Z</time></trkpt><trkpt lat="40.70244" lon="15.2041567"><ele>404.0</ele><time>2026-04-12T09:46:21.971Z</time></trkpt><trkpt lat="40.7025233" lon="15.204155"><ele>404.33333333333337</ele><time>2026-04-12T09:46:22.971Z</time></trkpt><trkpt lat="40.702595" lon="15.20415"><ele>404.6666666666667</ele><time>2026-04-12T09:46:23.971Z</time></trkpt><trkpt lat="40.7026867" lon="15.204125"><ele>405.0</ele><time>2026-04-12T09:46:25.971Z</time></trkpt><trkpt lat="40.702745" lon="15.2040483"><ele>407.0</ele><time>2026-04-12T09:46:29.971Z</time></trkpt><trkpt lat="40.7027283" lon="15.2039367"><ele>409.0</ele><time>2026-04-12T09:46:31.971Z</time></trkpt><trkpt lat="40.702675" lon="15.20377"><ele>411.0</ele><time>2026-04-12T09:46:33.971Z</time></trkpt><trkpt lat="40.7026517" lon="15.2036717"><ele>413.0</ele><time>2026-04-12T09:46:34.971Z</time></trkpt><trkpt lat="40.7026333" lon="15.203575"><ele>415.0</ele><time>2026-04-12T09:46:35.971Z</time></trkpt><trkpt lat="40.70261" lon="15.2034633"><ele>415.0</ele><time>2026-04-12T09:46:36.971Z</time></trkpt><trkpt lat="40.70259" lon="15.203345"><ele>415.0</ele><time>2026-04-12T09:46:37.971Z</time></trkpt><trkpt lat="40.70257" lon="15.2032167"><ele>415.0</ele><time>2026-04-12T09:46:38.971Z</time></trkpt><trkpt lat="40.7025467" lon="15.2030933"><ele>415.0</ele><time>2026-04-12T09:46:39.971Z</time></trkpt><trkpt lat="40.7025217" lon="15.2029633"><ele>415.0</ele><time>2026-04-12T09:46:40.971Z</time></trkpt><trkpt lat="40.7024967" lon="15.2028283"><ele>417.2</ele><time>2026-04-12T09:46:41.971Z</time></trkpt><trkpt lat="40.7024767" lon="15.2026933"><ele>419.4</ele><time>2026-04-12T09:46:42.971Z</time></trkpt><trkpt lat="40.7024517" lon="15.2025617"><ele>421.6</ele><time>2026-04-12T09:46:43.971Z</time></trkpt><trkpt lat="40.70243" lon="15.2024333"><ele>423.8</ele><time>2026-04-12T09:46:44.971Z</time></trkpt><trkpt lat="40.7024167" lon="15.2023083"><ele>426.0</ele><time>2026-04-12T09:46:45.972Z</time></trkpt><trkpt lat="40.702425" lon="15.2022"><ele>426.6</ele><time>2026-04-12T09:46:46.971Z</time></trkpt><trkpt lat="40.702455" lon="15.202125"><ele>427.20000000000005</ele><time>2026-04-12T09:46:47.971Z</time></trkpt><trkpt lat="40.7025567" lon="15.2020317"><ele>427.79999999999995</ele><time>2026-04-12T09:46:49.971Z</time></trkpt><trkpt lat="40.70261" lon="15.2019833"><ele>428.4</ele><time>2026-04-12T09:46:50.971Z</time></trkpt><trkpt lat="40.7027017" lon="15.2019017"><ele>429.0</ele><time>2026-04-12T09:46:52.971Z</time></trkpt><trkpt lat="40.7027883" lon="15.20182"><ele>429.0</ele><time>2026-04-12T09:46:54.971Z</time></trkpt><trkpt lat="40.7029067" lon="15.201735"><ele>429.0</ele><time>2026-04-12T09:46:56.971Z</time></trkpt><trkpt lat="40.7029883" lon="15.2016783"><ele>429.0</ele><time>2026-04-12T09:46:57.971Z</time></trkpt><trkpt lat="40.7030767" lon="15.2016183"><ele>429.0</ele><time>2026-04-12T09:46:58.971Z</time></trkpt><trkpt lat="40.7031683" lon="15.201555"><ele>429.0</ele><time>2026-04-12T09:46:59.971Z</time></trkpt><trkpt lat="40.7032667" lon="15.2015033"><ele>431.0</ele><time>2026-04-12T09:47:00.971Z</time></trkpt><trkpt lat="40.7033717" lon="15.2014733"><ele>433.0</ele><time>2026-04-12T09:47:01.971Z</time></trkpt><trkpt lat="40.7034783" lon="15.2014667"><ele>435.0</ele><time>2026-04-12T09:47:02.971Z</time></trkpt><trkpt lat="40.7035833" lon="15.20146"><ele>437.0</ele><time>2026-04-12T09:47:03.972Z</time></trkpt><trkpt lat="40.70368" lon="15.2014517"><ele>439.0</ele><time>2026-04-12T09:47:04.971Z</time></trkpt><trkpt lat="40.7037633" lon="15.20144"><ele>439.0</ele><time>2026-04-12T09:47:05.971Z</time></trkpt><trkpt lat="40.703835" lon="15.20143"><ele>439.0</ele><time>2026-04-12T09:47:06.971Z</time></trkpt><trkpt lat="40.7039017" lon="15.2014167"><ele>439.0</ele><time>2026-04-12T09:47:07.971Z</time></trkpt><trkpt lat="40.704015" lon="15.2014067"><ele>439.0</ele><time>2026-04-12T09:47:09.971Z</time></trkpt><trkpt lat="40.7041233" lon="15.2013983"><ele>439.0</ele><time>2026-04-12T09:47:11.971Z</time></trkpt><trkpt lat="40.7042267" lon="15.20133"><ele>439.00000000000006</ele><time>2026-04-12T09:47:13.971Z</time></trkpt><trkpt lat="40.7043333" lon="15.201235"><ele>439.0</ele><time>2026-04-12T09:47:15.971Z</time></trkpt><trkpt lat="40.7043933" lon="15.2011867"><ele>439.0</ele><time>2026-04-12T09:47:16.971Z</time></trkpt><trkpt lat="40.7044517" lon="15.2011333"><ele>439.0</ele><time>2026-04-12T09:47:17.971Z</time></trkpt><trkpt lat="40.7045133" lon="15.2010817"><ele>439.00000000000006</ele><time>2026-04-12T09:47:18.971Z</time></trkpt><trkpt lat="40.7045733" lon="15.2010433"><ele>439.0</ele><time>2026-04-12T09:47:19.971Z</time></trkpt><trkpt lat="40.7046367" lon="15.20101"><ele>437.6666666666667</ele><time>2026-04-12T09:47:20.971Z</time></trkpt><trkpt lat="40.7047033" lon="15.2009733"><ele>436.33333333333337</ele><time>2026-04-12T09:47:21.971Z</time></trkpt><trkpt lat="40.7047733" lon="15.2009367"><ele>435.0</ele><time>2026-04-12T09:47:22.971Z</time></trkpt><trkpt lat="40.7048433" lon="15.2008967"><ele>433.66666666666663</ele><time>2026-04-12T09:47:23.972Z</time></trkpt><trkpt lat="40.704915" lon="15.2008567"><ele>432.3333333333333</ele><time>2026-04-12T09:47:24.971Z</time></trkpt><trkpt lat="40.704985" lon="15.2008183"><ele>431.0</ele><time>2026-04-12T09:47:25.971Z</time></trkpt><trkpt lat="40.7050583" lon="15.2007833"><ele>430.99999999999994</ele><time>2026-04-12T09:47:26.971Z</time></trkpt><trkpt lat="40.7051317" lon="15.2007433"><ele>431.0</ele><time>2026-04-12T09:47:27.971Z</time></trkpt><trkpt lat="40.705205" lon="15.2007"><ele>431.0</ele><time>2026-04-12T09:47:28.972Z</time></trkpt><trkpt lat="40.70527" lon="15.2006483"><ele>431.0</ele><time>2026-04-12T09:47:29.971Z</time></trkpt><trkpt lat="40.7053233" lon="15.20058"><ele>430.99999999999994</ele><time>2026-04-12T09:47:30.971Z</time></trkpt><trkpt lat="40.70536" lon="15.2004967"><ele>431.0</ele><time>2026-04-12T09:47:31.971Z</time></trkpt><trkpt lat="40.705385" lon="15.2003983"><ele>431.66666666666663</ele><time>2026-04-12T09:47:32.971Z</time></trkpt><trkpt lat="40.7053967" lon="15.2003"><ele>432.3333333333333</ele><time>2026-04-12T09:47:33.971Z</time></trkpt><trkpt lat="40.7054067" lon="15.2002033"><ele>433.0</ele><time>2026-04-12T09:47:34.971Z</time></trkpt><trkpt lat="40.7054233" lon="15.200105"><ele>433.66666666666663</ele><time>2026-04-12T09:47:35.971Z</time></trkpt><trkpt lat="40.7054383" lon="15.2000017"><ele>434.3333333333333</ele><time>2026-04-12T09:47:36.971Z</time></trkpt><trkpt lat="40.7054483" lon="15.199895"><ele>435.0</ele><time>2026-04-12T09:47:37.971Z</time></trkpt><trkpt lat="40.705455" lon="15.19979"><ele>436.6666666666667</ele><time>2026-04-12T09:47:38.971Z</time></trkpt><trkpt lat="40.7054667" lon="15.199695"><ele>438.33333333333337</ele><time>2026-04-12T09:47:39.971Z</time></trkpt><trkpt lat="40.7054917" lon="15.199605"><ele>440.0</ele><time>2026-04-12T09:47:40.971Z</time></trkpt><trkpt lat="40.7055317" lon="15.1995183"><ele>441.6666666666667</ele><time>2026-04-12T09:47:41.971Z</time></trkpt><trkpt lat="40.70558" lon="15.1994317"><ele>443.33333333333337</ele><time>2026-04-12T09:47:42.971Z</time></trkpt><trkpt lat="40.7056233" lon="15.199345"><ele>445.0</ele><time>2026-04-12T09:47:43.971Z</time></trkpt><trkpt lat="40.705665" lon="15.1992583"><ele>445.00000000000006</ele><time>2026-04-12T09:47:44.971Z</time></trkpt><trkpt lat="40.7056967" lon="15.199165"><ele>445.0</ele><time>2026-04-12T09:47:45.971Z</time></trkpt><trkpt lat="40.7057183" lon="15.19907"><ele>445.0</ele><time>2026-04-12T09:47:46.971Z</time></trkpt><trkpt lat="40.7057267" lon="15.1989683"><ele>445.0</ele><time>2026-04-12T09:47:47.971Z</time></trkpt><trkpt lat="40.7057233" lon="15.1988617"><ele>445.00000000000006</ele><time>2026-04-12T09:47:48.971Z</time></trkpt><trkpt lat="40.7057133" lon="15.198755"><ele>445.0</ele><time>2026-04-12T09:47:49.971Z</time></trkpt><trkpt lat="40.7057217" lon="15.1986483"><ele>446.83333333333337</ele><time>2026-04-12T09:47:50.971Z</time></trkpt><trkpt lat="40.7057467" lon="15.1985517"><ele>448.6666666666667</ele><time>2026-04-12T09:47:51.972Z</time></trkpt><trkpt lat="40.70578" lon="15.1984617"><ele>450.5</ele><time>2026-04-12T09:47:52.971Z</time></trkpt><trkpt lat="40.7058133" lon="15.1983717"><ele>452.33333333333337</ele><time>2026-04-12T09:47:53.971Z</time></trkpt><trkpt lat="40.70584" lon="15.198275"><ele>454.1666666666667</ele><time>2026-04-12T09:47:54.971Z</time></trkpt><trkpt lat="40.70586" lon="15.1981633"><ele>456.0</ele><time>2026-04-12T09:47:55.971Z</time></trkpt><trkpt lat="40.705865" lon="15.198045"><ele>459.0</ele><time>2026-04-12T09:47:56.971Z</time></trkpt><trkpt lat="40.70587" lon="15.1979333"><ele>462.0</ele><time>2026-04-12T09:47:57.971Z</time></trkpt><trkpt lat="40.7058817" lon="15.1978383"><ele>465.0</ele><time>2026-04-12T09:47:58.971Z</time></trkpt><trkpt lat="40.7059367" lon="15.1977267"><ele>468.0</ele><time>2026-04-12T09:48:00.971Z</time></trkpt><trkpt lat="40.70602" lon="15.1977033"><ele>471.0</ele><time>2026-04-12T09:48:02.971Z</time></trkpt><trkpt lat="40.7060967" lon="15.197765"><ele>474.0</ele><time>2026-04-12T09:48:04.972Z</time></trkpt><trkpt lat="40.7061783" lon="15.1978433"><ele>474.8571428571428</ele><time>2026-04-12T09:48:06.971Z</time></trkpt><trkpt lat="40.706235" lon="15.1978983"><ele>475.71428571428567</ele><time>2026-04-12T09:48:07.971Z</time></trkpt><trkpt lat="40.7063" lon="15.1979633"><ele>476.57142857142856</ele><time>2026-04-12T09:48:08.971Z</time></trkpt><trkpt lat="40.706365" lon="15.198025"><ele>477.4285714285714</ele><time>2026-04-12T09:48:09.971Z</time></trkpt><trkpt lat="40.7064267" lon="15.1980817"><ele>478.2857142857142</ele><time>2026-04-12T09:48:10.971Z</time></trkpt><trkpt lat="40.70649" lon="15.1981183"><ele>479.14285714285717</ele><time>2026-04-12T09:48:11.971Z</time></trkpt><trkpt lat="40.7065583" lon="15.1981333"><ele>480.0</ele><time>2026-04-12T09:48:12.971Z</time></trkpt><trkpt lat="40.7066267" lon="15.19814"><ele>480.0</ele><time>2026-04-12T09:48:13.971Z</time></trkpt><trkpt lat="40.7067033" lon="15.1981333"><ele>480.0</ele><time>2026-04-12T09:48:14.971Z</time></trkpt><trkpt lat="40.70678" lon="15.1981267"><ele>480.0</ele><time>2026-04-12T09:48:15.971Z</time></trkpt><trkpt lat="40.7068633" lon="15.1981183"><ele>480.0</ele><time>2026-04-12T09:48:16.971Z</time></trkpt><trkpt lat="40.7069517" lon="15.19811"><ele>480.0</ele><time>2026-04-12T09:48:17.971Z</time></trkpt><trkpt lat="40.70704" lon="15.198105"><ele>480.0</ele><time>2026-04-12T09:48:18.971Z</time></trkpt><trkpt lat="40.70713" lon="15.198095"><ele>478.3333333333333</ele><time>2026-04-12T09:48:19.971Z</time></trkpt><trkpt lat="40.7072217" lon="15.198085"><ele>476.66666666666663</ele><time>2026-04-12T09:48:20.971Z</time></trkpt><trkpt lat="40.707315" lon="15.1980583"><ele>475.0</ele><time>2026-04-12T09:48:21.971Z</time></trkpt><trkpt lat="40.707395" lon="15.1980183"><ele>473.3333333333333</ele><time>2026-04-12T09:48:22.971Z</time></trkpt><trkpt lat="40.70747" lon="15.19797"><ele>471.66666666666663</ele><time>2026-04-12T09:48:23.971Z</time></trkpt><trkpt lat="40.7075333" lon="15.1979083"><ele>470.0</ele><time>2026-04-12T09:48:24.972Z</time></trkpt><trkpt lat="40.7075883" lon="15.1978483"><ele>469.99999999999994</ele><time>2026-04-12T09:48:25.971Z</time></trkpt><trkpt lat="40.70764" lon="15.197785"><ele>470.0</ele><time>2026-04-12T09:48:26.971Z</time></trkpt><trkpt lat="40.707685" lon="15.1977167"><ele>470.0</ele><time>2026-04-12T09:48:27.971Z</time></trkpt><trkpt lat="40.707725" lon="15.1976417"><ele>470.0</ele><time>2026-04-12T09:48:28.971Z</time></trkpt><trkpt lat="40.7077567" lon="15.197555"><ele>469.99999999999994</ele><time>2026-04-12T09:48:29.971Z</time></trkpt><trkpt lat="40.70779" lon="15.1973917"><ele>470.0</ele><time>2026-04-12T09:48:31.971Z</time></trkpt><trkpt lat="40.7078067" lon="15.1973033"><ele>468.66666666666663</ele><time>2026-04-12T09:48:32.971Z</time></trkpt><trkpt lat="40.7078167" lon="15.19721"><ele>467.3333333333333</ele><time>2026-04-12T09:48:33.971Z</time></trkpt><trkpt lat="40.707825" lon="15.197115"><ele>466.0</ele><time>2026-04-12T09:48:34.971Z</time></trkpt><trkpt lat="40.7078433" lon="15.1970233"><ele>464.66666666666663</ele><time>2026-04-12T09:48:35.971Z</time></trkpt><trkpt lat="40.7078633" lon="15.19694"><ele>463.3333333333333</ele><time>2026-04-12T09:48:36.971Z</time></trkpt><trkpt lat="40.70791" lon="15.196805"><ele>462.0</ele><time>2026-04-12T09:48:38.971Z</time></trkpt><trkpt lat="40.7079733" lon="15.1966983"><ele>462.0</ele><time>2026-04-12T09:48:40.971Z</time></trkpt><trkpt lat="40.7080717" lon="15.1966067"><ele>462.0</ele><time>2026-04-12T09:48:42.972Z</time></trkpt><trkpt lat="40.7081383" lon="15.1965733"><ele>462.0</ele><time>2026-04-12T09:48:43.971Z</time></trkpt><trkpt lat="40.7082117" lon="15.19655"><ele>462.0</ele><time>2026-04-12T09:48:44.971Z</time></trkpt><trkpt lat="40.7082967" lon="15.1965267"><ele>462.0</ele><time>2026-04-12T09:48:45.971Z</time></trkpt><trkpt lat="40.708385" lon="15.1964967"><ele>462.0</ele><time>2026-04-12T09:48:46.972Z</time></trkpt><trkpt lat="40.7084583" lon="15.1964517"><ele>461.3333333333333</ele><time>2026-04-12T09:48:47.971Z</time></trkpt><trkpt lat="40.7085283" lon="15.19638"><ele>460.66666666666663</ele><time>2026-04-12T09:48:48.972Z</time></trkpt><trkpt lat="40.7085867" lon="15.1962967"><ele>460.0</ele><time>2026-04-12T09:48:49.971Z</time></trkpt><trkpt lat="40.7086367" lon="15.196205"><ele>459.3333333333333</ele><time>2026-04-12T09:48:50.97Z</time></trkpt><trkpt lat="40.7086883" lon="15.1961167"><ele>458.66666666666663</ele><time>2026-04-12T09:48:51.97Z</time></trkpt><trkpt lat="40.708745" lon="15.19604"><ele>458.0</ele><time>2026-04-12T09:48:52.971Z</time></trkpt><trkpt lat="40.7088083" lon="15.1959633"><ele>457.99999999999994</ele><time>2026-04-12T09:48:53.97Z</time></trkpt><trkpt lat="40.70887" lon="15.1958867"><ele>458.0</ele><time>2026-04-12T09:48:54.97Z</time></trkpt><trkpt lat="40.7089333" lon="15.19581"><ele>458.0</ele><time>2026-04-12T09:48:55.97Z</time></trkpt><trkpt lat="40.709" lon="15.1957283"><ele>458.0</ele><time>2026-04-12T09:48:56.97Z</time></trkpt><trkpt lat="40.70906" lon="15.19565"><ele>457.99999999999994</ele><time>2026-04-12T09:48:57.97Z</time></trkpt><trkpt lat="40.7091217" lon="15.1955717"><ele>458.0</ele><time>2026-04-12T09:48:58.97Z</time></trkpt><trkpt lat="40.709175" lon="15.1954917"><ele>456.49999999999994</ele><time>2026-04-12T09:48:59.97Z</time></trkpt><trkpt lat="40.7092283" lon="15.19541"><ele>455.0</ele><time>2026-04-12T09:49:00.97Z</time></trkpt><trkpt lat="40.70928" lon="15.19533"><ele>453.5</ele><time>2026-04-12T09:49:01.97Z</time></trkpt><trkpt lat="40.7093367" lon="15.1952533"><ele>452.0</ele><time>2026-04-12T09:49:02.97Z</time></trkpt><trkpt lat="40.7094083" lon="15.1951783"><ele>450.49999999999994</ele><time>2026-04-12T09:49:03.97Z</time></trkpt><trkpt lat="40.70948" lon="15.1950983"><ele>449.0</ele><time>2026-04-12T09:49:04.971Z</time></trkpt><trkpt lat="40.7095467" lon="15.1950167"><ele>448.99999999999994</ele><time>2026-04-12T09:49:05.97Z</time></trkpt><trkpt lat="40.7096083" lon="15.1949383"><ele>449.0</ele><time>2026-04-12T09:49:06.97Z</time></trkpt><trkpt lat="40.7096683" lon="15.1948617"><ele>449.0</ele><time>2026-04-12T09:49:07.97Z</time></trkpt><trkpt lat="40.70973" lon="15.1947867"><ele>449.0</ele><time>2026-04-12T09:49:08.97Z</time></trkpt><trkpt lat="40.7097917" lon="15.1947117"><ele>448.99999999999994</ele><time>2026-04-12T09:49:09.97Z</time></trkpt><trkpt lat="40.7098533" lon="15.194635"><ele>449.0</ele><time>2026-04-12T09:49:10.97Z</time></trkpt><trkpt lat="40.7099117" lon="15.194565"><ele>448.2</ele><time>2026-04-12T09:49:11.97Z</time></trkpt><trkpt lat="40.7099767" lon="15.194495"><ele>447.4</ele><time>2026-04-12T09:49:12.97Z</time></trkpt><trkpt lat="40.7100517" lon="15.19442"><ele>446.6</ele><time>2026-04-12T09:49:13.97Z</time></trkpt><trkpt lat="40.7101233" lon="15.1943483"><ele>445.8</ele><time>2026-04-12T09:49:14.97Z</time></trkpt><trkpt lat="40.7101967" lon="15.1942767"><ele>445.0</ele><time>2026-04-12T09:49:15.97Z</time></trkpt><trkpt lat="40.7102733" lon="15.1942067"><ele>445.00000000000006</ele><time>2026-04-12T09:49:16.97Z</time></trkpt><trkpt lat="40.7103517" lon="15.19414"><ele>445.0</ele><time>2026-04-12T09:49:17.97Z</time></trkpt><trkpt lat="40.7104317" lon="15.1940683"><ele>445.0</ele><time>2026-04-12T09:49:18.97Z</time></trkpt><trkpt lat="40.7105017" lon="15.1940083"><ele>445.0</ele><time>2026-04-12T09:49:19.97Z</time></trkpt><trkpt lat="40.7105767" lon="15.1939533"><ele>445.00000000000006</ele><time>2026-04-12T09:49:20.97Z</time></trkpt><trkpt lat="40.710645" lon="15.193905"><ele>445.0</ele><time>2026-04-12T09:49:21.97Z</time></trkpt><trkpt lat="40.71071" lon="15.193855"><ele>444.6666666666667</ele><time>2026-04-12T09:49:22.971Z</time></trkpt><trkpt lat="40.710775" lon="15.1938067"><ele>444.33333333333337</ele><time>2026-04-12T09:49:23.97Z</time></trkpt><trkpt lat="40.7108383" lon="15.193755"><ele>444.0</ele><time>2026-04-12T09:49:24.97Z</time></trkpt><trkpt lat="40.7109" lon="15.1937017"><ele>443.66666666666663</ele><time>2026-04-12T09:49:25.97Z</time></trkpt><trkpt lat="40.71096" lon="15.1936433"><ele>443.3333333333333</ele><time>2026-04-12T09:49:26.97Z</time></trkpt><trkpt lat="40.7110267" lon="15.193595"><ele>443.0</ele><time>2026-04-12T09:49:27.97Z</time></trkpt><trkpt lat="40.7111033" lon="15.19354"><ele>442.99999999999994</ele><time>2026-04-12T09:49:28.97Z</time></trkpt><trkpt lat="40.711175" lon="15.1934817"><ele>443.0</ele><time>2026-04-12T09:49:29.97Z</time></trkpt><trkpt lat="40.7112467" lon="15.1934217"><ele>443.0</ele><time>2026-04-12T09:49:30.97Z</time></trkpt><trkpt lat="40.711315" lon="15.1933667"><ele>443.0</ele><time>2026-04-12T09:49:31.97Z</time></trkpt><trkpt lat="40.7113867" lon="15.1932967"><ele>442.99999999999994</ele><time>2026-04-12T09:49:32.97Z</time></trkpt><trkpt lat="40.7114533" lon="15.1932317"><ele>443.0</ele><time>2026-04-12T09:49:33.97Z</time></trkpt><trkpt lat="40.711525" lon="15.19317"><ele>444.2</ele><time>2026-04-12T09:49:34.97Z</time></trkpt><trkpt lat="40.711595" lon="15.1931133"><ele>445.4</ele><time>2026-04-12T09:49:35.97Z</time></trkpt><trkpt lat="40.7116667" lon="15.193055"><ele>446.59999999999997</ele><time>2026-04-12T09:49:36.971Z</time></trkpt><trkpt lat="40.711745" lon="15.1929883"><ele>447.79999999999995</ele><time>2026-04-12T09:49:37.97Z</time></trkpt><trkpt lat="40.7118233" lon="15.1929217"><ele>449.0</ele><time>2026-04-12T09:49:38.97Z</time></trkpt><trkpt lat="40.7119067" lon="15.1928533"><ele>446.6</ele><time>2026-04-12T09:49:39.97Z</time></trkpt><trkpt lat="40.7119933" lon="15.1927783"><ele>444.2</ele><time>2026-04-12T09:49:40.97Z</time></trkpt><trkpt lat="40.7120867" lon="15.1927083"><ele>441.80000000000007</ele><time>2026-04-12T09:49:41.97Z</time></trkpt><trkpt lat="40.7121717" lon="15.1926383"><ele>439.40000000000003</ele><time>2026-04-12T09:49:42.97Z</time></trkpt><trkpt lat="40.712255" lon="15.1925717"><ele>437.0</ele><time>2026-04-12T09:49:43.97Z</time></trkpt><trkpt lat="40.7123383" lon="15.1925133"><ele>436.99999999999994</ele><time>2026-04-12T09:49:44.97Z</time></trkpt><trkpt lat="40.7124183" lon="15.1924567"><ele>437.0</ele><time>2026-04-12T09:49:45.97Z</time></trkpt><trkpt lat="40.712495" lon="15.1923983"><ele>437.0</ele><time>2026-04-12T09:49:46.97Z</time></trkpt><trkpt lat="40.7125817" lon="15.192335"><ele>437.0</ele><time>2026-04-12T09:49:47.97Z</time></trkpt><trkpt lat="40.71266" lon="15.1922867"><ele>436.99999999999994</ele><time>2026-04-12T09:49:48.97Z</time></trkpt><trkpt lat="40.7127367" lon="15.19225"><ele>437.0</ele><time>2026-04-12T09:49:49.97Z</time></trkpt><trkpt lat="40.712815" lon="15.19222"><ele>437.99999999999994</ele><time>2026-04-12T09:49:50.97Z</time></trkpt><trkpt lat="40.7128917" lon="15.1921983"><ele>439.0</ele><time>2026-04-12T09:49:51.97Z</time></trkpt><trkpt lat="40.7129667" lon="15.192185"><ele>440.0</ele><time>2026-04-12T09:49:52.97Z</time></trkpt><trkpt lat="40.7130417" lon="15.1921767"><ele>441.0</ele><time>2026-04-12T09:49:53.97Z</time></trkpt><trkpt lat="40.7131183" lon="15.1921583"><ele>441.99999999999994</ele><time>2026-04-12T09:49:54.97Z</time></trkpt><trkpt lat="40.7131933" lon="15.1921483"><ele>443.0</ele><time>2026-04-12T09:49:55.97Z</time></trkpt><trkpt lat="40.7132683" lon="15.19214"><ele>442.99999999999994</ele><time>2026-04-12T09:49:56.97Z</time></trkpt><trkpt lat="40.7133417" lon="15.19213"><ele>443.0</ele><time>2026-04-12T09:49:57.97Z</time></trkpt><trkpt lat="40.713415" lon="15.19213"><ele>443.0</ele><time>2026-04-12T09:49:58.97Z</time></trkpt><trkpt lat="40.7134967" lon="15.1921283"><ele>443.0</ele><time>2026-04-12T09:49:59.97Z</time></trkpt><trkpt lat="40.71358" lon="15.1921267"><ele>442.99999999999994</ele><time>2026-04-12T09:50:00.97Z</time></trkpt><trkpt lat="40.713665" lon="15.19213"><ele>443.0</ele><time>2026-04-12T09:50:01.97Z</time></trkpt><trkpt lat="40.7137567" lon="15.192135"><ele>441.79999999999995</ele><time>2026-04-12T09:50:02.97Z</time></trkpt><trkpt lat="40.7138483" lon="15.19214"><ele>440.59999999999997</ele><time>2026-04-12T09:50:03.97Z</time></trkpt><trkpt lat="40.7139417" lon="15.19213"><ele>439.40000000000003</ele><time>2026-04-12T09:50:04.97Z</time></trkpt><trkpt lat="40.714035" lon="15.1921083"><ele>438.20000000000005</ele><time>2026-04-12T09:50:05.97Z</time></trkpt><trkpt lat="40.7141217" lon="15.1920817"><ele>437.0</ele><time>2026-04-12T09:50:06.97Z</time></trkpt><trkpt lat="40.714205" lon="15.1920583"><ele>436.99999999999994</ele><time>2026-04-12T09:50:07.97Z</time></trkpt><trkpt lat="40.7142883" lon="15.1920233"><ele>437.0</ele><time>2026-04-12T09:50:08.97Z</time></trkpt><trkpt lat="40.714365" lon="15.1919767"><ele>437.0</ele><time>2026-04-12T09:50:09.97Z</time></trkpt><trkpt lat="40.7144367" lon="15.191915"><ele>437.0</ele><time>2026-04-12T09:50:10.971Z</time></trkpt><trkpt lat="40.7145017" lon="15.191845"><ele>436.99999999999994</ele><time>2026-04-12T09:50:11.97Z</time></trkpt><trkpt lat="40.7145617" lon="15.191765"><ele>437.0</ele><time>2026-04-12T09:50:12.97Z</time></trkpt><trkpt lat="40.7146167" lon="15.191685"><ele>436.99999999999994</ele><time>2026-04-12T09:50:13.97Z</time></trkpt><trkpt lat="40.7146783" lon="15.1916067"><ele>437.0</ele><time>2026-04-12T09:50:14.97Z</time></trkpt><trkpt lat="40.71474" lon="15.19153"><ele>437.0</ele><time>2026-04-12T09:50:15.971Z</time></trkpt><trkpt lat="40.71481" lon="15.19146"><ele>437.0</ele><time>2026-04-12T09:50:16.97Z</time></trkpt><trkpt lat="40.71488" lon="15.1914083"><ele>436.99999999999994</ele><time>2026-04-12T09:50:17.97Z</time></trkpt><trkpt lat="40.7149517" lon="15.1913783"><ele>437.0</ele><time>2026-04-12T09:50:18.97Z</time></trkpt><trkpt lat="40.7150217" lon="15.19134"><ele>436.99999999999994</ele><time>2026-04-12T09:50:19.97Z</time></trkpt><trkpt lat="40.7151017" lon="15.191305"><ele>437.0</ele><time>2026-04-12T09:50:20.97Z</time></trkpt><trkpt lat="40.7151817" lon="15.1912733"><ele>437.0</ele><time>2026-04-12T09:50:21.971Z</time></trkpt><trkpt lat="40.71526" lon="15.191225"><ele>437.0</ele><time>2026-04-12T09:50:22.97Z</time></trkpt><trkpt lat="40.715335" lon="15.191185"><ele>436.99999999999994</ele><time>2026-04-12T09:50:23.97Z</time></trkpt><trkpt lat="40.7154033" lon="15.191135"><ele>437.0</ele><time>2026-04-12T09:50:24.97Z</time></trkpt><trkpt lat="40.7154633" lon="15.1910883"><ele>435.0</ele><time>2026-04-12T09:50:25.97Z</time></trkpt><trkpt lat="40.7155183" lon="15.1910433"><ele>433.00000000000006</ele><time>2026-04-12T09:50:26.97Z</time></trkpt><trkpt lat="40.7156117" lon="15.1909617"><ele>431.00000000000006</ele><time>2026-04-12T09:50:28.97Z</time></trkpt><trkpt lat="40.715695" lon="15.1908833"><ele>429.0</ele><time>2026-04-12T09:50:30.971Z</time></trkpt><trkpt lat="40.715795" lon="15.19084"><ele>427.0</ele><time>2026-04-12T09:50:32.97Z</time></trkpt><trkpt lat="40.7159083" lon="15.1908233"><ele>427.0</ele><time>2026-04-12T09:50:34.97Z</time></trkpt><trkpt lat="40.7160117" lon="15.190835"><ele>427.00000000000006</ele><time>2026-04-12T09:50:36.97Z</time></trkpt><trkpt lat="40.7161083" lon="15.1908683"><ele>427.00000000000006</ele><time>2026-04-12T09:50:38.97Z</time></trkpt><trkpt lat="40.7162133" lon="15.19092"><ele>427.0</ele><time>2026-04-12T09:50:40.97Z</time></trkpt><trkpt lat="40.7163183" lon="15.1910033"><ele>427.0</ele><time>2026-04-12T09:50:42.97Z</time></trkpt><trkpt lat="40.7163683" lon="15.191055"><ele>428.2857142857143</ele><time>2026-04-12T09:50:43.97Z</time></trkpt><trkpt lat="40.716425" lon="15.1911033"><ele>429.57142857142856</ele><time>2026-04-12T09:50:44.97Z</time></trkpt><trkpt lat="40.71648" lon="15.1911567"><ele>430.8571428571429</ele><time>2026-04-12T09:50:45.97Z</time></trkpt><trkpt lat="40.7165283" lon="15.19122"><ele>432.1428571428571</ele><time>2026-04-12T09:50:46.97Z</time></trkpt><trkpt lat="40.7165683" lon="15.1912967"><ele>433.42857142857144</ele><time>2026-04-12T09:50:47.97Z</time></trkpt><trkpt lat="40.7166117" lon="15.19138"><ele>434.7142857142857</ele><time>2026-04-12T09:50:48.97Z</time></trkpt><trkpt lat="40.7166567" lon="15.1914667"><ele>436.0</ele><time>2026-04-12T09:50:49.97Z</time></trkpt><trkpt lat="40.7167" lon="15.1915617"><ele>436.0</ele><time>2026-04-12T09:50:50.97Z</time></trkpt><trkpt lat="40.7167433" lon="15.19166"><ele>436.0</ele><time>2026-04-12T09:50:51.97Z</time></trkpt><trkpt lat="40.716785" lon="15.1917633"><ele>436.0</ele><time>2026-04-12T09:50:52.97Z</time></trkpt><trkpt lat="40.71683" lon="15.191875"><ele>436.0</ele><time>2026-04-12T09:50:53.97Z</time></trkpt><trkpt lat="40.7168817" lon="15.1919817"><ele>436.0</ele><time>2026-04-12T09:50:54.97Z</time></trkpt><trkpt lat="40.7169367" lon="15.1920817"><ele>438.0</ele><time>2026-04-12T09:50:55.97Z</time></trkpt><trkpt lat="40.7169967" lon="15.1921833"><ele>440.0</ele><time>2026-04-12T09:50:56.97Z</time></trkpt><trkpt lat="40.7170633" lon="15.19228"><ele>442.0</ele><time>2026-04-12T09:50:57.97Z</time></trkpt><trkpt lat="40.7171333" lon="15.1923667"><ele>444.0</ele><time>2026-04-12T09:50:58.97Z</time></trkpt><trkpt lat="40.7172083" lon="15.1924517"><ele>446.0</ele><time>2026-04-12T09:50:59.97Z</time></trkpt><trkpt lat="40.7172867" lon="15.1925333"><ele>446.0</ele><time>2026-04-12T09:51:00.97Z</time></trkpt><trkpt lat="40.71737" lon="15.192615"><ele>446.0</ele><time>2026-04-12T09:51:01.97Z</time></trkpt><trkpt lat="40.71746" lon="15.1926967"><ele>446.0</ele><time>2026-04-12T09:51:02.97Z</time></trkpt><trkpt lat="40.7175517" lon="15.192775"><ele>446.0</ele><time>2026-04-12T09:51:03.971Z</time></trkpt><trkpt lat="40.7176417" lon="15.19286"><ele>446.0</ele><time>2026-04-12T09:51:04.97Z</time></trkpt><trkpt lat="40.7177333" lon="15.192945"><ele>449.25</ele><time>2026-04-12T09:51:05.97Z</time></trkpt><trkpt lat="40.7178267" lon="15.1930333"><ele>452.5</ele><time>2026-04-12T09:51:06.97Z</time></trkpt><trkpt lat="40.7179233" lon="15.1931333"><ele>455.75</ele><time>2026-04-12T09:51:07.97Z</time></trkpt><trkpt lat="40.7180083" lon="15.193235"><ele>459.0</ele><time>2026-04-12T09:51:08.97Z</time></trkpt><trkpt lat="40.71808" lon="15.193355"><ele>459.0</ele><time>2026-04-12T09:51:09.97Z</time></trkpt><trkpt lat="40.7181383" lon="15.1934733"><ele>459.0</ele><time>2026-04-12T09:51:10.97Z</time></trkpt><trkpt lat="40.7181833" lon="15.19359"><ele>459.0</ele><time>2026-04-12T09:51:11.97Z</time></trkpt><trkpt lat="40.71823" lon="15.1936983"><ele>459.0</ele><time>2026-04-12T09:51:12.97Z</time></trkpt><trkpt lat="40.7182817" lon="15.193815"><ele>459.0</ele><time>2026-04-12T09:51:13.97Z</time></trkpt><trkpt lat="40.7183433" lon="15.19392"><ele>457.79999999999995</ele><time>2026-04-12T09:51:14.97Z</time></trkpt><trkpt lat="40.7184083" lon="15.194015"><ele>456.59999999999997</ele><time>2026-04-12T09:51:15.97Z</time></trkpt><trkpt lat="40.7184683" lon="15.1941267"><ele>455.4</ele><time>2026-04-12T09:51:16.97Z</time></trkpt><trkpt lat="40.718515" lon="15.1942483"><ele>454.2</ele><time>2026-04-12T09:51:17.971Z</time></trkpt><trkpt lat="40.71855" lon="15.194365"><ele>453.0</ele><time>2026-04-12T09:51:18.97Z</time></trkpt><trkpt lat="40.718575" lon="15.194485"><ele>456.4</ele><time>2026-04-12T09:51:19.971Z</time></trkpt><trkpt lat="40.718595" lon="15.1946017"><ele>459.79999999999995</ele><time>2026-04-12T09:51:20.97Z</time></trkpt><trkpt lat="40.7186217" lon="15.1947217"><ele>463.2</ele><time>2026-04-12T09:51:21.97Z</time></trkpt><trkpt lat="40.7186483" lon="15.1948467"><ele>466.6</ele><time>2026-04-12T09:51:22.97Z</time></trkpt><trkpt lat="40.7186767" lon="15.1949833"><ele>470.0</ele><time>2026-04-12T09:51:23.97Z</time></trkpt><trkpt lat="40.71871" lon="15.1951233"><ele>470.0</ele><time>2026-04-12T09:51:24.97Z</time></trkpt><trkpt lat="40.7187383" lon="15.195265"><ele>470.0</ele><time>2026-04-12T09:51:25.97Z</time></trkpt><trkpt lat="40.7187667" lon="15.1954083"><ele>470.0</ele><time>2026-04-12T09:51:26.971Z</time></trkpt><trkpt lat="40.7187967" lon="15.1955533"><ele>470.0</ele><time>2026-04-12T09:51:27.97Z</time></trkpt><trkpt lat="40.7188233" lon="15.195695"><ele>470.0</ele><time>2026-04-12T09:51:28.97Z</time></trkpt><trkpt lat="40.7188533" lon="15.195835"><ele>469.0</ele><time>2026-04-12T09:51:29.97Z</time></trkpt><trkpt lat="40.71888" lon="15.1959717"><ele>468.0</ele><time>2026-04-12T09:51:30.97Z</time></trkpt><trkpt lat="40.7189017" lon="15.1961117"><ele>467.0</ele><time>2026-04-12T09:51:31.97Z</time></trkpt><trkpt lat="40.718925" lon="15.1962517"><ele>466.0</ele><time>2026-04-12T09:51:32.97Z</time></trkpt><trkpt lat="40.718965" lon="15.1963833"><ele>465.0</ele><time>2026-04-12T09:51:33.97Z</time></trkpt><trkpt lat="40.7190117" lon="15.1965167"><ele>463.25</ele><time>2026-04-12T09:51:34.97Z</time></trkpt><trkpt lat="40.719055" lon="15.1966567"><ele>461.5</ele><time>2026-04-12T09:51:35.97Z</time></trkpt><trkpt lat="40.7190917" lon="15.1967983"><ele>459.75</ele><time>2026-04-12T09:51:36.97Z</time></trkpt><trkpt lat="40.7191283" lon="15.1969383"><ele>458.0</ele><time>2026-04-12T09:51:37.97Z</time></trkpt><trkpt lat="40.7191617" lon="15.1970783"><ele>458.0</ele><time>2026-04-12T09:51:38.97Z</time></trkpt><trkpt lat="40.7191917" lon="15.1972333"><ele>458.0</ele><time>2026-04-12T09:51:39.97Z</time></trkpt><trkpt lat="40.7192267" lon="15.1973917"><ele>458.0</ele><time>2026-04-12T09:51:40.97Z</time></trkpt><trkpt lat="40.71926" lon="15.1975483"><ele>458.0</ele><time>2026-04-12T09:51:41.97Z</time></trkpt><trkpt lat="40.7192917" lon="15.197695"><ele>457.4</ele><time>2026-04-12T09:51:42.97Z</time></trkpt><trkpt lat="40.7193167" lon="15.197835"><ele>456.79999999999995</ele><time>2026-04-12T09:51:43.97Z</time></trkpt><trkpt lat="40.7193383" lon="15.19796"><ele>456.2</ele><time>2026-04-12T09:51:44.97Z</time></trkpt><trkpt lat="40.7193617" lon="15.19808"><ele>455.6</ele><time>2026-04-12T09:51:45.97Z</time></trkpt><trkpt lat="40.7193933" lon="15.1981983"><ele>455.0</ele><time>2026-04-12T09:51:46.97Z</time></trkpt><trkpt lat="40.7194283" lon="15.1983183"><ele>458.0</ele><time>2026-04-12T09:51:47.97Z</time></trkpt><trkpt lat="40.7194717" lon="15.1984367"><ele>461.0</ele><time>2026-04-12T09:51:48.97Z</time></trkpt><trkpt lat="40.7195233" lon="15.198555"><ele>464.0</ele><time>2026-04-12T09:51:49.97Z</time></trkpt><trkpt lat="40.719585" lon="15.198675"><ele>467.0</ele><time>2026-04-12T09:51:50.97Z</time></trkpt><trkpt lat="40.71965" lon="15.1987917"><ele>470.0</ele><time>2026-04-12T09:51:51.97Z</time></trkpt><trkpt lat="40.7197217" lon="15.1989133"><ele>468.75</ele><time>2026-04-12T09:51:52.97Z</time></trkpt><trkpt lat="40.7198" lon="15.1990383"><ele>467.5</ele><time>2026-04-12T09:51:53.971Z</time></trkpt><trkpt lat="40.7198683" lon="15.1991733"><ele>466.25</ele><time>2026-04-12T09:51:54.97Z</time></trkpt><trkpt lat="40.7199383" lon="15.1993083"><ele>465.0</ele><time>2026-04-12T09:51:55.97Z</time></trkpt><trkpt lat="40.72001" lon="15.1994483"><ele>465.0</ele><time>2026-04-12T09:51:56.97Z</time></trkpt><trkpt lat="40.7200817" lon="15.1995917"><ele>465.0</ele><time>2026-04-12T09:51:57.97Z</time></trkpt><trkpt lat="40.7201533" lon="15.1997333"><ele>465.0</ele><time>2026-04-12T09:51:58.97Z</time></trkpt><trkpt lat="40.7202283" lon="15.1998767"><ele>465.0</ele><time>2026-04-12T09:51:59.97Z</time></trkpt><trkpt lat="40.7203" lon="15.2000133"><ele>465.0</ele><time>2026-04-12T09:52:00.97Z</time></trkpt><trkpt lat="40.7203633" lon="15.2001433"><ele>465.0</ele><time>2026-04-12T09:52:01.971Z</time></trkpt><trkpt lat="40.7204217" lon="15.20026"><ele>465.0</ele><time>2026-04-12T09:52:02.97Z</time></trkpt><trkpt lat="40.7204867" lon="15.20035"><ele>465.0</ele><time>2026-04-12T09:52:03.97Z</time></trkpt><trkpt lat="40.7205667" lon="15.2004167"><ele>465.0</ele><time>2026-04-12T09:52:04.97Z</time></trkpt><trkpt lat="40.72065" lon="15.2004683"><ele>465.0</ele><time>2026-04-12T09:52:05.97Z</time></trkpt><trkpt lat="40.7207233" lon="15.2005267"><ele>465.0</ele><time>2026-04-12T09:52:06.97Z</time></trkpt><trkpt lat="40.7207817" lon="15.200595"><ele>465.0</ele><time>2026-04-12T09:52:07.97Z</time></trkpt><trkpt lat="40.7208133" lon="15.200685"><ele>465.0</ele><time>2026-04-12T09:52:08.97Z</time></trkpt><trkpt lat="40.7208333" lon="15.2007967"><ele>465.0</ele><time>2026-04-12T09:52:09.97Z</time></trkpt><trkpt lat="40.720855" lon="15.2009367"><ele>465.0</ele><time>2026-04-12T09:52:10.97Z</time></trkpt><trkpt lat="40.7209033" lon="15.2010883"><ele>466.0</ele><time>2026-04-12T09:52:11.97Z</time></trkpt><trkpt lat="40.720975" lon="15.201235"><ele>467.0</ele><time>2026-04-12T09:52:12.97Z</time></trkpt><trkpt lat="40.721065" lon="15.2013767"><ele>468.0</ele><time>2026-04-12T09:52:13.97Z</time></trkpt><trkpt lat="40.7211667" lon="15.2015267"><ele>469.0</ele><time>2026-04-12T09:52:14.97Z</time></trkpt><trkpt lat="40.72127" lon="15.2016883"><ele>469.0</ele><time>2026-04-12T09:52:15.97Z</time></trkpt><trkpt lat="40.72137" lon="15.2018417"><ele>469.0</ele><time>2026-04-12T09:52:16.97Z</time></trkpt><trkpt lat="40.7214633" lon="15.2019833"><ele>469.0</ele><time>2026-04-12T09:52:17.97Z</time></trkpt><trkpt lat="40.7215567" lon="15.2021117"><ele>469.0</ele><time>2026-04-12T09:52:18.97Z</time></trkpt><trkpt lat="40.72164" lon="15.2022333"><ele>466.5</ele><time>2026-04-12T09:52:19.97Z</time></trkpt><trkpt lat="40.7217233" lon="15.2023533"><ele>464.0</ele><time>2026-04-12T09:52:20.97Z</time></trkpt><trkpt lat="40.7218033" lon="15.2024717"><ele>461.5</ele><time>2026-04-12T09:52:21.97Z</time></trkpt><trkpt lat="40.7218817" lon="15.2025917"><ele>459.0</ele><time>2026-04-12T09:52:22.97Z</time></trkpt><trkpt lat="40.7219567" lon="15.20271"><ele>459.0</ele><time>2026-04-12T09:52:23.971Z</time></trkpt><trkpt lat="40.7220283" lon="15.20281"><ele>459.0</ele><time>2026-04-12T09:52:24.97Z</time></trkpt><trkpt lat="40.722085" lon="15.2028967"><ele>459.0</ele><time>2026-04-12T09:52:25.97Z</time></trkpt><trkpt lat="40.7221267" lon="15.202965"><ele>459.0</ele><time>2026-04-12T09:52:26.97Z</time></trkpt><trkpt lat="40.722175" lon="15.2030433"><ele>459.0</ele><time>2026-04-12T09:52:28.97Z</time></trkpt><trkpt lat="40.7222267" lon="15.2031117"><ele>459.0</ele><time>2026-04-12T09:52:33.97Z</time></trkpt><trkpt lat="40.7223167" lon="15.2030617"><ele>459.0</ele><time>2026-04-12T09:52:36.97Z</time></trkpt><trkpt lat="40.7224333" lon="15.2030083"><ele>459.0</ele><time>2026-04-12T09:52:38.97Z</time></trkpt><trkpt lat="40.7224983" lon="15.2029817"><ele>459.0</ele><time>2026-04-12T09:52:39.97Z</time></trkpt><trkpt lat="40.7225617" lon="15.202965"><ele>459.0</ele><time>2026-04-12T09:52:40.971Z</time></trkpt><trkpt lat="40.7226267" lon="15.20296"><ele>459.0</ele><time>2026-04-12T09:52:41.97Z</time></trkpt><trkpt lat="40.7227" lon="15.202955"><ele>459.0</ele><time>2026-04-12T09:52:42.97Z</time></trkpt><trkpt lat="40.722775" lon="15.20295"><ele>458.8333333333333</ele><time>2026-04-12T09:52:43.97Z</time></trkpt><trkpt lat="40.7228467" lon="15.2029417"><ele>458.66666666666663</ele><time>2026-04-12T09:52:44.97Z</time></trkpt><trkpt lat="40.7229233" lon="15.2029133"><ele>458.5</ele><time>2026-04-12T09:52:45.97Z</time></trkpt><trkpt lat="40.7229983" lon="15.2028767"><ele>458.3333333333333</ele><time>2026-04-12T09:52:46.97Z</time></trkpt><trkpt lat="40.7230767" lon="15.202835"><ele>458.16666666666663</ele><time>2026-04-12T09:52:47.969Z</time></trkpt><trkpt lat="40.7231583" lon="15.202805"><ele>458.0</ele><time>2026-04-12T09:52:48.969Z</time></trkpt><trkpt lat="40.7232417" lon="15.2027667"><ele>457.99999999999994</ele><time>2026-04-12T09:52:49.969Z</time></trkpt><trkpt lat="40.723325" lon="15.2027267"><ele>458.0</ele><time>2026-04-12T09:52:50.969Z</time></trkpt><trkpt lat="40.7234033" lon="15.2026917"><ele>458.0</ele><time>2026-04-12T09:52:51.969Z</time></trkpt><trkpt lat="40.7234817" lon="15.2026483"><ele>458.0</ele><time>2026-04-12T09:52:52.969Z</time></trkpt><trkpt lat="40.7235617" lon="15.2026083"><ele>457.99999999999994</ele><time>2026-04-12T09:52:53.969Z</time></trkpt><trkpt lat="40.7236367" lon="15.2025567"><ele>458.0</ele><time>2026-04-12T09:52:54.969Z</time></trkpt><trkpt lat="40.7237083" lon="15.202505"><ele>457.66666666666663</ele><time>2026-04-12T09:52:55.969Z</time></trkpt><trkpt lat="40.7237767" lon="15.2024417"><ele>457.3333333333333</ele><time>2026-04-12T09:52:56.969Z</time></trkpt><trkpt lat="40.723845" lon="15.20238"><ele>457.0</ele><time>2026-04-12T09:52:57.969Z</time></trkpt><trkpt lat="40.7239183" lon="15.2023217"><ele>456.66666666666663</ele><time>2026-04-12T09:52:58.969Z</time></trkpt><trkpt lat="40.723995" lon="15.2022683"><ele>456.3333333333333</ele><time>2026-04-12T09:52:59.969Z</time></trkpt><trkpt lat="40.7240717" lon="15.2022133"><ele>456.0</ele><time>2026-04-12T09:53:00.969Z</time></trkpt><trkpt lat="40.72415" lon="15.2021583"><ele>457.1666666666667</ele><time>2026-04-12T09:53:01.969Z</time></trkpt><trkpt lat="40.72423" lon="15.20211"><ele>458.33333333333337</ele><time>2026-04-12T09:53:02.969Z</time></trkpt><trkpt lat="40.72431" lon="15.2020667"><ele>459.5</ele><time>2026-04-12T09:53:03.969Z</time></trkpt><trkpt lat="40.72439" lon="15.2020233"><ele>460.6666666666667</ele><time>2026-04-12T09:53:04.969Z</time></trkpt><trkpt lat="40.7244717" lon="15.201985"><ele>461.83333333333337</ele><time>2026-04-12T09:53:05.969Z</time></trkpt><trkpt lat="40.7245533" lon="15.20194"><ele>463.0</ele><time>2026-04-12T09:53:06.969Z</time></trkpt><trkpt lat="40.7246217" lon="15.2018967"><ele>463.00000000000006</ele><time>2026-04-12T09:53:07.969Z</time></trkpt><trkpt lat="40.724715" lon="15.2018383"><ele>463.0</ele><time>2026-04-12T09:53:09.969Z</time></trkpt><trkpt lat="40.7247633" lon="15.201785"><ele>463.0</ele><time>2026-04-12T09:53:12.969Z</time></trkpt><trkpt lat="40.7247633" lon="15.201665"><ele>463.0</ele><time>2026-04-12T09:53:14.969Z</time></trkpt><trkpt lat="40.7247567" lon="15.2015733"><ele>463.00000000000006</ele><time>2026-04-12T09:53:15.969Z</time></trkpt><trkpt lat="40.7247417" lon="15.2014783"><ele>463.0</ele><time>2026-04-12T09:53:16.969Z</time></trkpt><trkpt lat="40.72472" lon="15.2013917"><ele>464.83333333333337</ele><time>2026-04-12T09:53:17.969Z</time></trkpt><trkpt lat="40.7246883" lon="15.2012983"><ele>466.6666666666667</ele><time>2026-04-12T09:53:18.969Z</time></trkpt><trkpt lat="40.72465" lon="15.2012083"><ele>468.5</ele><time>2026-04-12T09:53:19.969Z</time></trkpt><trkpt lat="40.7246033" lon="15.2011133"><ele>470.33333333333337</ele><time>2026-04-12T09:53:20.969Z</time></trkpt><trkpt lat="40.7245583" lon="15.2010133"><ele>472.1666666666667</ele><time>2026-04-12T09:53:21.97Z</time></trkpt><trkpt lat="40.7245167" lon="15.2008967"><ele>474.0</ele><time>2026-04-12T09:53:22.969Z</time></trkpt><trkpt lat="40.724465" lon="15.2007717"><ele>478.0</ele><time>2026-04-12T09:53:23.97Z</time></trkpt><trkpt lat="40.7244117" lon="15.2006433"><ele>482.0</ele><time>2026-04-12T09:53:24.969Z</time></trkpt><trkpt lat="40.7243383" lon="15.2005067"><ele>486.0</ele><time>2026-04-12T09:53:25.969Z</time></trkpt><trkpt lat="40.7242467" lon="15.2003767"><ele>490.0</ele><time>2026-04-12T09:53:26.969Z</time></trkpt><trkpt lat="40.72414" lon="15.2002483"><ele>490.25</ele><time>2026-04-12T09:53:27.97Z</time></trkpt><trkpt lat="40.7240283" lon="15.2001167"><ele>490.5</ele><time>2026-04-12T09:53:28.969Z</time></trkpt><trkpt lat="40.72394" lon="15.1999967"><ele>490.75</ele><time>2026-04-12T09:53:29.969Z</time></trkpt><trkpt lat="40.7238667" lon="15.199905"><ele>491.0</ele><time>2026-04-12T09:53:30.969Z</time></trkpt><trkpt lat="40.7238033" lon="15.1998433"><ele>493.16666666666663</ele><time>2026-04-12T09:53:31.969Z</time></trkpt><trkpt lat="40.723735" lon="15.1998033"><ele>495.3333333333333</ele><time>2026-04-12T09:53:32.969Z</time></trkpt><trkpt lat="40.7236567" lon="15.1997867"><ele>497.5</ele><time>2026-04-12T09:53:33.969Z</time></trkpt><trkpt lat="40.7235667" lon="15.1997783"><ele>499.66666666666663</ele><time>2026-04-12T09:53:34.969Z</time></trkpt><trkpt lat="40.7234633" lon="15.19977"><ele>501.8333333333333</ele><time>2026-04-12T09:53:35.969Z</time></trkpt><trkpt lat="40.7233817" lon="15.1997483"><ele>504.0</ele><time>2026-04-12T09:53:36.969Z</time></trkpt><trkpt lat="40.72332" lon="15.1996983"><ele>504.4</ele><time>2026-04-12T09:53:37.969Z</time></trkpt><trkpt lat="40.7232733" lon="15.1996183"><ele>504.79999999999995</ele><time>2026-04-12T09:53:38.969Z</time></trkpt><trkpt lat="40.723235" lon="15.1995083"><ele>505.20000000000005</ele><time>2026-04-12T09:53:39.969Z</time></trkpt><trkpt lat="40.723195" lon="15.1993867"><ele>505.6</ele><time>2026-04-12T09:53:40.97Z</time></trkpt><trkpt lat="40.723155" lon="15.1992633"><ele>506.0</ele><time>2026-04-12T09:53:41.969Z</time></trkpt><trkpt lat="40.723115" lon="15.1991417"><ele>506.0</ele><time>2026-04-12T09:53:42.969Z</time></trkpt><trkpt lat="40.72308" lon="15.1990133"><ele>506.0</ele><time>2026-04-12T09:53:43.969Z</time></trkpt><trkpt lat="40.7230433" lon="15.1988817"><ele>506.0</ele><time>2026-04-12T09:53:44.969Z</time></trkpt><trkpt lat="40.7230033" lon="15.1987483"><ele>506.0</ele><time>2026-04-12T09:53:45.97Z</time></trkpt><trkpt lat="40.7229617" lon="15.19861"><ele>506.0</ele><time>2026-04-12T09:53:46.969Z</time></trkpt><trkpt lat="40.72292" lon="15.1984717"><ele>508.20000000000005</ele><time>2026-04-12T09:53:47.969Z</time></trkpt><trkpt lat="40.7228767" lon="15.1983367"><ele>510.40000000000003</ele><time>2026-04-12T09:53:48.969Z</time></trkpt><trkpt lat="40.722835" lon="15.1982033"><ele>512.6</ele><time>2026-04-12T09:53:49.969Z</time></trkpt><trkpt lat="40.7227917" lon="15.1980783"><ele>514.8000000000001</ele><time>2026-04-12T09:53:50.969Z</time></trkpt><trkpt lat="40.7227467" lon="15.1979617"><ele>517.0</ele><time>2026-04-12T09:53:51.969Z</time></trkpt><trkpt lat="40.7227017" lon="15.1978417"><ele>518.0</ele><time>2026-04-12T09:53:52.969Z</time></trkpt><trkpt lat="40.722655" lon="15.1977233"><ele>519.0</ele><time>2026-04-12T09:53:53.969Z</time></trkpt><trkpt lat="40.72261" lon="15.1976017"><ele>520.0</ele><time>2026-04-12T09:53:54.969Z</time></trkpt><trkpt lat="40.7225717" lon="15.19748"><ele>521.0</ele><time>2026-04-12T09:53:55.97Z</time></trkpt><trkpt lat="40.7225483" lon="15.1973633"><ele>522.0</ele><time>2026-04-12T09:53:56.969Z</time></trkpt><trkpt lat="40.7225317" lon="15.197255"><ele>523.5</ele><time>2026-04-12T09:53:57.969Z</time></trkpt><trkpt lat="40.7225217" lon="15.1971517"><ele>525.0</ele><time>2026-04-12T09:53:58.969Z</time></trkpt><trkpt lat="40.7225233" lon="15.19705"><ele>526.5</ele><time>2026-04-12T09:53:59.969Z</time></trkpt><trkpt lat="40.7225317" lon="15.1969583"><ele>528.0</ele><time>2026-04-12T09:54:00.97Z</time></trkpt><trkpt lat="40.722565" lon="15.1968083"><ele>529.5</ele><time>2026-04-12T09:54:02.969Z</time></trkpt><trkpt lat="40.7225883" lon="15.1967133"><ele>531.0</ele><time>2026-04-12T09:54:04.969Z</time></trkpt><trkpt lat="40.72261" lon="15.196635"><ele>531.0</ele><time>2026-04-12T09:54:08.969Z</time></trkpt><trkpt lat="40.722635" lon="15.1965583"><ele>531.0</ele><time>2026-04-12T09:54:47.969Z</time></trkpt><trkpt lat="40.7226667" lon="15.19647"><ele>531.0</ele><time>2026-04-12T09:54:49.969Z</time></trkpt><trkpt lat="40.7226983" lon="15.19637"><ele>531.0</ele><time>2026-04-12T09:54:51.969Z</time></trkpt><trkpt lat="40.7227433" lon="15.1962767"><ele>531.0</ele><time>2026-04-12T09:54:53.969Z</time></trkpt><trkpt lat="40.7227833" lon="15.19614"><ele>531.0</ele><time>2026-04-12T09:54:55.969Z</time></trkpt><trkpt lat="40.7227933" lon="15.1960533"><ele>534.5</ele><time>2026-04-12T09:54:56.969Z</time></trkpt><trkpt lat="40.722805" lon="15.1959583"><ele>538.0</ele><time>2026-04-12T09:54:57.97Z</time></trkpt><trkpt lat="40.7228217" lon="15.195865"><ele>541.5</ele><time>2026-04-12T09:54:58.97Z</time></trkpt><trkpt lat="40.7228433" lon="15.195775"><ele>545.0</ele><time>2026-04-12T09:54:59.969Z</time></trkpt><trkpt lat="40.722865" lon="15.19568"><ele>548.5</ele><time>2026-04-12T09:55:00.969Z</time></trkpt><trkpt lat="40.7228833" lon="15.1955917"><ele>552.0</ele><time>2026-04-12T09:55:01.97Z</time></trkpt><trkpt lat="40.7229083" lon="15.1954483"><ele>553.5</ele><time>2026-04-12T09:55:03.97Z</time></trkpt><trkpt lat="40.7229317" lon="15.1953367"><ele>555.0</ele><time>2026-04-12T09:55:05.969Z</time></trkpt><trkpt lat="40.722955" lon="15.1951917"><ele>556.5</ele><time>2026-04-12T09:55:07.969Z</time></trkpt><trkpt lat="40.7229667" lon="15.19511"><ele>558.0</ele><time>2026-04-12T09:55:08.969Z</time></trkpt><trkpt lat="40.7229767" lon="15.1950183"><ele>559.5</ele><time>2026-04-12T09:55:09.969Z</time></trkpt><trkpt lat="40.722985" lon="15.1949217"><ele>561.0</ele><time>2026-04-12T09:55:10.97Z</time></trkpt><trkpt lat="40.7229983" lon="15.1948183"><ele>562.8571428571429</ele><time>2026-04-12T09:55:11.969Z</time></trkpt><trkpt lat="40.7230133" lon="15.1947267"><ele>564.7142857142857</ele><time>2026-04-12T09:55:12.969Z</time></trkpt><trkpt lat="40.7230267" lon="15.1946317"><ele>566.5714285714286</ele><time>2026-04-12T09:55:13.969Z</time></trkpt><trkpt lat="40.7230367" lon="15.1945283"><ele>568.4285714285714</ele><time>2026-04-12T09:55:14.969Z</time></trkpt><trkpt lat="40.723045" lon="15.1944267"><ele>570.2857142857142</ele><time>2026-04-12T09:55:15.97Z</time></trkpt><trkpt lat="40.7230517" lon="15.194335"><ele>572.1428571428571</ele><time>2026-04-12T09:55:16.969Z</time></trkpt><trkpt lat="40.723055" lon="15.1942467"><ele>574.0</ele><time>2026-04-12T09:55:17.969Z</time></trkpt><trkpt lat="40.723055" lon="15.1941583"><ele>574.0</ele><time>2026-04-12T09:55:18.969Z</time></trkpt><trkpt lat="40.7230517" lon="15.19407"><ele>574.0</ele><time>2026-04-12T09:55:19.969Z</time></trkpt><trkpt lat="40.72307" lon="15.1939067"><ele>574.0</ele><time>2026-04-12T09:55:21.969Z</time></trkpt><trkpt lat="40.723095" lon="15.1938233"><ele>574.0</ele><time>2026-04-12T09:55:22.969Z</time></trkpt><trkpt lat="40.7231283" lon="15.1937467"><ele>574.0</ele><time>2026-04-12T09:55:23.969Z</time></trkpt><trkpt lat="40.7231617" lon="15.193675"><ele>574.0</ele><time>2026-04-12T09:55:24.969Z</time></trkpt><trkpt lat="40.72322" lon="15.1935417"><ele>574.0</ele><time>2026-04-12T09:55:26.97Z</time></trkpt><trkpt lat="40.723275" lon="15.1933933"><ele>574.0</ele><time>2026-04-12T09:55:28.969Z</time></trkpt><trkpt lat="40.72332" lon="15.1932383"><ele>574.0</ele><time>2026-04-12T09:55:30.969Z</time></trkpt><trkpt lat="40.7233433" lon="15.1931533"><ele>574.0</ele><time>2026-04-12T09:55:31.969Z</time></trkpt><trkpt lat="40.723375" lon="15.1930117"><ele>574.0</ele><time>2026-04-12T09:55:33.969Z</time></trkpt><trkpt lat="40.7233683" lon="15.1928883"><ele>574.6666666666667</ele><time>2026-04-12T09:55:35.97Z</time></trkpt><trkpt lat="40.72335" lon="15.19277"><ele>575.3333333333334</ele><time>2026-04-12T09:55:37.969Z</time></trkpt><trkpt lat="40.723335" lon="15.192675"><ele>576.0</ele><time>2026-04-12T09:55:39.969Z</time></trkpt><trkpt lat="40.7233217" lon="15.1925817"><ele>576.6666666666666</ele><time>2026-04-12T09:55:41.969Z</time></trkpt><trkpt lat="40.7232917" lon="15.19248"><ele>577.3333333333333</ele><time>2026-04-12T09:55:43.969Z</time></trkpt><trkpt lat="40.7232367" lon="15.192375"><ele>578.0</ele><time>2026-04-12T09:55:45.969Z</time></trkpt><trkpt lat="40.7231917" lon="15.1922817"><ele>578.0</ele><time>2026-04-12T09:55:47.969Z</time></trkpt><trkpt lat="40.7232583" lon="15.192365"><ele>578.0</ele><time>2026-04-12T10:09:55.965Z</time></trkpt><trkpt lat="40.7233033" lon="15.1924317"><ele>578.0</ele><time>2026-04-12T10:09:57.964Z</time></trkpt><trkpt lat="40.7233433" lon="15.19251"><ele>578.0</ele><time>2026-04-12T10:09:59.964Z</time></trkpt><trkpt lat="40.723375" lon="15.1926017"><ele>578.0</ele><time>2026-04-12T10:10:01.964Z</time></trkpt><trkpt lat="40.7233883" lon="15.1926833"><ele>578.0</ele><time>2026-04-12T10:10:03.964Z</time></trkpt><trkpt lat="40.7234" lon="15.1927683"><ele>578.0</ele><time>2026-04-12T10:10:05.964Z</time></trkpt><trkpt lat="40.72341" lon="15.19288"><ele>578.0</ele><time>2026-04-12T10:10:07.964Z</time></trkpt><trkpt lat="40.72341" lon="15.1929917"><ele>578.0</ele><time>2026-04-12T10:10:09.964Z</time></trkpt><trkpt lat="40.7233983" lon="15.1931"><ele>578.0</ele><time>2026-04-12T10:10:11.964Z</time></trkpt><trkpt lat="40.72337" lon="15.193205"><ele>578.0</ele><time>2026-04-12T10:10:13.964Z</time></trkpt><trkpt lat="40.7233367" lon="15.1933017"><ele>578.0</ele><time>2026-04-12T10:10:15.964Z</time></trkpt><trkpt lat="40.7233" lon="15.1933967"><ele>578.0</ele><time>2026-04-12T10:10:17.964Z</time></trkpt><trkpt lat="40.7232517" lon="15.1935"><ele>577.3333333333333</ele><time>2026-04-12T10:10:19.964Z</time></trkpt><trkpt lat="40.7232033" lon="15.1935967"><ele>576.6666666666666</ele><time>2026-04-12T10:10:21.964Z</time></trkpt><trkpt lat="40.7231683" lon="15.193695"><ele>576.0</ele><time>2026-04-12T10:10:23.964Z</time></trkpt><trkpt lat="40.723125" lon="15.1937917"><ele>575.3333333333334</ele><time>2026-04-12T10:10:25.964Z</time></trkpt><trkpt lat="40.7230933" lon="15.1939033"><ele>574.6666666666667</ele><time>2026-04-12T10:10:27.964Z</time></trkpt><trkpt lat="40.7230783" lon="15.194015"><ele>574.0</ele><time>2026-04-12T10:10:29.964Z</time></trkpt><trkpt lat="40.72308" lon="15.1941283"><ele>574.0</ele><time>2026-04-12T10:10:31.964Z</time></trkpt><trkpt lat="40.723075" lon="15.19425"><ele>574.0</ele><time>2026-04-12T10:10:33.964Z</time></trkpt><trkpt lat="40.723065" lon="15.19437"><ele>574.0</ele><time>2026-04-12T10:10:35.965Z</time></trkpt><trkpt lat="40.723055" lon="15.1944833"><ele>574.0</ele><time>2026-04-12T10:10:37.964Z</time></trkpt><trkpt lat="40.7230483" lon="15.1946"><ele>574.0</ele><time>2026-04-12T10:10:39.964Z</time></trkpt><trkpt lat="40.7230383" lon="15.1947183"><ele>574.0</ele><time>2026-04-12T10:10:41.964Z</time></trkpt><trkpt lat="40.7230217" lon="15.1948383"><ele>571.4</ele><time>2026-04-12T10:10:43.964Z</time></trkpt><trkpt lat="40.72301" lon="15.1949567"><ele>568.8</ele><time>2026-04-12T10:10:45.964Z</time></trkpt><trkpt lat="40.7230017" lon="15.1950833"><ele>566.2</ele><time>2026-04-12T10:10:47.964Z</time></trkpt><trkpt lat="40.7229883" lon="15.1952083"><ele>563.6</ele><time>2026-04-12T10:10:49.964Z</time></trkpt><trkpt lat="40.722975" lon="15.1953217"><ele>561.0</ele><time>2026-04-12T10:10:51.964Z</time></trkpt><trkpt lat="40.7229483" lon="15.1954383"><ele>561.0</ele><time>2026-04-12T10:10:53.964Z</time></trkpt><trkpt lat="40.72292" lon="15.195555"><ele>561.0</ele><time>2026-04-12T10:10:55.964Z</time></trkpt><trkpt lat="40.7228917" lon="15.1956833"><ele>561.0</ele><time>2026-04-12T10:10:57.964Z</time></trkpt><trkpt lat="40.7228667" lon="15.1958167"><ele>561.0</ele><time>2026-04-12T10:10:59.964Z</time></trkpt><trkpt lat="40.722845" lon="15.195955"><ele>561.0</ele><time>2026-04-12T10:11:01.964Z</time></trkpt><trkpt lat="40.7228317" lon="15.1960717"><ele>559.5</ele><time>2026-04-12T10:11:03.964Z</time></trkpt><trkpt lat="40.7228117" lon="15.1961817"><ele>558.0</ele><time>2026-04-12T10:11:05.964Z</time></trkpt><trkpt lat="40.72277" lon="15.1962783"><ele>556.5</ele><time>2026-04-12T10:11:07.964Z</time></trkpt><trkpt lat="40.7227183" lon="15.196375"><ele>555.0</ele><time>2026-04-12T10:11:09.964Z</time></trkpt><trkpt lat="40.7226933" lon="15.196485"><ele>553.5</ele><time>2026-04-12T10:11:11.964Z</time></trkpt><trkpt lat="40.7226717" lon="15.1965967"><ele>552.0</ele><time>2026-04-12T10:11:13.964Z</time></trkpt><trkpt lat="40.7226217" lon="15.1966917"><ele>550.0</ele><time>2026-04-12T10:11:16.964Z</time></trkpt><trkpt lat="40.7225667" lon="15.196645"><ele>548.0</ele><time>2026-04-12T10:11:19.964Z</time></trkpt><trkpt lat="40.722585" lon="15.1965533"><ele>546.0</ele><time>2026-04-12T10:11:45.965Z</time></trkpt><trkpt lat="40.7225733" lon="15.196465"><ele>544.0</ele><time>2026-04-12T10:11:47.964Z</time></trkpt><trkpt lat="40.7225417" lon="15.1963633"><ele>542.0</ele><time>2026-04-12T10:11:50.964Z</time></trkpt><trkpt lat="40.7225" lon="15.1962767"><ele>540.0</ele><time>2026-04-12T10:11:54.964Z</time></trkpt><trkpt lat="40.722455" lon="15.1962017"><ele>538.0</ele><time>2026-04-12T10:11:57.964Z</time></trkpt><trkpt lat="40.7223983" lon="15.196115"><ele>538.0</ele><time>2026-04-12T10:12:00.965Z</time></trkpt><trkpt lat="40.7223283" lon="15.19606"><ele>538.0</ele><time>2026-04-12T10:12:05.964Z</time></trkpt><trkpt lat="40.7222633" lon="15.1960133"><ele>538.0</ele><time>2026-04-12T10:12:08.964Z</time></trkpt><trkpt lat="40.7222083" lon="15.1959367"><ele>538.0</ele><time>2026-04-12T10:12:11.964Z</time></trkpt><trkpt lat="40.72215" lon="15.1958517"><ele>538.0</ele><time>2026-04-12T10:12:14.964Z</time></trkpt><trkpt lat="40.7221183" lon="15.1957767"><ele>538.0</ele><time>2026-04-12T10:12:16.964Z</time></trkpt><trkpt lat="40.7220833" lon="15.1956883"><ele>538.5</ele><time>2026-04-12T10:12:18.965Z</time></trkpt><trkpt lat="40.72203" lon="15.1956"><ele>539.0</ele><time>2026-04-12T10:12:47.964Z</time></trkpt><trkpt lat="40.7219783" lon="15.195525"><ele>539.5</ele><time>2026-04-12T10:12:49.964Z</time></trkpt><trkpt lat="40.7219467" lon="15.1954483"><ele>540.0</ele><time>2026-04-12T10:12:51.964Z</time></trkpt><trkpt lat="40.7219083" lon="15.1953467"><ele>540.5</ele><time>2026-04-12T10:12:54.964Z</time></trkpt><trkpt lat="40.7218833" lon="15.1952517"><ele>541.0</ele><time>2026-04-12T10:12:57.963Z</time></trkpt><trkpt lat="40.721905" lon="15.1953767"><ele>541.0</ele><time>2026-04-12T10:23:40.96Z</time></trkpt><trkpt lat="40.721955" lon="15.1954933"><ele>541.0</ele><time>2026-04-12T10:23:42.96Z</time></trkpt><trkpt lat="40.7220217" lon="15.1956083"><ele>541.0</ele><time>2026-04-12T10:23:44.96Z</time></trkpt><trkpt lat="40.7220817" lon="15.1957117"><ele>541.0</ele><time>2026-04-12T10:23:46.96Z</time></trkpt><trkpt lat="40.7221317" lon="15.1958167"><ele>541.0</ele><time>2026-04-12T10:23:48.96Z</time></trkpt><trkpt lat="40.7221817" lon="15.1959217"><ele>540.5</ele><time>2026-04-12T10:23:51.96Z</time></trkpt><trkpt lat="40.7222217" lon="15.1959933"><ele>540.0</ele><time>2026-04-12T10:23:53.96Z</time></trkpt><trkpt lat="40.722285" lon="15.196055"><ele>539.5</ele><time>2026-04-12T10:23:55.96Z</time></trkpt><trkpt lat="40.7223717" lon="15.1961217"><ele>539.0</ele><time>2026-04-12T10:23:57.96Z</time></trkpt><trkpt lat="40.7224617" lon="15.1962217"><ele>538.5</ele><time>2026-04-12T10:23:59.96Z</time></trkpt><trkpt lat="40.7225017" lon="15.1962867"><ele>538.0</ele><time>2026-04-12T10:24:00.96Z</time></trkpt><trkpt lat="40.7225533" lon="15.196405"><ele>536.6</ele><time>2026-04-12T10:24:02.96Z</time></trkpt><trkpt lat="40.7225783" lon="15.1965283"><ele>535.1999999999999</ele><time>2026-04-12T10:24:04.96Z</time></trkpt><trkpt lat="40.7225733" lon="15.1966267"><ele>533.8</ele><time>2026-04-12T10:24:07.96Z</time></trkpt><trkpt lat="40.7225883" lon="15.1967467"><ele>532.4</ele><time>2026-04-12T10:32:41.957Z</time></trkpt><trkpt lat="40.7225867" lon="15.19687"><ele>531.0</ele><time>2026-04-12T10:32:43.957Z</time></trkpt><trkpt lat="40.7225617" lon="15.19701"><ele>531.0</ele><time>2026-04-12T10:32:45.957Z</time></trkpt><trkpt lat="40.722545" lon="15.1971567"><ele>531.0</ele><time>2026-04-12T10:32:47.957Z</time></trkpt><trkpt lat="40.7225633" lon="15.1973067"><ele>531.0</ele><time>2026-04-12T10:32:49.957Z</time></trkpt><trkpt lat="40.7225933" lon="15.197465"><ele>531.0</ele><time>2026-04-12T10:32:51.957Z</time></trkpt><trkpt lat="40.7226333" lon="15.1976167"><ele>531.1666666666666</ele><time>2026-04-12T10:32:53.957Z</time></trkpt><trkpt lat="40.7226917" lon="15.1977567"><ele>531.3333333333334</ele><time>2026-04-12T10:32:55.958Z</time></trkpt><trkpt lat="40.72272" lon="15.1978317"><ele>531.5</ele><time>2026-04-12T10:32:56.957Z</time></trkpt><trkpt lat="40.7227467" lon="15.197915"><ele>531.6666666666667</ele><time>2026-04-12T10:32:57.957Z</time></trkpt><trkpt lat="40.722775" lon="15.1979967"><ele>531.8333333333334</ele><time>2026-04-12T10:32:58.957Z</time></trkpt><trkpt lat="40.7228017" lon="15.19808"><ele>532.0</ele><time>2026-04-12T10:32:59.957Z</time></trkpt><trkpt lat="40.722825" lon="15.1981617"><ele>529.8571428571429</ele><time>2026-04-12T10:33:00.957Z</time></trkpt><trkpt lat="40.7228517" lon="15.1982417"><ele>527.7142857142858</ele><time>2026-04-12T10:33:01.957Z</time></trkpt><trkpt lat="40.722875" lon="15.1983267"><ele>525.5714285714286</ele><time>2026-04-12T10:33:02.957Z</time></trkpt><trkpt lat="40.722905" lon="15.198415"><ele>523.4285714285714</ele><time>2026-04-12T10:33:03.957Z</time></trkpt><trkpt lat="40.722935" lon="15.1985033"><ele>521.2857142857143</ele><time>2026-04-12T10:33:04.957Z</time></trkpt><trkpt lat="40.722965" lon="15.1985933"><ele>519.1428571428571</ele><time>2026-04-12T10:33:05.957Z</time></trkpt><trkpt lat="40.722995" lon="15.19869"><ele>517.0</ele><time>2026-04-12T10:33:06.957Z</time></trkpt><trkpt lat="40.723025" lon="15.19879"><ele>517.0</ele><time>2026-04-12T10:33:07.957Z</time></trkpt><trkpt lat="40.723055" lon="15.1988967"><ele>517.0</ele><time>2026-04-12T10:33:08.957Z</time></trkpt><trkpt lat="40.7230867" lon="15.199005"><ele>517.0</ele><time>2026-04-12T10:33:09.957Z</time></trkpt><trkpt lat="40.7231133" lon="15.1991133"><ele>517.0</ele><time>2026-04-12T10:33:10.957Z</time></trkpt><trkpt lat="40.72314" lon="15.19922"><ele>517.0</ele><time>2026-04-12T10:33:11.957Z</time></trkpt><trkpt lat="40.7231717" lon="15.1993217"><ele>517.0</ele><time>2026-04-12T10:33:12.957Z</time></trkpt><trkpt lat="40.723205" lon="15.1994267"><ele>515.1666666666667</ele><time>2026-04-12T10:33:13.957Z</time></trkpt><trkpt lat="40.7232417" lon="15.1995283"><ele>513.3333333333334</ele><time>2026-04-12T10:33:14.957Z</time></trkpt><trkpt lat="40.7232867" lon="15.19962"><ele>511.5</ele><time>2026-04-12T10:33:15.957Z</time></trkpt><trkpt lat="40.7233383" lon="15.1997"><ele>509.66666666666663</ele><time>2026-04-12T10:33:16.957Z</time></trkpt><trkpt lat="40.7234033" lon="15.19975"><ele>507.8333333333333</ele><time>2026-04-12T10:33:17.957Z</time></trkpt><trkpt lat="40.7234767" lon="15.1997783"><ele>506.0</ele><time>2026-04-12T10:33:18.957Z</time></trkpt><trkpt lat="40.72356" lon="15.199785"><ele>505.66666666666663</ele><time>2026-04-12T10:33:19.957Z</time></trkpt><trkpt lat="40.723645" lon="15.1997883"><ele>505.3333333333333</ele><time>2026-04-12T10:33:20.957Z</time></trkpt><trkpt lat="40.72372" lon="15.1997983"><ele>505.0</ele><time>2026-04-12T10:33:21.957Z</time></trkpt><trkpt lat="40.7237917" lon="15.1998283"><ele>504.66666666666663</ele><time>2026-04-12T10:33:22.957Z</time></trkpt><trkpt lat="40.7238567" lon="15.1998817"><ele>504.3333333333333</ele><time>2026-04-12T10:33:23.957Z</time></trkpt><trkpt lat="40.72392" lon="15.19995"><ele>504.0</ele><time>2026-04-12T10:33:24.957Z</time></trkpt><trkpt lat="40.72398" lon="15.2000283"><ele>501.8333333333333</ele><time>2026-04-12T10:33:25.957Z</time></trkpt><trkpt lat="40.7240483" lon="15.200105"><ele>499.66666666666663</ele><time>2026-04-12T10:33:26.957Z</time></trkpt><trkpt lat="40.7241183" lon="15.2001867"><ele>497.5</ele><time>2026-04-12T10:33:27.957Z</time></trkpt><trkpt lat="40.7241833" lon="15.2002667"><ele>495.3333333333333</ele><time>2026-04-12T10:33:28.957Z</time></trkpt><trkpt lat="40.7242483" lon="15.2003483"><ele>493.16666666666663</ele><time>2026-04-12T10:33:29.958Z</time></trkpt><trkpt lat="40.7243083" lon="15.200425"><ele>491.0</ele><time>2026-04-12T10:33:30.957Z</time></trkpt><trkpt lat="40.7243583" lon="15.2005167"><ele>490.8</ele><time>2026-04-12T10:33:31.957Z</time></trkpt><trkpt lat="40.724405" lon="15.2006167"><ele>490.6</ele><time>2026-04-12T10:33:32.957Z</time></trkpt><trkpt lat="40.7244533" lon="15.2007217"><ele>490.4</ele><time>2026-04-12T10:33:33.958Z</time></trkpt><trkpt lat="40.7244983" lon="15.2008317"><ele>490.2</ele><time>2026-04-12T10:33:34.957Z</time></trkpt><trkpt lat="40.7245467" lon="15.2009383"><ele>490.0</ele><time>2026-04-12T10:33:35.957Z</time></trkpt><trkpt lat="40.7245933" lon="15.2010517"><ele>487.33333333333337</ele><time>2026-04-12T10:33:36.957Z</time></trkpt><trkpt lat="40.7246383" lon="15.2011567"><ele>484.6666666666667</ele><time>2026-04-12T10:33:37.957Z</time></trkpt><trkpt lat="40.7246867" lon="15.201255"><ele>482.0</ele><time>2026-04-12T10:33:38.958Z</time></trkpt><trkpt lat="40.7247233" lon="15.201355"><ele>479.33333333333337</ele><time>2026-04-12T10:33:39.957Z</time></trkpt><trkpt lat="40.7247567" lon="15.2014583"><ele>476.6666666666667</ele><time>2026-04-12T10:33:40.957Z</time></trkpt><trkpt lat="40.7247783" lon="15.2015517"><ele>474.0</ele><time>2026-04-12T10:33:41.957Z</time></trkpt><trkpt lat="40.7247783" lon="15.201685"><ele>471.79999999999995</ele><time>2026-04-12T10:33:43.957Z</time></trkpt><trkpt lat="40.7247483" lon="15.2017767"><ele>469.59999999999997</ele><time>2026-04-12T10:33:46.957Z</time></trkpt><trkpt lat="40.72469" lon="15.2018233"><ele>467.4</ele><time>2026-04-12T10:33:48.958Z</time></trkpt><trkpt lat="40.7245933" lon="15.20188"><ele>465.2</ele><time>2026-04-12T10:33:50.957Z</time></trkpt><trkpt lat="40.7244783" lon="15.2019483"><ele>463.0</ele><time>2026-04-12T10:33:52.957Z</time></trkpt><trkpt lat="40.72441" lon="15.2019883"><ele>464.50000000000006</ele><time>2026-04-12T10:33:53.957Z</time></trkpt><trkpt lat="40.72435" lon="15.2020217"><ele>466.0</ele><time>2026-04-12T10:33:54.957Z</time></trkpt><trkpt lat="40.7242867" lon="15.202055"><ele>467.5</ele><time>2026-04-12T10:33:55.957Z</time></trkpt><trkpt lat="40.72422" lon="15.2020983"><ele>469.0</ele><time>2026-04-12T10:33:56.957Z</time></trkpt><trkpt lat="40.7241467" lon="15.2021417"><ele>470.50000000000006</ele><time>2026-04-12T10:33:57.957Z</time></trkpt><trkpt lat="40.7240733" lon="15.2021883"><ele>472.0</ele><time>2026-04-12T10:33:58.957Z</time></trkpt><trkpt lat="40.723995" lon="15.2022367"><ele>472.00000000000006</ele><time>2026-04-12T10:33:59.958Z</time></trkpt><trkpt lat="40.72392" lon="15.2022883"><ele>472.0</ele><time>2026-04-12T10:34:00.957Z</time></trkpt><trkpt lat="40.7238483" lon="15.2023517"><ele>472.0</ele><time>2026-04-12T10:34:01.957Z</time></trkpt><trkpt lat="40.7237733" lon="15.20242"><ele>472.0</ele><time>2026-04-12T10:34:02.957Z</time></trkpt><trkpt lat="40.7236983" lon="15.2024817"><ele>472.00000000000006</ele><time>2026-04-12T10:34:03.957Z</time></trkpt><trkpt lat="40.723625" lon="15.2025383"><ele>472.0</ele><time>2026-04-12T10:34:04.957Z</time></trkpt><trkpt lat="40.7235433" lon="15.2025883"><ele>469.20000000000005</ele><time>2026-04-12T10:34:05.957Z</time></trkpt><trkpt lat="40.723455" lon="15.2026317"><ele>466.40000000000003</ele><time>2026-04-12T10:34:06.957Z</time></trkpt><trkpt lat="40.7233667" lon="15.202675"><ele>463.59999999999997</ele><time>2026-04-12T10:34:07.957Z</time></trkpt><trkpt lat="40.7232783" lon="15.2027167"><ele>460.79999999999995</ele><time>2026-04-12T10:34:08.958Z</time></trkpt><trkpt lat="40.7231967" lon="15.2027583"><ele>458.0</ele><time>2026-04-12T10:34:09.957Z</time></trkpt><trkpt lat="40.723105" lon="15.2027983"><ele>458.0</ele><time>2026-04-12T10:34:10.957Z</time></trkpt><trkpt lat="40.7230167" lon="15.20284"><ele>457.99999999999994</ele><time>2026-04-12T10:34:11.957Z</time></trkpt><trkpt lat="40.7229267" lon="15.2028933"><ele>457.99999999999994</ele><time>2026-04-12T10:34:12.957Z</time></trkpt><trkpt lat="40.722835" lon="15.2029167"><ele>458.0</ele><time>2026-04-12T10:34:13.957Z</time></trkpt><trkpt lat="40.72275" lon="15.2029267"><ele>458.0</ele><time>2026-04-12T10:34:14.957Z</time></trkpt><trkpt lat="40.7226617" lon="15.202925"><ele>458.16666666666663</ele><time>2026-04-12T10:34:15.957Z</time></trkpt><trkpt lat="40.72257" lon="15.2029317"><ele>458.3333333333333</ele><time>2026-04-12T10:34:16.957Z</time></trkpt><trkpt lat="40.7224833" lon="15.2029583"><ele>458.5</ele><time>2026-04-12T10:34:17.957Z</time></trkpt><trkpt lat="40.7224083" lon="15.20299"><ele>458.66666666666663</ele><time>2026-04-12T10:34:18.957Z</time></trkpt><trkpt lat="40.7223467" lon="15.2030233"><ele>458.8333333333333</ele><time>2026-04-12T10:34:19.957Z</time></trkpt><trkpt lat="40.7222683" lon="15.203055"><ele>459.0</ele><time>2026-04-12T10:34:21.957Z</time></trkpt><trkpt lat="40.7221817" lon="15.202985"><ele>459.0</ele><time>2026-04-12T10:34:24.957Z</time></trkpt><trkpt lat="40.722115" lon="15.2028733"><ele>459.0</ele><time>2026-04-12T10:34:26.957Z</time></trkpt><trkpt lat="40.722035" lon="15.2027317"><ele>459.0</ele><time>2026-04-12T10:34:28.957Z</time></trkpt><trkpt lat="40.7219783" lon="15.20265"><ele>459.0</ele><time>2026-04-12T10:34:29.957Z</time></trkpt><trkpt lat="40.7219233" lon="15.202565"><ele>459.0</ele><time>2026-04-12T10:34:30.957Z</time></trkpt><trkpt lat="40.72186" lon="15.202475"><ele>459.0</ele><time>2026-04-12T10:34:31.957Z</time></trkpt><trkpt lat="40.7217983" lon="15.2023883"><ele>459.0</ele><time>2026-04-12T10:34:32.957Z</time></trkpt><trkpt lat="40.7217367" lon="15.2022967"><ele>459.0</ele><time>2026-04-12T10:34:33.957Z</time></trkpt><trkpt lat="40.72167" lon="15.2022117"><ele>459.0</ele><time>2026-04-12T10:34:34.957Z</time></trkpt><trkpt lat="40.7216067" lon="15.202125"><ele>459.0</ele><time>2026-04-12T10:34:35.957Z</time></trkpt><trkpt lat="40.7215383" lon="15.202035"><ele>461.0</ele><time>2026-04-12T10:34:36.957Z</time></trkpt><trkpt lat="40.7214767" lon="15.201945"><ele>463.0</ele><time>2026-04-12T10:34:37.958Z</time></trkpt><trkpt lat="40.72141" lon="15.2018483"><ele>465.0</ele><time>2026-04-12T10:34:38.958Z</time></trkpt><trkpt lat="40.7213467" lon="15.2017483"><ele>467.0</ele><time>2026-04-12T10:34:39.957Z</time></trkpt><trkpt lat="40.7212817" lon="15.2016517"><ele>469.0</ele><time>2026-04-12T10:34:40.957Z</time></trkpt><trkpt lat="40.721225" lon="15.201555"><ele>470.2</ele><time>2026-04-12T10:34:41.957Z</time></trkpt><trkpt lat="40.7211667" lon="15.201465"><ele>471.4</ele><time>2026-04-12T10:34:42.957Z</time></trkpt><trkpt lat="40.721105" lon="15.201375"><ele>472.6</ele><time>2026-04-12T10:34:43.957Z</time></trkpt><trkpt lat="40.7210467" lon="15.20128"><ele>473.8</ele><time>2026-04-12T10:34:44.957Z</time></trkpt><trkpt lat="40.7209883" lon="15.20119"><ele>475.0</ele><time>2026-04-12T10:34:45.957Z</time></trkpt><trkpt lat="40.7209383" lon="15.2010817"><ele>473.33333333333337</ele><time>2026-04-12T10:34:46.957Z</time></trkpt><trkpt lat="40.7209017" lon="15.2009667"><ele>471.6666666666667</ele><time>2026-04-12T10:34:47.957Z</time></trkpt><trkpt lat="40.7208833" lon="15.2008483"><ele>470.0</ele><time>2026-04-12T10:34:48.957Z</time></trkpt><trkpt lat="40.7208733" lon="15.200735"><ele>468.33333333333337</ele><time>2026-04-12T10:34:49.957Z</time></trkpt><trkpt lat="40.7208567" lon="15.2006367"><ele>466.6666666666667</ele><time>2026-04-12T10:34:50.958Z</time></trkpt><trkpt lat="40.7208183" lon="15.20056"><ele>465.0</ele><time>2026-04-12T10:34:51.957Z</time></trkpt><trkpt lat="40.7207583" lon="15.2004967"><ele>465.0</ele><time>2026-04-12T10:34:52.957Z</time></trkpt><trkpt lat="40.7206817" lon="15.20045"><ele>465.0</ele><time>2026-04-12T10:34:53.957Z</time></trkpt><trkpt lat="40.7205983" lon="15.2004083"><ele>465.0</ele><time>2026-04-12T10:34:54.957Z</time></trkpt><trkpt lat="40.720525" lon="15.20036"><ele>465.0</ele><time>2026-04-12T10:34:55.957Z</time></trkpt><trkpt lat="40.72047" lon="15.20029"><ele>465.0</ele><time>2026-04-12T10:34:56.957Z</time></trkpt><trkpt lat="40.7204267" lon="15.2002033"><ele>465.0</ele><time>2026-04-12T10:34:57.957Z</time></trkpt><trkpt lat="40.7203833" lon="15.2001033"><ele>465.0</ele><time>2026-04-12T10:34:58.957Z</time></trkpt><trkpt lat="40.720335" lon="15.2000017"><ele>465.0</ele><time>2026-04-12T10:34:59.957Z</time></trkpt><trkpt lat="40.7202833" lon="15.19992"><ele>465.0</ele><time>2026-04-12T10:35:00.957Z</time></trkpt><trkpt lat="40.72023" lon="15.19981"><ele>465.0</ele><time>2026-04-12T10:35:01.957Z</time></trkpt><trkpt lat="40.72018" lon="15.199705"><ele>465.0</ele><time>2026-04-12T10:35:02.957Z</time></trkpt><trkpt lat="40.7201267" lon="15.1996033"><ele>465.0</ele><time>2026-04-12T10:35:03.957Z</time></trkpt><trkpt lat="40.7200767" lon="15.1994967"><ele>465.0</ele><time>2026-04-12T10:35:04.957Z</time></trkpt><trkpt lat="40.7200183" lon="15.1993933"><ele>465.0</ele><time>2026-04-12T10:35:05.957Z</time></trkpt><trkpt lat="40.7199617" lon="15.1992817"><ele>465.0</ele><time>2026-04-12T10:35:06.957Z</time></trkpt><trkpt lat="40.7199133" lon="15.1991667"><ele>465.0</ele><time>2026-04-12T10:35:07.957Z</time></trkpt><trkpt lat="40.7198567" lon="15.1990567"><ele>466.0</ele><time>2026-04-12T10:35:08.957Z</time></trkpt><trkpt lat="40.7197967" lon="15.1989517"><ele>467.0</ele><time>2026-04-12T10:35:09.957Z</time></trkpt><trkpt lat="40.7197333" lon="15.1988517"><ele>468.0</ele><time>2026-04-12T10:35:10.957Z</time></trkpt><trkpt lat="40.7196717" lon="15.198745"><ele>469.0</ele><time>2026-04-12T10:35:11.957Z</time></trkpt><trkpt lat="40.7196183" lon="15.1986317"><ele>470.0</ele><time>2026-04-12T10:35:12.957Z</time></trkpt><trkpt lat="40.7195633" lon="15.1985133"><ele>470.0</ele><time>2026-04-12T10:35:13.957Z</time></trkpt><trkpt lat="40.7195083" lon="15.19839"><ele>470.0</ele><time>2026-04-12T10:35:14.957Z</time></trkpt><trkpt lat="40.7194583" lon="15.198265"><ele>470.0</ele><time>2026-04-12T10:35:15.957Z</time></trkpt><trkpt lat="40.7194183" lon="15.1981233"><ele>470.0</ele><time>2026-04-12T10:35:16.957Z</time></trkpt><trkpt lat="40.7193817" lon="15.1979783"><ele>470.0</ele><time>2026-04-12T10:35:17.958Z</time></trkpt><trkpt lat="40.7193567" lon="15.1978333"><ele>467.6</ele><time>2026-04-12T10:35:18.957Z</time></trkpt><trkpt lat="40.7193317" lon="15.1976883"><ele>465.2</ele><time>2026-04-12T10:35:19.957Z</time></trkpt><trkpt lat="40.719305" lon="15.197545"><ele>462.79999999999995</ele><time>2026-04-12T10:35:20.957Z</time></trkpt><trkpt lat="40.7192717" lon="15.1974033"><ele>460.4</ele><time>2026-04-12T10:35:21.957Z</time></trkpt><trkpt lat="40.7192383" lon="15.19727"><ele>458.0</ele><time>2026-04-12T10:35:22.958Z</time></trkpt><trkpt lat="40.719205" lon="15.1971383"><ele>458.0</ele><time>2026-04-12T10:35:23.957Z</time></trkpt><trkpt lat="40.719175" lon="15.1970067"><ele>457.99999999999994</ele><time>2026-04-12T10:35:24.957Z</time></trkpt><trkpt lat="40.71914" lon="15.196875"><ele>457.99999999999994</ele><time>2026-04-12T10:35:25.957Z</time></trkpt><trkpt lat="40.7191067" lon="15.1967417"><ele>458.0</ele><time>2026-04-12T10:35:26.957Z</time></trkpt><trkpt lat="40.719075" lon="15.1966133"><ele>458.0</ele><time>2026-04-12T10:35:27.958Z</time></trkpt><trkpt lat="40.71904" lon="15.1964883"><ele>459.4</ele><time>2026-04-12T10:35:28.957Z</time></trkpt><trkpt lat="40.719" lon="15.1963667"><ele>460.79999999999995</ele><time>2026-04-12T10:35:29.957Z</time></trkpt><trkpt lat="40.7189667" lon="15.196245"><ele>462.2</ele><time>2026-04-12T10:35:30.957Z</time></trkpt><trkpt lat="40.7189367" lon="15.1961267"><ele>463.6</ele><time>2026-04-12T10:35:31.957Z</time></trkpt><trkpt lat="40.7189183" lon="15.19601"><ele>465.0</ele><time>2026-04-12T10:35:32.957Z</time></trkpt><trkpt lat="40.7188917" lon="15.195895"><ele>465.0</ele><time>2026-04-12T10:35:33.957Z</time></trkpt><trkpt lat="40.71887" lon="15.19578"><ele>465.0</ele><time>2026-04-12T10:35:34.957Z</time></trkpt><trkpt lat="40.7188533" lon="15.19566"><ele>465.0</ele><time>2026-04-12T10:35:35.957Z</time></trkpt><trkpt lat="40.7188333" lon="15.1955433"><ele>465.0</ele><time>2026-04-12T10:35:36.957Z</time></trkpt><trkpt lat="40.7188117" lon="15.195425"><ele>465.0</ele><time>2026-04-12T10:35:37.957Z</time></trkpt><trkpt lat="40.718785" lon="15.1953083"><ele>466.0</ele><time>2026-04-12T10:35:38.957Z</time></trkpt><trkpt lat="40.7187533" lon="15.19519"><ele>467.0</ele><time>2026-04-12T10:35:39.957Z</time></trkpt><trkpt lat="40.7187233" lon="15.1950683"><ele>468.0</ele><time>2026-04-12T10:35:40.957Z</time></trkpt><trkpt lat="40.7186967" lon="15.19494"><ele>469.0</ele><time>2026-04-12T10:35:41.958Z</time></trkpt><trkpt lat="40.7186733" lon="15.19481"><ele>470.0</ele><time>2026-04-12T10:35:42.957Z</time></trkpt><trkpt lat="40.7186467" lon="15.1946817"><ele>470.0</ele><time>2026-04-12T10:35:43.958Z</time></trkpt><trkpt lat="40.7186267" lon="15.1945483"><ele>470.0</ele><time>2026-04-12T10:35:44.958Z</time></trkpt><trkpt lat="40.7186" lon="15.1944267"><ele>470.0</ele><time>2026-04-12T10:35:45.957Z</time></trkpt><trkpt lat="40.7185717" lon="15.19431"><ele>470.0</ele><time>2026-04-12T10:35:46.958Z</time></trkpt><trkpt lat="40.7185417" lon="15.1942033"><ele>470.0</ele><time>2026-04-12T10:35:47.957Z</time></trkpt><trkpt lat="40.7185017" lon="15.1941067"><ele>468.16666666666663</ele><time>2026-04-12T10:35:48.957Z</time></trkpt><trkpt lat="40.718455" lon="15.194015"><ele>466.3333333333333</ele><time>2026-04-12T10:35:49.957Z</time></trkpt><trkpt lat="40.7184017" lon="15.193925"><ele>464.5</ele><time>2026-04-12T10:35:50.957Z</time></trkpt><trkpt lat="40.718345" lon="15.1938383"><ele>462.66666666666663</ele><time>2026-04-12T10:35:51.957Z</time></trkpt><trkpt lat="40.7182917" lon="15.1937483"><ele>460.8333333333333</ele><time>2026-04-12T10:35:52.957Z</time></trkpt><trkpt lat="40.7182483" lon="15.1936533"><ele>459.0</ele><time>2026-04-12T10:35:53.957Z</time></trkpt><trkpt lat="40.7182083" lon="15.1935667"><ele>459.0</ele><time>2026-04-12T10:35:54.957Z</time></trkpt><trkpt lat="40.7181767" lon="15.1934867"><ele>459.0</ele><time>2026-04-12T10:35:55.957Z</time></trkpt><trkpt lat="40.7181183" lon="15.1933533"><ele>459.0</ele><time>2026-04-12T10:35:57.956Z</time></trkpt><trkpt lat="40.7180367" lon="15.1932183"><ele>459.0</ele><time>2026-04-12T10:35:59.956Z</time></trkpt><trkpt lat="40.7179817" lon="15.1931533"><ele>459.0</ele><time>2026-04-12T10:36:00.956Z</time></trkpt><trkpt lat="40.7179167" lon="15.1930967"><ele>459.3333333333333</ele><time>2026-04-12T10:36:01.956Z</time></trkpt><trkpt lat="40.7178533" lon="15.19304"><ele>459.66666666666663</ele><time>2026-04-12T10:36:02.956Z</time></trkpt><trkpt lat="40.7177883" lon="15.1929767"><ele>460.0</ele><time>2026-04-12T10:36:03.956Z</time></trkpt><trkpt lat="40.7177217" lon="15.1929117"><ele>460.3333333333333</ele><time>2026-04-12T10:36:04.956Z</time></trkpt><trkpt lat="40.71765" lon="15.1928533"><ele>460.66666666666663</ele><time>2026-04-12T10:36:05.956Z</time></trkpt><trkpt lat="40.7175767" lon="15.19279"><ele>461.0</ele><time>2026-04-12T10:36:06.956Z</time></trkpt><trkpt lat="40.7175" lon="15.1927217"><ele>458.8333333333333</ele><time>2026-04-12T10:36:07.956Z</time></trkpt><trkpt lat="40.7174317" lon="15.19265"><ele>456.66666666666663</ele><time>2026-04-12T10:36:08.956Z</time></trkpt><trkpt lat="40.7173667" lon="15.192585"><ele>454.5</ele><time>2026-04-12T10:36:09.956Z</time></trkpt><trkpt lat="40.7173" lon="15.1925233"><ele>452.33333333333337</ele><time>2026-04-12T10:36:10.956Z</time></trkpt><trkpt lat="40.717235" lon="15.192455"><ele>450.1666666666667</ele><time>2026-04-12T10:36:11.956Z</time></trkpt><trkpt lat="40.7171783" lon="15.1923867"><ele>448.0</ele><time>2026-04-12T10:36:12.956Z</time></trkpt><trkpt lat="40.7171233" lon="15.1923133"><ele>448.0</ele><time>2026-04-12T10:36:13.956Z</time></trkpt><trkpt lat="40.717075" lon="15.19224"><ele>448.0</ele><time>2026-04-12T10:36:14.956Z</time></trkpt><trkpt lat="40.7170283" lon="15.19216"><ele>448.0</ele><time>2026-04-12T10:36:15.956Z</time></trkpt><trkpt lat="40.716985" lon="15.1920817"><ele>448.0</ele><time>2026-04-12T10:36:16.956Z</time></trkpt><trkpt lat="40.7169467" lon="15.192005"><ele>448.0</ele><time>2026-04-12T10:36:17.956Z</time></trkpt><trkpt lat="40.7169083" lon="15.191925"><ele>448.0</ele><time>2026-04-12T10:36:18.956Z</time></trkpt><trkpt lat="40.716875" lon="15.1918433"><ele>448.0</ele><time>2026-04-12T10:36:19.956Z</time></trkpt><trkpt lat="40.7168417" lon="15.1917617"><ele>446.50000000000006</ele><time>2026-04-12T10:36:20.956Z</time></trkpt><trkpt lat="40.716805" lon="15.191685"><ele>445.0</ele><time>2026-04-12T10:36:21.956Z</time></trkpt><trkpt lat="40.7167667" lon="15.1916083"><ele>443.5</ele><time>2026-04-12T10:36:22.956Z</time></trkpt><trkpt lat="40.7167333" lon="15.1915367"><ele>442.0</ele><time>2026-04-12T10:36:23.956Z</time></trkpt><trkpt lat="40.7166733" lon="15.19142"><ele>440.50000000000006</ele><time>2026-04-12T10:36:25.956Z</time></trkpt><trkpt lat="40.716635" lon="15.1913167"><ele>439.0</ele><time>2026-04-12T10:36:37.957Z</time></trkpt><trkpt lat="40.7166833" lon="15.191215"><ele>439.00000000000006</ele><time>2026-04-12T10:36:39.956Z</time></trkpt><trkpt lat="40.7167883" lon="15.191145"><ele>439.0</ele><time>2026-04-12T10:36:41.956Z</time></trkpt><trkpt lat="40.716845" lon="15.1911033"><ele>439.0</ele><time>2026-04-12T10:36:42.956Z</time></trkpt><trkpt lat="40.716905" lon="15.1910517"><ele>439.0</ele><time>2026-04-12T10:36:43.956Z</time></trkpt><trkpt lat="40.7169667" lon="15.1909967"><ele>439.00000000000006</ele><time>2026-04-12T10:36:44.956Z</time></trkpt><trkpt lat="40.7170317" lon="15.190945"><ele>439.0</ele><time>2026-04-12T10:36:45.956Z</time></trkpt><trkpt lat="40.7170967" lon="15.1908933"><ele>441.00000000000006</ele><time>2026-04-12T10:36:46.957Z</time></trkpt><trkpt lat="40.7171667" lon="15.19084"><ele>443.0</ele><time>2026-04-12T10:36:47.956Z</time></trkpt><trkpt lat="40.7172317" lon="15.1907883"><ele>445.0</ele><time>2026-04-12T10:36:48.956Z</time></trkpt><trkpt lat="40.7172983" lon="15.190735"><ele>447.0</ele><time>2026-04-12T10:36:49.956Z</time></trkpt><trkpt lat="40.7173667" lon="15.1906767"><ele>449.00000000000006</ele><time>2026-04-12T10:36:50.956Z</time></trkpt><trkpt lat="40.71744" lon="15.1906217"><ele>451.0</ele><time>2026-04-12T10:36:51.956Z</time></trkpt><trkpt lat="40.7175117" lon="15.1905583"><ele>452.33333333333337</ele><time>2026-04-12T10:36:52.956Z</time></trkpt><trkpt lat="40.7175833" lon="15.1904967"><ele>453.6666666666667</ele><time>2026-04-12T10:36:53.956Z</time></trkpt><trkpt lat="40.7176583" lon="15.190435"><ele>455.0</ele><time>2026-04-12T10:36:54.957Z</time></trkpt><trkpt lat="40.7177333" lon="15.1903683"><ele>456.33333333333337</ele><time>2026-04-12T10:36:55.957Z</time></trkpt><trkpt lat="40.7178067" lon="15.190305"><ele>457.6666666666667</ele><time>2026-04-12T10:36:56.956Z</time></trkpt><trkpt lat="40.7178717" lon="15.1902283"><ele>459.0</ele><time>2026-04-12T10:36:57.956Z</time></trkpt><trkpt lat="40.7179333" lon="15.1901533"><ele>461.2</ele><time>2026-04-12T10:36:58.956Z</time></trkpt><trkpt lat="40.7179933" lon="15.1900817"><ele>463.4</ele><time>2026-04-12T10:36:59.956Z</time></trkpt><trkpt lat="40.7180633" lon="15.1900067"><ele>465.6</ele><time>2026-04-12T10:37:00.956Z</time></trkpt><trkpt lat="40.7181383" lon="15.1899383"><ele>467.8</ele><time>2026-04-12T10:37:01.956Z</time></trkpt><trkpt lat="40.7182183" lon="15.18987"><ele>470.0</ele><time>2026-04-12T10:37:02.956Z</time></trkpt><trkpt lat="40.7183017" lon="15.1897933"><ele>471.6</ele><time>2026-04-12T10:37:03.956Z</time></trkpt><trkpt lat="40.71838" lon="15.18972"><ele>473.2</ele><time>2026-04-12T10:37:04.956Z</time></trkpt><trkpt lat="40.7184533" lon="15.189645"><ele>474.79999999999995</ele><time>2026-04-12T10:37:05.956Z</time></trkpt><trkpt lat="40.71852" lon="15.1895667"><ele>476.4</ele><time>2026-04-12T10:37:06.956Z</time></trkpt><trkpt lat="40.7185867" lon="15.189485"><ele>478.0</ele><time>2026-04-12T10:37:07.956Z</time></trkpt><trkpt lat="40.71865" lon="15.1894033"><ele>481.2</ele><time>2026-04-12T10:37:08.956Z</time></trkpt><trkpt lat="40.7187133" lon="15.1893183"><ele>484.4</ele><time>2026-04-12T10:37:09.956Z</time></trkpt><trkpt lat="40.7187817" lon="15.189235"><ele>487.59999999999997</ele><time>2026-04-12T10:37:10.956Z</time></trkpt><trkpt lat="40.7188467" lon="15.1891483"><ele>490.79999999999995</ele><time>2026-04-12T10:37:11.956Z</time></trkpt><trkpt lat="40.71891" lon="15.189055"><ele>494.0</ele><time>2026-04-12T10:37:12.956Z</time></trkpt><trkpt lat="40.7189667" lon="15.188965"><ele>496.6</ele><time>2026-04-12T10:37:13.956Z</time></trkpt><trkpt lat="40.719015" lon="15.1888867"><ele>499.2</ele><time>2026-04-12T10:37:14.956Z</time></trkpt><trkpt lat="40.7190733" lon="15.1888033"><ele>501.80000000000007</ele><time>2026-04-12T10:37:16.956Z</time></trkpt><trkpt lat="40.7191583" lon="15.1887933"><ele>504.40000000000003</ele><time>2026-04-12T10:37:19.956Z</time></trkpt><trkpt lat="40.7192633" lon="15.1889083"><ele>507.0</ele><time>2026-04-12T10:37:21.956Z</time></trkpt><trkpt lat="40.7193233" lon="15.188995"><ele>504.40000000000003</ele><time>2026-04-12T10:37:22.956Z</time></trkpt><trkpt lat="40.7193867" lon="15.189095"><ele>501.80000000000007</ele><time>2026-04-12T10:37:23.957Z</time></trkpt><trkpt lat="40.719455" lon="15.189185"><ele>499.2</ele><time>2026-04-12T10:37:24.956Z</time></trkpt><trkpt lat="40.7195233" lon="15.18927"><ele>496.6</ele><time>2026-04-12T10:37:25.956Z</time></trkpt><trkpt lat="40.7195817" lon="15.1893583"><ele>494.0</ele><time>2026-04-12T10:37:26.956Z</time></trkpt><trkpt lat="40.71963" lon="15.1894367"><ele>496.8333333333333</ele><time>2026-04-12T10:37:27.956Z</time></trkpt><trkpt lat="40.7196583" lon="15.1895283"><ele>499.66666666666663</ele><time>2026-04-12T10:37:28.956Z</time></trkpt><trkpt lat="40.7196667" lon="15.1896183"><ele>502.5</ele><time>2026-04-12T10:37:29.957Z</time></trkpt><trkpt lat="40.719655" lon="15.189715"><ele>505.33333333333337</ele><time>2026-04-12T10:37:30.956Z</time></trkpt><trkpt lat="40.7196433" lon="15.18982"><ele>508.1666666666667</ele><time>2026-04-12T10:37:31.956Z</time></trkpt><trkpt lat="40.7196483" lon="15.18993"><ele>511.0</ele><time>2026-04-12T10:37:32.956Z</time></trkpt><trkpt lat="40.7196633" lon="15.1900367"><ele>511.00000000000006</ele><time>2026-04-12T10:37:33.956Z</time></trkpt><trkpt lat="40.719685" lon="15.1901417"><ele>511.0</ele><time>2026-04-12T10:37:34.956Z</time></trkpt><trkpt lat="40.7197" lon="15.1902433"><ele>511.0</ele><time>2026-04-12T10:37:35.956Z</time></trkpt><trkpt lat="40.719715" lon="15.1903383"><ele>511.0</ele><time>2026-04-12T10:37:36.956Z</time></trkpt><trkpt lat="40.71973" lon="15.190425"><ele>511.00000000000006</ele><time>2026-04-12T10:37:37.956Z</time></trkpt><trkpt lat="40.7197633" lon="15.1905783"><ele>511.0</ele><time>2026-04-12T10:37:39.957Z</time></trkpt><trkpt lat="40.71981" lon="15.19073"><ele>509.8</ele><time>2026-04-12T10:37:41.956Z</time></trkpt><trkpt lat="40.719835" lon="15.1908083"><ele>508.6</ele><time>2026-04-12T10:37:42.956Z</time></trkpt><trkpt lat="40.71988" lon="15.190955"><ele>507.4</ele><time>2026-04-12T10:37:44.956Z</time></trkpt><trkpt lat="40.7199167" lon="15.19111"><ele>506.2</ele><time>2026-04-12T10:37:46.956Z</time></trkpt><trkpt lat="40.7199583" lon="15.1912617"><ele>505.0</ele><time>2026-04-12T10:37:48.956Z</time></trkpt><trkpt lat="40.7199983" lon="15.1913933"><ele>505.00000000000006</ele><time>2026-04-12T10:37:50.956Z</time></trkpt><trkpt lat="40.7200167" lon="15.191475"><ele>505.0</ele><time>2026-04-12T10:37:52.956Z</time></trkpt><trkpt lat="40.72008" lon="15.1915567"><ele>505.0</ele><time>2026-04-12T10:38:41.956Z</time></trkpt><trkpt lat="40.720145" lon="15.1916033"><ele>505.0</ele><time>2026-04-12T10:38:43.956Z</time></trkpt><trkpt lat="40.7202" lon="15.1916567"><ele>505.00000000000006</ele><time>2026-04-12T10:38:45.956Z</time></trkpt><trkpt lat="40.7202667" lon="15.19171"><ele>505.0</ele><time>2026-04-12T10:38:47.956Z</time></trkpt><trkpt lat="40.7203517" lon="15.19178"><ele>506.8</ele><time>2026-04-12T10:38:49.956Z</time></trkpt><trkpt lat="40.72045" lon="15.1918783"><ele>508.6</ele><time>2026-04-12T10:38:51.956Z</time></trkpt><trkpt lat="40.7205017" lon="15.1919367"><ele>510.4</ele><time>2026-04-12T10:38:52.956Z</time></trkpt><trkpt lat="40.7205567" lon="15.1919933"><ele>512.2</ele><time>2026-04-12T10:38:53.956Z</time></trkpt><trkpt lat="40.720655" lon="15.1920783"><ele>514.0</ele><time>2026-04-12T10:38:55.956Z</time></trkpt><trkpt lat="40.7207317" lon="15.192155"><ele>514.0</ele><time>2026-04-12T10:38:57.956Z</time></trkpt><trkpt lat="40.7207883" lon="15.1922467"><ele>514.0</ele><time>2026-04-12T10:38:59.957Z</time></trkpt><trkpt lat="40.7208317" lon="15.1923483"><ele>514.0</ele><time>2026-04-12T10:39:01.956Z</time></trkpt><trkpt lat="40.72087" lon="15.1924467"><ele>514.0</ele><time>2026-04-12T10:39:12.956Z</time></trkpt><trkpt lat="40.720915" lon="15.19256"><ele>514.0</ele><time>2026-04-12T10:39:14.956Z</time></trkpt><trkpt lat="40.7209333" lon="15.19264"><ele>514.0</ele><time>2026-04-12T10:39:15.956Z</time></trkpt><trkpt lat="40.72094" lon="15.1927683"><ele>513.0</ele><time>2026-04-12T10:39:17.956Z</time></trkpt><trkpt lat="40.72092" lon="15.1928567"><ele>512.0</ele><time>2026-04-12T10:39:19.956Z</time></trkpt><trkpt lat="40.72089" lon="15.192955"><ele>511.0</ele><time>2026-04-12T10:39:21.956Z</time></trkpt><trkpt lat="40.7208483" lon="15.1930717"><ele>510.0</ele><time>2026-04-12T10:39:23.956Z</time></trkpt><trkpt lat="40.7208067" lon="15.1932167"><ele>509.00000000000006</ele><time>2026-04-12T10:39:25.956Z</time></trkpt><trkpt lat="40.7207867" lon="15.1933083"><ele>508.0</ele><time>2026-04-12T10:39:26.956Z</time></trkpt><trkpt lat="40.720745" lon="15.1934533"><ele>508.00000000000006</ele><time>2026-04-12T10:39:28.956Z</time></trkpt><trkpt lat="40.72077" lon="15.1935517"><ele>508.0</ele><time>2026-04-12T10:39:30.956Z</time></trkpt><trkpt lat="40.72083" lon="15.1936183"><ele>508.0</ele><time>2026-04-12T10:39:32.956Z</time></trkpt><trkpt lat="40.7209217" lon="15.1936617"><ele>508.0</ele><time>2026-04-12T10:39:34.956Z</time></trkpt><trkpt lat="40.721" lon="15.1937067"><ele>508.00000000000006</ele><time>2026-04-12T10:39:36.956Z</time></trkpt><trkpt lat="40.72108" lon="15.1937133"><ele>508.0</ele><time>2026-04-12T10:39:55.955Z</time></trkpt><trkpt lat="40.72115" lon="15.1936817"><ele>511.1666666666667</ele><time>2026-04-12T10:39:57.955Z</time></trkpt><trkpt lat="40.7212217" lon="15.193675"><ele>514.3333333333334</ele><time>2026-04-12T10:40:00.955Z</time></trkpt><trkpt lat="40.7212967" lon="15.1936533"><ele>517.5</ele><time>2026-04-12T10:40:12.955Z</time></trkpt><trkpt lat="40.721365" lon="15.1936317"><ele>520.6666666666666</ele><time>2026-04-12T10:40:14.955Z</time></trkpt><trkpt lat="40.721385" lon="15.19355"><ele>523.8333333333333</ele><time>2026-04-12T10:40:17.955Z</time></trkpt><trkpt lat="40.7213133" lon="15.193495"><ele>527.0</ele><time>2026-04-12T10:40:21.955Z</time></trkpt><trkpt lat="40.72123" lon="15.193545"><ele>527.0</ele><time>2026-04-12T10:40:24.955Z</time></trkpt><trkpt lat="40.7211817" lon="15.1936017"><ele>527.0</ele><time>2026-04-12T10:40:26.955Z</time></trkpt><trkpt lat="40.7211267" lon="15.1936633"><ele>527.0</ele><time>2026-04-12T10:40:28.955Z</time></trkpt><trkpt lat="40.72105" lon="15.1937133"><ele>527.0</ele><time>2026-04-12T10:40:31.955Z</time></trkpt><trkpt lat="40.7209567" lon="15.1936883"><ele>527.0</ele><time>2026-04-12T10:40:34.955Z</time></trkpt><trkpt lat="40.720895" lon="15.19365"><ele>527.0</ele><time>2026-04-12T10:40:35.956Z</time></trkpt><trkpt lat="40.720835" lon="15.1936083"><ele>523.2</ele><time>2026-04-12T10:40:36.955Z</time></trkpt><trkpt lat="40.72076" lon="15.1935083"><ele>519.4000000000001</ele><time>2026-04-12T10:40:38.955Z</time></trkpt><trkpt lat="40.7207567" lon="15.1933683"><ele>515.5999999999999</ele><time>2026-04-12T10:40:40.955Z</time></trkpt><trkpt lat="40.7207783" lon="15.19329"><ele>511.79999999999995</ele><time>2026-04-12T10:40:41.955Z</time></trkpt><trkpt lat="40.7208233" lon="15.19315"><ele>508.0</ele><time>2026-04-12T10:40:43.955Z</time></trkpt><trkpt lat="40.7208533" lon="15.1930333"><ele>507.79999999999995</ele><time>2026-04-12T10:40:45.955Z</time></trkpt><trkpt lat="40.7208883" lon="15.1929267"><ele>507.59999999999997</ele><time>2026-04-12T10:40:47.955Z</time></trkpt><trkpt lat="40.7209283" lon="15.1928217"><ele>507.40000000000003</ele><time>2026-04-12T10:40:49.955Z</time></trkpt><trkpt lat="40.7209483" lon="15.1927067"><ele>507.20000000000005</ele><time>2026-04-12T10:40:51.955Z</time></trkpt><trkpt lat="40.7209233" lon="15.19257"><ele>507.0</ele><time>2026-04-12T10:40:53.955Z</time></trkpt><trkpt lat="40.7208783" lon="15.1924667"><ele>507.0</ele><time>2026-04-12T10:40:55.955Z</time></trkpt><trkpt lat="40.720845" lon="15.1923867"><ele>507.0</ele><time>2026-04-12T10:40:58.955Z</time></trkpt><trkpt lat="40.72081" lon="15.1923133"><ele>507.0</ele><time>2026-04-12T10:41:00.955Z</time></trkpt><trkpt lat="40.720735" lon="15.1921783"><ele>507.0</ele><time>2026-04-12T10:41:02.955Z</time></trkpt><trkpt lat="40.7206783" lon="15.19211"><ele>507.0</ele><time>2026-04-12T10:41:03.955Z</time></trkpt><trkpt lat="40.7206183" lon="15.1920517"><ele>507.0</ele><time>2026-04-12T10:41:04.955Z</time></trkpt><trkpt lat="40.7205483" lon="15.1919767"><ele>508.40000000000003</ele><time>2026-04-12T10:41:06.955Z</time></trkpt><trkpt lat="40.7204783" lon="15.1919217"><ele>509.80000000000007</ele><time>2026-04-12T10:41:08.955Z</time></trkpt><trkpt lat="40.7203733" lon="15.19184"><ele>511.2</ele><time>2026-04-12T10:41:10.956Z</time></trkpt><trkpt lat="40.7202783" lon="15.19176"><ele>512.6</ele><time>2026-04-12T10:41:12.955Z</time></trkpt><trkpt lat="40.7202117" lon="15.1917"><ele>514.0</ele><time>2026-04-12T10:41:14.955Z</time></trkpt><trkpt lat="40.7201583" lon="15.1916367"><ele>512.5</ele><time>2026-04-12T10:41:17.955Z</time></trkpt><trkpt lat="40.7200917" lon="15.19157"><ele>511.0</ele><time>2026-04-12T10:41:20.955Z</time></trkpt><trkpt lat="40.7200217" lon="15.1914983"><ele>509.5</ele><time>2026-04-12T10:43:44.956Z</time></trkpt><trkpt lat="40.7199983" lon="15.19141"><ele>508.0</ele><time>2026-04-12T10:43:52.955Z</time></trkpt><trkpt lat="40.7199733" lon="15.191275"><ele>506.50000000000006</ele><time>2026-04-12T10:44:06.954Z</time></trkpt><trkpt lat="40.719945" lon="15.19118"><ele>505.0</ele><time>2026-04-12T10:44:08.954Z</time></trkpt><trkpt lat="40.7199167" lon="15.1910817"><ele>505.00000000000006</ele><time>2026-04-12T10:44:10.954Z</time></trkpt><trkpt lat="40.7198833" lon="15.19098"><ele>505.0</ele><time>2026-04-12T10:44:12.954Z</time></trkpt><trkpt lat="40.7198583" lon="15.19087"><ele>505.0</ele><time>2026-04-12T10:44:14.954Z</time></trkpt><trkpt lat="40.7198267" lon="15.1907683"><ele>505.0</ele><time>2026-04-12T10:44:16.954Z</time></trkpt><trkpt lat="40.7198" lon="15.19068"><ele>505.00000000000006</ele><time>2026-04-12T10:44:18.954Z</time></trkpt><trkpt lat="40.7197817" lon="15.1905983"><ele>505.0</ele><time>2026-04-12T10:44:20.955Z</time></trkpt><trkpt lat="40.7197617" lon="15.1904733"><ele>505.85714285714283</ele><time>2026-04-12T10:44:22.954Z</time></trkpt><trkpt lat="40.7197433" lon="15.19039"><ele>506.71428571428567</ele><time>2026-04-12T10:44:23.954Z</time></trkpt><trkpt lat="40.719725" lon="15.1903067"><ele>507.57142857142856</ele><time>2026-04-12T10:44:24.954Z</time></trkpt><trkpt lat="40.7197083" lon="15.190215"><ele>508.42857142857144</ele><time>2026-04-12T10:44:25.954Z</time></trkpt><trkpt lat="40.719685" lon="15.1901183"><ele>509.2857142857143</ele><time>2026-04-12T10:44:26.954Z</time></trkpt><trkpt lat="40.7196583" lon="15.1900217"><ele>510.1428571428571</ele><time>2026-04-12T10:44:27.954Z</time></trkpt><trkpt lat="40.719645" lon="15.1899333"><ele>511.0</ele><time>2026-04-12T10:44:28.954Z</time></trkpt><trkpt lat="40.7196367" lon="15.18984"><ele>513.3333333333334</ele><time>2026-04-12T10:44:29.954Z</time></trkpt><trkpt lat="40.7196417" lon="15.1897467"><ele>515.6666666666667</ele><time>2026-04-12T10:44:30.955Z</time></trkpt><trkpt lat="40.7196567" lon="15.1896533"><ele>518.0</ele><time>2026-04-12T10:44:31.954Z</time></trkpt><trkpt lat="40.7196583" lon="15.1895583"><ele>520.3333333333334</ele><time>2026-04-12T10:44:32.954Z</time></trkpt><trkpt lat="40.7196367" lon="15.1894683"><ele>522.6666666666666</ele><time>2026-04-12T10:44:33.954Z</time></trkpt><trkpt lat="40.71959" lon="15.1893833"><ele>525.0</ele><time>2026-04-12T10:44:34.954Z</time></trkpt><trkpt lat="40.7195333" lon="15.1893017"><ele>525.0</ele><time>2026-04-12T10:44:35.954Z</time></trkpt><trkpt lat="40.7194717" lon="15.18922"><ele>525.0</ele><time>2026-04-12T10:44:36.954Z</time></trkpt><trkpt lat="40.7194083" lon="15.1891433"><ele>525.0</ele><time>2026-04-12T10:44:37.954Z</time></trkpt><trkpt lat="40.7193433" lon="15.1890667"><ele>525.0</ele><time>2026-04-12T10:44:38.954Z</time></trkpt><trkpt lat="40.7192833" lon="15.1889883"><ele>525.0</ele><time>2026-04-12T10:44:39.954Z</time></trkpt><trkpt lat="40.71923" lon="15.18892"><ele>525.0</ele><time>2026-04-12T10:44:40.954Z</time></trkpt><trkpt lat="40.7191817" lon="15.18886"><ele>522.0</ele><time>2026-04-12T10:44:41.954Z</time></trkpt><trkpt lat="40.71911" lon="15.1887833"><ele>519.0</ele><time>2026-04-12T10:44:43.955Z</time></trkpt><trkpt lat="40.7190417" lon="15.1888083"><ele>516.0</ele><time>2026-04-12T10:44:45.954Z</time></trkpt><trkpt lat="40.7189633" lon="15.18894"><ele>513.0</ele><time>2026-04-12T10:44:47.954Z</time></trkpt><trkpt lat="40.718915" lon="15.1890133"><ele>510.0</ele><time>2026-04-12T10:44:48.954Z</time></trkpt><trkpt lat="40.7188633" lon="15.1890917"><ele>507.0</ele><time>2026-04-12T10:44:49.954Z</time></trkpt><trkpt lat="40.7188" lon="15.1891717"><ele>504.40000000000003</ele><time>2026-04-12T10:44:50.954Z</time></trkpt><trkpt lat="40.7187367" lon="15.1892583"><ele>501.80000000000007</ele><time>2026-04-12T10:44:51.954Z</time></trkpt><trkpt lat="40.71867" lon="15.18935"><ele>499.2</ele><time>2026-04-12T10:44:52.954Z</time></trkpt><trkpt lat="40.7186017" lon="15.189445"><ele>496.6</ele><time>2026-04-12T10:44:53.954Z</time></trkpt><trkpt lat="40.7185267" lon="15.1895433"><ele>494.0</ele><time>2026-04-12T10:44:54.954Z</time></trkpt><trkpt lat="40.718445" lon="15.1896433"><ele>490.0</ele><time>2026-04-12T10:44:55.954Z</time></trkpt><trkpt lat="40.7183533" lon="15.1897367"><ele>486.0</ele><time>2026-04-12T10:44:56.954Z</time></trkpt><trkpt lat="40.7182567" lon="15.1898283"><ele>482.0</ele><time>2026-04-12T10:44:57.954Z</time></trkpt><trkpt lat="40.718165" lon="15.1899183"><ele>478.0</ele><time>2026-04-12T10:44:58.954Z</time></trkpt><trkpt lat="40.71807" lon="15.1900017"><ele>476.4</ele><time>2026-04-12T10:44:59.954Z</time></trkpt><trkpt lat="40.71798" lon="15.1900833"><ele>474.79999999999995</ele><time>2026-04-12T10:45:00.954Z</time></trkpt><trkpt lat="40.7178933" lon="15.1901783"><ele>473.2</ele><time>2026-04-12T10:45:01.955Z</time></trkpt><trkpt lat="40.7178033" lon="15.190265"><ele>471.6</ele><time>2026-04-12T10:45:02.955Z</time></trkpt><trkpt lat="40.717715" lon="15.1903533"><ele>470.0</ele><time>2026-04-12T10:45:03.954Z</time></trkpt><trkpt lat="40.7176217" lon="15.1904467"><ele>467.25</ele><time>2026-04-12T10:45:04.954Z</time></trkpt><trkpt lat="40.7175233" lon="15.190535"><ele>464.5</ele><time>2026-04-12T10:45:05.954Z</time></trkpt><trkpt lat="40.7174267" lon="15.1906233"><ele>461.75</ele><time>2026-04-12T10:45:06.954Z</time></trkpt><trkpt lat="40.7173233" lon="15.1907"><ele>459.0</ele><time>2026-04-12T10:45:07.955Z</time></trkpt><trkpt lat="40.71722" lon="15.190775"><ele>457.0</ele><time>2026-04-12T10:45:08.955Z</time></trkpt><trkpt lat="40.7171183" lon="15.1908583"><ele>455.0</ele><time>2026-04-12T10:45:09.954Z</time></trkpt><trkpt lat="40.717015" lon="15.1909417"><ele>453.0</ele><time>2026-04-12T10:45:10.954Z</time></trkpt><trkpt lat="40.7169117" lon="15.19102"><ele>451.0</ele><time>2026-04-12T10:45:11.954Z</time></trkpt><trkpt lat="40.7168167" lon="15.1910917"><ele>449.00000000000006</ele><time>2026-04-12T10:45:12.954Z</time></trkpt><trkpt lat="40.716745" lon="15.1911567"><ele>447.0</ele><time>2026-04-12T10:45:13.954Z</time></trkpt><trkpt lat="40.7166883" lon="15.191205"><ele>445.0</ele><time>2026-04-12T10:45:14.954Z</time></trkpt><trkpt lat="40.71661" lon="15.1912367"><ele>443.0</ele><time>2026-04-12T10:45:16.954Z</time></trkpt><trkpt lat="40.71655" lon="15.19121"><ele>441.00000000000006</ele><time>2026-04-12T10:45:18.954Z</time></trkpt><trkpt lat="40.7164517" lon="15.1910933"><ele>439.0</ele><time>2026-04-12T10:45:20.954Z</time></trkpt><trkpt lat="40.716385" lon="15.19102"><ele>439.00000000000006</ele><time>2026-04-12T10:45:21.954Z</time></trkpt><trkpt lat="40.716315" lon="15.1909433"><ele>439.0</ele><time>2026-04-12T10:45:22.954Z</time></trkpt><trkpt lat="40.71624" lon="15.1908767"><ele>439.0</ele><time>2026-04-12T10:45:23.954Z</time></trkpt><trkpt lat="40.7161633" lon="15.190835"><ele>439.0</ele><time>2026-04-12T10:45:24.954Z</time></trkpt><trkpt lat="40.7160867" lon="15.1908117"><ele>439.00000000000006</ele><time>2026-04-12T10:45:25.954Z</time></trkpt><trkpt lat="40.71601" lon="15.1908067"><ele>439.0</ele><time>2026-04-12T10:45:26.954Z</time></trkpt><trkpt lat="40.715935" lon="15.1908083"><ele>437.00000000000006</ele><time>2026-04-12T10:45:27.954Z</time></trkpt><trkpt lat="40.7158617" lon="15.1908117"><ele>435.0</ele><time>2026-04-12T10:45:28.954Z</time></trkpt><trkpt lat="40.7157833" lon="15.1908267"><ele>433.0</ele><time>2026-04-12T10:45:29.954Z</time></trkpt><trkpt lat="40.7157067" lon="15.1908567"><ele>431.0</ele><time>2026-04-12T10:45:30.954Z</time></trkpt><trkpt lat="40.7156333" lon="15.190905"><ele>429.00000000000006</ele><time>2026-04-12T10:45:31.954Z</time></trkpt><trkpt lat="40.7155633" lon="15.1909683"><ele>427.0</ele><time>2026-04-12T10:45:32.954Z</time></trkpt><trkpt lat="40.715495" lon="15.1910383"><ele>427.0</ele><time>2026-04-12T10:45:33.954Z</time></trkpt><trkpt lat="40.7154183" lon="15.1911133"><ele>427.00000000000006</ele><time>2026-04-12T10:45:34.954Z</time></trkpt><trkpt lat="40.71534" lon="15.191175"><ele>427.00000000000006</ele><time>2026-04-12T10:45:35.954Z</time></trkpt><trkpt lat="40.7152583" lon="15.191225"><ele>427.0</ele><time>2026-04-12T10:45:36.954Z</time></trkpt><trkpt lat="40.7151717" lon="15.1912633"><ele>427.0</ele><time>2026-04-12T10:45:37.954Z</time></trkpt><trkpt lat="40.7150817" lon="15.1913033"><ele>426.50000000000006</ele><time>2026-04-12T10:45:38.955Z</time></trkpt><trkpt lat="40.7150033" lon="15.1913367"><ele>426.0</ele><time>2026-04-12T10:45:39.954Z</time></trkpt><trkpt lat="40.7149333" lon="15.19137"><ele>425.5</ele><time>2026-04-12T10:45:40.954Z</time></trkpt><trkpt lat="40.7148667" lon="15.1914067"><ele>425.0</ele><time>2026-04-12T10:45:41.954Z</time></trkpt><trkpt lat="40.714805" lon="15.1914517"><ele>424.50000000000006</ele><time>2026-04-12T10:45:42.955Z</time></trkpt><trkpt lat="40.7147417" lon="15.191525"><ele>424.0</ele><time>2026-04-12T10:45:43.954Z</time></trkpt><trkpt lat="40.7146767" lon="15.191615"><ele>424.0</ele><time>2026-04-12T10:45:44.954Z</time></trkpt><trkpt lat="40.71461" lon="15.1917033"><ele>424.0</ele><time>2026-04-12T10:45:45.955Z</time></trkpt><trkpt lat="40.7145417" lon="15.1917867"><ele>424.0</ele><time>2026-04-12T10:45:46.954Z</time></trkpt><trkpt lat="40.7144733" lon="15.19187"><ele>424.0</ele><time>2026-04-12T10:45:47.954Z</time></trkpt><trkpt lat="40.7144017" lon="15.191945"><ele>424.0</ele><time>2026-04-12T10:45:48.954Z</time></trkpt><trkpt lat="40.7143167" lon="15.1920017"><ele>426.6</ele><time>2026-04-12T10:45:49.954Z</time></trkpt><trkpt lat="40.7142183" lon="15.1920417"><ele>429.2</ele><time>2026-04-12T10:45:50.954Z</time></trkpt><trkpt lat="40.7141217" lon="15.192075"><ele>431.80000000000007</ele><time>2026-04-12T10:45:51.954Z</time></trkpt><trkpt lat="40.7140217" lon="15.1920967"><ele>434.40000000000003</ele><time>2026-04-12T10:45:52.954Z</time></trkpt><trkpt lat="40.7139233" lon="15.1921117"><ele>437.0</ele><time>2026-04-12T10:45:53.954Z</time></trkpt><trkpt lat="40.7138267" lon="15.1921167"><ele>437.0</ele><time>2026-04-12T10:45:54.954Z</time></trkpt><trkpt lat="40.7137317" lon="15.1921067"><ele>437.00000000000006</ele><time>2026-04-12T10:45:55.954Z</time></trkpt><trkpt lat="40.71364" lon="15.1921"><ele>437.00000000000006</ele><time>2026-04-12T10:45:56.954Z</time></trkpt><trkpt lat="40.7135433" lon="15.1920967"><ele>437.0</ele><time>2026-04-12T10:45:57.954Z</time></trkpt><trkpt lat="40.7134483" lon="15.1920967"><ele>437.0</ele><time>2026-04-12T10:45:58.954Z</time></trkpt><trkpt lat="40.7133567" lon="15.1921067"><ele>438.20000000000005</ele><time>2026-04-12T10:45:59.954Z</time></trkpt><trkpt lat="40.7132567" lon="15.1921167"><ele>439.40000000000003</ele><time>2026-04-12T10:46:00.954Z</time></trkpt><trkpt lat="40.7131567" lon="15.1921267"><ele>440.59999999999997</ele><time>2026-04-12T10:46:01.954Z</time></trkpt><trkpt lat="40.71306" lon="15.1921383"><ele>441.79999999999995</ele><time>2026-04-12T10:46:02.954Z</time></trkpt><trkpt lat="40.7129633" lon="15.1921517"><ele>443.0</ele><time>2026-04-12T10:46:03.954Z</time></trkpt><trkpt lat="40.7128633" lon="15.1921767"><ele>443.0</ele><time>2026-04-12T10:46:04.954Z</time></trkpt><trkpt lat="40.712765" lon="15.1922117"><ele>442.99999999999994</ele><time>2026-04-12T10:46:05.954Z</time></trkpt><trkpt lat="40.7126733" lon="15.1922583"><ele>442.99999999999994</ele><time>2026-04-12T10:46:06.954Z</time></trkpt><trkpt lat="40.7125817" lon="15.1923167"><ele>443.0</ele><time>2026-04-12T10:46:07.954Z</time></trkpt><trkpt lat="40.7124917" lon="15.1923817"><ele>443.0</ele><time>2026-04-12T10:46:08.954Z</time></trkpt><trkpt lat="40.7124017" lon="15.1924483"><ele>441.79999999999995</ele><time>2026-04-12T10:46:09.954Z</time></trkpt><trkpt lat="40.712315" lon="15.1925217"><ele>440.59999999999997</ele><time>2026-04-12T10:46:10.954Z</time></trkpt><trkpt lat="40.7122267" lon="15.1925967"><ele>439.40000000000003</ele><time>2026-04-12T10:46:11.954Z</time></trkpt><trkpt lat="40.71214" lon="15.192675"><ele>438.20000000000005</ele><time>2026-04-12T10:46:12.954Z</time></trkpt><trkpt lat="40.71205" lon="15.19275"><ele>437.0</ele><time>2026-04-12T10:46:13.954Z</time></trkpt><trkpt lat="40.71197" lon="15.1928217"><ele>439.40000000000003</ele><time>2026-04-12T10:46:14.954Z</time></trkpt><trkpt lat="40.7118867" lon="15.1928933"><ele>441.80000000000007</ele><time>2026-04-12T10:46:15.955Z</time></trkpt><trkpt lat="40.7118067" lon="15.1929683"><ele>444.2</ele><time>2026-04-12T10:46:16.954Z</time></trkpt><trkpt lat="40.711725" lon="15.19304"><ele>446.6</ele><time>2026-04-12T10:46:17.954Z</time></trkpt><trkpt lat="40.7116483" lon="15.193105"><ele>449.0</ele><time>2026-04-12T10:46:18.954Z</time></trkpt><trkpt lat="40.711565" lon="15.19317"><ele>447.79999999999995</ele><time>2026-04-12T10:46:19.954Z</time></trkpt><trkpt lat="40.711485" lon="15.193235"><ele>446.59999999999997</ele><time>2026-04-12T10:46:20.954Z</time></trkpt><trkpt lat="40.7114067" lon="15.1933017"><ele>445.4</ele><time>2026-04-12T10:46:21.954Z</time></trkpt><trkpt lat="40.7113283" lon="15.193365"><ele>444.2</ele><time>2026-04-12T10:46:22.954Z</time></trkpt><trkpt lat="40.7112467" lon="15.1934333"><ele>443.0</ele><time>2026-04-12T10:46:23.954Z</time></trkpt><trkpt lat="40.711165" lon="15.1935017"><ele>443.0</ele><time>2026-04-12T10:46:24.954Z</time></trkpt><trkpt lat="40.7110783" lon="15.1935683"><ele>442.99999999999994</ele><time>2026-04-12T10:46:25.954Z</time></trkpt><trkpt lat="40.710995" lon="15.1936317"><ele>442.99999999999994</ele><time>2026-04-12T10:46:26.954Z</time></trkpt><trkpt lat="40.7109117" lon="15.1937067"><ele>443.0</ele><time>2026-04-12T10:46:27.954Z</time></trkpt><trkpt lat="40.7108283" lon="15.1937767"><ele>443.0</ele><time>2026-04-12T10:46:28.954Z</time></trkpt><trkpt lat="40.71074" lon="15.1938433"><ele>443.4</ele><time>2026-04-12T10:46:29.954Z</time></trkpt><trkpt lat="40.7106583" lon="15.1939167"><ele>443.79999999999995</ele><time>2026-04-12T10:46:30.954Z</time></trkpt><trkpt lat="40.7105683" lon="15.1939867"><ele>444.2</ele><time>2026-04-12T10:46:31.954Z</time></trkpt><trkpt lat="40.7104833" lon="15.1940567"><ele>444.6</ele><time>2026-04-12T10:46:32.954Z</time></trkpt><trkpt lat="40.710405" lon="15.1941317"><ele>445.0</ele><time>2026-04-12T10:46:33.954Z</time></trkpt><trkpt lat="40.7103217" lon="15.1942033"><ele>448.4</ele><time>2026-04-12T10:46:34.954Z</time></trkpt><trkpt lat="40.7102383" lon="15.1942833"><ele>451.8</ele><time>2026-04-12T10:46:35.955Z</time></trkpt><trkpt lat="40.7101583" lon="15.194365"><ele>455.20000000000005</ele><time>2026-04-12T10:46:36.955Z</time></trkpt><trkpt lat="40.710075" lon="15.1944483"><ele>458.6</ele><time>2026-04-12T10:46:37.954Z</time></trkpt><trkpt lat="40.70999" lon="15.194535"><ele>462.0</ele><time>2026-04-12T10:46:38.954Z</time></trkpt><trkpt lat="40.7099083" lon="15.1946217"><ele>462.0</ele><time>2026-04-12T10:46:39.954Z</time></trkpt><trkpt lat="40.70983" lon="15.194715"><ele>462.00000000000006</ele><time>2026-04-12T10:46:40.954Z</time></trkpt><trkpt lat="40.7097467" lon="15.1948067"><ele>462.00000000000006</ele><time>2026-04-12T10:46:41.954Z</time></trkpt><trkpt lat="40.70967" lon="15.194895"><ele>462.0</ele><time>2026-04-12T10:46:42.954Z</time></trkpt><trkpt lat="40.7095933" lon="15.1949883"><ele>462.0</ele><time>2026-04-12T10:46:43.954Z</time></trkpt><trkpt lat="40.709515" lon="15.1950767"><ele>463.6</ele><time>2026-04-12T10:46:44.954Z</time></trkpt><trkpt lat="40.7094317" lon="15.1951733"><ele>465.20000000000005</ele><time>2026-04-12T10:46:45.955Z</time></trkpt><trkpt lat="40.7093483" lon="15.1952717"><ele>466.8</ele><time>2026-04-12T10:46:46.954Z</time></trkpt><trkpt lat="40.7092733" lon="15.1953717"><ele>468.4</ele><time>2026-04-12T10:46:47.954Z</time></trkpt><trkpt lat="40.7092017" lon="15.1954783"><ele>470.0</ele><time>2026-04-12T10:46:48.954Z</time></trkpt><trkpt lat="40.70913" lon="15.1955867"><ele>467.99999999999994</ele><time>2026-04-12T10:46:49.954Z</time></trkpt><trkpt lat="40.7090583" lon="15.195685"><ele>466.0</ele><time>2026-04-12T10:46:50.954Z</time></trkpt><trkpt lat="40.70898" lon="15.1957633"><ele>464.0</ele><time>2026-04-12T10:46:51.954Z</time></trkpt><trkpt lat="40.7089067" lon="15.1958317"><ele>462.0</ele><time>2026-04-12T10:46:52.954Z</time></trkpt><trkpt lat="40.708845" lon="15.1959033"><ele>459.99999999999994</ele><time>2026-04-12T10:46:53.954Z</time></trkpt><trkpt lat="40.7087933" lon="15.19597"><ele>458.0</ele><time>2026-04-12T10:46:54.954Z</time></trkpt><trkpt lat="40.7087517" lon="15.1960433"><ele>457.99999999999994</ele><time>2026-04-12T10:46:55.954Z</time></trkpt><trkpt lat="40.7087017" lon="15.196115"><ele>458.0</ele><time>2026-04-12T10:46:56.954Z</time></trkpt><trkpt lat="40.7086483" lon="15.1962017"><ele>458.0</ele><time>2026-04-12T10:46:57.954Z</time></trkpt><trkpt lat="40.7085933" lon="15.1962917"><ele>458.0</ele><time>2026-04-12T10:46:58.954Z</time></trkpt><trkpt lat="40.70854" lon="15.1963767"><ele>457.99999999999994</ele><time>2026-04-12T10:46:59.954Z</time></trkpt><trkpt lat="40.7084783" lon="15.1964467"><ele>458.0</ele><time>2026-04-12T10:47:00.954Z</time></trkpt><trkpt lat="40.7084133" lon="15.196495"><ele>458.66666666666663</ele><time>2026-04-12T10:47:01.954Z</time></trkpt><trkpt lat="40.70835" lon="15.1965283"><ele>459.3333333333333</ele><time>2026-04-12T10:47:02.954Z</time></trkpt><trkpt lat="40.7082867" lon="15.1965483"><ele>460.0</ele><time>2026-04-12T10:47:03.954Z</time></trkpt><trkpt lat="40.70822" lon="15.1965633"><ele>460.66666666666663</ele><time>2026-04-12T10:47:04.954Z</time></trkpt><trkpt lat="40.7081083" lon="15.1966"><ele>461.3333333333333</ele><time>2026-04-12T10:47:06.954Z</time></trkpt><trkpt lat="40.7080333" lon="15.19666"><ele>462.0</ele><time>2026-04-12T10:47:08.954Z</time></trkpt><trkpt lat="40.7079417" lon="15.19678"><ele>462.0</ele><time>2026-04-12T10:47:48.953Z</time></trkpt><trkpt lat="40.7078833" lon="15.1969383"><ele>462.00000000000006</ele><time>2026-04-12T10:47:50.953Z</time></trkpt><trkpt lat="40.7078517" lon="15.1970433"><ele>462.00000000000006</ele><time>2026-04-12T10:47:51.953Z</time></trkpt><trkpt lat="40.7078367" lon="15.19716"><ele>462.0</ele><time>2026-04-12T10:47:52.953Z</time></trkpt><trkpt lat="40.7078233" lon="15.1972783"><ele>462.0</ele><time>2026-04-12T10:47:53.953Z</time></trkpt><trkpt lat="40.7078067" lon="15.1973983"><ele>463.3333333333333</ele><time>2026-04-12T10:47:54.953Z</time></trkpt><trkpt lat="40.7077833" lon="15.19751"><ele>464.66666666666663</ele><time>2026-04-12T10:47:55.953Z</time></trkpt><trkpt lat="40.707745" lon="15.1976117"><ele>466.0</ele><time>2026-04-12T10:47:56.953Z</time></trkpt><trkpt lat="40.7077" lon="15.1977083"><ele>467.3333333333333</ele><time>2026-04-12T10:47:57.953Z</time></trkpt><trkpt lat="40.707645" lon="15.1977917"><ele>468.66666666666663</ele><time>2026-04-12T10:47:58.953Z</time></trkpt><trkpt lat="40.7075817" lon="15.1978633"><ele>470.0</ele><time>2026-04-12T10:47:59.953Z</time></trkpt><trkpt lat="40.70751" lon="15.1979267"><ele>469.99999999999994</ele><time>2026-04-12T10:48:00.953Z</time></trkpt><trkpt lat="40.7074383" lon="15.1979783"><ele>470.0</ele><time>2026-04-12T10:48:01.953Z</time></trkpt><trkpt lat="40.70736" lon="15.19802"><ele>470.0</ele><time>2026-04-12T10:48:02.953Z</time></trkpt><trkpt lat="40.7072767" lon="15.19805"><ele>470.0</ele><time>2026-04-12T10:48:03.953Z</time></trkpt><trkpt lat="40.7071867" lon="15.1980733"><ele>469.99999999999994</ele><time>2026-04-12T10:48:04.953Z</time></trkpt><trkpt lat="40.7070967" lon="15.198095"><ele>470.0</ele><time>2026-04-12T10:48:05.953Z</time></trkpt><trkpt lat="40.707" lon="15.1981067"><ele>470.0</ele><time>2026-04-12T10:48:06.953Z</time></trkpt><trkpt lat="40.706915" lon="15.1981167"><ele>469.99999999999994</ele><time>2026-04-12T10:48:07.954Z</time></trkpt><trkpt lat="40.706845" lon="15.1981267"><ele>470.0</ele><time>2026-04-12T10:48:08.953Z</time></trkpt><trkpt lat="40.7067767" lon="15.1981283"><ele>470.0</ele><time>2026-04-12T10:48:09.953Z</time></trkpt><trkpt lat="40.70671" lon="15.19813"><ele>469.99999999999994</ele><time>2026-04-12T10:48:10.953Z</time></trkpt><trkpt lat="40.7066367" lon="15.19812"><ele>470.0</ele><time>2026-04-12T10:48:11.953Z</time></trkpt><trkpt lat="40.7065617" lon="15.1981183"><ele>470.0</ele><time>2026-04-12T10:48:12.953Z</time></trkpt><trkpt lat="40.706495" lon="15.1980967"><ele>471.66666666666663</ele><time>2026-04-12T10:48:13.953Z</time></trkpt><trkpt lat="40.70643" lon="15.1980583"><ele>473.3333333333333</ele><time>2026-04-12T10:48:14.953Z</time></trkpt><trkpt lat="40.7063683" lon="15.1979967"><ele>475.0</ele><time>2026-04-12T10:48:15.953Z</time></trkpt><trkpt lat="40.7063083" lon="15.1979283"><ele>476.66666666666663</ele><time>2026-04-12T10:48:16.953Z</time></trkpt><trkpt lat="40.706245" lon="15.1978583"><ele>478.3333333333333</ele><time>2026-04-12T10:48:17.953Z</time></trkpt><trkpt lat="40.7061833" lon="15.1977867"><ele>480.0</ele><time>2026-04-12T10:48:18.953Z</time></trkpt><trkpt lat="40.7061233" lon="15.19773"><ele>478.8</ele><time>2026-04-12T10:48:19.953Z</time></trkpt><trkpt lat="40.70602" lon="15.19768"><ele>477.6</ele><time>2026-04-12T10:48:21.953Z</time></trkpt><trkpt lat="40.7059467" lon="15.1977183"><ele>476.4</ele><time>2026-04-12T10:48:23.953Z</time></trkpt><trkpt lat="40.705905" lon="15.1978283"><ele>475.2</ele><time>2026-04-12T10:48:25.953Z</time></trkpt><trkpt lat="40.705895" lon="15.1979833"><ele>474.0</ele><time>2026-04-12T10:48:27.954Z</time></trkpt><trkpt lat="40.70589" lon="15.1980667"><ele>471.0</ele><time>2026-04-12T10:48:28.953Z</time></trkpt><trkpt lat="40.70587" lon="15.19823"><ele>468.0</ele><time>2026-04-12T10:48:30.953Z</time></trkpt><trkpt lat="40.70585" lon="15.1983183"><ele>465.0</ele><time>2026-04-12T10:48:31.953Z</time></trkpt><trkpt lat="40.7058233" lon="15.1984017"><ele>462.0</ele><time>2026-04-12T10:48:32.953Z</time></trkpt><trkpt lat="40.70579" lon="15.198485"><ele>459.0</ele><time>2026-04-12T10:48:33.953Z</time></trkpt><trkpt lat="40.7057533" lon="15.1985733"><ele>456.0</ele><time>2026-04-12T10:48:34.953Z</time></trkpt><trkpt lat="40.70573" lon="15.1986717"><ele>456.0</ele><time>2026-04-12T10:48:35.953Z</time></trkpt><trkpt lat="40.7057267" lon="15.1987717"><ele>456.0</ele><time>2026-04-12T10:48:36.953Z</time></trkpt><trkpt lat="40.7057333" lon="15.19888"><ele>456.0</ele><time>2026-04-12T10:48:37.953Z</time></trkpt><trkpt lat="40.70574" lon="15.198985"><ele>456.0</ele><time>2026-04-12T10:48:38.953Z</time></trkpt><trkpt lat="40.7057283" lon="15.1990817"><ele>456.0</ele><time>2026-04-12T10:48:39.953Z</time></trkpt><trkpt lat="40.7057017" lon="15.199175"><ele>456.0</ele><time>2026-04-12T10:48:40.953Z</time></trkpt><trkpt lat="40.7056633" lon="15.1992683"><ele>454.1666666666667</ele><time>2026-04-12T10:48:41.953Z</time></trkpt><trkpt lat="40.705615" lon="15.1993633"><ele>452.33333333333337</ele><time>2026-04-12T10:48:42.953Z</time></trkpt><trkpt lat="40.7055717" lon="15.1994567"><ele>450.5</ele><time>2026-04-12T10:48:43.953Z</time></trkpt><trkpt lat="40.7055267" lon="15.19955"><ele>448.6666666666667</ele><time>2026-04-12T10:48:44.953Z</time></trkpt><trkpt lat="40.7054867" lon="15.199655"><ele>446.83333333333337</ele><time>2026-04-12T10:48:45.953Z</time></trkpt><trkpt lat="40.7054733" lon="15.1997667"><ele>445.0</ele><time>2026-04-12T10:48:46.954Z</time></trkpt><trkpt lat="40.7054683" lon="15.1998883"><ele>443.33333333333337</ele><time>2026-04-12T10:48:47.953Z</time></trkpt><trkpt lat="40.70546" lon="15.20001"><ele>441.6666666666667</ele><time>2026-04-12T10:48:48.953Z</time></trkpt><trkpt lat="40.7054483" lon="15.2001267"><ele>440.0</ele><time>2026-04-12T10:48:49.953Z</time></trkpt><trkpt lat="40.7054333" lon="15.20023"><ele>438.33333333333337</ele><time>2026-04-12T10:48:50.953Z</time></trkpt><trkpt lat="40.7054183" lon="15.200335"><ele>436.6666666666667</ele><time>2026-04-12T10:48:51.953Z</time></trkpt><trkpt lat="40.7054033" lon="15.2004333"><ele>435.0</ele><time>2026-04-12T10:48:52.953Z</time></trkpt><trkpt lat="40.705375" lon="15.2005233"><ele>435.0</ele><time>2026-04-12T10:48:53.953Z</time></trkpt><trkpt lat="40.7053317" lon="15.2005983"><ele>435.0</ele><time>2026-04-12T10:48:54.953Z</time></trkpt><trkpt lat="40.705275" lon="15.2006533"><ele>435.0</ele><time>2026-04-12T10:48:55.953Z</time></trkpt><trkpt lat="40.7051983" lon="15.2007"><ele>435.0</ele><time>2026-04-12T10:48:56.953Z</time></trkpt><trkpt lat="40.7051217" lon="15.2007467"><ele>435.0</ele><time>2026-04-12T10:48:57.953Z</time></trkpt><trkpt lat="40.7050417" lon="15.2007917"><ele>435.0</ele><time>2026-04-12T10:48:58.953Z</time></trkpt><trkpt lat="40.7049617" lon="15.20084"><ele>434.2</ele><time>2026-04-12T10:48:59.953Z</time></trkpt><trkpt lat="40.7048767" lon="15.2008867"><ele>433.4</ele><time>2026-04-12T10:49:00.953Z</time></trkpt><trkpt lat="40.7047917" lon="15.2009383"><ele>432.6</ele><time>2026-04-12T10:49:01.953Z</time></trkpt><trkpt lat="40.7047033" lon="15.20099"><ele>431.8</ele><time>2026-04-12T10:49:02.953Z</time></trkpt><trkpt lat="40.704615" lon="15.2010233"><ele>431.0</ele><time>2026-04-12T10:49:03.953Z</time></trkpt><trkpt lat="40.7045317" lon="15.2010617"><ele>430.99999999999994</ele><time>2026-04-12T10:49:04.953Z</time></trkpt><trkpt lat="40.7044567" lon="15.2011267"><ele>431.0</ele><time>2026-04-12T10:49:05.953Z</time></trkpt><trkpt lat="40.704385" lon="15.20121"><ele>431.0</ele><time>2026-04-12T10:49:06.953Z</time></trkpt><trkpt lat="40.7043117" lon="15.2012867"><ele>431.0</ele><time>2026-04-12T10:49:07.953Z</time></trkpt><trkpt lat="40.7042383" lon="15.201345"><ele>430.99999999999994</ele><time>2026-04-12T10:49:08.953Z</time></trkpt><trkpt lat="40.70416" lon="15.20138"><ele>431.0</ele><time>2026-04-12T10:49:09.953Z</time></trkpt><trkpt lat="40.70407" lon="15.2014017"><ele>432.6</ele><time>2026-04-12T10:49:10.953Z</time></trkpt><trkpt lat="40.7039833" lon="15.2014117"><ele>434.20000000000005</ele><time>2026-04-12T10:49:11.953Z</time></trkpt><trkpt lat="40.7038917" lon="15.20142"><ele>435.79999999999995</ele><time>2026-04-12T10:49:12.953Z</time></trkpt><trkpt lat="40.7038" lon="15.20143"><ele>437.4</ele><time>2026-04-12T10:49:13.953Z</time></trkpt><trkpt lat="40.703705" lon="15.20144"><ele>439.0</ele><time>2026-04-12T10:49:14.953Z</time></trkpt><trkpt lat="40.70361" lon="15.2014417"><ele>439.83333333333337</ele><time>2026-04-12T10:49:15.953Z</time></trkpt><trkpt lat="40.7035183" lon="15.20144"><ele>440.6666666666667</ele><time>2026-04-12T10:49:16.953Z</time></trkpt><trkpt lat="40.7034283" lon="15.2014433"><ele>441.5</ele><time>2026-04-12T10:49:17.954Z</time></trkpt><trkpt lat="40.703345" lon="15.2014633"><ele>442.33333333333337</ele><time>2026-04-12T10:49:18.953Z</time></trkpt><trkpt lat="40.703265" lon="15.2015033"><ele>443.1666666666667</ele><time>2026-04-12T10:49:19.953Z</time></trkpt><trkpt lat="40.7031883" lon="15.20156"><ele>444.0</ele><time>2026-04-12T10:49:20.953Z</time></trkpt><trkpt lat="40.703105" lon="15.20161"><ele>442.5</ele><time>2026-04-12T10:49:21.953Z</time></trkpt><trkpt lat="40.7030267" lon="15.2016567"><ele>441.0</ele><time>2026-04-12T10:49:22.953Z</time></trkpt><trkpt lat="40.7029517" lon="15.2017033"><ele>439.5</ele><time>2026-04-12T10:49:23.953Z</time></trkpt><trkpt lat="40.7028767" lon="15.201755"><ele>438.0</ele><time>2026-04-12T10:49:24.953Z</time></trkpt><trkpt lat="40.7028083" lon="15.20181"><ele>436.5</ele><time>2026-04-12T10:49:25.953Z</time></trkpt><trkpt lat="40.70274" lon="15.20187"><ele>435.0</ele><time>2026-04-12T10:49:26.953Z</time></trkpt><trkpt lat="40.7026717" lon="15.2019333"><ele>435.0</ele><time>2026-04-12T10:49:27.953Z</time></trkpt><trkpt lat="40.7026117" lon="15.2019933"><ele>435.0</ele><time>2026-04-12T10:49:28.953Z</time></trkpt><trkpt lat="40.702515" lon="15.202055"><ele>435.0</ele><time>2026-04-12T10:49:30.953Z</time></trkpt><trkpt lat="40.7024433" lon="15.2020117"><ele>435.0</ele><time>2026-04-12T10:49:32.953Z</time></trkpt><trkpt lat="40.7024017" lon="15.2019133"><ele>435.0</ele><time>2026-04-12T10:49:34.954Z</time></trkpt><trkpt lat="40.7023767" lon="15.2017617"><ele>435.0</ele><time>2026-04-12T10:49:36.953Z</time></trkpt><trkpt lat="40.7023517" lon="15.2016683"><ele>435.0</ele><time>2026-04-12T10:49:37.953Z</time></trkpt><trkpt lat="40.7023333" lon="15.2015617"><ele>435.0</ele><time>2026-04-12T10:49:38.953Z</time></trkpt><trkpt lat="40.7023183" lon="15.20145"><ele>435.0</ele><time>2026-04-12T10:49:39.953Z</time></trkpt><trkpt lat="40.7023067" lon="15.2013283"><ele>435.0</ele><time>2026-04-12T10:49:40.953Z</time></trkpt><trkpt lat="40.7023017" lon="15.2011983"><ele>435.0</ele><time>2026-04-12T10:49:41.953Z</time></trkpt><trkpt lat="40.7023017" lon="15.2010667"><ele>436.8333333333333</ele><time>2026-04-12T10:49:42.953Z</time></trkpt><trkpt lat="40.702325" lon="15.2009467"><ele>438.66666666666663</ele><time>2026-04-12T10:49:43.953Z</time></trkpt><trkpt lat="40.7023583" lon="15.2008383"><ele>440.5</ele><time>2026-04-12T10:49:44.954Z</time></trkpt><trkpt lat="40.7023867" lon="15.200735"><ele>442.3333333333333</ele><time>2026-04-12T10:49:45.953Z</time></trkpt><trkpt lat="40.7024017" lon="15.2006317"><ele>444.16666666666663</ele><time>2026-04-12T10:49:46.953Z</time></trkpt><trkpt lat="40.7024" lon="15.2005167"><ele>446.0</ele><time>2026-04-12T10:49:47.953Z</time></trkpt><trkpt lat="40.7023833" lon="15.2003917"><ele>447.8</ele><time>2026-04-12T10:49:48.953Z</time></trkpt><trkpt lat="40.7023617" lon="15.20026"><ele>449.6</ele><time>2026-04-12T10:49:49.953Z</time></trkpt><trkpt lat="40.702335" lon="15.200135"><ele>451.4</ele><time>2026-04-12T10:49:50.954Z</time></trkpt><trkpt lat="40.7023" lon="15.20001"><ele>453.2</ele><time>2026-04-12T10:49:51.953Z</time></trkpt><trkpt lat="40.70227" lon="15.1998833"><ele>455.0</ele><time>2026-04-12T10:49:52.953Z</time></trkpt><trkpt lat="40.702245" lon="15.199755"><ele>456.8333333333333</ele><time>2026-04-12T10:49:53.953Z</time></trkpt><trkpt lat="40.7022233" lon="15.1996383"><ele>458.66666666666663</ele><time>2026-04-12T10:49:54.953Z</time></trkpt><trkpt lat="40.7022017" lon="15.199525"><ele>460.5</ele><time>2026-04-12T10:49:55.953Z</time></trkpt><trkpt lat="40.7021783" lon="15.1994183"><ele>462.33333333333337</ele><time>2026-04-12T10:49:56.953Z</time></trkpt><trkpt lat="40.7021567" lon="15.19931"><ele>464.1666666666667</ele><time>2026-04-12T10:49:57.953Z</time></trkpt><trkpt lat="40.70214" lon="15.1991983"><ele>466.0</ele><time>2026-04-12T10:49:58.953Z</time></trkpt><trkpt lat="40.702125" lon="15.19909"><ele>467.4</ele><time>2026-04-12T10:49:59.953Z</time></trkpt><trkpt lat="40.7021" lon="15.1989883"><ele>468.8</ele><time>2026-04-12T10:50:00.954Z</time></trkpt><trkpt lat="40.7020667" lon="15.1988783"><ele>470.19999999999993</ele><time>2026-04-12T10:50:01.953Z</time></trkpt><trkpt lat="40.702025" lon="15.19877"><ele>471.59999999999997</ele><time>2026-04-12T10:50:02.953Z</time></trkpt><trkpt lat="40.701975" lon="15.1986533"><ele>473.0</ele><time>2026-04-12T10:50:03.953Z</time></trkpt><trkpt lat="40.7019183" lon="15.19854"><ele>473.8333333333333</ele><time>2026-04-12T10:50:04.953Z</time></trkpt><trkpt lat="40.7018667" lon="15.198425"><ele>474.66666666666663</ele><time>2026-04-12T10:50:05.953Z</time></trkpt><trkpt lat="40.701835" lon="15.1983133"><ele>475.5</ele><time>2026-04-12T10:50:06.953Z</time></trkpt><trkpt lat="40.7018" lon="15.1982167"><ele>476.33333333333337</ele><time>2026-04-12T10:50:07.953Z</time></trkpt><trkpt lat="40.70176" lon="15.1981133"><ele>477.1666666666667</ele><time>2026-04-12T10:50:08.953Z</time></trkpt><trkpt lat="40.7017167" lon="15.1980183"><ele>478.0</ele><time>2026-04-12T10:50:09.953Z</time></trkpt><trkpt lat="40.7016767" lon="15.197925"><ele>479.59999999999997</ele><time>2026-04-12T10:50:10.953Z</time></trkpt><trkpt lat="40.701645" lon="15.19784"><ele>481.19999999999993</ele><time>2026-04-12T10:50:11.953Z</time></trkpt><trkpt lat="40.7015983" lon="15.197705"><ele>482.8</ele><time>2026-04-12T10:50:13.953Z</time></trkpt><trkpt lat="40.7015533" lon="15.197585"><ele>484.4</ele><time>2026-04-12T10:50:15.953Z</time></trkpt><trkpt lat="40.7015133" lon="15.19747"><ele>486.0</ele><time>2026-04-12T10:50:17.953Z</time></trkpt><trkpt lat="40.7014817" lon="15.1973133"><ele>487.8333333333333</ele><time>2026-04-12T10:50:19.953Z</time></trkpt><trkpt lat="40.7014717" lon="15.1972233"><ele>489.66666666666663</ele><time>2026-04-12T10:50:20.953Z</time></trkpt><trkpt lat="40.7014683" lon="15.1971283"><ele>491.5</ele><time>2026-04-12T10:50:21.953Z</time></trkpt><trkpt lat="40.7014633" lon="15.1970367"><ele>493.3333333333333</ele><time>2026-04-12T10:50:22.953Z</time></trkpt><trkpt lat="40.701465" lon="15.1969517"><ele>495.16666666666663</ele><time>2026-04-12T10:50:23.953Z</time></trkpt><trkpt lat="40.701485" lon="15.1967933"><ele>497.0</ele><time>2026-04-12T10:50:25.953Z</time></trkpt><trkpt lat="40.701505" lon="15.1967117"><ele>497.0</ele><time>2026-04-12T10:50:26.953Z</time></trkpt><trkpt lat="40.701525" lon="15.1966283"><ele>497.0</ele><time>2026-04-12T10:50:27.953Z</time></trkpt><trkpt lat="40.7015533" lon="15.1965383"><ele>497.0</ele><time>2026-04-12T10:50:28.953Z</time></trkpt><trkpt lat="40.7015683" lon="15.196445"><ele>497.0</ele><time>2026-04-12T10:50:29.954Z</time></trkpt><trkpt lat="40.7015883" lon="15.19635"><ele>497.0</ele><time>2026-04-12T10:50:30.953Z</time></trkpt><trkpt lat="40.701605" lon="15.1962483"><ele>497.0</ele><time>2026-04-12T10:50:31.954Z</time></trkpt><trkpt lat="40.7016283" lon="15.1961467"><ele>497.0</ele><time>2026-04-12T10:50:32.953Z</time></trkpt><trkpt lat="40.7016483" lon="15.19605"><ele>499.66666666666663</ele><time>2026-04-12T10:50:33.953Z</time></trkpt><trkpt lat="40.701675" lon="15.1959567"><ele>502.3333333333333</ele><time>2026-04-12T10:50:34.953Z</time></trkpt><trkpt lat="40.7016933" lon="15.19587"><ele>505.0</ele><time>2026-04-12T10:50:35.953Z</time></trkpt><trkpt lat="40.7017117" lon="15.195785"><ele>507.66666666666663</ele><time>2026-04-12T10:50:36.954Z</time></trkpt><trkpt lat="40.7017233" lon="15.195695"><ele>510.3333333333333</ele><time>2026-04-12T10:50:37.953Z</time></trkpt><trkpt lat="40.7017317" lon="15.1955367"><ele>513.0</ele><time>2026-04-12T10:50:39.953Z</time></trkpt><trkpt lat="40.701695" lon="15.1954433"><ele>516.6</ele><time>2026-04-12T10:51:46.953Z</time></trkpt><trkpt lat="40.70161" lon="15.1953467"><ele>520.1999999999999</ele><time>2026-04-12T10:51:48.952Z</time></trkpt><trkpt lat="40.7015417" lon="15.1952817"><ele>523.8</ele><time>2026-04-12T10:51:49.952Z</time></trkpt><trkpt lat="40.70146" lon="15.1952"><ele>527.4</ele><time>2026-04-12T10:51:50.952Z</time></trkpt><trkpt lat="40.7013667" lon="15.195105"><ele>531.0</ele><time>2026-04-12T10:51:51.952Z</time></trkpt><trkpt lat="40.70127" lon="15.195005"><ele>531.0</ele><time>2026-04-12T10:51:52.952Z</time></trkpt><trkpt lat="40.7011783" lon="15.19491"><ele>531.0</ele><time>2026-04-12T10:51:53.952Z</time></trkpt><trkpt lat="40.7011033" lon="15.1948067"><ele>531.0</ele><time>2026-04-12T10:51:54.952Z</time></trkpt><trkpt lat="40.70103" lon="15.194695"><ele>531.0</ele><time>2026-04-12T10:51:55.952Z</time></trkpt><trkpt lat="40.70097" lon="15.1946033"><ele>531.0</ele><time>2026-04-12T10:51:56.952Z</time></trkpt><trkpt lat="40.700915" lon="15.194535"><ele>534.4</ele><time>2026-04-12T10:51:57.952Z</time></trkpt><trkpt lat="40.7008367" lon="15.1944533"><ele>537.8</ele><time>2026-04-12T10:51:59.952Z</time></trkpt><trkpt lat="40.7008083" lon="15.1943733"><ele>541.1999999999999</ele><time>2026-04-12T10:56:04.951Z</time></trkpt><trkpt lat="40.7007717" lon="15.194255"><ele>544.6</ele><time>2026-04-12T10:56:06.951Z</time></trkpt><trkpt lat="40.70071" lon="15.19412"><ele>548.0</ele><time>2026-04-12T10:56:08.951Z</time></trkpt><trkpt lat="40.7006183" lon="15.1940233"><ele>548.6666666666666</ele><time>2026-04-12T10:56:10.951Z</time></trkpt><trkpt lat="40.70053" lon="15.1939433"><ele>549.3333333333333</ele><time>2026-04-12T10:56:12.951Z</time></trkpt><trkpt lat="40.70042" lon="15.1939133"><ele>550.0</ele><time>2026-04-12T10:56:14.951Z</time></trkpt><trkpt lat="40.7003567" lon="15.193925"><ele>550.6666666666666</ele><time>2026-04-12T10:56:15.951Z</time></trkpt><trkpt lat="40.7002867" lon="15.1939567"><ele>551.3333333333334</ele><time>2026-04-12T10:56:16.952Z</time></trkpt><trkpt lat="40.7002133" lon="15.1939933"><ele>552.0</ele><time>2026-04-12T10:56:17.951Z</time></trkpt><trkpt lat="40.7001433" lon="15.194025"><ele>552.0</ele><time>2026-04-12T10:56:18.951Z</time></trkpt><trkpt lat="40.7000783" lon="15.1940617"><ele>552.0</ele><time>2026-04-12T10:56:19.951Z</time></trkpt><trkpt lat="40.6999483" lon="15.1941167"><ele>552.0</ele><time>2026-04-12T10:56:21.951Z</time></trkpt><trkpt lat="40.6998767" lon="15.1941367"><ele>552.0</ele><time>2026-04-12T10:56:22.951Z</time></trkpt><trkpt lat="40.699805" lon="15.19415"><ele>552.0</ele><time>2026-04-12T10:56:23.951Z</time></trkpt><trkpt lat="40.6997283" lon="15.1941783"><ele>552.0</ele><time>2026-04-12T10:56:24.951Z</time></trkpt><trkpt lat="40.699655" lon="15.194205"><ele>552.0</ele><time>2026-04-12T10:56:25.951Z</time></trkpt><trkpt lat="40.6995817" lon="15.194225"><ele>552.0</ele><time>2026-04-12T10:56:26.951Z</time></trkpt><trkpt lat="40.6995067" lon="15.1942317"><ele>552.0</ele><time>2026-04-12T10:56:27.951Z</time></trkpt><trkpt lat="40.6994217" lon="15.1942217"><ele>552.0</ele><time>2026-04-12T10:56:28.951Z</time></trkpt><trkpt lat="40.6993433" lon="15.19422"><ele>552.0</ele><time>2026-04-12T10:56:29.951Z</time></trkpt><trkpt lat="40.6992683" lon="15.1942133"><ele>552.0</ele><time>2026-04-12T10:56:30.951Z</time></trkpt><trkpt lat="40.6992" lon="15.19421"><ele>552.1666666666666</ele><time>2026-04-12T10:56:31.951Z</time></trkpt><trkpt lat="40.6991317" lon="15.1942133"><ele>552.3333333333334</ele><time>2026-04-12T10:56:32.952Z</time></trkpt><trkpt lat="40.69904" lon="15.1941733"><ele>552.5</ele><time>2026-04-12T10:56:34.952Z</time></trkpt><trkpt lat="40.6989667" lon="15.1940783"><ele>552.6666666666667</ele><time>2026-04-12T10:56:36.951Z</time></trkpt><trkpt lat="40.69892" lon="15.1939867"><ele>552.8333333333334</ele><time>2026-04-12T10:56:38.951Z</time></trkpt><trkpt lat="40.6988483" lon="15.19391"><ele>553.0</ele><time>2026-04-12T10:56:41.951Z</time></trkpt><trkpt lat="40.698785" lon="15.1938617"><ele>554.8571428571429</ele><time>2026-04-12T10:56:43.951Z</time></trkpt><trkpt lat="40.6987067" lon="15.19383"><ele>556.7142857142858</ele><time>2026-04-12T10:56:45.952Z</time></trkpt><trkpt lat="40.6986383" lon="15.1938133"><ele>558.5714285714286</ele><time>2026-04-12T10:56:47.951Z</time></trkpt><trkpt lat="40.69857" lon="15.1938033"><ele>560.4285714285714</ele><time>2026-04-12T10:56:49.951Z</time></trkpt><trkpt lat="40.6985017" lon="15.1938067"><ele>562.2857142857143</ele><time>2026-04-12T10:56:51.951Z</time></trkpt><trkpt lat="40.6984383" lon="15.1938017"><ele>564.1428571428571</ele><time>2026-04-12T10:56:53.951Z</time></trkpt><trkpt lat="40.6983617" lon="15.1938117"><ele>566.0</ele><time>2026-04-12T10:56:55.951Z</time></trkpt><trkpt lat="40.6982683" lon="15.193815"><ele>566.0</ele><time>2026-04-12T10:56:57.951Z</time></trkpt><trkpt lat="40.698165" lon="15.1938"><ele>566.0</ele><time>2026-04-12T10:56:59.951Z</time></trkpt><trkpt lat="40.698055" lon="15.1937633"><ele>566.0</ele><time>2026-04-12T10:57:01.951Z</time></trkpt><trkpt lat="40.6979517" lon="15.193705"><ele>566.0</ele><time>2026-04-12T10:57:03.951Z</time></trkpt><trkpt lat="40.697845" lon="15.1936367"><ele>566.0</ele><time>2026-04-12T10:57:05.951Z</time></trkpt><trkpt lat="40.6977383" lon="15.1935717"><ele>562.4</ele><time>2026-04-12T10:57:07.951Z</time></trkpt><trkpt lat="40.69762" lon="15.1935167"><ele>558.8</ele><time>2026-04-12T10:57:09.951Z</time></trkpt><trkpt lat="40.69751" lon="15.1934633"><ele>555.1999999999999</ele><time>2026-04-12T10:57:11.951Z</time></trkpt><trkpt lat="40.69745" lon="15.193435"><ele>551.6</ele><time>2026-04-12T10:57:12.951Z</time></trkpt><trkpt lat="40.6973883" lon="15.193405"><ele>548.0</ele><time>2026-04-12T10:57:13.951Z</time></trkpt><trkpt lat="40.6972767" lon="15.19333"><ele>548.0</ele><time>2026-04-12T10:57:15.951Z</time></trkpt><trkpt lat="40.6972167" lon="15.1932867"><ele>548.0</ele><time>2026-04-12T10:57:16.951Z</time></trkpt><trkpt lat="40.6971283" lon="15.1931967"><ele>548.0</ele><time>2026-04-12T10:57:18.952Z</time></trkpt><trkpt lat="40.6970483" lon="15.1930667"><ele>548.0</ele><time>2026-04-12T10:57:20.951Z</time></trkpt><trkpt lat="40.6970083" lon="15.192985"><ele>548.0</ele><time>2026-04-12T10:57:21.951Z</time></trkpt><trkpt lat="40.6969683" lon="15.1929017"><ele>548.8333333333333</ele><time>2026-04-12T10:57:22.951Z</time></trkpt><trkpt lat="40.696925" lon="15.19281"><ele>549.6666666666666</ele><time>2026-04-12T10:57:23.951Z</time></trkpt><trkpt lat="40.6968717" lon="15.1927317"><ele>550.5</ele><time>2026-04-12T10:57:24.951Z</time></trkpt><trkpt lat="40.6968167" lon="15.192655"><ele>551.3333333333334</ele><time>2026-04-12T10:57:25.951Z</time></trkpt><trkpt lat="40.6967617" lon="15.1925783"><ele>552.1666666666667</ele><time>2026-04-12T10:57:26.951Z</time></trkpt><trkpt lat="40.6967" lon="15.192505"><ele>553.0</ele><time>2026-04-12T10:57:27.952Z</time></trkpt><trkpt lat="40.6966383" lon="15.19243"><ele>553.0</ele><time>2026-04-12T10:57:28.951Z</time></trkpt><trkpt lat="40.696575" lon="15.1923567"><ele>553.0</ele><time>2026-04-12T10:57:29.952Z</time></trkpt><trkpt lat="40.6965" lon="15.1923"><ele>553.0</ele><time>2026-04-12T10:57:30.951Z</time></trkpt><trkpt lat="40.6964217" lon="15.1922517"><ele>553.0</ele><time>2026-04-12T10:57:31.951Z</time></trkpt><trkpt lat="40.6963533" lon="15.1922067"><ele>553.0</ele><time>2026-04-12T10:57:32.951Z</time></trkpt><trkpt lat="40.69629" lon="15.1921583"><ele>553.0</ele><time>2026-04-12T10:57:33.951Z</time></trkpt><trkpt lat="40.6962317" lon="15.1920933"><ele>553.1666666666667</ele><time>2026-04-12T10:57:34.951Z</time></trkpt><trkpt lat="40.696195" lon="15.1920233"><ele>553.3333333333334</ele><time>2026-04-12T10:57:35.951Z</time></trkpt><trkpt lat="40.696155" lon="15.19193"><ele>553.5</ele><time>2026-04-12T10:57:37.951Z</time></trkpt><trkpt lat="40.6961083" lon="15.19183"><ele>553.6666666666666</ele><time>2026-04-12T11:01:05.95Z</time></trkpt><trkpt lat="40.6960333" lon="15.1917217"><ele>553.8333333333333</ele><time>2026-04-12T11:01:07.95Z</time></trkpt><trkpt lat="40.6959917" lon="15.1916417"><ele>554.0</ele><time>2026-04-12T11:01:08.95Z</time></trkpt><trkpt lat="40.6959467" lon="15.1915617"><ele>558.8333333333333</ele><time>2026-04-12T11:01:09.95Z</time></trkpt><trkpt lat="40.6958967" lon="15.1914717"><ele>563.6666666666666</ele><time>2026-04-12T11:01:10.95Z</time></trkpt><trkpt lat="40.6958433" lon="15.1913833"><ele>568.5</ele><time>2026-04-12T11:01:11.95Z</time></trkpt><trkpt lat="40.6957817" lon="15.1913067"><ele>573.3333333333334</ele><time>2026-04-12T11:01:12.95Z</time></trkpt><trkpt lat="40.695715" lon="15.19124"><ele>578.1666666666667</ele><time>2026-04-12T11:01:13.95Z</time></trkpt><trkpt lat="40.6956483" lon="15.1911733"><ele>583.0</ele><time>2026-04-12T11:01:14.95Z</time></trkpt><trkpt lat="40.6955833" lon="15.1910933"><ele>583.0</ele><time>2026-04-12T11:01:15.95Z</time></trkpt><trkpt lat="40.6955217" lon="15.1910183"><ele>583.0</ele><time>2026-04-12T11:01:16.95Z</time></trkpt><trkpt lat="40.6954633" lon="15.19094"><ele>583.0</ele><time>2026-04-12T11:01:17.95Z</time></trkpt><trkpt lat="40.69542" lon="15.190855"><ele>583.0</ele><time>2026-04-12T11:01:18.95Z</time></trkpt><trkpt lat="40.6953783" lon="15.1907833"><ele>583.0</ele><time>2026-04-12T11:01:19.951Z</time></trkpt><trkpt lat="40.6953433" lon="15.1907133"><ele>583.0</ele><time>2026-04-12T11:01:20.95Z</time></trkpt><trkpt lat="40.6952817" lon="15.1905617"><ele>580.2857142857143</ele><time>2026-04-12T11:01:22.95Z</time></trkpt><trkpt lat="40.6952533" lon="15.1904817"><ele>577.5714285714286</ele><time>2026-04-12T11:01:23.95Z</time></trkpt><trkpt lat="40.6952183" lon="15.190405"><ele>574.8571428571429</ele><time>2026-04-12T11:01:24.95Z</time></trkpt><trkpt lat="40.6951833" lon="15.1903233"><ele>572.1428571428571</ele><time>2026-04-12T11:01:25.95Z</time></trkpt><trkpt lat="40.6951383" lon="15.190245"><ele>569.4285714285714</ele><time>2026-04-12T11:01:26.95Z</time></trkpt><trkpt lat="40.69509" lon="15.1901633"><ele>566.7142857142858</ele><time>2026-04-12T11:01:27.95Z</time></trkpt><trkpt lat="40.6950317" lon="15.1900733"><ele>564.0</ele><time>2026-04-12T11:01:28.95Z</time></trkpt><trkpt lat="40.6949717" lon="15.1899967"><ele>564.0</ele><time>2026-04-12T11:01:29.95Z</time></trkpt><trkpt lat="40.6949117" lon="15.1899117"><ele>564.0</ele><time>2026-04-12T11:01:30.951Z</time></trkpt><trkpt lat="40.694855" lon="15.1898217"><ele>564.0</ele><time>2026-04-12T11:01:31.951Z</time></trkpt><trkpt lat="40.6948067" lon="15.1897267"><ele>564.0</ele><time>2026-04-12T11:01:32.95Z</time></trkpt><trkpt lat="40.6947683" lon="15.1896133"><ele>564.0</ele><time>2026-04-12T11:01:33.95Z</time></trkpt><trkpt lat="40.694735" lon="15.1894917"><ele>570.4</ele><time>2026-04-12T11:01:34.95Z</time></trkpt><trkpt lat="40.694695" lon="15.1893767"><ele>576.8</ele><time>2026-04-12T11:01:35.95Z</time></trkpt><trkpt lat="40.694655" lon="15.1892617"><ele>583.2</ele><time>2026-04-12T11:01:36.95Z</time></trkpt><trkpt lat="40.694625" lon="15.1891467"><ele>589.6</ele><time>2026-04-12T11:01:37.95Z</time></trkpt><trkpt lat="40.6946083" lon="15.1890283"><ele>596.0</ele><time>2026-04-12T11:01:38.95Z</time></trkpt><trkpt lat="40.6946" lon="15.18891"><ele>592.2</ele><time>2026-04-12T11:01:39.95Z</time></trkpt><trkpt lat="40.6945917" lon="15.1887967"><ele>588.4000000000001</ele><time>2026-04-12T11:01:40.95Z</time></trkpt><trkpt lat="40.6945633" lon="15.1886883"><ele>584.6</ele><time>2026-04-12T11:01:41.95Z</time></trkpt><trkpt lat="40.69452" lon="15.188585"><ele>580.8000000000001</ele><time>2026-04-12T11:01:42.95Z</time></trkpt><trkpt lat="40.6944683" lon="15.1884783"><ele>577.0</ele><time>2026-04-12T11:01:43.95Z</time></trkpt><trkpt lat="40.6944083" lon="15.18838"><ele>577.0</ele><time>2026-04-12T11:01:44.95Z</time></trkpt><trkpt lat="40.69434" lon="15.1883067"><ele>577.0</ele><time>2026-04-12T11:01:45.95Z</time></trkpt><trkpt lat="40.69427" lon="15.1882417"><ele>577.0</ele><time>2026-04-12T11:01:46.95Z</time></trkpt><trkpt lat="40.6941983" lon="15.1881783"><ele>577.0</ele><time>2026-04-12T11:01:47.95Z</time></trkpt><trkpt lat="40.6941283" lon="15.1881117"><ele>577.0</ele><time>2026-04-12T11:01:48.95Z</time></trkpt><trkpt lat="40.69407" lon="15.1880433"><ele>577.0</ele><time>2026-04-12T11:01:49.95Z</time></trkpt><trkpt lat="40.6940183" lon="15.1879767"><ele>579.6666666666667</ele><time>2026-04-12T11:01:50.95Z</time></trkpt><trkpt lat="40.6939717" lon="15.1879067"><ele>582.3333333333334</ele><time>2026-04-12T11:01:51.95Z</time></trkpt><trkpt lat="40.6939333" lon="15.1878317"><ele>585.0</ele><time>2026-04-12T11:01:52.95Z</time></trkpt><trkpt lat="40.6938883" lon="15.1877583"><ele>587.6666666666666</ele><time>2026-04-12T11:01:53.95Z</time></trkpt><trkpt lat="40.6938433" lon="15.18767"><ele>590.3333333333333</ele><time>2026-04-12T11:01:54.95Z</time></trkpt><trkpt lat="40.6937917" lon="15.1875817"><ele>593.0</ele><time>2026-04-12T11:01:55.95Z</time></trkpt><trkpt lat="40.6937467" lon="15.1874967"><ele>593.0</ele><time>2026-04-12T11:01:56.95Z</time></trkpt><trkpt lat="40.6937" lon="15.1874317"><ele>593.0</ele><time>2026-04-12T11:01:57.95Z</time></trkpt><trkpt lat="40.6936017" lon="15.1873517"><ele>593.0</ele><time>2026-04-12T11:01:59.95Z</time></trkpt><trkpt lat="40.6934917" lon="15.18731"><ele>593.0</ele><time>2026-04-12T11:02:01.95Z</time></trkpt><trkpt lat="40.6933783" lon="15.187305"><ele>593.0</ele><time>2026-04-12T11:02:03.95Z</time></trkpt><trkpt lat="40.69327" lon="15.1872733"><ele>589.0</ele><time>2026-04-12T11:02:05.95Z</time></trkpt><trkpt lat="40.693175" lon="15.1871633"><ele>585.0</ele><time>2026-04-12T11:02:07.95Z</time></trkpt><trkpt lat="40.6931367" lon="15.18709"><ele>581.0</ele><time>2026-04-12T11:02:08.95Z</time></trkpt><trkpt lat="40.6930983" lon="15.1870233"><ele>577.0</ele><time>2026-04-12T11:02:09.95Z</time></trkpt><trkpt lat="40.69301" lon="15.1869083"><ele>573.0</ele><time>2026-04-12T11:02:11.95Z</time></trkpt><trkpt lat="40.6929033" lon="15.1868533"><ele>573.0</ele><time>2026-04-12T11:02:13.95Z</time></trkpt><trkpt lat="40.6927917" lon="15.1868567"><ele>573.0</ele><time>2026-04-12T11:02:15.95Z</time></trkpt><trkpt lat="40.6927267" lon="15.18688"><ele>573.0</ele><time>2026-04-12T11:02:16.95Z</time></trkpt><trkpt lat="40.692615" lon="15.1868933"><ele>573.0</ele><time>2026-04-12T11:02:18.95Z</time></trkpt><trkpt lat="40.6925567" lon="15.1868567"><ele>573.0</ele><time>2026-04-12T11:02:19.95Z</time></trkpt><trkpt lat="40.6925017" lon="15.1867967"><ele>573.0</ele><time>2026-04-12T11:02:20.95Z</time></trkpt><trkpt lat="40.69244" lon="15.186725"><ele>573.5</ele><time>2026-04-12T11:02:21.95Z</time></trkpt><trkpt lat="40.6923717" lon="15.1866717"><ele>574.0</ele><time>2026-04-12T11:02:22.95Z</time></trkpt><trkpt lat="40.6922983" lon="15.1866317"><ele>574.5</ele><time>2026-04-12T11:02:23.95Z</time></trkpt><trkpt lat="40.69222" lon="15.1866017"><ele>575.0</ele><time>2026-04-12T11:02:24.95Z</time></trkpt><trkpt lat="40.6921467" lon="15.186585"><ele>575.5</ele><time>2026-04-12T11:02:25.95Z</time></trkpt><trkpt lat="40.6920733" lon="15.1865817"><ele>576.0</ele><time>2026-04-12T11:02:26.95Z</time></trkpt><trkpt lat="40.6919983" lon="15.1865883"><ele>576.0</ele><time>2026-04-12T11:02:27.95Z</time></trkpt><trkpt lat="40.6919233" lon="15.1865933"><ele>576.0</ele><time>2026-04-12T11:02:28.95Z</time></trkpt><trkpt lat="40.6918383" lon="15.1865933"><ele>576.0</ele><time>2026-04-12T11:02:29.95Z</time></trkpt><trkpt lat="40.6917467" lon="15.1865733"><ele>576.0</ele><time>2026-04-12T11:02:30.95Z</time></trkpt><trkpt lat="40.6916583" lon="15.1865333"><ele>576.0</ele><time>2026-04-12T11:02:31.95Z</time></trkpt><trkpt lat="40.69157" lon="15.1864867"><ele>576.0</ele><time>2026-04-12T11:02:32.95Z</time></trkpt><trkpt lat="40.6914833" lon="15.1864467"><ele>577.3333333333334</ele><time>2026-04-12T11:02:33.95Z</time></trkpt><trkpt lat="40.6913983" lon="15.1864217"><ele>578.6666666666666</ele><time>2026-04-12T11:02:34.951Z</time></trkpt><trkpt lat="40.6913167" lon="15.1864117"><ele>580.0</ele><time>2026-04-12T11:02:35.95Z</time></trkpt><trkpt lat="40.6912417" lon="15.1864017"><ele>581.3333333333333</ele><time>2026-04-12T11:02:36.95Z</time></trkpt><trkpt lat="40.691175" lon="15.1864033"><ele>582.6666666666666</ele><time>2026-04-12T11:02:37.95Z</time></trkpt><trkpt lat="40.691085" lon="15.1863967"><ele>584.0</ele><time>2026-04-12T11:02:39.95Z</time></trkpt><trkpt lat="40.6910117" lon="15.1863667"><ele>585.4</ele><time>2026-04-12T11:02:42.95Z</time></trkpt><trkpt lat="40.6909783" lon="15.18626"><ele>586.8</ele><time>2026-04-12T11:02:44.951Z</time></trkpt><trkpt lat="40.6909383" lon="15.1861017"><ele>588.2</ele><time>2026-04-12T11:02:46.95Z</time></trkpt><trkpt lat="40.6908883" lon="15.1859317"><ele>589.6</ele><time>2026-04-12T11:02:48.95Z</time></trkpt><trkpt lat="40.690855" lon="15.1858333"><ele>591.0</ele><time>2026-04-12T11:02:49.95Z</time></trkpt><trkpt lat="40.6908183" lon="15.1857167"><ele>593.5</ele><time>2026-04-12T11:02:50.95Z</time></trkpt><trkpt lat="40.6907667" lon="15.1855967"><ele>596.0</ele><time>2026-04-12T11:02:51.95Z</time></trkpt><trkpt lat="40.6906867" lon="15.18548"><ele>598.5</ele><time>2026-04-12T11:02:52.95Z</time></trkpt><trkpt lat="40.690585" lon="15.18537"><ele>601.0</ele><time>2026-04-12T11:02:53.95Z</time></trkpt><trkpt lat="40.69048" lon="15.1852567"><ele>601.0</ele><time>2026-04-12T11:02:54.95Z</time></trkpt><trkpt lat="40.6903767" lon="15.185145"><ele>601.0</ele><time>2026-04-12T11:02:55.95Z</time></trkpt><trkpt lat="40.6902867" lon="15.1850233"><ele>601.0</ele><time>2026-04-12T11:02:56.951Z</time></trkpt><trkpt lat="40.6901983" lon="15.1849133"><ele>601.0</ele><time>2026-04-12T11:02:57.95Z</time></trkpt><trkpt lat="40.690125" lon="15.1848217"><ele>604.3333333333334</ele><time>2026-04-12T11:02:58.95Z</time></trkpt><trkpt lat="40.6900567" lon="15.1847433"><ele>607.6666666666667</ele><time>2026-04-12T11:02:59.95Z</time></trkpt><trkpt lat="40.6900033" lon="15.1846633"><ele>611.0</ele><time>2026-04-12T11:03:00.95Z</time></trkpt><trkpt lat="40.689965" lon="15.1845717"><ele>614.3333333333334</ele><time>2026-04-12T11:03:01.951Z</time></trkpt><trkpt lat="40.68994" lon="15.18446"><ele>617.6666666666666</ele><time>2026-04-12T11:03:02.95Z</time></trkpt><trkpt lat="40.689915" lon="15.1843317"><ele>621.0</ele><time>2026-04-12T11:03:03.95Z</time></trkpt><trkpt lat="40.689885" lon="15.1841983"><ele>621.0</ele><time>2026-04-12T11:03:04.95Z</time></trkpt><trkpt lat="40.6898517" lon="15.1840517"><ele>621.0</ele><time>2026-04-12T11:03:05.95Z</time></trkpt><trkpt lat="40.6898217" lon="15.1838967"><ele>621.0</ele><time>2026-04-12T11:03:06.95Z</time></trkpt><trkpt lat="40.6897933" lon="15.1837417"><ele>621.0</ele><time>2026-04-12T11:03:07.95Z</time></trkpt><trkpt lat="40.689775" lon="15.18357"><ele>623.25</ele><time>2026-04-12T11:03:08.95Z</time></trkpt><trkpt lat="40.68977" lon="15.1834067"><ele>625.5</ele><time>2026-04-12T11:03:09.95Z</time></trkpt><trkpt lat="40.6897767" lon="15.183235"><ele>627.75</ele><time>2026-04-12T11:03:10.95Z</time></trkpt><trkpt lat="40.68979" lon="15.1830483"><ele>630.0</ele><time>2026-04-12T11:03:11.95Z</time></trkpt><trkpt lat="40.6898067" lon="15.1828617"><ele>633.0</ele><time>2026-04-12T11:03:12.951Z</time></trkpt><trkpt lat="40.68982" lon="15.1826867"><ele>636.0</ele><time>2026-04-12T11:03:13.95Z</time></trkpt><trkpt lat="40.6898633" lon="15.182525"><ele>639.0</ele><time>2026-04-12T11:03:14.95Z</time></trkpt><trkpt lat="40.68991" lon="15.182365"><ele>642.0</ele><time>2026-04-12T11:03:15.95Z</time></trkpt><trkpt lat="40.68995" lon="15.1821983"><ele>644.5</ele><time>2026-04-12T11:03:16.95Z</time></trkpt><trkpt lat="40.6899783" lon="15.1820133"><ele>647.0</ele><time>2026-04-12T11:03:17.95Z</time></trkpt><trkpt lat="40.6900017" lon="15.1818133"><ele>649.5</ele><time>2026-04-12T11:03:18.95Z</time></trkpt><trkpt lat="40.6900167" lon="15.181635"><ele>652.0</ele><time>2026-04-12T11:03:19.95Z</time></trkpt><trkpt lat="40.69004" lon="15.181485"><ele>653.2</ele><time>2026-04-12T11:03:20.95Z</time></trkpt><trkpt lat="40.69007" lon="15.181355"><ele>654.4000000000001</ele><time>2026-04-12T11:03:21.95Z</time></trkpt><trkpt lat="40.6901133" lon="15.1812217"><ele>655.5999999999999</ele><time>2026-04-12T11:03:22.95Z</time></trkpt><trkpt lat="40.6901583" lon="15.18109"><ele>656.8</ele><time>2026-04-12T11:03:23.95Z</time></trkpt><trkpt lat="40.6901983" lon="15.1809617"><ele>658.0</ele><time>2026-04-12T11:03:24.95Z</time></trkpt><trkpt lat="40.6902267" lon="15.1808367"><ele>658.0</ele><time>2026-04-12T11:03:25.95Z</time></trkpt><trkpt lat="40.6902433" lon="15.1806917"><ele>658.0</ele><time>2026-04-12T11:03:26.95Z</time></trkpt><trkpt lat="40.6902533" lon="15.18053"><ele>658.0</ele><time>2026-04-12T11:03:27.95Z</time></trkpt><trkpt lat="40.69026" lon="15.180355"><ele>658.0</ele><time>2026-04-12T11:03:28.95Z</time></trkpt><trkpt lat="40.690275" lon="15.18016"><ele>657.75</ele><time>2026-04-12T11:03:29.95Z</time></trkpt><trkpt lat="40.6902933" lon="15.17996"><ele>657.5</ele><time>2026-04-12T11:03:30.95Z</time></trkpt><trkpt lat="40.6903217" lon="15.1797767"><ele>657.25</ele><time>2026-04-12T11:03:31.95Z</time></trkpt><trkpt lat="40.690355" lon="15.1796117"><ele>657.0</ele><time>2026-04-12T11:03:32.95Z</time></trkpt><trkpt lat="40.6903883" lon="15.1794483"><ele>659.75</ele><time>2026-04-12T11:03:33.95Z</time></trkpt><trkpt lat="40.6904133" lon="15.1792917"><ele>662.5</ele><time>2026-04-12T11:03:34.95Z</time></trkpt><trkpt lat="40.6904367" lon="15.1791217"><ele>665.25</ele><time>2026-04-12T11:03:35.95Z</time></trkpt><trkpt lat="40.6904533" lon="15.1789617"><ele>668.0</ele><time>2026-04-12T11:03:36.95Z</time></trkpt><trkpt lat="40.69046" lon="15.1788533"><ele>672.2</ele><time>2026-04-12T11:03:37.95Z</time></trkpt><trkpt lat="40.69046" lon="15.178755"><ele>676.4</ele><time>2026-04-12T11:03:39.95Z</time></trkpt><trkpt lat="40.690465" lon="15.1785933"><ele>680.6</ele><time>2026-04-12T11:03:55.949Z</time></trkpt><trkpt lat="40.6904717" lon="15.178475"><ele>684.8000000000001</ele><time>2026-04-12T11:03:56.949Z</time></trkpt><trkpt lat="40.6904867" lon="15.1783467"><ele>689.0</ele><time>2026-04-12T11:03:57.949Z</time></trkpt><trkpt lat="40.6905033" lon="15.1782417"><ele>691.1428571428571</ele><time>2026-04-12T11:03:58.949Z</time></trkpt><trkpt lat="40.6905217" lon="15.17814"><ele>693.2857142857143</ele><time>2026-04-12T11:03:59.949Z</time></trkpt><trkpt lat="40.6905467" lon="15.1780483"><ele>695.4285714285714</ele><time>2026-04-12T11:04:00.949Z</time></trkpt><trkpt lat="40.69058" lon="15.1779633"><ele>697.5714285714286</ele><time>2026-04-12T11:04:01.949Z</time></trkpt><trkpt lat="40.6906117" lon="15.1778817"><ele>699.7142857142857</ele><time>2026-04-12T11:04:02.949Z</time></trkpt><trkpt lat="40.690645" lon="15.1778067"><ele>701.8571428571429</ele><time>2026-04-12T11:04:03.949Z</time></trkpt><trkpt lat="40.6906733" lon="15.1777267"><ele>704.0</ele><time>2026-04-12T11:04:04.949Z</time></trkpt><trkpt lat="40.69071" lon="15.1775983"><ele>704.0</ele><time>2026-04-12T11:04:06.949Z</time></trkpt><trkpt lat="40.6907417" lon="15.1774567"><ele>704.0</ele><time>2026-04-12T11:04:08.949Z</time></trkpt><trkpt lat="40.6907933" lon="15.1773183"><ele>704.0</ele><time>2026-04-12T11:04:10.949Z</time></trkpt><trkpt lat="40.6908683" lon="15.1772183"><ele>704.0</ele><time>2026-04-12T11:04:12.949Z</time></trkpt><trkpt lat="40.6909533" lon="15.1772383"><ele>704.0</ele><time>2026-04-12T11:04:14.949Z</time></trkpt><trkpt lat="40.6909883" lon="15.177325"><ele>704.0</ele><time>2026-04-12T11:04:16.949Z</time></trkpt><trkpt lat="40.6910117" lon="15.1774433"><ele>704.0</ele><time>2026-04-12T11:04:18.949Z</time></trkpt><trkpt lat="40.6910333" lon="15.1775767"><ele>704.0</ele><time>2026-04-12T11:04:20.949Z</time></trkpt><trkpt lat="40.691055" lon="15.1776933"><ele>704.0</ele><time>2026-04-12T11:04:22.949Z</time></trkpt><trkpt lat="40.69108" lon="15.1777733"><ele>704.0</ele><time>2026-04-12T11:04:24.949Z</time></trkpt><trkpt lat="40.691155" lon="15.1778367"><ele>704.0</ele><time>2026-04-12T11:04:31.949Z</time></trkpt><trkpt lat="40.6912717" lon="15.1779067"><ele>708.8000000000001</ele><time>2026-04-12T11:04:33.95Z</time></trkpt><trkpt lat="40.6913833" lon="15.17792"><ele>713.6</ele><time>2026-04-12T11:04:35.949Z</time></trkpt><trkpt lat="40.691465" lon="15.17786"><ele>718.4</ele><time>2026-04-12T11:04:37.949Z</time></trkpt><trkpt lat="40.691505" lon="15.1777267"><ele>723.2</ele><time>2026-04-12T11:04:39.95Z</time></trkpt><trkpt lat="40.69152" lon="15.17756"><ele>728.0</ele><time>2026-04-12T11:04:41.949Z</time></trkpt><trkpt lat="40.6915267" lon="15.177455"><ele>730.1666666666666</ele><time>2026-04-12T11:04:42.949Z</time></trkpt><trkpt lat="40.691545" lon="15.1773383"><ele>732.3333333333333</ele><time>2026-04-12T11:04:43.949Z</time></trkpt><trkpt lat="40.69157" lon="15.1772317"><ele>734.5</ele><time>2026-04-12T11:04:44.95Z</time></trkpt><trkpt lat="40.6916067" lon="15.177135"><ele>736.6666666666666</ele><time>2026-04-12T11:04:45.949Z</time></trkpt><trkpt lat="40.6916567" lon="15.1770383"><ele>738.8333333333334</ele><time>2026-04-12T11:04:46.949Z</time></trkpt><trkpt lat="40.6917167" lon="15.1769417"><ele>741.0</ele><time>2026-04-12T11:04:47.949Z</time></trkpt><trkpt lat="40.6917767" lon="15.1768617"><ele>741.0</ele><time>2026-04-12T11:04:48.949Z</time></trkpt><trkpt lat="40.691835" lon="15.1768017"><ele>741.0</ele><time>2026-04-12T11:04:49.949Z</time></trkpt><trkpt lat="40.6918917" lon="15.1767617"><ele>741.0</ele><time>2026-04-12T11:04:50.949Z</time></trkpt><trkpt lat="40.6919567" lon="15.1767233"><ele>741.0</ele><time>2026-04-12T11:04:51.949Z</time></trkpt><trkpt lat="40.692015" lon="15.1766883"><ele>741.0</ele><time>2026-04-12T11:04:52.949Z</time></trkpt><trkpt lat="40.69208" lon="15.1766817"><ele>741.0</ele><time>2026-04-12T11:04:53.949Z</time></trkpt><trkpt lat="40.6921433" lon="15.1766817"><ele>741.0</ele><time>2026-04-12T11:04:54.949Z</time></trkpt><trkpt lat="40.692205" lon="15.1766983"><ele>744.6666666666666</ele><time>2026-04-12T11:04:55.949Z</time></trkpt><trkpt lat="40.6922783" lon="15.1767417"><ele>748.3333333333334</ele><time>2026-04-12T11:04:56.949Z</time></trkpt><trkpt lat="40.6923617" lon="15.176785"><ele>752.0</ele><time>2026-04-12T11:04:57.949Z</time></trkpt><trkpt lat="40.6924367" lon="15.1768267"><ele>755.6666666666667</ele><time>2026-04-12T11:04:58.949Z</time></trkpt><trkpt lat="40.692495" lon="15.1768683"><ele>759.3333333333334</ele><time>2026-04-12T11:04:59.949Z</time></trkpt><trkpt lat="40.6925817" lon="15.1769467"><ele>763.0</ele><time>2026-04-12T11:05:01.949Z</time></trkpt><trkpt lat="40.6926283" lon="15.177045"><ele>763.0</ele><time>2026-04-12T11:05:03.949Z</time></trkpt><trkpt lat="40.692655" lon="15.1771767"><ele>763.0</ele><time>2026-04-12T11:05:05.949Z</time></trkpt><trkpt lat="40.6926583" lon="15.1773483"><ele>763.0</ele><time>2026-04-12T11:05:07.949Z</time></trkpt><trkpt lat="40.6926667" lon="15.177445"><ele>763.0</ele><time>2026-04-12T11:05:08.949Z</time></trkpt><trkpt lat="40.6926767" lon="15.1775367"><ele>763.0</ele><time>2026-04-12T11:05:09.95Z</time></trkpt><trkpt lat="40.6927117" lon="15.1776117"><ele>763.0</ele><time>2026-04-12T11:05:10.949Z</time></trkpt><trkpt lat="40.6927633" lon="15.1776767"><ele>765.3333333333334</ele><time>2026-04-12T11:05:11.949Z</time></trkpt><trkpt lat="40.69282" lon="15.177735"><ele>767.6666666666667</ele><time>2026-04-12T11:05:12.949Z</time></trkpt><trkpt lat="40.692885" lon="15.1777917"><ele>770.0</ele><time>2026-04-12T11:05:13.949Z</time></trkpt><trkpt lat="40.6929467" lon="15.1778433"><ele>772.3333333333334</ele><time>2026-04-12T11:05:14.949Z</time></trkpt><trkpt lat="40.69301" lon="15.1779"><ele>774.6666666666666</ele><time>2026-04-12T11:05:15.949Z</time></trkpt><trkpt lat="40.693075" lon="15.17795"><ele>777.0</ele><time>2026-04-12T11:05:16.949Z</time></trkpt><trkpt lat="40.693145" lon="15.17799"><ele>777.0</ele><time>2026-04-12T11:05:17.949Z</time></trkpt><trkpt lat="40.6932217" lon="15.1780167"><ele>777.0</ele><time>2026-04-12T11:05:18.949Z</time></trkpt><trkpt lat="40.6933033" lon="15.1780367"><ele>777.0</ele><time>2026-04-12T11:05:19.949Z</time></trkpt><trkpt lat="40.6933867" lon="15.1780533"><ele>777.0</ele><time>2026-04-12T11:05:20.949Z</time></trkpt><trkpt lat="40.693465" lon="15.1780567"><ele>777.0</ele><time>2026-04-12T11:05:21.949Z</time></trkpt><trkpt lat="40.6935417" lon="15.178055"><ele>777.0</ele><time>2026-04-12T11:05:22.949Z</time></trkpt><trkpt lat="40.6936133" lon="15.1780567"><ele>779.8571428571429</ele><time>2026-04-12T11:05:23.949Z</time></trkpt><trkpt lat="40.693685" lon="15.178065"><ele>782.7142857142858</ele><time>2026-04-12T11:05:24.949Z</time></trkpt><trkpt lat="40.693755" lon="15.1780767"><ele>785.5714285714286</ele><time>2026-04-12T11:05:25.949Z</time></trkpt><trkpt lat="40.6938233" lon="15.17808"><ele>788.4285714285714</ele><time>2026-04-12T11:05:26.949Z</time></trkpt><trkpt lat="40.693895" lon="15.178075"><ele>791.2857142857143</ele><time>2026-04-12T11:05:27.949Z</time></trkpt><trkpt lat="40.6939667" lon="15.1780417"><ele>794.1428571428571</ele><time>2026-04-12T11:05:28.949Z</time></trkpt><trkpt lat="40.694035" lon="15.1780017"><ele>797.0</ele><time>2026-04-12T11:05:29.949Z</time></trkpt><trkpt lat="40.6941067" lon="15.1779583"><ele>797.0000000000001</ele><time>2026-04-12T11:05:30.949Z</time></trkpt><trkpt lat="40.6941767" lon="15.1779083"><ele>797.0</ele><time>2026-04-12T11:05:31.949Z</time></trkpt><trkpt lat="40.6942483" lon="15.1778667"><ele>797.0</ele><time>2026-04-12T11:05:32.949Z</time></trkpt><trkpt lat="40.6943167" lon="15.1778283"><ele>797.0</ele><time>2026-04-12T11:05:33.949Z</time></trkpt><trkpt lat="40.694395" lon="15.177795"><ele>797.0000000000001</ele><time>2026-04-12T11:05:34.95Z</time></trkpt><trkpt lat="40.6944767" lon="15.17777"><ele>797.0</ele><time>2026-04-12T11:05:35.949Z</time></trkpt><trkpt lat="40.6945583" lon="15.1777467"><ele>800.1666666666667</ele><time>2026-04-12T11:05:36.949Z</time></trkpt><trkpt lat="40.694635" lon="15.17772"><ele>803.3333333333334</ele><time>2026-04-12T11:05:37.949Z</time></trkpt><trkpt lat="40.6947133" lon="15.1777067"><ele>806.5</ele><time>2026-04-12T11:05:38.949Z</time></trkpt><trkpt lat="40.6947883" lon="15.1777017"><ele>809.6666666666667</ele><time>2026-04-12T11:05:39.949Z</time></trkpt><trkpt lat="40.6948617" lon="15.1777067"><ele>812.8333333333334</ele><time>2026-04-12T11:05:40.949Z</time></trkpt><trkpt lat="40.6949383" lon="15.1777233"><ele>816.0</ele><time>2026-04-12T11:05:41.949Z</time></trkpt><trkpt lat="40.6950167" lon="15.1777467"><ele>816.0</ele><time>2026-04-12T11:05:42.949Z</time></trkpt><trkpt lat="40.6950983" lon="15.17777"><ele>816.0</ele><time>2026-04-12T11:05:43.949Z</time></trkpt><trkpt lat="40.69518" lon="15.1777883"><ele>816.0</ele><time>2026-04-12T11:05:44.949Z</time></trkpt><trkpt lat="40.695265" lon="15.1778117"><ele>816.0</ele><time>2026-04-12T11:05:45.949Z</time></trkpt><trkpt lat="40.69535" lon="15.1778283"><ele>816.0</ele><time>2026-04-12T11:05:46.949Z</time></trkpt><trkpt lat="40.695435" lon="15.1778433"><ele>816.0</ele><time>2026-04-12T11:05:47.949Z</time></trkpt><trkpt lat="40.6955183" lon="15.177865"><ele>819.0</ele><time>2026-04-12T11:05:48.949Z</time></trkpt><trkpt lat="40.6956033" lon="15.1778817"><ele>822.0</ele><time>2026-04-12T11:05:49.949Z</time></trkpt><trkpt lat="40.6956883" lon="15.1778933"><ele>825.0</ele><time>2026-04-12T11:05:50.949Z</time></trkpt><trkpt lat="40.6957767" lon="15.1779017"><ele>828.0</ele><time>2026-04-12T11:05:51.949Z</time></trkpt><trkpt lat="40.695865" lon="15.1779017"><ele>831.0</ele><time>2026-04-12T11:05:52.949Z</time></trkpt><trkpt lat="40.6959517" lon="15.1778917"><ele>834.0</ele><time>2026-04-12T11:05:53.949Z</time></trkpt><trkpt lat="40.69604" lon="15.1778783"><ele>833.8000000000001</ele><time>2026-04-12T11:05:54.949Z</time></trkpt><trkpt lat="40.6961333" lon="15.17786"><ele>833.6</ele><time>2026-04-12T11:05:55.949Z</time></trkpt><trkpt lat="40.6962267" lon="15.177835"><ele>833.4</ele><time>2026-04-12T11:05:56.949Z</time></trkpt><trkpt lat="40.6963183" lon="15.1778117"><ele>833.2</ele><time>2026-04-12T11:05:57.949Z</time></trkpt><trkpt lat="40.6964083" lon="15.177765"><ele>833.0</ele><time>2026-04-12T11:05:58.949Z</time></trkpt><trkpt lat="40.6964933" lon="15.1777067"><ele>833.0</ele><time>2026-04-12T11:05:59.949Z</time></trkpt><trkpt lat="40.696575" lon="15.17762"><ele>833.0</ele><time>2026-04-12T11:06:00.949Z</time></trkpt><trkpt lat="40.69665" lon="15.1775267"><ele>833.0</ele><time>2026-04-12T11:06:01.949Z</time></trkpt><trkpt lat="40.6967183" lon="15.177425"><ele>833.0</ele><time>2026-04-12T11:06:02.949Z</time></trkpt><trkpt lat="40.6967917" lon="15.17734"><ele>833.0</ele><time>2026-04-12T11:06:03.949Z</time></trkpt><trkpt lat="40.6968667" lon="15.1772867"><ele>843.3333333333334</ele><time>2026-04-12T11:06:04.949Z</time></trkpt><trkpt lat="40.6969383" lon="15.1772583"><ele>853.6666666666667</ele><time>2026-04-12T11:06:05.949Z</time></trkpt><trkpt lat="40.6970183" lon="15.1772367"><ele>864.0</ele><time>2026-04-12T11:06:06.949Z</time></trkpt><trkpt lat="40.6971017" lon="15.1772217"><ele>874.3333333333333</ele><time>2026-04-12T11:06:07.949Z</time></trkpt><trkpt lat="40.6971883" lon="15.17721"><ele>884.6666666666666</ele><time>2026-04-12T11:06:08.949Z</time></trkpt><trkpt lat="40.6972767" lon="15.177205"><ele>895.0</ele><time>2026-04-12T11:06:09.949Z</time></trkpt><trkpt lat="40.697365" lon="15.177195"><ele>894.9999999999999</ele><time>2026-04-12T11:06:10.949Z</time></trkpt><trkpt lat="40.6974567" lon="15.1772067"><ele>895.0</ele><time>2026-04-12T11:06:11.949Z</time></trkpt><trkpt lat="40.6975483" lon="15.1772283"><ele>895.0</ele><time>2026-04-12T11:06:12.949Z</time></trkpt><trkpt lat="40.6976267" lon="15.1772567"><ele>895.0</ele><time>2026-04-12T11:06:13.949Z</time></trkpt><trkpt lat="40.697695" lon="15.1772917"><ele>894.9999999999999</ele><time>2026-04-12T11:06:14.949Z</time></trkpt><trkpt lat="40.6977533" lon="15.1773383"><ele>895.0</ele><time>2026-04-12T11:06:15.949Z</time></trkpt><trkpt lat="40.6978" lon="15.1774017"><ele>888.8333333333333</ele><time>2026-04-12T11:06:16.949Z</time></trkpt><trkpt lat="40.6978483" lon="15.1774667"><ele>882.6666666666666</ele><time>2026-04-12T11:06:17.949Z</time></trkpt><trkpt lat="40.6979117" lon="15.1775283"><ele>876.5</ele><time>2026-04-12T11:06:18.949Z</time></trkpt><trkpt lat="40.6979883" lon="15.177575"><ele>870.3333333333333</ele><time>2026-04-12T11:06:19.949Z</time></trkpt><trkpt lat="40.69808" lon="15.1776017"><ele>864.1666666666666</ele><time>2026-04-12T11:06:20.949Z</time></trkpt><trkpt lat="40.69818" lon="15.1776283"><ele>858.0</ele><time>2026-04-12T11:06:21.949Z</time></trkpt><trkpt lat="40.6982783" lon="15.17765"><ele>858.0</ele><time>2026-04-12T11:06:22.949Z</time></trkpt><trkpt lat="40.69837" lon="15.1776783"><ele>858.0</ele><time>2026-04-12T11:06:23.949Z</time></trkpt><trkpt lat="40.698455" lon="15.1777"><ele>858.0</ele><time>2026-04-12T11:06:24.95Z</time></trkpt><trkpt lat="40.698535" lon="15.1777183"><ele>858.0</ele><time>2026-04-12T11:06:25.949Z</time></trkpt><trkpt lat="40.6986083" lon="15.177725"><ele>858.0</ele><time>2026-04-12T11:06:26.95Z</time></trkpt><trkpt lat="40.6986733" lon="15.1777283"><ele>858.0</ele><time>2026-04-12T11:06:27.949Z</time></trkpt><trkpt lat="40.6987883" lon="15.1777133"><ele>859.1666666666666</ele><time>2026-04-12T11:06:29.949Z</time></trkpt><trkpt lat="40.69888" lon="15.17772"><ele>860.3333333333333</ele><time>2026-04-12T11:06:31.949Z</time></trkpt><trkpt lat="40.6989633" lon="15.1777417"><ele>861.5</ele><time>2026-04-12T11:06:33.949Z</time></trkpt><trkpt lat="40.6990467" lon="15.1777717"><ele>862.6666666666666</ele><time>2026-04-12T11:06:35.949Z</time></trkpt><trkpt lat="40.6991167" lon="15.1778"><ele>863.8333333333333</ele><time>2026-04-12T11:06:37.949Z</time></trkpt><trkpt lat="40.6991767" lon="15.1778417"><ele>865.0</ele><time>2026-04-12T11:06:39.949Z</time></trkpt><trkpt lat="40.6992417" lon="15.1778767"><ele>865.0</ele><time>2026-04-12T11:06:41.949Z</time></trkpt><trkpt lat="40.69931" lon="15.177925"><ele>865.0</ele><time>2026-04-12T11:06:43.949Z</time></trkpt><trkpt lat="40.6993667" lon="15.1779883"><ele>865.0</ele><time>2026-04-12T11:06:45.95Z</time></trkpt><trkpt lat="40.6994167" lon="15.1780567"><ele>865.0</ele><time>2026-04-12T11:06:47.95Z</time></trkpt><trkpt lat="40.6994667" lon="15.178125"><ele>865.0</ele><time>2026-04-12T11:06:49.949Z</time></trkpt><trkpt lat="40.6995333" lon="15.178155"><ele>865.0</ele><time>2026-04-12T11:06:51.949Z</time></trkpt><trkpt lat="40.699595" lon="15.1781717"><ele>865.0</ele><time>2026-04-12T11:06:53.95Z</time></trkpt><trkpt lat="40.6996567" lon="15.1781983"><ele>864.9999999999999</ele><time>2026-04-12T11:06:55.949Z</time></trkpt><trkpt lat="40.699715" lon="15.178255"><ele>865.0</ele><time>2026-04-12T11:06:57.949Z</time></trkpt><trkpt lat="40.6997983" lon="15.1783317"><ele>865.0</ele><time>2026-04-12T11:07:00.949Z</time></trkpt><trkpt lat="40.6998767" lon="15.17839"><ele>865.0</ele><time>2026-04-12T11:07:02.949Z</time></trkpt><trkpt lat="40.6999483" lon="15.178455"><ele>864.9999999999999</ele><time>2026-04-12T11:07:04.95Z</time></trkpt><trkpt lat="40.7000117" lon="15.1785267"><ele>865.0</ele><time>2026-04-12T11:07:06.949Z</time></trkpt><trkpt lat="40.700065" lon="15.1786167"><ele>865.0</ele><time>2026-04-12T11:07:09.949Z</time></trkpt><trkpt lat="40.7000733" lon="15.1787317"><ele>865.0</ele><time>2026-04-12T11:07:12.949Z</time></trkpt><trkpt lat="40.7000383" lon="15.17882"><ele>865.0</ele><time>2026-04-12T11:07:14.949Z</time></trkpt><trkpt lat="40.6999683" lon="15.1789717"><ele>865.0</ele><time>2026-04-12T11:07:16.949Z</time></trkpt><trkpt lat="40.6999183" lon="15.179065"><ele>865.0</ele><time>2026-04-12T11:07:17.949Z</time></trkpt><trkpt lat="40.6998667" lon="15.1791583"><ele>864.8333333333333</ele><time>2026-04-12T11:07:18.949Z</time></trkpt><trkpt lat="40.6998233" lon="15.1792383"><ele>864.6666666666666</ele><time>2026-04-12T11:07:19.949Z</time></trkpt><trkpt lat="40.6997883" lon="15.179315"><ele>864.5</ele><time>2026-04-12T11:07:20.95Z</time></trkpt><trkpt lat="40.6997617" lon="15.1794"><ele>864.3333333333333</ele><time>2026-04-12T11:07:21.949Z</time></trkpt><trkpt lat="40.699755" lon="15.179485"><ele>864.1666666666666</ele><time>2026-04-12T11:07:22.949Z</time></trkpt><trkpt lat="40.6997783" lon="15.1796333"><ele>864.0</ele><time>2026-04-12T11:07:24.949Z</time></trkpt><trkpt lat="40.6998417" lon="15.1797383"><ele>864.0</ele><time>2026-04-12T11:07:26.949Z</time></trkpt><trkpt lat="40.6999417" lon="15.1798133"><ele>864.0000000000001</ele><time>2026-04-12T11:07:28.949Z</time></trkpt><trkpt lat="40.7000683" lon="15.1798483"><ele>864.0000000000001</ele><time>2026-04-12T11:07:30.949Z</time></trkpt><trkpt lat="40.70014" lon="15.179875"><ele>864.0</ele><time>2026-04-12T11:07:31.949Z</time></trkpt><trkpt lat="40.700205" lon="15.179905"><ele>864.0</ele><time>2026-04-12T11:07:32.949Z</time></trkpt><trkpt lat="40.7002867" lon="15.1799483"><ele>865.3333333333334</ele><time>2026-04-12T11:07:34.949Z</time></trkpt><trkpt lat="40.70035" lon="15.1800283"><ele>866.6666666666667</ele><time>2026-04-12T11:08:35.948Z</time></trkpt><trkpt lat="40.7004133" lon="15.1800833"><ele>868.0</ele><time>2026-04-12T11:08:37.948Z</time></trkpt><trkpt lat="40.7004717" lon="15.18013"><ele>869.3333333333334</ele><time>2026-04-12T11:08:39.948Z</time></trkpt><trkpt lat="40.700535" lon="15.1801817"><ele>870.6666666666667</ele><time>2026-04-12T11:08:42.948Z</time></trkpt><trkpt lat="40.7006183" lon="15.18025"><ele>872.0</ele><time>2026-04-12T11:08:49.948Z</time></trkpt><trkpt lat="40.700702" lon="15.1803246"><ele>872.0</ele><time>2026-04-12T11:11:03.015Z</time></trkpt><trkpt lat="40.7008299" lon="15.1803045"><ele>872.0</ele><time>2026-04-12T11:12:03.023Z</time></trkpt></trkseg><trkseg><trkpt lat="40.7007588" lon="15.1803188"><ele>915.4</ele><time>2026-04-12T11:32:42.985Z</time></trkpt></trkseg><trkseg><trkpt lat="40.700825" lon="15.1803833"><ele>872.0000000000001</ele><time>2026-04-12T12:00:04.969Z</time></trkpt><trkpt lat="40.7008617" lon="15.180465"><ele>872.0</ele><time>2026-04-12T12:00:06.969Z</time></trkpt><trkpt lat="40.7008817" lon="15.1805683"><ele>872.0</ele><time>2026-04-12T12:00:09.969Z</time></trkpt><trkpt lat="40.700885" lon="15.1806683"><ele>872.0</ele><time>2026-04-12T12:00:13.969Z</time></trkpt><trkpt lat="40.700865" lon="15.1807767"><ele>872.0000000000001</ele><time>2026-04-12T12:00:16.969Z</time></trkpt><trkpt lat="40.700865" lon="15.180875"><ele>872.0</ele><time>2026-04-12T12:00:19.969Z</time></trkpt><trkpt lat="40.7009283" lon="15.1808967"><ele>872.0000000000001</ele><time>2026-04-12T12:00:22.969Z</time></trkpt><trkpt lat="40.7009767" lon="15.1808333"><ele>872.0</ele><time>2026-04-12T12:00:26.969Z</time></trkpt><trkpt lat="40.7009267" lon="15.1807317"><ele>872.0</ele><time>2026-04-12T12:00:30.969Z</time></trkpt><trkpt lat="40.7008783" lon="15.1806533"><ele>872.0</ele><time>2026-04-12T12:00:32.97Z</time></trkpt><trkpt lat="40.70082" lon="15.180565"><ele>872.0000000000001</ele><time>2026-04-12T12:00:34.969Z</time></trkpt><trkpt lat="40.7007617" lon="15.1804767"><ele>872.0</ele><time>2026-04-12T12:00:36.969Z</time></trkpt><trkpt lat="40.7007083" lon="15.1804033"><ele>872.0</ele><time>2026-04-12T12:00:38.969Z</time></trkpt><trkpt lat="40.700645" lon="15.18031"><ele>872.0</ele><time>2026-04-12T12:00:40.969Z</time></trkpt><trkpt lat="40.70056" lon="15.1801967"><ele>872.0</ele><time>2026-04-12T12:01:19.969Z</time></trkpt><trkpt lat="40.7005017" lon="15.1801233"><ele>872.0</ele><time>2026-04-12T12:01:22.969Z</time></trkpt><trkpt lat="40.7004317" lon="15.1800733"><ele>872.0</ele><time>2026-04-12T12:01:24.969Z</time></trkpt><trkpt lat="40.7003617" lon="15.1800133"><ele>872.0000000000001</ele><time>2026-04-12T12:01:26.969Z</time></trkpt><trkpt lat="40.7002967" lon="15.17997"><ele>872.0</ele><time>2026-04-12T12:01:28.969Z</time></trkpt><trkpt lat="40.7002117" lon="15.1799333"><ele>872.0</ele><time>2026-04-12T12:01:30.969Z</time></trkpt><trkpt lat="40.7001467" lon="15.1798983"><ele>872.0</ele><time>2026-04-12T12:01:32.969Z</time></trkpt><trkpt lat="40.700065" lon="15.1798567"><ele>872.0000000000001</ele><time>2026-04-12T12:01:35.969Z</time></trkpt><trkpt lat="40.6999933" lon="15.1798317"><ele>872.0</ele><time>2026-04-12T12:01:37.97Z</time></trkpt><trkpt lat="40.6999267" lon="15.1798033"><ele>870.6666666666667</ele><time>2026-04-12T12:01:39.969Z</time></trkpt><trkpt lat="40.6998583" lon="15.17975"><ele>869.3333333333334</ele><time>2026-04-12T12:01:41.969Z</time></trkpt><trkpt lat="40.6997917" lon="15.179675"><ele>868.0</ele><time>2026-04-12T12:01:43.969Z</time></trkpt><trkpt lat="40.6997667" lon="15.1795833"><ele>866.6666666666667</ele><time>2026-04-12T12:01:45.969Z</time></trkpt><trkpt lat="40.6997733" lon="15.1794633"><ele>865.3333333333334</ele><time>2026-04-12T12:01:47.969Z</time></trkpt><trkpt lat="40.6998017" lon="15.1793433"><ele>864.0</ele><time>2026-04-12T12:01:49.969Z</time></trkpt><trkpt lat="40.6998367" lon="15.179245"><ele>864.0</ele><time>2026-04-12T12:01:51.969Z</time></trkpt><trkpt lat="40.6998683" lon="15.1791633"><ele>864.0</ele><time>2026-04-12T12:01:53.97Z</time></trkpt><trkpt lat="40.6999117" lon="15.1790967"><ele>864.0</ele><time>2026-04-12T12:01:55.969Z</time></trkpt><trkpt lat="40.6999533" lon="15.179025"><ele>864.0</ele><time>2026-04-12T12:01:57.969Z</time></trkpt><trkpt lat="40.6999917" lon="15.1789417"><ele>864.0</ele><time>2026-04-12T12:01:59.969Z</time></trkpt><trkpt lat="40.7000233" lon="15.17884"><ele>864.0</ele><time>2026-04-12T12:02:01.969Z</time></trkpt><trkpt lat="40.700045" lon="15.1787383"><ele>864.0</ele><time>2026-04-12T12:02:03.969Z</time></trkpt><trkpt lat="40.7000533" lon="15.1786367"><ele>864.2</ele><time>2026-04-12T12:02:05.969Z</time></trkpt><trkpt lat="40.70003" lon="15.1785217"><ele>864.4000000000001</ele><time>2026-04-12T12:02:08.969Z</time></trkpt><trkpt lat="40.699965" lon="15.17842"><ele>864.6</ele><time>2026-04-12T12:02:11.969Z</time></trkpt><trkpt lat="40.6998967" lon="15.1783517"><ele>864.8</ele><time>2026-04-12T12:02:13.969Z</time></trkpt><trkpt lat="40.6997983" lon="15.1782817"><ele>865.0</ele><time>2026-04-12T12:02:15.969Z</time></trkpt><trkpt lat="40.6996917" lon="15.1782033"><ele>864.9999999999999</ele><time>2026-04-12T12:02:17.969Z</time></trkpt><trkpt lat="40.69963" lon="15.1781633"><ele>865.0</ele><time>2026-04-12T12:02:18.97Z</time></trkpt><trkpt lat="40.6995717" lon="15.1781217"><ele>865.0</ele><time>2026-04-12T12:02:19.969Z</time></trkpt><trkpt lat="40.6994883" lon="15.1780333"><ele>865.0</ele><time>2026-04-12T12:02:21.969Z</time></trkpt><trkpt lat="40.6994117" lon="15.1779417"><ele>864.9999999999999</ele><time>2026-04-12T12:02:23.969Z</time></trkpt><trkpt lat="40.6993367" lon="15.1778717"><ele>865.0</ele><time>2026-04-12T12:02:25.969Z</time></trkpt><trkpt lat="40.69927" lon="15.1778233"><ele>864.9999999999999</ele><time>2026-04-12T12:02:27.969Z</time></trkpt><trkpt lat="40.699205" lon="15.177775"><ele>865.0</ele><time>2026-04-12T12:02:29.969Z</time></trkpt><trkpt lat="40.6991217" lon="15.1777367"><ele>865.0</ele><time>2026-04-12T12:02:31.969Z</time></trkpt><trkpt lat="40.6990333" lon="15.17771"><ele>865.0</ele><time>2026-04-12T12:02:33.969Z</time></trkpt><trkpt lat="40.69891" lon="15.1777133"><ele>864.9999999999999</ele><time>2026-04-12T12:02:35.969Z</time></trkpt><trkpt lat="40.6988483" lon="15.1777333"><ele>865.0</ele><time>2026-04-12T12:02:36.969Z</time></trkpt><trkpt lat="40.6987783" lon="15.1777533"><ele>864.9999999999999</ele><time>2026-04-12T12:02:37.969Z</time></trkpt><trkpt lat="40.698705" lon="15.17777"><ele>865.0</ele><time>2026-04-12T12:02:38.97Z</time></trkpt><trkpt lat="40.69863" lon="15.1777817"><ele>865.0</ele><time>2026-04-12T12:02:39.969Z</time></trkpt><trkpt lat="40.6985467" lon="15.1777833"><ele>865.0</ele><time>2026-04-12T12:02:40.969Z</time></trkpt><trkpt lat="40.698455" lon="15.1777633"><ele>864.9999999999999</ele><time>2026-04-12T12:02:41.969Z</time></trkpt><trkpt lat="40.6983467" lon="15.17773"><ele>865.0</ele><time>2026-04-12T12:02:42.968Z</time></trkpt><trkpt lat="40.6982217" lon="15.1776717"><ele>863.6</ele><time>2026-04-12T12:02:43.968Z</time></trkpt><trkpt lat="40.698095" lon="15.1776267"><ele>862.2</ele><time>2026-04-12T12:02:44.968Z</time></trkpt><trkpt lat="40.69799" lon="15.1775833"><ele>860.8</ele><time>2026-04-12T12:02:45.968Z</time></trkpt><trkpt lat="40.6979117" lon="15.17753"><ele>859.4</ele><time>2026-04-12T12:02:46.968Z</time></trkpt><trkpt lat="40.69784" lon="15.1774733"><ele>858.0</ele><time>2026-04-12T12:02:47.968Z</time></trkpt><trkpt lat="40.69779" lon="15.1773983"><ele>864.1666666666666</ele><time>2026-04-12T12:02:48.968Z</time></trkpt><trkpt lat="40.6977467" lon="15.17733"><ele>870.3333333333333</ele><time>2026-04-12T12:02:49.968Z</time></trkpt><trkpt lat="40.697695" lon="15.1772817"><ele>876.5</ele><time>2026-04-12T12:02:50.968Z</time></trkpt><trkpt lat="40.6976267" lon="15.177255"><ele>882.6666666666666</ele><time>2026-04-12T12:02:51.968Z</time></trkpt><trkpt lat="40.6975533" lon="15.1772367"><ele>888.8333333333333</ele><time>2026-04-12T12:02:52.968Z</time></trkpt><trkpt lat="40.6974683" lon="15.1772283"><ele>895.0</ele><time>2026-04-12T12:02:53.969Z</time></trkpt><trkpt lat="40.6973783" lon="15.1772217"><ele>894.9999999999999</ele><time>2026-04-12T12:02:54.968Z</time></trkpt><trkpt lat="40.6972867" lon="15.17722"><ele>895.0</ele><time>2026-04-12T12:02:55.968Z</time></trkpt><trkpt lat="40.6971933" lon="15.1772283"><ele>895.0</ele><time>2026-04-12T12:02:56.968Z</time></trkpt><trkpt lat="40.6971" lon="15.1772433"><ele>895.0</ele><time>2026-04-12T12:02:57.968Z</time></trkpt><trkpt lat="40.6970167" lon="15.1772567"><ele>894.9999999999999</ele><time>2026-04-12T12:02:58.968Z</time></trkpt><trkpt lat="40.6969433" lon="15.1772683"><ele>895.0</ele><time>2026-04-12T12:02:59.968Z</time></trkpt><trkpt lat="40.69687" lon="15.1773"><ele>892.6666666666666</ele><time>2026-04-12T12:03:00.968Z</time></trkpt><trkpt lat="40.6968083" lon="15.1773383"><ele>890.3333333333333</ele><time>2026-04-12T12:03:01.968Z</time></trkpt><trkpt lat="40.6967533" lon="15.177385"><ele>888.0</ele><time>2026-04-12T12:03:02.968Z</time></trkpt><trkpt lat="40.6967067" lon="15.1774433"><ele>885.6666666666667</ele><time>2026-04-12T12:03:03.968Z</time></trkpt><trkpt lat="40.696625" lon="15.1775717"><ele>883.3333333333334</ele><time>2026-04-12T12:03:05.969Z</time></trkpt><trkpt lat="40.6965733" lon="15.1776367"><ele>881.0</ele><time>2026-04-12T12:03:06.968Z</time></trkpt><trkpt lat="40.6965117" lon="15.1776917"><ele>873.1666666666667</ele><time>2026-04-12T12:03:07.969Z</time></trkpt><trkpt lat="40.696445" lon="15.1777417"><ele>865.3333333333334</ele><time>2026-04-12T12:03:08.968Z</time></trkpt><trkpt lat="40.6963683" lon="15.1777833"><ele>857.5</ele><time>2026-04-12T12:03:09.968Z</time></trkpt><trkpt lat="40.696285" lon="15.1778267"><ele>849.6666666666667</ele><time>2026-04-12T12:03:10.968Z</time></trkpt><trkpt lat="40.6962017" lon="15.177865"><ele>841.8333333333334</ele><time>2026-04-12T12:03:11.968Z</time></trkpt><trkpt lat="40.69611" lon="15.1778833"><ele>834.0</ele><time>2026-04-12T12:03:12.968Z</time></trkpt><trkpt lat="40.69601" lon="15.1779033"><ele>834.0</ele><time>2026-04-12T12:03:13.969Z</time></trkpt><trkpt lat="40.6959083" lon="15.1779167"><ele>834.0</ele><time>2026-04-12T12:03:14.968Z</time></trkpt><trkpt lat="40.6958083" lon="15.17792"><ele>834.0</ele><time>2026-04-12T12:03:15.968Z</time></trkpt><trkpt lat="40.6957017" lon="15.1779217"><ele>834.0</ele><time>2026-04-12T12:03:16.968Z</time></trkpt><trkpt lat="40.6956" lon="15.1779067"><ele>834.0</ele><time>2026-04-12T12:03:17.968Z</time></trkpt><trkpt lat="40.6955033" lon="15.1778867"><ele>834.0</ele><time>2026-04-12T12:03:18.968Z</time></trkpt><trkpt lat="40.6954167" lon="15.17787"><ele>834.0</ele><time>2026-04-12T12:03:19.968Z</time></trkpt><trkpt lat="40.6953367" lon="15.1778583"><ele>834.0</ele><time>2026-04-12T12:03:20.968Z</time></trkpt><trkpt lat="40.6952683" lon="15.1778417"><ele>834.0</ele><time>2026-04-12T12:03:21.968Z</time></trkpt><trkpt lat="40.695145" lon="15.1778083"><ele>834.0</ele><time>2026-04-12T12:03:23.968Z</time></trkpt><trkpt lat="40.69508" lon="15.17779"><ele>834.0</ele><time>2026-04-12T12:03:24.968Z</time></trkpt><trkpt lat="40.6949567" lon="15.1777467"><ele>830.4000000000001</ele><time>2026-04-12T12:03:26.968Z</time></trkpt><trkpt lat="40.694835" lon="15.1777067"><ele>826.8</ele><time>2026-04-12T12:03:28.968Z</time></trkpt><trkpt lat="40.6947033" lon="15.1777167"><ele>823.2</ele><time>2026-04-12T12:03:30.968Z</time></trkpt><trkpt lat="40.6946283" lon="15.1777367"><ele>819.5999999999999</ele><time>2026-04-12T12:03:31.969Z</time></trkpt><trkpt lat="40.6945483" lon="15.1777583"><ele>816.0</ele><time>2026-04-12T12:03:32.968Z</time></trkpt><trkpt lat="40.6944733" lon="15.1777783"><ele>813.2857142857143</ele><time>2026-04-12T12:03:33.968Z</time></trkpt><trkpt lat="40.6943967" lon="15.1778017"><ele>810.5714285714287</ele><time>2026-04-12T12:03:34.968Z</time></trkpt><trkpt lat="40.6943283" lon="15.177825"><ele>807.8571428571429</ele><time>2026-04-12T12:03:35.968Z</time></trkpt><trkpt lat="40.6942683" lon="15.1778517"><ele>805.1428571428571</ele><time>2026-04-12T12:03:36.968Z</time></trkpt><trkpt lat="40.69421" lon="15.1778967"><ele>802.4285714285714</ele><time>2026-04-12T12:03:37.968Z</time></trkpt><trkpt lat="40.6941567" lon="15.1779467"><ele>799.7142857142857</ele><time>2026-04-12T12:03:38.968Z</time></trkpt><trkpt lat="40.6940967" lon="15.1779933"><ele>797.0</ele><time>2026-04-12T12:03:39.968Z</time></trkpt><trkpt lat="40.6940367" lon="15.178025"><ele>797.0</ele><time>2026-04-12T12:03:40.968Z</time></trkpt><trkpt lat="40.6939717" lon="15.1780567"><ele>797.0</ele><time>2026-04-12T12:03:41.968Z</time></trkpt><trkpt lat="40.693895" lon="15.1780767"><ele>797.0</ele><time>2026-04-12T12:03:42.968Z</time></trkpt><trkpt lat="40.693815" lon="15.1780783"><ele>797.0</ele><time>2026-04-12T12:03:43.968Z</time></trkpt><trkpt lat="40.6937467" lon="15.1780733"><ele>797.0</ele><time>2026-04-12T12:03:44.968Z</time></trkpt><trkpt lat="40.693675" lon="15.1780667"><ele>797.0</ele><time>2026-04-12T12:03:45.968Z</time></trkpt><trkpt lat="40.693595" lon="15.1780583"><ele>797.0</ele><time>2026-04-12T12:03:46.968Z</time></trkpt><trkpt lat="40.6935067" lon="15.178055"><ele>793.0</ele><time>2026-04-12T12:03:47.968Z</time></trkpt><trkpt lat="40.6934167" lon="15.1780483"><ele>789.0</ele><time>2026-04-12T12:03:48.968Z</time></trkpt><trkpt lat="40.6933283" lon="15.1780417"><ele>785.0</ele><time>2026-04-12T12:03:49.969Z</time></trkpt><trkpt lat="40.6932433" lon="15.1780283"><ele>781.0</ele><time>2026-04-12T12:03:50.968Z</time></trkpt><trkpt lat="40.693155" lon="15.178"><ele>777.0</ele><time>2026-04-12T12:03:51.968Z</time></trkpt><trkpt lat="40.693065" lon="15.17795"><ele>777.0</ele><time>2026-04-12T12:03:52.968Z</time></trkpt><trkpt lat="40.6929867" lon="15.17788"><ele>777.0</ele><time>2026-04-12T12:03:53.968Z</time></trkpt><trkpt lat="40.69291" lon="15.1778117"><ele>777.0</ele><time>2026-04-12T12:03:54.968Z</time></trkpt><trkpt lat="40.69284" lon="15.1777467"><ele>777.0</ele><time>2026-04-12T12:03:55.969Z</time></trkpt><trkpt lat="40.6927767" lon="15.1776833"><ele>777.0</ele><time>2026-04-12T12:03:56.968Z</time></trkpt><trkpt lat="40.6927267" lon="15.1776183"><ele>777.0</ele><time>2026-04-12T12:03:57.968Z</time></trkpt><trkpt lat="40.692665" lon="15.1774933"><ele>774.2</ele><time>2026-04-12T12:03:59.968Z</time></trkpt><trkpt lat="40.6926583" lon="15.1773483"><ele>771.4000000000001</ele><time>2026-04-12T12:04:01.968Z</time></trkpt><trkpt lat="40.69265" lon="15.1772017"><ele>768.5999999999999</ele><time>2026-04-12T12:04:03.968Z</time></trkpt><trkpt lat="40.6926267" lon="15.1770517"><ele>765.8</ele><time>2026-04-12T12:04:05.968Z</time></trkpt><trkpt lat="40.6925767" lon="15.1769367"><ele>763.0</ele><time>2026-04-12T12:04:07.968Z</time></trkpt><trkpt lat="40.69249" lon="15.1768317"><ele>763.0</ele><time>2026-04-12T12:04:09.969Z</time></trkpt><trkpt lat="40.6924217" lon="15.1768033"><ele>763.0</ele><time>2026-04-12T12:04:10.968Z</time></trkpt><trkpt lat="40.6923533" lon="15.17678"><ele>763.0</ele><time>2026-04-12T12:04:11.968Z</time></trkpt><trkpt lat="40.6922817" lon="15.1767533"><ele>763.0</ele><time>2026-04-12T12:04:12.968Z</time></trkpt><trkpt lat="40.69221" lon="15.1767183"><ele>763.0</ele><time>2026-04-12T12:04:13.969Z</time></trkpt><trkpt lat="40.692145" lon="15.1767017"><ele>763.0</ele><time>2026-04-12T12:04:14.968Z</time></trkpt><trkpt lat="40.6920817" lon="15.1767"><ele>763.0</ele><time>2026-04-12T12:04:15.969Z</time></trkpt><trkpt lat="40.69202" lon="15.1767167"><ele>758.5999999999999</ele><time>2026-04-12T12:04:16.968Z</time></trkpt><trkpt lat="40.6919" lon="15.176765"><ele>754.1999999999999</ele><time>2026-04-12T12:04:18.968Z</time></trkpt><trkpt lat="40.6917983" lon="15.1768383"><ele>749.8</ele><time>2026-04-12T12:04:20.968Z</time></trkpt><trkpt lat="40.69171" lon="15.1769667"><ele>745.4</ele><time>2026-04-12T12:04:22.968Z</time></trkpt><trkpt lat="40.6916617" lon="15.1770267"><ele>741.0</ele><time>2026-04-12T12:04:23.968Z</time></trkpt><trkpt lat="40.6916117" lon="15.1770883"><ele>741.0</ele><time>2026-04-12T12:04:24.968Z</time></trkpt><trkpt lat="40.6915667" lon="15.177155"><ele>741.0</ele><time>2026-04-12T12:04:25.968Z</time></trkpt><trkpt lat="40.691535" lon="15.1772283"><ele>741.0</ele><time>2026-04-12T12:04:26.968Z</time></trkpt><trkpt lat="40.6915167" lon="15.177315"><ele>741.0</ele><time>2026-04-12T12:04:27.968Z</time></trkpt><trkpt lat="40.6915117" lon="15.1774033"><ele>741.0</ele><time>2026-04-12T12:04:28.968Z</time></trkpt><trkpt lat="40.6915167" lon="15.17749"><ele>741.0</ele><time>2026-04-12T12:04:29.969Z</time></trkpt><trkpt lat="40.69152" lon="15.1775767"><ele>741.0</ele><time>2026-04-12T12:04:30.968Z</time></trkpt><trkpt lat="40.6915117" lon="15.1776683"><ele>738.4</ele><time>2026-04-12T12:04:31.968Z</time></trkpt><trkpt lat="40.6915017" lon="15.1777517"><ele>735.8</ele><time>2026-04-12T12:04:32.968Z</time></trkpt><trkpt lat="40.69147" lon="15.1778667"><ele>733.1999999999999</ele><time>2026-04-12T12:04:34.968Z</time></trkpt><trkpt lat="40.6914067" lon="15.17792"><ele>730.5999999999999</ele><time>2026-04-12T12:04:36.968Z</time></trkpt><trkpt lat="40.6913017" lon="15.1779017"><ele>728.0</ele><time>2026-04-12T12:04:38.968Z</time></trkpt><trkpt lat="40.6911833" lon="15.1778433"><ele>728.0</ele><time>2026-04-12T12:04:40.968Z</time></trkpt><trkpt lat="40.6911283" lon="15.1777983"><ele>728.0</ele><time>2026-04-12T12:04:41.968Z</time></trkpt><trkpt lat="40.6910833" lon="15.1777333"><ele>728.0</ele><time>2026-04-12T12:04:42.968Z</time></trkpt><trkpt lat="40.691055" lon="15.177655"><ele>728.0</ele><time>2026-04-12T12:04:43.968Z</time></trkpt><trkpt lat="40.691035" lon="15.1775683"><ele>728.0</ele><time>2026-04-12T12:04:44.968Z</time></trkpt><trkpt lat="40.691015" lon="15.1774767"><ele>728.0</ele><time>2026-04-12T12:04:45.969Z</time></trkpt><trkpt lat="40.6909783" lon="15.1773283"><ele>725.3333333333333</ele><time>2026-04-12T12:04:47.969Z</time></trkpt><trkpt lat="40.6909433" lon="15.1772517"><ele>722.6666666666666</ele><time>2026-04-12T12:04:49.968Z</time></trkpt><trkpt lat="40.6908767" lon="15.17724"><ele>720.0</ele><time>2026-04-12T12:04:52.968Z</time></trkpt><trkpt lat="40.6908067" lon="15.1772883"><ele>717.3333333333334</ele><time>2026-04-12T12:04:55.968Z</time></trkpt><trkpt lat="40.6907533" lon="15.1773717"><ele>714.6666666666667</ele><time>2026-04-12T12:04:58.968Z</time></trkpt><trkpt lat="40.6907333" lon="15.1774833"><ele>712.0</ele><time>2026-04-12T12:05:01.968Z</time></trkpt><trkpt lat="40.6907017" lon="15.1775917"><ele>710.6666666666667</ele><time>2026-04-12T12:05:04.968Z</time></trkpt><trkpt lat="40.6906983" lon="15.1777033"><ele>709.3333333333334</ele><time>2026-04-12T12:05:19.968Z</time></trkpt><trkpt lat="40.6906983" lon="15.1778217"><ele>708.0</ele><time>2026-04-12T12:05:21.968Z</time></trkpt><trkpt lat="40.6907067" lon="15.17796"><ele>706.6666666666666</ele><time>2026-04-12T12:05:23.968Z</time></trkpt><trkpt lat="40.6907183" lon="15.1780417"><ele>705.3333333333333</ele><time>2026-04-12T12:05:24.968Z</time></trkpt><trkpt lat="40.6907367" lon="15.178125"><ele>704.0</ele><time>2026-04-12T12:05:25.968Z</time></trkpt><trkpt lat="40.69076" lon="15.1782067"><ele>701.0</ele><time>2026-04-12T12:05:26.968Z</time></trkpt><trkpt lat="40.6908333" lon="15.1783433"><ele>698.0</ele><time>2026-04-12T12:05:28.968Z</time></trkpt><trkpt lat="40.6909133" lon="15.1784617"><ele>695.0</ele><time>2026-04-12T12:05:30.968Z</time></trkpt><trkpt lat="40.69097" lon="15.1785783"><ele>692.0</ele><time>2026-04-12T12:05:32.968Z</time></trkpt><trkpt lat="40.6909583" lon="15.1786617"><ele>689.0</ele><time>2026-04-12T12:05:34.968Z</time></trkpt><trkpt lat="40.6908817" lon="15.1787033"><ele>689.0</ele><time>2026-04-12T12:05:36.968Z</time></trkpt><trkpt lat="40.6907733" lon="15.178685"><ele>689.0</ele><time>2026-04-12T12:05:38.968Z</time></trkpt><trkpt lat="40.6906667" lon="15.1786567"><ele>689.0</ele><time>2026-04-12T12:05:40.968Z</time></trkpt><trkpt lat="40.6905617" lon="15.1786633"><ele>689.0</ele><time>2026-04-12T12:05:42.968Z</time></trkpt><trkpt lat="40.690475" lon="15.178725"><ele>689.0</ele><time>2026-04-12T12:05:44.968Z</time></trkpt><trkpt lat="40.6904367" lon="15.1788417"><ele>689.0</ele><time>2026-04-12T12:05:46.968Z</time></trkpt><trkpt lat="40.69043" lon="15.1789833"><ele>689.0</ele><time>2026-04-12T12:05:48.969Z</time></trkpt><trkpt lat="40.690415" lon="15.179125"><ele>689.0</ele><time>2026-04-12T12:05:50.968Z</time></trkpt><trkpt lat="40.6904017" lon="15.17921"><ele>689.0</ele><time>2026-04-12T12:05:51.968Z</time></trkpt><trkpt lat="40.6903883" lon="15.1793"><ele>689.0</ele><time>2026-04-12T12:05:52.968Z</time></trkpt><trkpt lat="40.69037" lon="15.179385"><ele>689.0</ele><time>2026-04-12T12:05:53.968Z</time></trkpt><trkpt lat="40.6903567" lon="15.1794767"><ele>685.5</ele><time>2026-04-12T12:05:54.968Z</time></trkpt><trkpt lat="40.69034" lon="15.1795633"><ele>682.0</ele><time>2026-04-12T12:05:55.968Z</time></trkpt><trkpt lat="40.6903233" lon="15.1796467"><ele>678.5</ele><time>2026-04-12T12:05:56.968Z</time></trkpt><trkpt lat="40.6903083" lon="15.17973"><ele>675.0</ele><time>2026-04-12T12:05:57.968Z</time></trkpt><trkpt lat="40.6902917" lon="15.1798133"><ele>671.5</ele><time>2026-04-12T12:05:58.968Z</time></trkpt><trkpt lat="40.69028" lon="15.1799017"><ele>668.0</ele><time>2026-04-12T12:05:59.968Z</time></trkpt><trkpt lat="40.6902667" lon="15.1800617"><ele>666.8</ele><time>2026-04-12T12:06:01.968Z</time></trkpt><trkpt lat="40.69026" lon="15.1801483"><ele>665.5999999999999</ele><time>2026-04-12T12:06:02.969Z</time></trkpt><trkpt lat="40.69025" lon="15.1802383"><ele>664.4000000000001</ele><time>2026-04-12T12:06:03.968Z</time></trkpt><trkpt lat="40.69024" lon="15.1804033"><ele>663.2</ele><time>2026-04-12T12:06:05.968Z</time></trkpt><trkpt lat="40.69023" lon="15.1805633"><ele>662.0</ele><time>2026-04-12T12:06:07.967Z</time></trkpt><trkpt lat="40.69021" lon="15.18072"><ele>661.3333333333333</ele><time>2026-04-12T12:06:09.967Z</time></trkpt><trkpt lat="40.690195" lon="15.18083"><ele>660.6666666666666</ele><time>2026-04-12T12:06:10.967Z</time></trkpt><trkpt lat="40.6901783" lon="15.18095"><ele>660.0</ele><time>2026-04-12T12:06:11.967Z</time></trkpt><trkpt lat="40.6901467" lon="15.18106"><ele>659.3333333333334</ele><time>2026-04-12T12:06:12.967Z</time></trkpt><trkpt lat="40.6901083" lon="15.1811633"><ele>658.6666666666667</ele><time>2026-04-12T12:06:13.967Z</time></trkpt><trkpt lat="40.6900717" lon="15.181255"><ele>658.0</ele><time>2026-04-12T12:06:14.967Z</time></trkpt><trkpt lat="40.6900433" lon="15.1813417"><ele>658.0</ele><time>2026-04-12T12:06:15.967Z</time></trkpt><trkpt lat="40.6900183" lon="15.1814267"><ele>658.0</ele><time>2026-04-12T12:06:16.967Z</time></trkpt><trkpt lat="40.6900067" lon="15.18152"><ele>658.0</ele><time>2026-04-12T12:06:17.967Z</time></trkpt><trkpt lat="40.689995" lon="15.18162"><ele>658.0</ele><time>2026-04-12T12:06:18.967Z</time></trkpt><trkpt lat="40.6899883" lon="15.1817267"><ele>658.0</ele><time>2026-04-12T12:06:19.967Z</time></trkpt><trkpt lat="40.6899817" lon="15.18183"><ele>658.0</ele><time>2026-04-12T12:06:20.967Z</time></trkpt><trkpt lat="40.6899683" lon="15.1819367"><ele>657.0</ele><time>2026-04-12T12:06:21.967Z</time></trkpt><trkpt lat="40.689955" lon="15.1820517"><ele>656.0</ele><time>2026-04-12T12:06:22.967Z</time></trkpt><trkpt lat="40.6899383" lon="15.1821683"><ele>655.0</ele><time>2026-04-12T12:06:23.967Z</time></trkpt><trkpt lat="40.6899133" lon="15.1822833"><ele>654.0</ele><time>2026-04-12T12:06:24.967Z</time></trkpt><trkpt lat="40.689885" lon="15.182395"><ele>653.0</ele><time>2026-04-12T12:06:25.968Z</time></trkpt><trkpt lat="40.6898567" lon="15.1825017"><ele>652.0</ele><time>2026-04-12T12:06:26.967Z</time></trkpt><trkpt lat="40.689825" lon="15.1826183"><ele>650.0</ele><time>2026-04-12T12:06:27.967Z</time></trkpt><trkpt lat="40.6897967" lon="15.18274"><ele>648.0</ele><time>2026-04-12T12:06:28.967Z</time></trkpt><trkpt lat="40.6897817" lon="15.182865"><ele>646.0</ele><time>2026-04-12T12:06:29.967Z</time></trkpt><trkpt lat="40.6897717" lon="15.18299"><ele>644.0</ele><time>2026-04-12T12:06:30.967Z</time></trkpt><trkpt lat="40.68975" lon="15.1831183"><ele>642.0</ele><time>2026-04-12T12:06:31.967Z</time></trkpt><trkpt lat="40.6897367" lon="15.1832517"><ele>639.6</ele><time>2026-04-12T12:06:32.967Z</time></trkpt><trkpt lat="40.6897333" lon="15.18338"><ele>637.2</ele><time>2026-04-12T12:06:33.967Z</time></trkpt><trkpt lat="40.6897467" lon="15.1835083"><ele>634.8</ele><time>2026-04-12T12:06:34.967Z</time></trkpt><trkpt lat="40.689775" lon="15.18364"><ele>632.4</ele><time>2026-04-12T12:06:35.968Z</time></trkpt><trkpt lat="40.689795" lon="15.1837733"><ele>630.0</ele><time>2026-04-12T12:06:36.967Z</time></trkpt><trkpt lat="40.6898117" lon="15.1839133"><ele>628.2</ele><time>2026-04-12T12:06:37.967Z</time></trkpt><trkpt lat="40.6898433" lon="15.1840483"><ele>626.4</ele><time>2026-04-12T12:06:38.967Z</time></trkpt><trkpt lat="40.68988" lon="15.1841833"><ele>624.6</ele><time>2026-04-12T12:06:39.967Z</time></trkpt><trkpt lat="40.68991" lon="15.1843067"><ele>622.8</ele><time>2026-04-12T12:06:40.967Z</time></trkpt><trkpt lat="40.6899317" lon="15.184415"><ele>621.0</ele><time>2026-04-12T12:06:41.967Z</time></trkpt><trkpt lat="40.68995" lon="15.1845217"><ele>621.0</ele><time>2026-04-12T12:06:42.967Z</time></trkpt><trkpt lat="40.6899817" lon="15.1846217"><ele>621.0</ele><time>2026-04-12T12:06:43.967Z</time></trkpt><trkpt lat="40.69002" lon="15.1847267"><ele>621.0</ele><time>2026-04-12T12:06:44.967Z</time></trkpt><trkpt lat="40.6900783" lon="15.18482"><ele>621.0</ele><time>2026-04-12T12:06:45.967Z</time></trkpt><trkpt lat="40.6901583" lon="15.1849383"><ele>621.0</ele><time>2026-04-12T12:06:46.967Z</time></trkpt><trkpt lat="40.6902517" lon="15.18505"><ele>616.0</ele><time>2026-04-12T12:06:47.967Z</time></trkpt><trkpt lat="40.6903367" lon="15.18516"><ele>611.0</ele><time>2026-04-12T12:06:48.967Z</time></trkpt><trkpt lat="40.6904167" lon="15.18527"><ele>606.0</ele><time>2026-04-12T12:06:49.967Z</time></trkpt><trkpt lat="40.6905033" lon="15.1853683"><ele>601.0</ele><time>2026-04-12T12:06:50.967Z</time></trkpt><trkpt lat="40.6905867" lon="15.185455"><ele>601.0</ele><time>2026-04-12T12:06:51.967Z</time></trkpt><trkpt lat="40.69066" lon="15.18553"><ele>601.0</ele><time>2026-04-12T12:06:52.967Z</time></trkpt><trkpt lat="40.6907217" lon="15.1856217"><ele>601.0</ele><time>2026-04-12T12:06:53.967Z</time></trkpt><trkpt lat="40.6907833" lon="15.18573"><ele>601.0</ele><time>2026-04-12T12:06:54.967Z</time></trkpt><trkpt lat="40.6908317" lon="15.18584"><ele>601.0</ele><time>2026-04-12T12:06:55.967Z</time></trkpt><trkpt lat="40.6908717" lon="15.1859633"><ele>599.0</ele><time>2026-04-12T12:06:56.967Z</time></trkpt><trkpt lat="40.6909117" lon="15.1860867"><ele>597.0</ele><time>2026-04-12T12:06:57.967Z</time></trkpt><trkpt lat="40.6909417" lon="15.1862067"><ele>595.0</ele><time>2026-04-12T12:06:58.967Z</time></trkpt><trkpt lat="40.6909683" lon="15.1863233"><ele>593.0</ele><time>2026-04-12T12:06:59.967Z</time></trkpt><trkpt lat="40.69099" lon="15.1864333"><ele>591.0</ele><time>2026-04-12T12:07:00.968Z</time></trkpt><trkpt lat="40.691" lon="15.18655"><ele>590.0</ele><time>2026-04-12T12:07:01.967Z</time></trkpt><trkpt lat="40.6909983" lon="15.1866667"><ele>589.0</ele><time>2026-04-12T12:07:02.967Z</time></trkpt><trkpt lat="40.6909933" lon="15.18678"><ele>588.0</ele><time>2026-04-12T12:07:03.967Z</time></trkpt><trkpt lat="40.6909883" lon="15.18688"><ele>587.0</ele><time>2026-04-12T12:07:04.967Z</time></trkpt><trkpt lat="40.69098" lon="15.1869783"><ele>586.0</ele><time>2026-04-12T12:07:05.967Z</time></trkpt><trkpt lat="40.6909683" lon="15.1870733"><ele>585.0</ele><time>2026-04-12T12:07:06.967Z</time></trkpt><trkpt lat="40.6909533" lon="15.1871633"><ele>585.0</ele><time>2026-04-12T12:07:07.967Z</time></trkpt><trkpt lat="40.6909233" lon="15.1872933"><ele>585.0</ele><time>2026-04-12T12:07:09.967Z</time></trkpt><trkpt lat="40.69091" lon="15.1873833"><ele>585.0</ele><time>2026-04-12T12:07:13.967Z</time></trkpt><trkpt lat="40.6908783" lon="15.18746"><ele>585.0</ele><time>2026-04-12T12:07:25.967Z</time></trkpt><trkpt lat="40.69085" lon="15.187535"><ele>585.0</ele><time>2026-04-12T12:07:26.967Z</time></trkpt><trkpt lat="40.6908167" lon="15.187625"><ele>585.0</ele><time>2026-04-12T12:07:27.967Z</time></trkpt><trkpt lat="40.6907783" lon="15.1877267"><ele>584.0</ele><time>2026-04-12T12:07:28.967Z</time></trkpt><trkpt lat="40.6907367" lon="15.18783"><ele>583.0</ele><time>2026-04-12T12:07:29.967Z</time></trkpt><trkpt lat="40.690695" lon="15.1879367"><ele>582.0</ele><time>2026-04-12T12:07:30.968Z</time></trkpt><trkpt lat="40.690645" lon="15.1880417"><ele>581.0</ele><time>2026-04-12T12:07:31.967Z</time></trkpt><trkpt lat="40.690605" lon="15.188155"><ele>580.0</ele><time>2026-04-12T12:07:32.967Z</time></trkpt><trkpt lat="40.6905733" lon="15.1882617"><ele>578.8</ele><time>2026-04-12T12:07:33.968Z</time></trkpt><trkpt lat="40.6905417" lon="15.1883817"><ele>577.6</ele><time>2026-04-12T12:07:34.967Z</time></trkpt><trkpt lat="40.69051" lon="15.1885033"><ele>576.4</ele><time>2026-04-12T12:07:35.967Z</time></trkpt><trkpt lat="40.6904883" lon="15.1886267"><ele>575.2</ele><time>2026-04-12T12:07:36.967Z</time></trkpt><trkpt lat="40.6904783" lon="15.1887417"><ele>574.0</ele><time>2026-04-12T12:07:37.967Z</time></trkpt><trkpt lat="40.690485" lon="15.1888583"><ele>574.0</ele><time>2026-04-12T12:07:38.967Z</time></trkpt><trkpt lat="40.6904967" lon="15.1889733"><ele>574.0</ele><time>2026-04-12T12:07:39.967Z</time></trkpt><trkpt lat="40.6905033" lon="15.1890783"><ele>574.0</ele><time>2026-04-12T12:07:40.967Z</time></trkpt><trkpt lat="40.690485" lon="15.1891617"><ele>574.0</ele><time>2026-04-12T12:07:41.967Z</time></trkpt><trkpt lat="40.69044" lon="15.1892483"><ele>574.0</ele><time>2026-04-12T12:07:42.967Z</time></trkpt><trkpt lat="40.6903683" lon="15.1893517"><ele>574.0</ele><time>2026-04-12T12:07:43.967Z</time></trkpt><trkpt lat="40.690295" lon="15.189465"><ele>570.25</ele><time>2026-04-12T12:07:44.967Z</time></trkpt><trkpt lat="40.690235" lon="15.18961"><ele>566.5</ele><time>2026-04-12T12:07:45.967Z</time></trkpt><trkpt lat="40.6901983" lon="15.1897833"><ele>562.75</ele><time>2026-04-12T12:07:46.967Z</time></trkpt><trkpt lat="40.69017" lon="15.1899583"><ele>559.0</ele><time>2026-04-12T12:07:47.967Z</time></trkpt><trkpt lat="40.69014" lon="15.1901233"><ele>556.5</ele><time>2026-04-12T12:07:48.967Z</time></trkpt><trkpt lat="40.690115" lon="15.190285"><ele>554.0</ele><time>2026-04-12T12:07:49.968Z</time></trkpt><trkpt lat="40.6901133" lon="15.1904483"><ele>551.5</ele><time>2026-04-12T12:07:50.967Z</time></trkpt><trkpt lat="40.69013" lon="15.1906133"><ele>549.0</ele><time>2026-04-12T12:07:51.967Z</time></trkpt><trkpt lat="40.690165" lon="15.1907817"><ele>547.5</ele><time>2026-04-12T12:07:52.967Z</time></trkpt><trkpt lat="40.690195" lon="15.1909583"><ele>546.0</ele><time>2026-04-12T12:07:53.967Z</time></trkpt><trkpt lat="40.69022" lon="15.1911517"><ele>544.5</ele><time>2026-04-12T12:07:54.967Z</time></trkpt><trkpt lat="40.690245" lon="15.1913383"><ele>543.0</ele><time>2026-04-12T12:07:55.967Z</time></trkpt><trkpt lat="40.690285" lon="15.191485"><ele>542.1999999999999</ele><time>2026-04-12T12:07:56.967Z</time></trkpt><trkpt lat="40.69034" lon="15.19161"><ele>541.4</ele><time>2026-04-12T12:07:57.967Z</time></trkpt><trkpt lat="40.6904017" lon="15.1917283"><ele>540.5999999999999</ele><time>2026-04-12T12:07:58.967Z</time></trkpt><trkpt lat="40.6904617" lon="15.1918467"><ele>539.8</ele><time>2026-04-12T12:07:59.967Z</time></trkpt><trkpt lat="40.6905167" lon="15.1919633"><ele>539.0</ele><time>2026-04-12T12:08:00.967Z</time></trkpt><trkpt lat="40.6905567" lon="15.192085"><ele>539.0</ele><time>2026-04-12T12:08:01.967Z</time></trkpt><trkpt lat="40.69059" lon="15.1922067"><ele>539.0</ele><time>2026-04-12T12:08:02.967Z</time></trkpt><trkpt lat="40.69062" lon="15.19233"><ele>539.0</ele><time>2026-04-12T12:08:03.967Z</time></trkpt><trkpt lat="40.6906533" lon="15.192455"><ele>539.0</ele><time>2026-04-12T12:08:04.967Z</time></trkpt><trkpt lat="40.6906883" lon="15.1925867"><ele>539.0</ele><time>2026-04-12T12:08:05.967Z</time></trkpt><trkpt lat="40.6907217" lon="15.1927183"><ele>537.25</ele><time>2026-04-12T12:08:06.967Z</time></trkpt><trkpt lat="40.6907467" lon="15.192855"><ele>535.5</ele><time>2026-04-12T12:08:07.967Z</time></trkpt><trkpt lat="40.690755" lon="15.1929933"><ele>533.75</ele><time>2026-04-12T12:08:08.967Z</time></trkpt><trkpt lat="40.6907583" lon="15.193145"><ele>532.0</ele><time>2026-04-12T12:08:09.967Z</time></trkpt><trkpt lat="40.69074" lon="15.193305"><ele>530.5</ele><time>2026-04-12T12:08:10.967Z</time></trkpt><trkpt lat="40.6907067" lon="15.1934783"><ele>529.0</ele><time>2026-04-12T12:08:11.967Z</time></trkpt><trkpt lat="40.69067" lon="15.1936567"><ele>527.5</ele><time>2026-04-12T12:08:12.967Z</time></trkpt><trkpt lat="40.6906567" lon="15.19383"><ele>526.0</ele><time>2026-04-12T12:08:13.967Z</time></trkpt><trkpt lat="40.6906617" lon="15.194"><ele>523.0</ele><time>2026-04-12T12:08:14.967Z</time></trkpt><trkpt lat="40.6906767" lon="15.1941583"><ele>520.0</ele><time>2026-04-12T12:08:15.967Z</time></trkpt><trkpt lat="40.6906967" lon="15.1943133"><ele>517.0</ele><time>2026-04-12T12:08:16.967Z</time></trkpt><trkpt lat="40.6907" lon="15.1944583"><ele>514.0</ele><time>2026-04-12T12:08:17.967Z</time></trkpt><trkpt lat="40.6906783" lon="15.1945983"><ele>514.0</ele><time>2026-04-12T12:08:18.967Z</time></trkpt><trkpt lat="40.6906517" lon="15.1947283"><ele>514.0</ele><time>2026-04-12T12:08:19.967Z</time></trkpt><trkpt lat="40.6906133" lon="15.1948633"><ele>514.0</ele><time>2026-04-12T12:08:20.967Z</time></trkpt><trkpt lat="40.6905767" lon="15.19499"><ele>514.0</ele><time>2026-04-12T12:08:21.967Z</time></trkpt><trkpt lat="40.6905433" lon="15.195115"><ele>514.0</ele><time>2026-04-12T12:08:22.967Z</time></trkpt><trkpt lat="40.690505" lon="15.195235"><ele>513.2</ele><time>2026-04-12T12:08:23.967Z</time></trkpt><trkpt lat="40.6904667" lon="15.19536"><ele>512.4</ele><time>2026-04-12T12:08:24.967Z</time></trkpt><trkpt lat="40.6904233" lon="15.1954867"><ele>511.6</ele><time>2026-04-12T12:08:25.967Z</time></trkpt><trkpt lat="40.6903917" lon="15.19562"><ele>510.8</ele><time>2026-04-12T12:08:26.967Z</time></trkpt><trkpt lat="40.6903717" lon="15.1957633"><ele>510.0</ele><time>2026-04-12T12:08:27.967Z</time></trkpt><trkpt lat="40.6903583" lon="15.195905"><ele>508.4</ele><time>2026-04-12T12:08:28.967Z</time></trkpt><trkpt lat="40.690345" lon="15.19606"><ele>506.8</ele><time>2026-04-12T12:08:29.967Z</time></trkpt><trkpt lat="40.6903233" lon="15.19621"><ele>505.20000000000005</ele><time>2026-04-12T12:08:30.967Z</time></trkpt><trkpt lat="40.6903033" lon="15.1963567"><ele>503.6</ele><time>2026-04-12T12:08:31.967Z</time></trkpt><trkpt lat="40.6902933" lon="15.1964733"><ele>502.0</ele><time>2026-04-12T12:08:32.967Z</time></trkpt><trkpt lat="40.69029" lon="15.1965783"><ele>499.83333333333337</ele><time>2026-04-12T12:08:33.967Z</time></trkpt><trkpt lat="40.6902917" lon="15.1966733"><ele>497.6666666666667</ele><time>2026-04-12T12:08:34.967Z</time></trkpt><trkpt lat="40.690315" lon="15.1967533"><ele>495.5</ele><time>2026-04-12T12:08:35.967Z</time></trkpt><trkpt lat="40.6903633" lon="15.1968217"><ele>493.33333333333337</ele><time>2026-04-12T12:08:36.967Z</time></trkpt><trkpt lat="40.6904217" lon="15.1968717"><ele>491.1666666666667</ele><time>2026-04-12T12:08:37.967Z</time></trkpt><trkpt lat="40.69047" lon="15.1969867"><ele>489.0</ele><time>2026-04-12T12:08:39.967Z</time></trkpt><trkpt lat="40.6904167" lon="15.1971"><ele>489.0</ele><time>2026-04-12T12:08:41.967Z</time></trkpt><trkpt lat="40.6903483" lon="15.1971317"><ele>489.0</ele><time>2026-04-12T12:08:42.967Z</time></trkpt><trkpt lat="40.6902617" lon="15.1971567"><ele>489.0</ele><time>2026-04-12T12:08:43.967Z</time></trkpt><trkpt lat="40.6901733" lon="15.19719"><ele>489.0</ele><time>2026-04-12T12:08:44.967Z</time></trkpt><trkpt lat="40.6900883" lon="15.1972533"><ele>489.0</ele><time>2026-04-12T12:08:45.967Z</time></trkpt><trkpt lat="40.69001" lon="15.1973367"><ele>486.4</ele><time>2026-04-12T12:08:46.967Z</time></trkpt><trkpt lat="40.6899333" lon="15.1974383"><ele>483.79999999999995</ele><time>2026-04-12T12:08:47.967Z</time></trkpt><trkpt lat="40.6898617" lon="15.197535"><ele>481.20000000000005</ele><time>2026-04-12T12:08:48.967Z</time></trkpt><trkpt lat="40.6897983" lon="15.1976417"><ele>478.6</ele><time>2026-04-12T12:08:49.967Z</time></trkpt><trkpt lat="40.6897483" lon="15.1977383"><ele>476.0</ele><time>2026-04-12T12:08:50.967Z</time></trkpt><trkpt lat="40.68971" lon="15.1978167"><ele>475.99999999999994</ele><time>2026-04-12T12:08:51.968Z</time></trkpt><trkpt lat="40.6896567" lon="15.1979183"><ele>476.0</ele><time>2026-04-12T12:08:53.967Z</time></trkpt><trkpt lat="40.68962" lon="15.1980033"><ele>476.0</ele><time>2026-04-12T12:08:56.967Z</time></trkpt><trkpt lat="40.68958" lon="15.19808"><ele>476.0</ele><time>2026-04-12T12:09:12.967Z</time></trkpt><trkpt lat="40.6895667" lon="15.19818"><ele>475.99999999999994</ele><time>2026-04-12T12:09:15.967Z</time></trkpt><trkpt lat="40.6896283" lon="15.19805"><ele>476.0</ele><time>2026-04-12T12:09:18.967Z</time></trkpt><trkpt lat="40.6896667" lon="15.1979517"><ele>475.99999999999994</ele><time>2026-04-12T12:09:19.967Z</time></trkpt><trkpt lat="40.689705" lon="15.1978783"><ele>476.0</ele><time>2026-04-12T12:09:20.967Z</time></trkpt><trkpt lat="40.68977" lon="15.1977583"><ele>476.0</ele><time>2026-04-12T12:09:22.967Z</time></trkpt><trkpt lat="40.689805" lon="15.197685"><ele>476.0</ele><time>2026-04-12T12:09:23.967Z</time></trkpt><trkpt lat="40.68985" lon="15.1975883"><ele>475.99999999999994</ele><time>2026-04-12T12:09:24.967Z</time></trkpt><trkpt lat="40.689925" lon="15.1974683"><ele>476.0</ele><time>2026-04-12T12:09:25.967Z</time></trkpt><trkpt lat="40.6900083" lon="15.1973467"><ele>477.66666666666663</ele><time>2026-04-12T12:09:26.967Z</time></trkpt><trkpt lat="40.6900967" lon="15.19726"><ele>479.3333333333333</ele><time>2026-04-12T12:09:27.967Z</time></trkpt><trkpt lat="40.6901683" lon="15.1972167"><ele>481.0</ele><time>2026-04-12T12:09:28.967Z</time></trkpt><trkpt lat="40.6902667" lon="15.19716"><ele>482.66666666666663</ele><time>2026-04-12T12:09:30.967Z</time></trkpt><trkpt lat="40.6902133" lon="15.1970917"><ele>484.3333333333333</ele><time>2026-04-12T12:09:33.967Z</time></trkpt><trkpt lat="40.6901617" lon="15.19714"><ele>486.0</ele><time>2026-04-12T12:09:34.967Z</time></trkpt><trkpt lat="40.69008" lon="15.1972383"><ele>482.66666666666663</ele><time>2026-04-12T12:09:35.967Z</time></trkpt><trkpt lat="40.689975" lon="15.1973667"><ele>479.3333333333333</ele><time>2026-04-12T12:09:36.967Z</time></trkpt><trkpt lat="40.6898633" lon="15.1975333"><ele>476.0</ele><time>2026-04-12T12:09:37.967Z</time></trkpt><trkpt lat="40.689765" lon="15.1977033"><ele>476.0</ele><time>2026-04-12T12:09:38.967Z</time></trkpt><trkpt lat="40.68968" lon="15.19787"><ele>476.0</ele><time>2026-04-12T12:09:39.967Z</time></trkpt><trkpt lat="40.6896117" lon="15.19805"><ele>476.0</ele><time>2026-04-12T12:09:40.967Z</time></trkpt><trkpt lat="40.6895567" lon="15.198245"><ele>473.0</ele><time>2026-04-12T12:09:41.968Z</time></trkpt><trkpt lat="40.6895133" lon="15.1984517"><ele>470.0</ele><time>2026-04-12T12:09:42.967Z</time></trkpt><trkpt lat="40.6894883" lon="15.1986567"><ele>467.0</ele><time>2026-04-12T12:09:43.967Z</time></trkpt><trkpt lat="40.6894667" lon="15.198855"><ele>465.0</ele><time>2026-04-12T12:09:44.967Z</time></trkpt><trkpt lat="40.6894433" lon="15.1990367"><ele>463.0</ele><time>2026-04-12T12:09:45.968Z</time></trkpt><trkpt lat="40.6894167" lon="15.1992167"><ele>461.0</ele><time>2026-04-12T12:09:46.967Z</time></trkpt><trkpt lat="40.6893817" lon="15.199385"><ele>459.0</ele><time>2026-04-12T12:09:47.967Z</time></trkpt><trkpt lat="40.689345" lon="15.1995483"><ele>458.79999999999995</ele><time>2026-04-12T12:09:48.968Z</time></trkpt><trkpt lat="40.6893117" lon="15.199705"><ele>458.59999999999997</ele><time>2026-04-12T12:09:49.967Z</time></trkpt><trkpt lat="40.6892833" lon="15.19985"><ele>458.4</ele><time>2026-04-12T12:09:50.967Z</time></trkpt><trkpt lat="40.6892767" lon="15.1999733"><ele>458.2</ele><time>2026-04-12T12:09:51.967Z</time></trkpt><trkpt lat="40.6893017" lon="15.2000833"><ele>458.0</ele><time>2026-04-12T12:09:52.966Z</time></trkpt><trkpt lat="40.6893483" lon="15.200185"><ele>457.0</ele><time>2026-04-12T12:09:53.966Z</time></trkpt><trkpt lat="40.68942" lon="15.2002633"><ele>455.99999999999994</ele><time>2026-04-12T12:09:54.966Z</time></trkpt><trkpt lat="40.6895083" lon="15.2003267"><ele>454.99999999999994</ele><time>2026-04-12T12:09:55.967Z</time></trkpt><trkpt lat="40.6896133" lon="15.20038"><ele>454.0</ele><time>2026-04-12T12:09:56.966Z</time></trkpt><trkpt lat="40.6897217" lon="15.2004483"><ele>453.0</ele><time>2026-04-12T12:09:57.966Z</time></trkpt><trkpt lat="40.6898217" lon="15.20053"><ele>452.6666666666667</ele><time>2026-04-12T12:09:58.966Z</time></trkpt><trkpt lat="40.6899017" lon="15.200605"><ele>452.33333333333337</ele><time>2026-04-12T12:09:59.967Z</time></trkpt><trkpt lat="40.6899683" lon="15.2006867"><ele>452.0</ele><time>2026-04-12T12:10:00.966Z</time></trkpt><trkpt lat="40.6900033" lon="15.2007617"><ele>451.6666666666667</ele><time>2026-04-12T12:10:01.966Z</time></trkpt><trkpt lat="40.68999" lon="15.2008883"><ele>451.33333333333337</ele><time>2026-04-12T12:10:03.966Z</time></trkpt><trkpt lat="40.689915" lon="15.2009433"><ele>451.0</ele><time>2026-04-12T12:10:04.967Z</time></trkpt><trkpt lat="40.6898083" lon="15.200995"><ele>449.4</ele><time>2026-04-12T12:10:05.966Z</time></trkpt><trkpt lat="40.689695" lon="15.2010267"><ele>447.8</ele><time>2026-04-12T12:10:06.966Z</time></trkpt><trkpt lat="40.6895817" lon="15.2010433"><ele>446.19999999999993</ele><time>2026-04-12T12:10:07.966Z</time></trkpt><trkpt lat="40.6894717" lon="15.2010783"><ele>444.59999999999997</ele><time>2026-04-12T12:10:08.966Z</time></trkpt><trkpt lat="40.689385" lon="15.201145"><ele>443.0</ele><time>2026-04-12T12:10:09.966Z</time></trkpt><trkpt lat="40.6893267" lon="15.2012383"><ele>443.0</ele><time>2026-04-12T12:10:10.966Z</time></trkpt><trkpt lat="40.6893" lon="15.201365"><ele>443.0</ele><time>2026-04-12T12:10:11.966Z</time></trkpt><trkpt lat="40.6892983" lon="15.201525"><ele>443.0</ele><time>2026-04-12T12:10:12.967Z</time></trkpt><trkpt lat="40.6893133" lon="15.2017217"><ele>443.0</ele><time>2026-04-12T12:10:13.966Z</time></trkpt><trkpt lat="40.68932" lon="15.201935"><ele>440.0</ele><time>2026-04-12T12:10:14.966Z</time></trkpt><trkpt lat="40.6893267" lon="15.2021433"><ele>437.0</ele><time>2026-04-12T12:10:15.966Z</time></trkpt><trkpt lat="40.6893483" lon="15.2023417"><ele>434.0</ele><time>2026-04-12T12:10:16.966Z</time></trkpt><trkpt lat="40.689385" lon="15.2025167"><ele>431.0</ele><time>2026-04-12T12:10:17.966Z</time></trkpt><trkpt lat="40.6894117" lon="15.2026733"><ele>430.0</ele><time>2026-04-12T12:10:18.967Z</time></trkpt><trkpt lat="40.6894117" lon="15.2028133"><ele>429.0</ele><time>2026-04-12T12:10:19.966Z</time></trkpt><trkpt lat="40.6893933" lon="15.202955"><ele>428.0</ele><time>2026-04-12T12:10:20.966Z</time></trkpt><trkpt lat="40.6893633" lon="15.203115"><ele>427.0</ele><time>2026-04-12T12:10:21.966Z</time></trkpt><trkpt lat="40.6893233" lon="15.203275"><ele>426.25</ele><time>2026-04-12T12:10:22.966Z</time></trkpt><trkpt lat="40.68928" lon="15.2034383"><ele>425.5</ele><time>2026-04-12T12:10:23.966Z</time></trkpt><trkpt lat="40.68921" lon="15.2036167"><ele>424.75</ele><time>2026-04-12T12:10:24.966Z</time></trkpt><trkpt lat="40.6891567" lon="15.203805"><ele>424.0</ele><time>2026-04-12T12:10:25.966Z</time></trkpt><trkpt lat="40.6891033" lon="15.2039767"><ele>422.5</ele><time>2026-04-12T12:10:26.966Z</time></trkpt><trkpt lat="40.68906" lon="15.2041417"><ele>421.0</ele><time>2026-04-12T12:10:27.966Z</time></trkpt><trkpt lat="40.689005" lon="15.20431"><ele>419.5</ele><time>2026-04-12T12:10:28.966Z</time></trkpt><trkpt lat="40.6889517" lon="15.2044883"><ele>418.0</ele><time>2026-04-12T12:10:29.966Z</time></trkpt><trkpt lat="40.6889133" lon="15.2046733"><ele>417.25</ele><time>2026-04-12T12:10:30.967Z</time></trkpt><trkpt lat="40.6888883" lon="15.204845"><ele>416.5</ele><time>2026-04-12T12:10:31.966Z</time></trkpt><trkpt lat="40.6888817" lon="15.2050117"><ele>415.75</ele><time>2026-04-12T12:10:32.966Z</time></trkpt><trkpt lat="40.6889" lon="15.2051717"><ele>415.0</ele><time>2026-04-12T12:10:33.966Z</time></trkpt><trkpt lat="40.68894" lon="15.2053283"><ele>415.0</ele><time>2026-04-12T12:10:34.966Z</time></trkpt><trkpt lat="40.6889767" lon="15.2054733"><ele>415.0</ele><time>2026-04-12T12:10:35.966Z</time></trkpt><trkpt lat="40.6890017" lon="15.2056233"><ele>415.0</ele><time>2026-04-12T12:10:36.966Z</time></trkpt><trkpt lat="40.6890133" lon="15.2057867"><ele>415.0</ele><time>2026-04-12T12:10:37.966Z</time></trkpt><trkpt lat="40.689015" lon="15.2059667"><ele>414.0</ele><time>2026-04-12T12:10:38.966Z</time></trkpt><trkpt lat="40.6890067" lon="15.206155"><ele>413.0</ele><time>2026-04-12T12:10:39.966Z</time></trkpt><trkpt lat="40.6889917" lon="15.2063533"><ele>412.0</ele><time>2026-04-12T12:10:40.966Z</time></trkpt><trkpt lat="40.6889833" lon="15.2065467"><ele>411.0</ele><time>2026-04-12T12:10:41.966Z</time></trkpt><trkpt lat="40.688975" lon="15.2067217"><ele>409.4</ele><time>2026-04-12T12:10:42.966Z</time></trkpt><trkpt lat="40.6889683" lon="15.20688"><ele>407.8</ele><time>2026-04-12T12:10:43.967Z</time></trkpt><trkpt lat="40.6889617" lon="15.207005"><ele>406.2</ele><time>2026-04-12T12:10:44.967Z</time></trkpt><trkpt lat="40.6889583" lon="15.2070983"><ele>404.59999999999997</ele><time>2026-04-12T12:10:45.967Z</time></trkpt><trkpt lat="40.68896" lon="15.20721"><ele>403.0</ele><time>2026-04-12T12:10:47.966Z</time></trkpt><trkpt lat="40.689005" lon="15.2072967"><ele>402.4</ele><time>2026-04-12T12:10:49.967Z</time></trkpt><trkpt lat="40.6891183" lon="15.2073883"><ele>401.79999999999995</ele><time>2026-04-12T12:10:51.966Z</time></trkpt><trkpt lat="40.6891883" lon="15.207435"><ele>401.2</ele><time>2026-04-12T12:10:52.966Z</time></trkpt><trkpt lat="40.689265" lon="15.2074867"><ele>400.6</ele><time>2026-04-12T12:10:53.966Z</time></trkpt><trkpt lat="40.6893417" lon="15.2075383"><ele>400.0</ele><time>2026-04-12T12:10:54.966Z</time></trkpt><trkpt lat="40.6894183" lon="15.207595"><ele>398.8</ele><time>2026-04-12T12:10:55.966Z</time></trkpt><trkpt lat="40.6894983" lon="15.2076617"><ele>397.6</ele><time>2026-04-12T12:10:56.967Z</time></trkpt><trkpt lat="40.6895733" lon="15.2077383"><ele>396.4</ele><time>2026-04-12T12:10:57.966Z</time></trkpt><trkpt lat="40.6896417" lon="15.2078167"><ele>395.2</ele><time>2026-04-12T12:10:58.966Z</time></trkpt><trkpt lat="40.6897" lon="15.20789"><ele>394.0</ele><time>2026-04-12T12:10:59.966Z</time></trkpt><trkpt lat="40.6897683" lon="15.2079917"><ele>394.00000000000006</ele><time>2026-04-12T12:11:01.966Z</time></trkpt><trkpt lat="40.6897683" lon="15.208075"><ele>394.0</ele><time>2026-04-12T12:11:03.966Z</time></trkpt><trkpt lat="40.6896983" lon="15.2081633"><ele>394.0</ele><time>2026-04-12T12:11:05.966Z</time></trkpt><trkpt lat="40.6896217" lon="15.208235"><ele>394.0</ele><time>2026-04-12T12:11:07.966Z</time></trkpt><trkpt lat="40.6895467" lon="15.2083083"><ele>394.00000000000006</ele><time>2026-04-12T12:11:09.966Z</time></trkpt><trkpt lat="40.6894833" lon="15.2083883"><ele>394.0</ele><time>2026-04-12T12:11:11.966Z</time></trkpt><trkpt lat="40.6894117" lon="15.2084833"><ele>393.6666666666667</ele><time>2026-04-12T12:11:13.966Z</time></trkpt><trkpt lat="40.689325" lon="15.208575"><ele>393.33333333333337</ele><time>2026-04-12T12:11:15.966Z</time></trkpt><trkpt lat="40.6892333" lon="15.208685"><ele>393.0</ele><time>2026-04-12T12:11:17.966Z</time></trkpt><trkpt lat="40.689185" lon="15.20874"><ele>392.66666666666663</ele><time>2026-04-12T12:11:18.966Z</time></trkpt><trkpt lat="40.6891333" lon="15.208795"><ele>392.3333333333333</ele><time>2026-04-12T12:11:19.966Z</time></trkpt><trkpt lat="40.689075" lon="15.20885"><ele>392.0</ele><time>2026-04-12T12:11:20.966Z</time></trkpt><trkpt lat="40.6890167" lon="15.20891"><ele>391.99999999999994</ele><time>2026-04-12T12:11:21.967Z</time></trkpt><trkpt lat="40.6889467" lon="15.2089633"><ele>392.0</ele><time>2026-04-12T12:11:22.967Z</time></trkpt><trkpt lat="40.6888717" lon="15.209005"><ele>392.0</ele><time>2026-04-12T12:11:23.966Z</time></trkpt><trkpt lat="40.6887867" lon="15.2090433"><ele>392.0</ele><time>2026-04-12T12:11:24.966Z</time></trkpt><trkpt lat="40.6887033" lon="15.2090833"><ele>391.99999999999994</ele><time>2026-04-12T12:11:25.966Z</time></trkpt><trkpt lat="40.688635" lon="15.2091467"><ele>392.0</ele><time>2026-04-12T12:11:26.966Z</time></trkpt><trkpt lat="40.6885733" lon="15.2092183"><ele>389.20000000000005</ele><time>2026-04-12T12:11:27.966Z</time></trkpt><trkpt lat="40.6885333" lon="15.2093183"><ele>386.4</ele><time>2026-04-12T12:11:28.966Z</time></trkpt><trkpt lat="40.6885" lon="15.209425"><ele>383.6</ele><time>2026-04-12T12:11:29.966Z</time></trkpt><trkpt lat="40.688465" lon="15.2095433"><ele>380.79999999999995</ele><time>2026-04-12T12:11:30.966Z</time></trkpt><trkpt lat="40.6884283" lon="15.2096583"><ele>378.0</ele><time>2026-04-12T12:11:31.967Z</time></trkpt><trkpt lat="40.6883817" lon="15.2097633"><ele>376.0</ele><time>2026-04-12T12:11:32.966Z</time></trkpt><trkpt lat="40.6883333" lon="15.2098717"><ele>374.0</ele><time>2026-04-12T12:11:33.966Z</time></trkpt><trkpt lat="40.688285" lon="15.2099783"><ele>372.0</ele><time>2026-04-12T12:11:34.966Z</time></trkpt><trkpt lat="40.6882267" lon="15.2100733"><ele>370.0</ele><time>2026-04-12T12:11:35.966Z</time></trkpt><trkpt lat="40.68817" lon="15.2101717"><ele>368.0</ele><time>2026-04-12T12:11:36.966Z</time></trkpt><trkpt lat="40.6881133" lon="15.2102617"><ele>368.0</ele><time>2026-04-12T12:11:37.967Z</time></trkpt><trkpt lat="40.688065" lon="15.210355"><ele>368.0</ele><time>2026-04-12T12:11:38.966Z</time></trkpt><trkpt lat="40.6880183" lon="15.2104417"><ele>368.0</ele><time>2026-04-12T12:11:39.966Z</time></trkpt><trkpt lat="40.68798" lon="15.2105517"><ele>368.0</ele><time>2026-04-12T12:11:40.966Z</time></trkpt><trkpt lat="40.6879617" lon="15.2106833"><ele>368.0</ele><time>2026-04-12T12:11:41.966Z</time></trkpt><trkpt lat="40.687945" lon="15.2108267"><ele>366.79999999999995</ele><time>2026-04-12T12:11:42.966Z</time></trkpt><trkpt lat="40.68794" lon="15.2109767"><ele>365.6</ele><time>2026-04-12T12:11:43.966Z</time></trkpt><trkpt lat="40.6879267" lon="15.211115"><ele>364.4</ele><time>2026-04-12T12:11:44.966Z</time></trkpt><trkpt lat="40.6879083" lon="15.2112483"><ele>363.20000000000005</ele><time>2026-04-12T12:11:45.966Z</time></trkpt><trkpt lat="40.68788" lon="15.2113633"><ele>362.0</ele><time>2026-04-12T12:11:46.966Z</time></trkpt><trkpt lat="40.68784" lon="15.211475"><ele>359.6</ele><time>2026-04-12T12:11:47.966Z</time></trkpt><trkpt lat="40.6877917" lon="15.2115917"><ele>357.20000000000005</ele><time>2026-04-12T12:11:48.966Z</time></trkpt><trkpt lat="40.6877417" lon="15.2117033"><ele>354.8</ele><time>2026-04-12T12:11:49.966Z</time></trkpt><trkpt lat="40.6876983" lon="15.2118183"><ele>352.4</ele><time>2026-04-12T12:11:50.966Z</time></trkpt><trkpt lat="40.6876717" lon="15.2119417"><ele>350.0</ele><time>2026-04-12T12:11:51.966Z</time></trkpt><trkpt lat="40.6876567" lon="15.21206"><ele>349.33333333333337</ele><time>2026-04-12T12:11:52.966Z</time></trkpt><trkpt lat="40.6876333" lon="15.2121717"><ele>348.6666666666667</ele><time>2026-04-12T12:11:53.966Z</time></trkpt><trkpt lat="40.687595" lon="15.212265"><ele>348.0</ele><time>2026-04-12T12:11:54.966Z</time></trkpt><trkpt lat="40.68756" lon="15.2123517"><ele>347.3333333333333</ele><time>2026-04-12T12:11:55.966Z</time></trkpt><trkpt lat="40.6875033" lon="15.21242"><ele>346.66666666666663</ele><time>2026-04-12T12:11:56.966Z</time></trkpt><trkpt lat="40.6874567" lon="15.21249"><ele>346.0</ele><time>2026-04-12T12:11:57.966Z</time></trkpt><trkpt lat="40.68741" lon="15.2125567"><ele>345.4</ele><time>2026-04-12T12:11:58.966Z</time></trkpt><trkpt lat="40.6873617" lon="15.2126433"><ele>344.8</ele><time>2026-04-12T12:11:59.966Z</time></trkpt><trkpt lat="40.6873" lon="15.2127533"><ele>344.2</ele><time>2026-04-12T12:12:00.966Z</time></trkpt><trkpt lat="40.6872383" lon="15.212895"><ele>343.59999999999997</ele><time>2026-04-12T12:12:01.966Z</time></trkpt><trkpt lat="40.6871783" lon="15.2130367"><ele>343.0</ele><time>2026-04-12T12:12:02.966Z</time></trkpt><trkpt lat="40.6871083" lon="15.2131767"><ele>342.75</ele><time>2026-04-12T12:12:03.966Z</time></trkpt><trkpt lat="40.6870117" lon="15.2133033"><ele>342.5</ele><time>2026-04-12T12:12:04.966Z</time></trkpt><trkpt lat="40.6868867" lon="15.2134217"><ele>342.25</ele><time>2026-04-12T12:12:05.966Z</time></trkpt><trkpt lat="40.68676" lon="15.2135167"><ele>342.0</ele><time>2026-04-12T12:12:06.966Z</time></trkpt><trkpt lat="40.6866467" lon="15.2136117"><ele>342.0</ele><time>2026-04-12T12:12:07.966Z</time></trkpt><trkpt lat="40.68656" lon="15.21372"><ele>342.0</ele><time>2026-04-12T12:12:08.967Z</time></trkpt><trkpt lat="40.6865067" lon="15.213845"><ele>342.0</ele><time>2026-04-12T12:12:09.966Z</time></trkpt><trkpt lat="40.6864783" lon="15.2139883"><ele>342.0</ele><time>2026-04-12T12:12:10.966Z</time></trkpt><trkpt lat="40.68647" lon="15.214155"><ele>342.5</ele><time>2026-04-12T12:12:11.966Z</time></trkpt><trkpt lat="40.6864817" lon="15.2143383"><ele>343.0</ele><time>2026-04-12T12:12:12.966Z</time></trkpt><trkpt lat="40.6864967" lon="15.214525"><ele>343.5</ele><time>2026-04-12T12:12:13.966Z</time></trkpt><trkpt lat="40.6865217" lon="15.21472"><ele>344.0</ele><time>2026-04-12T12:12:14.967Z</time></trkpt><trkpt lat="40.6865367" lon="15.2149217"><ele>344.25</ele><time>2026-04-12T12:12:15.966Z</time></trkpt><trkpt lat="40.68654" lon="15.2151167"><ele>344.5</ele><time>2026-04-12T12:12:16.966Z</time></trkpt><trkpt lat="40.6865333" lon="15.2153117"><ele>344.75</ele><time>2026-04-12T12:12:17.966Z</time></trkpt><trkpt lat="40.6865067" lon="15.2155"><ele>345.0</ele><time>2026-04-12T12:12:18.966Z</time></trkpt><trkpt lat="40.68648" lon="15.2156817"><ele>345.0</ele><time>2026-04-12T12:12:19.966Z</time></trkpt><trkpt lat="40.6864483" lon="15.2158583"><ele>345.0</ele><time>2026-04-12T12:12:20.967Z</time></trkpt><trkpt lat="40.68641" lon="15.2160383"><ele>345.0</ele><time>2026-04-12T12:12:21.966Z</time></trkpt><trkpt lat="40.6863617" lon="15.2162383"><ele>345.0</ele><time>2026-04-12T12:12:22.966Z</time></trkpt><trkpt lat="40.6863217" lon="15.216455"><ele>345.6666666666667</ele><time>2026-04-12T12:12:23.966Z</time></trkpt><trkpt lat="40.686295" lon="15.2166783"><ele>346.33333333333337</ele><time>2026-04-12T12:12:24.966Z</time></trkpt><trkpt lat="40.6862817" lon="15.2169133"><ele>347.0</ele><time>2026-04-12T12:12:25.966Z</time></trkpt><trkpt lat="40.68627" lon="15.217155"><ele>347.6666666666667</ele><time>2026-04-12T12:12:26.966Z</time></trkpt><trkpt lat="40.6862617" lon="15.21738"><ele>348.3333333333333</ele><time>2026-04-12T12:12:27.966Z</time></trkpt><trkpt lat="40.6862517" lon="15.2176"><ele>349.0</ele><time>2026-04-12T12:12:28.966Z</time></trkpt><trkpt lat="40.6862533" lon="15.2178233"><ele>349.0</ele><time>2026-04-12T12:12:29.966Z</time></trkpt><trkpt lat="40.6862817" lon="15.2180583"><ele>349.0</ele><time>2026-04-12T12:12:30.967Z</time></trkpt><trkpt lat="40.686325" lon="15.2182883"><ele>349.0</ele><time>2026-04-12T12:12:31.966Z</time></trkpt><trkpt lat="40.686365" lon="15.2184983"><ele>348.0</ele><time>2026-04-12T12:12:32.966Z</time></trkpt><trkpt lat="40.6863967" lon="15.2186917"><ele>347.0</ele><time>2026-04-12T12:12:33.966Z</time></trkpt><trkpt lat="40.6864183" lon="15.2188767"><ele>346.0</ele><time>2026-04-12T12:12:34.966Z</time></trkpt><trkpt lat="40.6864167" lon="15.21907"><ele>345.0</ele><time>2026-04-12T12:12:35.966Z</time></trkpt><trkpt lat="40.6863917" lon="15.2192633"><ele>344.6666666666667</ele><time>2026-04-12T12:12:36.966Z</time></trkpt><trkpt lat="40.6863383" lon="15.21945"><ele>344.33333333333337</ele><time>2026-04-12T12:12:37.966Z</time></trkpt><trkpt lat="40.6862717" lon="15.2196267"><ele>344.0</ele><time>2026-04-12T12:12:38.966Z</time></trkpt><trkpt lat="40.6861917" lon="15.2197983"><ele>345.0</ele><time>2026-04-12T12:12:39.966Z</time></trkpt><trkpt lat="40.68613" lon="15.2199717"><ele>346.0</ele><time>2026-04-12T12:12:40.966Z</time></trkpt><trkpt lat="40.6860967" lon="15.220145"><ele>347.0</ele><time>2026-04-12T12:12:41.966Z</time></trkpt><trkpt lat="40.686095" lon="15.2203333"><ele>348.0</ele><time>2026-04-12T12:12:42.966Z</time></trkpt><trkpt lat="40.6861133" lon="15.2205317"><ele>350.0</ele><time>2026-04-12T12:12:43.966Z</time></trkpt><trkpt lat="40.68615" lon="15.2207567"><ele>352.0</ele><time>2026-04-12T12:12:44.966Z</time></trkpt><trkpt lat="40.686195" lon="15.2209983"><ele>354.0</ele><time>2026-04-12T12:12:45.966Z</time></trkpt><trkpt lat="40.6862417" lon="15.2212467"><ele>354.0</ele><time>2026-04-12T12:12:46.966Z</time></trkpt><trkpt lat="40.6862817" lon="15.2214767"><ele>354.0</ele><time>2026-04-12T12:12:47.966Z</time></trkpt><trkpt lat="40.686305" lon="15.2216883"><ele>354.0</ele><time>2026-04-12T12:12:48.966Z</time></trkpt><trkpt lat="40.6863183" lon="15.2218933"><ele>355.6666666666667</ele><time>2026-04-12T12:12:49.966Z</time></trkpt><trkpt lat="40.6862983" lon="15.222095"><ele>357.33333333333337</ele><time>2026-04-12T12:12:50.966Z</time></trkpt><trkpt lat="40.6862533" lon="15.222285"><ele>359.0</ele><time>2026-04-12T12:12:51.966Z</time></trkpt><trkpt lat="40.6862083" lon="15.222495"><ele>359.6666666666667</ele><time>2026-04-12T12:12:52.966Z</time></trkpt><trkpt lat="40.686175" lon="15.2227067"><ele>360.3333333333333</ele><time>2026-04-12T12:12:53.966Z</time></trkpt><trkpt lat="40.68615" lon="15.222915"><ele>361.0</ele><time>2026-04-12T12:12:54.966Z</time></trkpt><trkpt lat="40.686155" lon="15.223125"><ele>362.66666666666663</ele><time>2026-04-12T12:12:55.966Z</time></trkpt><trkpt lat="40.6861833" lon="15.2233217"><ele>364.3333333333333</ele><time>2026-04-12T12:12:56.966Z</time></trkpt><trkpt lat="40.6862467" lon="15.2235183"><ele>366.0</ele><time>2026-04-12T12:12:57.967Z</time></trkpt><trkpt lat="40.6863333" lon="15.22371"><ele>366.0</ele><time>2026-04-12T12:12:58.966Z</time></trkpt><trkpt lat="40.686405" lon="15.2238967"><ele>366.0</ele><time>2026-04-12T12:12:59.966Z</time></trkpt><trkpt lat="40.6864533" lon="15.224085"><ele>366.0</ele><time>2026-04-12T12:13:00.966Z</time></trkpt><trkpt lat="40.686475" lon="15.2242867"><ele>368.6666666666667</ele><time>2026-04-12T12:13:01.966Z</time></trkpt><trkpt lat="40.6864967" lon="15.224495"><ele>371.33333333333337</ele><time>2026-04-12T12:13:02.966Z</time></trkpt><trkpt lat="40.6865267" lon="15.224705"><ele>374.0</ele><time>2026-04-12T12:13:03.966Z</time></trkpt><trkpt lat="40.6865783" lon="15.2248917"><ele>375.5</ele><time>2026-04-12T12:13:04.966Z</time></trkpt><trkpt lat="40.6866617" lon="15.22506"><ele>377.0</ele><time>2026-04-12T12:13:05.966Z</time></trkpt><trkpt lat="40.686765" lon="15.22521"><ele>378.5</ele><time>2026-04-12T12:13:06.966Z</time></trkpt><trkpt lat="40.6868567" lon="15.2253467"><ele>380.0</ele><time>2026-04-12T12:13:07.966Z</time></trkpt><trkpt lat="40.6869233" lon="15.225495"><ele>378.75</ele><time>2026-04-12T12:13:08.967Z</time></trkpt><trkpt lat="40.6869833" lon="15.2256483"><ele>377.5</ele><time>2026-04-12T12:13:09.967Z</time></trkpt><trkpt lat="40.6870167" lon="15.2258183"><ele>376.25</ele><time>2026-04-12T12:13:10.966Z</time></trkpt><trkpt lat="40.687055" lon="15.226005"><ele>375.0</ele><time>2026-04-12T12:13:11.966Z</time></trkpt><trkpt lat="40.6870983" lon="15.2262067"><ele>375.0</ele><time>2026-04-12T12:13:12.966Z</time></trkpt><trkpt lat="40.6871533" lon="15.2264"><ele>375.0</ele><time>2026-04-12T12:13:13.966Z</time></trkpt><trkpt lat="40.6872167" lon="15.2265733"><ele>375.0</ele><time>2026-04-12T12:13:14.966Z</time></trkpt><trkpt lat="40.6872917" lon="15.22672"><ele>375.0</ele><time>2026-04-12T12:13:15.966Z</time></trkpt><trkpt lat="40.6873617" lon="15.22684"><ele>376.2</ele><time>2026-04-12T12:13:16.966Z</time></trkpt><trkpt lat="40.6874217" lon="15.2269283"><ele>377.4</ele><time>2026-04-12T12:13:17.966Z</time></trkpt><trkpt lat="40.68749" lon="15.2270367"><ele>378.6</ele><time>2026-04-12T12:13:19.966Z</time></trkpt><trkpt lat="40.687535" lon="15.227115"><ele>379.8</ele><time>2026-04-12T12:13:21.967Z</time></trkpt><trkpt lat="40.6875817" lon="15.2271933"><ele>381.0</ele><time>2026-04-12T12:13:24.966Z</time></trkpt><trkpt lat="40.6876417" lon="15.2273483"><ele>381.8</ele><time>2026-04-12T12:13:26.966Z</time></trkpt><trkpt lat="40.68769" lon="15.22747"><ele>382.6</ele><time>2026-04-12T12:13:27.966Z</time></trkpt><trkpt lat="40.6877367" lon="15.2276033"><ele>383.4</ele><time>2026-04-12T12:13:28.966Z</time></trkpt><trkpt lat="40.6877783" lon="15.227745"><ele>384.2</ele><time>2026-04-12T12:13:29.966Z</time></trkpt><trkpt lat="40.6878217" lon="15.2278833"><ele>385.0</ele><time>2026-04-12T12:13:30.966Z</time></trkpt><trkpt lat="40.68786" lon="15.2280217"><ele>383.6</ele><time>2026-04-12T12:13:31.966Z</time></trkpt><trkpt lat="40.6879017" lon="15.2281567"><ele>382.2</ele><time>2026-04-12T12:13:32.966Z</time></trkpt><trkpt lat="40.687945" lon="15.2283"><ele>380.79999999999995</ele><time>2026-04-12T12:13:33.966Z</time></trkpt><trkpt lat="40.687975" lon="15.2284383"><ele>379.4</ele><time>2026-04-12T12:13:34.966Z</time></trkpt><trkpt lat="40.6880083" lon="15.22856"><ele>378.0</ele><time>2026-04-12T12:13:35.966Z</time></trkpt><trkpt lat="40.688045" lon="15.22868"><ele>378.0</ele><time>2026-04-12T12:13:36.966Z</time></trkpt><trkpt lat="40.688075" lon="15.22879"><ele>378.0</ele><time>2026-04-12T12:13:37.966Z</time></trkpt><trkpt lat="40.6881183" lon="15.228885"><ele>378.0</ele><time>2026-04-12T12:13:38.966Z</time></trkpt><trkpt lat="40.68817" lon="15.2289567"><ele>378.0</ele><time>2026-04-12T12:13:39.966Z</time></trkpt><trkpt lat="40.6882317" lon="15.229005"><ele>378.0</ele><time>2026-04-12T12:13:40.966Z</time></trkpt><trkpt lat="40.6883333" lon="15.22906"><ele>378.0</ele><time>2026-04-12T12:13:42.966Z</time></trkpt><trkpt lat="40.6883633" lon="15.2291767"><ele>375.59999999999997</ele><time>2026-04-12T12:13:44.966Z</time></trkpt><trkpt lat="40.688335" lon="15.2293533"><ele>373.2</ele><time>2026-04-12T12:13:46.965Z</time></trkpt><trkpt lat="40.6883033" lon="15.2294633"><ele>370.8</ele><time>2026-04-12T12:13:47.966Z</time></trkpt><trkpt lat="40.6882583" lon="15.22958"><ele>368.4</ele><time>2026-04-12T12:13:48.965Z</time></trkpt><trkpt lat="40.6882217" lon="15.2296817"><ele>366.0</ele><time>2026-04-12T12:13:49.965Z</time></trkpt><trkpt lat="40.6881917" lon="15.2297567"><ele>364.4</ele><time>2026-04-12T12:13:50.965Z</time></trkpt><trkpt lat="40.6881417" lon="15.229915"><ele>362.8</ele><time>2026-04-12T12:13:52.965Z</time></trkpt><trkpt lat="40.6881167" lon="15.2300183"><ele>361.2</ele><time>2026-04-12T12:13:53.965Z</time></trkpt><trkpt lat="40.68808" lon="15.230125"><ele>359.59999999999997</ele><time>2026-04-12T12:13:54.965Z</time></trkpt><trkpt lat="40.6880467" lon="15.2302333"><ele>358.0</ele><time>2026-04-12T12:13:55.966Z</time></trkpt><trkpt lat="40.688005" lon="15.2303433"><ele>358.0</ele><time>2026-04-12T12:13:56.965Z</time></trkpt><trkpt lat="40.6879633" lon="15.230465"><ele>358.0</ele><time>2026-04-12T12:13:57.965Z</time></trkpt><trkpt lat="40.6879233" lon="15.2305933"><ele>358.0</ele><time>2026-04-12T12:13:58.966Z</time></trkpt><trkpt lat="40.6879" lon="15.2307283"><ele>358.0</ele><time>2026-04-12T12:13:59.965Z</time></trkpt><trkpt lat="40.687865" lon="15.2308633"><ele>358.0</ele><time>2026-04-12T12:14:00.965Z</time></trkpt><trkpt lat="40.6878233" lon="15.230995"><ele>357.0</ele><time>2026-04-12T12:14:01.965Z</time></trkpt><trkpt lat="40.687785" lon="15.2311333"><ele>356.0</ele><time>2026-04-12T12:14:02.965Z</time></trkpt><trkpt lat="40.6877467" lon="15.23126"><ele>355.0</ele><time>2026-04-12T12:14:03.965Z</time></trkpt><trkpt lat="40.6877117" lon="15.2313933"><ele>354.0</ele><time>2026-04-12T12:14:04.966Z</time></trkpt><trkpt lat="40.68767" lon="15.2315233"><ele>353.0</ele><time>2026-04-12T12:14:05.965Z</time></trkpt><trkpt lat="40.6876317" lon="15.2316533"><ele>351.79999999999995</ele><time>2026-04-12T12:14:06.965Z</time></trkpt><trkpt lat="40.68759" lon="15.2317767"><ele>350.6</ele><time>2026-04-12T12:14:07.965Z</time></trkpt><trkpt lat="40.6875583" lon="15.231885"><ele>349.4</ele><time>2026-04-12T12:14:08.965Z</time></trkpt><trkpt lat="40.687545" lon="15.2319767"><ele>348.20000000000005</ele><time>2026-04-12T12:14:09.965Z</time></trkpt><trkpt lat="40.6875783" lon="15.2321217"><ele>347.0</ele><time>2026-04-12T12:14:11.966Z</time></trkpt><trkpt lat="40.6876883" lon="15.232155"><ele>347.0</ele><time>2026-04-12T12:14:13.965Z</time></trkpt><trkpt lat="40.68776" lon="15.23213"><ele>347.0</ele><time>2026-04-12T12:14:14.965Z</time></trkpt><trkpt lat="40.687835" lon="15.2320983"><ele>347.0</ele><time>2026-04-12T12:14:15.965Z</time></trkpt><trkpt lat="40.6879067" lon="15.2320633"><ele>347.0</ele><time>2026-04-12T12:14:16.965Z</time></trkpt><trkpt lat="40.68799" lon="15.23205"><ele>347.0</ele><time>2026-04-12T12:14:17.965Z</time></trkpt><trkpt lat="40.6880733" lon="15.23205"><ele>347.0</ele><time>2026-04-12T12:14:18.965Z</time></trkpt><trkpt lat="40.688165" lon="15.2320583"><ele>344.0</ele><time>2026-04-12T12:14:19.966Z</time></trkpt><trkpt lat="40.6882483" lon="15.2320683"><ele>341.0</ele><time>2026-04-12T12:14:20.965Z</time></trkpt><trkpt lat="40.6883183" lon="15.2320617"><ele>338.0</ele><time>2026-04-12T12:14:21.965Z</time></trkpt><trkpt lat="40.68838" lon="15.2320117"><ele>335.0</ele><time>2026-04-12T12:14:22.965Z</time></trkpt><trkpt lat="40.6884133" lon="15.2319133"><ele>332.0</ele><time>2026-04-12T12:14:23.965Z</time></trkpt><trkpt lat="40.6884283" lon="15.2318067"><ele>329.0</ele><time>2026-04-12T12:14:24.966Z</time></trkpt><trkpt lat="40.6884333" lon="15.2317117"><ele>329.0</ele><time>2026-04-12T12:14:25.965Z</time></trkpt><trkpt lat="40.6884633" lon="15.2315833"><ele>329.0</ele><time>2026-04-12T12:14:27.965Z</time></trkpt><trkpt lat="40.6885383" lon="15.2315433"><ele>329.0</ele><time>2026-04-12T12:14:29.965Z</time></trkpt><trkpt lat="40.68866" lon="15.2316083"><ele>329.0</ele><time>2026-04-12T12:14:31.965Z</time></trkpt><trkpt lat="40.6887283" lon="15.231655"><ele>329.0</ele><time>2026-04-12T12:14:32.965Z</time></trkpt><trkpt lat="40.6888033" lon="15.231705"><ele>327.2</ele><time>2026-04-12T12:14:33.965Z</time></trkpt><trkpt lat="40.688875" lon="15.2317483"><ele>325.4</ele><time>2026-04-12T12:14:34.965Z</time></trkpt><trkpt lat="40.68894" lon="15.2317817"><ele>323.6</ele><time>2026-04-12T12:14:35.965Z</time></trkpt><trkpt lat="40.6890583" lon="15.2318317"><ele>321.8</ele><time>2026-04-12T12:14:37.965Z</time></trkpt><trkpt lat="40.68917" lon="15.2318583"><ele>320.0</ele><time>2026-04-12T12:14:39.965Z</time></trkpt><trkpt lat="40.6892633" lon="15.231895"><ele>320.0</ele><time>2026-04-12T12:14:41.965Z</time></trkpt><trkpt lat="40.68937" lon="15.2319517"><ele>320.0</ele><time>2026-04-12T12:14:43.965Z</time></trkpt><trkpt lat="40.6894283" lon="15.2319867"><ele>320.0</ele><time>2026-04-12T12:14:44.965Z</time></trkpt><trkpt lat="40.689495" lon="15.2320117"><ele>320.0</ele><time>2026-04-12T12:14:45.965Z</time></trkpt><trkpt lat="40.6895617" lon="15.2320317"><ele>320.0</ele><time>2026-04-12T12:14:46.965Z</time></trkpt><trkpt lat="40.6896333" lon="15.232045"><ele>320.0</ele><time>2026-04-12T12:14:47.965Z</time></trkpt><trkpt lat="40.6897117" lon="15.23206"><ele>320.33333333333337</ele><time>2026-04-12T12:14:48.965Z</time></trkpt><trkpt lat="40.6897817" lon="15.232105"><ele>320.6666666666667</ele><time>2026-04-12T12:14:49.965Z</time></trkpt><trkpt lat="40.6898483" lon="15.232155"><ele>321.0</ele><time>2026-04-12T12:14:50.966Z</time></trkpt><trkpt lat="40.68992" lon="15.232205"><ele>321.3333333333333</ele><time>2026-04-12T12:14:51.965Z</time></trkpt><trkpt lat="40.69" lon="15.2322467"><ele>321.66666666666663</ele><time>2026-04-12T12:14:52.965Z</time></trkpt><trkpt lat="40.69008" lon="15.2323"><ele>322.0</ele><time>2026-04-12T12:14:53.965Z</time></trkpt><trkpt lat="40.69015" lon="15.2323733"><ele>321.20000000000005</ele><time>2026-04-12T12:14:54.965Z</time></trkpt><trkpt lat="40.6902117" lon="15.23247"><ele>320.40000000000003</ele><time>2026-04-12T12:14:55.965Z</time></trkpt><trkpt lat="40.6902617" lon="15.2325733"><ele>319.6</ele><time>2026-04-12T12:14:56.966Z</time></trkpt><trkpt lat="40.6902917" lon="15.2326833"><ele>318.8</ele><time>2026-04-12T12:14:57.965Z</time></trkpt><trkpt lat="40.6903017" lon="15.2328183"><ele>318.0</ele><time>2026-04-12T12:14:58.965Z</time></trkpt><trkpt lat="40.6903017" lon="15.232965"><ele>318.0</ele><time>2026-04-12T12:14:59.966Z</time></trkpt><trkpt lat="40.6903" lon="15.2331083"><ele>318.0</ele><time>2026-04-12T12:15:00.965Z</time></trkpt><trkpt lat="40.690305" lon="15.2332467"><ele>318.0</ele><time>2026-04-12T12:15:01.965Z</time></trkpt><trkpt lat="40.690305" lon="15.2333717"><ele>318.0</ele><time>2026-04-12T12:15:02.965Z</time></trkpt><trkpt lat="40.6903267" lon="15.2334883"><ele>318.0</ele><time>2026-04-12T12:15:03.965Z</time></trkpt><trkpt lat="40.6903667" lon="15.2336"><ele>314.4</ele><time>2026-04-12T12:15:04.965Z</time></trkpt><trkpt lat="40.6904167" lon="15.233705"><ele>310.8</ele><time>2026-04-12T12:15:05.965Z</time></trkpt><trkpt lat="40.6904817" lon="15.23381"><ele>307.2</ele><time>2026-04-12T12:15:06.965Z</time></trkpt><trkpt lat="40.6905617" lon="15.2339183"><ele>303.6</ele><time>2026-04-12T12:15:07.965Z</time></trkpt><trkpt lat="40.6906483" lon="15.2340283"><ele>300.0</ele><time>2026-04-12T12:15:08.965Z</time></trkpt><trkpt lat="40.690725" lon="15.2341533"><ele>298.25</ele><time>2026-04-12T12:15:09.965Z</time></trkpt><trkpt lat="40.6907983" lon="15.23429"><ele>296.5</ele><time>2026-04-12T12:15:10.966Z</time></trkpt><trkpt lat="40.6908583" lon="15.234445"><ele>294.75</ele><time>2026-04-12T12:15:11.965Z</time></trkpt><trkpt lat="40.69093" lon="15.23461"><ele>293.0</ele><time>2026-04-12T12:15:12.965Z</time></trkpt><trkpt lat="40.6910383" lon="15.23478"><ele>285.6666666666667</ele><time>2026-04-12T12:15:13.965Z</time></trkpt><trkpt lat="40.69116" lon="15.23494"><ele>278.3333333333333</ele><time>2026-04-12T12:15:14.965Z</time></trkpt><trkpt lat="40.6912783" lon="15.235105"><ele>271.0</ele><time>2026-04-12T12:15:15.965Z</time></trkpt><trkpt lat="40.6913883" lon="15.23528"><ele>271.0</ele><time>2026-04-12T12:15:16.965Z</time></trkpt><trkpt lat="40.69149" lon="15.2354433"><ele>271.0</ele><time>2026-04-12T12:15:17.965Z</time></trkpt><trkpt lat="40.6915767" lon="15.2355933"><ele>271.0</ele><time>2026-04-12T12:15:18.965Z</time></trkpt><trkpt lat="40.6916567" lon="15.23573"><ele>271.0</ele><time>2026-04-12T12:15:19.965Z</time></trkpt><trkpt lat="40.691725" lon="15.2358717"><ele>275.5</ele><time>2026-04-12T12:15:20.965Z</time></trkpt><trkpt lat="40.6917817" lon="15.2360117"><ele>280.0</ele><time>2026-04-12T12:15:21.965Z</time></trkpt><trkpt lat="40.69182" lon="15.23616"><ele>284.5</ele><time>2026-04-12T12:15:22.965Z</time></trkpt><trkpt lat="40.6918633" lon="15.236315"><ele>289.0</ele><time>2026-04-12T12:15:23.966Z</time></trkpt><trkpt lat="40.6919" lon="15.2364467"><ele>286.3333333333333</ele><time>2026-04-12T12:15:24.965Z</time></trkpt><trkpt lat="40.691935" lon="15.2365533"><ele>283.66666666666663</ele><time>2026-04-12T12:15:25.965Z</time></trkpt><trkpt lat="40.6919683" lon="15.2366417"><ele>281.0</ele><time>2026-04-12T12:15:26.965Z</time></trkpt><trkpt lat="40.6920267" lon="15.2367017"><ele>278.3333333333333</ele><time>2026-04-12T12:15:27.965Z</time></trkpt><trkpt lat="40.6921" lon="15.2367483"><ele>275.6666666666667</ele><time>2026-04-12T12:15:28.965Z</time></trkpt><trkpt lat="40.6921833" lon="15.2367717"><ele>273.0</ele><time>2026-04-12T12:15:29.965Z</time></trkpt><trkpt lat="40.69226" lon="15.2367967"><ele>273.0</ele><time>2026-04-12T12:15:30.965Z</time></trkpt><trkpt lat="40.6923333" lon="15.2368533"><ele>273.0</ele><time>2026-04-12T12:15:31.965Z</time></trkpt><trkpt lat="40.692385" lon="15.2369383"><ele>273.0</ele><time>2026-04-12T12:15:32.965Z</time></trkpt><trkpt lat="40.6924083" lon="15.2370533"><ele>273.0</ele><time>2026-04-12T12:15:33.965Z</time></trkpt><trkpt lat="40.6924167" lon="15.2371817"><ele>273.0</ele><time>2026-04-12T12:15:34.965Z</time></trkpt><trkpt lat="40.692425" lon="15.237335"><ele>273.25</ele><time>2026-04-12T12:15:35.965Z</time></trkpt><trkpt lat="40.69244" lon="15.23749"><ele>273.5</ele><time>2026-04-12T12:15:36.965Z</time></trkpt><trkpt lat="40.69247" lon="15.2376467"><ele>273.75</ele><time>2026-04-12T12:15:37.965Z</time></trkpt><trkpt lat="40.6925033" lon="15.237795"><ele>274.0</ele><time>2026-04-12T12:15:38.965Z</time></trkpt><trkpt lat="40.6925417" lon="15.2379333"><ele>274.0</ele><time>2026-04-12T12:15:39.965Z</time></trkpt><trkpt lat="40.6925733" lon="15.23807"><ele>274.0</ele><time>2026-04-12T12:15:40.965Z</time></trkpt><trkpt lat="40.6926133" lon="15.2382017"><ele>274.0</ele><time>2026-04-12T12:15:41.965Z</time></trkpt><trkpt lat="40.6926583" lon="15.2383233"><ele>274.0</ele><time>2026-04-12T12:15:42.965Z</time></trkpt><trkpt lat="40.69271" lon="15.2384383"><ele>274.0</ele><time>2026-04-12T12:15:43.965Z</time></trkpt><trkpt lat="40.692775" lon="15.2385567"><ele>270.0</ele><time>2026-04-12T12:15:44.965Z</time></trkpt><trkpt lat="40.6928433" lon="15.2386783"><ele>266.0</ele><time>2026-04-12T12:15:45.966Z</time></trkpt><trkpt lat="40.692895" lon="15.238815"><ele>262.0</ele><time>2026-04-12T12:15:46.966Z</time></trkpt><trkpt lat="40.69294" lon="15.23894"><ele>258.0</ele><time>2026-04-12T12:15:47.965Z</time></trkpt><trkpt lat="40.692995" lon="15.239065"><ele>254.0</ele><time>2026-04-12T12:15:48.965Z</time></trkpt><trkpt lat="40.6930683" lon="15.2391833"><ele>254.0</ele><time>2026-04-12T12:15:49.965Z</time></trkpt><trkpt lat="40.6931383" lon="15.2392867"><ele>253.99999999999997</ele><time>2026-04-12T12:15:50.965Z</time></trkpt><trkpt lat="40.6932217" lon="15.2393717"><ele>253.99999999999997</ele><time>2026-04-12T12:15:51.965Z</time></trkpt><trkpt lat="40.6932967" lon="15.2394517"><ele>254.0</ele><time>2026-04-12T12:15:52.965Z</time></trkpt><trkpt lat="40.6933833" lon="15.2395217"><ele>254.0</ele><time>2026-04-12T12:15:53.965Z</time></trkpt><trkpt lat="40.6934617" lon="15.2395967"><ele>254.0</ele><time>2026-04-12T12:15:54.965Z</time></trkpt><trkpt lat="40.693545" lon="15.2396583"><ele>253.99999999999997</ele><time>2026-04-12T12:15:55.965Z</time></trkpt><trkpt lat="40.69362" lon="15.23972"><ele>253.99999999999997</ele><time>2026-04-12T12:15:56.965Z</time></trkpt><trkpt lat="40.6937033" lon="15.2397867"><ele>254.0</ele><time>2026-04-12T12:15:57.965Z</time></trkpt><trkpt lat="40.693785" lon="15.2398617"><ele>254.0</ele><time>2026-04-12T12:15:58.965Z</time></trkpt><trkpt lat="40.6938717" lon="15.2399333"><ele>253.25</ele><time>2026-04-12T12:15:59.965Z</time></trkpt><trkpt lat="40.6939583" lon="15.2400233"><ele>252.5</ele><time>2026-04-12T12:16:00.965Z</time></trkpt><trkpt lat="40.694045" lon="15.24013"><ele>251.75</ele><time>2026-04-12T12:16:01.965Z</time></trkpt><trkpt lat="40.6941133" lon="15.2402567"><ele>251.0</ele><time>2026-04-12T12:16:02.966Z</time></trkpt><trkpt lat="40.69419" lon="15.2403983"><ele>251.0</ele><time>2026-04-12T12:16:03.965Z</time></trkpt><trkpt lat="40.6942633" lon="15.24054"><ele>251.0</ele><time>2026-04-12T12:16:04.965Z</time></trkpt><trkpt lat="40.6943283" lon="15.24069"><ele>251.0</ele><time>2026-04-12T12:16:05.965Z</time></trkpt><trkpt lat="40.6943933" lon="15.2408317"><ele>251.0</ele><time>2026-04-12T12:16:06.965Z</time></trkpt><trkpt lat="40.6944567" lon="15.2409683"><ele>245.75</ele><time>2026-04-12T12:16:07.965Z</time></trkpt><trkpt lat="40.6945167" lon="15.2411033"><ele>240.5</ele><time>2026-04-12T12:16:08.965Z</time></trkpt><trkpt lat="40.69456" lon="15.2412433"><ele>235.25</ele><time>2026-04-12T12:16:09.965Z</time></trkpt><trkpt lat="40.6946017" lon="15.2413867"><ele>230.0</ele><time>2026-04-12T12:16:10.965Z</time></trkpt><trkpt lat="40.694615" lon="15.241535"><ele>230.0</ele><time>2026-04-12T12:16:11.965Z</time></trkpt><trkpt lat="40.69464" lon="15.241685"><ele>230.0</ele><time>2026-04-12T12:16:12.965Z</time></trkpt><trkpt lat="40.69468" lon="15.24184"><ele>230.0</ele><time>2026-04-12T12:16:13.965Z</time></trkpt><trkpt lat="40.6947283" lon="15.241985"><ele>230.0</ele><time>2026-04-12T12:16:14.965Z</time></trkpt><trkpt lat="40.69478" lon="15.24213"><ele>230.0</ele><time>2026-04-12T12:16:15.965Z</time></trkpt><trkpt lat="40.69483" lon="15.24227"><ele>230.0</ele><time>2026-04-12T12:16:16.965Z</time></trkpt><trkpt lat="40.6948667" lon="15.2424133"><ele>230.0</ele><time>2026-04-12T12:16:17.965Z</time></trkpt><trkpt lat="40.6948933" lon="15.2425567"><ele>230.0</ele><time>2026-04-12T12:16:18.965Z</time></trkpt><trkpt lat="40.6949217" lon="15.2427017"><ele>229.8</ele><time>2026-04-12T12:16:19.965Z</time></trkpt><trkpt lat="40.694935" lon="15.2428433"><ele>229.6</ele><time>2026-04-12T12:16:20.965Z</time></trkpt><trkpt lat="40.69495" lon="15.2429867"><ele>229.39999999999998</ele><time>2026-04-12T12:16:21.965Z</time></trkpt><trkpt lat="40.69496" lon="15.24313"><ele>229.2</ele><time>2026-04-12T12:16:22.965Z</time></trkpt><trkpt lat="40.6949483" lon="15.2432717"><ele>229.0</ele><time>2026-04-12T12:16:23.965Z</time></trkpt><trkpt lat="40.69493" lon="15.24341"><ele>227.39999999999998</ele><time>2026-04-12T12:16:24.965Z</time></trkpt><trkpt lat="40.6948917" lon="15.24355"><ele>225.79999999999998</ele><time>2026-04-12T12:16:25.965Z</time></trkpt><trkpt lat="40.6948567" lon="15.243685"><ele>224.20000000000002</ele><time>2026-04-12T12:16:26.965Z</time></trkpt><trkpt lat="40.6948283" lon="15.2438117"><ele>222.60000000000002</ele><time>2026-04-12T12:16:27.965Z</time></trkpt><trkpt lat="40.6948267" lon="15.2439233"><ele>221.0</ele><time>2026-04-12T12:16:28.965Z</time></trkpt><trkpt lat="40.6948967" lon="15.2440633"><ele>219.4</ele><time>2026-04-12T12:16:30.965Z</time></trkpt><trkpt lat="40.6949733" lon="15.2440683"><ele>217.8</ele><time>2026-04-12T12:16:31.965Z</time></trkpt><trkpt lat="40.6950617" lon="15.244045"><ele>216.20000000000002</ele><time>2026-04-12T12:16:32.965Z</time></trkpt><trkpt lat="40.6951733" lon="15.2440217"><ele>214.60000000000002</ele><time>2026-04-12T12:16:33.965Z</time></trkpt><trkpt lat="40.6952833" lon="15.2440017"><ele>213.0</ele><time>2026-04-12T12:16:34.965Z</time></trkpt><trkpt lat="40.6953867" lon="15.2439883"><ele>212.60000000000002</ele><time>2026-04-12T12:16:35.965Z</time></trkpt><trkpt lat="40.6954783" lon="15.2439967"><ele>212.20000000000002</ele><time>2026-04-12T12:16:36.965Z</time></trkpt><trkpt lat="40.6955567" lon="15.2440283"><ele>211.8</ele><time>2026-04-12T12:16:37.965Z</time></trkpt><trkpt lat="40.69563" lon="15.2441633"><ele>211.4</ele><time>2026-04-12T12:16:39.965Z</time></trkpt><trkpt lat="40.6956217" lon="15.2442567"><ele>211.0</ele><time>2026-04-12T12:16:40.965Z</time></trkpt><trkpt lat="40.69559" lon="15.2443633"><ele>211.0</ele><time>2026-04-12T12:16:41.965Z</time></trkpt><trkpt lat="40.6955417" lon="15.2444917"><ele>211.0</ele><time>2026-04-12T12:16:42.965Z</time></trkpt><trkpt lat="40.69549" lon="15.24463"><ele>211.0</ele><time>2026-04-12T12:16:43.965Z</time></trkpt><trkpt lat="40.6954367" lon="15.2447717"><ele>211.0</ele><time>2026-04-12T12:16:44.965Z</time></trkpt><trkpt lat="40.6953833" lon="15.2449117"><ele>209.25</ele><time>2026-04-12T12:16:45.965Z</time></trkpt><trkpt lat="40.6953333" lon="15.2450483"><ele>207.5</ele><time>2026-04-12T12:16:46.965Z</time></trkpt><trkpt lat="40.695275" lon="15.2451883"><ele>205.75</ele><time>2026-04-12T12:16:47.965Z</time></trkpt><trkpt lat="40.69521" lon="15.245325"><ele>204.0</ele><time>2026-04-12T12:16:48.965Z</time></trkpt><trkpt lat="40.6951367" lon="15.24546"><ele>204.0</ele><time>2026-04-12T12:16:49.965Z</time></trkpt><trkpt lat="40.69505" lon="15.245585"><ele>204.0</ele><time>2026-04-12T12:16:50.965Z</time></trkpt><trkpt lat="40.6949467" lon="15.2457033"><ele>204.0</ele><time>2026-04-12T12:16:51.965Z</time></trkpt><trkpt lat="40.6948333" lon="15.2458133"><ele>204.0</ele><time>2026-04-12T12:16:52.965Z</time></trkpt><trkpt lat="40.6946983" lon="15.2459117"><ele>200.66666666666669</ele><time>2026-04-12T12:16:53.965Z</time></trkpt><trkpt lat="40.6945367" lon="15.24602"><ele>197.33333333333334</ele><time>2026-04-12T12:16:54.965Z</time></trkpt><trkpt lat="40.69437" lon="15.2461367"><ele>194.0</ele><time>2026-04-12T12:16:55.965Z</time></trkpt><trkpt lat="40.6942133" lon="15.2462567"><ele>193.0</ele><time>2026-04-12T12:16:56.965Z</time></trkpt><trkpt lat="40.6940633" lon="15.2463767"><ele>192.0</ele><time>2026-04-12T12:16:57.965Z</time></trkpt><trkpt lat="40.69391" lon="15.2464883"><ele>191.0</ele><time>2026-04-12T12:16:58.965Z</time></trkpt><trkpt lat="40.6937633" lon="15.2466"><ele>188.0</ele><time>2026-04-12T12:16:59.966Z</time></trkpt><trkpt lat="40.6936167" lon="15.2467067"><ele>185.0</ele><time>2026-04-12T12:17:00.965Z</time></trkpt><trkpt lat="40.6934733" lon="15.2468083"><ele>182.0</ele><time>2026-04-12T12:17:01.965Z</time></trkpt><trkpt lat="40.6933383" lon="15.2469183"><ele>181.66666666666666</ele><time>2026-04-12T12:17:02.965Z</time></trkpt><trkpt lat="40.6932033" lon="15.2470217"><ele>181.33333333333334</ele><time>2026-04-12T12:17:03.965Z</time></trkpt><trkpt lat="40.6930733" lon="15.2471183"><ele>181.0</ele><time>2026-04-12T12:17:04.965Z</time></trkpt><trkpt lat="40.6929483" lon="15.24722"><ele>178.5</ele><time>2026-04-12T12:17:05.965Z</time></trkpt><trkpt lat="40.6928283" lon="15.247325"><ele>176.0</ele><time>2026-04-12T12:17:06.966Z</time></trkpt><trkpt lat="40.6927067" lon="15.2474133"><ele>173.5</ele><time>2026-04-12T12:17:07.965Z</time></trkpt><trkpt lat="40.69258" lon="15.2474833"><ele>171.0</ele><time>2026-04-12T12:17:08.965Z</time></trkpt><trkpt lat="40.6924517" lon="15.2475467"><ele>171.0</ele><time>2026-04-12T12:17:09.965Z</time></trkpt><trkpt lat="40.6923283" lon="15.2476067"><ele>171.0</ele><time>2026-04-12T12:17:10.965Z</time></trkpt><trkpt lat="40.6922017" lon="15.247665"><ele>171.0</ele><time>2026-04-12T12:17:11.965Z</time></trkpt><trkpt lat="40.692075" lon="15.2477167"><ele>171.0</ele><time>2026-04-12T12:17:12.965Z</time></trkpt><trkpt lat="40.6919483" lon="15.24777"><ele>170.5</ele><time>2026-04-12T12:17:13.965Z</time></trkpt><trkpt lat="40.6918167" lon="15.2478317"><ele>170.0</ele><time>2026-04-12T12:17:14.965Z</time></trkpt><trkpt lat="40.6916917" lon="15.247915"><ele>169.5</ele><time>2026-04-12T12:17:15.965Z</time></trkpt><trkpt lat="40.6915867" lon="15.2480217"><ele>169.0</ele><time>2026-04-12T12:17:16.965Z</time></trkpt><trkpt lat="40.6914783" lon="15.2481183"><ele>165.75</ele><time>2026-04-12T12:17:17.966Z</time></trkpt><trkpt lat="40.6913717" lon="15.24823"><ele>162.5</ele><time>2026-04-12T12:17:18.965Z</time></trkpt><trkpt lat="40.691265" lon="15.2483483"><ele>159.25</ele><time>2026-04-12T12:17:19.966Z</time></trkpt><trkpt lat="40.6911633" lon="15.2484567"><ele>156.0</ele><time>2026-04-12T12:17:20.965Z</time></trkpt><trkpt lat="40.6910683" lon="15.2485733"><ele>156.0</ele><time>2026-04-12T12:17:21.965Z</time></trkpt><trkpt lat="40.690975" lon="15.248685"><ele>156.0</ele><time>2026-04-12T12:17:22.965Z</time></trkpt><trkpt lat="40.6908833" lon="15.2487917"><ele>156.0</ele><time>2026-04-12T12:17:23.965Z</time></trkpt><trkpt lat="40.6907967" lon="15.2489067"><ele>156.0</ele><time>2026-04-12T12:17:24.965Z</time></trkpt><trkpt lat="40.690745" lon="15.24904"><ele>154.0</ele><time>2026-04-12T12:17:25.965Z</time></trkpt><trkpt lat="40.6907383" lon="15.24918"><ele>152.0</ele><time>2026-04-12T12:17:26.965Z</time></trkpt><trkpt lat="40.69077" lon="15.2493133"><ele>150.0</ele><time>2026-04-12T12:17:27.965Z</time></trkpt><trkpt lat="40.6908217" lon="15.2494383"><ele>148.0</ele><time>2026-04-12T12:17:28.966Z</time></trkpt><trkpt lat="40.6909167" lon="15.2495667"><ele>148.0</ele><time>2026-04-12T12:17:29.965Z</time></trkpt><trkpt lat="40.6910233" lon="15.249695"><ele>148.0</ele><time>2026-04-12T12:17:30.965Z</time></trkpt><trkpt lat="40.6911333" lon="15.2498233"><ele>148.0</ele><time>2026-04-12T12:17:31.964Z</time></trkpt><trkpt lat="40.6912367" lon="15.2499533"><ele>148.0</ele><time>2026-04-12T12:17:32.964Z</time></trkpt><trkpt lat="40.69133" lon="15.2500733"><ele>148.20000000000002</ele><time>2026-04-12T12:17:33.964Z</time></trkpt><trkpt lat="40.6914133" lon="15.250195"><ele>148.4</ele><time>2026-04-12T12:17:34.964Z</time></trkpt><trkpt lat="40.691475" lon="15.2503233"><ele>148.60000000000002</ele><time>2026-04-12T12:17:35.964Z</time></trkpt><trkpt lat="40.691505" lon="15.2504367"><ele>148.8</ele><time>2026-04-12T12:17:36.964Z</time></trkpt><trkpt lat="40.691515" lon="15.2505383"><ele>149.0</ele><time>2026-04-12T12:17:37.964Z</time></trkpt><trkpt lat="40.69153" lon="15.2506833"><ele>149.0</ele><time>2026-04-12T12:17:39.964Z</time></trkpt><trkpt lat="40.691555" lon="15.2507833"><ele>149.0</ele><time>2026-04-12T12:17:41.964Z</time></trkpt><trkpt lat="40.6915417" lon="15.2509267"><ele>149.0</ele><time>2026-04-12T12:17:43.964Z</time></trkpt><trkpt lat="40.69151" lon="15.25104"><ele>149.0</ele><time>2026-04-12T12:17:44.964Z</time></trkpt><trkpt lat="40.6914633" lon="15.2511533"><ele>149.0</ele><time>2026-04-12T12:17:45.964Z</time></trkpt><trkpt lat="40.691415" lon="15.2512967"><ele>150.75</ele><time>2026-04-12T12:17:46.964Z</time></trkpt><trkpt lat="40.6913733" lon="15.2514667"><ele>152.5</ele><time>2026-04-12T12:17:47.964Z</time></trkpt><trkpt lat="40.691335" lon="15.2516467"><ele>154.25</ele><time>2026-04-12T12:17:48.964Z</time></trkpt><trkpt lat="40.6913183" lon="15.2518333"><ele>156.0</ele><time>2026-04-12T12:17:49.964Z</time></trkpt><trkpt lat="40.6912917" lon="15.25203"><ele>156.0</ele><time>2026-04-12T12:17:50.964Z</time></trkpt><trkpt lat="40.6912583" lon="15.2522117"><ele>156.0</ele><time>2026-04-12T12:17:51.964Z</time></trkpt><trkpt lat="40.691225" lon="15.2523733"><ele>156.0</ele><time>2026-04-12T12:17:52.964Z</time></trkpt><trkpt lat="40.6911967" lon="15.252505"><ele>156.0</ele><time>2026-04-12T12:17:53.964Z</time></trkpt><trkpt lat="40.6911883" lon="15.2526167"><ele>157.5</ele><time>2026-04-12T12:17:54.964Z</time></trkpt><trkpt lat="40.6911983" lon="15.252715"><ele>159.0</ele><time>2026-04-12T12:17:55.964Z</time></trkpt><trkpt lat="40.691245" lon="15.2527967"><ele>160.5</ele><time>2026-04-12T12:17:56.964Z</time></trkpt><trkpt lat="40.69132" lon="15.2528517"><ele>162.0</ele><time>2026-04-12T12:17:57.964Z</time></trkpt><trkpt lat="40.69141" lon="15.2528933"><ele>163.5</ele><time>2026-04-12T12:17:58.964Z</time></trkpt><trkpt lat="40.691495" lon="15.2529417"><ele>165.0</ele><time>2026-04-12T12:17:59.964Z</time></trkpt><trkpt lat="40.6915467" lon="15.2530283"><ele>166.4</ele><time>2026-04-12T12:18:00.964Z</time></trkpt><trkpt lat="40.6915883" lon="15.2531233"><ele>167.8</ele><time>2026-04-12T12:18:01.964Z</time></trkpt><trkpt lat="40.69162" lon="15.253245"><ele>169.2</ele><time>2026-04-12T12:18:02.964Z</time></trkpt><trkpt lat="40.6916467" lon="15.25337"><ele>170.6</ele><time>2026-04-12T12:18:03.965Z</time></trkpt><trkpt lat="40.6916567" lon="15.2535067"><ele>172.0</ele><time>2026-04-12T12:18:04.964Z</time></trkpt><trkpt lat="40.6916617" lon="15.2536283"><ele>172.0</ele><time>2026-04-12T12:18:05.964Z</time></trkpt><trkpt lat="40.691665" lon="15.2537317"><ele>172.0</ele><time>2026-04-12T12:18:06.964Z</time></trkpt><trkpt lat="40.6916717" lon="15.2538217"><ele>172.0</ele><time>2026-04-12T12:18:07.964Z</time></trkpt><trkpt lat="40.6916833" lon="15.2539717"><ele>172.0</ele><time>2026-04-12T12:18:09.964Z</time></trkpt><trkpt lat="40.6916983" lon="15.2541333"><ele>172.0</ele><time>2026-04-12T12:18:11.964Z</time></trkpt><trkpt lat="40.6917067" lon="15.2542467"><ele>174.2</ele><time>2026-04-12T12:18:12.964Z</time></trkpt><trkpt lat="40.6917133" lon="15.2543817"><ele>176.39999999999998</ele><time>2026-04-12T12:18:13.964Z</time></trkpt><trkpt lat="40.69171" lon="15.2545317"><ele>178.60000000000002</ele><time>2026-04-12T12:18:14.964Z</time></trkpt><trkpt lat="40.6917" lon="15.2546883"><ele>180.8</ele><time>2026-04-12T12:18:15.964Z</time></trkpt><trkpt lat="40.6916717" lon="15.2548167"><ele>183.0</ele><time>2026-04-12T12:18:16.964Z</time></trkpt><trkpt lat="40.6916317" lon="15.2549167"><ele>184.28571428571428</ele><time>2026-04-12T12:18:17.964Z</time></trkpt><trkpt lat="40.6916067" lon="15.25501"><ele>185.57142857142858</ele><time>2026-04-12T12:18:18.964Z</time></trkpt><trkpt lat="40.6915967" lon="15.2550933"><ele>186.85714285714283</ele><time>2026-04-12T12:18:19.964Z</time></trkpt><trkpt lat="40.691585" lon="15.2551783"><ele>188.14285714285714</ele><time>2026-04-12T12:18:20.964Z</time></trkpt><trkpt lat="40.6915783" lon="15.2552617"><ele>189.42857142857142</ele><time>2026-04-12T12:18:21.964Z</time></trkpt><trkpt lat="40.6915767" lon="15.2553517"><ele>190.7142857142857</ele><time>2026-04-12T12:18:22.964Z</time></trkpt><trkpt lat="40.6915633" lon="15.2554517"><ele>192.0</ele><time>2026-04-12T12:18:23.964Z</time></trkpt><trkpt lat="40.6915567" lon="15.2555517"><ele>194.0</ele><time>2026-04-12T12:18:24.964Z</time></trkpt><trkpt lat="40.6915367" lon="15.2556717"><ele>196.0</ele><time>2026-04-12T12:18:25.964Z</time></trkpt><trkpt lat="40.691525" lon="15.2558017"><ele>198.0</ele><time>2026-04-12T12:18:26.964Z</time></trkpt><trkpt lat="40.6915083" lon="15.2559383"><ele>200.0</ele><time>2026-04-12T12:18:27.964Z</time></trkpt><trkpt lat="40.6914833" lon="15.2560833"><ele>202.0</ele><time>2026-04-12T12:18:28.964Z</time></trkpt><trkpt lat="40.69146" lon="15.2562383"><ele>202.0</ele><time>2026-04-12T12:18:29.964Z</time></trkpt><trkpt lat="40.6914533" lon="15.256405"><ele>202.0</ele><time>2026-04-12T12:18:30.965Z</time></trkpt><trkpt lat="40.691445" lon="15.2565583"><ele>202.0</ele><time>2026-04-12T12:18:31.964Z</time></trkpt><trkpt lat="40.6914367" lon="15.2567233"><ele>202.0</ele><time>2026-04-12T12:18:32.964Z</time></trkpt><trkpt lat="40.6914267" lon="15.2568917"><ele>203.75</ele><time>2026-04-12T12:18:33.964Z</time></trkpt><trkpt lat="40.6914183" lon="15.2570583"><ele>205.5</ele><time>2026-04-12T12:18:34.964Z</time></trkpt><trkpt lat="40.69141" lon="15.257215"><ele>207.25</ele><time>2026-04-12T12:18:35.964Z</time></trkpt><trkpt lat="40.6914" lon="15.2573667"><ele>209.0</ele><time>2026-04-12T12:18:36.964Z</time></trkpt><trkpt lat="40.6914083" lon="15.2575183"><ele>211.75</ele><time>2026-04-12T12:18:37.964Z</time></trkpt><trkpt lat="40.6914283" lon="15.2576783"><ele>214.5</ele><time>2026-04-12T12:18:38.964Z</time></trkpt><trkpt lat="40.6914633" lon="15.2578367"><ele>217.25</ele><time>2026-04-12T12:18:39.965Z</time></trkpt><trkpt lat="40.6914967" lon="15.257995"><ele>220.0</ele><time>2026-04-12T12:18:40.965Z</time></trkpt><trkpt lat="40.6915167" lon="15.2581583"><ele>222.2</ele><time>2026-04-12T12:18:41.964Z</time></trkpt><trkpt lat="40.69153" lon="15.2583183"><ele>224.4</ele><time>2026-04-12T12:18:42.964Z</time></trkpt><trkpt lat="40.691555" lon="15.25847"><ele>226.60000000000002</ele><time>2026-04-12T12:18:43.964Z</time></trkpt><trkpt lat="40.691565" lon="15.2586067"><ele>228.8</ele><time>2026-04-12T12:18:44.964Z</time></trkpt><trkpt lat="40.6915683" lon="15.2587383"><ele>231.0</ele><time>2026-04-12T12:18:45.964Z</time></trkpt><trkpt lat="40.6915783" lon="15.2588467"><ele>231.0</ele><time>2026-04-12T12:18:46.964Z</time></trkpt><trkpt lat="40.691585" lon="15.258945"><ele>231.0</ele><time>2026-04-12T12:18:47.964Z</time></trkpt><trkpt lat="40.6915967" lon="15.2590433"><ele>231.0</ele><time>2026-04-12T12:18:48.964Z</time></trkpt><trkpt lat="40.6916067" lon="15.2591517"><ele>231.0</ele><time>2026-04-12T12:18:49.965Z</time></trkpt><trkpt lat="40.6916267" lon="15.2592783"><ele>231.0</ele><time>2026-04-12T12:18:50.964Z</time></trkpt><trkpt lat="40.69165" lon="15.2594183"><ele>231.0</ele><time>2026-04-12T12:18:51.964Z</time></trkpt><trkpt lat="40.691665" lon="15.2595533"><ele>232.4</ele><time>2026-04-12T12:18:52.964Z</time></trkpt><trkpt lat="40.6916667" lon="15.259675"><ele>233.8</ele><time>2026-04-12T12:18:53.964Z</time></trkpt><trkpt lat="40.6916367" lon="15.259775"><ele>235.20000000000002</ele><time>2026-04-12T12:18:54.964Z</time></trkpt><trkpt lat="40.6915783" lon="15.2598517"><ele>236.60000000000002</ele><time>2026-04-12T12:18:55.965Z</time></trkpt><trkpt lat="40.6914867" lon="15.2599033"><ele>238.0</ele><time>2026-04-12T12:18:56.964Z</time></trkpt><trkpt lat="40.691375" lon="15.2599433"><ele>238.25</ele><time>2026-04-12T12:18:57.964Z</time></trkpt><trkpt lat="40.6912517" lon="15.2599883"><ele>238.5</ele><time>2026-04-12T12:18:58.964Z</time></trkpt><trkpt lat="40.69111" lon="15.2600433"><ele>238.75</ele><time>2026-04-12T12:18:59.964Z</time></trkpt><trkpt lat="40.6909817" lon="15.26013"><ele>239.0</ele><time>2026-04-12T12:19:00.964Z</time></trkpt><trkpt lat="40.6908633" lon="15.260255"><ele>240.66666666666669</ele><time>2026-04-12T12:19:01.965Z</time></trkpt><trkpt lat="40.6907517" lon="15.2604117"><ele>242.33333333333331</ele><time>2026-04-12T12:19:02.964Z</time></trkpt><trkpt lat="40.690645" lon="15.2605733"><ele>244.0</ele><time>2026-04-12T12:19:03.964Z</time></trkpt><trkpt lat="40.6905567" lon="15.26074"><ele>244.0</ele><time>2026-04-12T12:19:04.965Z</time></trkpt><trkpt lat="40.69049" lon="15.2609067"><ele>244.0</ele><time>2026-04-12T12:19:05.964Z</time></trkpt><trkpt lat="40.690445" lon="15.261075"><ele>244.0</ele><time>2026-04-12T12:19:06.964Z</time></trkpt><trkpt lat="40.69041" lon="15.2612583"><ele>244.0</ele><time>2026-04-12T12:19:07.964Z</time></trkpt><trkpt lat="40.6903833" lon="15.2614583"><ele>243.5</ele><time>2026-04-12T12:19:08.964Z</time></trkpt><trkpt lat="40.6903667" lon="15.2616667"><ele>243.0</ele><time>2026-04-12T12:19:09.964Z</time></trkpt><trkpt lat="40.690355" lon="15.2618633"><ele>242.5</ele><time>2026-04-12T12:19:10.964Z</time></trkpt><trkpt lat="40.6903467" lon="15.2620483"><ele>242.0</ele><time>2026-04-12T12:19:11.964Z</time></trkpt><trkpt lat="40.690335" lon="15.26221"><ele>242.0</ele><time>2026-04-12T12:19:12.964Z</time></trkpt><trkpt lat="40.690305" lon="15.2623617"><ele>242.0</ele><time>2026-04-12T12:19:13.964Z</time></trkpt><trkpt lat="40.6902267" lon="15.2624533"><ele>242.0</ele><time>2026-04-12T12:19:14.964Z</time></trkpt><trkpt lat="40.690125" lon="15.26254"><ele>242.0</ele><time>2026-04-12T12:19:15.964Z</time></trkpt><trkpt lat="40.6900067" lon="15.2626117"><ele>245.0</ele><time>2026-04-12T12:19:16.964Z</time></trkpt><trkpt lat="40.6898867" lon="15.262685"><ele>248.0</ele><time>2026-04-12T12:19:17.964Z</time></trkpt><trkpt lat="40.6897583" lon="15.2627633"><ele>251.0</ele><time>2026-04-12T12:19:18.964Z</time></trkpt><trkpt lat="40.6896433" lon="15.2628517"><ele>254.0</ele><time>2026-04-12T12:19:19.964Z</time></trkpt><trkpt lat="40.6895333" lon="15.2629317"><ele>254.75</ele><time>2026-04-12T12:19:20.964Z</time></trkpt><trkpt lat="40.6894233" lon="15.2630117"><ele>255.5</ele><time>2026-04-12T12:19:21.964Z</time></trkpt><trkpt lat="40.68933" lon="15.263105"><ele>256.25</ele><time>2026-04-12T12:19:22.964Z</time></trkpt><trkpt lat="40.6892617" lon="15.26322"><ele>257.0</ele><time>2026-04-12T12:19:23.964Z</time></trkpt><trkpt lat="40.6892033" lon="15.2633617"><ele>257.0</ele><time>2026-04-12T12:19:24.964Z</time></trkpt><trkpt lat="40.6891567" lon="15.2635167"><ele>257.0</ele><time>2026-04-12T12:19:25.965Z</time></trkpt><trkpt lat="40.6891033" lon="15.2636717"><ele>257.0</ele><time>2026-04-12T12:19:26.964Z</time></trkpt><trkpt lat="40.6890283" lon="15.2638133"><ele>257.0</ele><time>2026-04-12T12:19:27.964Z</time></trkpt><trkpt lat="40.6889333" lon="15.2639483"><ele>255.5</ele><time>2026-04-12T12:19:28.964Z</time></trkpt><trkpt lat="40.6888317" lon="15.2640717"><ele>254.0</ele><time>2026-04-12T12:19:29.964Z</time></trkpt><trkpt lat="40.688735" lon="15.2641917"><ele>252.5</ele><time>2026-04-12T12:19:30.964Z</time></trkpt><trkpt lat="40.6886533" lon="15.264325"><ele>251.0</ele><time>2026-04-12T12:19:31.964Z</time></trkpt><trkpt lat="40.6885883" lon="15.2644683"><ele>256.5</ele><time>2026-04-12T12:19:32.964Z</time></trkpt><trkpt lat="40.68854" lon="15.2646267"><ele>262.0</ele><time>2026-04-12T12:19:33.964Z</time></trkpt><trkpt lat="40.6885017" lon="15.2648117"><ele>267.5</ele><time>2026-04-12T12:19:34.964Z</time></trkpt><trkpt lat="40.6884617" lon="15.265"><ele>273.0</ele><time>2026-04-12T12:19:35.964Z</time></trkpt><trkpt lat="40.6884417" lon="15.265205"><ele>273.6666666666667</ele><time>2026-04-12T12:19:36.964Z</time></trkpt><trkpt lat="40.688445" lon="15.2653917"><ele>274.33333333333337</ele><time>2026-04-12T12:19:37.964Z</time></trkpt><trkpt lat="40.6884783" lon="15.26559"><ele>275.0</ele><time>2026-04-12T12:19:38.964Z</time></trkpt><trkpt lat="40.6885367" lon="15.265795"><ele>277.0</ele><time>2026-04-12T12:19:39.964Z</time></trkpt><trkpt lat="40.6885833" lon="15.2660033"><ele>279.0</ele><time>2026-04-12T12:19:40.964Z</time></trkpt><trkpt lat="40.6886167" lon="15.2662217"><ele>281.0</ele><time>2026-04-12T12:19:41.964Z</time></trkpt><trkpt lat="40.6886467" lon="15.26643"><ele>270.0</ele><time>2026-04-12T12:19:42.964Z</time></trkpt><trkpt lat="40.68869" lon="15.2666433"><ele>259.0</ele><time>2026-04-12T12:19:43.964Z</time></trkpt><trkpt lat="40.688745" lon="15.2668433"><ele>248.0</ele><time>2026-04-12T12:19:44.965Z</time></trkpt><trkpt lat="40.688775" lon="15.2670467"><ele>248.0</ele><time>2026-04-12T12:19:45.964Z</time></trkpt><trkpt lat="40.6887917" lon="15.2672433"><ele>248.0</ele><time>2026-04-12T12:19:46.965Z</time></trkpt><trkpt lat="40.6887983" lon="15.267445"><ele>248.0</ele><time>2026-04-12T12:19:47.964Z</time></trkpt><trkpt lat="40.6888" lon="15.267655"><ele>250.66666666666669</ele><time>2026-04-12T12:19:48.964Z</time></trkpt><trkpt lat="40.6888133" lon="15.2678483"><ele>253.33333333333331</ele><time>2026-04-12T12:19:49.964Z</time></trkpt><trkpt lat="40.688825" lon="15.2680517"><ele>256.0</ele><time>2026-04-12T12:19:50.964Z</time></trkpt><trkpt lat="40.6888467" lon="15.2682517"><ele>258.0</ele><time>2026-04-12T12:19:51.964Z</time></trkpt><trkpt lat="40.68887" lon="15.268465"><ele>260.0</ele><time>2026-04-12T12:19:52.964Z</time></trkpt><trkpt lat="40.6888883" lon="15.2686783"><ele>262.0</ele><time>2026-04-12T12:19:53.964Z</time></trkpt><trkpt lat="40.688895" lon="15.26889"><ele>263.3333333333333</ele><time>2026-04-12T12:19:54.964Z</time></trkpt><trkpt lat="40.6889117" lon="15.2691067"><ele>264.6666666666667</ele><time>2026-04-12T12:19:55.964Z</time></trkpt><trkpt lat="40.6889183" lon="15.26933"><ele>266.0</ele><time>2026-04-12T12:19:56.964Z</time></trkpt><trkpt lat="40.6889217" lon="15.2695667"><ele>267.33333333333337</ele><time>2026-04-12T12:19:57.964Z</time></trkpt><trkpt lat="40.6889133" lon="15.2698"><ele>268.6666666666667</ele><time>2026-04-12T12:19:58.964Z</time></trkpt><trkpt lat="40.68891" lon="15.2700267"><ele>270.0</ele><time>2026-04-12T12:19:59.964Z</time></trkpt><trkpt lat="40.68892" lon="15.270255"><ele>270.0</ele><time>2026-04-12T12:20:00.964Z</time></trkpt><trkpt lat="40.68895" lon="15.2704783"><ele>270.0</ele><time>2026-04-12T12:20:01.964Z</time></trkpt><trkpt lat="40.68898" lon="15.270685"><ele>270.0</ele><time>2026-04-12T12:20:02.964Z</time></trkpt><trkpt lat="40.6890083" lon="15.2708783"><ele>270.75</ele><time>2026-04-12T12:20:03.965Z</time></trkpt><trkpt lat="40.6890283" lon="15.2710567"><ele>271.5</ele><time>2026-04-12T12:20:04.964Z</time></trkpt><trkpt lat="40.68904" lon="15.2712267"><ele>272.25</ele><time>2026-04-12T12:20:05.964Z</time></trkpt><trkpt lat="40.68904" lon="15.2714033"><ele>273.0</ele><time>2026-04-12T12:20:06.964Z</time></trkpt><trkpt lat="40.6890183" lon="15.2715667"><ele>273.5</ele><time>2026-04-12T12:20:07.964Z</time></trkpt><trkpt lat="40.6889783" lon="15.271725"><ele>274.0</ele><time>2026-04-12T12:20:08.964Z</time></trkpt><trkpt lat="40.6889117" lon="15.2718717"><ele>274.5</ele><time>2026-04-12T12:20:09.964Z</time></trkpt><trkpt lat="40.68883" lon="15.2720083"><ele>275.0</ele><time>2026-04-12T12:20:10.964Z</time></trkpt><trkpt lat="40.6887517" lon="15.2721433"><ele>275.25</ele><time>2026-04-12T12:20:11.964Z</time></trkpt><trkpt lat="40.688675" lon="15.272285"><ele>275.5</ele><time>2026-04-12T12:20:12.964Z</time></trkpt><trkpt lat="40.6886117" lon="15.2724467"><ele>275.75</ele><time>2026-04-12T12:20:13.964Z</time></trkpt><trkpt lat="40.688565" lon="15.272635"><ele>276.0</ele><time>2026-04-12T12:20:14.964Z</time></trkpt><trkpt lat="40.68854" lon="15.2728383"><ele>281.0</ele><time>2026-04-12T12:20:15.964Z</time></trkpt><trkpt lat="40.6885217" lon="15.2730533"><ele>286.0</ele><time>2026-04-12T12:20:16.964Z</time></trkpt><trkpt lat="40.6885033" lon="15.2732783"><ele>291.0</ele><time>2026-04-12T12:20:17.964Z</time></trkpt><trkpt lat="40.6884683" lon="15.2735017"><ele>292.0</ele><time>2026-04-12T12:20:18.964Z</time></trkpt><trkpt lat="40.688415" lon="15.273735"><ele>293.0</ele><time>2026-04-12T12:20:19.964Z</time></trkpt><trkpt lat="40.6883667" lon="15.273975"><ele>294.0</ele><time>2026-04-12T12:20:20.964Z</time></trkpt><trkpt lat="40.68832" lon="15.274225"><ele>294.0</ele><time>2026-04-12T12:20:21.964Z</time></trkpt><trkpt lat="40.6882783" lon="15.2744817"><ele>294.0</ele><time>2026-04-12T12:20:22.964Z</time></trkpt><trkpt lat="40.6882433" lon="15.2747267"><ele>294.0</ele><time>2026-04-12T12:20:23.964Z</time></trkpt><trkpt lat="40.6882133" lon="15.2749717"><ele>292.3333333333333</ele><time>2026-04-12T12:20:24.964Z</time></trkpt><trkpt lat="40.6881933" lon="15.2752133"><ele>290.66666666666663</ele><time>2026-04-12T12:20:25.964Z</time></trkpt><trkpt lat="40.6881617" lon="15.27544"><ele>289.0</ele><time>2026-04-12T12:20:26.964Z</time></trkpt><trkpt lat="40.6881083" lon="15.2756517"><ele>289.0</ele><time>2026-04-12T12:20:27.965Z</time></trkpt><trkpt lat="40.68804" lon="15.2758533"><ele>289.0</ele><time>2026-04-12T12:20:28.965Z</time></trkpt><trkpt lat="40.687975" lon="15.2760433"><ele>289.0</ele><time>2026-04-12T12:20:29.964Z</time></trkpt><trkpt lat="40.68792" lon="15.2762267"><ele>289.0</ele><time>2026-04-12T12:20:30.964Z</time></trkpt><trkpt lat="40.6878767" lon="15.2764033"><ele>289.0</ele><time>2026-04-12T12:20:31.965Z</time></trkpt><trkpt lat="40.687855" lon="15.2765883"><ele>289.0</ele><time>2026-04-12T12:20:32.964Z</time></trkpt><trkpt lat="40.6878417" lon="15.2767817"><ele>289.0</ele><time>2026-04-12T12:20:33.964Z</time></trkpt><trkpt lat="40.6878533" lon="15.2769933"><ele>290.0</ele><time>2026-04-12T12:20:34.964Z</time></trkpt><trkpt lat="40.6878683" lon="15.27721"><ele>291.0</ele><time>2026-04-12T12:20:35.964Z</time></trkpt><trkpt lat="40.6878783" lon="15.2774317"><ele>292.0</ele><time>2026-04-12T12:20:36.964Z</time></trkpt><trkpt lat="40.6878833" lon="15.2776367"><ele>293.0</ele><time>2026-04-12T12:20:37.964Z</time></trkpt><trkpt lat="40.6878767" lon="15.277825"><ele>294.0</ele><time>2026-04-12T12:20:38.964Z</time></trkpt><trkpt lat="40.6878383" lon="15.2779967"><ele>295.0</ele><time>2026-04-12T12:20:39.965Z</time></trkpt><trkpt lat="40.687775" lon="15.2781517"><ele>296.0</ele><time>2026-04-12T12:20:40.964Z</time></trkpt><trkpt lat="40.6876867" lon="15.2782933"><ele>298.75</ele><time>2026-04-12T12:20:41.964Z</time></trkpt><trkpt lat="40.6875817" lon="15.2784083"><ele>301.5</ele><time>2026-04-12T12:20:42.964Z</time></trkpt><trkpt lat="40.68745" lon="15.2785133"><ele>304.25</ele><time>2026-04-12T12:20:43.965Z</time></trkpt><trkpt lat="40.687315" lon="15.2786117"><ele>307.0</ele><time>2026-04-12T12:20:44.964Z</time></trkpt><trkpt lat="40.6871617" lon="15.2786883"><ele>307.0</ele><time>2026-04-12T12:20:45.964Z</time></trkpt><trkpt lat="40.6869967" lon="15.27876"><ele>307.0</ele><time>2026-04-12T12:20:46.964Z</time></trkpt><trkpt lat="40.6868433" lon="15.27884"><ele>307.0</ele><time>2026-04-12T12:20:47.964Z</time></trkpt><trkpt lat="40.6866933" lon="15.278925"><ele>308.3333333333333</ele><time>2026-04-12T12:20:48.964Z</time></trkpt><trkpt lat="40.6865467" lon="15.2790083"><ele>309.6666666666667</ele><time>2026-04-12T12:20:49.964Z</time></trkpt><trkpt lat="40.6864083" lon="15.2790967"><ele>311.0</ele><time>2026-04-12T12:20:50.964Z</time></trkpt><trkpt lat="40.6862717" lon="15.2791783"><ele>311.0</ele><time>2026-04-12T12:20:51.964Z</time></trkpt><trkpt lat="40.6861317" lon="15.2792667"><ele>311.0</ele><time>2026-04-12T12:20:52.964Z</time></trkpt><trkpt lat="40.6860017" lon="15.2793467"><ele>311.0</ele><time>2026-04-12T12:20:53.964Z</time></trkpt><trkpt lat="40.6858783" lon="15.279425"><ele>311.0</ele><time>2026-04-12T12:20:54.964Z</time></trkpt><trkpt lat="40.6857667" lon="15.2795033"><ele>312.5</ele><time>2026-04-12T12:20:55.964Z</time></trkpt><trkpt lat="40.68566" lon="15.2795867"><ele>314.0</ele><time>2026-04-12T12:20:56.965Z</time></trkpt><trkpt lat="40.685555" lon="15.2796583"><ele>315.5</ele><time>2026-04-12T12:20:57.964Z</time></trkpt><trkpt lat="40.6854517" lon="15.2797267"><ele>317.0</ele><time>2026-04-12T12:20:58.964Z</time></trkpt><trkpt lat="40.68535" lon="15.2797983"><ele>318.6</ele><time>2026-04-12T12:20:59.965Z</time></trkpt><trkpt lat="40.68525" lon="15.2798667"><ele>320.2</ele><time>2026-04-12T12:21:00.964Z</time></trkpt><trkpt lat="40.6851533" lon="15.279935"><ele>321.8</ele><time>2026-04-12T12:21:01.964Z</time></trkpt><trkpt lat="40.6850517" lon="15.2800033"><ele>323.4</ele><time>2026-04-12T12:21:02.964Z</time></trkpt><trkpt lat="40.6849533" lon="15.2800717"><ele>325.0</ele><time>2026-04-12T12:21:03.964Z</time></trkpt><trkpt lat="40.6848533" lon="15.2801433"><ele>325.0</ele><time>2026-04-12T12:21:04.964Z</time></trkpt><trkpt lat="40.684755" lon="15.280215"><ele>325.0</ele><time>2026-04-12T12:21:05.964Z</time></trkpt><trkpt lat="40.6846517" lon="15.2802817"><ele>325.0</ele><time>2026-04-12T12:21:06.964Z</time></trkpt><trkpt lat="40.6845567" lon="15.2803517"><ele>325.0</ele><time>2026-04-12T12:21:07.964Z</time></trkpt><trkpt lat="40.684465" lon="15.28042"><ele>325.0</ele><time>2026-04-12T12:21:08.964Z</time></trkpt><trkpt lat="40.6843667" lon="15.2804817"><ele>326.0</ele><time>2026-04-12T12:21:09.964Z</time></trkpt><trkpt lat="40.6842583" lon="15.2805567"><ele>327.0</ele><time>2026-04-12T12:21:10.964Z</time></trkpt><trkpt lat="40.6841617" lon="15.2806267"><ele>328.0</ele><time>2026-04-12T12:21:11.964Z</time></trkpt><trkpt lat="40.6840633" lon="15.2806917"><ele>329.0</ele><time>2026-04-12T12:21:12.964Z</time></trkpt><trkpt lat="40.683965" lon="15.2807633"><ele>329.0</ele><time>2026-04-12T12:21:13.964Z</time></trkpt><trkpt lat="40.68387" lon="15.2808283"><ele>329.0</ele><time>2026-04-12T12:21:14.964Z</time></trkpt><trkpt lat="40.68378" lon="15.28089"><ele>329.0</ele><time>2026-04-12T12:21:15.964Z</time></trkpt><trkpt lat="40.68369" lon="15.28095"><ele>329.0</ele><time>2026-04-12T12:21:16.963Z</time></trkpt><trkpt lat="40.6835983" lon="15.281015"><ele>329.0</ele><time>2026-04-12T12:21:17.963Z</time></trkpt><trkpt lat="40.6835033" lon="15.2810867"><ele>329.79999999999995</ele><time>2026-04-12T12:21:18.963Z</time></trkpt><trkpt lat="40.6834117" lon="15.281165"><ele>330.59999999999997</ele><time>2026-04-12T12:21:19.963Z</time></trkpt><trkpt lat="40.6833167" lon="15.28125"><ele>331.4</ele><time>2026-04-12T12:21:20.963Z</time></trkpt><trkpt lat="40.6832217" lon="15.2813333"><ele>332.2</ele><time>2026-04-12T12:21:21.963Z</time></trkpt><trkpt lat="40.6831283" lon="15.2814117"><ele>333.0</ele><time>2026-04-12T12:21:22.963Z</time></trkpt><trkpt lat="40.6830317" lon="15.2814867"><ele>333.0</ele><time>2026-04-12T12:21:23.964Z</time></trkpt><trkpt lat="40.6829333" lon="15.2815533"><ele>333.0</ele><time>2026-04-12T12:21:24.964Z</time></trkpt><trkpt lat="40.6828267" lon="15.2816167"><ele>333.0</ele><time>2026-04-12T12:21:25.963Z</time></trkpt><trkpt lat="40.6827283" lon="15.281685"><ele>333.0</ele><time>2026-04-12T12:21:26.963Z</time></trkpt><trkpt lat="40.6826367" lon="15.2817533"><ele>333.0</ele><time>2026-04-12T12:21:27.963Z</time></trkpt><trkpt lat="40.682555" lon="15.28181"><ele>335.0</ele><time>2026-04-12T12:21:28.963Z</time></trkpt><trkpt lat="40.6824767" lon="15.2818467"><ele>337.0</ele><time>2026-04-12T12:21:29.963Z</time></trkpt><trkpt lat="40.6824" lon="15.2818183"><ele>339.0</ele><time>2026-04-12T12:21:30.963Z</time></trkpt><trkpt lat="40.682345" lon="15.2817633"><ele>341.0</ele><time>2026-04-12T12:21:31.964Z</time></trkpt><trkpt lat="40.6823267" lon="15.2816783"><ele>343.0</ele><time>2026-04-12T12:21:32.963Z</time></trkpt><trkpt lat="40.68236" lon="15.2815867"><ele>345.0</ele><time>2026-04-12T12:21:33.963Z</time></trkpt><trkpt lat="40.6824167" lon="15.2815083"><ele>346.6</ele><time>2026-04-12T12:21:34.963Z</time></trkpt><trkpt lat="40.6824883" lon="15.2814233"><ele>348.2</ele><time>2026-04-12T12:21:35.963Z</time></trkpt><trkpt lat="40.6825667" lon="15.28133"><ele>349.79999999999995</ele><time>2026-04-12T12:21:36.963Z</time></trkpt><trkpt lat="40.682635" lon="15.2812333"><ele>351.4</ele><time>2026-04-12T12:21:37.963Z</time></trkpt><trkpt lat="40.682665" lon="15.2811333"><ele>353.0</ele><time>2026-04-12T12:21:38.964Z</time></trkpt><trkpt lat="40.682655" lon="15.281035"><ele>353.0</ele><time>2026-04-12T12:21:39.964Z</time></trkpt><trkpt lat="40.6826167" lon="15.2809567"><ele>353.0</ele><time>2026-04-12T12:21:40.963Z</time></trkpt><trkpt lat="40.6825467" lon="15.2809333"><ele>353.0</ele><time>2026-04-12T12:21:41.963Z</time></trkpt><trkpt lat="40.6824683" lon="15.28095"><ele>353.0</ele><time>2026-04-12T12:21:42.963Z</time></trkpt><trkpt lat="40.6823917" lon="15.2810067"><ele>353.0</ele><time>2026-04-12T12:21:43.963Z</time></trkpt><trkpt lat="40.682315" lon="15.2810767"><ele>353.0</ele><time>2026-04-12T12:21:44.963Z</time></trkpt><trkpt lat="40.6822433" lon="15.2811517"><ele>353.0</ele><time>2026-04-12T12:21:45.963Z</time></trkpt><trkpt lat="40.682165" lon="15.2812233"><ele>353.0</ele><time>2026-04-12T12:21:46.963Z</time></trkpt><trkpt lat="40.6820733" lon="15.2812833"><ele>353.0</ele><time>2026-04-12T12:21:47.963Z</time></trkpt><trkpt lat="40.6819733" lon="15.28135"><ele>353.0</ele><time>2026-04-12T12:21:48.963Z</time></trkpt><trkpt lat="40.681875" lon="15.2814167"><ele>353.0</ele><time>2026-04-12T12:21:49.963Z</time></trkpt><trkpt lat="40.68178" lon="15.2815"><ele>354.5</ele><time>2026-04-12T12:21:50.963Z</time></trkpt><trkpt lat="40.6816783" lon="15.28159"><ele>356.0</ele><time>2026-04-12T12:21:51.963Z</time></trkpt><trkpt lat="40.6815733" lon="15.2816883"><ele>357.5</ele><time>2026-04-12T12:21:52.963Z</time></trkpt><trkpt lat="40.6814683" lon="15.2818"><ele>359.0</ele><time>2026-04-12T12:21:53.963Z</time></trkpt><trkpt lat="40.681365" lon="15.2819217"><ele>359.0</ele><time>2026-04-12T12:21:54.963Z</time></trkpt><trkpt lat="40.6812717" lon="15.2820567"><ele>359.0</ele><time>2026-04-12T12:21:55.963Z</time></trkpt><trkpt lat="40.6811967" lon="15.2822"><ele>359.0</ele><time>2026-04-12T12:21:56.964Z</time></trkpt><trkpt lat="40.6811233" lon="15.2823417"><ele>359.0</ele><time>2026-04-12T12:21:57.963Z</time></trkpt><trkpt lat="40.6810567" lon="15.2824717"><ele>360.4</ele><time>2026-04-12T12:21:58.963Z</time></trkpt><trkpt lat="40.680995" lon="15.282605"><ele>361.79999999999995</ele><time>2026-04-12T12:21:59.963Z</time></trkpt><trkpt lat="40.68095" lon="15.2827383"><ele>363.20000000000005</ele><time>2026-04-12T12:22:00.964Z</time></trkpt><trkpt lat="40.6809167" lon="15.2828733"><ele>364.6</ele><time>2026-04-12T12:22:01.963Z</time></trkpt><trkpt lat="40.6808983" lon="15.2830167"><ele>366.0</ele><time>2026-04-12T12:22:02.963Z</time></trkpt><trkpt lat="40.68089" lon="15.2831567"><ele>366.25</ele><time>2026-04-12T12:22:03.963Z</time></trkpt><trkpt lat="40.6808917" lon="15.2833033"><ele>366.5</ele><time>2026-04-12T12:22:04.963Z</time></trkpt><trkpt lat="40.6809033" lon="15.283455"><ele>366.75</ele><time>2026-04-12T12:22:05.963Z</time></trkpt><trkpt lat="40.6809083" lon="15.28361"><ele>367.0</ele><time>2026-04-12T12:22:06.963Z</time></trkpt><trkpt lat="40.6809183" lon="15.2837667"><ele>367.0</ele><time>2026-04-12T12:22:07.963Z</time></trkpt><trkpt lat="40.6809317" lon="15.283925"><ele>367.0</ele><time>2026-04-12T12:22:08.963Z</time></trkpt><trkpt lat="40.6809433" lon="15.2840783"><ele>367.0</ele><time>2026-04-12T12:22:09.963Z</time></trkpt><trkpt lat="40.68095" lon="15.2842367"><ele>367.0</ele><time>2026-04-12T12:22:10.963Z</time></trkpt><trkpt lat="40.6809367" lon="15.284395"><ele>367.5</ele><time>2026-04-12T12:22:11.963Z</time></trkpt><trkpt lat="40.6809383" lon="15.2845467"><ele>368.0</ele><time>2026-04-12T12:22:12.963Z</time></trkpt><trkpt lat="40.6809383" lon="15.2846983"><ele>368.5</ele><time>2026-04-12T12:22:13.963Z</time></trkpt><trkpt lat="40.68095" lon="15.2848467"><ele>369.0</ele><time>2026-04-12T12:22:14.963Z</time></trkpt><trkpt lat="40.6809567" lon="15.2850017"><ele>369.79999999999995</ele><time>2026-04-12T12:22:15.963Z</time></trkpt><trkpt lat="40.68095" lon="15.285155"><ele>370.59999999999997</ele><time>2026-04-12T12:22:16.963Z</time></trkpt><trkpt lat="40.680945" lon="15.2853033"><ele>371.4</ele><time>2026-04-12T12:22:17.963Z</time></trkpt><trkpt lat="40.680935" lon="15.285445"><ele>372.2</ele><time>2026-04-12T12:22:18.963Z</time></trkpt><trkpt lat="40.6809067" lon="15.2855833"><ele>373.0</ele><time>2026-04-12T12:22:19.963Z</time></trkpt><trkpt lat="40.6808767" lon="15.2857333"><ele>374.5</ele><time>2026-04-12T12:22:20.963Z</time></trkpt><trkpt lat="40.6808317" lon="15.2858783"><ele>376.0</ele><time>2026-04-12T12:22:21.963Z</time></trkpt><trkpt lat="40.6807883" lon="15.2860267"><ele>377.5</ele><time>2026-04-12T12:22:22.963Z</time></trkpt><trkpt lat="40.6807383" lon="15.2861733"><ele>379.0</ele><time>2026-04-12T12:22:23.963Z</time></trkpt><trkpt lat="40.6806717" lon="15.2863267"><ele>380.0</ele><time>2026-04-12T12:22:24.963Z</time></trkpt><trkpt lat="40.68061" lon="15.286475"><ele>381.0</ele><time>2026-04-12T12:22:25.963Z</time></trkpt><trkpt lat="40.680545" lon="15.286625"><ele>382.0</ele><time>2026-04-12T12:22:26.964Z</time></trkpt><trkpt lat="40.680485" lon="15.286755"><ele>383.0</ele><time>2026-04-12T12:22:27.963Z</time></trkpt><trkpt lat="40.6804233" lon="15.2868767"><ele>383.0</ele><time>2026-04-12T12:22:28.963Z</time></trkpt><trkpt lat="40.680375" lon="15.2870017"><ele>383.0</ele><time>2026-04-12T12:22:29.963Z</time></trkpt><trkpt lat="40.6803183" lon="15.2871233"><ele>383.0</ele><time>2026-04-12T12:22:30.963Z</time></trkpt><trkpt lat="40.680275" lon="15.2872433"><ele>383.0</ele><time>2026-04-12T12:22:31.963Z</time></trkpt><trkpt lat="40.6802317" lon="15.2873633"><ele>383.0</ele><time>2026-04-12T12:22:32.963Z</time></trkpt><trkpt lat="40.68019" lon="15.2874733"><ele>383.6666666666667</ele><time>2026-04-12T12:22:33.963Z</time></trkpt><trkpt lat="40.6801517" lon="15.2875867"><ele>384.33333333333337</ele><time>2026-04-12T12:22:34.963Z</time></trkpt><trkpt lat="40.6801167" lon="15.2876967"><ele>385.0</ele><time>2026-04-12T12:22:35.963Z</time></trkpt><trkpt lat="40.6800867" lon="15.2877983"><ele>385.6666666666667</ele><time>2026-04-12T12:22:36.963Z</time></trkpt><trkpt lat="40.6800533" lon="15.2878983"><ele>386.3333333333333</ele><time>2026-04-12T12:22:37.963Z</time></trkpt><trkpt lat="40.680025" lon="15.2879983"><ele>387.0</ele><time>2026-04-12T12:22:38.963Z</time></trkpt><trkpt lat="40.6799933" lon="15.2881"><ele>387.8</ele><time>2026-04-12T12:22:39.963Z</time></trkpt><trkpt lat="40.679975" lon="15.2882083"><ele>388.6</ele><time>2026-04-12T12:22:40.963Z</time></trkpt><trkpt lat="40.67995" lon="15.288325"><ele>389.40000000000003</ele><time>2026-04-12T12:22:41.963Z</time></trkpt><trkpt lat="40.6799367" lon="15.2884433"><ele>390.20000000000005</ele><time>2026-04-12T12:22:42.963Z</time></trkpt><trkpt lat="40.6799367" lon="15.2885667"><ele>391.0</ele><time>2026-04-12T12:22:43.963Z</time></trkpt><trkpt lat="40.679945" lon="15.288685"><ele>391.0</ele><time>2026-04-12T12:22:44.963Z</time></trkpt><trkpt lat="40.6799617" lon="15.2888117"><ele>391.0</ele><time>2026-04-12T12:22:45.963Z</time></trkpt><trkpt lat="40.67998" lon="15.288935"><ele>391.0</ele><time>2026-04-12T12:22:46.964Z</time></trkpt><trkpt lat="40.6799817" lon="15.2890517"><ele>391.0</ele><time>2026-04-12T12:22:47.963Z</time></trkpt><trkpt lat="40.67999" lon="15.2891667"><ele>391.0</ele><time>2026-04-12T12:22:48.963Z</time></trkpt><trkpt lat="40.679985" lon="15.2892817"><ele>391.6</ele><time>2026-04-12T12:22:49.963Z</time></trkpt><trkpt lat="40.67999" lon="15.2893983"><ele>392.20000000000005</ele><time>2026-04-12T12:22:50.963Z</time></trkpt><trkpt lat="40.6799933" lon="15.2894967"><ele>392.79999999999995</ele><time>2026-04-12T12:22:51.963Z</time></trkpt><trkpt lat="40.680005" lon="15.2896517"><ele>393.4</ele><time>2026-04-12T12:22:53.963Z</time></trkpt><trkpt lat="40.6799983" lon="15.2897783"><ele>394.0</ele><time>2026-04-12T12:22:55.964Z</time></trkpt><trkpt lat="40.68" lon="15.2899483"><ele>394.6666666666667</ele><time>2026-04-12T12:22:57.963Z</time></trkpt><trkpt lat="40.68001" lon="15.29006"><ele>395.33333333333337</ele><time>2026-04-12T12:22:58.963Z</time></trkpt><trkpt lat="40.680025" lon="15.2901733"><ele>396.0</ele><time>2026-04-12T12:22:59.963Z</time></trkpt><trkpt lat="40.6800367" lon="15.2902633"><ele>396.66666666666663</ele><time>2026-04-12T12:23:00.963Z</time></trkpt><trkpt lat="40.680045" lon="15.29035"><ele>397.3333333333333</ele><time>2026-04-12T12:23:02.963Z</time></trkpt><trkpt lat="40.680085" lon="15.29044"><ele>398.0</ele><time>2026-04-12T12:24:42.963Z</time></trkpt><trkpt lat="40.6801433" lon="15.2905633"><ele>397.99999999999994</ele><time>2026-04-12T12:24:44.963Z</time></trkpt><trkpt lat="40.68018" lon="15.2906367"><ele>398.0</ele><time>2026-04-12T12:24:45.963Z</time></trkpt><trkpt lat="40.680225" lon="15.2907133"><ele>398.0</ele><time>2026-04-12T12:24:46.963Z</time></trkpt><trkpt lat="40.680285" lon="15.29079"><ele>398.0</ele><time>2026-04-12T12:24:47.963Z</time></trkpt><trkpt lat="40.6803367" lon="15.290865"><ele>397.99999999999994</ele><time>2026-04-12T12:24:48.963Z</time></trkpt><trkpt lat="40.6803917" lon="15.2909417"><ele>398.0</ele><time>2026-04-12T12:24:49.963Z</time></trkpt><trkpt lat="40.6804517" lon="15.29102"><ele>398.2</ele><time>2026-04-12T12:24:50.963Z</time></trkpt><trkpt lat="40.6805067" lon="15.2911067"><ele>398.4</ele><time>2026-04-12T12:24:51.963Z</time></trkpt><trkpt lat="40.6805633" lon="15.29121"><ele>398.59999999999997</ele><time>2026-04-12T12:24:52.963Z</time></trkpt><trkpt lat="40.6806217" lon="15.2913217"><ele>398.79999999999995</ele><time>2026-04-12T12:24:53.963Z</time></trkpt><trkpt lat="40.6806633" lon="15.2914367"><ele>399.0</ele><time>2026-04-12T12:24:54.963Z</time></trkpt><trkpt lat="40.6807083" lon="15.29156"><ele>399.0</ele><time>2026-04-12T12:24:55.963Z</time></trkpt><trkpt lat="40.68074" lon="15.2916817"><ele>399.0</ele><time>2026-04-12T12:24:56.963Z</time></trkpt><trkpt lat="40.6807717" lon="15.2918067"><ele>399.0</ele><time>2026-04-12T12:24:57.963Z</time></trkpt><trkpt lat="40.6808017" lon="15.291935"><ele>399.0</ele><time>2026-04-12T12:24:58.963Z</time></trkpt><trkpt lat="40.6808383" lon="15.2920617"><ele>399.0</ele><time>2026-04-12T12:24:59.963Z</time></trkpt><trkpt lat="40.6808683" lon="15.2921933"><ele>398.4</ele><time>2026-04-12T12:25:00.963Z</time></trkpt><trkpt lat="40.6809033" lon="15.292325"><ele>397.79999999999995</ele><time>2026-04-12T12:25:01.963Z</time></trkpt><trkpt lat="40.6809267" lon="15.2924617"><ele>397.20000000000005</ele><time>2026-04-12T12:25:02.963Z</time></trkpt><trkpt lat="40.68096" lon="15.2926017"><ele>396.6</ele><time>2026-04-12T12:25:03.963Z</time></trkpt><trkpt lat="40.68099" lon="15.29274"><ele>396.0</ele><time>2026-04-12T12:25:04.963Z</time></trkpt><trkpt lat="40.6810167" lon="15.2928833"><ele>396.0</ele><time>2026-04-12T12:25:05.963Z</time></trkpt><trkpt lat="40.68104" lon="15.2930283"><ele>396.0</ele><time>2026-04-12T12:25:06.963Z</time></trkpt><trkpt lat="40.6810633" lon="15.2931783"><ele>396.0</ele><time>2026-04-12T12:25:07.963Z</time></trkpt><trkpt lat="40.68108" lon="15.293335"><ele>396.0</ele><time>2026-04-12T12:25:08.963Z</time></trkpt><trkpt lat="40.6811017" lon="15.293485"><ele>394.25</ele><time>2026-04-12T12:25:09.963Z</time></trkpt><trkpt lat="40.6811317" lon="15.29364"><ele>392.5</ele><time>2026-04-12T12:25:10.963Z</time></trkpt><trkpt lat="40.68116" lon="15.2937917"><ele>390.75</ele><time>2026-04-12T12:25:11.963Z</time></trkpt><trkpt lat="40.6812017" lon="15.29394"><ele>389.0</ele><time>2026-04-12T12:25:12.963Z</time></trkpt><trkpt lat="40.681255" lon="15.2940767"><ele>389.0</ele><time>2026-04-12T12:25:13.963Z</time></trkpt><trkpt lat="40.6813167" lon="15.29421"><ele>389.0</ele><time>2026-04-12T12:25:14.962Z</time></trkpt><trkpt lat="40.68137" lon="15.2943417"><ele>389.0</ele><time>2026-04-12T12:25:15.962Z</time></trkpt><trkpt lat="40.68142" lon="15.294475"><ele>389.0</ele><time>2026-04-12T12:25:16.962Z</time></trkpt><trkpt lat="40.6814617" lon="15.2946133"><ele>390.0</ele><time>2026-04-12T12:25:17.962Z</time></trkpt><trkpt lat="40.6815" lon="15.294765"><ele>391.0</ele><time>2026-04-12T12:25:18.962Z</time></trkpt><trkpt lat="40.68152" lon="15.2949217"><ele>392.0</ele><time>2026-04-12T12:25:19.962Z</time></trkpt><trkpt lat="40.6815217" lon="15.2950833"><ele>393.0</ele><time>2026-04-12T12:25:20.962Z</time></trkpt><trkpt lat="40.6815067" lon="15.2952433"><ele>393.0</ele><time>2026-04-12T12:25:21.962Z</time></trkpt><trkpt lat="40.68149" lon="15.2954133"><ele>393.0</ele><time>2026-04-12T12:25:22.962Z</time></trkpt><trkpt lat="40.6814717" lon="15.2955767"><ele>393.0</ele><time>2026-04-12T12:25:23.962Z</time></trkpt><trkpt lat="40.6814583" lon="15.29574"><ele>393.0</ele><time>2026-04-12T12:25:24.962Z</time></trkpt><trkpt lat="40.681455" lon="15.2959017"><ele>394.25</ele><time>2026-04-12T12:25:25.962Z</time></trkpt><trkpt lat="40.68145" lon="15.2960633"><ele>395.5</ele><time>2026-04-12T12:25:26.962Z</time></trkpt><trkpt lat="40.6814483" lon="15.2962267"><ele>396.75</ele><time>2026-04-12T12:25:27.962Z</time></trkpt><trkpt lat="40.68144" lon="15.2963883"><ele>398.0</ele><time>2026-04-12T12:25:28.962Z</time></trkpt><trkpt lat="40.6814367" lon="15.29655"><ele>399.25</ele><time>2026-04-12T12:25:29.962Z</time></trkpt><trkpt lat="40.68142" lon="15.2967183"><ele>400.5</ele><time>2026-04-12T12:25:30.962Z</time></trkpt><trkpt lat="40.6813983" lon="15.296885"><ele>401.75</ele><time>2026-04-12T12:25:31.962Z</time></trkpt><trkpt lat="40.6813667" lon="15.29705"><ele>403.0</ele><time>2026-04-12T12:25:32.962Z</time></trkpt><trkpt lat="40.68132" lon="15.2972133"><ele>404.0</ele><time>2026-04-12T12:25:33.963Z</time></trkpt><trkpt lat="40.6812733" lon="15.297375"><ele>405.0</ele><time>2026-04-12T12:25:34.962Z</time></trkpt><trkpt lat="40.6812333" lon="15.29754"><ele>406.0</ele><time>2026-04-12T12:25:35.962Z</time></trkpt><trkpt lat="40.6811933" lon="15.2977117"><ele>407.0</ele><time>2026-04-12T12:25:36.962Z</time></trkpt><trkpt lat="40.6811567" lon="15.2978917"><ele>407.0</ele><time>2026-04-12T12:25:37.962Z</time></trkpt><trkpt lat="40.6811283" lon="15.2980767"><ele>407.0</ele><time>2026-04-12T12:25:38.962Z</time></trkpt><trkpt lat="40.6811" lon="15.2982617"><ele>407.0</ele><time>2026-04-12T12:25:39.962Z</time></trkpt><trkpt lat="40.6810733" lon="15.298445"><ele>407.0</ele><time>2026-04-12T12:25:40.962Z</time></trkpt><trkpt lat="40.6810517" lon="15.29863"><ele>408.0</ele><time>2026-04-12T12:25:41.962Z</time></trkpt><trkpt lat="40.68103" lon="15.2988117"><ele>409.0</ele><time>2026-04-12T12:25:42.962Z</time></trkpt><trkpt lat="40.68102" lon="15.299"><ele>410.0</ele><time>2026-04-12T12:25:43.962Z</time></trkpt><trkpt lat="40.681025" lon="15.299185"><ele>411.0</ele><time>2026-04-12T12:25:44.962Z</time></trkpt><trkpt lat="40.6810367" lon="15.2993667"><ele>412.0</ele><time>2026-04-12T12:25:45.962Z</time></trkpt><trkpt lat="40.6810533" lon="15.2995467"><ele>413.0</ele><time>2026-04-12T12:25:46.962Z</time></trkpt><trkpt lat="40.6810767" lon="15.2997233"><ele>414.0</ele><time>2026-04-12T12:25:47.963Z</time></trkpt><trkpt lat="40.6811" lon="15.2998933"><ele>415.0</ele><time>2026-04-12T12:25:48.962Z</time></trkpt><trkpt lat="40.68112" lon="15.30006"><ele>415.5</ele><time>2026-04-12T12:25:49.962Z</time></trkpt><trkpt lat="40.6811317" lon="15.3002233"><ele>416.0</ele><time>2026-04-12T12:25:50.962Z</time></trkpt><trkpt lat="40.6811467" lon="15.3003833"><ele>416.5</ele><time>2026-04-12T12:25:51.962Z</time></trkpt><trkpt lat="40.6811383" lon="15.300545"><ele>417.0</ele><time>2026-04-12T12:25:52.962Z</time></trkpt><trkpt lat="40.68112" lon="15.3007033"><ele>419.25</ele><time>2026-04-12T12:25:53.962Z</time></trkpt><trkpt lat="40.6810867" lon="15.3008717"><ele>421.5</ele><time>2026-04-12T12:25:54.962Z</time></trkpt><trkpt lat="40.6810617" lon="15.301045"><ele>423.75</ele><time>2026-04-12T12:25:55.962Z</time></trkpt><trkpt lat="40.6810417" lon="15.3012217"><ele>426.0</ele><time>2026-04-12T12:25:56.963Z</time></trkpt><trkpt lat="40.6810183" lon="15.3013967"><ele>427.0</ele><time>2026-04-12T12:25:57.962Z</time></trkpt><trkpt lat="40.680995" lon="15.3015733"><ele>428.0</ele><time>2026-04-12T12:25:58.962Z</time></trkpt><trkpt lat="40.6809683" lon="15.301745"><ele>429.0</ele><time>2026-04-12T12:25:59.962Z</time></trkpt><trkpt lat="40.6809483" lon="15.3019183"><ele>430.0</ele><time>2026-04-12T12:26:00.963Z</time></trkpt><trkpt lat="40.680925" lon="15.3020983"><ele>431.75</ele><time>2026-04-12T12:26:01.962Z</time></trkpt><trkpt lat="40.6809" lon="15.3022817"><ele>433.5</ele><time>2026-04-12T12:26:02.962Z</time></trkpt><trkpt lat="40.6808767" lon="15.3024733"><ele>435.25</ele><time>2026-04-12T12:26:03.962Z</time></trkpt><trkpt lat="40.6808533" lon="15.302665"><ele>437.0</ele><time>2026-04-12T12:26:04.962Z</time></trkpt><trkpt lat="40.6808217" lon="15.302855"><ele>437.0</ele><time>2026-04-12T12:26:05.962Z</time></trkpt><trkpt lat="40.6807883" lon="15.3030183"><ele>437.0</ele><time>2026-04-12T12:26:06.962Z</time></trkpt><trkpt lat="40.6807367" lon="15.3031567"><ele>437.0</ele><time>2026-04-12T12:26:07.963Z</time></trkpt><trkpt lat="40.6806783" lon="15.3032917"><ele>437.0</ele><time>2026-04-12T12:26:08.962Z</time></trkpt><trkpt lat="40.6806083" lon="15.3034083"><ele>438.0</ele><time>2026-04-12T12:26:09.962Z</time></trkpt><trkpt lat="40.6805333" lon="15.30353"><ele>439.0</ele><time>2026-04-12T12:26:10.962Z</time></trkpt><trkpt lat="40.6804517" lon="15.303655"><ele>440.0</ele><time>2026-04-12T12:26:11.962Z</time></trkpt><trkpt lat="40.6803683" lon="15.3037883"><ele>441.0</ele><time>2026-04-12T12:26:12.963Z</time></trkpt><trkpt lat="40.6802883" lon="15.303925"><ele>442.75</ele><time>2026-04-12T12:26:13.962Z</time></trkpt><trkpt lat="40.6802133" lon="15.304055"><ele>444.5</ele><time>2026-04-12T12:26:14.962Z</time></trkpt><trkpt lat="40.6801383" lon="15.30419"><ele>446.25</ele><time>2026-04-12T12:26:15.962Z</time></trkpt><trkpt lat="40.6800667" lon="15.3043183"><ele>448.0</ele><time>2026-04-12T12:26:16.962Z</time></trkpt><trkpt lat="40.6799967" lon="15.30446"><ele>448.0</ele><time>2026-04-12T12:26:17.962Z</time></trkpt><trkpt lat="40.6799367" lon="15.3045917"><ele>448.0</ele><time>2026-04-12T12:26:18.962Z</time></trkpt><trkpt lat="40.6798683" lon="15.3047233"><ele>448.0</ele><time>2026-04-12T12:26:19.962Z</time></trkpt><trkpt lat="40.6798117" lon="15.3048567"><ele>448.0</ele><time>2026-04-12T12:26:20.963Z</time></trkpt><trkpt lat="40.6797567" lon="15.30499"><ele>448.75</ele><time>2026-04-12T12:26:21.962Z</time></trkpt><trkpt lat="40.6797067" lon="15.3051267"><ele>449.5</ele><time>2026-04-12T12:26:22.963Z</time></trkpt><trkpt lat="40.679655" lon="15.3052633"><ele>450.25</ele><time>2026-04-12T12:26:23.962Z</time></trkpt><trkpt lat="40.6796033" lon="15.3054"><ele>451.0</ele><time>2026-04-12T12:26:24.962Z</time></trkpt><trkpt lat="40.6795517" lon="15.3055283"><ele>451.25</ele><time>2026-04-12T12:26:25.962Z</time></trkpt><trkpt lat="40.679495" lon="15.305655"><ele>451.5</ele><time>2026-04-12T12:26:26.962Z</time></trkpt><trkpt lat="40.67944" lon="15.3057933"><ele>451.75</ele><time>2026-04-12T12:26:27.962Z</time></trkpt><trkpt lat="40.6793883" lon="15.3059283"><ele>452.0</ele><time>2026-04-12T12:26:28.962Z</time></trkpt><trkpt lat="40.6793383" lon="15.3060767"><ele>452.0</ele><time>2026-04-12T12:26:29.963Z</time></trkpt><trkpt lat="40.6793017" lon="15.306225"><ele>452.0</ele><time>2026-04-12T12:26:30.962Z</time></trkpt><trkpt lat="40.679255" lon="15.30638"><ele>452.0</ele><time>2026-04-12T12:26:31.962Z</time></trkpt><trkpt lat="40.6792283" lon="15.3065383"><ele>452.0</ele><time>2026-04-12T12:26:32.962Z</time></trkpt><trkpt lat="40.679205" lon="15.306695"><ele>452.5</ele><time>2026-04-12T12:26:33.962Z</time></trkpt><trkpt lat="40.679185" lon="15.306855"><ele>453.0</ele><time>2026-04-12T12:26:34.962Z</time></trkpt><trkpt lat="40.6791717" lon="15.3070183"><ele>453.5</ele><time>2026-04-12T12:26:35.962Z</time></trkpt><trkpt lat="40.6791583" lon="15.3071783"><ele>454.0</ele><time>2026-04-12T12:26:36.962Z</time></trkpt><trkpt lat="40.6791483" lon="15.3073383"><ele>454.5</ele><time>2026-04-12T12:26:37.962Z</time></trkpt><trkpt lat="40.6791367" lon="15.3074933"><ele>455.0</ele><time>2026-04-12T12:26:38.962Z</time></trkpt><trkpt lat="40.6791133" lon="15.307645"><ele>455.5</ele><time>2026-04-12T12:26:39.962Z</time></trkpt><trkpt lat="40.6790833" lon="15.3077933"><ele>456.0</ele><time>2026-04-12T12:26:40.962Z</time></trkpt><trkpt lat="40.6790583" lon="15.3079517"><ele>456.25</ele><time>2026-04-12T12:26:41.962Z</time></trkpt><trkpt lat="40.67903" lon="15.3080983"><ele>456.5</ele><time>2026-04-12T12:26:42.962Z</time></trkpt><trkpt lat="40.6790033" lon="15.308245"><ele>456.75</ele><time>2026-04-12T12:26:43.962Z</time></trkpt><trkpt lat="40.6789783" lon="15.3083933"><ele>457.0</ele><time>2026-04-12T12:26:44.962Z</time></trkpt><trkpt lat="40.6789417" lon="15.308545"><ele>457.0</ele><time>2026-04-12T12:26:45.962Z</time></trkpt><trkpt lat="40.6789083" lon="15.3086983"><ele>457.0</ele><time>2026-04-12T12:26:46.962Z</time></trkpt><trkpt lat="40.678885" lon="15.30885"><ele>457.0</ele><time>2026-04-12T12:26:47.962Z</time></trkpt><trkpt lat="40.6788717" lon="15.3090017"><ele>457.0</ele><time>2026-04-12T12:26:48.962Z</time></trkpt><trkpt lat="40.6788783" lon="15.309155"><ele>457.0</ele><time>2026-04-12T12:26:49.962Z</time></trkpt><trkpt lat="40.6788933" lon="15.3093117"><ele>457.0</ele><time>2026-04-12T12:26:50.962Z</time></trkpt><trkpt lat="40.6789167" lon="15.3094683"><ele>457.0</ele><time>2026-04-12T12:26:51.962Z</time></trkpt><trkpt lat="40.6789483" lon="15.30963"><ele>457.0</ele><time>2026-04-12T12:26:52.962Z</time></trkpt><trkpt lat="40.67898" lon="15.30979"><ele>456.5</ele><time>2026-04-12T12:26:53.962Z</time></trkpt><trkpt lat="40.6790067" lon="15.3099483"><ele>456.0</ele><time>2026-04-12T12:26:54.962Z</time></trkpt><trkpt lat="40.6790317" lon="15.3100967"><ele>455.5</ele><time>2026-04-12T12:26:55.962Z</time></trkpt><trkpt lat="40.6790517" lon="15.310235"><ele>455.0</ele><time>2026-04-12T12:26:56.962Z</time></trkpt><trkpt lat="40.6790767" lon="15.3103717"><ele>455.0</ele><time>2026-04-12T12:26:57.962Z</time></trkpt><trkpt lat="40.6790983" lon="15.3105"><ele>455.0</ele><time>2026-04-12T12:26:58.963Z</time></trkpt><trkpt lat="40.67911" lon="15.3106217"><ele>455.0</ele><time>2026-04-12T12:26:59.962Z</time></trkpt><trkpt lat="40.6791183" lon="15.3107383"><ele>455.0</ele><time>2026-04-12T12:27:00.962Z</time></trkpt><trkpt lat="40.6791317" lon="15.3108617"><ele>455.0</ele><time>2026-04-12T12:27:01.962Z</time></trkpt><trkpt lat="40.679155" lon="15.3109817"><ele>454.4</ele><time>2026-04-12T12:27:02.962Z</time></trkpt><trkpt lat="40.679175" lon="15.31111"><ele>453.8</ele><time>2026-04-12T12:27:03.962Z</time></trkpt><trkpt lat="40.6791983" lon="15.3112483"><ele>453.20000000000005</ele><time>2026-04-12T12:27:04.962Z</time></trkpt><trkpt lat="40.6792217" lon="15.311395"><ele>452.6</ele><time>2026-04-12T12:27:05.962Z</time></trkpt><trkpt lat="40.6792483" lon="15.3115467"><ele>452.0</ele><time>2026-04-12T12:27:06.962Z</time></trkpt><trkpt lat="40.679275" lon="15.3117083"><ele>451.0</ele><time>2026-04-12T12:27:07.962Z</time></trkpt><trkpt lat="40.6793233" lon="15.3118667"><ele>450.0</ele><time>2026-04-12T12:27:08.962Z</time></trkpt><trkpt lat="40.67938" lon="15.3120233"><ele>449.0</ele><time>2026-04-12T12:27:09.963Z</time></trkpt><trkpt lat="40.679445" lon="15.31217"><ele>448.0</ele><time>2026-04-12T12:27:10.962Z</time></trkpt><trkpt lat="40.67951" lon="15.3123167"><ele>450.25</ele><time>2026-04-12T12:27:11.963Z</time></trkpt><trkpt lat="40.6795733" lon="15.31246"><ele>452.5</ele><time>2026-04-12T12:27:12.962Z</time></trkpt><trkpt lat="40.6796333" lon="15.3125967"><ele>454.75</ele><time>2026-04-12T12:27:13.962Z</time></trkpt><trkpt lat="40.6796933" lon="15.312735"><ele>457.0</ele><time>2026-04-12T12:27:14.963Z</time></trkpt><trkpt lat="40.6797533" lon="15.3128717"><ele>457.0</ele><time>2026-04-12T12:27:15.962Z</time></trkpt><trkpt lat="40.6798117" lon="15.313015"><ele>457.0</ele><time>2026-04-12T12:27:16.962Z</time></trkpt><trkpt lat="40.6798683" lon="15.3131617"><ele>457.0</ele><time>2026-04-12T12:27:17.962Z</time></trkpt><trkpt lat="40.6799283" lon="15.3133117"><ele>457.0</ele><time>2026-04-12T12:27:18.962Z</time></trkpt><trkpt lat="40.6799917" lon="15.3134567"><ele>455.75</ele><time>2026-04-12T12:27:19.962Z</time></trkpt><trkpt lat="40.680055" lon="15.3136033"><ele>454.5</ele><time>2026-04-12T12:27:20.962Z</time></trkpt><trkpt lat="40.6801183" lon="15.3137483"><ele>453.25</ele><time>2026-04-12T12:27:21.962Z</time></trkpt><trkpt lat="40.6801833" lon="15.313895"><ele>452.0</ele><time>2026-04-12T12:27:22.962Z</time></trkpt><trkpt lat="40.680245" lon="15.314035"><ele>456.0</ele><time>2026-04-12T12:27:23.962Z</time></trkpt><trkpt lat="40.6803067" lon="15.3141833"><ele>460.0</ele><time>2026-04-12T12:27:24.962Z</time></trkpt><trkpt lat="40.6803667" lon="15.3143333"><ele>464.0</ele><time>2026-04-12T12:27:25.962Z</time></trkpt><trkpt lat="40.6804183" lon="15.3144983"><ele>468.0</ele><time>2026-04-12T12:27:26.962Z</time></trkpt><trkpt lat="40.68045" lon="15.3146533"><ele>469.75</ele><time>2026-04-12T12:27:27.962Z</time></trkpt><trkpt lat="40.68046" lon="15.3148017"><ele>471.5</ele><time>2026-04-12T12:27:28.962Z</time></trkpt><trkpt lat="40.6804333" lon="15.3149533"><ele>473.25</ele><time>2026-04-12T12:27:29.962Z</time></trkpt><trkpt lat="40.68038" lon="15.3150967"><ele>475.0</ele><time>2026-04-12T12:27:30.962Z</time></trkpt><trkpt lat="40.6803083" lon="15.3152267"><ele>471.25</ele><time>2026-04-12T12:27:31.962Z</time></trkpt><trkpt lat="40.68023" lon="15.315355"><ele>467.5</ele><time>2026-04-12T12:27:32.962Z</time></trkpt><trkpt lat="40.6801467" lon="15.315475"><ele>463.75</ele><time>2026-04-12T12:27:33.962Z</time></trkpt><trkpt lat="40.6800683" lon="15.3156"><ele>460.0</ele><time>2026-04-12T12:27:34.962Z</time></trkpt><trkpt lat="40.67998" lon="15.3157283"><ele>460.0</ele><time>2026-04-12T12:27:35.962Z</time></trkpt><trkpt lat="40.6798967" lon="15.3158583"><ele>460.0</ele><time>2026-04-12T12:27:36.962Z</time></trkpt><trkpt lat="40.679815" lon="15.31599"><ele>460.0</ele><time>2026-04-12T12:27:37.962Z</time></trkpt><trkpt lat="40.6797367" lon="15.3161283"><ele>460.0</ele><time>2026-04-12T12:27:38.962Z</time></trkpt><trkpt lat="40.6796617" lon="15.3162633"><ele>460.0</ele><time>2026-04-12T12:27:39.962Z</time></trkpt><trkpt lat="40.6796" lon="15.3164"><ele>460.0</ele><time>2026-04-12T12:27:40.962Z</time></trkpt><trkpt lat="40.6795283" lon="15.3165383"><ele>460.0</ele><time>2026-04-12T12:27:41.962Z</time></trkpt><trkpt lat="40.6794683" lon="15.3166733"><ele>460.0</ele><time>2026-04-12T12:27:42.962Z</time></trkpt><trkpt lat="40.6794117" lon="15.31681"><ele>458.75</ele><time>2026-04-12T12:27:43.962Z</time></trkpt><trkpt lat="40.679355" lon="15.3169517"><ele>457.5</ele><time>2026-04-12T12:27:44.962Z</time></trkpt><trkpt lat="40.6793067" lon="15.3171067"><ele>456.25</ele><time>2026-04-12T12:27:45.962Z</time></trkpt><trkpt lat="40.6792617" lon="15.317265"><ele>455.0</ele><time>2026-04-12T12:27:46.962Z</time></trkpt><trkpt lat="40.679215" lon="15.3174267"><ele>455.0</ele><time>2026-04-12T12:27:47.962Z</time></trkpt><trkpt lat="40.679165" lon="15.3176017"><ele>455.0</ele><time>2026-04-12T12:27:48.962Z</time></trkpt><trkpt lat="40.67912" lon="15.3177733"><ele>455.0</ele><time>2026-04-12T12:27:49.962Z</time></trkpt><trkpt lat="40.6790767" lon="15.3179517"><ele>455.0</ele><time>2026-04-12T12:27:50.962Z</time></trkpt><trkpt lat="40.6790333" lon="15.31813"><ele>456.5</ele><time>2026-04-12T12:27:51.962Z</time></trkpt><trkpt lat="40.678985" lon="15.3183083"><ele>458.0</ele><time>2026-04-12T12:27:52.963Z</time></trkpt><trkpt lat="40.678935" lon="15.3184867"><ele>459.5</ele><time>2026-04-12T12:27:53.963Z</time></trkpt><trkpt lat="40.6788767" lon="15.3186617"><ele>461.0</ele><time>2026-04-12T12:27:54.962Z</time></trkpt><trkpt lat="40.6788133" lon="15.3188283"><ele>464.5</ele><time>2026-04-12T12:27:55.963Z</time></trkpt><trkpt lat="40.67874" lon="15.3189833"><ele>468.0</ele><time>2026-04-12T12:27:56.962Z</time></trkpt><trkpt lat="40.678655" lon="15.3191183"><ele>471.5</ele><time>2026-04-12T12:27:57.962Z</time></trkpt><trkpt lat="40.6785517" lon="15.3192167"><ele>475.0</ele><time>2026-04-12T12:27:58.962Z</time></trkpt><trkpt lat="40.67843" lon="15.31929"><ele>468.0</ele><time>2026-04-12T12:27:59.962Z</time></trkpt><trkpt lat="40.6782917" lon="15.3193383"><ele>461.0</ele><time>2026-04-12T12:28:00.962Z</time></trkpt><trkpt lat="40.6781567" lon="15.3193867"><ele>454.0</ele><time>2026-04-12T12:28:01.963Z</time></trkpt><trkpt lat="40.6780217" lon="15.31944"><ele>447.0</ele><time>2026-04-12T12:28:02.962Z</time></trkpt><trkpt lat="40.6778867" lon="15.3194933"><ele>445.5</ele><time>2026-04-12T12:28:03.962Z</time></trkpt><trkpt lat="40.6777517" lon="15.3195433"><ele>444.0</ele><time>2026-04-12T12:28:04.962Z</time></trkpt><trkpt lat="40.6776283" lon="15.3196217"><ele>442.5</ele><time>2026-04-12T12:28:05.962Z</time></trkpt><trkpt lat="40.677505" lon="15.3197167"><ele>441.0</ele><time>2026-04-12T12:28:06.962Z</time></trkpt><trkpt lat="40.6773867" lon="15.3197983"><ele>444.25</ele><time>2026-04-12T12:28:07.962Z</time></trkpt><trkpt lat="40.6772767" lon="15.3198883"><ele>447.5</ele><time>2026-04-12T12:28:08.962Z</time></trkpt><trkpt lat="40.6771683" lon="15.3199667"><ele>450.75</ele><time>2026-04-12T12:28:09.962Z</time></trkpt><trkpt lat="40.6770567" lon="15.32004"><ele>454.0</ele><time>2026-04-12T12:28:10.962Z</time></trkpt><trkpt lat="40.6769417" lon="15.3201233"><ele>451.0</ele><time>2026-04-12T12:28:11.962Z</time></trkpt><trkpt lat="40.6768233" lon="15.3202083"><ele>448.0</ele><time>2026-04-12T12:28:12.962Z</time></trkpt><trkpt lat="40.6767017" lon="15.3202933"><ele>445.0</ele><time>2026-04-12T12:28:13.962Z</time></trkpt><trkpt lat="40.6765717" lon="15.3203767"><ele>442.0</ele><time>2026-04-12T12:28:14.962Z</time></trkpt><trkpt lat="40.6764467" lon="15.3204417"><ele>442.0</ele><time>2026-04-12T12:28:15.962Z</time></trkpt><trkpt lat="40.6763133" lon="15.3204867"><ele>442.0</ele><time>2026-04-12T12:28:16.963Z</time></trkpt><trkpt lat="40.6761783" lon="15.32052"><ele>442.0</ele><time>2026-04-12T12:28:17.962Z</time></trkpt><trkpt lat="40.6760433" lon="15.3205617"><ele>442.0</ele><time>2026-04-12T12:28:18.962Z</time></trkpt><trkpt lat="40.675915" lon="15.320615"><ele>442.0</ele><time>2026-04-12T12:28:19.962Z</time></trkpt><trkpt lat="40.67579" lon="15.3206783"><ele>442.0</ele><time>2026-04-12T12:28:20.962Z</time></trkpt><trkpt lat="40.6756783" lon="15.3207717"><ele>442.0</ele><time>2026-04-12T12:28:21.962Z</time></trkpt><trkpt lat="40.6755767" lon="15.320895"><ele>442.0</ele><time>2026-04-12T12:28:22.962Z</time></trkpt><trkpt lat="40.6754883" lon="15.3210333"><ele>442.0</ele><time>2026-04-12T12:28:23.962Z</time></trkpt><trkpt lat="40.6754067" lon="15.32118"><ele>442.0</ele><time>2026-04-12T12:28:24.963Z</time></trkpt><trkpt lat="40.6753317" lon="15.3213367"><ele>442.0</ele><time>2026-04-12T12:28:25.962Z</time></trkpt><trkpt lat="40.6752667" lon="15.3214883"><ele>442.0</ele><time>2026-04-12T12:28:26.962Z</time></trkpt><trkpt lat="40.6752017" lon="15.3216533"><ele>441.75</ele><time>2026-04-12T12:28:27.962Z</time></trkpt><trkpt lat="40.675145" lon="15.32182"><ele>441.5</ele><time>2026-04-12T12:28:28.962Z</time></trkpt><trkpt lat="40.6750967" lon="15.3219967"><ele>441.25</ele><time>2026-04-12T12:28:29.962Z</time></trkpt><trkpt lat="40.6750433" lon="15.3221683"><ele>441.0</ele><time>2026-04-12T12:28:30.962Z</time></trkpt><trkpt lat="40.6749967" lon="15.322345"><ele>441.0</ele><time>2026-04-12T12:28:31.962Z</time></trkpt><trkpt lat="40.6749533" lon="15.322515"><ele>441.0</ele><time>2026-04-12T12:28:32.962Z</time></trkpt><trkpt lat="40.6749033" lon="15.3226867"><ele>441.0</ele><time>2026-04-12T12:28:33.962Z</time></trkpt><trkpt lat="40.6748567" lon="15.3228567"><ele>441.0</ele><time>2026-04-12T12:28:34.962Z</time></trkpt><trkpt lat="40.6748117" lon="15.3230317"><ele>441.5</ele><time>2026-04-12T12:28:35.962Z</time></trkpt><trkpt lat="40.6747717" lon="15.3232"><ele>442.0</ele><time>2026-04-12T12:28:36.962Z</time></trkpt><trkpt lat="40.6747367" lon="15.323375"><ele>442.5</ele><time>2026-04-12T12:28:37.962Z</time></trkpt><trkpt lat="40.67471" lon="15.323545"><ele>443.0</ele><time>2026-04-12T12:28:38.963Z</time></trkpt><trkpt lat="40.674685" lon="15.3237067"><ele>443.0</ele><time>2026-04-12T12:28:39.962Z</time></trkpt><trkpt lat="40.6746667" lon="15.3238767"><ele>443.0</ele><time>2026-04-12T12:28:40.962Z</time></trkpt><trkpt lat="40.6746483" lon="15.3240483"><ele>443.0</ele><time>2026-04-12T12:28:41.962Z</time></trkpt><trkpt lat="40.674625" lon="15.3242117"><ele>443.0</ele><time>2026-04-12T12:28:42.963Z</time></trkpt><trkpt lat="40.674605" lon="15.3243783"><ele>443.5</ele><time>2026-04-12T12:28:43.962Z</time></trkpt><trkpt lat="40.67457" lon="15.3245517"><ele>444.0</ele><time>2026-04-12T12:28:44.962Z</time></trkpt><trkpt lat="40.6745483" lon="15.3247283"><ele>444.5</ele><time>2026-04-12T12:28:45.962Z</time></trkpt><trkpt lat="40.6745433" lon="15.3249067"><ele>445.0</ele><time>2026-04-12T12:28:46.962Z</time></trkpt><trkpt lat="40.6745467" lon="15.32508"><ele>445.0</ele><time>2026-04-12T12:28:47.963Z</time></trkpt><trkpt lat="40.6745517" lon="15.3252517"><ele>445.0</ele><time>2026-04-12T12:28:48.963Z</time></trkpt><trkpt lat="40.67457" lon="15.325415"><ele>445.0</ele><time>2026-04-12T12:28:49.962Z</time></trkpt><trkpt lat="40.6745917" lon="15.3255817"><ele>445.0</ele><time>2026-04-12T12:28:50.962Z</time></trkpt><trkpt lat="40.67461" lon="15.3257533"><ele>445.5</ele><time>2026-04-12T12:28:51.963Z</time></trkpt><trkpt lat="40.6746317" lon="15.3259217"><ele>446.0</ele><time>2026-04-12T12:28:52.962Z</time></trkpt><trkpt lat="40.674645" lon="15.3260883"><ele>446.5</ele><time>2026-04-12T12:28:53.962Z</time></trkpt><trkpt lat="40.674655" lon="15.326255"><ele>447.0</ele><time>2026-04-12T12:28:54.962Z</time></trkpt><trkpt lat="40.6746583" lon="15.32642"><ele>448.25</ele><time>2026-04-12T12:28:55.962Z</time></trkpt><trkpt lat="40.67467" lon="15.3265833"><ele>449.5</ele><time>2026-04-12T12:28:56.962Z</time></trkpt><trkpt lat="40.6746783" lon="15.3267433"><ele>450.75</ele><time>2026-04-12T12:28:57.962Z</time></trkpt><trkpt lat="40.6746817" lon="15.3269033"><ele>452.0</ele><time>2026-04-12T12:28:58.962Z</time></trkpt><trkpt lat="40.6746717" lon="15.32706"><ele>452.0</ele><time>2026-04-12T12:28:59.962Z</time></trkpt><trkpt lat="40.6746417" lon="15.327195"><ele>452.00000000000006</ele><time>2026-04-12T12:29:00.962Z</time></trkpt><trkpt lat="40.67459" lon="15.3273267"><ele>452.00000000000006</ele><time>2026-04-12T12:29:01.962Z</time></trkpt><trkpt lat="40.674535" lon="15.3274583"><ele>452.0</ele><time>2026-04-12T12:29:02.962Z</time></trkpt><trkpt lat="40.6744767" lon="15.3275833"><ele>452.0</ele><time>2026-04-12T12:29:03.962Z</time></trkpt><trkpt lat="40.6744267" lon="15.3277183"><ele>449.75</ele><time>2026-04-12T12:29:04.962Z</time></trkpt><trkpt lat="40.67437" lon="15.3278567"><ele>447.5</ele><time>2026-04-12T12:29:05.962Z</time></trkpt><trkpt lat="40.6743217" lon="15.3279933"><ele>445.25</ele><time>2026-04-12T12:29:06.962Z</time></trkpt><trkpt lat="40.674275" lon="15.3281417"><ele>443.0</ele><time>2026-04-12T12:29:07.962Z</time></trkpt><trkpt lat="40.6742217" lon="15.3282933"><ele>443.0</ele><time>2026-04-12T12:29:08.962Z</time></trkpt><trkpt lat="40.6741733" lon="15.3284483"><ele>443.0</ele><time>2026-04-12T12:29:09.962Z</time></trkpt><trkpt lat="40.6741283" lon="15.328605"><ele>443.0</ele><time>2026-04-12T12:29:10.962Z</time></trkpt><trkpt lat="40.674075" lon="15.3287633"><ele>443.0</ele><time>2026-04-12T12:29:11.962Z</time></trkpt><trkpt lat="40.6740217" lon="15.3289183"><ele>444.5</ele><time>2026-04-12T12:29:12.962Z</time></trkpt><trkpt lat="40.6739633" lon="15.3290767"><ele>446.0</ele><time>2026-04-12T12:29:13.963Z</time></trkpt><trkpt lat="40.67392" lon="15.3292333"><ele>447.5</ele><time>2026-04-12T12:29:14.962Z</time></trkpt><trkpt lat="40.673845" lon="15.3293717"><ele>449.0</ele><time>2026-04-12T12:29:15.962Z</time></trkpt><trkpt lat="40.6737617" lon="15.32951"><ele>449.0</ele><time>2026-04-12T12:29:16.961Z</time></trkpt><trkpt lat="40.6736867" lon="15.3296517"><ele>449.0</ele><time>2026-04-12T12:29:17.962Z</time></trkpt><trkpt lat="40.6736117" lon="15.32978"><ele>449.0</ele><time>2026-04-12T12:29:18.961Z</time></trkpt><trkpt lat="40.6735467" lon="15.3299117"><ele>449.0</ele><time>2026-04-12T12:29:19.961Z</time></trkpt><trkpt lat="40.6734883" lon="15.330035"><ele>448.0</ele><time>2026-04-12T12:29:20.961Z</time></trkpt><trkpt lat="40.67345" lon="15.33016"><ele>447.0</ele><time>2026-04-12T12:29:21.961Z</time></trkpt><trkpt lat="40.67342" lon="15.330295"><ele>446.0</ele><time>2026-04-12T12:29:22.961Z</time></trkpt><trkpt lat="40.673405" lon="15.3304183"><ele>445.0</ele><time>2026-04-12T12:29:23.961Z</time></trkpt><trkpt lat="40.6734017" lon="15.3305217"><ele>444.0</ele><time>2026-04-12T12:29:24.961Z</time></trkpt><trkpt lat="40.673405" lon="15.3306583"><ele>444.0</ele><time>2026-04-12T12:29:26.962Z</time></trkpt><trkpt lat="40.6733683" lon="15.3307333"><ele>444.0</ele><time>2026-04-12T12:29:28.961Z</time></trkpt><trkpt lat="40.6732867" lon="15.3307417"><ele>444.0</ele><time>2026-04-12T12:29:30.962Z</time></trkpt><trkpt lat="40.673195" lon="15.3307217"><ele>444.0</ele><time>2026-04-12T12:29:32.961Z</time></trkpt><trkpt lat="40.6731017" lon="15.33071"><ele>444.0</ele><time>2026-04-12T12:29:34.961Z</time></trkpt><trkpt lat="40.6730033" lon="15.3306783"><ele>444.0</ele><time>2026-04-12T12:29:36.961Z</time></trkpt><trkpt lat="40.672925" lon="15.3306167"><ele>443.8333333333333</ele><time>2026-04-12T12:29:38.961Z</time></trkpt><trkpt lat="40.6728617" lon="15.33054"><ele>443.66666666666663</ele><time>2026-04-12T12:29:40.961Z</time></trkpt><trkpt lat="40.672815" lon="15.330475"><ele>443.5</ele><time>2026-04-12T12:29:42.961Z</time></trkpt><trkpt lat="40.672785" lon="15.330375"><ele>443.3333333333333</ele><time>2026-04-12T12:29:45.962Z</time></trkpt><trkpt lat="40.6728017" lon="15.33029"><ele>443.16666666666663</ele><time>2026-04-12T12:29:47.961Z</time></trkpt><trkpt lat="40.67283" lon="15.3302"><ele>443.0</ele><time>2026-04-12T12:29:49.961Z</time></trkpt><trkpt lat="40.6728617" lon="15.33009"><ele>443.0</ele><time>2026-04-12T12:29:51.961Z</time></trkpt><trkpt lat="40.6728967" lon="15.3299667"><ele>443.0</ele><time>2026-04-12T12:29:53.961Z</time></trkpt><trkpt lat="40.6729417" lon="15.3298317"><ele>443.0</ele><time>2026-04-12T12:29:55.961Z</time></trkpt><trkpt lat="40.67299" lon="15.329685"><ele>443.0</ele><time>2026-04-12T12:29:57.961Z</time></trkpt><trkpt lat="40.6730267" lon="15.32953"><ele>442.2</ele><time>2026-04-12T12:29:59.961Z</time></trkpt><trkpt lat="40.6730583" lon="15.3293783"><ele>441.4</ele><time>2026-04-12T12:30:01.961Z</time></trkpt><trkpt lat="40.6730733" lon="15.3292567"><ele>440.59999999999997</ele><time>2026-04-12T12:30:03.961Z</time></trkpt><trkpt lat="40.6730433" lon="15.32913"><ele>439.79999999999995</ele><time>2026-04-12T12:30:05.961Z</time></trkpt><trkpt lat="40.6729783" lon="15.329035"><ele>439.0</ele><time>2026-04-12T12:30:07.961Z</time></trkpt><trkpt lat="40.6729267" lon="15.3289833"><ele>439.0</ele><time>2026-04-12T12:30:08.961Z</time></trkpt><trkpt lat="40.6728767" lon="15.32892"><ele>439.0</ele><time>2026-04-12T12:30:09.961Z</time></trkpt><trkpt lat="40.6728267" lon="15.3288583"><ele>439.0</ele><time>2026-04-12T12:30:10.961Z</time></trkpt><trkpt lat="40.67277" lon="15.3287983"><ele>439.0</ele><time>2026-04-12T12:30:11.961Z</time></trkpt><trkpt lat="40.6727133" lon="15.32873"><ele>439.0</ele><time>2026-04-12T12:30:12.961Z</time></trkpt><trkpt lat="40.6726567" lon="15.3286617"><ele>439.0</ele><time>2026-04-12T12:30:13.961Z</time></trkpt><trkpt lat="40.6726" lon="15.3285917"><ele>439.0</ele><time>2026-04-12T12:30:14.962Z</time></trkpt><trkpt lat="40.67254" lon="15.3285167"><ele>437.83333333333337</ele><time>2026-04-12T12:30:15.961Z</time></trkpt><trkpt lat="40.6724733" lon="15.328445"><ele>436.6666666666667</ele><time>2026-04-12T12:30:16.961Z</time></trkpt><trkpt lat="40.67241" lon="15.328375"><ele>435.5</ele><time>2026-04-12T12:30:17.961Z</time></trkpt><trkpt lat="40.6723383" lon="15.3282983"><ele>434.33333333333337</ele><time>2026-04-12T12:30:18.961Z</time></trkpt><trkpt lat="40.6722683" lon="15.3282183"><ele>433.1666666666667</ele><time>2026-04-12T12:30:19.961Z</time></trkpt><trkpt lat="40.6721967" lon="15.3281367"><ele>432.0</ele><time>2026-04-12T12:30:20.961Z</time></trkpt><trkpt lat="40.6721267" lon="15.3280517"><ele>432.0</ele><time>2026-04-12T12:30:21.961Z</time></trkpt><trkpt lat="40.6720517" lon="15.3279667"><ele>432.00000000000006</ele><time>2026-04-12T12:30:22.961Z</time></trkpt><trkpt lat="40.6719833" lon="15.3278867"><ele>432.00000000000006</ele><time>2026-04-12T12:30:23.961Z</time></trkpt><trkpt lat="40.6719083" lon="15.3278033"><ele>432.0</ele><time>2026-04-12T12:30:24.961Z</time></trkpt><trkpt lat="40.6718383" lon="15.3277117"><ele>432.0</ele><time>2026-04-12T12:30:25.961Z</time></trkpt><trkpt lat="40.67176" lon="15.327625"><ele>431.8</ele><time>2026-04-12T12:30:26.961Z</time></trkpt><trkpt lat="40.6716733" lon="15.3275383"><ele>431.6</ele><time>2026-04-12T12:30:27.961Z</time></trkpt><trkpt lat="40.671595" lon="15.32745"><ele>431.40000000000003</ele><time>2026-04-12T12:30:28.962Z</time></trkpt><trkpt lat="40.67152" lon="15.32736"><ele>431.20000000000005</ele><time>2026-04-12T12:30:29.961Z</time></trkpt><trkpt lat="40.6714433" lon="15.3272683"><ele>431.0</ele><time>2026-04-12T12:30:30.961Z</time></trkpt><trkpt lat="40.6713683" lon="15.3271833"><ele>430.99999999999994</ele><time>2026-04-12T12:30:31.961Z</time></trkpt><trkpt lat="40.671295" lon="15.3271017"><ele>431.0</ele><time>2026-04-12T12:30:32.961Z</time></trkpt><trkpt lat="40.6712333" lon="15.3270233"><ele>431.0</ele><time>2026-04-12T12:30:33.961Z</time></trkpt><trkpt lat="40.671175" lon="15.3269517"><ele>431.0</ele><time>2026-04-12T12:30:34.961Z</time></trkpt><trkpt lat="40.67112" lon="15.3268867"><ele>430.99999999999994</ele><time>2026-04-12T12:30:35.961Z</time></trkpt><trkpt lat="40.671035" lon="15.32679"><ele>431.0</ele><time>2026-04-12T12:30:37.961Z</time></trkpt><trkpt lat="40.67096" lon="15.3267117"><ele>430.8333333333333</ele><time>2026-04-12T12:30:39.961Z</time></trkpt><trkpt lat="40.6708667" lon="15.3266133"><ele>430.66666666666663</ele><time>2026-04-12T12:30:41.961Z</time></trkpt><trkpt lat="40.6708117" lon="15.326555"><ele>430.5</ele><time>2026-04-12T12:30:42.961Z</time></trkpt><trkpt lat="40.67075" lon="15.3264917"><ele>430.33333333333337</ele><time>2026-04-12T12:30:43.961Z</time></trkpt><trkpt lat="40.670695" lon="15.3264267"><ele>430.1666666666667</ele><time>2026-04-12T12:30:44.962Z</time></trkpt><trkpt lat="40.67064" lon="15.3263617"><ele>430.0</ele><time>2026-04-12T12:30:45.961Z</time></trkpt><trkpt lat="40.670585" lon="15.326295"><ele>430.00000000000006</ele><time>2026-04-12T12:30:46.961Z</time></trkpt><trkpt lat="40.670525" lon="15.326225"><ele>430.0</ele><time>2026-04-12T12:30:47.961Z</time></trkpt><trkpt lat="40.670465" lon="15.3261583"><ele>430.0</ele><time>2026-04-12T12:30:48.961Z</time></trkpt><trkpt lat="40.6704033" lon="15.3260883"><ele>430.0</ele><time>2026-04-12T12:30:49.961Z</time></trkpt><trkpt lat="40.6703367" lon="15.3260183"><ele>430.00000000000006</ele><time>2026-04-12T12:30:50.961Z</time></trkpt><trkpt lat="40.67028" lon="15.3259533"><ele>430.0</ele><time>2026-04-12T12:30:51.961Z</time></trkpt><trkpt lat="40.6702233" lon="15.3258867"><ele>430.1666666666667</ele><time>2026-04-12T12:30:52.961Z</time></trkpt><trkpt lat="40.6701633" lon="15.325825"><ele>430.33333333333337</ele><time>2026-04-12T12:30:53.961Z</time></trkpt><trkpt lat="40.6701083" lon="15.3257633"><ele>430.5</ele><time>2026-04-12T12:30:54.961Z</time></trkpt><trkpt lat="40.6700183" lon="15.3256583"><ele>430.66666666666663</ele><time>2026-04-12T12:30:56.961Z</time></trkpt><trkpt lat="40.6699483" lon="15.325575"><ele>430.8333333333333</ele><time>2026-04-12T12:30:58.961Z</time></trkpt><trkpt lat="40.669875" lon="15.3255783"><ele>431.0</ele><time>2026-04-12T12:32:45.962Z</time></trkpt><trkpt lat="40.6698067" lon="15.3257183"><ele>431.0</ele><time>2026-04-12T12:32:47.962Z</time></trkpt><trkpt lat="40.6697533" lon="15.3258383"><ele>431.0</ele><time>2026-04-12T12:32:48.961Z</time></trkpt><trkpt lat="40.6696783" lon="15.326005"><ele>431.0</ele><time>2026-04-12T12:32:49.961Z</time></trkpt><trkpt lat="40.669605" lon="15.3261833"><ele>431.0</ele><time>2026-04-12T12:32:50.961Z</time></trkpt><trkpt lat="40.6695367" lon="15.3263317"><ele>430.75</ele><time>2026-04-12T12:32:51.962Z</time></trkpt><trkpt lat="40.6694667" lon="15.3264733"><ele>430.5</ele><time>2026-04-12T12:32:52.961Z</time></trkpt><trkpt lat="40.669405" lon="15.3266183"><ele>430.25</ele><time>2026-04-12T12:32:53.961Z</time></trkpt><trkpt lat="40.6693467" lon="15.3267667"><ele>430.0</ele><time>2026-04-12T12:32:54.961Z</time></trkpt><trkpt lat="40.669285" lon="15.3269283"><ele>430.25</ele><time>2026-04-12T12:32:55.961Z</time></trkpt><trkpt lat="40.6692183" lon="15.3270767"><ele>430.5</ele><time>2026-04-12T12:32:56.961Z</time></trkpt><trkpt lat="40.6691583" lon="15.3272117"><ele>430.75</ele><time>2026-04-12T12:32:57.961Z</time></trkpt><trkpt lat="40.6690983" lon="15.327335"><ele>431.0</ele><time>2026-04-12T12:32:58.961Z</time></trkpt><trkpt lat="40.66905" lon="15.3274617"><ele>431.0</ele><time>2026-04-12T12:32:59.961Z</time></trkpt><trkpt lat="40.669" lon="15.3275833"><ele>431.0</ele><time>2026-04-12T12:33:00.961Z</time></trkpt><trkpt lat="40.6689417" lon="15.3277167"><ele>431.0</ele><time>2026-04-12T12:33:01.961Z</time></trkpt><trkpt lat="40.6688767" lon="15.32787"><ele>431.0</ele><time>2026-04-12T12:33:02.961Z</time></trkpt><trkpt lat="40.6688033" lon="15.3280483"><ele>431.0</ele><time>2026-04-12T12:33:03.961Z</time></trkpt><trkpt lat="40.6687267" lon="15.3282183"><ele>431.0</ele><time>2026-04-12T12:33:04.961Z</time></trkpt><trkpt lat="40.6686617" lon="15.3283783"><ele>431.0</ele><time>2026-04-12T12:33:05.961Z</time></trkpt><trkpt lat="40.6686" lon="15.328515"><ele>431.0</ele><time>2026-04-12T12:33:06.961Z</time></trkpt><trkpt lat="40.668545" lon="15.328645"><ele>431.0</ele><time>2026-04-12T12:33:07.961Z</time></trkpt><trkpt lat="40.6684867" lon="15.328775"><ele>431.0</ele><time>2026-04-12T12:33:08.961Z</time></trkpt><trkpt lat="40.6684333" lon="15.3289"><ele>431.0</ele><time>2026-04-12T12:33:09.962Z</time></trkpt><trkpt lat="40.6683783" lon="15.3290183"><ele>431.0</ele><time>2026-04-12T12:33:10.961Z</time></trkpt><trkpt lat="40.6683233" lon="15.3291383"><ele>431.0</ele><time>2026-04-12T12:33:11.961Z</time></trkpt><trkpt lat="40.6682717" lon="15.3292567"><ele>430.99999999999994</ele><time>2026-04-12T12:33:12.961Z</time></trkpt><trkpt lat="40.6682217" lon="15.329375"><ele>431.0</ele><time>2026-04-12T12:33:13.961Z</time></trkpt><trkpt lat="40.6681767" lon="15.3294817"><ele>431.0</ele><time>2026-04-12T12:33:14.961Z</time></trkpt><trkpt lat="40.6681383" lon="15.3295767"><ele>431.0</ele><time>2026-04-12T12:33:15.961Z</time></trkpt><trkpt lat="40.6681033" lon="15.3296633"><ele>430.99999999999994</ele><time>2026-04-12T12:33:16.961Z</time></trkpt><trkpt lat="40.6680733" lon="15.32974"><ele>431.0</ele><time>2026-04-12T12:33:17.961Z</time></trkpt><trkpt lat="40.6680367" lon="15.3298183"><ele>431.20000000000005</ele><time>2026-04-12T12:33:19.961Z</time></trkpt><trkpt lat="40.6679883" lon="15.3299383"><ele>431.40000000000003</ele><time>2026-04-12T12:34:01.96Z</time></trkpt><trkpt lat="40.6679367" lon="15.3300683"><ele>431.6</ele><time>2026-04-12T12:34:03.96Z</time></trkpt><trkpt lat="40.6679017" lon="15.330155"><ele>431.8</ele><time>2026-04-12T12:34:04.96Z</time></trkpt><trkpt lat="40.667865" lon="15.3302533"><ele>432.0</ele><time>2026-04-12T12:34:05.96Z</time></trkpt><trkpt lat="40.6678267" lon="15.3303583"><ele>432.0</ele><time>2026-04-12T12:34:06.96Z</time></trkpt><trkpt lat="40.6677817" lon="15.33047"><ele>432.00000000000006</ele><time>2026-04-12T12:34:07.96Z</time></trkpt><trkpt lat="40.6677283" lon="15.3305883"><ele>432.00000000000006</ele><time>2026-04-12T12:34:08.961Z</time></trkpt><trkpt lat="40.6676783" lon="15.3307083"><ele>432.0</ele><time>2026-04-12T12:34:09.96Z</time></trkpt><trkpt lat="40.667625" lon="15.33082"><ele>432.0</ele><time>2026-04-12T12:34:10.96Z</time></trkpt><trkpt lat="40.667575" lon="15.3309333"><ele>432.0</ele><time>2026-04-12T12:34:11.96Z</time></trkpt><trkpt lat="40.6675283" lon="15.3310467"><ele>432.0</ele><time>2026-04-12T12:34:12.96Z</time></trkpt><trkpt lat="40.667485" lon="15.33115"><ele>432.0</ele><time>2026-04-12T12:34:13.96Z</time></trkpt><trkpt lat="40.6674467" lon="15.3312517"><ele>432.0</ele><time>2026-04-12T12:34:14.96Z</time></trkpt><trkpt lat="40.6674033" lon="15.3313417"><ele>432.0</ele><time>2026-04-12T12:34:15.96Z</time></trkpt><trkpt lat="40.66737" lon="15.3314283"><ele>432.0</ele><time>2026-04-12T12:34:16.96Z</time></trkpt><trkpt lat="40.6673317" lon="15.33152"><ele>432.0</ele><time>2026-04-12T12:34:17.96Z</time></trkpt><trkpt lat="40.6672917" lon="15.3316167"><ele>432.00000000000006</ele><time>2026-04-12T12:34:18.96Z</time></trkpt><trkpt lat="40.667245" lon="15.3317217"><ele>432.00000000000006</ele><time>2026-04-12T12:34:19.96Z</time></trkpt><trkpt lat="40.6671917" lon="15.3318417"><ele>432.0</ele><time>2026-04-12T12:34:20.96Z</time></trkpt><trkpt lat="40.6671383" lon="15.33196"><ele>432.0</ele><time>2026-04-12T12:34:21.96Z</time></trkpt><trkpt lat="40.66709" lon="15.3320667"><ele>432.0</ele><time>2026-04-12T12:34:22.96Z</time></trkpt><trkpt lat="40.6670367" lon="15.3321633"><ele>432.0</ele><time>2026-04-12T12:34:23.961Z</time></trkpt><trkpt lat="40.6669883" lon="15.3322633"><ele>432.0</ele><time>2026-04-12T12:34:24.96Z</time></trkpt><trkpt lat="40.6669383" lon="15.3323633"><ele>432.0</ele><time>2026-04-12T12:34:25.96Z</time></trkpt><trkpt lat="40.6668933" lon="15.3324617"><ele>432.0</ele><time>2026-04-12T12:34:26.96Z</time></trkpt><trkpt lat="40.6668517" lon="15.3325567"><ele>432.0</ele><time>2026-04-12T12:34:27.96Z</time></trkpt><trkpt lat="40.666815" lon="15.33265"><ele>432.0</ele><time>2026-04-12T12:34:28.96Z</time></trkpt><trkpt lat="40.66678" lon="15.33274"><ele>432.0</ele><time>2026-04-12T12:34:29.96Z</time></trkpt><trkpt lat="40.6667433" lon="15.3328333"><ele>432.0</ele><time>2026-04-12T12:34:30.96Z</time></trkpt><trkpt lat="40.6666967" lon="15.33292"><ele>432.0</ele><time>2026-04-12T12:34:31.96Z</time></trkpt><trkpt lat="40.6666583" lon="15.3330083"><ele>432.0</ele><time>2026-04-12T12:34:32.96Z</time></trkpt><trkpt lat="40.66662" lon="15.3330967"><ele>432.0</ele><time>2026-04-12T12:34:33.96Z</time></trkpt><trkpt lat="40.6665783" lon="15.3331883"><ele>432.0</ele><time>2026-04-12T12:34:34.96Z</time></trkpt><trkpt lat="40.6665367" lon="15.3332967"><ele>432.0</ele><time>2026-04-12T12:34:35.96Z</time></trkpt><trkpt lat="40.66649" lon="15.3334067"><ele>432.0</ele><time>2026-04-12T12:34:36.96Z</time></trkpt><trkpt lat="40.66645" lon="15.333505"><ele>432.0</ele><time>2026-04-12T12:34:37.96Z</time></trkpt><trkpt lat="40.66641" lon="15.3335933"><ele>432.0</ele><time>2026-04-12T12:34:38.96Z</time></trkpt><trkpt lat="40.6663733" lon="15.3336817"><ele>432.0</ele><time>2026-04-12T12:34:39.96Z</time></trkpt><trkpt lat="40.66634" lon="15.3337667"><ele>432.0</ele><time>2026-04-12T12:34:40.96Z</time></trkpt><trkpt lat="40.6662967" lon="15.3338583"><ele>432.00000000000006</ele><time>2026-04-12T12:34:41.96Z</time></trkpt><trkpt lat="40.6662433" lon="15.3339617"><ele>432.00000000000006</ele><time>2026-04-12T12:34:42.96Z</time></trkpt><trkpt lat="40.6661933" lon="15.3340717"><ele>432.0</ele><time>2026-04-12T12:34:43.96Z</time></trkpt><trkpt lat="40.6661417" lon="15.3341817"><ele>432.0</ele><time>2026-04-12T12:34:44.96Z</time></trkpt><trkpt lat="40.6660917" lon="15.3342983"><ele>432.0</ele><time>2026-04-12T12:34:45.961Z</time></trkpt><trkpt lat="40.6660417" lon="15.334415"><ele>432.0</ele><time>2026-04-12T12:34:46.96Z</time></trkpt><trkpt lat="40.6659933" lon="15.33454"><ele>432.0</ele><time>2026-04-12T12:34:47.96Z</time></trkpt><trkpt lat="40.665935" lon="15.3346833"><ele>432.0</ele><time>2026-04-12T12:34:48.96Z</time></trkpt><trkpt lat="40.66587" lon="15.3348317"><ele>432.0</ele><time>2026-04-12T12:34:49.96Z</time></trkpt><trkpt lat="40.6658017" lon="15.3349867"><ele>432.0</ele><time>2026-04-12T12:34:50.96Z</time></trkpt><trkpt lat="40.66574" lon="15.3351333"><ele>432.0</ele><time>2026-04-12T12:34:51.96Z</time></trkpt><trkpt lat="40.665685" lon="15.335265"><ele>432.0</ele><time>2026-04-12T12:34:52.96Z</time></trkpt><trkpt lat="40.6656417" lon="15.33537"><ele>432.0</ele><time>2026-04-12T12:34:53.96Z</time></trkpt><trkpt lat="40.6655967" lon="15.3354733"><ele>432.00000000000006</ele><time>2026-04-12T12:34:55.96Z</time></trkpt><trkpt lat="40.66556" lon="15.33557"><ele>432.00000000000006</ele><time>2026-04-12T12:34:58.96Z</time></trkpt><trkpt lat="40.6655233" lon="15.3356583"><ele>432.0</ele><time>2026-04-12T12:35:00.96Z</time></trkpt><trkpt lat="40.66548" lon="15.33577"><ele>432.0</ele><time>2026-04-12T12:35:02.96Z</time></trkpt><trkpt lat="40.665415" lon="15.3358967"><ele>432.0</ele><time>2026-04-12T12:35:04.96Z</time></trkpt><trkpt lat="40.6653467" lon="15.33604"><ele>432.00000000000006</ele><time>2026-04-12T12:35:06.96Z</time></trkpt><trkpt lat="40.6653017" lon="15.33614"><ele>432.00000000000006</ele><time>2026-04-12T12:35:07.96Z</time></trkpt><trkpt lat="40.66525" lon="15.3362617"><ele>432.0</ele><time>2026-04-12T12:35:08.96Z</time></trkpt><trkpt lat="40.6652017" lon="15.3363817"><ele>432.0</ele><time>2026-04-12T12:35:09.96Z</time></trkpt><trkpt lat="40.6651617" lon="15.3364833"><ele>432.1666666666667</ele><time>2026-04-12T12:35:10.96Z</time></trkpt><trkpt lat="40.6651217" lon="15.3365683"><ele>432.33333333333337</ele><time>2026-04-12T12:35:11.96Z</time></trkpt><trkpt lat="40.665075" lon="15.3366767"><ele>432.5</ele><time>2026-04-12T12:35:13.96Z</time></trkpt><trkpt lat="40.6650367" lon="15.3367533"><ele>432.6666666666667</ele><time>2026-04-12T12:35:15.96Z</time></trkpt><trkpt lat="40.6650067" lon="15.3368417"><ele>432.83333333333337</ele><time>2026-04-12T12:35:17.96Z</time></trkpt><trkpt lat="40.6649633" lon="15.3369483"><ele>433.0</ele><time>2026-04-12T12:35:20.96Z</time></trkpt><trkpt lat="40.6649" lon="15.3370767"><ele>433.00000000000006</ele><time>2026-04-12T12:35:22.96Z</time></trkpt><trkpt lat="40.6648617" lon="15.337155"><ele>433.0</ele><time>2026-04-12T12:35:23.96Z</time></trkpt><trkpt lat="40.66483" lon="15.3372317"><ele>433.0</ele><time>2026-04-12T12:35:24.96Z</time></trkpt><trkpt lat="40.6647917" lon="15.3373467"><ele>433.0</ele><time>2026-04-12T12:35:26.96Z</time></trkpt><trkpt lat="40.664755" lon="15.3374233"><ele>433.00000000000006</ele><time>2026-04-12T12:35:28.961Z</time></trkpt><trkpt lat="40.6646683" lon="15.3374533"><ele>433.0</ele><time>2026-04-12T12:35:30.96Z</time></trkpt><trkpt lat="40.6646" lon="15.3374567"><ele>433.0</ele><time>2026-04-12T12:35:31.96Z</time></trkpt><trkpt lat="40.6645083" lon="15.3374617"><ele>432.99999999999994</ele><time>2026-04-12T12:35:32.96Z</time></trkpt><trkpt lat="40.66439" lon="15.337465"><ele>432.99999999999994</ele><time>2026-04-12T12:35:33.96Z</time></trkpt><trkpt lat="40.6642683" lon="15.3374633"><ele>433.0</ele><time>2026-04-12T12:35:34.96Z</time></trkpt><trkpt lat="40.6641533" lon="15.337465"><ele>433.0</ele><time>2026-04-12T12:35:35.96Z</time></trkpt><trkpt lat="40.6640417" lon="15.3374683"><ele>433.0</ele><time>2026-04-12T12:35:36.96Z</time></trkpt><trkpt lat="40.6639317" lon="15.3374783"><ele>432.99999999999994</ele><time>2026-04-12T12:35:37.96Z</time></trkpt><trkpt lat="40.663825" lon="15.3374933"><ele>432.99999999999994</ele><time>2026-04-12T12:35:38.96Z</time></trkpt><trkpt lat="40.6637267" lon="15.3375067"><ele>433.0</ele><time>2026-04-12T12:35:39.96Z</time></trkpt><trkpt lat="40.6636433" lon="15.337515"><ele>433.0</ele><time>2026-04-12T12:35:40.96Z</time></trkpt><trkpt lat="40.6635617" lon="15.33752"><ele>433.00000000000006</ele><time>2026-04-12T12:35:41.96Z</time></trkpt><trkpt lat="40.6634667" lon="15.3375233"><ele>433.0</ele><time>2026-04-12T12:35:42.96Z</time></trkpt><trkpt lat="40.663365" lon="15.337525"><ele>433.0</ele><time>2026-04-12T12:35:43.96Z</time></trkpt><trkpt lat="40.6632767" lon="15.337535"><ele>433.0</ele><time>2026-04-12T12:35:44.96Z</time></trkpt><trkpt lat="40.66319" lon="15.337545"><ele>433.00000000000006</ele><time>2026-04-12T12:35:45.96Z</time></trkpt><trkpt lat="40.6631183" lon="15.3375467"><ele>433.0</ele><time>2026-04-12T12:35:46.96Z</time></trkpt><trkpt lat="40.66305" lon="15.3375467"><ele>433.00000000000006</ele><time>2026-04-12T12:35:47.96Z</time></trkpt><trkpt lat="40.662985" lon="15.3375483"><ele>433.0</ele><time>2026-04-12T12:35:48.96Z</time></trkpt><trkpt lat="40.66291" lon="15.3375467"><ele>433.0</ele><time>2026-04-12T12:35:49.96Z</time></trkpt><trkpt lat="40.66282" lon="15.3375483"><ele>433.0</ele><time>2026-04-12T12:35:50.96Z</time></trkpt><trkpt lat="40.6627217" lon="15.3375533"><ele>433.00000000000006</ele><time>2026-04-12T12:35:51.96Z</time></trkpt><trkpt lat="40.66263" lon="15.3375667"><ele>433.0</ele><time>2026-04-12T12:35:52.96Z</time></trkpt><trkpt lat="40.6625617" lon="15.337575"><ele>433.0</ele><time>2026-04-12T12:35:53.96Z</time></trkpt><trkpt lat="40.6624733" lon="15.337595"><ele>432.99999999999994</ele><time>2026-04-12T12:35:55.96Z</time></trkpt><trkpt lat="40.6623833" lon="15.3375933"><ele>432.99999999999994</ele><time>2026-04-12T12:35:57.96Z</time></trkpt><trkpt lat="40.6622817" lon="15.3375683"><ele>433.0</ele><time>2026-04-12T12:35:59.96Z</time></trkpt><trkpt lat="40.6621633" lon="15.337545"><ele>433.0</ele><time>2026-04-12T12:36:01.96Z</time></trkpt><trkpt lat="40.66206" lon="15.3375433"><ele>433.0</ele><time>2026-04-12T12:36:03.96Z</time></trkpt><trkpt lat="40.661985" lon="15.3375483"><ele>432.99999999999994</ele><time>2026-04-12T12:36:05.96Z</time></trkpt><trkpt lat="40.66185" lon="15.3375617"><ele>432.99999999999994</ele><time>2026-04-12T12:36:07.96Z</time></trkpt><trkpt lat="40.6617583" lon="15.3375733"><ele>433.0</ele><time>2026-04-12T12:36:08.96Z</time></trkpt><trkpt lat="40.661665" lon="15.3375933"><ele>433.0</ele><time>2026-04-12T12:36:09.96Z</time></trkpt><trkpt lat="40.6615867" lon="15.33763"><ele>433.4</ele><time>2026-04-12T12:36:10.961Z</time></trkpt><trkpt lat="40.661515" lon="15.337695"><ele>433.79999999999995</ele><time>2026-04-12T12:36:11.96Z</time></trkpt><trkpt lat="40.66144" lon="15.3377717"><ele>434.2</ele><time>2026-04-12T12:36:12.96Z</time></trkpt><trkpt lat="40.6613717" lon="15.33785"><ele>434.6</ele><time>2026-04-12T12:36:13.96Z</time></trkpt><trkpt lat="40.6613017" lon="15.33793"><ele>435.0</ele><time>2026-04-12T12:36:14.96Z</time></trkpt><trkpt lat="40.6612317" lon="15.338025"><ele>435.0</ele><time>2026-04-12T12:36:15.96Z</time></trkpt><trkpt lat="40.6611667" lon="15.3381183"><ele>435.0</ele><time>2026-04-12T12:36:16.96Z</time></trkpt><trkpt lat="40.6611083" lon="15.338195"><ele>435.0</ele><time>2026-04-12T12:36:17.96Z</time></trkpt><trkpt lat="40.661055" lon="15.33827"><ele>435.0</ele><time>2026-04-12T12:36:18.96Z</time></trkpt><trkpt lat="40.660995" lon="15.3383567"><ele>435.0</ele><time>2026-04-12T12:36:19.96Z</time></trkpt><trkpt lat="40.66093" lon="15.3384533"><ele>435.0</ele><time>2026-04-12T12:36:20.96Z</time></trkpt><trkpt lat="40.6608717" lon="15.33855"><ele>435.1666666666667</ele><time>2026-04-12T12:36:21.96Z</time></trkpt><trkpt lat="40.660825" lon="15.3386217"><ele>435.33333333333337</ele><time>2026-04-12T12:36:22.96Z</time></trkpt><trkpt lat="40.66076" lon="15.3387217"><ele>435.5</ele><time>2026-04-12T12:36:24.96Z</time></trkpt><trkpt lat="40.6607133" lon="15.3387983"><ele>435.6666666666667</ele><time>2026-04-12T12:36:27.96Z</time></trkpt><trkpt lat="40.6606567" lon="15.3388833"><ele>435.83333333333337</ele><time>2026-04-12T12:36:30.96Z</time></trkpt><trkpt lat="40.6606033" lon="15.3389533"><ele>436.0</ele><time>2026-04-12T12:36:32.961Z</time></trkpt><trkpt lat="40.6605417" lon="15.3390333"><ele>436.0</ele><time>2026-04-12T12:36:34.96Z</time></trkpt><trkpt lat="40.66048" lon="15.339135"><ele>436.0</ele><time>2026-04-12T12:36:36.96Z</time></trkpt><trkpt lat="40.6604083" lon="15.3392383"><ele>436.0</ele><time>2026-04-12T12:36:38.96Z</time></trkpt><trkpt lat="40.6603667" lon="15.339315"><ele>436.0</ele><time>2026-04-12T12:36:39.961Z</time></trkpt><trkpt lat="40.6603117" lon="15.3394117"><ele>436.0</ele><time>2026-04-12T12:36:40.96Z</time></trkpt><trkpt lat="40.6602417" lon="15.3395383"><ele>436.0</ele><time>2026-04-12T12:36:41.96Z</time></trkpt><trkpt lat="40.6601717" lon="15.339665"><ele>436.0</ele><time>2026-04-12T12:36:42.96Z</time></trkpt><trkpt lat="40.6601133" lon="15.339775"><ele>436.0</ele><time>2026-04-12T12:36:43.96Z</time></trkpt><trkpt lat="40.660065" lon="15.3398667"><ele>436.0</ele><time>2026-04-12T12:36:44.96Z</time></trkpt><trkpt lat="40.6600217" lon="15.339945"><ele>436.0</ele><time>2026-04-12T12:36:45.96Z</time></trkpt><trkpt lat="40.65998" lon="15.340025"><ele>436.14285714285717</ele><time>2026-04-12T12:36:46.96Z</time></trkpt><trkpt lat="40.659945" lon="15.3401117"><ele>436.28571428571433</ele><time>2026-04-12T12:36:47.96Z</time></trkpt><trkpt lat="40.6599167" lon="15.3402067"><ele>436.42857142857144</ele><time>2026-04-12T12:36:48.96Z</time></trkpt><trkpt lat="40.65989" lon="15.34029"><ele>436.57142857142856</ele><time>2026-04-12T12:36:49.96Z</time></trkpt><trkpt lat="40.6598583" lon="15.3403683"><ele>436.7142857142857</ele><time>2026-04-12T12:36:50.96Z</time></trkpt><trkpt lat="40.6598217" lon="15.3404383"><ele>436.85714285714283</ele><time>2026-04-12T12:36:51.96Z</time></trkpt><trkpt lat="40.6597583" lon="15.3405167"><ele>437.0</ele><time>2026-04-12T12:36:52.96Z</time></trkpt><trkpt lat="40.65967" lon="15.3405983"><ele>437.20000000000005</ele><time>2026-04-12T12:36:53.96Z</time></trkpt><trkpt lat="40.659575" lon="15.3406767"><ele>437.40000000000003</ele><time>2026-04-12T12:36:54.96Z</time></trkpt><trkpt lat="40.6594867" lon="15.3407517"><ele>437.59999999999997</ele><time>2026-04-12T12:36:55.96Z</time></trkpt><trkpt lat="40.6594117" lon="15.3408167"><ele>437.79999999999995</ele><time>2026-04-12T12:36:56.96Z</time></trkpt><trkpt lat="40.6593433" lon="15.340895"><ele>438.0</ele><time>2026-04-12T12:36:57.96Z</time></trkpt><trkpt lat="40.6592783" lon="15.3409633"><ele>438.0</ele><time>2026-04-12T12:36:58.96Z</time></trkpt><trkpt lat="40.6591967" lon="15.341025"><ele>437.99999999999994</ele><time>2026-04-12T12:36:59.96Z</time></trkpt><trkpt lat="40.6591033" lon="15.3410917"><ele>437.99999999999994</ele><time>2026-04-12T12:37:00.96Z</time></trkpt><trkpt lat="40.6590183" lon="15.3411517"><ele>438.0</ele><time>2026-04-12T12:37:01.961Z</time></trkpt><trkpt lat="40.6589383" lon="15.341205"><ele>438.0</ele><time>2026-04-12T12:37:02.96Z</time></trkpt><trkpt lat="40.6588483" lon="15.3412583"><ele>438.0</ele><time>2026-04-12T12:37:03.961Z</time></trkpt><trkpt lat="40.6587617" lon="15.3413033"><ele>438.0</ele><time>2026-04-12T12:37:04.96Z</time></trkpt><trkpt lat="40.6586867" lon="15.34134"><ele>438.0</ele><time>2026-04-12T12:37:05.96Z</time></trkpt><trkpt lat="40.6586233" lon="15.3413733"><ele>438.0</ele><time>2026-04-12T12:37:06.96Z</time></trkpt><trkpt lat="40.6585567" lon="15.341425"><ele>438.0</ele><time>2026-04-12T12:37:08.96Z</time></trkpt><trkpt lat="40.658565" lon="15.3415083"><ele>438.0</ele><time>2026-04-12T12:37:12.96Z</time></trkpt><trkpt lat="40.6586617" lon="15.34161"><ele>438.25</ele><time>2026-04-12T12:37:38.96Z</time></trkpt><trkpt lat="40.65872" lon="15.3416983"><ele>438.5</ele><time>2026-04-12T12:37:39.96Z</time></trkpt><trkpt lat="40.6588183" lon="15.3418583"><ele>438.75</ele><time>2026-04-12T12:37:40.96Z</time></trkpt><trkpt lat="40.65894" lon="15.3420517"><ele>439.0</ele><time>2026-04-12T12:37:41.96Z</time></trkpt><trkpt lat="40.6590733" lon="15.3422467"><ele>438.6666666666667</ele><time>2026-04-12T12:37:42.96Z</time></trkpt><trkpt lat="40.65921" lon="15.3424317"><ele>438.33333333333337</ele><time>2026-04-12T12:37:43.96Z</time></trkpt><trkpt lat="40.659335" lon="15.34259"><ele>438.0</ele><time>2026-04-12T12:37:44.96Z</time></trkpt><trkpt lat="40.659455" lon="15.3427367"><ele>438.0</ele><time>2026-04-12T12:37:45.96Z</time></trkpt><trkpt lat="40.6595617" lon="15.3428783"><ele>438.0</ele><time>2026-04-12T12:37:46.96Z</time></trkpt><trkpt lat="40.6596633" lon="15.343005"><ele>438.0</ele><time>2026-04-12T12:37:47.961Z</time></trkpt><trkpt lat="40.659765" lon="15.3431283"><ele>438.0</ele><time>2026-04-12T12:37:48.96Z</time></trkpt><trkpt lat="40.6598567" lon="15.3432617"><ele>438.25</ele><time>2026-04-12T12:37:49.96Z</time></trkpt><trkpt lat="40.6599367" lon="15.3434"><ele>438.5</ele><time>2026-04-12T12:37:50.96Z</time></trkpt><trkpt lat="40.6600017" lon="15.3435483"><ele>438.75</ele><time>2026-04-12T12:37:51.96Z</time></trkpt><trkpt lat="40.6600633" lon="15.3436967"><ele>439.0</ele><time>2026-04-12T12:37:52.96Z</time></trkpt><trkpt lat="40.6601233" lon="15.3438483"><ele>439.75</ele><time>2026-04-12T12:37:53.96Z</time></trkpt><trkpt lat="40.66017" lon="15.3439983"><ele>440.5</ele><time>2026-04-12T12:37:54.96Z</time></trkpt><trkpt lat="40.6601983" lon="15.3441633"><ele>441.25</ele><time>2026-04-12T12:37:55.96Z</time></trkpt><trkpt lat="40.6602117" lon="15.3443317"><ele>442.0</ele><time>2026-04-12T12:37:56.96Z</time></trkpt><trkpt lat="40.6602317" lon="15.3444883"><ele>442.0</ele><time>2026-04-12T12:37:57.96Z</time></trkpt><trkpt lat="40.6602533" lon="15.3446483"><ele>442.0</ele><time>2026-04-12T12:37:58.96Z</time></trkpt><trkpt lat="40.6602783" lon="15.3448033"><ele>442.0</ele><time>2026-04-12T12:37:59.96Z</time></trkpt><trkpt lat="40.6603083" lon="15.3449667"><ele>442.0</ele><time>2026-04-12T12:38:00.96Z</time></trkpt><trkpt lat="40.6603367" lon="15.3451283"><ele>441.5</ele><time>2026-04-12T12:38:01.96Z</time></trkpt><trkpt lat="40.660375" lon="15.345295"><ele>441.0</ele><time>2026-04-12T12:38:02.96Z</time></trkpt><trkpt lat="40.6604117" lon="15.3454633"><ele>440.5</ele><time>2026-04-12T12:38:03.96Z</time></trkpt><trkpt lat="40.6604483" lon="15.3456283"><ele>440.0</ele><time>2026-04-12T12:38:04.96Z</time></trkpt><trkpt lat="40.6604683" lon="15.3457883"><ele>440.0</ele><time>2026-04-12T12:38:05.96Z</time></trkpt><trkpt lat="40.6604817" lon="15.3459383"><ele>440.0</ele><time>2026-04-12T12:38:06.96Z</time></trkpt><trkpt lat="40.6604767" lon="15.346085"><ele>440.0</ele><time>2026-04-12T12:38:07.96Z</time></trkpt><trkpt lat="40.66046" lon="15.3462317"><ele>440.0</ele><time>2026-04-12T12:38:08.96Z</time></trkpt><trkpt lat="40.660425" lon="15.3463867"><ele>440.0</ele><time>2026-04-12T12:38:09.96Z</time></trkpt><trkpt lat="40.660385" lon="15.34655"><ele>440.0</ele><time>2026-04-12T12:38:10.96Z</time></trkpt><trkpt lat="40.6603467" lon="15.3467083"><ele>440.0</ele><time>2026-04-12T12:38:11.96Z</time></trkpt><trkpt lat="40.66031" lon="15.3468817"><ele>440.0</ele><time>2026-04-12T12:38:12.96Z</time></trkpt><trkpt lat="40.6602867" lon="15.3470383"><ele>440.2</ele><time>2026-04-12T12:38:13.96Z</time></trkpt><trkpt lat="40.6602717" lon="15.3471767"><ele>440.4</ele><time>2026-04-12T12:38:14.96Z</time></trkpt><trkpt lat="40.660265" lon="15.3473"><ele>440.6</ele><time>2026-04-12T12:38:15.96Z</time></trkpt><trkpt lat="40.6602767" lon="15.3473917"><ele>440.8</ele><time>2026-04-12T12:38:16.96Z</time></trkpt><trkpt lat="40.6603467" lon="15.3475267"><ele>441.0</ele><time>2026-04-12T12:38:18.96Z</time></trkpt><trkpt lat="40.66045" lon="15.347645"><ele>441.0</ele><time>2026-04-12T12:38:20.959Z</time></trkpt><trkpt lat="40.660515" lon="15.3477317"><ele>441.0</ele><time>2026-04-12T12:38:21.96Z</time></trkpt><trkpt lat="40.66058" lon="15.34785"><ele>441.0</ele><time>2026-04-12T12:38:22.959Z</time></trkpt><trkpt lat="40.6606433" lon="15.3479883"><ele>441.0</ele><time>2026-04-12T12:38:23.959Z</time></trkpt><trkpt lat="40.6606983" lon="15.348145"><ele>441.0</ele><time>2026-04-12T12:38:24.959Z</time></trkpt><trkpt lat="40.6607567" lon="15.3483017"><ele>441.0</ele><time>2026-04-12T12:38:25.959Z</time></trkpt><trkpt lat="40.660815" lon="15.34845"><ele>441.0</ele><time>2026-04-12T12:38:26.959Z</time></trkpt><trkpt lat="40.660875" lon="15.3485917"><ele>441.0</ele><time>2026-04-12T12:38:27.959Z</time></trkpt><trkpt lat="40.6609483" lon="15.34873"><ele>441.0</ele><time>2026-04-12T12:38:28.959Z</time></trkpt><trkpt lat="40.66103" lon="15.3488683"><ele>441.0</ele><time>2026-04-12T12:38:29.959Z</time></trkpt><trkpt lat="40.6611067" lon="15.3490167"><ele>441.0</ele><time>2026-04-12T12:38:30.96Z</time></trkpt><trkpt lat="40.66117" lon="15.3491767"><ele>441.0</ele><time>2026-04-12T12:38:31.959Z</time></trkpt><trkpt lat="40.6612283" lon="15.349335"><ele>441.5</ele><time>2026-04-12T12:38:32.959Z</time></trkpt><trkpt lat="40.6612833" lon="15.3495017"><ele>442.0</ele><time>2026-04-12T12:38:33.959Z</time></trkpt><trkpt lat="40.6613383" lon="15.34968"><ele>442.5</ele><time>2026-04-12T12:38:34.959Z</time></trkpt><trkpt lat="40.6613883" lon="15.34986"><ele>443.0</ele><time>2026-04-12T12:38:35.959Z</time></trkpt><trkpt lat="40.6614417" lon="15.3500483"><ele>443.66666666666663</ele><time>2026-04-12T12:38:36.96Z</time></trkpt><trkpt lat="40.6615017" lon="15.3502383"><ele>444.33333333333337</ele><time>2026-04-12T12:38:37.959Z</time></trkpt><trkpt lat="40.6615583" lon="15.3504217"><ele>445.0</ele><time>2026-04-12T12:38:38.959Z</time></trkpt><trkpt lat="40.6616183" lon="15.3505983"><ele>445.5</ele><time>2026-04-12T12:38:39.959Z</time></trkpt><trkpt lat="40.6616783" lon="15.3507667"><ele>446.0</ele><time>2026-04-12T12:38:40.959Z</time></trkpt><trkpt lat="40.66174" lon="15.3509217"><ele>446.5</ele><time>2026-04-12T12:38:41.959Z</time></trkpt><trkpt lat="40.661795" lon="15.3510683"><ele>447.0</ele><time>2026-04-12T12:38:42.959Z</time></trkpt><trkpt lat="40.6618417" lon="15.3511983"><ele>447.0</ele><time>2026-04-12T12:38:43.959Z</time></trkpt><trkpt lat="40.66188" lon="15.351325"><ele>447.00000000000006</ele><time>2026-04-12T12:38:44.959Z</time></trkpt><trkpt lat="40.6619217" lon="15.3514383"><ele>447.00000000000006</ele><time>2026-04-12T12:38:45.959Z</time></trkpt><trkpt lat="40.6619617" lon="15.3515433"><ele>447.0</ele><time>2026-04-12T12:38:46.959Z</time></trkpt><trkpt lat="40.6620133" lon="15.351645"><ele>447.0</ele><time>2026-04-12T12:38:47.959Z</time></trkpt><trkpt lat="40.6620667" lon="15.35174"><ele>447.6</ele><time>2026-04-12T12:38:48.959Z</time></trkpt><trkpt lat="40.6621333" lon="15.3518283"><ele>448.20000000000005</ele><time>2026-04-12T12:38:49.959Z</time></trkpt><trkpt lat="40.6622033" lon="15.3519133"><ele>448.8</ele><time>2026-04-12T12:38:50.959Z</time></trkpt><trkpt lat="40.66227" lon="15.352005"><ele>449.4</ele><time>2026-04-12T12:38:51.959Z</time></trkpt><trkpt lat="40.6623333" lon="15.352115"><ele>450.0</ele><time>2026-04-12T12:38:52.959Z</time></trkpt><trkpt lat="40.6623917" lon="15.3522367"><ele>450.25</ele><time>2026-04-12T12:38:53.959Z</time></trkpt><trkpt lat="40.66245" lon="15.3523633"><ele>450.5</ele><time>2026-04-12T12:38:54.959Z</time></trkpt><trkpt lat="40.6625083" lon="15.3524967"><ele>450.75</ele><time>2026-04-12T12:38:55.959Z</time></trkpt><trkpt lat="40.6625683" lon="15.35264"><ele>451.0</ele><time>2026-04-12T12:38:56.959Z</time></trkpt><trkpt lat="40.6626333" lon="15.35279"><ele>451.0</ele><time>2026-04-12T12:38:57.959Z</time></trkpt><trkpt lat="40.6626933" lon="15.3529417"><ele>451.0</ele><time>2026-04-12T12:38:58.959Z</time></trkpt><trkpt lat="40.6627583" lon="15.3530833"><ele>451.0</ele><time>2026-04-12T12:38:59.959Z</time></trkpt><trkpt lat="40.6628133" lon="15.353215"><ele>451.0</ele><time>2026-04-12T12:39:00.959Z</time></trkpt><trkpt lat="40.6628667" lon="15.3533383"><ele>451.8</ele><time>2026-04-12T12:39:01.96Z</time></trkpt><trkpt lat="40.6629183" lon="15.35346"><ele>452.6</ele><time>2026-04-12T12:39:02.959Z</time></trkpt><trkpt lat="40.6629667" lon="15.3535717"><ele>453.4</ele><time>2026-04-12T12:39:03.959Z</time></trkpt><trkpt lat="40.6630167" lon="15.3536833"><ele>454.2</ele><time>2026-04-12T12:39:04.959Z</time></trkpt><trkpt lat="40.6630683" lon="15.353795"><ele>455.0</ele><time>2026-04-12T12:39:05.959Z</time></trkpt><trkpt lat="40.66312" lon="15.3539"><ele>455.4</ele><time>2026-04-12T12:39:06.959Z</time></trkpt><trkpt lat="40.6631717" lon="15.3540167"><ele>455.8</ele><time>2026-04-12T12:39:07.959Z</time></trkpt><trkpt lat="40.663225" lon="15.354125"><ele>456.20000000000005</ele><time>2026-04-12T12:39:08.959Z</time></trkpt><trkpt lat="40.66328" lon="15.3542367"><ele>456.6</ele><time>2026-04-12T12:39:09.959Z</time></trkpt><trkpt lat="40.66334" lon="15.35434"><ele>457.0</ele><time>2026-04-12T12:39:10.959Z</time></trkpt><trkpt lat="40.6634017" lon="15.3544417"><ele>457.00000000000006</ele><time>2026-04-12T12:39:11.959Z</time></trkpt><trkpt lat="40.6634617" lon="15.3545433"><ele>457.0</ele><time>2026-04-12T12:39:12.959Z</time></trkpt><trkpt lat="40.6635217" lon="15.3546333"><ele>457.0</ele><time>2026-04-12T12:39:13.959Z</time></trkpt><trkpt lat="40.6635767" lon="15.3547133"><ele>457.0</ele><time>2026-04-12T12:39:14.959Z</time></trkpt><trkpt lat="40.66363" lon="15.3547933"><ele>457.00000000000006</ele><time>2026-04-12T12:39:15.959Z</time></trkpt><trkpt lat="40.663675" lon="15.3548667"><ele>457.0</ele><time>2026-04-12T12:39:16.959Z</time></trkpt><trkpt lat="40.6637433" lon="15.3549517"><ele>458.0</ele><time>2026-04-12T12:39:18.959Z</time></trkpt><trkpt lat="40.663845" lon="15.3550217"><ele>459.00000000000006</ele><time>2026-04-12T12:39:21.959Z</time></trkpt><trkpt lat="40.6639083" lon="15.35507"><ele>460.00000000000006</ele><time>2026-04-12T12:39:22.959Z</time></trkpt><trkpt lat="40.66399" lon="15.355135"><ele>461.0</ele><time>2026-04-12T12:39:23.959Z</time></trkpt><trkpt lat="40.66409" lon="15.3552083"><ele>462.0</ele><time>2026-04-12T12:39:24.959Z</time></trkpt><trkpt lat="40.6641983" lon="15.3552967"><ele>462.0</ele><time>2026-04-12T12:39:25.959Z</time></trkpt><trkpt lat="40.664305" lon="15.3554"><ele>462.0</ele><time>2026-04-12T12:39:26.96Z</time></trkpt><trkpt lat="40.664415" lon="15.355505"><ele>462.0</ele><time>2026-04-12T12:39:27.959Z</time></trkpt><trkpt lat="40.6645267" lon="15.355605"><ele>462.0</ele><time>2026-04-12T12:39:28.959Z</time></trkpt><trkpt lat="40.6646367" lon="15.355705"><ele>463.0</ele><time>2026-04-12T12:39:29.959Z</time></trkpt><trkpt lat="40.6647433" lon="15.35581"><ele>464.0</ele><time>2026-04-12T12:39:30.959Z</time></trkpt><trkpt lat="40.664855" lon="15.355905"><ele>465.0</ele><time>2026-04-12T12:39:31.959Z</time></trkpt><trkpt lat="40.6649667" lon="15.3559933"><ele>466.0</ele><time>2026-04-12T12:39:32.959Z</time></trkpt><trkpt lat="40.6650883" lon="15.3560883"><ele>466.0</ele><time>2026-04-12T12:39:33.959Z</time></trkpt><trkpt lat="40.665215" lon="15.3561917"><ele>466.0</ele><time>2026-04-12T12:39:34.959Z</time></trkpt><trkpt lat="40.6653417" lon="15.356315"><ele>466.0</ele><time>2026-04-12T12:39:35.959Z</time></trkpt><trkpt lat="40.6654633" lon="15.3564383"><ele>467.6666666666667</ele><time>2026-04-12T12:39:36.959Z</time></trkpt><trkpt lat="40.6655817" lon="15.3565633"><ele>469.33333333333337</ele><time>2026-04-12T12:39:37.959Z</time></trkpt><trkpt lat="40.665695" lon="15.356695"><ele>471.0</ele><time>2026-04-12T12:39:38.959Z</time></trkpt><trkpt lat="40.6658033" lon="15.3568283"><ele>471.0</ele><time>2026-04-12T12:39:39.959Z</time></trkpt><trkpt lat="40.6659083" lon="15.35698"><ele>471.0</ele><time>2026-04-12T12:39:40.96Z</time></trkpt><trkpt lat="40.6659967" lon="15.3571483"><ele>471.0</ele><time>2026-04-12T12:39:41.959Z</time></trkpt><trkpt lat="40.6660833" lon="15.3573233"><ele>473.0</ele><time>2026-04-12T12:39:42.959Z</time></trkpt><trkpt lat="40.666185" lon="15.3574917"><ele>475.0</ele><time>2026-04-12T12:39:43.959Z</time></trkpt><trkpt lat="40.6662933" lon="15.357665"><ele>477.0</ele><time>2026-04-12T12:39:44.959Z</time></trkpt><trkpt lat="40.666405" lon="15.3578283"><ele>477.0</ele><time>2026-04-12T12:39:45.96Z</time></trkpt><trkpt lat="40.6664933" lon="15.35799"><ele>477.0</ele><time>2026-04-12T12:39:46.959Z</time></trkpt><trkpt lat="40.6665667" lon="15.3581533"><ele>477.0</ele><time>2026-04-12T12:39:47.959Z</time></trkpt><trkpt lat="40.6666283" lon="15.3583117"><ele>477.0</ele><time>2026-04-12T12:39:48.959Z</time></trkpt><trkpt lat="40.666695" lon="15.3584667"><ele>477.40000000000003</ele><time>2026-04-12T12:39:49.959Z</time></trkpt><trkpt lat="40.6667633" lon="15.3586033"><ele>477.80000000000007</ele><time>2026-04-12T12:39:50.959Z</time></trkpt><trkpt lat="40.666825" lon="15.3587"><ele>478.2</ele><time>2026-04-12T12:39:51.959Z</time></trkpt><trkpt lat="40.6668717" lon="15.3587733"><ele>478.6</ele><time>2026-04-12T12:39:52.959Z</time></trkpt><trkpt lat="40.6669183" lon="15.3588583"><ele>479.0</ele><time>2026-04-12T12:39:54.96Z</time></trkpt><trkpt lat="40.6668867" lon="15.3589933"><ele>479.0</ele><time>2026-04-12T12:39:56.959Z</time></trkpt><trkpt lat="40.666845" lon="15.3591017"><ele>479.0</ele><time>2026-04-12T12:39:57.959Z</time></trkpt><trkpt lat="40.66681" lon="15.3592383"><ele>479.0</ele><time>2026-04-12T12:39:58.959Z</time></trkpt><trkpt lat="40.66676" lon="15.3593867"><ele>479.0</ele><time>2026-04-12T12:39:59.959Z</time></trkpt><trkpt lat="40.66672" lon="15.3595433"><ele>479.0</ele><time>2026-04-12T12:40:00.959Z</time></trkpt><trkpt lat="40.6666867" lon="15.3596983"><ele>479.0</ele><time>2026-04-12T12:40:01.96Z</time></trkpt><trkpt lat="40.66665" lon="15.3598617"><ele>479.0</ele><time>2026-04-12T12:40:02.959Z</time></trkpt><trkpt lat="40.6666233" lon="15.3600383"><ele>479.0</ele><time>2026-04-12T12:40:03.959Z</time></trkpt><trkpt lat="40.666595" lon="15.360245"><ele>478.66666666666663</ele><time>2026-04-12T12:40:04.959Z</time></trkpt><trkpt lat="40.6665717" lon="15.3604683"><ele>478.33333333333337</ele><time>2026-04-12T12:40:05.959Z</time></trkpt><trkpt lat="40.66656" lon="15.3607"><ele>478.0</ele><time>2026-04-12T12:40:06.959Z</time></trkpt><trkpt lat="40.66655" lon="15.3609283"><ele>477.6666666666667</ele><time>2026-04-12T12:40:07.959Z</time></trkpt><trkpt lat="40.66654" lon="15.3611483"><ele>477.33333333333337</ele><time>2026-04-12T12:40:08.959Z</time></trkpt><trkpt lat="40.6665267" lon="15.3613683"><ele>477.0</ele><time>2026-04-12T12:40:09.959Z</time></trkpt><trkpt lat="40.666505" lon="15.3615783"><ele>477.0</ele><time>2026-04-12T12:40:10.959Z</time></trkpt><trkpt lat="40.6664733" lon="15.361795"><ele>477.0</ele><time>2026-04-12T12:40:11.959Z</time></trkpt><trkpt lat="40.6664333" lon="15.36202"><ele>477.0</ele><time>2026-04-12T12:40:12.959Z</time></trkpt><trkpt lat="40.6663933" lon="15.3622417"><ele>476.33333333333337</ele><time>2026-04-12T12:40:13.959Z</time></trkpt><trkpt lat="40.66636" lon="15.36246"><ele>475.6666666666667</ele><time>2026-04-12T12:40:14.959Z</time></trkpt><trkpt lat="40.6663467" lon="15.3626717"><ele>475.0</ele><time>2026-04-12T12:40:15.959Z</time></trkpt><trkpt lat="40.6663533" lon="15.362875"><ele>474.0</ele><time>2026-04-12T12:40:16.959Z</time></trkpt><trkpt lat="40.666375" lon="15.363065"><ele>473.0</ele><time>2026-04-12T12:40:17.959Z</time></trkpt><trkpt lat="40.666415" lon="15.3632617"><ele>472.0</ele><time>2026-04-12T12:40:18.959Z</time></trkpt><trkpt lat="40.6664633" lon="15.3634533"><ele>472.0</ele><time>2026-04-12T12:40:19.959Z</time></trkpt><trkpt lat="40.6665167" lon="15.3636467"><ele>472.0</ele><time>2026-04-12T12:40:20.959Z</time></trkpt><trkpt lat="40.66657" lon="15.36383"><ele>472.0</ele><time>2026-04-12T12:40:21.959Z</time></trkpt><trkpt lat="40.6666217" lon="15.3640183"><ele>472.0</ele><time>2026-04-12T12:40:22.959Z</time></trkpt><trkpt lat="40.6666567" lon="15.36421"><ele>472.0</ele><time>2026-04-12T12:40:23.959Z</time></trkpt><trkpt lat="40.6666783" lon="15.364405"><ele>472.0</ele><time>2026-04-12T12:40:24.96Z</time></trkpt><trkpt lat="40.6666767" lon="15.3645833"><ele>472.0</ele><time>2026-04-12T12:40:25.959Z</time></trkpt><trkpt lat="40.6666567" lon="15.3647567"><ele>472.0</ele><time>2026-04-12T12:40:26.959Z</time></trkpt><trkpt lat="40.666615" lon="15.36492"><ele>472.0</ele><time>2026-04-12T12:40:27.959Z</time></trkpt><trkpt lat="40.6665667" lon="15.3650767"><ele>472.0</ele><time>2026-04-12T12:40:28.959Z</time></trkpt><trkpt lat="40.666525" lon="15.365215"><ele>472.0</ele><time>2026-04-12T12:40:29.959Z</time></trkpt><trkpt lat="40.6664817" lon="15.3653283"><ele>472.00000000000006</ele><time>2026-04-12T12:40:30.959Z</time></trkpt><trkpt lat="40.666435" lon="15.3654267"><ele>472.0</ele><time>2026-04-12T12:40:31.959Z</time></trkpt><trkpt lat="40.6663783" lon="15.3655117"><ele>472.0</ele><time>2026-04-12T12:40:32.959Z</time></trkpt><trkpt lat="40.6663117" lon="15.3655883"><ele>472.0</ele><time>2026-04-12T12:40:33.96Z</time></trkpt><trkpt lat="40.6662467" lon="15.3656683"><ele>472.00000000000006</ele><time>2026-04-12T12:40:34.959Z</time></trkpt><trkpt lat="40.6661817" lon="15.3657417"><ele>472.0</ele><time>2026-04-12T12:40:35.959Z</time></trkpt><trkpt lat="40.6661167" lon="15.3658133"><ele>471.8</ele><time>2026-04-12T12:40:36.959Z</time></trkpt><trkpt lat="40.6660617" lon="15.3658833"><ele>471.6</ele><time>2026-04-12T12:40:37.959Z</time></trkpt><trkpt lat="40.6660083" lon="15.3659567"><ele>471.40000000000003</ele><time>2026-04-12T12:40:38.959Z</time></trkpt><trkpt lat="40.6659483" lon="15.36605"><ele>471.20000000000005</ele><time>2026-04-12T12:40:39.959Z</time></trkpt><trkpt lat="40.6658967" lon="15.3661633"><ele>471.0</ele><time>2026-04-12T12:40:40.959Z</time></trkpt><trkpt lat="40.66585" lon="15.3663033"><ele>471.25</ele><time>2026-04-12T12:40:41.959Z</time></trkpt><trkpt lat="40.66581" lon="15.3664683"><ele>471.5</ele><time>2026-04-12T12:40:42.959Z</time></trkpt><trkpt lat="40.6657767" lon="15.3666433"><ele>471.75</ele><time>2026-04-12T12:40:43.959Z</time></trkpt><trkpt lat="40.665745" lon="15.3668167"><ele>472.0</ele><time>2026-04-12T12:40:44.959Z</time></trkpt><trkpt lat="40.6657167" lon="15.3670033"><ele>473.0</ele><time>2026-04-12T12:40:45.959Z</time></trkpt><trkpt lat="40.6656933" lon="15.367205"><ele>474.0</ele><time>2026-04-12T12:40:46.959Z</time></trkpt><trkpt lat="40.665665" lon="15.3674083"><ele>475.0</ele><time>2026-04-12T12:40:47.959Z</time></trkpt><trkpt lat="40.6656367" lon="15.367615"><ele>475.0</ele><time>2026-04-12T12:40:48.959Z</time></trkpt><trkpt lat="40.6656117" lon="15.3678283"><ele>475.0</ele><time>2026-04-12T12:40:49.96Z</time></trkpt><trkpt lat="40.6655833" lon="15.3680383"><ele>475.0</ele><time>2026-04-12T12:40:50.959Z</time></trkpt><trkpt lat="40.6655533" lon="15.368255"><ele>475.6666666666667</ele><time>2026-04-12T12:40:51.959Z</time></trkpt><trkpt lat="40.6655217" lon="15.36848"><ele>476.33333333333337</ele><time>2026-04-12T12:40:52.959Z</time></trkpt><trkpt lat="40.6654933" lon="15.3687067"><ele>477.0</ele><time>2026-04-12T12:40:53.959Z</time></trkpt><trkpt lat="40.665465" lon="15.3689383"><ele>477.66666666666663</ele><time>2026-04-12T12:40:54.959Z</time></trkpt><trkpt lat="40.6654333" lon="15.3691667"><ele>478.3333333333333</ele><time>2026-04-12T12:40:55.959Z</time></trkpt><trkpt lat="40.6653983" lon="15.3693933"><ele>479.0</ele><time>2026-04-12T12:40:56.959Z</time></trkpt><trkpt lat="40.6653633" lon="15.36963"><ele>479.66666666666663</ele><time>2026-04-12T12:40:57.959Z</time></trkpt><trkpt lat="40.665335" lon="15.3698667"><ele>480.33333333333337</ele><time>2026-04-12T12:40:58.959Z</time></trkpt><trkpt lat="40.665285" lon="15.3700917"><ele>481.0</ele><time>2026-04-12T12:40:59.959Z</time></trkpt><trkpt lat="40.6652383" lon="15.37033"><ele>483.6666666666667</ele><time>2026-04-12T12:41:00.96Z</time></trkpt><trkpt lat="40.6651917" lon="15.370565"><ele>486.33333333333337</ele><time>2026-04-12T12:41:01.959Z</time></trkpt><trkpt lat="40.6651317" lon="15.3708"><ele>489.0</ele><time>2026-04-12T12:41:02.96Z</time></trkpt><trkpt lat="40.6650767" lon="15.3710433"><ele>489.0</ele><time>2026-04-12T12:41:03.959Z</time></trkpt><trkpt lat="40.6650417" lon="15.3712867"><ele>489.0</ele><time>2026-04-12T12:41:04.959Z</time></trkpt><trkpt lat="40.6650133" lon="15.3715267"><ele>489.0</ele><time>2026-04-12T12:41:05.959Z</time></trkpt><trkpt lat="40.6650017" lon="15.3717667"><ele>489.66666666666663</ele><time>2026-04-12T12:41:06.959Z</time></trkpt><trkpt lat="40.6650017" lon="15.37201"><ele>490.3333333333333</ele><time>2026-04-12T12:41:07.959Z</time></trkpt><trkpt lat="40.6650117" lon="15.3722533"><ele>491.0</ele><time>2026-04-12T12:41:08.959Z</time></trkpt><trkpt lat="40.6650083" lon="15.3724983"><ele>492.3333333333333</ele><time>2026-04-12T12:41:09.96Z</time></trkpt><trkpt lat="40.6650017" lon="15.3727433"><ele>493.66666666666663</ele><time>2026-04-12T12:41:10.959Z</time></trkpt><trkpt lat="40.6650017" lon="15.372985"><ele>495.0</ele><time>2026-04-12T12:41:11.96Z</time></trkpt><trkpt lat="40.6649967" lon="15.3732283"><ele>496.33333333333337</ele><time>2026-04-12T12:41:12.959Z</time></trkpt><trkpt lat="40.6649917" lon="15.3734733"><ele>497.6666666666667</ele><time>2026-04-12T12:41:13.959Z</time></trkpt><trkpt lat="40.6649683" lon="15.3737133"><ele>499.0</ele><time>2026-04-12T12:41:14.959Z</time></trkpt><trkpt lat="40.6649383" lon="15.3739517"><ele>500.33333333333337</ele><time>2026-04-12T12:41:15.959Z</time></trkpt><trkpt lat="40.6648983" lon="15.37418"><ele>501.66666666666663</ele><time>2026-04-12T12:41:16.959Z</time></trkpt><trkpt lat="40.6648617" lon="15.3744083"><ele>503.0</ele><time>2026-04-12T12:41:17.959Z</time></trkpt><trkpt lat="40.6648367" lon="15.3746383"><ele>504.66666666666663</ele><time>2026-04-12T12:41:18.959Z</time></trkpt><trkpt lat="40.6648133" lon="15.3748683"><ele>506.33333333333337</ele><time>2026-04-12T12:41:19.959Z</time></trkpt><trkpt lat="40.6647967" lon="15.3751033"><ele>508.0</ele><time>2026-04-12T12:41:20.959Z</time></trkpt><trkpt lat="40.6647917" lon="15.375335"><ele>508.6666666666667</ele><time>2026-04-12T12:41:21.959Z</time></trkpt><trkpt lat="40.6647833" lon="15.37556"><ele>509.33333333333337</ele><time>2026-04-12T12:41:22.959Z</time></trkpt><trkpt lat="40.6647717" lon="15.37579"><ele>510.0</ele><time>2026-04-12T12:41:23.959Z</time></trkpt><trkpt lat="40.6647667" lon="15.37602"><ele>510.0</ele><time>2026-04-12T12:41:24.959Z</time></trkpt><trkpt lat="40.664755" lon="15.3762433"><ele>510.0</ele><time>2026-04-12T12:41:25.959Z</time></trkpt><trkpt lat="40.66474" lon="15.3764683"><ele>510.0</ele><time>2026-04-12T12:41:26.96Z</time></trkpt><trkpt lat="40.6647167" lon="15.3766917"><ele>512.0</ele><time>2026-04-12T12:41:27.959Z</time></trkpt><trkpt lat="40.6646883" lon="15.3769133"><ele>514.0</ele><time>2026-04-12T12:41:28.959Z</time></trkpt><trkpt lat="40.664655" lon="15.37714"><ele>516.0</ele><time>2026-04-12T12:41:29.959Z</time></trkpt><trkpt lat="40.664625" lon="15.3773717"><ele>517.0</ele><time>2026-04-12T12:41:30.959Z</time></trkpt><trkpt lat="40.6645933" lon="15.3776067"><ele>518.0</ele><time>2026-04-12T12:41:31.959Z</time></trkpt><trkpt lat="40.66456" lon="15.3778417"><ele>519.0</ele><time>2026-04-12T12:41:32.959Z</time></trkpt><trkpt lat="40.66453" lon="15.378075"><ele>520.6666666666666</ele><time>2026-04-12T12:41:33.959Z</time></trkpt><trkpt lat="40.6645017" lon="15.3783067"><ele>522.3333333333333</ele><time>2026-04-12T12:41:34.959Z</time></trkpt><trkpt lat="40.6644783" lon="15.378535"><ele>524.0</ele><time>2026-04-12T12:41:35.96Z</time></trkpt><trkpt lat="40.6644467" lon="15.3787333"><ele>525.6666666666666</ele><time>2026-04-12T12:41:36.959Z</time></trkpt><trkpt lat="40.664395" lon="15.3789133"><ele>527.3333333333334</ele><time>2026-04-12T12:41:37.959Z</time></trkpt><trkpt lat="40.6643183" lon="15.37908"><ele>529.0</ele><time>2026-04-12T12:41:38.959Z</time></trkpt><trkpt lat="40.66421" lon="15.3792467"><ele>529.0</ele><time>2026-04-12T12:41:39.959Z</time></trkpt><trkpt lat="40.6640867" lon="15.379425"><ele>529.0</ele><time>2026-04-12T12:41:40.959Z</time></trkpt><trkpt lat="40.663955" lon="15.37961"><ele>529.0</ele><time>2026-04-12T12:41:41.959Z</time></trkpt><trkpt lat="40.6638117" lon="15.3797983"><ele>529.6666666666667</ele><time>2026-04-12T12:41:42.959Z</time></trkpt><trkpt lat="40.66367" lon="15.3799817"><ele>530.3333333333334</ele><time>2026-04-12T12:41:43.959Z</time></trkpt><trkpt lat="40.66354" lon="15.3801667"><ele>531.0</ele><time>2026-04-12T12:41:44.959Z</time></trkpt><trkpt lat="40.6634133" lon="15.380345"><ele>531.0</ele><time>2026-04-12T12:41:45.959Z</time></trkpt><trkpt lat="40.66329" lon="15.3805067"><ele>531.0</ele><time>2026-04-12T12:41:46.959Z</time></trkpt><trkpt lat="40.6631667" lon="15.3806817"><ele>531.0</ele><time>2026-04-12T12:41:47.959Z</time></trkpt><trkpt lat="40.6630617" lon="15.3808733"><ele>531.0</ele><time>2026-04-12T12:41:48.959Z</time></trkpt><trkpt lat="40.6629833" lon="15.3810983"><ele>531.0</ele><time>2026-04-12T12:41:49.959Z</time></trkpt><trkpt lat="40.6629033" lon="15.38134"><ele>531.0</ele><time>2026-04-12T12:41:50.959Z</time></trkpt><trkpt lat="40.6628267" lon="15.3815833"><ele>529.6666666666666</ele><time>2026-04-12T12:41:51.959Z</time></trkpt><trkpt lat="40.6627583" lon="15.3818333"><ele>528.3333333333333</ele><time>2026-04-12T12:41:52.959Z</time></trkpt><trkpt lat="40.66269" lon="15.3820867"><ele>527.0</ele><time>2026-04-12T12:41:53.959Z</time></trkpt><trkpt lat="40.6626133" lon="15.3823467"><ele>527.0</ele><time>2026-04-12T12:41:54.959Z</time></trkpt><trkpt lat="40.6625433" lon="15.3825983"><ele>527.0</ele><time>2026-04-12T12:41:55.959Z</time></trkpt><trkpt lat="40.6624733" lon="15.38284"><ele>527.0</ele><time>2026-04-12T12:41:56.959Z</time></trkpt><trkpt lat="40.662405" lon="15.3830717"><ele>527.3333333333333</ele><time>2026-04-12T12:41:57.959Z</time></trkpt><trkpt lat="40.6623383" lon="15.3833033"><ele>527.6666666666666</ele><time>2026-04-12T12:41:58.96Z</time></trkpt><trkpt lat="40.6622783" lon="15.38353"><ele>528.0</ele><time>2026-04-12T12:41:59.959Z</time></trkpt><trkpt lat="40.6622117" lon="15.3837467"><ele>528.6666666666666</ele><time>2026-04-12T12:42:00.959Z</time></trkpt><trkpt lat="40.6621517" lon="15.383955"><ele>529.3333333333333</ele><time>2026-04-12T12:42:01.96Z</time></trkpt><trkpt lat="40.6620917" lon="15.384165"><ele>530.0</ele><time>2026-04-12T12:42:02.959Z</time></trkpt><trkpt lat="40.6620417" lon="15.3843833"><ele>530.0</ele><time>2026-04-12T12:42:03.959Z</time></trkpt><trkpt lat="40.661995" lon="15.3846067"><ele>530.0</ele><time>2026-04-12T12:42:04.96Z</time></trkpt><trkpt lat="40.6619667" lon="15.38484"><ele>530.0</ele><time>2026-04-12T12:42:05.959Z</time></trkpt><trkpt lat="40.661945" lon="15.385085"><ele>528.3333333333333</ele><time>2026-04-12T12:42:06.959Z</time></trkpt><trkpt lat="40.66193" lon="15.385335"><ele>526.6666666666666</ele><time>2026-04-12T12:42:07.959Z</time></trkpt><trkpt lat="40.66191" lon="15.3855783"><ele>525.0</ele><time>2026-04-12T12:42:08.959Z</time></trkpt><trkpt lat="40.66189" lon="15.38581"><ele>524.3333333333334</ele><time>2026-04-12T12:42:09.959Z</time></trkpt><trkpt lat="40.66187" lon="15.3860383"><ele>523.6666666666667</ele><time>2026-04-12T12:42:10.959Z</time></trkpt><trkpt lat="40.6618583" lon="15.3862517"><ele>523.0</ele><time>2026-04-12T12:42:11.959Z</time></trkpt><trkpt lat="40.6618383" lon="15.3864617"><ele>522.6666666666667</ele><time>2026-04-12T12:42:12.959Z</time></trkpt><trkpt lat="40.6618067" lon="15.3866833"><ele>522.3333333333334</ele><time>2026-04-12T12:42:13.959Z</time></trkpt><trkpt lat="40.6617667" lon="15.386905"><ele>522.0</ele><time>2026-04-12T12:42:14.959Z</time></trkpt><trkpt lat="40.6617167" lon="15.3871383"><ele>522.0</ele><time>2026-04-12T12:42:15.959Z</time></trkpt><trkpt lat="40.6616633" lon="15.387385"><ele>522.0</ele><time>2026-04-12T12:42:16.959Z</time></trkpt><trkpt lat="40.6616" lon="15.3876317"><ele>522.0</ele><time>2026-04-12T12:42:17.959Z</time></trkpt><trkpt lat="40.6615267" lon="15.3878767"><ele>523.0</ele><time>2026-04-12T12:42:18.959Z</time></trkpt><trkpt lat="40.661465" lon="15.3881167"><ele>524.0</ele><time>2026-04-12T12:42:19.959Z</time></trkpt><trkpt lat="40.6613967" lon="15.38836"><ele>525.0</ele><time>2026-04-12T12:42:20.959Z</time></trkpt><trkpt lat="40.6613383" lon="15.3886"><ele>525.0</ele><time>2026-04-12T12:42:21.959Z</time></trkpt><trkpt lat="40.6612883" lon="15.3888367"><ele>525.0</ele><time>2026-04-12T12:42:22.959Z</time></trkpt><trkpt lat="40.6612317" lon="15.38907"><ele>525.0</ele><time>2026-04-12T12:42:23.959Z</time></trkpt><trkpt lat="40.6611767" lon="15.3893"><ele>526.0</ele><time>2026-04-12T12:42:24.96Z</time></trkpt><trkpt lat="40.661125" lon="15.3895283"><ele>527.0</ele><time>2026-04-12T12:42:25.959Z</time></trkpt><trkpt lat="40.6610667" lon="15.38975"><ele>528.0</ele><time>2026-04-12T12:42:26.959Z</time></trkpt><trkpt lat="40.6610067" lon="15.389975"><ele>528.0</ele><time>2026-04-12T12:42:27.959Z</time></trkpt><trkpt lat="40.6609283" lon="15.39019"><ele>528.0</ele><time>2026-04-12T12:42:28.959Z</time></trkpt><trkpt lat="40.660845" lon="15.3904167"><ele>528.0</ele><time>2026-04-12T12:42:29.959Z</time></trkpt><trkpt lat="40.6607517" lon="15.3906367"><ele>530.6666666666666</ele><time>2026-04-12T12:42:30.959Z</time></trkpt><trkpt lat="40.6606583" lon="15.390855"><ele>533.3333333333333</ele><time>2026-04-12T12:42:31.959Z</time></trkpt><trkpt lat="40.660575" lon="15.3910667"><ele>536.0</ele><time>2026-04-12T12:42:32.959Z</time></trkpt><trkpt lat="40.6604983" lon="15.391275"><ele>538.3333333333333</ele><time>2026-04-12T12:42:33.959Z</time></trkpt><trkpt lat="40.6604417" lon="15.39149"><ele>540.6666666666666</ele><time>2026-04-12T12:42:34.959Z</time></trkpt><trkpt lat="40.660395" lon="15.3917233"><ele>543.0</ele><time>2026-04-12T12:42:35.959Z</time></trkpt><trkpt lat="40.6603533" lon="15.3919717"><ele>544.0</ele><time>2026-04-12T12:42:36.959Z</time></trkpt><trkpt lat="40.6603183" lon="15.3922217"><ele>545.0</ele><time>2026-04-12T12:42:37.959Z</time></trkpt><trkpt lat="40.6602917" lon="15.392475"><ele>546.0</ele><time>2026-04-12T12:42:38.959Z</time></trkpt><trkpt lat="40.6602633" lon="15.3927233"><ele>541.6666666666666</ele><time>2026-04-12T12:42:39.959Z</time></trkpt><trkpt lat="40.6602467" lon="15.39295"><ele>537.3333333333333</ele><time>2026-04-12T12:42:40.959Z</time></trkpt><trkpt lat="40.6602217" lon="15.393165"><ele>533.0</ele><time>2026-04-12T12:42:41.959Z</time></trkpt><trkpt lat="40.6601967" lon="15.393365"><ele>533.0</ele><time>2026-04-12T12:42:42.959Z</time></trkpt><trkpt lat="40.6601767" lon="15.3935667"><ele>533.0</ele><time>2026-04-12T12:42:43.959Z</time></trkpt><trkpt lat="40.6601617" lon="15.3937817"><ele>533.0</ele><time>2026-04-12T12:42:44.959Z</time></trkpt><trkpt lat="40.6601417" lon="15.393995"><ele>534.0</ele><time>2026-04-12T12:42:45.96Z</time></trkpt><trkpt lat="40.6601183" lon="15.394215"><ele>535.0</ele><time>2026-04-12T12:42:46.959Z</time></trkpt><trkpt lat="40.6600917" lon="15.394435"><ele>536.0</ele><time>2026-04-12T12:42:47.959Z</time></trkpt><trkpt lat="40.6600667" lon="15.3946517"><ele>537.6666666666666</ele><time>2026-04-12T12:42:48.959Z</time></trkpt><trkpt lat="40.6600433" lon="15.3948617"><ele>539.3333333333334</ele><time>2026-04-12T12:42:49.96Z</time></trkpt><trkpt lat="40.66003" lon="15.3950633"><ele>541.0</ele><time>2026-04-12T12:42:50.959Z</time></trkpt><trkpt lat="40.6600133" lon="15.3952517"><ele>541.0</ele><time>2026-04-12T12:42:51.959Z</time></trkpt><trkpt lat="40.66" lon="15.3954367"><ele>541.0</ele><time>2026-04-12T12:42:52.959Z</time></trkpt><trkpt lat="40.65997" lon="15.3956183"><ele>541.0</ele><time>2026-04-12T12:42:53.959Z</time></trkpt><trkpt lat="40.6599133" lon="15.3957917"><ele>541.0</ele><time>2026-04-12T12:42:54.959Z</time></trkpt><trkpt lat="40.6598567" lon="15.395935"><ele>541.2</ele><time>2026-04-12T12:42:55.959Z</time></trkpt><trkpt lat="40.6597967" lon="15.39605"><ele>541.4000000000001</ele><time>2026-04-12T12:42:56.959Z</time></trkpt><trkpt lat="40.6597467" lon="15.396135"><ele>541.6</ele><time>2026-04-12T12:42:57.959Z</time></trkpt><trkpt lat="40.65969" lon="15.3961933"><ele>541.8000000000001</ele><time>2026-04-12T12:42:58.959Z</time></trkpt><trkpt lat="40.6595817" lon="15.396255"><ele>542.0</ele><time>2026-04-12T12:43:00.959Z</time></trkpt><trkpt lat="40.6595083" lon="15.3962617"><ele>540.25</ele><time>2026-04-12T12:43:01.959Z</time></trkpt><trkpt lat="40.6594183" lon="15.3962717"><ele>538.5</ele><time>2026-04-12T12:43:02.959Z</time></trkpt><trkpt lat="40.6593117" lon="15.3962783"><ele>536.75</ele><time>2026-04-12T12:43:03.959Z</time></trkpt><trkpt lat="40.6591883" lon="15.3962917"><ele>535.0</ele><time>2026-04-12T12:43:04.959Z</time></trkpt><trkpt lat="40.65905" lon="15.39631"><ele>535.0</ele><time>2026-04-12T12:43:05.959Z</time></trkpt><trkpt lat="40.6589117" lon="15.3963183"><ele>535.0</ele><time>2026-04-12T12:43:06.959Z</time></trkpt><trkpt lat="40.65877" lon="15.3963367"><ele>535.0</ele><time>2026-04-12T12:43:07.959Z</time></trkpt><trkpt lat="40.6586217" lon="15.39635"><ele>535.0</ele><time>2026-04-12T12:43:08.959Z</time></trkpt><trkpt lat="40.6584717" lon="15.3963617"><ele>536.0</ele><time>2026-04-12T12:43:09.959Z</time></trkpt><trkpt lat="40.6583267" lon="15.39639"><ele>537.0</ele><time>2026-04-12T12:43:10.959Z</time></trkpt><trkpt lat="40.65817" lon="15.3963917"><ele>538.0</ele><time>2026-04-12T12:43:11.959Z</time></trkpt><trkpt lat="40.6580233" lon="15.39641"><ele>538.0</ele><time>2026-04-12T12:43:12.959Z</time></trkpt><trkpt lat="40.65787" lon="15.3964333"><ele>538.0</ele><time>2026-04-12T12:43:13.958Z</time></trkpt><trkpt lat="40.6577083" lon="15.3964733"><ele>538.0</ele><time>2026-04-12T12:43:14.958Z</time></trkpt><trkpt lat="40.6575383" lon="15.3965267"><ele>538.3333333333334</ele><time>2026-04-12T12:43:15.958Z</time></trkpt><trkpt lat="40.6573733" lon="15.3965883"><ele>538.6666666666666</ele><time>2026-04-12T12:43:16.958Z</time></trkpt><trkpt lat="40.6572233" lon="15.3966533"><ele>539.0</ele><time>2026-04-12T12:43:17.958Z</time></trkpt><trkpt lat="40.6570883" lon="15.3967133"><ele>539.0</ele><time>2026-04-12T12:43:18.958Z</time></trkpt><trkpt lat="40.6569633" lon="15.3967733"><ele>539.0</ele><time>2026-04-12T12:43:19.958Z</time></trkpt><trkpt lat="40.6568467" lon="15.3968333"><ele>539.0</ele><time>2026-04-12T12:43:20.958Z</time></trkpt><trkpt lat="40.6567367" lon="15.3968867"><ele>539.0</ele><time>2026-04-12T12:43:21.958Z</time></trkpt><trkpt lat="40.65663" lon="15.396935"><ele>539.4</ele><time>2026-04-12T12:43:22.958Z</time></trkpt><trkpt lat="40.656525" lon="15.396965"><ele>539.8</ele><time>2026-04-12T12:43:23.958Z</time></trkpt><trkpt lat="40.6564317" lon="15.396985"><ele>540.2</ele><time>2026-04-12T12:43:24.958Z</time></trkpt><trkpt lat="40.65634" lon="15.3969783"><ele>540.6</ele><time>2026-04-12T12:43:25.958Z</time></trkpt><trkpt lat="40.65625" lon="15.396935"><ele>541.0</ele><time>2026-04-12T12:43:26.958Z</time></trkpt><trkpt lat="40.656185" lon="15.3968633"><ele>541.0</ele><time>2026-04-12T12:43:27.958Z</time></trkpt><trkpt lat="40.6561417" lon="15.3967667"><ele>541.0</ele><time>2026-04-12T12:43:28.958Z</time></trkpt><trkpt lat="40.656115" lon="15.3966417"><ele>541.0</ele><time>2026-04-12T12:43:29.958Z</time></trkpt><trkpt lat="40.656095" lon="15.3964967"><ele>541.0</ele><time>2026-04-12T12:43:30.958Z</time></trkpt><trkpt lat="40.65607" lon="15.3963267"><ele>541.0</ele><time>2026-04-12T12:43:31.958Z</time></trkpt><trkpt lat="40.6560367" lon="15.3961367"><ele>543.3333333333334</ele><time>2026-04-12T12:43:32.958Z</time></trkpt><trkpt lat="40.6559933" lon="15.3959383"><ele>545.6666666666666</ele><time>2026-04-12T12:43:33.958Z</time></trkpt><trkpt lat="40.6559567" lon="15.395735"><ele>548.0</ele><time>2026-04-12T12:43:34.958Z</time></trkpt><trkpt lat="40.6559217" lon="15.3955267"><ele>549.0</ele><time>2026-04-12T12:43:35.958Z</time></trkpt><trkpt lat="40.65589" lon="15.3953217"><ele>550.0</ele><time>2026-04-12T12:43:36.958Z</time></trkpt><trkpt lat="40.655845" lon="15.3951183"><ele>551.0</ele><time>2026-04-12T12:43:37.958Z</time></trkpt><trkpt lat="40.6557817" lon="15.3949383"><ele>551.0</ele><time>2026-04-12T12:43:38.958Z</time></trkpt><trkpt lat="40.6557" lon="15.3947733"><ele>551.0</ele><time>2026-04-12T12:43:39.958Z</time></trkpt><trkpt lat="40.6555867" lon="15.3946267"><ele>551.0</ele><time>2026-04-12T12:43:40.958Z</time></trkpt><trkpt lat="40.65546" lon="15.3944883"><ele>549.75</ele><time>2026-04-12T12:43:41.958Z</time></trkpt><trkpt lat="40.6553583" lon="15.394355"><ele>548.5</ele><time>2026-04-12T12:43:42.958Z</time></trkpt><trkpt lat="40.65529" lon="15.3942033"><ele>547.25</ele><time>2026-04-12T12:43:43.958Z</time></trkpt><trkpt lat="40.6552433" lon="15.3940317"><ele>546.0</ele><time>2026-04-12T12:43:44.958Z</time></trkpt><trkpt lat="40.655225" lon="15.3938433"><ele>545.6666666666666</ele><time>2026-04-12T12:43:45.959Z</time></trkpt><trkpt lat="40.65524" lon="15.3936433"><ele>545.3333333333333</ele><time>2026-04-12T12:43:46.958Z</time></trkpt><trkpt lat="40.6552683" lon="15.3934367"><ele>545.0</ele><time>2026-04-12T12:43:47.958Z</time></trkpt><trkpt lat="40.655305" lon="15.3932267"><ele>545.0</ele><time>2026-04-12T12:43:48.958Z</time></trkpt><trkpt lat="40.6553333" lon="15.3930267"><ele>545.0</ele><time>2026-04-12T12:43:49.959Z</time></trkpt><trkpt lat="40.6553667" lon="15.3928183"><ele>545.0</ele><time>2026-04-12T12:43:50.958Z</time></trkpt><trkpt lat="40.6553983" lon="15.3926067"><ele>546.0</ele><time>2026-04-12T12:43:51.958Z</time></trkpt><trkpt lat="40.6554317" lon="15.3923833"><ele>547.0</ele><time>2026-04-12T12:43:52.958Z</time></trkpt><trkpt lat="40.65547" lon="15.3921517"><ele>548.0</ele><time>2026-04-12T12:43:53.958Z</time></trkpt><trkpt lat="40.6555133" lon="15.391915"><ele>550.3333333333333</ele><time>2026-04-12T12:43:54.958Z</time></trkpt><trkpt lat="40.6555533" lon="15.3916767"><ele>552.6666666666666</ele><time>2026-04-12T12:43:55.959Z</time></trkpt><trkpt lat="40.6555783" lon="15.3914317"><ele>555.0</ele><time>2026-04-12T12:43:56.958Z</time></trkpt><trkpt lat="40.655585" lon="15.3911783"><ele>557.6666666666666</ele><time>2026-04-12T12:43:57.958Z</time></trkpt><trkpt lat="40.65558" lon="15.3909383"><ele>560.3333333333333</ele><time>2026-04-12T12:43:58.958Z</time></trkpt><trkpt lat="40.6555683" lon="15.3906967"><ele>563.0</ele><time>2026-04-12T12:43:59.958Z</time></trkpt><trkpt lat="40.6555317" lon="15.3904567"><ele>563.3333333333333</ele><time>2026-04-12T12:44:00.958Z</time></trkpt><trkpt lat="40.6554717" lon="15.3902117"><ele>563.6666666666666</ele><time>2026-04-12T12:44:01.958Z</time></trkpt><trkpt lat="40.655405" lon="15.389985"><ele>564.0</ele><time>2026-04-12T12:44:02.958Z</time></trkpt><trkpt lat="40.6553467" lon="15.3897867"><ele>563.0</ele><time>2026-04-12T12:44:03.958Z</time></trkpt><trkpt lat="40.6552933" lon="15.389615"><ele>562.0</ele><time>2026-04-12T12:44:04.959Z</time></trkpt><trkpt lat="40.655235" lon="15.3894667"><ele>561.0</ele><time>2026-04-12T12:44:05.958Z</time></trkpt><trkpt lat="40.6551583" lon="15.3893517"><ele>560.0</ele><time>2026-04-12T12:44:06.958Z</time></trkpt><trkpt lat="40.6550517" lon="15.3892817"><ele>563.0</ele><time>2026-04-12T12:44:07.958Z</time></trkpt><trkpt lat="40.6549317" lon="15.3892483"><ele>566.0</ele><time>2026-04-12T12:44:08.958Z</time></trkpt><trkpt lat="40.6547817" lon="15.3892533"><ele>569.0</ele><time>2026-04-12T12:44:09.958Z</time></trkpt><trkpt lat="40.65463" lon="15.3892733"><ele>572.0</ele><time>2026-04-12T12:44:10.958Z</time></trkpt><trkpt lat="40.6544667" lon="15.3892533"><ele>575.6666666666666</ele><time>2026-04-12T12:44:11.958Z</time></trkpt><trkpt lat="40.6543033" lon="15.3891933"><ele>579.3333333333334</ele><time>2026-04-12T12:44:12.958Z</time></trkpt><trkpt lat="40.6541517" lon="15.3890983"><ele>583.0</ele><time>2026-04-12T12:44:13.958Z</time></trkpt><trkpt lat="40.654005" lon="15.3889767"><ele>583.0</ele><time>2026-04-12T12:44:14.958Z</time></trkpt><trkpt lat="40.6538733" lon="15.388845"><ele>583.0</ele><time>2026-04-12T12:44:15.958Z</time></trkpt><trkpt lat="40.6537683" lon="15.3886967"><ele>583.0</ele><time>2026-04-12T12:44:16.958Z</time></trkpt><trkpt lat="40.6537017" lon="15.388535"><ele>581.0</ele><time>2026-04-12T12:44:17.958Z</time></trkpt><trkpt lat="40.6536667" lon="15.38836"><ele>579.0</ele><time>2026-04-12T12:44:18.959Z</time></trkpt><trkpt lat="40.6536617" lon="15.3881717"><ele>577.0</ele><time>2026-04-12T12:44:19.958Z</time></trkpt><trkpt lat="40.6536483" lon="15.3879883"><ele>575.0</ele><time>2026-04-12T12:44:20.958Z</time></trkpt><trkpt lat="40.6536383" lon="15.3878067"><ele>579.75</ele><time>2026-04-12T12:44:21.958Z</time></trkpt><trkpt lat="40.653605" lon="15.3876283"><ele>584.5</ele><time>2026-04-12T12:44:22.959Z</time></trkpt><trkpt lat="40.653545" lon="15.3874717"><ele>589.25</ele><time>2026-04-12T12:44:23.958Z</time></trkpt><trkpt lat="40.65345" lon="15.38734"><ele>594.0</ele><time>2026-04-12T12:44:24.958Z</time></trkpt><trkpt lat="40.6533217" lon="15.3872417"><ele>592.25</ele><time>2026-04-12T12:44:25.958Z</time></trkpt><trkpt lat="40.6531833" lon="15.387145"><ele>590.5</ele><time>2026-04-12T12:44:26.958Z</time></trkpt><trkpt lat="40.6530567" lon="15.3870483"><ele>588.75</ele><time>2026-04-12T12:44:27.958Z</time></trkpt><trkpt lat="40.6529367" lon="15.3869417"><ele>587.0</ele><time>2026-04-12T12:44:28.958Z</time></trkpt><trkpt lat="40.65282" lon="15.38685"><ele>589.0</ele><time>2026-04-12T12:44:29.958Z</time></trkpt><trkpt lat="40.6526983" lon="15.3867933"><ele>591.0</ele><time>2026-04-12T12:44:30.958Z</time></trkpt><trkpt lat="40.65257" lon="15.3867733"><ele>593.0</ele><time>2026-04-12T12:44:31.958Z</time></trkpt><trkpt lat="40.6524367" lon="15.386795"><ele>595.0</ele><time>2026-04-12T12:44:32.958Z</time></trkpt><trkpt lat="40.6522883" lon="15.3868617"><ele>595.0</ele><time>2026-04-12T12:44:33.958Z</time></trkpt><trkpt lat="40.65214" lon="15.38695"><ele>595.0</ele><time>2026-04-12T12:44:34.958Z</time></trkpt><trkpt lat="40.6519883" lon="15.3870417"><ele>595.0</ele><time>2026-04-12T12:44:35.958Z</time></trkpt><trkpt lat="40.6518317" lon="15.387125"><ele>598.3333333333334</ele><time>2026-04-12T12:44:36.958Z</time></trkpt><trkpt lat="40.6516583" lon="15.387215"><ele>601.6666666666666</ele><time>2026-04-12T12:44:37.958Z</time></trkpt><trkpt lat="40.6514767" lon="15.3873233"><ele>605.0</ele><time>2026-04-12T12:44:38.958Z</time></trkpt><trkpt lat="40.6512917" lon="15.3874283"><ele>602.0</ele><time>2026-04-12T12:44:39.958Z</time></trkpt><trkpt lat="40.6511" lon="15.3875133"><ele>599.0</ele><time>2026-04-12T12:44:40.958Z</time></trkpt><trkpt lat="40.6509033" lon="15.38759"><ele>596.0</ele><time>2026-04-12T12:44:41.958Z</time></trkpt><trkpt lat="40.6507117" lon="15.3876683"><ele>596.0</ele><time>2026-04-12T12:44:42.958Z</time></trkpt><trkpt lat="40.65054" lon="15.3877517"><ele>596.0</ele><time>2026-04-12T12:44:43.959Z</time></trkpt><trkpt lat="40.6503867" lon="15.3878283"><ele>596.0</ele><time>2026-04-12T12:44:44.958Z</time></trkpt><trkpt lat="40.650255" lon="15.387875"><ele>598.25</ele><time>2026-04-12T12:44:45.958Z</time></trkpt><trkpt lat="40.650125" lon="15.3879"><ele>600.5</ele><time>2026-04-12T12:44:46.958Z</time></trkpt><trkpt lat="40.6500117" lon="15.3878683"><ele>602.75</ele><time>2026-04-12T12:44:47.958Z</time></trkpt><trkpt lat="40.64993" lon="15.387785"><ele>605.0</ele><time>2026-04-12T12:44:48.958Z</time></trkpt><trkpt lat="40.6498833" lon="15.38766"><ele>605.0</ele><time>2026-04-12T12:44:49.959Z</time></trkpt><trkpt lat="40.6498733" lon="15.3875133"><ele>605.0</ele><time>2026-04-12T12:44:50.958Z</time></trkpt><trkpt lat="40.6498983" lon="15.3873417"><ele>605.0</ele><time>2026-04-12T12:44:51.958Z</time></trkpt><trkpt lat="40.64994" lon="15.38716"><ele>605.0</ele><time>2026-04-12T12:44:52.958Z</time></trkpt><trkpt lat="40.6499867" lon="15.3869467"><ele>604.3333333333333</ele><time>2026-04-12T12:44:53.958Z</time></trkpt><trkpt lat="40.6500367" lon="15.3867267"><ele>603.6666666666666</ele><time>2026-04-12T12:44:54.958Z</time></trkpt><trkpt lat="40.6500817" lon="15.3864883"><ele>603.0</ele><time>2026-04-12T12:44:55.958Z</time></trkpt><trkpt lat="40.6501167" lon="15.3862367"><ele>603.0</ele><time>2026-04-12T12:44:56.958Z</time></trkpt><trkpt lat="40.65016" lon="15.38599"><ele>603.0</ele><time>2026-04-12T12:44:57.958Z</time></trkpt><trkpt lat="40.6501817" lon="15.38573"><ele>603.0</ele><time>2026-04-12T12:44:58.958Z</time></trkpt><trkpt lat="40.6501883" lon="15.3854683"><ele>605.0</ele><time>2026-04-12T12:44:59.958Z</time></trkpt><trkpt lat="40.6502033" lon="15.3852217"><ele>607.0</ele><time>2026-04-12T12:45:00.958Z</time></trkpt><trkpt lat="40.6502433" lon="15.38499"><ele>609.0</ele><time>2026-04-12T12:45:01.958Z</time></trkpt><trkpt lat="40.6502833" lon="15.38478"><ele>608.6666666666666</ele><time>2026-04-12T12:45:02.958Z</time></trkpt><trkpt lat="40.650305" lon="15.38456"><ele>608.3333333333333</ele><time>2026-04-12T12:45:03.958Z</time></trkpt><trkpt lat="40.650285" lon="15.3843267"><ele>608.0</ele><time>2026-04-12T12:45:04.959Z</time></trkpt><trkpt lat="40.65024" lon="15.3840817"><ele>607.6666666666666</ele><time>2026-04-12T12:45:05.958Z</time></trkpt><trkpt lat="40.6501933" lon="15.3838417"><ele>607.3333333333334</ele><time>2026-04-12T12:45:06.958Z</time></trkpt><trkpt lat="40.6501533" lon="15.3836033"><ele>607.0</ele><time>2026-04-12T12:45:07.959Z</time></trkpt><trkpt lat="40.6501217" lon="15.3833667"><ele>607.0</ele><time>2026-04-12T12:45:08.958Z</time></trkpt><trkpt lat="40.65013" lon="15.3831333"><ele>607.0</ele><time>2026-04-12T12:45:09.958Z</time></trkpt><trkpt lat="40.650155" lon="15.38292"><ele>607.0</ele><time>2026-04-12T12:45:10.958Z</time></trkpt><trkpt lat="40.65019" lon="15.3827183"><ele>606.25</ele><time>2026-04-12T12:45:11.958Z</time></trkpt><trkpt lat="40.6502183" lon="15.3825467"><ele>605.5</ele><time>2026-04-12T12:45:12.959Z</time></trkpt><trkpt lat="40.65022" lon="15.38239"><ele>604.75</ele><time>2026-04-12T12:45:13.958Z</time></trkpt><trkpt lat="40.650185" lon="15.38225"><ele>604.0</ele><time>2026-04-12T12:45:14.958Z</time></trkpt><trkpt lat="40.6501267" lon="15.3821517"><ele>604.0</ele><time>2026-04-12T12:45:15.958Z</time></trkpt><trkpt lat="40.6500467" lon="15.38212"><ele>604.0</ele><time>2026-04-12T12:45:16.958Z</time></trkpt><trkpt lat="40.6499583" lon="15.38214"><ele>604.0</ele><time>2026-04-12T12:45:17.958Z</time></trkpt><trkpt lat="40.649855" lon="15.382185"><ele>604.0</ele><time>2026-04-12T12:45:18.958Z</time></trkpt><trkpt lat="40.6497417" lon="15.382245"><ele>604.0</ele><time>2026-04-12T12:45:19.958Z</time></trkpt><trkpt lat="40.6496117" lon="15.382305"><ele>604.0</ele><time>2026-04-12T12:45:20.958Z</time></trkpt><trkpt lat="40.6494733" lon="15.382395"><ele>604.0</ele><time>2026-04-12T12:45:21.958Z</time></trkpt><trkpt lat="40.6493467" lon="15.3824983"><ele>604.0</ele><time>2026-04-12T12:45:22.958Z</time></trkpt><trkpt lat="40.6492333" lon="15.382595"><ele>604.0</ele><time>2026-04-12T12:45:23.958Z</time></trkpt><trkpt lat="40.6491133" lon="15.382665"><ele>604.0</ele><time>2026-04-12T12:45:24.958Z</time></trkpt><trkpt lat="40.6489917" lon="15.3826683"><ele>604.0</ele><time>2026-04-12T12:45:25.958Z</time></trkpt><trkpt lat="40.6488767" lon="15.3826083"><ele>604.0</ele><time>2026-04-12T12:45:26.958Z</time></trkpt><trkpt lat="40.648785" lon="15.3824917"><ele>604.0</ele><time>2026-04-12T12:45:27.958Z</time></trkpt><trkpt lat="40.6487267" lon="15.3823283"><ele>602.0</ele><time>2026-04-12T12:45:28.958Z</time></trkpt><trkpt lat="40.64869" lon="15.3821217"><ele>600.0</ele><time>2026-04-12T12:45:29.958Z</time></trkpt><trkpt lat="40.6486667" lon="15.3819033"><ele>598.0</ele><time>2026-04-12T12:45:30.958Z</time></trkpt><trkpt lat="40.6486583" lon="15.3816767"><ele>598.0</ele><time>2026-04-12T12:45:31.958Z</time></trkpt><trkpt lat="40.64865" lon="15.381445"><ele>598.0</ele><time>2026-04-12T12:45:32.958Z</time></trkpt><trkpt lat="40.64863" lon="15.381235"><ele>598.0</ele><time>2026-04-12T12:45:33.958Z</time></trkpt><trkpt lat="40.648605" lon="15.38104"><ele>598.5</ele><time>2026-04-12T12:45:34.959Z</time></trkpt><trkpt lat="40.648565" lon="15.3808533"><ele>599.0</ele><time>2026-04-12T12:45:35.958Z</time></trkpt><trkpt lat="40.6485" lon="15.3807"><ele>599.5</ele><time>2026-04-12T12:45:36.958Z</time></trkpt><trkpt lat="40.6483933" lon="15.3805683"><ele>600.0</ele><time>2026-04-12T12:45:37.958Z</time></trkpt><trkpt lat="40.6482467" lon="15.3804733"><ele>595.6666666666666</ele><time>2026-04-12T12:45:38.958Z</time></trkpt><trkpt lat="40.6480833" lon="15.3804067"><ele>591.3333333333333</ele><time>2026-04-12T12:45:39.958Z</time></trkpt><trkpt lat="40.6479083" lon="15.38037"><ele>587.0</ele><time>2026-04-12T12:45:40.958Z</time></trkpt><trkpt lat="40.6477283" lon="15.3803617"><ele>587.0</ele><time>2026-04-12T12:45:41.958Z</time></trkpt><trkpt lat="40.6475583" lon="15.3803867"><ele>587.0</ele><time>2026-04-12T12:45:42.959Z</time></trkpt><trkpt lat="40.6474" lon="15.38045"><ele>587.0</ele><time>2026-04-12T12:45:43.958Z</time></trkpt><trkpt lat="40.647255" lon="15.3805467"><ele>589.75</ele><time>2026-04-12T12:45:44.958Z</time></trkpt><trkpt lat="40.647125" lon="15.3806733"><ele>592.5</ele><time>2026-04-12T12:45:45.958Z</time></trkpt><trkpt lat="40.6470167" lon="15.380805"><ele>595.25</ele><time>2026-04-12T12:45:46.958Z</time></trkpt><trkpt lat="40.64693" lon="15.3809117"><ele>598.0</ele><time>2026-04-12T12:45:47.958Z</time></trkpt><trkpt lat="40.6468317" lon="15.3809717"><ele>598.0</ele><time>2026-04-12T12:45:48.959Z</time></trkpt><trkpt lat="40.6467117" lon="15.3809817"><ele>598.0</ele><time>2026-04-12T12:45:49.958Z</time></trkpt><trkpt lat="40.6465883" lon="15.38093"><ele>598.0</ele><time>2026-04-12T12:45:50.958Z</time></trkpt><trkpt lat="40.64648" lon="15.380835"><ele>598.0</ele><time>2026-04-12T12:45:51.959Z</time></trkpt><trkpt lat="40.6463817" lon="15.3806817"><ele>594.6666666666667</ele><time>2026-04-12T12:45:52.958Z</time></trkpt><trkpt lat="40.646305" lon="15.3804983"><ele>591.3333333333334</ele><time>2026-04-12T12:45:53.959Z</time></trkpt><trkpt lat="40.646245" lon="15.3802767"><ele>588.0</ele><time>2026-04-12T12:45:54.958Z</time></trkpt><trkpt lat="40.646205" lon="15.3800367"><ele>588.0</ele><time>2026-04-12T12:45:55.958Z</time></trkpt><trkpt lat="40.6461783" lon="15.3797783"><ele>588.0</ele><time>2026-04-12T12:45:56.958Z</time></trkpt><trkpt lat="40.6461333" lon="15.3795067"><ele>588.0</ele><time>2026-04-12T12:45:57.958Z</time></trkpt><trkpt lat="40.6460633" lon="15.3792417"><ele>586.0</ele><time>2026-04-12T12:45:58.958Z</time></trkpt><trkpt lat="40.6459733" lon="15.378985"><ele>584.0</ele><time>2026-04-12T12:45:59.958Z</time></trkpt><trkpt lat="40.64587" lon="15.3787417"><ele>582.0</ele><time>2026-04-12T12:46:00.958Z</time></trkpt><trkpt lat="40.645755" lon="15.3784983"><ele>582.0</ele><time>2026-04-12T12:46:01.958Z</time></trkpt><trkpt lat="40.6456317" lon="15.37825"><ele>582.0</ele><time>2026-04-12T12:46:02.958Z</time></trkpt><trkpt lat="40.6454967" lon="15.3779967"><ele>591.0</ele><time>2026-04-12T12:46:03.959Z</time></trkpt><trkpt lat="40.64536" lon="15.3777333"><ele>600.0</ele><time>2026-04-12T12:46:04.958Z</time></trkpt><trkpt lat="40.6452133" lon="15.37747"><ele>600.0</ele><time>2026-04-12T12:46:05.958Z</time></trkpt><trkpt lat="40.6450617" lon="15.3771967"><ele>600.0</ele><time>2026-04-12T12:46:06.958Z</time></trkpt><trkpt lat="40.6449133" lon="15.3769367"><ele>592.3333333333334</ele><time>2026-04-12T12:46:07.958Z</time></trkpt><trkpt lat="40.644775" lon="15.3766917"><ele>584.6666666666667</ele><time>2026-04-12T12:46:08.958Z</time></trkpt><trkpt lat="40.6446417" lon="15.376465"><ele>577.0</ele><time>2026-04-12T12:46:09.959Z</time></trkpt><trkpt lat="40.644515" lon="15.3762483"><ele>578.3333333333334</ele><time>2026-04-12T12:46:10.958Z</time></trkpt><trkpt lat="40.6443767" lon="15.3760333"><ele>579.6666666666666</ele><time>2026-04-12T12:46:11.958Z</time></trkpt><trkpt lat="40.6442367" lon="15.3758317"><ele>581.0</ele><time>2026-04-12T12:46:12.958Z</time></trkpt><trkpt lat="40.6440983" lon="15.3756367"><ele>572.3333333333333</ele><time>2026-04-12T12:46:13.958Z</time></trkpt><trkpt lat="40.6439683" lon="15.3754533"><ele>563.6666666666666</ele><time>2026-04-12T12:46:14.958Z</time></trkpt><trkpt lat="40.643835" lon="15.3752817"><ele>555.0</ele><time>2026-04-12T12:46:15.958Z</time></trkpt><trkpt lat="40.64371" lon="15.3751117"><ele>558.3333333333334</ele><time>2026-04-12T12:46:16.958Z</time></trkpt><trkpt lat="40.6435867" lon="15.37495"><ele>561.6666666666667</ele><time>2026-04-12T12:46:17.958Z</time></trkpt><trkpt lat="40.6434733" lon="15.3748017"><ele>565.0</ele><time>2026-04-12T12:46:18.958Z</time></trkpt><trkpt lat="40.6433683" lon="15.3746633"><ele>565.0</ele><time>2026-04-12T12:46:19.958Z</time></trkpt><trkpt lat="40.6432683" lon="15.3745267"><ele>565.0</ele><time>2026-04-12T12:46:20.958Z</time></trkpt><trkpt lat="40.6431733" lon="15.3744267"><ele>565.0</ele><time>2026-04-12T12:46:21.958Z</time></trkpt><trkpt lat="40.64307" lon="15.374355"><ele>565.0</ele><time>2026-04-12T12:46:22.958Z</time></trkpt><trkpt lat="40.642955" lon="15.3743333"><ele>565.0</ele><time>2026-04-12T12:46:23.958Z</time></trkpt><trkpt lat="40.6428383" lon="15.3743567"><ele>565.0</ele><time>2026-04-12T12:46:24.958Z</time></trkpt><trkpt lat="40.642715" lon="15.3744283"><ele>565.0</ele><time>2026-04-12T12:46:25.958Z</time></trkpt><trkpt lat="40.6425967" lon="15.3745467"><ele>565.0</ele><time>2026-04-12T12:46:26.958Z</time></trkpt><trkpt lat="40.6424767" lon="15.374685"><ele>573.3333333333334</ele><time>2026-04-12T12:46:27.958Z</time></trkpt><trkpt lat="40.642355" lon="15.3748467"><ele>581.6666666666666</ele><time>2026-04-12T12:46:28.958Z</time></trkpt><trkpt lat="40.6422383" lon="15.3750233"><ele>590.0</ele><time>2026-04-12T12:46:29.958Z</time></trkpt><trkpt lat="40.6421183" lon="15.3752183"><ele>590.0</ele><time>2026-04-12T12:46:30.958Z</time></trkpt><trkpt lat="40.6420017" lon="15.375445"><ele>590.0</ele><time>2026-04-12T12:46:31.959Z</time></trkpt><trkpt lat="40.6418883" lon="15.375685"><ele>590.0</ele><time>2026-04-12T12:46:32.958Z</time></trkpt><trkpt lat="40.6417683" lon="15.37594"><ele>591.0</ele><time>2026-04-12T12:46:33.958Z</time></trkpt><trkpt lat="40.6416483" lon="15.37622"><ele>592.0</ele><time>2026-04-12T12:46:34.958Z</time></trkpt><trkpt lat="40.64153" lon="15.3765083"><ele>592.0</ele><time>2026-04-12T12:46:35.958Z</time></trkpt><trkpt lat="40.6414217" lon="15.376785"><ele>592.0</ele><time>2026-04-12T12:46:36.958Z</time></trkpt><trkpt lat="40.6413183" lon="15.377045"><ele>597.6666666666667</ele><time>2026-04-12T12:46:37.958Z</time></trkpt><trkpt lat="40.6412167" lon="15.377285"><ele>603.3333333333334</ele><time>2026-04-12T12:46:38.958Z</time></trkpt><trkpt lat="40.6411183" lon="15.3775183"><ele>609.0</ele><time>2026-04-12T12:46:39.958Z</time></trkpt><trkpt lat="40.6410233" lon="15.3777317"><ele>601.6666666666666</ele><time>2026-04-12T12:46:40.958Z</time></trkpt><trkpt lat="40.64093" lon="15.377935"><ele>594.3333333333333</ele><time>2026-04-12T12:46:41.958Z</time></trkpt><trkpt lat="40.6408333" lon="15.3781317"><ele>587.0</ele><time>2026-04-12T12:46:42.958Z</time></trkpt><trkpt lat="40.640745" lon="15.37833"><ele>587.0</ele><time>2026-04-12T12:46:43.958Z</time></trkpt><trkpt lat="40.6406667" lon="15.3785417"><ele>587.0</ele><time>2026-04-12T12:46:44.958Z</time></trkpt><trkpt lat="40.6406033" lon="15.3787733"><ele>587.0</ele><time>2026-04-12T12:46:45.958Z</time></trkpt><trkpt lat="40.64054" lon="15.378995"><ele>589.3333333333333</ele><time>2026-04-12T12:46:46.958Z</time></trkpt><trkpt lat="40.640475" lon="15.3791967"><ele>591.6666666666666</ele><time>2026-04-12T12:46:47.958Z</time></trkpt><trkpt lat="40.6404033" lon="15.3793817"><ele>594.0</ele><time>2026-04-12T12:46:48.958Z</time></trkpt><trkpt lat="40.640315" lon="15.3795617"><ele>589.3333333333334</ele><time>2026-04-12T12:46:49.958Z</time></trkpt><trkpt lat="40.640205" lon="15.3797167"><ele>584.6666666666667</ele><time>2026-04-12T12:46:50.958Z</time></trkpt><trkpt lat="40.640085" lon="15.3798483"><ele>580.0</ele><time>2026-04-12T12:46:51.958Z</time></trkpt><trkpt lat="40.6399583" lon="15.379975"><ele>580.0</ele><time>2026-04-12T12:46:52.958Z</time></trkpt><trkpt lat="40.639805" lon="15.380075"><ele>580.0</ele><time>2026-04-12T12:46:53.958Z</time></trkpt><trkpt lat="40.6396583" lon="15.3801283"><ele>580.0</ele><time>2026-04-12T12:46:54.959Z</time></trkpt><trkpt lat="40.6395033" lon="15.380175"><ele>577.0</ele><time>2026-04-12T12:46:55.958Z</time></trkpt><trkpt lat="40.6393533" lon="15.380245"><ele>574.0</ele><time>2026-04-12T12:46:56.958Z</time></trkpt><trkpt lat="40.6391967" lon="15.3803433"><ele>571.0</ele><time>2026-04-12T12:46:57.958Z</time></trkpt><trkpt lat="40.639035" lon="15.38045"><ele>572.3333333333334</ele><time>2026-04-12T12:46:58.958Z</time></trkpt><trkpt lat="40.63889" lon="15.3805583"><ele>573.6666666666666</ele><time>2026-04-12T12:46:59.958Z</time></trkpt><trkpt lat="40.6387483" lon="15.3806567"><ele>575.0</ele><time>2026-04-12T12:47:00.958Z</time></trkpt><trkpt lat="40.63863" lon="15.3807783"><ele>575.0</ele><time>2026-04-12T12:47:01.958Z</time></trkpt><trkpt lat="40.638515" lon="15.380895"><ele>575.0</ele><time>2026-04-12T12:47:02.958Z</time></trkpt><trkpt lat="40.6384033" lon="15.3810033"><ele>575.0</ele><time>2026-04-12T12:47:03.958Z</time></trkpt><trkpt lat="40.63829" lon="15.3810783"><ele>575.0</ele><time>2026-04-12T12:47:04.959Z</time></trkpt><trkpt lat="40.638165" lon="15.3811133"><ele>575.0</ele><time>2026-04-12T12:47:05.958Z</time></trkpt><trkpt lat="40.638035" lon="15.38113"><ele>575.0</ele><time>2026-04-12T12:47:06.958Z</time></trkpt><trkpt lat="40.6378983" lon="15.3811217"><ele>575.0</ele><time>2026-04-12T12:47:07.958Z</time></trkpt><trkpt lat="40.637765" lon="15.3811017"><ele>575.0</ele><time>2026-04-12T12:47:08.958Z</time></trkpt><trkpt lat="40.6376367" lon="15.381085"><ele>574.5</ele><time>2026-04-12T12:47:09.959Z</time></trkpt><trkpt lat="40.637515" lon="15.3810683"><ele>574.0</ele><time>2026-04-12T12:47:10.958Z</time></trkpt><trkpt lat="40.6373883" lon="15.3810233"><ele>573.5</ele><time>2026-04-12T12:47:11.958Z</time></trkpt><trkpt lat="40.6372783" lon="15.3809683"><ele>573.0</ele><time>2026-04-12T12:47:12.958Z</time></trkpt><trkpt lat="40.6371717" lon="15.3808883"><ele>573.0</ele><time>2026-04-12T12:47:13.958Z</time></trkpt><trkpt lat="40.63706" lon="15.3808217"><ele>573.0</ele><time>2026-04-12T12:47:14.958Z</time></trkpt><trkpt lat="40.636945" lon="15.3807533"><ele>573.0</ele><time>2026-04-12T12:47:15.958Z</time></trkpt><trkpt lat="40.6368217" lon="15.3807"><ele>573.0</ele><time>2026-04-12T12:47:16.958Z</time></trkpt><trkpt lat="40.6367033" lon="15.3806467"><ele>572.5</ele><time>2026-04-12T12:47:17.958Z</time></trkpt><trkpt lat="40.636585" lon="15.380595"><ele>572.0</ele><time>2026-04-12T12:47:18.958Z</time></trkpt><trkpt lat="40.6364783" lon="15.3805467"><ele>571.5</ele><time>2026-04-12T12:47:19.958Z</time></trkpt><trkpt lat="40.636365" lon="15.3804967"><ele>571.0</ele><time>2026-04-12T12:47:20.958Z</time></trkpt><trkpt lat="40.6362583" lon="15.3804133"><ele>571.0</ele><time>2026-04-12T12:47:21.958Z</time></trkpt><trkpt lat="40.63616" lon="15.38033"><ele>571.0</ele><time>2026-04-12T12:47:22.958Z</time></trkpt><trkpt lat="40.6360717" lon="15.38025"><ele>571.0</ele><time>2026-04-12T12:47:23.958Z</time></trkpt><trkpt lat="40.63599" lon="15.3801867"><ele>571.0</ele><time>2026-04-12T12:47:24.958Z</time></trkpt><trkpt lat="40.63592" lon="15.380135"><ele>571.0</ele><time>2026-04-12T12:47:25.958Z</time></trkpt><trkpt lat="40.6358667" lon="15.3800883"><ele>572.6</ele><time>2026-04-12T12:47:26.958Z</time></trkpt><trkpt lat="40.6358133" lon="15.38004"><ele>574.2</ele><time>2026-04-12T12:47:27.958Z</time></trkpt><trkpt lat="40.635735" lon="15.3799817"><ele>575.8</ele><time>2026-04-12T12:47:28.958Z</time></trkpt><trkpt lat="40.635645" lon="15.379895"><ele>577.4</ele><time>2026-04-12T12:47:29.958Z</time></trkpt><trkpt lat="40.63555" lon="15.3798"><ele>579.0</ele><time>2026-04-12T12:47:30.958Z</time></trkpt><trkpt lat="40.6354517" lon="15.379705"><ele>580.0</ele><time>2026-04-12T12:47:31.958Z</time></trkpt><trkpt lat="40.63536" lon="15.3796133"><ele>581.0</ele><time>2026-04-12T12:47:32.958Z</time></trkpt><trkpt lat="40.63527" lon="15.3795433"><ele>582.0</ele><time>2026-04-12T12:47:33.958Z</time></trkpt><trkpt lat="40.6351917" lon="15.379495"><ele>583.0</ele><time>2026-04-12T12:47:34.958Z</time></trkpt><trkpt lat="40.6350683" lon="15.3794833"><ele>584.0</ele><time>2026-04-12T12:47:36.958Z</time></trkpt><trkpt lat="40.6349783" lon="15.3795933"><ele>584.0</ele><time>2026-04-12T12:47:38.958Z</time></trkpt><trkpt lat="40.6349267" lon="15.379655"><ele>584.0</ele><time>2026-04-12T12:47:39.958Z</time></trkpt><trkpt lat="40.63485" lon="15.379735"><ele>584.0</ele><time>2026-04-12T12:47:40.959Z</time></trkpt><trkpt lat="40.6347583" lon="15.3798233"><ele>584.0</ele><time>2026-04-12T12:47:41.958Z</time></trkpt><trkpt lat="40.63465" lon="15.3799"><ele>584.0</ele><time>2026-04-12T12:47:42.958Z</time></trkpt><trkpt lat="40.6345617" lon="15.3799817"><ele>584.4</ele><time>2026-04-12T12:47:43.958Z</time></trkpt><trkpt lat="40.6344917" lon="15.38007"><ele>584.8</ele><time>2026-04-12T12:47:44.959Z</time></trkpt><trkpt lat="40.6343983" lon="15.3801217"><ele>585.2</ele><time>2026-04-12T12:47:45.958Z</time></trkpt><trkpt lat="40.63433" lon="15.38019"><ele>585.6</ele><time>2026-04-12T12:47:46.958Z</time></trkpt><trkpt lat="40.63428" lon="15.3802517"><ele>586.0</ele><time>2026-04-12T12:47:47.959Z</time></trkpt><trkpt lat="40.6342267" lon="15.3803783"><ele>587.0</ele><time>2026-04-12T12:47:49.958Z</time></trkpt><trkpt lat="40.634165" lon="15.380495"><ele>588.0</ele><time>2026-04-12T12:47:51.958Z</time></trkpt><trkpt lat="40.63407" lon="15.3805833"><ele>589.0</ele><time>2026-04-12T12:47:53.958Z</time></trkpt><trkpt lat="40.6339567" lon="15.3805367"><ele>590.0</ele><time>2026-04-12T12:47:55.958Z</time></trkpt><trkpt lat="40.6339" lon="15.380465"><ele>591.0</ele><time>2026-04-12T12:47:56.958Z</time></trkpt><trkpt lat="40.633845" lon="15.3803967"><ele>591.0</ele><time>2026-04-12T12:47:57.958Z</time></trkpt><trkpt lat="40.633795" lon="15.3803317"><ele>591.0</ele><time>2026-04-12T12:47:58.958Z</time></trkpt><trkpt lat="40.6337483" lon="15.3802667"><ele>591.0</ele><time>2026-04-12T12:47:59.958Z</time></trkpt><trkpt lat="40.6337017" lon="15.380205"><ele>591.0</ele><time>2026-04-12T12:48:00.958Z</time></trkpt><trkpt lat="40.6336533" lon="15.3801433"><ele>591.0</ele><time>2026-04-12T12:48:01.958Z</time></trkpt><trkpt lat="40.6336017" lon="15.3800783"><ele>591.0</ele><time>2026-04-12T12:48:02.958Z</time></trkpt><trkpt lat="40.6335567" lon="15.38002"><ele>591.0</ele><time>2026-04-12T12:48:03.958Z</time></trkpt><trkpt lat="40.6334667" lon="15.3799367"><ele>590.8</ele><time>2026-04-12T12:48:05.958Z</time></trkpt><trkpt lat="40.6333667" lon="15.37993"><ele>590.6</ele><time>2026-04-12T12:48:07.958Z</time></trkpt><trkpt lat="40.63329" lon="15.3800083"><ele>590.4</ele><time>2026-04-12T12:48:09.958Z</time></trkpt><trkpt lat="40.6332283" lon="15.38015"><ele>590.2</ele><time>2026-04-12T12:48:11.958Z</time></trkpt><trkpt lat="40.6331883" lon="15.3802683"><ele>590.0</ele><time>2026-04-12T12:48:13.959Z</time></trkpt><trkpt lat="40.6330817" lon="15.3802933"><ele>590.0</ele><time>2026-04-12T12:48:16.958Z</time></trkpt><trkpt lat="40.63302" lon="15.3802767"><ele>590.0</ele><time>2026-04-12T12:48:17.958Z</time></trkpt><trkpt lat="40.632945" lon="15.3802667"><ele>590.0</ele><time>2026-04-12T12:48:18.958Z</time></trkpt><trkpt lat="40.6328517" lon="15.380255"><ele>590.0</ele><time>2026-04-12T12:48:19.958Z</time></trkpt><trkpt lat="40.632765" lon="15.3802"><ele>590.0</ele><time>2026-04-12T12:48:20.958Z</time></trkpt><trkpt lat="40.6326633" lon="15.3801267"><ele>590.0</ele><time>2026-04-12T12:48:21.958Z</time></trkpt><trkpt lat="40.6325683" lon="15.3800483"><ele>586.4</ele><time>2026-04-12T12:48:22.958Z</time></trkpt><trkpt lat="40.6324867" lon="15.3799817"><ele>582.8</ele><time>2026-04-12T12:48:23.958Z</time></trkpt><trkpt lat="40.6324117" lon="15.379895"><ele>579.2</ele><time>2026-04-12T12:48:24.958Z</time></trkpt><trkpt lat="40.6323617" lon="15.3797767"><ele>575.6</ele><time>2026-04-12T12:48:25.958Z</time></trkpt><trkpt lat="40.6323267" lon="15.37965"><ele>572.0</ele><time>2026-04-12T12:48:26.958Z</time></trkpt><trkpt lat="40.6322883" lon="15.37952"><ele>571.2</ele><time>2026-04-12T12:48:27.958Z</time></trkpt><trkpt lat="40.6322583" lon="15.37939"><ele>570.4000000000001</ele><time>2026-04-12T12:48:28.958Z</time></trkpt><trkpt lat="40.6322367" lon="15.3792633"><ele>569.5999999999999</ele><time>2026-04-12T12:48:29.958Z</time></trkpt><trkpt lat="40.632215" lon="15.3791367"><ele>568.8</ele><time>2026-04-12T12:48:30.958Z</time></trkpt><trkpt lat="40.6321933" lon="15.379005"><ele>568.0</ele><time>2026-04-12T12:48:31.958Z</time></trkpt><trkpt lat="40.6321667" lon="15.3788833"><ele>567.8</ele><time>2026-04-12T12:48:32.958Z</time></trkpt><trkpt lat="40.632135" lon="15.3787717"><ele>567.5999999999999</ele><time>2026-04-12T12:48:33.958Z</time></trkpt><trkpt lat="40.6321033" lon="15.3786833"><ele>567.4000000000001</ele><time>2026-04-12T12:48:34.959Z</time></trkpt><trkpt lat="40.63201" lon="15.3785667"><ele>567.2</ele><time>2026-04-12T12:48:36.958Z</time></trkpt><trkpt lat="40.6319283" lon="15.3785333"><ele>567.0</ele><time>2026-04-12T12:48:37.958Z</time></trkpt><trkpt lat="40.6318383" lon="15.3785167"><ele>562.0</ele><time>2026-04-12T12:48:38.958Z</time></trkpt><trkpt lat="40.6317383" lon="15.3785"><ele>557.0</ele><time>2026-04-12T12:48:39.958Z</time></trkpt><trkpt lat="40.631635" lon="15.37848"><ele>552.0</ele><time>2026-04-12T12:48:40.957Z</time></trkpt><trkpt lat="40.631535" lon="15.3784433"><ele>547.0</ele><time>2026-04-12T12:48:41.957Z</time></trkpt><trkpt lat="40.6314317" lon="15.3784083"><ele>542.0</ele><time>2026-04-12T12:48:42.957Z</time></trkpt><trkpt lat="40.63133" lon="15.3783933"><ele>542.0</ele><time>2026-04-12T12:48:43.957Z</time></trkpt><trkpt lat="40.6312283" lon="15.3784083"><ele>542.0</ele><time>2026-04-12T12:48:44.957Z</time></trkpt><trkpt lat="40.63113" lon="15.3784583"><ele>542.0</ele><time>2026-04-12T12:48:45.957Z</time></trkpt><trkpt lat="40.6310417" lon="15.378535"><ele>542.0</ele><time>2026-04-12T12:48:46.957Z</time></trkpt><trkpt lat="40.630955" lon="15.3786183"><ele>542.0</ele><time>2026-04-12T12:48:47.957Z</time></trkpt><trkpt lat="40.630855" lon="15.378675"><ele>539.0</ele><time>2026-04-12T12:48:48.957Z</time></trkpt><trkpt lat="40.6307533" lon="15.3787083"><ele>536.0</ele><time>2026-04-12T12:48:49.957Z</time></trkpt><trkpt lat="40.630645" lon="15.3787067"><ele>533.0</ele><time>2026-04-12T12:48:50.957Z</time></trkpt><trkpt lat="40.63054" lon="15.3787017"><ele>530.0</ele><time>2026-04-12T12:48:51.957Z</time></trkpt><trkpt lat="40.6304383" lon="15.3786817"><ele>527.0</ele><time>2026-04-12T12:48:52.957Z</time></trkpt><trkpt lat="40.6303467" lon="15.3786383"><ele>524.4</ele><time>2026-04-12T12:48:53.957Z</time></trkpt><trkpt lat="40.630255" lon="15.378575"><ele>521.8000000000001</ele><time>2026-04-12T12:48:54.957Z</time></trkpt><trkpt lat="40.63017" lon="15.3785017"><ele>519.2</ele><time>2026-04-12T12:48:55.957Z</time></trkpt><trkpt lat="40.6300833" lon="15.3784467"><ele>516.6</ele><time>2026-04-12T12:48:56.957Z</time></trkpt><trkpt lat="40.6299833" lon="15.378405"><ele>514.0</ele><time>2026-04-12T12:48:57.957Z</time></trkpt><trkpt lat="40.6298783" lon="15.3783867"><ele>514.0</ele><time>2026-04-12T12:48:58.957Z</time></trkpt><trkpt lat="40.6297533" lon="15.3783883"><ele>514.0</ele><time>2026-04-12T12:48:59.957Z</time></trkpt><trkpt lat="40.6296283" lon="15.3784117"><ele>514.0</ele><time>2026-04-12T12:49:00.957Z</time></trkpt><trkpt lat="40.6295167" lon="15.3784367"><ele>514.0</ele><time>2026-04-12T12:49:01.957Z</time></trkpt><trkpt lat="40.6294167" lon="15.37844"><ele>512.6666666666667</ele><time>2026-04-12T12:49:02.957Z</time></trkpt><trkpt lat="40.6293233" lon="15.3784367"><ele>511.33333333333337</ele><time>2026-04-12T12:49:03.957Z</time></trkpt><trkpt lat="40.6292333" lon="15.3784167"><ele>510.0</ele><time>2026-04-12T12:49:04.957Z</time></trkpt><trkpt lat="40.62915" lon="15.3783783"><ele>508.66666666666663</ele><time>2026-04-12T12:49:05.957Z</time></trkpt><trkpt lat="40.6290767" lon="15.3783367"><ele>507.3333333333333</ele><time>2026-04-12T12:49:06.958Z</time></trkpt><trkpt lat="40.6290117" lon="15.3782917"><ele>506.0</ele><time>2026-04-12T12:49:07.957Z</time></trkpt><trkpt lat="40.6289133" lon="15.3782283"><ele>505.99999999999994</ele><time>2026-04-12T12:49:09.957Z</time></trkpt><trkpt lat="40.62881" lon="15.3782033"><ele>506.0</ele><time>2026-04-12T12:49:11.957Z</time></trkpt><trkpt lat="40.62871" lon="15.3781983"><ele>506.0</ele><time>2026-04-12T12:49:13.957Z</time></trkpt><trkpt lat="40.62864" lon="15.3782117"><ele>506.0</ele><time>2026-04-12T12:49:14.957Z</time></trkpt><trkpt lat="40.6285583" lon="15.378225"><ele>505.99999999999994</ele><time>2026-04-12T12:49:15.957Z</time></trkpt><trkpt lat="40.6284717" lon="15.378235"><ele>506.0</ele><time>2026-04-12T12:49:16.957Z</time></trkpt><trkpt lat="40.628375" lon="15.3782417"><ele>505.20000000000005</ele><time>2026-04-12T12:49:17.957Z</time></trkpt><trkpt lat="40.62828" lon="15.378245"><ele>504.40000000000003</ele><time>2026-04-12T12:49:18.957Z</time></trkpt><trkpt lat="40.6281667" lon="15.378245"><ele>503.6</ele><time>2026-04-12T12:49:19.957Z</time></trkpt><trkpt lat="40.62805" lon="15.37824"><ele>502.8</ele><time>2026-04-12T12:49:20.957Z</time></trkpt><trkpt lat="40.6279317" lon="15.378245"><ele>502.0</ele><time>2026-04-12T12:49:21.957Z</time></trkpt><trkpt lat="40.6278183" lon="15.3782417"><ele>500.20000000000005</ele><time>2026-04-12T12:49:22.957Z</time></trkpt><trkpt lat="40.627705" lon="15.3782433"><ele>498.40000000000003</ele><time>2026-04-12T12:49:23.957Z</time></trkpt><trkpt lat="40.627595" lon="15.3782467"><ele>496.59999999999997</ele><time>2026-04-12T12:49:24.957Z</time></trkpt><trkpt lat="40.6274883" lon="15.3782583"><ele>494.79999999999995</ele><time>2026-04-12T12:49:25.957Z</time></trkpt><trkpt lat="40.6273867" lon="15.3782717"><ele>493.0</ele><time>2026-04-12T12:49:26.957Z</time></trkpt><trkpt lat="40.6272883" lon="15.3782883"><ele>493.0</ele><time>2026-04-12T12:49:27.957Z</time></trkpt><trkpt lat="40.6271917" lon="15.378305"><ele>492.99999999999994</ele><time>2026-04-12T12:49:28.957Z</time></trkpt><trkpt lat="40.6271033" lon="15.3783183"><ele>492.99999999999994</ele><time>2026-04-12T12:49:29.957Z</time></trkpt><trkpt lat="40.627015" lon="15.3783417"><ele>493.0</ele><time>2026-04-12T12:49:30.957Z</time></trkpt><trkpt lat="40.6269267" lon="15.3783667"><ele>493.0</ele><time>2026-04-12T12:49:31.957Z</time></trkpt><trkpt lat="40.6268333" lon="15.3783833"><ele>492.0</ele><time>2026-04-12T12:49:32.957Z</time></trkpt><trkpt lat="40.62674" lon="15.3783917"><ele>490.99999999999994</ele><time>2026-04-12T12:49:33.957Z</time></trkpt><trkpt lat="40.6266483" lon="15.3783883"><ele>489.99999999999994</ele><time>2026-04-12T12:49:34.957Z</time></trkpt><trkpt lat="40.626555" lon="15.3783767"><ele>489.0</ele><time>2026-04-12T12:49:35.957Z</time></trkpt><trkpt lat="40.6264683" lon="15.3783617"><ele>488.0</ele><time>2026-04-12T12:49:36.957Z</time></trkpt><trkpt lat="40.6263733" lon="15.3783417"><ele>488.0</ele><time>2026-04-12T12:49:37.957Z</time></trkpt><trkpt lat="40.6262783" lon="15.3783217"><ele>487.99999999999994</ele><time>2026-04-12T12:49:38.957Z</time></trkpt><trkpt lat="40.6261733" lon="15.37831"><ele>487.99999999999994</ele><time>2026-04-12T12:49:39.957Z</time></trkpt><trkpt lat="40.6260733" lon="15.378295"><ele>488.0</ele><time>2026-04-12T12:49:40.957Z</time></trkpt><trkpt lat="40.6259717" lon="15.37828"><ele>488.0</ele><time>2026-04-12T12:49:41.958Z</time></trkpt><trkpt lat="40.62587" lon="15.3782633"><ele>485.59999999999997</ele><time>2026-04-12T12:49:42.957Z</time></trkpt><trkpt lat="40.6257683" lon="15.3782333"><ele>483.19999999999993</ele><time>2026-04-12T12:49:43.957Z</time></trkpt><trkpt lat="40.6256683" lon="15.3782033"><ele>480.8</ele><time>2026-04-12T12:49:44.957Z</time></trkpt><trkpt lat="40.625565" lon="15.3781683"><ele>478.4</ele><time>2026-04-12T12:49:45.957Z</time></trkpt><trkpt lat="40.62546" lon="15.3781367"><ele>476.0</ele><time>2026-04-12T12:49:46.958Z</time></trkpt><trkpt lat="40.6253567" lon="15.378115"><ele>473.8</ele><time>2026-04-12T12:49:47.957Z</time></trkpt><trkpt lat="40.62525" lon="15.3781133"><ele>471.6</ele><time>2026-04-12T12:49:48.957Z</time></trkpt><trkpt lat="40.6251483" lon="15.3781217"><ele>469.4</ele><time>2026-04-12T12:49:49.957Z</time></trkpt><trkpt lat="40.6250433" lon="15.3781333"><ele>467.2</ele><time>2026-04-12T12:49:50.957Z</time></trkpt><trkpt lat="40.624935" lon="15.3781417"><ele>465.0</ele><time>2026-04-12T12:49:51.958Z</time></trkpt><trkpt lat="40.6248233" lon="15.3781467"><ele>465.0</ele><time>2026-04-12T12:49:52.957Z</time></trkpt><trkpt lat="40.6247117" lon="15.37816"><ele>465.0</ele><time>2026-04-12T12:49:53.957Z</time></trkpt><trkpt lat="40.624605" lon="15.3781867"><ele>465.0</ele><time>2026-04-12T12:49:54.957Z</time></trkpt><trkpt lat="40.6245133" lon="15.3782217"><ele>465.0</ele><time>2026-04-12T12:49:55.957Z</time></trkpt><trkpt lat="40.624435" lon="15.37825"><ele>465.0</ele><time>2026-04-12T12:49:56.957Z</time></trkpt><trkpt lat="40.6243583" lon="15.3782483"><ele>464.4</ele><time>2026-04-12T12:49:57.957Z</time></trkpt><trkpt lat="40.6242783" lon="15.378215"><ele>463.8</ele><time>2026-04-12T12:49:58.958Z</time></trkpt><trkpt lat="40.6242033" lon="15.378155"><ele>463.20000000000005</ele><time>2026-04-12T12:49:59.957Z</time></trkpt><trkpt lat="40.6241167" lon="15.37809"><ele>462.6</ele><time>2026-04-12T12:50:00.957Z</time></trkpt><trkpt lat="40.6240317" lon="15.3780267"><ele>462.0</ele><time>2026-04-12T12:50:01.957Z</time></trkpt><trkpt lat="40.62394" lon="15.3779567"><ele>461.0</ele><time>2026-04-12T12:50:02.958Z</time></trkpt><trkpt lat="40.62385" lon="15.3778767"><ele>460.00000000000006</ele><time>2026-04-12T12:50:03.957Z</time></trkpt><trkpt lat="40.623765" lon="15.377785"><ele>459.00000000000006</ele><time>2026-04-12T12:50:04.957Z</time></trkpt><trkpt lat="40.6236733" lon="15.3776933"><ele>458.0</ele><time>2026-04-12T12:50:05.958Z</time></trkpt><trkpt lat="40.623595" lon="15.3776167"><ele>457.0</ele><time>2026-04-12T12:50:06.957Z</time></trkpt><trkpt lat="40.6235233" lon="15.3775633"><ele>457.0</ele><time>2026-04-12T12:50:07.957Z</time></trkpt><trkpt lat="40.62345" lon="15.3775283"><ele>457.00000000000006</ele><time>2026-04-12T12:50:08.957Z</time></trkpt><trkpt lat="40.6233733" lon="15.3775"><ele>457.00000000000006</ele><time>2026-04-12T12:50:09.957Z</time></trkpt><trkpt lat="40.62328" lon="15.37748"><ele>457.0</ele><time>2026-04-12T12:50:10.957Z</time></trkpt><trkpt lat="40.6231817" lon="15.377465"><ele>457.0</ele><time>2026-04-12T12:50:11.957Z</time></trkpt><trkpt lat="40.62308" lon="15.3774567"><ele>457.0</ele><time>2026-04-12T12:50:12.957Z</time></trkpt><trkpt lat="40.6229783" lon="15.3774517"><ele>457.00000000000006</ele><time>2026-04-12T12:50:13.957Z</time></trkpt><trkpt lat="40.6228717" lon="15.37746"><ele>457.00000000000006</ele><time>2026-04-12T12:50:14.957Z</time></trkpt><trkpt lat="40.6227717" lon="15.377485"><ele>457.0</ele><time>2026-04-12T12:50:15.957Z</time></trkpt><trkpt lat="40.6226683" lon="15.3775183"><ele>457.0</ele><time>2026-04-12T12:50:16.957Z</time></trkpt><trkpt lat="40.62257" lon="15.37756"><ele>455.40000000000003</ele><time>2026-04-12T12:50:17.957Z</time></trkpt><trkpt lat="40.622475" lon="15.377595"><ele>453.80000000000007</ele><time>2026-04-12T12:50:18.957Z</time></trkpt><trkpt lat="40.6223767" lon="15.377635"><ele>452.2</ele><time>2026-04-12T12:50:19.957Z</time></trkpt><trkpt lat="40.622275" lon="15.3776767"><ele>450.6</ele><time>2026-04-12T12:50:20.957Z</time></trkpt><trkpt lat="40.622165" lon="15.3777233"><ele>449.0</ele><time>2026-04-12T12:50:21.957Z</time></trkpt><trkpt lat="40.62205" lon="15.37777"><ele>449.0</ele><time>2026-04-12T12:50:22.957Z</time></trkpt><trkpt lat="40.6219333" lon="15.3778217"><ele>449.0</ele><time>2026-04-12T12:50:23.957Z</time></trkpt><trkpt lat="40.6218117" lon="15.3778733"><ele>449.0</ele><time>2026-04-12T12:50:24.957Z</time></trkpt><trkpt lat="40.621685" lon="15.37793"><ele>449.0</ele><time>2026-04-12T12:50:25.957Z</time></trkpt><trkpt lat="40.62156" lon="15.37799"><ele>447.5</ele><time>2026-04-12T12:50:26.957Z</time></trkpt><trkpt lat="40.62144" lon="15.37805"><ele>446.0</ele><time>2026-04-12T12:50:27.957Z</time></trkpt><trkpt lat="40.62132" lon="15.3781017"><ele>444.5</ele><time>2026-04-12T12:50:28.957Z</time></trkpt><trkpt lat="40.62122" lon="15.3781567"><ele>443.0</ele><time>2026-04-12T12:50:29.957Z</time></trkpt><trkpt lat="40.6211317" lon="15.3782283"><ele>444.3333333333333</ele><time>2026-04-12T12:50:30.957Z</time></trkpt><trkpt lat="40.6210617" lon="15.3783167"><ele>445.66666666666663</ele><time>2026-04-12T12:50:31.957Z</time></trkpt><trkpt lat="40.6210083" lon="15.3784083"><ele>447.0</ele><time>2026-04-12T12:50:32.957Z</time></trkpt><trkpt lat="40.6209817" lon="15.378515"><ele>448.33333333333337</ele><time>2026-04-12T12:50:33.957Z</time></trkpt><trkpt lat="40.62097" lon="15.3786283"><ele>449.6666666666667</ele><time>2026-04-12T12:50:34.958Z</time></trkpt><trkpt lat="40.620965" lon="15.3787433"><ele>451.0</ele><time>2026-04-12T12:50:35.957Z</time></trkpt><trkpt lat="40.620955" lon="15.3788583"><ele>451.0</ele><time>2026-04-12T12:50:36.957Z</time></trkpt><trkpt lat="40.6209267" lon="15.378975"><ele>451.0</ele><time>2026-04-12T12:50:37.957Z</time></trkpt><trkpt lat="40.6208783" lon="15.3790867"><ele>451.0</ele><time>2026-04-12T12:50:38.957Z</time></trkpt><trkpt lat="40.62081" lon="15.3791817"><ele>451.0</ele><time>2026-04-12T12:50:39.957Z</time></trkpt><trkpt lat="40.6207267" lon="15.3792517"><ele>451.0</ele><time>2026-04-12T12:50:40.957Z</time></trkpt><trkpt lat="40.62063" lon="15.379305"><ele>451.0</ele><time>2026-04-12T12:50:41.957Z</time></trkpt><trkpt lat="40.6205283" lon="15.379345"><ele>451.0</ele><time>2026-04-12T12:50:42.958Z</time></trkpt><trkpt lat="40.6204167" lon="15.3793667"><ele>451.0</ele><time>2026-04-12T12:50:43.957Z</time></trkpt><trkpt lat="40.62031" lon="15.3793867"><ele>451.0</ele><time>2026-04-12T12:50:44.957Z</time></trkpt><trkpt lat="40.6202067" lon="15.3794117"><ele>451.0</ele><time>2026-04-12T12:50:45.957Z</time></trkpt><trkpt lat="40.62011" lon="15.3794367"><ele>449.6666666666667</ele><time>2026-04-12T12:50:46.957Z</time></trkpt><trkpt lat="40.6200383" lon="15.379485"><ele>448.33333333333337</ele><time>2026-04-12T12:50:47.958Z</time></trkpt><trkpt lat="40.6199783" lon="15.3795583"><ele>447.0</ele><time>2026-04-12T12:50:48.957Z</time></trkpt><trkpt lat="40.6199467" lon="15.3796467"><ele>445.66666666666663</ele><time>2026-04-12T12:50:49.957Z</time></trkpt><trkpt lat="40.61993" lon="15.3797517"><ele>444.3333333333333</ele><time>2026-04-12T12:50:50.957Z</time></trkpt><trkpt lat="40.619935" lon="15.3798717"><ele>443.0</ele><time>2026-04-12T12:50:51.958Z</time></trkpt><trkpt lat="40.6199483" lon="15.3800033"><ele>440.25</ele><time>2026-04-12T12:50:52.957Z</time></trkpt><trkpt lat="40.6199617" lon="15.3801467"><ele>437.5</ele><time>2026-04-12T12:50:53.957Z</time></trkpt><trkpt lat="40.6199667" lon="15.3802983"><ele>434.75</ele><time>2026-04-12T12:50:54.957Z</time></trkpt><trkpt lat="40.6199683" lon="15.3804517"><ele>432.0</ele><time>2026-04-12T12:50:55.957Z</time></trkpt><trkpt lat="40.6199667" lon="15.3806"><ele>430.5</ele><time>2026-04-12T12:50:56.957Z</time></trkpt><trkpt lat="40.619965" lon="15.38073"><ele>429.0</ele><time>2026-04-12T12:50:57.957Z</time></trkpt><trkpt lat="40.61996" lon="15.3808367"><ele>427.5</ele><time>2026-04-12T12:50:58.957Z</time></trkpt><trkpt lat="40.6199533" lon="15.38092"><ele>426.0</ele><time>2026-04-12T12:50:59.958Z</time></trkpt><trkpt lat="40.6198783" lon="15.3810283"><ele>424.5</ele><time>2026-04-12T12:51:01.957Z</time></trkpt><trkpt lat="40.619815" lon="15.3810283"><ele>423.0</ele><time>2026-04-12T12:51:02.957Z</time></trkpt><trkpt lat="40.6197383" lon="15.3809883"><ele>423.0</ele><time>2026-04-12T12:51:03.957Z</time></trkpt><trkpt lat="40.6196567" lon="15.3809467"><ele>423.0</ele><time>2026-04-12T12:51:04.957Z</time></trkpt><trkpt lat="40.6195667" lon="15.3809167"><ele>423.0</ele><time>2026-04-12T12:51:05.957Z</time></trkpt><trkpt lat="40.6194667" lon="15.380915"><ele>423.0</ele><time>2026-04-12T12:51:06.958Z</time></trkpt><trkpt lat="40.619365" lon="15.38093"><ele>423.0</ele><time>2026-04-12T12:51:07.957Z</time></trkpt><trkpt lat="40.61926" lon="15.3809867"><ele>417.0</ele><time>2026-04-12T12:51:08.957Z</time></trkpt><trkpt lat="40.6191533" lon="15.381075"><ele>411.0</ele><time>2026-04-12T12:51:09.957Z</time></trkpt><trkpt lat="40.6190333" lon="15.3811667"><ele>405.0</ele><time>2026-04-12T12:51:10.957Z</time></trkpt><trkpt lat="40.6189217" lon="15.38126"><ele>399.0</ele><time>2026-04-12T12:51:11.957Z</time></trkpt><trkpt lat="40.6188067" lon="15.3813483"><ele>398.25</ele><time>2026-04-12T12:51:12.957Z</time></trkpt><trkpt lat="40.61868" lon="15.3814217"><ele>397.5</ele><time>2026-04-12T12:51:13.957Z</time></trkpt><trkpt lat="40.618545" lon="15.381485"><ele>396.75</ele><time>2026-04-12T12:51:14.957Z</time></trkpt><trkpt lat="40.6184117" lon="15.3815333"><ele>396.0</ele><time>2026-04-12T12:51:15.957Z</time></trkpt><trkpt lat="40.6182767" lon="15.38158"><ele>392.25</ele><time>2026-04-12T12:51:16.957Z</time></trkpt><trkpt lat="40.6181383" lon="15.381625"><ele>388.5</ele><time>2026-04-12T12:51:17.957Z</time></trkpt><trkpt lat="40.6180083" lon="15.3816733"><ele>384.75</ele><time>2026-04-12T12:51:18.957Z</time></trkpt><trkpt lat="40.6178817" lon="15.381735"><ele>381.0</ele><time>2026-04-12T12:51:19.957Z</time></trkpt><trkpt lat="40.6177433" lon="15.38177"><ele>378.5</ele><time>2026-04-12T12:51:20.957Z</time></trkpt><trkpt lat="40.617615" lon="15.3818083"><ele>376.0</ele><time>2026-04-12T12:51:21.957Z</time></trkpt><trkpt lat="40.6174867" lon="15.3818517"><ele>373.5</ele><time>2026-04-12T12:51:22.957Z</time></trkpt><trkpt lat="40.6173583" lon="15.3818933"><ele>371.0</ele><time>2026-04-12T12:51:23.957Z</time></trkpt><trkpt lat="40.617245" lon="15.3819483"><ele>371.0</ele><time>2026-04-12T12:51:24.957Z</time></trkpt><trkpt lat="40.61713" lon="15.3820167"><ele>371.0</ele><time>2026-04-12T12:51:25.957Z</time></trkpt><trkpt lat="40.617005" lon="15.3820817"><ele>371.0</ele><time>2026-04-12T12:51:26.957Z</time></trkpt><trkpt lat="40.6168883" lon="15.3821467"><ele>371.0</ele><time>2026-04-12T12:51:27.958Z</time></trkpt><trkpt lat="40.6167833" lon="15.3822217"><ele>366.0</ele><time>2026-04-12T12:51:28.957Z</time></trkpt><trkpt lat="40.6166633" lon="15.3822967"><ele>361.0</ele><time>2026-04-12T12:51:29.957Z</time></trkpt><trkpt lat="40.6165567" lon="15.382385"><ele>356.0</ele><time>2026-04-12T12:51:30.957Z</time></trkpt><trkpt lat="40.6164517" lon="15.3824767"><ele>351.0</ele><time>2026-04-12T12:51:31.958Z</time></trkpt><trkpt lat="40.61634" lon="15.3825567"><ele>351.0</ele><time>2026-04-12T12:51:32.957Z</time></trkpt><trkpt lat="40.616235" lon="15.3826467"><ele>351.0</ele><time>2026-04-12T12:51:33.957Z</time></trkpt><trkpt lat="40.6161333" lon="15.3827417"><ele>351.0</ele><time>2026-04-12T12:51:34.957Z</time></trkpt><trkpt lat="40.6160233" lon="15.382825"><ele>351.0</ele><time>2026-04-12T12:51:35.958Z</time></trkpt><trkpt lat="40.615925" lon="15.3829017"><ele>348.5</ele><time>2026-04-12T12:51:36.957Z</time></trkpt><trkpt lat="40.6158417" lon="15.3829667"><ele>346.0</ele><time>2026-04-12T12:51:37.957Z</time></trkpt><trkpt lat="40.615775" lon="15.38302"><ele>343.5</ele><time>2026-04-12T12:51:38.957Z</time></trkpt><trkpt lat="40.615705" lon="15.38304"><ele>341.0</ele><time>2026-04-12T12:51:39.957Z</time></trkpt><trkpt lat="40.6156383" lon="15.3830067"><ele>338.5</ele><time>2026-04-12T12:51:40.957Z</time></trkpt><trkpt lat="40.6155717" lon="15.382925"><ele>336.0</ele><time>2026-04-12T12:51:41.957Z</time></trkpt><trkpt lat="40.615495" lon="15.3828"><ele>335.5</ele><time>2026-04-12T12:51:42.957Z</time></trkpt><trkpt lat="40.6154167" lon="15.3826517"><ele>335.0</ele><time>2026-04-12T12:51:43.957Z</time></trkpt><trkpt lat="40.615345" lon="15.3824967"><ele>334.5</ele><time>2026-04-12T12:51:44.957Z</time></trkpt><trkpt lat="40.6152683" lon="15.3823467"><ele>334.0</ele><time>2026-04-12T12:51:45.957Z</time></trkpt><trkpt lat="40.6152017" lon="15.3822"><ele>328.5</ele><time>2026-04-12T12:51:46.957Z</time></trkpt><trkpt lat="40.615125" lon="15.3820467"><ele>323.0</ele><time>2026-04-12T12:51:47.957Z</time></trkpt><trkpt lat="40.6150583" lon="15.3818983"><ele>317.5</ele><time>2026-04-12T12:51:48.958Z</time></trkpt><trkpt lat="40.6149917" lon="15.3817517"><ele>312.0</ele><time>2026-04-12T12:51:49.957Z</time></trkpt><trkpt lat="40.614935" lon="15.381615"><ele>312.0</ele><time>2026-04-12T12:51:50.957Z</time></trkpt><trkpt lat="40.6148817" lon="15.3814883"><ele>312.0</ele><time>2026-04-12T12:51:51.957Z</time></trkpt><trkpt lat="40.6148317" lon="15.381385"><ele>312.0</ele><time>2026-04-12T12:51:52.957Z</time></trkpt><trkpt lat="40.6147833" lon="15.3813"><ele>312.0</ele><time>2026-04-12T12:51:53.957Z</time></trkpt><trkpt lat="40.6147283" lon="15.3812433"><ele>312.0</ele><time>2026-04-12T12:51:54.957Z</time></trkpt><trkpt lat="40.6146583" lon="15.3812217"><ele>312.0</ele><time>2026-04-12T12:51:55.957Z</time></trkpt><trkpt lat="40.6145883" lon="15.3812517"><ele>311.5</ele><time>2026-04-12T12:51:56.957Z</time></trkpt><trkpt lat="40.614505" lon="15.3813483"><ele>311.0</ele><time>2026-04-12T12:51:57.957Z</time></trkpt><trkpt lat="40.614415" lon="15.38147"><ele>310.5</ele><time>2026-04-12T12:51:58.957Z</time></trkpt><trkpt lat="40.6143133" lon="15.3815933"><ele>310.0</ele><time>2026-04-12T12:51:59.957Z</time></trkpt><trkpt lat="40.6142017" lon="15.3817117"><ele>305.0</ele><time>2026-04-12T12:52:00.957Z</time></trkpt><trkpt lat="40.614075" lon="15.3818167"><ele>300.0</ele><time>2026-04-12T12:52:01.957Z</time></trkpt><trkpt lat="40.613945" lon="15.3819017"><ele>295.0</ele><time>2026-04-12T12:52:02.957Z</time></trkpt><trkpt lat="40.613815" lon="15.3819867"><ele>290.0</ele><time>2026-04-12T12:52:03.957Z</time></trkpt><trkpt lat="40.613675" lon="15.3820583"><ele>285.75</ele><time>2026-04-12T12:52:04.957Z</time></trkpt><trkpt lat="40.613535" lon="15.382135"><ele>281.5</ele><time>2026-04-12T12:52:05.957Z</time></trkpt><trkpt lat="40.6134017" lon="15.3822167"><ele>277.25</ele><time>2026-04-12T12:52:06.958Z</time></trkpt><trkpt lat="40.613265" lon="15.382295"><ele>273.0</ele><time>2026-04-12T12:52:07.957Z</time></trkpt><trkpt lat="40.6131267" lon="15.3823633"><ele>273.0</ele><time>2026-04-12T12:52:08.957Z</time></trkpt><trkpt lat="40.612985" lon="15.3824267"><ele>273.0</ele><time>2026-04-12T12:52:09.957Z</time></trkpt><trkpt lat="40.612835" lon="15.38248"><ele>273.0</ele><time>2026-04-12T12:52:10.957Z</time></trkpt><trkpt lat="40.6127" lon="15.3825433"><ele>273.0</ele><time>2026-04-12T12:52:11.957Z</time></trkpt><trkpt lat="40.6125533" lon="15.3826083"><ele>269.5</ele><time>2026-04-12T12:52:12.957Z</time></trkpt><trkpt lat="40.612415" lon="15.3826683"><ele>266.0</ele><time>2026-04-12T12:52:13.958Z</time></trkpt><trkpt lat="40.6122767" lon="15.3827333"><ele>262.5</ele><time>2026-04-12T12:52:14.957Z</time></trkpt><trkpt lat="40.6121517" lon="15.38279"><ele>259.0</ele><time>2026-04-12T12:52:15.957Z</time></trkpt><trkpt lat="40.61204" lon="15.3828333"><ele>255.5</ele><time>2026-04-12T12:52:16.957Z</time></trkpt><trkpt lat="40.6119333" lon="15.3828667"><ele>252.0</ele><time>2026-04-12T12:52:17.957Z</time></trkpt><trkpt lat="40.6118217" lon="15.3828667"><ele>248.5</ele><time>2026-04-12T12:52:18.958Z</time></trkpt><trkpt lat="40.6117033" lon="15.3828317"><ele>245.0</ele><time>2026-04-12T12:52:19.957Z</time></trkpt><trkpt lat="40.611595" lon="15.3827517"><ele>245.0</ele><time>2026-04-12T12:52:20.957Z</time></trkpt><trkpt lat="40.6114833" lon="15.3826383"><ele>245.0</ele><time>2026-04-12T12:52:21.957Z</time></trkpt><trkpt lat="40.6113783" lon="15.38252"><ele>245.0</ele><time>2026-04-12T12:52:22.957Z</time></trkpt><trkpt lat="40.6112917" lon="15.3824083"><ele>245.0</ele><time>2026-04-12T12:52:23.957Z</time></trkpt><trkpt lat="40.6111983" lon="15.3823083"><ele>242.5</ele><time>2026-04-12T12:52:24.957Z</time></trkpt><trkpt lat="40.611085" lon="15.3822367"><ele>240.0</ele><time>2026-04-12T12:52:25.957Z</time></trkpt><trkpt lat="40.610945" lon="15.3821967"><ele>237.5</ele><time>2026-04-12T12:52:26.957Z</time></trkpt><trkpt lat="40.61079" lon="15.38216"><ele>235.0</ele><time>2026-04-12T12:52:27.957Z</time></trkpt><trkpt lat="40.6106433" lon="15.3821183"><ele>235.0</ele><time>2026-04-12T12:52:28.957Z</time></trkpt><trkpt lat="40.6105033" lon="15.3820833"><ele>235.0</ele><time>2026-04-12T12:52:29.957Z</time></trkpt><trkpt lat="40.610365" lon="15.3820467"><ele>235.0</ele><time>2026-04-12T12:52:30.957Z</time></trkpt><trkpt lat="40.6102267" lon="15.38203"><ele>235.0</ele><time>2026-04-12T12:52:31.957Z</time></trkpt><trkpt lat="40.61009" lon="15.3820333"><ele>231.25</ele><time>2026-04-12T12:52:32.957Z</time></trkpt><trkpt lat="40.60995" lon="15.3820433"><ele>227.5</ele><time>2026-04-12T12:52:33.957Z</time></trkpt><trkpt lat="40.6098267" lon="15.38206"><ele>223.75</ele><time>2026-04-12T12:52:34.957Z</time></trkpt><trkpt lat="40.609715" lon="15.382065"><ele>220.0</ele><time>2026-04-12T12:52:35.957Z</time></trkpt><trkpt lat="40.6096117" lon="15.382055"><ele>219.99999999999997</ele><time>2026-04-12T12:52:36.957Z</time></trkpt><trkpt lat="40.609525" lon="15.382035"><ele>220.0</ele><time>2026-04-12T12:52:37.957Z</time></trkpt><trkpt lat="40.6094483" lon="15.3820017"><ele>220.0</ele><time>2026-04-12T12:52:38.957Z</time></trkpt><trkpt lat="40.6093833" lon="15.3819483"><ele>220.0</ele><time>2026-04-12T12:52:39.957Z</time></trkpt><trkpt lat="40.609325" lon="15.3818633"><ele>219.99999999999997</ele><time>2026-04-12T12:52:40.958Z</time></trkpt><trkpt lat="40.609305" lon="15.3817483"><ele>220.0</ele><time>2026-04-12T12:52:41.957Z</time></trkpt><trkpt lat="40.609315" lon="15.3816317"><ele>217.99999999999997</ele><time>2026-04-12T12:52:42.957Z</time></trkpt><trkpt lat="40.6093333" lon="15.38153"><ele>216.0</ele><time>2026-04-12T12:52:43.958Z</time></trkpt><trkpt lat="40.6093517" lon="15.3814467"><ele>214.0</ele><time>2026-04-12T12:52:44.958Z</time></trkpt><trkpt lat="40.609345" lon="15.3813433"><ele>212.0</ele><time>2026-04-12T12:52:46.957Z</time></trkpt><trkpt lat="40.60927" lon="15.3813233"><ele>209.99999999999997</ele><time>2026-04-12T12:52:49.957Z</time></trkpt><trkpt lat="40.6092117" lon="15.3813833"><ele>208.0</ele><time>2026-04-12T12:52:51.958Z</time></trkpt><trkpt lat="40.6090817" lon="15.3814817"><ele>208.0</ele><time>2026-04-12T12:52:53.957Z</time></trkpt><trkpt lat="40.6089867" lon="15.381545"><ele>208.0</ele><time>2026-04-12T12:52:54.957Z</time></trkpt><trkpt lat="40.6088933" lon="15.381615"><ele>208.0</ele><time>2026-04-12T12:52:55.957Z</time></trkpt><trkpt lat="40.6087967" lon="15.381705"><ele>208.0</ele><time>2026-04-12T12:52:56.957Z</time></trkpt><trkpt lat="40.6086917" lon="15.3817717"><ele>208.0</ele><time>2026-04-12T12:52:57.957Z</time></trkpt><trkpt lat="40.608605" lon="15.381845"><ele>206.83333333333331</ele><time>2026-04-12T12:52:58.957Z</time></trkpt><trkpt lat="40.6085233" lon="15.3819167"><ele>205.66666666666666</ele><time>2026-04-12T12:52:59.958Z</time></trkpt><trkpt lat="40.608455" lon="15.3819933"><ele>204.5</ele><time>2026-04-12T12:53:00.957Z</time></trkpt><trkpt lat="40.6084" lon="15.38206"><ele>203.33333333333331</ele><time>2026-04-12T12:53:01.958Z</time></trkpt><trkpt lat="40.6083383" lon="15.382135"><ele>202.16666666666666</ele><time>2026-04-12T12:53:03.957Z</time></trkpt><trkpt lat="40.6083133" lon="15.3822467"><ele>201.0</ele><time>2026-04-12T12:53:07.958Z</time></trkpt><trkpt lat="40.608355" lon="15.3823483"><ele>200.75</ele><time>2026-04-12T12:53:09.958Z</time></trkpt><trkpt lat="40.6083967" lon="15.3824283"><ele>200.5</ele><time>2026-04-12T12:53:10.957Z</time></trkpt><trkpt lat="40.6084533" lon="15.382535"><ele>200.25</ele><time>2026-04-12T12:53:11.957Z</time></trkpt><trkpt lat="40.60853" lon="15.3826917"><ele>200.0</ele><time>2026-04-12T12:53:12.957Z</time></trkpt><trkpt lat="40.6086417" lon="15.3829017"><ele>204.5</ele><time>2026-04-12T12:53:13.957Z</time></trkpt><trkpt lat="40.608765" lon="15.38316"><ele>209.0</ele><time>2026-04-12T12:53:14.957Z</time></trkpt><trkpt lat="40.6089017" lon="15.383435"><ele>209.0</ele><time>2026-04-12T12:53:15.957Z</time></trkpt><trkpt lat="40.6090317" lon="15.3836867"><ele>209.0</ele><time>2026-04-12T12:53:16.957Z</time></trkpt><trkpt lat="40.609155" lon="15.3839117"><ele>209.0</ele><time>2026-04-12T12:53:17.957Z</time></trkpt><trkpt lat="40.6092733" lon="15.384135"><ele>208.0</ele><time>2026-04-12T12:53:18.957Z</time></trkpt><trkpt lat="40.6093833" lon="15.3843433"><ele>207.0</ele><time>2026-04-12T12:53:19.957Z</time></trkpt><trkpt lat="40.6094817" lon="15.3845483"><ele>206.0</ele><time>2026-04-12T12:53:20.957Z</time></trkpt><trkpt lat="40.6095833" lon="15.3847517"><ele>208.33333333333334</ele><time>2026-04-12T12:53:21.957Z</time></trkpt><trkpt lat="40.609685" lon="15.38494"><ele>210.66666666666669</ele><time>2026-04-12T12:53:22.957Z</time></trkpt><trkpt lat="40.60978" lon="15.3851217"><ele>213.0</ele><time>2026-04-12T12:53:23.957Z</time></trkpt><trkpt lat="40.609865" lon="15.3852817"><ele>213.0</ele><time>2026-04-12T12:53:24.957Z</time></trkpt><trkpt lat="40.6099417" lon="15.38545"><ele>213.0</ele><time>2026-04-12T12:53:25.957Z</time></trkpt><trkpt lat="40.610025" lon="15.3856083"><ele>213.0</ele><time>2026-04-12T12:53:26.957Z</time></trkpt><trkpt lat="40.6101033" lon="15.38575"><ele>213.0</ele><time>2026-04-12T12:53:27.957Z</time></trkpt><trkpt lat="40.6101767" lon="15.3858967"><ele>213.5</ele><time>2026-04-12T12:53:28.957Z</time></trkpt><trkpt lat="40.6102483" lon="15.3860317"><ele>214.0</ele><time>2026-04-12T12:53:29.957Z</time></trkpt><trkpt lat="40.610315" lon="15.3861683"><ele>214.5</ele><time>2026-04-12T12:53:30.957Z</time></trkpt><trkpt lat="40.610385" lon="15.3862983"><ele>215.0</ele><time>2026-04-12T12:53:31.957Z</time></trkpt><trkpt lat="40.6104567" lon="15.3864283"><ele>213.5</ele><time>2026-04-12T12:53:32.957Z</time></trkpt><trkpt lat="40.6105267" lon="15.38656"><ele>212.0</ele><time>2026-04-12T12:53:33.957Z</time></trkpt><trkpt lat="40.6105883" lon="15.3867017"><ele>210.5</ele><time>2026-04-12T12:53:34.957Z</time></trkpt><trkpt lat="40.610645" lon="15.3868467"><ele>209.0</ele><time>2026-04-12T12:53:35.957Z</time></trkpt><trkpt lat="40.61071" lon="15.387"><ele>209.0</ele><time>2026-04-12T12:53:36.957Z</time></trkpt><trkpt lat="40.6107733" lon="15.387155"><ele>209.0</ele><time>2026-04-12T12:53:37.957Z</time></trkpt><trkpt lat="40.61084" lon="15.38731"><ele>209.0</ele><time>2026-04-12T12:53:38.957Z</time></trkpt><trkpt lat="40.6108967" lon="15.387465"><ele>209.0</ele><time>2026-04-12T12:53:39.957Z</time></trkpt><trkpt lat="40.6109483" lon="15.387625"><ele>208.25</ele><time>2026-04-12T12:53:40.957Z</time></trkpt><trkpt lat="40.6109917" lon="15.3877933"><ele>207.5</ele><time>2026-04-12T12:53:41.957Z</time></trkpt><trkpt lat="40.611025" lon="15.387975"><ele>206.75</ele><time>2026-04-12T12:53:42.957Z</time></trkpt><trkpt lat="40.6110483" lon="15.3881533"><ele>206.0</ele><time>2026-04-12T12:53:43.957Z</time></trkpt><trkpt lat="40.6110633" lon="15.388345"><ele>205.75</ele><time>2026-04-12T12:53:44.957Z</time></trkpt><trkpt lat="40.611065" lon="15.3885433"><ele>205.5</ele><time>2026-04-12T12:53:45.957Z</time></trkpt><trkpt lat="40.6110583" lon="15.388735"><ele>205.25</ele><time>2026-04-12T12:53:46.957Z</time></trkpt><trkpt lat="40.6110483" lon="15.3889183"><ele>205.0</ele><time>2026-04-12T12:53:47.957Z</time></trkpt><trkpt lat="40.6110317" lon="15.3890917"><ele>201.5</ele><time>2026-04-12T12:53:48.958Z</time></trkpt><trkpt lat="40.61101" lon="15.389265"><ele>198.0</ele><time>2026-04-12T12:53:49.958Z</time></trkpt><trkpt lat="40.6109883" lon="15.38943"><ele>194.5</ele><time>2026-04-12T12:53:50.958Z</time></trkpt><trkpt lat="40.6109683" lon="15.3895983"><ele>191.0</ele><time>2026-04-12T12:53:51.957Z</time></trkpt><trkpt lat="40.6109517" lon="15.389755"><ele>186.75</ele><time>2026-04-12T12:53:52.957Z</time></trkpt><trkpt lat="40.6109333" lon="15.38991"><ele>182.5</ele><time>2026-04-12T12:53:53.957Z</time></trkpt><trkpt lat="40.6109133" lon="15.39006"><ele>178.25</ele><time>2026-04-12T12:53:54.957Z</time></trkpt><trkpt lat="40.610895" lon="15.3902133"><ele>174.0</ele><time>2026-04-12T12:53:55.957Z</time></trkpt><trkpt lat="40.6108817" lon="15.3903717"><ele>181.25</ele><time>2026-04-12T12:53:56.957Z</time></trkpt><trkpt lat="40.610865" lon="15.3905317"><ele>188.5</ele><time>2026-04-12T12:53:57.957Z</time></trkpt><trkpt lat="40.6108517" lon="15.3907033"><ele>195.75</ele><time>2026-04-12T12:53:58.957Z</time></trkpt><trkpt lat="40.6108367" lon="15.3908767"><ele>203.0</ele><time>2026-04-12T12:53:59.957Z</time></trkpt><trkpt lat="40.6108117" lon="15.3910467"><ele>203.0</ele><time>2026-04-12T12:54:00.957Z</time></trkpt><trkpt lat="40.6107867" lon="15.39122"><ele>203.0</ele><time>2026-04-12T12:54:01.957Z</time></trkpt><trkpt lat="40.61076" lon="15.3913967"><ele>203.0</ele><time>2026-04-12T12:54:02.957Z</time></trkpt><trkpt lat="40.6107383" lon="15.3915733"><ele>203.0</ele><time>2026-04-12T12:54:03.957Z</time></trkpt><trkpt lat="40.610725" lon="15.3917483"><ele>206.75</ele><time>2026-04-12T12:54:04.957Z</time></trkpt><trkpt lat="40.6107017" lon="15.3919267"><ele>210.5</ele><time>2026-04-12T12:54:05.957Z</time></trkpt><trkpt lat="40.6106733" lon="15.3921017"><ele>214.25</ele><time>2026-04-12T12:54:06.957Z</time></trkpt><trkpt lat="40.6106517" lon="15.3922817"><ele>218.0</ele><time>2026-04-12T12:54:07.957Z</time></trkpt><trkpt lat="40.6106333" lon="15.3924667"><ele>218.5</ele><time>2026-04-12T12:54:08.957Z</time></trkpt><trkpt lat="40.6106233" lon="15.3926467"><ele>219.0</ele><time>2026-04-12T12:54:09.957Z</time></trkpt><trkpt lat="40.610615" lon="15.3928233"><ele>219.5</ele><time>2026-04-12T12:54:10.957Z</time></trkpt><trkpt lat="40.61062" lon="15.3929933"><ele>220.0</ele><time>2026-04-12T12:54:11.957Z</time></trkpt><trkpt lat="40.6106233" lon="15.39315"><ele>220.0</ele><time>2026-04-12T12:54:12.958Z</time></trkpt><trkpt lat="40.6106333" lon="15.3932967"><ele>220.0</ele><time>2026-04-12T12:54:13.957Z</time></trkpt><trkpt lat="40.610645" lon="15.3934367"><ele>220.0</ele><time>2026-04-12T12:54:14.957Z</time></trkpt><trkpt lat="40.610655" lon="15.3935717"><ele>220.0</ele><time>2026-04-12T12:54:15.957Z</time></trkpt><trkpt lat="40.6106633" lon="15.3936967"><ele>220.0</ele><time>2026-04-12T12:54:16.957Z</time></trkpt><trkpt lat="40.610675" lon="15.39382"><ele>220.49999999999997</ele><time>2026-04-12T12:54:17.957Z</time></trkpt><trkpt lat="40.6106817" lon="15.3939317"><ele>221.0</ele><time>2026-04-12T12:54:18.957Z</time></trkpt><trkpt lat="40.6106867" lon="15.394025"><ele>221.5</ele><time>2026-04-12T12:54:19.957Z</time></trkpt><trkpt lat="40.6106917" lon="15.3941783"><ele>222.0</ele><time>2026-04-12T12:54:21.957Z</time></trkpt><trkpt lat="40.6107167" lon="15.394295"><ele>222.49999999999997</ele><time>2026-04-12T12:54:23.957Z</time></trkpt><trkpt lat="40.610745" lon="15.3943867"><ele>223.0</ele><time>2026-04-12T12:54:25.957Z</time></trkpt><trkpt lat="40.61076" lon="15.394535"><ele>222.99999999999997</ele><time>2026-04-12T12:54:27.957Z</time></trkpt><trkpt lat="40.6107683" lon="15.3946183"><ele>223.0</ele><time>2026-04-12T12:54:28.957Z</time></trkpt><trkpt lat="40.610775" lon="15.394735"><ele>223.0</ele><time>2026-04-12T12:54:30.956Z</time></trkpt><trkpt lat="40.6108083" lon="15.3948233"><ele>223.0</ele><time>2026-04-12T12:58:54.956Z</time></trkpt><trkpt lat="40.6108267" lon="15.3947133"><ele>222.99999999999997</ele><time>2026-04-12T12:59:03.956Z</time></trkpt><trkpt lat="40.6108167" lon="15.3946"><ele>223.0</ele><time>2026-04-12T12:59:05.956Z</time></trkpt><trkpt lat="40.610805" lon="15.3944917"><ele>222.99999999999997</ele><time>2026-04-12T12:59:07.956Z</time></trkpt><trkpt lat="40.6107683" lon="15.3944183"><ele>223.0</ele><time>2026-04-12T12:59:09.956Z</time></trkpt><trkpt lat="40.6106833" lon="15.3944133"><ele>223.0</ele><time>2026-04-12T12:59:12.956Z</time></trkpt><trkpt lat="40.6106533" lon="15.3945333"><ele>223.0</ele><time>2026-04-12T12:59:15.956Z</time></trkpt><trkpt lat="40.610645" lon="15.3946183"><ele>222.99999999999997</ele><time>2026-04-12T12:59:17.956Z</time></trkpt><trkpt lat="40.6106317" lon="15.394705"><ele>223.0</ele><time>2026-04-12T12:59:19.956Z</time></trkpt><trkpt lat="40.61061" lon="15.3948067"><ele>223.2</ele><time>2026-04-12T12:59:21.956Z</time></trkpt><trkpt lat="40.610595" lon="15.3949217"><ele>223.4</ele><time>2026-04-12T12:59:23.956Z</time></trkpt><trkpt lat="40.61057" lon="15.395045"><ele>223.59999999999997</ele><time>2026-04-12T12:59:25.956Z</time></trkpt><trkpt lat="40.6105333" lon="15.3951717"><ele>223.79999999999998</ele><time>2026-04-12T12:59:27.956Z</time></trkpt><trkpt lat="40.6104917" lon="15.3953117"><ele>224.0</ele><time>2026-04-12T12:59:29.955Z</time></trkpt><trkpt lat="40.61043" lon="15.3954583"><ele>223.6</ele><time>2026-04-12T12:59:31.955Z</time></trkpt><trkpt lat="40.6103533" lon="15.3956033"><ele>223.2</ele><time>2026-04-12T12:59:33.955Z</time></trkpt><trkpt lat="40.6103083" lon="15.3956817"><ele>222.79999999999998</ele><time>2026-04-12T12:59:34.955Z</time></trkpt><trkpt lat="40.6102583" lon="15.3957617"><ele>222.39999999999998</ele><time>2026-04-12T12:59:35.955Z</time></trkpt><trkpt lat="40.6101983" lon="15.3958483"><ele>222.0</ele><time>2026-04-12T12:59:36.955Z</time></trkpt><trkpt lat="40.6101367" lon="15.3959417"><ele>222.6</ele><time>2026-04-12T12:59:37.955Z</time></trkpt><trkpt lat="40.61006" lon="15.3960367"><ele>223.2</ele><time>2026-04-12T12:59:38.955Z</time></trkpt><trkpt lat="40.60998" lon="15.3961317"><ele>223.8</ele><time>2026-04-12T12:59:39.955Z</time></trkpt><trkpt lat="40.6098883" lon="15.39622"><ele>224.4</ele><time>2026-04-12T12:59:40.955Z</time></trkpt><trkpt lat="40.6097883" lon="15.396305"><ele>225.0</ele><time>2026-04-12T12:59:41.955Z</time></trkpt><trkpt lat="40.6096783" lon="15.396385"><ele>225.0</ele><time>2026-04-12T12:59:42.955Z</time></trkpt><trkpt lat="40.6095633" lon="15.3964583"><ele>225.0</ele><time>2026-04-12T12:59:43.955Z</time></trkpt><trkpt lat="40.609435" lon="15.396525"><ele>225.0</ele><time>2026-04-12T12:59:44.955Z</time></trkpt><trkpt lat="40.6093083" lon="15.3965833"><ele>225.0</ele><time>2026-04-12T12:59:45.955Z</time></trkpt><trkpt lat="40.6091767" lon="15.396625"><ele>224.75</ele><time>2026-04-12T12:59:46.955Z</time></trkpt><trkpt lat="40.609045" lon="15.3966633"><ele>224.5</ele><time>2026-04-12T12:59:47.955Z</time></trkpt><trkpt lat="40.608905" lon="15.396695"><ele>224.25</ele><time>2026-04-12T12:59:48.955Z</time></trkpt><trkpt lat="40.6087617" lon="15.396725"><ele>224.0</ele><time>2026-04-12T12:59:49.955Z</time></trkpt><trkpt lat="40.6086167" lon="15.3967567"><ele>224.0</ele><time>2026-04-12T12:59:50.955Z</time></trkpt><trkpt lat="40.608475" lon="15.396795"><ele>224.0</ele><time>2026-04-12T12:59:51.955Z</time></trkpt><trkpt lat="40.608325" lon="15.3968283"><ele>224.0</ele><time>2026-04-12T12:59:52.955Z</time></trkpt><trkpt lat="40.60817" lon="15.396865"><ele>224.0</ele><time>2026-04-12T12:59:53.955Z</time></trkpt><trkpt lat="40.6080183" lon="15.39689"><ele>224.0</ele><time>2026-04-12T12:59:54.955Z</time></trkpt><trkpt lat="40.607865" lon="15.3969083"><ele>224.0</ele><time>2026-04-12T12:59:55.955Z</time></trkpt><trkpt lat="40.6077133" lon="15.3969117"><ele>225.66666666666669</ele><time>2026-04-12T12:59:56.955Z</time></trkpt><trkpt lat="40.60757" lon="15.3969067"><ele>227.33333333333331</ele><time>2026-04-12T12:59:57.955Z</time></trkpt><trkpt lat="40.6074217" lon="15.3968983"><ele>229.0</ele><time>2026-04-12T12:59:58.955Z</time></trkpt><trkpt lat="40.6072583" lon="15.3968733"><ele>229.0</ele><time>2026-04-12T12:59:59.955Z</time></trkpt><trkpt lat="40.6070967" lon="15.39684"><ele>229.0</ele><time>2026-04-12T13:00:00.956Z</time></trkpt><trkpt lat="40.6069433" lon="15.3968033"><ele>229.0</ele><time>2026-04-12T13:00:01.955Z</time></trkpt><trkpt lat="40.606785" lon="15.39677"><ele>230.66666666666666</ele><time>2026-04-12T13:00:02.955Z</time></trkpt><trkpt lat="40.606635" lon="15.396735"><ele>232.33333333333331</ele><time>2026-04-12T13:00:03.955Z</time></trkpt><trkpt lat="40.6064817" lon="15.3967083"><ele>234.0</ele><time>2026-04-12T13:00:04.955Z</time></trkpt><trkpt lat="40.6063233" lon="15.3966783"><ele>234.0</ele><time>2026-04-12T13:00:05.955Z</time></trkpt><trkpt lat="40.6061683" lon="15.3966383"><ele>234.0</ele><time>2026-04-12T13:00:06.955Z</time></trkpt><trkpt lat="40.6060133" lon="15.3965833"><ele>234.0</ele><time>2026-04-12T13:00:07.955Z</time></trkpt><trkpt lat="40.6058633" lon="15.396525"><ele>232.66666666666669</ele><time>2026-04-12T13:00:08.955Z</time></trkpt><trkpt lat="40.6057167" lon="15.3964567"><ele>231.33333333333334</ele><time>2026-04-12T13:00:09.955Z</time></trkpt><trkpt lat="40.6055717" lon="15.39639"><ele>230.0</ele><time>2026-04-12T13:00:10.955Z</time></trkpt><trkpt lat="40.6054217" lon="15.396325"><ele>231.0</ele><time>2026-04-12T13:00:11.955Z</time></trkpt><trkpt lat="40.60527" lon="15.39627"><ele>232.0</ele><time>2026-04-12T13:00:12.955Z</time></trkpt><trkpt lat="40.6051133" lon="15.3962233"><ele>233.0</ele><time>2026-04-12T13:00:13.955Z</time></trkpt><trkpt lat="40.6049533" lon="15.3962"><ele>233.0</ele><time>2026-04-12T13:00:14.955Z</time></trkpt><trkpt lat="40.60479" lon="15.396185"><ele>233.0</ele><time>2026-04-12T13:00:15.955Z</time></trkpt><trkpt lat="40.60462" lon="15.3961817"><ele>233.0</ele><time>2026-04-12T13:00:16.955Z</time></trkpt><trkpt lat="40.6044533" lon="15.3961867"><ele>233.0</ele><time>2026-04-12T13:00:17.955Z</time></trkpt><trkpt lat="40.60429" lon="15.3961967"><ele>233.0</ele><time>2026-04-12T13:00:18.955Z</time></trkpt><trkpt lat="40.6041233" lon="15.3962167"><ele>233.0</ele><time>2026-04-12T13:00:19.955Z</time></trkpt><trkpt lat="40.603955" lon="15.3962467"><ele>233.0</ele><time>2026-04-12T13:00:20.955Z</time></trkpt><trkpt lat="40.6037867" lon="15.39629"><ele>233.0</ele><time>2026-04-12T13:00:21.956Z</time></trkpt><trkpt lat="40.6036217" lon="15.39634"><ele>233.0</ele><time>2026-04-12T13:00:22.955Z</time></trkpt><trkpt lat="40.60346" lon="15.3963983"><ele>235.66666666666669</ele><time>2026-04-12T13:00:23.955Z</time></trkpt><trkpt lat="40.6032983" lon="15.3964683"><ele>238.33333333333331</ele><time>2026-04-12T13:00:24.955Z</time></trkpt><trkpt lat="40.6031383" lon="15.396535"><ele>241.0</ele><time>2026-04-12T13:00:25.955Z</time></trkpt><trkpt lat="40.6029783" lon="15.3965983"><ele>242.0</ele><time>2026-04-12T13:00:26.956Z</time></trkpt><trkpt lat="40.6028217" lon="15.3966533"><ele>243.0</ele><time>2026-04-12T13:00:27.955Z</time></trkpt><trkpt lat="40.60267" lon="15.396705"><ele>244.0</ele><time>2026-04-12T13:00:28.955Z</time></trkpt><trkpt lat="40.6025133" lon="15.3967517"><ele>244.0</ele><time>2026-04-12T13:00:29.955Z</time></trkpt><trkpt lat="40.6023567" lon="15.3967883"><ele>244.0</ele><time>2026-04-12T13:00:30.955Z</time></trkpt><trkpt lat="40.6021933" lon="15.3968117"><ele>244.0</ele><time>2026-04-12T13:00:31.955Z</time></trkpt><trkpt lat="40.6020283" lon="15.396825"><ele>244.66666666666666</ele><time>2026-04-12T13:00:32.955Z</time></trkpt><trkpt lat="40.6018667" lon="15.39683"><ele>245.33333333333331</ele><time>2026-04-12T13:00:33.955Z</time></trkpt><trkpt lat="40.601705" lon="15.3968283"><ele>246.0</ele><time>2026-04-12T13:00:34.955Z</time></trkpt><trkpt lat="40.6015467" lon="15.3968117"><ele>246.0</ele><time>2026-04-12T13:00:35.956Z</time></trkpt><trkpt lat="40.6013883" lon="15.3967783"><ele>246.0</ele><time>2026-04-12T13:00:36.955Z</time></trkpt><trkpt lat="40.6012333" lon="15.3967183"><ele>246.0</ele><time>2026-04-12T13:00:37.955Z</time></trkpt><trkpt lat="40.6010767" lon="15.3966433"><ele>248.0</ele><time>2026-04-12T13:00:38.955Z</time></trkpt><trkpt lat="40.6009233" lon="15.3965583"><ele>250.0</ele><time>2026-04-12T13:00:39.955Z</time></trkpt><trkpt lat="40.6007683" lon="15.3964733"><ele>252.0</ele><time>2026-04-12T13:00:40.955Z</time></trkpt><trkpt lat="40.6006133" lon="15.3963867"><ele>253.0</ele><time>2026-04-12T13:00:41.955Z</time></trkpt><trkpt lat="40.6004583" lon="15.3963083"><ele>254.0</ele><time>2026-04-12T13:00:42.956Z</time></trkpt><trkpt lat="40.6003" lon="15.3962267"><ele>255.0</ele><time>2026-04-12T13:00:43.955Z</time></trkpt><trkpt lat="40.6001417" lon="15.396145"><ele>255.0</ele><time>2026-04-12T13:00:44.955Z</time></trkpt><trkpt lat="40.5999817" lon="15.3960567"><ele>255.0</ele><time>2026-04-12T13:00:45.955Z</time></trkpt><trkpt lat="40.599825" lon="15.3959667"><ele>255.0</ele><time>2026-04-12T13:00:46.955Z</time></trkpt><trkpt lat="40.5996633" lon="15.3958783"><ele>255.0</ele><time>2026-04-12T13:00:47.955Z</time></trkpt><trkpt lat="40.5995017" lon="15.3957867"><ele>255.0</ele><time>2026-04-12T13:00:48.955Z</time></trkpt><trkpt lat="40.59934" lon="15.395695"><ele>255.0</ele><time>2026-04-12T13:00:49.955Z</time></trkpt><trkpt lat="40.599175" lon="15.3956017"><ele>255.66666666666669</ele><time>2026-04-12T13:00:50.955Z</time></trkpt><trkpt lat="40.5990083" lon="15.395505"><ele>256.33333333333337</ele><time>2026-04-12T13:00:51.955Z</time></trkpt><trkpt lat="40.59884" lon="15.3954233"><ele>257.0</ele><time>2026-04-12T13:00:52.956Z</time></trkpt><trkpt lat="40.5986733" lon="15.3953483"><ele>261.0</ele><time>2026-04-12T13:00:53.956Z</time></trkpt><trkpt lat="40.598505" lon="15.3952783"><ele>265.0</ele><time>2026-04-12T13:00:54.955Z</time></trkpt><trkpt lat="40.5983317" lon="15.3952283"><ele>269.0</ele><time>2026-04-12T13:00:55.955Z</time></trkpt><trkpt lat="40.5981583" lon="15.3951917"><ele>269.0</ele><time>2026-04-12T13:00:56.955Z</time></trkpt><trkpt lat="40.5979817" lon="15.39517"><ele>269.0</ele><time>2026-04-12T13:00:57.955Z</time></trkpt><trkpt lat="40.597805" lon="15.395175"><ele>269.0</ele><time>2026-04-12T13:00:58.955Z</time></trkpt><trkpt lat="40.5976283" lon="15.3952067"><ele>271.33333333333337</ele><time>2026-04-12T13:00:59.955Z</time></trkpt><trkpt lat="40.5974517" lon="15.39525"><ele>273.6666666666667</ele><time>2026-04-12T13:01:00.956Z</time></trkpt><trkpt lat="40.597275" lon="15.3953067"><ele>276.0</ele><time>2026-04-12T13:01:01.955Z</time></trkpt><trkpt lat="40.5971067" lon="15.3953817"><ele>278.0</ele><time>2026-04-12T13:01:02.955Z</time></trkpt><trkpt lat="40.5969467" lon="15.3954767"><ele>280.0</ele><time>2026-04-12T13:01:03.955Z</time></trkpt><trkpt lat="40.5967983" lon="15.39558"><ele>282.0</ele><time>2026-04-12T13:01:04.955Z</time></trkpt><trkpt lat="40.59666" lon="15.395695"><ele>283.3333333333333</ele><time>2026-04-12T13:01:05.955Z</time></trkpt><trkpt lat="40.5965233" lon="15.3958267"><ele>284.66666666666663</ele><time>2026-04-12T13:01:06.955Z</time></trkpt><trkpt lat="40.5963917" lon="15.3959733"><ele>286.0</ele><time>2026-04-12T13:01:07.956Z</time></trkpt><trkpt lat="40.59627" lon="15.3961333"><ele>286.66666666666663</ele><time>2026-04-12T13:01:08.955Z</time></trkpt><trkpt lat="40.5961533" lon="15.3963117"><ele>287.3333333333333</ele><time>2026-04-12T13:01:09.955Z</time></trkpt><trkpt lat="40.5960433" lon="15.3964983"><ele>288.0</ele><time>2026-04-12T13:01:10.955Z</time></trkpt><trkpt lat="40.59595" lon="15.3966967"><ele>288.0</ele><time>2026-04-12T13:01:11.956Z</time></trkpt><trkpt lat="40.5958667" lon="15.3969017"><ele>288.0</ele><time>2026-04-12T13:01:12.955Z</time></trkpt><trkpt lat="40.59579" lon="15.3971083"><ele>288.0</ele><time>2026-04-12T13:01:13.955Z</time></trkpt><trkpt lat="40.5957167" lon="15.3973183"><ele>291.0</ele><time>2026-04-12T13:01:14.955Z</time></trkpt><trkpt lat="40.595635" lon="15.3975283"><ele>294.0</ele><time>2026-04-12T13:01:15.955Z</time></trkpt><trkpt lat="40.5955467" lon="15.39774"><ele>297.0</ele><time>2026-04-12T13:01:16.955Z</time></trkpt><trkpt lat="40.59546" lon="15.3979483"><ele>297.3333333333333</ele><time>2026-04-12T13:01:17.955Z</time></trkpt><trkpt lat="40.5953733" lon="15.3981667"><ele>297.66666666666663</ele><time>2026-04-12T13:01:18.955Z</time></trkpt><trkpt lat="40.5952867" lon="15.398385"><ele>298.0</ele><time>2026-04-12T13:01:19.955Z</time></trkpt><trkpt lat="40.5951967" lon="15.3985983"><ele>298.0</ele><time>2026-04-12T13:01:20.955Z</time></trkpt><trkpt lat="40.5951017" lon="15.3988067"><ele>298.0</ele><time>2026-04-12T13:01:21.955Z</time></trkpt><trkpt lat="40.5950017" lon="15.3990067"><ele>298.0</ele><time>2026-04-12T13:01:22.955Z</time></trkpt><trkpt lat="40.5948983" lon="15.3991967"><ele>301.0</ele><time>2026-04-12T13:01:23.955Z</time></trkpt><trkpt lat="40.5947767" lon="15.3993717"><ele>304.0</ele><time>2026-04-12T13:01:24.955Z</time></trkpt><trkpt lat="40.5946467" lon="15.39953"><ele>307.0</ele><time>2026-04-12T13:01:25.955Z</time></trkpt><trkpt lat="40.5945017" lon="15.3996767"><ele>309.0</ele><time>2026-04-12T13:01:26.955Z</time></trkpt><trkpt lat="40.5943467" lon="15.3998"><ele>311.0</ele><time>2026-04-12T13:01:27.955Z</time></trkpt><trkpt lat="40.5941883" lon="15.3999267"><ele>313.0</ele><time>2026-04-12T13:01:28.955Z</time></trkpt><trkpt lat="40.59402" lon="15.4000467"><ele>313.0</ele><time>2026-04-12T13:01:29.955Z</time></trkpt><trkpt lat="40.5938333" lon="15.4001633"><ele>313.0</ele><time>2026-04-12T13:01:30.955Z</time></trkpt><trkpt lat="40.5936467" lon="15.4002783"><ele>313.0</ele><time>2026-04-12T13:01:31.955Z</time></trkpt><trkpt lat="40.5934583" lon="15.4003967"><ele>315.66666666666663</ele><time>2026-04-12T13:01:32.955Z</time></trkpt><trkpt lat="40.5932733" lon="15.4005067"><ele>318.3333333333333</ele><time>2026-04-12T13:01:33.955Z</time></trkpt><trkpt lat="40.5930933" lon="15.4006267"><ele>321.0</ele><time>2026-04-12T13:01:34.955Z</time></trkpt><trkpt lat="40.59291" lon="15.4007533"><ele>319.6666666666667</ele><time>2026-04-12T13:01:35.955Z</time></trkpt><trkpt lat="40.5927317" lon="15.40088"><ele>318.33333333333337</ele><time>2026-04-12T13:01:36.955Z</time></trkpt><trkpt lat="40.5925467" lon="15.40102"><ele>317.0</ele><time>2026-04-12T13:01:37.955Z</time></trkpt><trkpt lat="40.5923717" lon="15.4011767"><ele>319.0</ele><time>2026-04-12T13:01:38.956Z</time></trkpt><trkpt lat="40.5922117" lon="15.4013583"><ele>321.0</ele><time>2026-04-12T13:01:39.955Z</time></trkpt><trkpt lat="40.5920667" lon="15.40156"><ele>323.0</ele><time>2026-04-12T13:01:40.955Z</time></trkpt><trkpt lat="40.5919317" lon="15.4017767"><ele>323.0</ele><time>2026-04-12T13:01:41.955Z</time></trkpt><trkpt lat="40.5918033" lon="15.4020067"><ele>323.0</ele><time>2026-04-12T13:01:42.955Z</time></trkpt><trkpt lat="40.59169" lon="15.4022483"><ele>323.0</ele><time>2026-04-12T13:01:43.955Z</time></trkpt><trkpt lat="40.59159" lon="15.4024983"><ele>325.0</ele><time>2026-04-12T13:01:44.955Z</time></trkpt><trkpt lat="40.59152" lon="15.4027617"><ele>327.0</ele><time>2026-04-12T13:01:45.956Z</time></trkpt><trkpt lat="40.591455" lon="15.4030283"><ele>329.0</ele><time>2026-04-12T13:01:46.955Z</time></trkpt><trkpt lat="40.5913917" lon="15.4033117"><ele>332.0</ele><time>2026-04-12T13:01:47.955Z</time></trkpt><trkpt lat="40.591325" lon="15.4035967"><ele>335.0</ele><time>2026-04-12T13:01:48.955Z</time></trkpt><trkpt lat="40.591255" lon="15.4038783"><ele>336.0</ele><time>2026-04-12T13:01:49.955Z</time></trkpt><trkpt lat="40.591185" lon="15.4041667"><ele>337.0</ele><time>2026-04-12T13:01:50.955Z</time></trkpt><trkpt lat="40.59111" lon="15.40446"><ele>339.5</ele><time>2026-04-12T13:01:51.955Z</time></trkpt><trkpt lat="40.591035" lon="15.4047583"><ele>342.0</ele><time>2026-04-12T13:01:52.955Z</time></trkpt><trkpt lat="40.59096" lon="15.4050583"><ele>342.0</ele><time>2026-04-12T13:01:53.955Z</time></trkpt><trkpt lat="40.5908883" lon="15.4053617"><ele>342.0</ele><time>2026-04-12T13:01:54.955Z</time></trkpt><trkpt lat="40.590815" lon="15.4056683"><ele>345.5</ele><time>2026-04-12T13:01:55.955Z</time></trkpt><trkpt lat="40.590745" lon="15.4059717"><ele>349.0</ele><time>2026-04-12T13:01:56.955Z</time></trkpt><trkpt lat="40.590675" lon="15.4062583"><ele>351.0</ele><time>2026-04-12T13:01:57.955Z</time></trkpt><trkpt lat="40.590605" lon="15.4065317"><ele>353.0</ele><time>2026-04-12T13:01:58.955Z</time></trkpt><trkpt lat="40.5905333" lon="15.406785"><ele>355.0</ele><time>2026-04-12T13:01:59.955Z</time></trkpt><trkpt lat="40.5904617" lon="15.4070083"><ele>355.3333333333333</ele><time>2026-04-12T13:02:00.955Z</time></trkpt><trkpt lat="40.5903783" lon="15.4072067"><ele>355.6666666666667</ele><time>2026-04-12T13:02:01.955Z</time></trkpt><trkpt lat="40.5902867" lon="15.4073817"><ele>356.0</ele><time>2026-04-12T13:02:02.955Z</time></trkpt><trkpt lat="40.5901917" lon="15.40754"><ele>357.25</ele><time>2026-04-12T13:02:03.955Z</time></trkpt><trkpt lat="40.5900967" lon="15.407685"><ele>358.5</ele><time>2026-04-12T13:02:04.955Z</time></trkpt><trkpt lat="40.5899933" lon="15.407815"><ele>359.75</ele><time>2026-04-12T13:02:05.955Z</time></trkpt><trkpt lat="40.5898783" lon="15.4079367"><ele>361.0</ele><time>2026-04-12T13:02:06.955Z</time></trkpt><trkpt lat="40.5897633" lon="15.4080483"><ele>362.0</ele><time>2026-04-12T13:02:07.955Z</time></trkpt><trkpt lat="40.5896483" lon="15.4081517"><ele>363.0</ele><time>2026-04-12T13:02:08.955Z</time></trkpt><trkpt lat="40.589545" lon="15.40824"><ele>364.0</ele><time>2026-04-12T13:02:09.955Z</time></trkpt><trkpt lat="40.5894567" lon="15.4083183"><ele>365.0</ele><time>2026-04-12T13:02:10.955Z</time></trkpt><trkpt lat="40.5893817" lon="15.4083917"><ele>365.6</ele><time>2026-04-12T13:02:11.955Z</time></trkpt><trkpt lat="40.58932" lon="15.4084483"><ele>366.2</ele><time>2026-04-12T13:02:12.956Z</time></trkpt><trkpt lat="40.589235" lon="15.4085383"><ele>366.79999999999995</ele><time>2026-04-12T13:02:14.955Z</time></trkpt><trkpt lat="40.5892267" lon="15.4086467"><ele>367.4</ele><time>2026-04-12T13:02:16.955Z</time></trkpt><trkpt lat="40.5893033" lon="15.4087017"><ele>368.0</ele><time>2026-04-12T13:02:18.955Z</time></trkpt><trkpt lat="40.589415" lon="15.4087067"><ele>367.5</ele><time>2026-04-12T13:02:20.955Z</time></trkpt><trkpt lat="40.58954" lon="15.4087233"><ele>367.0</ele><time>2026-04-12T13:02:22.955Z</time></trkpt><trkpt lat="40.5896033" lon="15.4087383"><ele>366.5</ele><time>2026-04-12T13:02:23.955Z</time></trkpt><trkpt lat="40.58967" lon="15.4087483"><ele>366.0</ele><time>2026-04-12T13:02:24.955Z</time></trkpt><trkpt lat="40.5897417" lon="15.4087617"><ele>365.5</ele><time>2026-04-12T13:02:25.955Z</time></trkpt><trkpt lat="40.5898083" lon="15.4087883"><ele>365.0</ele><time>2026-04-12T13:02:26.955Z</time></trkpt><trkpt lat="40.5898717" lon="15.4088083"><ele>365.42857142857144</ele><time>2026-04-12T13:02:27.955Z</time></trkpt><trkpt lat="40.5899367" lon="15.4088317"><ele>365.8571428571429</ele><time>2026-04-12T13:02:28.955Z</time></trkpt><trkpt lat="40.590005" lon="15.408855"><ele>366.28571428571433</ele><time>2026-04-12T13:02:29.955Z</time></trkpt><trkpt lat="40.590075" lon="15.4088767"><ele>366.7142857142857</ele><time>2026-04-12T13:02:30.955Z</time></trkpt><trkpt lat="40.5901467" lon="15.40889"><ele>367.1428571428571</ele><time>2026-04-12T13:02:31.956Z</time></trkpt><trkpt lat="40.5902117" lon="15.4088933"><ele>367.5714285714286</ele><time>2026-04-12T13:02:32.955Z</time></trkpt><trkpt lat="40.5902767" lon="15.4088917"><ele>368.0</ele><time>2026-04-12T13:02:33.955Z</time></trkpt><trkpt lat="40.590345" lon="15.4088717"><ele>368.0</ele><time>2026-04-12T13:02:34.955Z</time></trkpt><trkpt lat="40.5904033" lon="15.408835"><ele>368.0</ele><time>2026-04-12T13:02:35.955Z</time></trkpt><trkpt lat="40.59046" lon="15.408785"><ele>368.0</ele><time>2026-04-12T13:02:36.955Z</time></trkpt><trkpt lat="40.5905133" lon="15.4087317"><ele>368.0</ele><time>2026-04-12T13:02:37.955Z</time></trkpt><trkpt lat="40.5905733" lon="15.4086817"><ele>368.0</ele><time>2026-04-12T13:02:38.955Z</time></trkpt><trkpt lat="40.5906333" lon="15.4086317"><ele>368.0</ele><time>2026-04-12T13:02:39.955Z</time></trkpt><trkpt lat="40.5906883" lon="15.4085867"><ele>368.0</ele><time>2026-04-12T13:02:40.955Z</time></trkpt><trkpt lat="40.59075" lon="15.40855"><ele>368.0</ele><time>2026-04-12T13:02:41.955Z</time></trkpt><trkpt lat="40.5908533" lon="15.40854"><ele>368.0</ele><time>2026-04-12T13:02:43.955Z</time></trkpt><trkpt lat="40.5909367" lon="15.40864"><ele>368.0</ele><time>2026-04-12T13:02:45.955Z</time></trkpt><trkpt lat="40.5909617" lon="15.4087217"><ele>368.0</ele><time>2026-04-12T13:02:46.955Z</time></trkpt><trkpt lat="40.5909783" lon="15.40881"><ele>368.0</ele><time>2026-04-12T13:02:47.955Z</time></trkpt><trkpt lat="40.59099" lon="15.4088967"><ele>368.0</ele><time>2026-04-12T13:02:48.955Z</time></trkpt><trkpt lat="40.5910017" lon="15.4089867"><ele>368.0</ele><time>2026-04-12T13:02:49.956Z</time></trkpt><trkpt lat="40.5910067" lon="15.4090817"><ele>368.0</ele><time>2026-04-12T13:02:50.955Z</time></trkpt><trkpt lat="40.5910017" lon="15.4091817"><ele>368.0</ele><time>2026-04-12T13:02:51.955Z</time></trkpt><trkpt lat="40.5909983" lon="15.4092833"><ele>368.0</ele><time>2026-04-12T13:02:52.955Z</time></trkpt><trkpt lat="40.591" lon="15.4093917"><ele>368.0</ele><time>2026-04-12T13:02:53.955Z</time></trkpt><trkpt lat="40.5910067" lon="15.4095017"><ele>368.0</ele><time>2026-04-12T13:02:54.955Z</time></trkpt><trkpt lat="40.5910283" lon="15.4096133"><ele>369.2</ele><time>2026-04-12T13:02:55.955Z</time></trkpt><trkpt lat="40.5910567" lon="15.4097283"><ele>370.4</ele><time>2026-04-12T13:02:56.955Z</time></trkpt><trkpt lat="40.59109" lon="15.40985"><ele>371.59999999999997</ele><time>2026-04-12T13:02:57.955Z</time></trkpt><trkpt lat="40.59113" lon="15.4099783"><ele>372.79999999999995</ele><time>2026-04-12T13:02:58.955Z</time></trkpt><trkpt lat="40.5911733" lon="15.4101017"><ele>374.0</ele><time>2026-04-12T13:02:59.955Z</time></trkpt><trkpt lat="40.5912133" lon="15.4102333"><ele>374.0</ele><time>2026-04-12T13:03:00.955Z</time></trkpt><trkpt lat="40.5912483" lon="15.4103583"><ele>374.0</ele><time>2026-04-12T13:03:01.956Z</time></trkpt><trkpt lat="40.5912883" lon="15.410485"><ele>374.0</ele><time>2026-04-12T13:03:02.955Z</time></trkpt><trkpt lat="40.5913367" lon="15.4106083"><ele>374.0</ele><time>2026-04-12T13:03:03.955Z</time></trkpt><trkpt lat="40.5913867" lon="15.4107317"><ele>374.0</ele><time>2026-04-12T13:03:04.955Z</time></trkpt><trkpt lat="40.59144" lon="15.410855"><ele>375.6</ele><time>2026-04-12T13:03:05.955Z</time></trkpt><trkpt lat="40.5914983" lon="15.4109717"><ele>377.2</ele><time>2026-04-12T13:03:06.955Z</time></trkpt><trkpt lat="40.5915567" lon="15.4110883"><ele>378.8</ele><time>2026-04-12T13:03:07.955Z</time></trkpt><trkpt lat="40.59163" lon="15.4111983"><ele>380.40000000000003</ele><time>2026-04-12T13:03:08.955Z</time></trkpt><trkpt lat="40.591705" lon="15.4113167"><ele>382.0</ele><time>2026-04-12T13:03:09.955Z</time></trkpt><trkpt lat="40.5917917" lon="15.4114267"><ele>383.40000000000003</ele><time>2026-04-12T13:03:10.955Z</time></trkpt><trkpt lat="40.5918733" lon="15.4115283"><ele>384.8</ele><time>2026-04-12T13:03:11.955Z</time></trkpt><trkpt lat="40.5919483" lon="15.4116267"><ele>386.2</ele><time>2026-04-12T13:03:12.955Z</time></trkpt><trkpt lat="40.5920233" lon="15.411725"><ele>387.6</ele><time>2026-04-12T13:03:13.955Z</time></trkpt><trkpt lat="40.5920983" lon="15.411815"><ele>389.0</ele><time>2026-04-12T13:03:14.955Z</time></trkpt><trkpt lat="40.5921683" lon="15.4118933"><ele>389.0</ele><time>2026-04-12T13:03:15.955Z</time></trkpt><trkpt lat="40.592225" lon="15.411985"><ele>389.0</ele><time>2026-04-12T13:03:16.955Z</time></trkpt><trkpt lat="40.592275" lon="15.4120933"><ele>389.0</ele><time>2026-04-12T13:03:17.955Z</time></trkpt><trkpt lat="40.5923267" lon="15.4122067"><ele>389.0</ele><time>2026-04-12T13:03:18.955Z</time></trkpt><trkpt lat="40.59238" lon="15.41232"><ele>389.0</ele><time>2026-04-12T13:03:19.955Z</time></trkpt><trkpt lat="40.5924367" lon="15.4124317"><ele>390.0</ele><time>2026-04-12T13:03:20.956Z</time></trkpt><trkpt lat="40.5925017" lon="15.4125317"><ele>391.0</ele><time>2026-04-12T13:03:21.956Z</time></trkpt><trkpt lat="40.5925733" lon="15.4126233"><ele>392.0</ele><time>2026-04-12T13:03:22.955Z</time></trkpt><trkpt lat="40.592645" lon="15.4126983"><ele>393.0</ele><time>2026-04-12T13:03:23.955Z</time></trkpt><trkpt lat="40.5927317" lon="15.4127567"><ele>394.0</ele><time>2026-04-12T13:03:24.955Z</time></trkpt><trkpt lat="40.592825" lon="15.412785"><ele>395.6</ele><time>2026-04-12T13:03:25.955Z</time></trkpt><trkpt lat="40.59292" lon="15.4127917"><ele>397.2</ele><time>2026-04-12T13:03:26.956Z</time></trkpt><trkpt lat="40.59302" lon="15.4127633"><ele>398.8</ele><time>2026-04-12T13:03:27.955Z</time></trkpt><trkpt lat="40.59312" lon="15.4127083"><ele>400.40000000000003</ele><time>2026-04-12T13:03:28.955Z</time></trkpt><trkpt lat="40.5932117" lon="15.4126283"><ele>402.0</ele><time>2026-04-12T13:03:29.955Z</time></trkpt><trkpt lat="40.5932933" lon="15.4125383"><ele>402.0</ele><time>2026-04-12T13:03:30.955Z</time></trkpt><trkpt lat="40.5933717" lon="15.4124567"><ele>402.0</ele><time>2026-04-12T13:03:31.955Z</time></trkpt><trkpt lat="40.59344" lon="15.4123717"><ele>402.0</ele><time>2026-04-12T13:03:32.955Z</time></trkpt><trkpt lat="40.593495" lon="15.4122667"><ele>402.0</ele><time>2026-04-12T13:03:33.955Z</time></trkpt><trkpt lat="40.593545" lon="15.4121533"><ele>402.0</ele><time>2026-04-12T13:03:34.955Z</time></trkpt><trkpt lat="40.5935883" lon="15.4120267"><ele>401.6</ele><time>2026-04-12T13:03:35.955Z</time></trkpt><trkpt lat="40.59363" lon="15.411905"><ele>401.20000000000005</ele><time>2026-04-12T13:03:36.955Z</time></trkpt><trkpt lat="40.59368" lon="15.411785"><ele>400.8</ele><time>2026-04-12T13:03:37.955Z</time></trkpt><trkpt lat="40.5937433" lon="15.4116683"><ele>400.4</ele><time>2026-04-12T13:03:38.955Z</time></trkpt><trkpt lat="40.59382" lon="15.4115633"><ele>400.0</ele><time>2026-04-12T13:03:39.956Z</time></trkpt><trkpt lat="40.5938917" lon="15.4114533"><ele>400.0</ele><time>2026-04-12T13:03:40.955Z</time></trkpt><trkpt lat="40.5939583" lon="15.4113383"><ele>400.0</ele><time>2026-04-12T13:03:41.955Z</time></trkpt><trkpt lat="40.5940183" lon="15.4112317"><ele>400.0</ele><time>2026-04-12T13:03:42.955Z</time></trkpt><trkpt lat="40.5940833" lon="15.4111383"><ele>400.0</ele><time>2026-04-12T13:03:43.955Z</time></trkpt><trkpt lat="40.5941533" lon="15.411055"><ele>400.0</ele><time>2026-04-12T13:03:44.955Z</time></trkpt><trkpt lat="40.5942133" lon="15.4109633"><ele>398.8</ele><time>2026-04-12T13:03:45.955Z</time></trkpt><trkpt lat="40.5942767" lon="15.4108533"><ele>397.6</ele><time>2026-04-12T13:03:46.955Z</time></trkpt><trkpt lat="40.5943383" lon="15.4107383"><ele>396.4</ele><time>2026-04-12T13:03:47.955Z</time></trkpt><trkpt lat="40.5943833" lon="15.4106083"><ele>395.2</ele><time>2026-04-12T13:03:48.955Z</time></trkpt><trkpt lat="40.59443" lon="15.4104817"><ele>394.0</ele><time>2026-04-12T13:03:49.955Z</time></trkpt><trkpt lat="40.5944767" lon="15.4103717"><ele>394.6</ele><time>2026-04-12T13:03:50.955Z</time></trkpt><trkpt lat="40.5945367" lon="15.410275"><ele>395.2</ele><time>2026-04-12T13:03:51.955Z</time></trkpt><trkpt lat="40.5946233" lon="15.4101967"><ele>395.8</ele><time>2026-04-12T13:03:52.955Z</time></trkpt><trkpt lat="40.5947267" lon="15.4101367"><ele>396.40000000000003</ele><time>2026-04-12T13:03:53.955Z</time></trkpt><trkpt lat="40.594835" lon="15.4100883"><ele>397.0</ele><time>2026-04-12T13:03:54.955Z</time></trkpt><trkpt lat="40.594945" lon="15.4100333"><ele>397.0</ele><time>2026-04-12T13:03:55.955Z</time></trkpt><trkpt lat="40.5950583" lon="15.40997"><ele>397.0</ele><time>2026-04-12T13:03:56.955Z</time></trkpt><trkpt lat="40.59517" lon="15.4098917"><ele>397.0</ele><time>2026-04-12T13:03:57.955Z</time></trkpt><trkpt lat="40.5952683" lon="15.4098"><ele>397.0</ele><time>2026-04-12T13:03:58.955Z</time></trkpt><trkpt lat="40.5953617" lon="15.4097083"><ele>398.00000000000006</ele><time>2026-04-12T13:03:59.955Z</time></trkpt><trkpt lat="40.5954517" lon="15.409635"><ele>399.0</ele><time>2026-04-12T13:04:00.955Z</time></trkpt><trkpt lat="40.59554" lon="15.40959"><ele>400.0</ele><time>2026-04-12T13:04:01.955Z</time></trkpt><trkpt lat="40.59562" lon="15.4095733"><ele>401.0</ele><time>2026-04-12T13:04:02.955Z</time></trkpt><trkpt lat="40.595695" lon="15.40959"><ele>402.00000000000006</ele><time>2026-04-12T13:04:03.955Z</time></trkpt><trkpt lat="40.5957767" lon="15.409635"><ele>403.0</ele><time>2026-04-12T13:04:04.955Z</time></trkpt><trkpt lat="40.59586" lon="15.4096783"><ele>404.79999999999995</ele><time>2026-04-12T13:04:05.955Z</time></trkpt><trkpt lat="40.5959533" lon="15.4097"><ele>406.6</ele><time>2026-04-12T13:04:06.955Z</time></trkpt><trkpt lat="40.5960467" lon="15.4097067"><ele>408.4</ele><time>2026-04-12T13:04:07.955Z</time></trkpt><trkpt lat="40.5961483" lon="15.4097117"><ele>410.20000000000005</ele><time>2026-04-12T13:04:08.955Z</time></trkpt><trkpt lat="40.59625" lon="15.4097433"><ele>412.0</ele><time>2026-04-12T13:04:09.955Z</time></trkpt><trkpt lat="40.5963483" lon="15.4097917"><ele>413.0</ele><time>2026-04-12T13:04:10.955Z</time></trkpt><trkpt lat="40.5964433" lon="15.409845"><ele>414.0</ele><time>2026-04-12T13:04:11.955Z</time></trkpt><trkpt lat="40.596545" lon="15.409905"><ele>415.0</ele><time>2026-04-12T13:04:12.955Z</time></trkpt><trkpt lat="40.5966517" lon="15.409965"><ele>416.0</ele><time>2026-04-12T13:04:13.955Z</time></trkpt><trkpt lat="40.59676" lon="15.4100267"><ele>417.0</ele><time>2026-04-12T13:04:14.954Z</time></trkpt><trkpt lat="40.5968633" lon="15.4100783"><ele>417.0</ele><time>2026-04-12T13:04:15.954Z</time></trkpt><trkpt lat="40.596965" lon="15.41012"><ele>417.0</ele><time>2026-04-12T13:04:16.954Z</time></trkpt><trkpt lat="40.597055" lon="15.410165"><ele>417.0</ele><time>2026-04-12T13:04:17.954Z</time></trkpt><trkpt lat="40.5971417" lon="15.410205"><ele>417.0</ele><time>2026-04-12T13:04:18.954Z</time></trkpt><trkpt lat="40.5972133" lon="15.4102633"><ele>417.0</ele><time>2026-04-12T13:04:19.955Z</time></trkpt><trkpt lat="40.5972683" lon="15.410335"><ele>417.1666666666667</ele><time>2026-04-12T13:04:20.955Z</time></trkpt><trkpt lat="40.5973" lon="15.4104267"><ele>417.33333333333337</ele><time>2026-04-12T13:04:21.954Z</time></trkpt><trkpt lat="40.5973133" lon="15.41053"><ele>417.5</ele><time>2026-04-12T13:04:22.954Z</time></trkpt><trkpt lat="40.5973267" lon="15.410645"><ele>417.6666666666667</ele><time>2026-04-12T13:04:23.954Z</time></trkpt><trkpt lat="40.5973383" lon="15.4107617"><ele>417.83333333333337</ele><time>2026-04-12T13:04:24.954Z</time></trkpt><trkpt lat="40.59735" lon="15.410885"><ele>418.0</ele><time>2026-04-12T13:04:25.954Z</time></trkpt><trkpt lat="40.597355" lon="15.4110117"><ele>419.2</ele><time>2026-04-12T13:04:26.954Z</time></trkpt><trkpt lat="40.5973783" lon="15.41113"><ele>420.4</ele><time>2026-04-12T13:04:27.954Z</time></trkpt><trkpt lat="40.5974" lon="15.41126"><ele>421.59999999999997</ele><time>2026-04-12T13:04:28.954Z</time></trkpt><trkpt lat="40.5974167" lon="15.4113933"><ele>422.79999999999995</ele><time>2026-04-12T13:04:29.954Z</time></trkpt><trkpt lat="40.597445" lon="15.411515"><ele>424.0</ele><time>2026-04-12T13:04:30.954Z</time></trkpt><trkpt lat="40.5974633" lon="15.411635"><ele>425.0</ele><time>2026-04-12T13:04:31.954Z</time></trkpt><trkpt lat="40.5974683" lon="15.4117583"><ele>426.0</ele><time>2026-04-12T13:04:32.954Z</time></trkpt><trkpt lat="40.59747" lon="15.411875"><ele>427.0</ele><time>2026-04-12T13:04:33.954Z</time></trkpt><trkpt lat="40.5974667" lon="15.4119917"><ele>428.0</ele><time>2026-04-12T13:04:34.954Z</time></trkpt><trkpt lat="40.5974617" lon="15.41211"><ele>429.0</ele><time>2026-04-12T13:04:35.954Z</time></trkpt><trkpt lat="40.5974533" lon="15.4122333"><ele>429.6</ele><time>2026-04-12T13:04:36.954Z</time></trkpt><trkpt lat="40.5974467" lon="15.4123567"><ele>430.2</ele><time>2026-04-12T13:04:37.954Z</time></trkpt><trkpt lat="40.597435" lon="15.4124883"><ele>430.80000000000007</ele><time>2026-04-12T13:04:38.954Z</time></trkpt><trkpt lat="40.5974283" lon="15.4126267"><ele>431.40000000000003</ele><time>2026-04-12T13:04:39.954Z</time></trkpt><trkpt lat="40.5974233" lon="15.4127633"><ele>432.0</ele><time>2026-04-12T13:04:40.954Z</time></trkpt><trkpt lat="40.5974167" lon="15.4128817"><ele>432.6</ele><time>2026-04-12T13:04:41.955Z</time></trkpt><trkpt lat="40.59742" lon="15.4129967"><ele>433.20000000000005</ele><time>2026-04-12T13:04:42.954Z</time></trkpt><trkpt lat="40.5974217" lon="15.4131167"><ele>433.8</ele><time>2026-04-12T13:04:43.954Z</time></trkpt><trkpt lat="40.5974167" lon="15.4132433"><ele>434.4</ele><time>2026-04-12T13:04:44.954Z</time></trkpt><trkpt lat="40.59741" lon="15.4133617"><ele>435.0</ele><time>2026-04-12T13:04:45.954Z</time></trkpt><trkpt lat="40.5974067" lon="15.4134883"><ele>435.0</ele><time>2026-04-12T13:04:46.954Z</time></trkpt><trkpt lat="40.59739" lon="15.4136167"><ele>435.0</ele><time>2026-04-12T13:04:47.954Z</time></trkpt><trkpt lat="40.59737" lon="15.4137433"><ele>435.0</ele><time>2026-04-12T13:04:48.954Z</time></trkpt><trkpt lat="40.5973367" lon="15.4138683"><ele>435.0</ele><time>2026-04-12T13:04:49.954Z</time></trkpt><trkpt lat="40.5973083" lon="15.41399"><ele>435.0</ele><time>2026-04-12T13:04:50.954Z</time></trkpt><trkpt lat="40.5972683" lon="15.4140983"><ele>435.6</ele><time>2026-04-12T13:04:51.954Z</time></trkpt><trkpt lat="40.59722" lon="15.4142117"><ele>436.2</ele><time>2026-04-12T13:04:52.954Z</time></trkpt><trkpt lat="40.5971617" lon="15.4143267"><ele>436.79999999999995</ele><time>2026-04-12T13:04:53.954Z</time></trkpt><trkpt lat="40.5970983" lon="15.41444"><ele>437.4</ele><time>2026-04-12T13:04:54.954Z</time></trkpt><trkpt lat="40.597035" lon="15.414555"><ele>438.0</ele><time>2026-04-12T13:04:55.954Z</time></trkpt><trkpt lat="40.5969633" lon="15.4146683"><ele>440.0</ele><time>2026-04-12T13:04:56.954Z</time></trkpt><trkpt lat="40.596885" lon="15.4147783"><ele>442.0</ele><time>2026-04-12T13:04:57.954Z</time></trkpt><trkpt lat="40.5968067" lon="15.4148917"><ele>444.0</ele><time>2026-04-12T13:04:58.954Z</time></trkpt><trkpt lat="40.5967333" lon="15.4150017"><ele>446.0</ele><time>2026-04-12T13:04:59.954Z</time></trkpt><trkpt lat="40.5966633" lon="15.4151217"><ele>446.0</ele><time>2026-04-12T13:05:00.954Z</time></trkpt><trkpt lat="40.5966" lon="15.4152383"><ele>446.0</ele><time>2026-04-12T13:05:01.955Z</time></trkpt><trkpt lat="40.5965483" lon="15.415365"><ele>446.0</ele><time>2026-04-12T13:05:02.954Z</time></trkpt><trkpt lat="40.596505" lon="15.4154967"><ele>446.0</ele><time>2026-04-12T13:05:03.954Z</time></trkpt><trkpt lat="40.5964633" lon="15.4156317"><ele>446.0</ele><time>2026-04-12T13:05:04.954Z</time></trkpt><trkpt lat="40.5964217" lon="15.4157633"><ele>446.20000000000005</ele><time>2026-04-12T13:05:05.954Z</time></trkpt><trkpt lat="40.5963733" lon="15.4158983"><ele>446.40000000000003</ele><time>2026-04-12T13:05:06.954Z</time></trkpt><trkpt lat="40.5963333" lon="15.416035"><ele>446.6</ele><time>2026-04-12T13:05:07.954Z</time></trkpt><trkpt lat="40.5962917" lon="15.4161533"><ele>446.8</ele><time>2026-04-12T13:05:08.954Z</time></trkpt><trkpt lat="40.5962417" lon="15.41626"><ele>447.0</ele><time>2026-04-12T13:05:09.954Z</time></trkpt><trkpt lat="40.5961833" lon="15.4163717"><ele>448.8</ele><time>2026-04-12T13:05:10.954Z</time></trkpt><trkpt lat="40.5961183" lon="15.4164783"><ele>450.6</ele><time>2026-04-12T13:05:11.954Z</time></trkpt><trkpt lat="40.59605" lon="15.4165733"><ele>452.40000000000003</ele><time>2026-04-12T13:05:12.954Z</time></trkpt><trkpt lat="40.5959783" lon="15.416685"><ele>454.20000000000005</ele><time>2026-04-12T13:05:13.954Z</time></trkpt><trkpt lat="40.59591" lon="15.4167983"><ele>456.0</ele><time>2026-04-12T13:05:14.954Z</time></trkpt><trkpt lat="40.5958567" lon="15.4169283"><ele>456.0</ele><time>2026-04-12T13:05:15.954Z</time></trkpt><trkpt lat="40.5958017" lon="15.4170533"><ele>456.0</ele><time>2026-04-12T13:05:16.954Z</time></trkpt><trkpt lat="40.59575" lon="15.4171917"><ele>456.0</ele><time>2026-04-12T13:05:17.954Z</time></trkpt><trkpt lat="40.595695" lon="15.4173217"><ele>456.0</ele><time>2026-04-12T13:05:18.954Z</time></trkpt><trkpt lat="40.5956367" lon="15.41745"><ele>456.5</ele><time>2026-04-12T13:05:19.954Z</time></trkpt><trkpt lat="40.59558" lon="15.41757"><ele>457.0</ele><time>2026-04-12T13:05:20.954Z</time></trkpt><trkpt lat="40.595515" lon="15.4176683"><ele>457.5</ele><time>2026-04-12T13:05:21.954Z</time></trkpt><trkpt lat="40.5954617" lon="15.4177533"><ele>458.0</ele><time>2026-04-12T13:05:22.954Z</time></trkpt><trkpt lat="40.595415" lon="15.41783"><ele>458.5</ele><time>2026-04-12T13:05:23.954Z</time></trkpt><trkpt lat="40.5953833" lon="15.4179033"><ele>459.0</ele><time>2026-04-12T13:05:24.955Z</time></trkpt><trkpt lat="40.5953967" lon="15.41803"><ele>459.4</ele><time>2026-04-12T13:05:26.954Z</time></trkpt><trkpt lat="40.5954633" lon="15.418185"><ele>459.79999999999995</ele><time>2026-04-12T13:05:28.954Z</time></trkpt><trkpt lat="40.5955" lon="15.4182767"><ele>460.20000000000005</ele><time>2026-04-12T13:05:29.954Z</time></trkpt><trkpt lat="40.5955433" lon="15.4183833"><ele>460.6</ele><time>2026-04-12T13:05:30.954Z</time></trkpt><trkpt lat="40.595575" lon="15.4184983"><ele>461.0</ele><time>2026-04-12T13:05:31.955Z</time></trkpt><trkpt lat="40.5956" lon="15.4186283"><ele>461.0</ele><time>2026-04-12T13:05:32.954Z</time></trkpt><trkpt lat="40.5956217" lon="15.4187633"><ele>461.0</ele><time>2026-04-12T13:05:33.954Z</time></trkpt><trkpt lat="40.5956433" lon="15.41889"><ele>461.0</ele><time>2026-04-12T13:05:34.954Z</time></trkpt><trkpt lat="40.595665" lon="15.4190117"><ele>461.0</ele><time>2026-04-12T13:05:35.954Z</time></trkpt><trkpt lat="40.5956867" lon="15.41913"><ele>461.0</ele><time>2026-04-12T13:05:36.955Z</time></trkpt><trkpt lat="40.5957183" lon="15.419245"><ele>460.66666666666663</ele><time>2026-04-12T13:05:37.954Z</time></trkpt><trkpt lat="40.59575" lon="15.4193517"><ele>460.3333333333333</ele><time>2026-04-12T13:05:38.954Z</time></trkpt><trkpt lat="40.5957817" lon="15.419465"><ele>460.0</ele><time>2026-04-12T13:05:39.954Z</time></trkpt><trkpt lat="40.5958133" lon="15.4195667"><ele>459.66666666666663</ele><time>2026-04-12T13:05:40.954Z</time></trkpt><trkpt lat="40.5958383" lon="15.41966"><ele>459.3333333333333</ele><time>2026-04-12T13:05:41.954Z</time></trkpt><trkpt lat="40.5958433" lon="15.419805"><ele>459.0</ele><time>2026-04-12T13:05:43.954Z</time></trkpt><trkpt lat="40.5958183" lon="15.419965"><ele>457.2</ele><time>2026-04-12T13:05:45.954Z</time></trkpt><trkpt lat="40.595805" lon="15.4200617"><ele>455.4</ele><time>2026-04-12T13:05:46.954Z</time></trkpt><trkpt lat="40.5958017" lon="15.4201717"><ele>453.6</ele><time>2026-04-12T13:05:47.954Z</time></trkpt><trkpt lat="40.5958117" lon="15.420295"><ele>451.8</ele><time>2026-04-12T13:05:48.954Z</time></trkpt><trkpt lat="40.5958233" lon="15.4204217"><ele>450.0</ele><time>2026-04-12T13:05:49.954Z</time></trkpt><trkpt lat="40.5958317" lon="15.4205633"><ele>448.75</ele><time>2026-04-12T13:05:50.954Z</time></trkpt><trkpt lat="40.5958317" lon="15.4207117"><ele>447.5</ele><time>2026-04-12T13:05:51.955Z</time></trkpt><trkpt lat="40.59584" lon="15.4208633"><ele>446.25</ele><time>2026-04-12T13:05:52.954Z</time></trkpt><trkpt lat="40.5958567" lon="15.421015"><ele>445.0</ele><time>2026-04-12T13:05:53.954Z</time></trkpt><trkpt lat="40.5958917" lon="15.42115"><ele>445.0</ele><time>2026-04-12T13:05:54.954Z</time></trkpt><trkpt lat="40.5959367" lon="15.4212767"><ele>445.0</ele><time>2026-04-12T13:05:55.954Z</time></trkpt><trkpt lat="40.5959917" lon="15.4214033"><ele>445.0</ele><time>2026-04-12T13:05:56.954Z</time></trkpt><trkpt lat="40.596045" lon="15.4215267"><ele>445.0</ele><time>2026-04-12T13:05:57.954Z</time></trkpt><trkpt lat="40.5960817" lon="15.42165"><ele>445.0</ele><time>2026-04-12T13:05:58.954Z</time></trkpt><trkpt lat="40.5961183" lon="15.4217817"><ele>445.6</ele><time>2026-04-12T13:05:59.954Z</time></trkpt><trkpt lat="40.5961467" lon="15.4219133"><ele>446.2</ele><time>2026-04-12T13:06:00.954Z</time></trkpt><trkpt lat="40.596155" lon="15.4220583"><ele>446.79999999999995</ele><time>2026-04-12T13:06:01.954Z</time></trkpt><trkpt lat="40.596165" lon="15.4222083"><ele>447.4</ele><time>2026-04-12T13:06:02.955Z</time></trkpt><trkpt lat="40.596175" lon="15.4223583"><ele>448.0</ele><time>2026-04-12T13:06:03.954Z</time></trkpt><trkpt lat="40.59618" lon="15.4225133"><ele>444.4</ele><time>2026-04-12T13:06:04.954Z</time></trkpt><trkpt lat="40.5961833" lon="15.4226633"><ele>440.79999999999995</ele><time>2026-04-12T13:06:05.954Z</time></trkpt><trkpt lat="40.5961917" lon="15.42281"><ele>437.2</ele><time>2026-04-12T13:06:06.954Z</time></trkpt><trkpt lat="40.5962017" lon="15.422955"><ele>433.6</ele><time>2026-04-12T13:06:07.954Z</time></trkpt><trkpt lat="40.596215" lon="15.4230917"><ele>430.0</ele><time>2026-04-12T13:06:08.954Z</time></trkpt><trkpt lat="40.5962283" lon="15.4232267"><ele>429.8</ele><time>2026-04-12T13:06:09.954Z</time></trkpt><trkpt lat="40.5962383" lon="15.4233583"><ele>429.6</ele><time>2026-04-12T13:06:10.954Z</time></trkpt><trkpt lat="40.5962433" lon="15.4234917"><ele>429.4</ele><time>2026-04-12T13:06:11.954Z</time></trkpt><trkpt lat="40.59625" lon="15.4236317"><ele>429.2</ele><time>2026-04-12T13:06:12.954Z</time></trkpt><trkpt lat="40.596245" lon="15.4237767"><ele>429.0</ele><time>2026-04-12T13:06:13.954Z</time></trkpt><trkpt lat="40.596235" lon="15.4239233"><ele>428.79999999999995</ele><time>2026-04-12T13:06:14.954Z</time></trkpt><trkpt lat="40.596215" lon="15.42407"><ele>428.59999999999997</ele><time>2026-04-12T13:06:15.954Z</time></trkpt><trkpt lat="40.596195" lon="15.4242117"><ele>428.4</ele><time>2026-04-12T13:06:16.954Z</time></trkpt><trkpt lat="40.59618" lon="15.4243483"><ele>428.2</ele><time>2026-04-12T13:06:17.954Z</time></trkpt><trkpt lat="40.5961767" lon="15.424475"><ele>428.0</ele><time>2026-04-12T13:06:18.954Z</time></trkpt><trkpt lat="40.5961817" lon="15.4245983"><ele>429.4</ele><time>2026-04-12T13:06:19.954Z</time></trkpt><trkpt lat="40.5962233" lon="15.4247183"><ele>430.79999999999995</ele><time>2026-04-12T13:06:20.954Z</time></trkpt><trkpt lat="40.5962683" lon="15.4248317"><ele>432.2</ele><time>2026-04-12T13:06:21.954Z</time></trkpt><trkpt lat="40.5963183" lon="15.424945"><ele>433.6</ele><time>2026-04-12T13:06:22.954Z</time></trkpt><trkpt lat="40.5963633" lon="15.4250617"><ele>435.0</ele><time>2026-04-12T13:06:23.954Z</time></trkpt><trkpt lat="40.5964" lon="15.425175"><ele>435.0</ele><time>2026-04-12T13:06:24.954Z</time></trkpt><trkpt lat="40.5964283" lon="15.4252983"><ele>435.0</ele><time>2026-04-12T13:06:25.954Z</time></trkpt><trkpt lat="40.5964517" lon="15.4254317"><ele>435.0</ele><time>2026-04-12T13:06:26.955Z</time></trkpt><trkpt lat="40.59646" lon="15.4255733"><ele>435.0</ele><time>2026-04-12T13:06:27.954Z</time></trkpt><trkpt lat="40.5964483" lon="15.4257133"><ele>435.0</ele><time>2026-04-12T13:06:28.954Z</time></trkpt><trkpt lat="40.5964233" lon="15.4258517"><ele>437.25</ele><time>2026-04-12T13:06:29.954Z</time></trkpt><trkpt lat="40.59639" lon="15.4259883"><ele>439.5</ele><time>2026-04-12T13:06:30.954Z</time></trkpt><trkpt lat="40.5963383" lon="15.42612"><ele>441.75</ele><time>2026-04-12T13:06:31.954Z</time></trkpt><trkpt lat="40.5962767" lon="15.4262483"><ele>444.0</ele><time>2026-04-12T13:06:32.954Z</time></trkpt><trkpt lat="40.5962217" lon="15.426385"><ele>444.4</ele><time>2026-04-12T13:06:33.954Z</time></trkpt><trkpt lat="40.5961767" lon="15.426525"><ele>444.79999999999995</ele><time>2026-04-12T13:06:34.954Z</time></trkpt><trkpt lat="40.59614" lon="15.4266583"><ele>445.20000000000005</ele><time>2026-04-12T13:06:35.954Z</time></trkpt><trkpt lat="40.5961217" lon="15.4267967"><ele>445.6</ele><time>2026-04-12T13:06:36.954Z</time></trkpt><trkpt lat="40.59612" lon="15.4269333"><ele>446.0</ele><time>2026-04-12T13:06:37.954Z</time></trkpt><trkpt lat="40.5961367" lon="15.4270783"><ele>449.5</ele><time>2026-04-12T13:06:38.954Z</time></trkpt><trkpt lat="40.59615" lon="15.4272267"><ele>453.0</ele><time>2026-04-12T13:06:39.954Z</time></trkpt><trkpt lat="40.5961533" lon="15.4273817"><ele>456.5</ele><time>2026-04-12T13:06:40.954Z</time></trkpt><trkpt lat="40.596155" lon="15.427545"><ele>460.0</ele><time>2026-04-12T13:06:41.954Z</time></trkpt><trkpt lat="40.5961533" lon="15.4277133"><ele>460.0</ele><time>2026-04-12T13:06:42.954Z</time></trkpt><trkpt lat="40.596165" lon="15.42788"><ele>460.0</ele><time>2026-04-12T13:06:43.954Z</time></trkpt><trkpt lat="40.596175" lon="15.4280567"><ele>460.0</ele><time>2026-04-12T13:06:44.954Z</time></trkpt><trkpt lat="40.59619" lon="15.4282317"><ele>460.0</ele><time>2026-04-12T13:06:45.954Z</time></trkpt><trkpt lat="40.5962167" lon="15.4284083"><ele>457.25</ele><time>2026-04-12T13:06:46.954Z</time></trkpt><trkpt lat="40.59624" lon="15.4285817"><ele>454.5</ele><time>2026-04-12T13:06:47.954Z</time></trkpt><trkpt lat="40.59626" lon="15.4287583"><ele>451.75</ele><time>2026-04-12T13:06:48.954Z</time></trkpt><trkpt lat="40.5962883" lon="15.4289267"><ele>449.0</ele><time>2026-04-12T13:06:49.954Z</time></trkpt><trkpt lat="40.5963117" lon="15.429075"><ele>449.0</ele><time>2026-04-12T13:06:50.954Z</time></trkpt><trkpt lat="40.5963317" lon="15.4292133"><ele>449.0</ele><time>2026-04-12T13:06:51.954Z</time></trkpt><trkpt lat="40.5963483" lon="15.42935"><ele>449.0</ele><time>2026-04-12T13:06:52.954Z</time></trkpt><trkpt lat="40.596365" lon="15.429495"><ele>449.0</ele><time>2026-04-12T13:06:53.954Z</time></trkpt><trkpt lat="40.5963733" lon="15.4296417"><ele>449.0</ele><time>2026-04-12T13:06:54.954Z</time></trkpt><trkpt lat="40.5963733" lon="15.429795"><ele>448.5</ele><time>2026-04-12T13:06:55.954Z</time></trkpt><trkpt lat="40.5963733" lon="15.429955"><ele>448.0</ele><time>2026-04-12T13:06:56.955Z</time></trkpt><trkpt lat="40.5963683" lon="15.430115"><ele>447.5</ele><time>2026-04-12T13:06:57.954Z</time></trkpt><trkpt lat="40.5963617" lon="15.43028"><ele>447.0</ele><time>2026-04-12T13:06:58.954Z</time></trkpt><trkpt lat="40.5963633" lon="15.4304417"><ele>446.0</ele><time>2026-04-12T13:06:59.954Z</time></trkpt><trkpt lat="40.5963617" lon="15.4305983"><ele>445.0</ele><time>2026-04-12T13:07:00.954Z</time></trkpt><trkpt lat="40.5963567" lon="15.4307567"><ele>444.0</ele><time>2026-04-12T13:07:01.954Z</time></trkpt><trkpt lat="40.5963433" lon="15.4309267"><ele>443.0</ele><time>2026-04-12T13:07:02.954Z</time></trkpt><trkpt lat="40.5963317" lon="15.431095"><ele>443.0</ele><time>2026-04-12T13:07:03.954Z</time></trkpt><trkpt lat="40.5963083" lon="15.43126"><ele>443.0</ele><time>2026-04-12T13:07:04.954Z</time></trkpt><trkpt lat="40.5962867" lon="15.4314233"><ele>443.0</ele><time>2026-04-12T13:07:05.954Z</time></trkpt><trkpt lat="40.5962733" lon="15.4315883"><ele>443.0</ele><time>2026-04-12T13:07:06.954Z</time></trkpt><trkpt lat="40.5962667" lon="15.4317517"><ele>443.5</ele><time>2026-04-12T13:07:07.954Z</time></trkpt><trkpt lat="40.596275" lon="15.431915"><ele>444.0</ele><time>2026-04-12T13:07:08.954Z</time></trkpt><trkpt lat="40.5962967" lon="15.432085"><ele>444.5</ele><time>2026-04-12T13:07:09.954Z</time></trkpt><trkpt lat="40.5963333" lon="15.4322383"><ele>445.0</ele><time>2026-04-12T13:07:10.955Z</time></trkpt><trkpt lat="40.59638" lon="15.4323967"><ele>446.0</ele><time>2026-04-12T13:07:11.954Z</time></trkpt><trkpt lat="40.5964233" lon="15.4325567"><ele>447.0</ele><time>2026-04-12T13:07:12.954Z</time></trkpt><trkpt lat="40.59646" lon="15.4327183"><ele>448.0</ele><time>2026-04-12T13:07:13.954Z</time></trkpt><trkpt lat="40.596495" lon="15.4328717"><ele>449.0</ele><time>2026-04-12T13:07:14.954Z</time></trkpt><trkpt lat="40.596525" lon="15.4330117"><ele>450.16666666666663</ele><time>2026-04-12T13:07:15.954Z</time></trkpt><trkpt lat="40.596555" lon="15.4331417"><ele>451.3333333333333</ele><time>2026-04-12T13:07:16.954Z</time></trkpt><trkpt lat="40.5965783" lon="15.433255"><ele>452.5</ele><time>2026-04-12T13:07:17.955Z</time></trkpt><trkpt lat="40.5965983" lon="15.4333533"><ele>453.66666666666663</ele><time>2026-04-12T13:07:18.954Z</time></trkpt><trkpt lat="40.596625" lon="15.433445"><ele>454.8333333333333</ele><time>2026-04-12T13:07:19.954Z</time></trkpt><trkpt lat="40.5966483" lon="15.4335417"><ele>456.0</ele><time>2026-04-12T13:07:20.954Z</time></trkpt><trkpt lat="40.5966817" lon="15.433635"><ele>456.0</ele><time>2026-04-12T13:07:21.955Z</time></trkpt><trkpt lat="40.5967133" lon="15.4337233"><ele>456.0</ele><time>2026-04-12T13:07:22.954Z</time></trkpt><trkpt lat="40.5967467" lon="15.4338117"><ele>456.0</ele><time>2026-04-12T13:07:23.954Z</time></trkpt><trkpt lat="40.5967683" lon="15.4339083"><ele>456.0</ele><time>2026-04-12T13:07:24.954Z</time></trkpt><trkpt lat="40.59679" lon="15.4340067"><ele>456.0</ele><time>2026-04-12T13:07:25.954Z</time></trkpt><trkpt lat="40.5968033" lon="15.4341067"><ele>456.0</ele><time>2026-04-12T13:07:26.954Z</time></trkpt><trkpt lat="40.5968083" lon="15.43421"><ele>455.85714285714283</ele><time>2026-04-12T13:07:27.954Z</time></trkpt><trkpt lat="40.5968033" lon="15.434315"><ele>455.71428571428567</ele><time>2026-04-12T13:07:28.954Z</time></trkpt><trkpt lat="40.5967933" lon="15.43442"><ele>455.57142857142856</ele><time>2026-04-12T13:07:29.954Z</time></trkpt><trkpt lat="40.5967767" lon="15.4345083"><ele>455.42857142857144</ele><time>2026-04-12T13:07:30.954Z</time></trkpt><trkpt lat="40.5967583" lon="15.434595"><ele>455.2857142857143</ele><time>2026-04-12T13:07:31.954Z</time></trkpt><trkpt lat="40.5967417" lon="15.43468"><ele>455.1428571428571</ele><time>2026-04-12T13:07:32.954Z</time></trkpt><trkpt lat="40.596735" lon="15.4347667"><ele>455.0</ele><time>2026-04-12T13:07:33.954Z</time></trkpt><trkpt lat="40.59673" lon="15.4348617"><ele>454.99999999999994</ele><time>2026-04-12T13:07:34.954Z</time></trkpt><trkpt lat="40.59673" lon="15.4349517"><ele>455.0</ele><time>2026-04-12T13:07:35.954Z</time></trkpt><trkpt lat="40.5967317" lon="15.4350433"><ele>455.0</ele><time>2026-04-12T13:07:36.954Z</time></trkpt><trkpt lat="40.5967283" lon="15.4351367"><ele>455.0</ele><time>2026-04-12T13:07:37.954Z</time></trkpt><trkpt lat="40.5967183" lon="15.4352417"><ele>454.99999999999994</ele><time>2026-04-12T13:07:38.954Z</time></trkpt><trkpt lat="40.5966967" lon="15.4353517"><ele>455.0</ele><time>2026-04-12T13:07:39.954Z</time></trkpt><trkpt lat="40.5966617" lon="15.4354667"><ele>453.8</ele><time>2026-04-12T13:07:40.954Z</time></trkpt><trkpt lat="40.59662" lon="15.4355767"><ele>452.6</ele><time>2026-04-12T13:07:41.954Z</time></trkpt><trkpt lat="40.5965683" lon="15.4356867"><ele>451.4</ele><time>2026-04-12T13:07:42.954Z</time></trkpt><trkpt lat="40.596515" lon="15.4358083"><ele>450.2</ele><time>2026-04-12T13:07:43.954Z</time></trkpt><trkpt lat="40.5964617" lon="15.435925"><ele>449.0</ele><time>2026-04-12T13:07:44.954Z</time></trkpt><trkpt lat="40.5964117" lon="15.4360367"><ele>449.0</ele><time>2026-04-12T13:07:45.954Z</time></trkpt><trkpt lat="40.59637" lon="15.4361367"><ele>448.99999999999994</ele><time>2026-04-12T13:07:46.954Z</time></trkpt><trkpt lat="40.596335" lon="15.4362267"><ele>449.0</ele><time>2026-04-12T13:07:47.955Z</time></trkpt><trkpt lat="40.596295" lon="15.4363067"><ele>449.0</ele><time>2026-04-12T13:07:48.954Z</time></trkpt><trkpt lat="40.5962583" lon="15.43638"><ele>448.99999999999994</ele><time>2026-04-12T13:07:49.954Z</time></trkpt><trkpt lat="40.5962283" lon="15.4364533"><ele>449.0</ele><time>2026-04-12T13:07:50.954Z</time></trkpt><trkpt lat="40.5961933" lon="15.4365283"><ele>449.0</ele><time>2026-04-12T13:07:51.954Z</time></trkpt><trkpt lat="40.5961633" lon="15.4366117"><ele>449.71428571428567</ele><time>2026-04-12T13:07:52.954Z</time></trkpt><trkpt lat="40.5961383" lon="15.43669"><ele>450.4285714285714</ele><time>2026-04-12T13:07:53.954Z</time></trkpt><trkpt lat="40.596105" lon="15.43677"><ele>451.1428571428571</ele><time>2026-04-12T13:07:54.954Z</time></trkpt><trkpt lat="40.5960633" lon="15.4368483"><ele>451.8571428571429</ele><time>2026-04-12T13:07:55.954Z</time></trkpt><trkpt lat="40.59603" lon="15.436925"><ele>452.5714285714286</ele><time>2026-04-12T13:07:56.954Z</time></trkpt><trkpt lat="40.5960017" lon="15.4370067"><ele>453.28571428571433</ele><time>2026-04-12T13:07:57.955Z</time></trkpt><trkpt lat="40.5959783" lon="15.4370917"><ele>454.0</ele><time>2026-04-12T13:07:58.954Z</time></trkpt><trkpt lat="40.5959517" lon="15.4371783"><ele>452.33333333333337</ele><time>2026-04-12T13:07:59.954Z</time></trkpt><trkpt lat="40.5959283" lon="15.4372783"><ele>450.6666666666667</ele><time>2026-04-12T13:08:00.954Z</time></trkpt><trkpt lat="40.5959067" lon="15.43739"><ele>449.0</ele><time>2026-04-12T13:08:01.954Z</time></trkpt><trkpt lat="40.5958817" lon="15.4375017"><ele>447.33333333333337</ele><time>2026-04-12T13:08:02.954Z</time></trkpt><trkpt lat="40.5958583" lon="15.4376167"><ele>445.6666666666667</ele><time>2026-04-12T13:08:03.954Z</time></trkpt><trkpt lat="40.5958367" lon="15.43774"><ele>444.0</ele><time>2026-04-12T13:08:04.954Z</time></trkpt><trkpt lat="40.5958133" lon="15.4378633"><ele>442.6</ele><time>2026-04-12T13:08:05.954Z</time></trkpt><trkpt lat="40.5958033" lon="15.4379817"><ele>441.2</ele><time>2026-04-12T13:08:06.954Z</time></trkpt><trkpt lat="40.5958233" lon="15.4381033"><ele>439.80000000000007</ele><time>2026-04-12T13:08:07.955Z</time></trkpt><trkpt lat="40.5958667" lon="15.438215"><ele>438.40000000000003</ele><time>2026-04-12T13:08:08.954Z</time></trkpt><trkpt lat="40.59592" lon="15.4383333"><ele>437.0</ele><time>2026-04-12T13:08:09.954Z</time></trkpt><trkpt lat="40.5959817" lon="15.4384517"><ele>437.0</ele><time>2026-04-12T13:08:10.954Z</time></trkpt><trkpt lat="40.596045" lon="15.4385767"><ele>437.0</ele><time>2026-04-12T13:08:11.954Z</time></trkpt><trkpt lat="40.59611" lon="15.4387067"><ele>437.0</ele><time>2026-04-12T13:08:12.954Z</time></trkpt><trkpt lat="40.5961817" lon="15.4388283"><ele>437.0</ele><time>2026-04-12T13:08:13.954Z</time></trkpt><trkpt lat="40.5962367" lon="15.438945"><ele>434.40000000000003</ele><time>2026-04-12T13:08:14.954Z</time></trkpt><trkpt lat="40.5963" lon="15.4390567"><ele>431.80000000000007</ele><time>2026-04-12T13:08:15.954Z</time></trkpt><trkpt lat="40.59634" lon="15.4391383"><ele>429.2</ele><time>2026-04-12T13:08:16.954Z</time></trkpt><trkpt lat="40.5964383" lon="15.4391983"><ele>426.6</ele><time>2026-04-12T13:08:18.954Z</time></trkpt><trkpt lat="40.5965683" lon="15.439155"><ele>424.0</ele><time>2026-04-12T13:08:20.954Z</time></trkpt><trkpt lat="40.596645" lon="15.4391167"><ele>424.0</ele><time>2026-04-12T13:08:21.954Z</time></trkpt><trkpt lat="40.596735" lon="15.4390683"><ele>424.0</ele><time>2026-04-12T13:08:22.955Z</time></trkpt><trkpt lat="40.59683" lon="15.4390183"><ele>424.0</ele><time>2026-04-12T13:08:23.954Z</time></trkpt><trkpt lat="40.5969367" lon="15.4389667"><ele>424.0</ele><time>2026-04-12T13:08:24.954Z</time></trkpt><trkpt lat="40.597045" lon="15.4389167"><ele>424.0</ele><time>2026-04-12T13:08:25.954Z</time></trkpt><trkpt lat="40.597155" lon="15.4388617"><ele>423.5</ele><time>2026-04-12T13:08:26.954Z</time></trkpt><trkpt lat="40.597265" lon="15.4388083"><ele>423.0</ele><time>2026-04-12T13:08:27.954Z</time></trkpt><trkpt lat="40.5973717" lon="15.4387567"><ele>422.5</ele><time>2026-04-12T13:08:28.954Z</time></trkpt><trkpt lat="40.5974783" lon="15.438705"><ele>422.0</ele><time>2026-04-12T13:08:29.954Z</time></trkpt><trkpt lat="40.5975817" lon="15.4386483"><ele>422.0</ele><time>2026-04-12T13:08:30.954Z</time></trkpt><trkpt lat="40.5976833" lon="15.4385933"><ele>422.0</ele><time>2026-04-12T13:08:31.954Z</time></trkpt><trkpt lat="40.5977783" lon="15.438535"><ele>422.0</ele><time>2026-04-12T13:08:32.954Z</time></trkpt><trkpt lat="40.5978583" lon="15.438465"><ele>422.0</ele><time>2026-04-12T13:08:33.954Z</time></trkpt><trkpt lat="40.5979367" lon="15.4383767"><ele>422.0</ele><time>2026-04-12T13:08:34.954Z</time></trkpt><trkpt lat="40.5980067" lon="15.4382767"><ele>421.6</ele><time>2026-04-12T13:08:35.954Z</time></trkpt><trkpt lat="40.5980817" lon="15.438175"><ele>421.20000000000005</ele><time>2026-04-12T13:08:36.954Z</time></trkpt><trkpt lat="40.5981517" lon="15.4380817"><ele>420.8</ele><time>2026-04-12T13:08:37.954Z</time></trkpt><trkpt lat="40.5982183" lon="15.43799"><ele>420.4</ele><time>2026-04-12T13:08:38.954Z</time></trkpt><trkpt lat="40.5982917" lon="15.4379033"><ele>420.0</ele><time>2026-04-12T13:08:39.955Z</time></trkpt><trkpt lat="40.5983683" lon="15.437825"><ele>420.0</ele><time>2026-04-12T13:08:40.955Z</time></trkpt><trkpt lat="40.5984517" lon="15.4377467"><ele>420.0</ele><time>2026-04-12T13:08:41.954Z</time></trkpt><trkpt lat="40.5985383" lon="15.4376617"><ele>420.0</ele><time>2026-04-12T13:08:42.954Z</time></trkpt><trkpt lat="40.598625" lon="15.4375833"><ele>420.0</ele><time>2026-04-12T13:08:43.954Z</time></trkpt><trkpt lat="40.5987167" lon="15.4375083"><ele>420.0</ele><time>2026-04-12T13:08:44.954Z</time></trkpt><trkpt lat="40.598805" lon="15.4374433"><ele>418.5</ele><time>2026-04-12T13:08:45.954Z</time></trkpt><trkpt lat="40.5988917" lon="15.4373933"><ele>417.0</ele><time>2026-04-12T13:08:46.954Z</time></trkpt><trkpt lat="40.59897" lon="15.437355"><ele>415.5</ele><time>2026-04-12T13:08:47.954Z</time></trkpt><trkpt lat="40.5990417" lon="15.43732"><ele>414.0</ele><time>2026-04-12T13:08:48.954Z</time></trkpt><trkpt lat="40.5991083" lon="15.4372917"><ele>412.5</ele><time>2026-04-12T13:08:49.954Z</time></trkpt><trkpt lat="40.599165" lon="15.4372467"><ele>411.0</ele><time>2026-04-12T13:08:50.954Z</time></trkpt><trkpt lat="40.5992267" lon="15.437185"><ele>412.0</ele><time>2026-04-12T13:08:51.954Z</time></trkpt><trkpt lat="40.59928" lon="15.43711"><ele>413.0</ele><time>2026-04-12T13:08:52.954Z</time></trkpt><trkpt lat="40.5993367" lon="15.437035"><ele>414.0</ele><time>2026-04-12T13:08:53.955Z</time></trkpt><trkpt lat="40.5993933" lon="15.4369583"><ele>415.0</ele><time>2026-04-12T13:08:54.954Z</time></trkpt><trkpt lat="40.599435" lon="15.4368817"><ele>416.0</ele><time>2026-04-12T13:08:55.954Z</time></trkpt><trkpt lat="40.59948" lon="15.4367117"><ele>417.0</ele><time>2026-04-12T13:08:57.954Z</time></trkpt><trkpt lat="40.599485" lon="15.4366033"><ele>417.0</ele><time>2026-04-12T13:08:58.954Z</time></trkpt><trkpt lat="40.599465" lon="15.4364933"><ele>417.0</ele><time>2026-04-12T13:08:59.954Z</time></trkpt><trkpt lat="40.5994367" lon="15.4363883"><ele>417.0</ele><time>2026-04-12T13:09:00.954Z</time></trkpt><trkpt lat="40.5993917" lon="15.43629"><ele>417.0</ele><time>2026-04-12T13:09:01.954Z</time></trkpt><trkpt lat="40.59934" lon="15.43619"><ele>417.0</ele><time>2026-04-12T13:09:02.954Z</time></trkpt><trkpt lat="40.599295" lon="15.4360833"><ele>417.0</ele><time>2026-04-12T13:09:03.954Z</time></trkpt><trkpt lat="40.59928" lon="15.4359683"><ele>416.6</ele><time>2026-04-12T13:09:04.954Z</time></trkpt><trkpt lat="40.599275" lon="15.435845"><ele>416.20000000000005</ele><time>2026-04-12T13:09:05.954Z</time></trkpt><trkpt lat="40.5992817" lon="15.4357233"><ele>415.8</ele><time>2026-04-12T13:09:06.954Z</time></trkpt><trkpt lat="40.5992833" lon="15.435595"><ele>415.4</ele><time>2026-04-12T13:09:07.954Z</time></trkpt><trkpt lat="40.59929" lon="15.4354667"><ele>415.0</ele><time>2026-04-12T13:09:08.954Z</time></trkpt><trkpt lat="40.599305" lon="15.4353367"><ele>415.0</ele><time>2026-04-12T13:09:09.954Z</time></trkpt><trkpt lat="40.5993367" lon="15.4352217"><ele>415.0</ele><time>2026-04-12T13:09:10.954Z</time></trkpt><trkpt lat="40.5993817" lon="15.4351067"><ele>415.0</ele><time>2026-04-12T13:09:11.954Z</time></trkpt><trkpt lat="40.5994333" lon="15.4349933"><ele>415.0</ele><time>2026-04-12T13:09:12.954Z</time></trkpt><trkpt lat="40.59948" lon="15.43488"><ele>415.0</ele><time>2026-04-12T13:09:13.954Z</time></trkpt><trkpt lat="40.59953" lon="15.4347617"><ele>411.4</ele><time>2026-04-12T13:09:14.954Z</time></trkpt><trkpt lat="40.5995767" lon="15.43464"><ele>407.8</ele><time>2026-04-12T13:09:15.954Z</time></trkpt><trkpt lat="40.5996217" lon="15.4345317"><ele>404.20000000000005</ele><time>2026-04-12T13:09:16.954Z</time></trkpt><trkpt lat="40.5996733" lon="15.4344233"><ele>400.6</ele><time>2026-04-12T13:09:17.954Z</time></trkpt><trkpt lat="40.5997233" lon="15.4343167"><ele>397.0</ele><time>2026-04-12T13:09:18.954Z</time></trkpt><trkpt lat="40.5997817" lon="15.4342167"><ele>397.0</ele><time>2026-04-12T13:09:19.954Z</time></trkpt><trkpt lat="40.5998417" lon="15.4341133"><ele>397.0</ele><time>2026-04-12T13:09:20.954Z</time></trkpt><trkpt lat="40.5999133" lon="15.4340017"><ele>397.0</ele><time>2026-04-12T13:09:21.955Z</time></trkpt><trkpt lat="40.599985" lon="15.4338867"><ele>397.0</ele><time>2026-04-12T13:09:22.954Z</time></trkpt><trkpt lat="40.6000517" lon="15.43377"><ele>397.0</ele><time>2026-04-12T13:09:23.954Z</time></trkpt><trkpt lat="40.60012" lon="15.43365"><ele>397.0</ele><time>2026-04-12T13:09:24.954Z</time></trkpt><trkpt lat="40.6001817" lon="15.433525"><ele>397.0</ele><time>2026-04-12T13:09:25.954Z</time></trkpt><trkpt lat="40.600235" lon="15.4334"><ele>397.0</ele><time>2026-04-12T13:09:26.954Z</time></trkpt><trkpt lat="40.6002867" lon="15.4332817"><ele>397.0</ele><time>2026-04-12T13:09:27.954Z</time></trkpt><trkpt lat="40.600335" lon="15.4331733"><ele>397.0</ele><time>2026-04-12T13:09:28.954Z</time></trkpt><trkpt lat="40.6003867" lon="15.433085"><ele>393.6666666666667</ele><time>2026-04-12T13:09:29.954Z</time></trkpt><trkpt lat="40.60045" lon="15.433015"><ele>390.33333333333337</ele><time>2026-04-12T13:09:30.954Z</time></trkpt><trkpt lat="40.60052" lon="15.4329717"><ele>387.0</ele><time>2026-04-12T13:09:31.954Z</time></trkpt><trkpt lat="40.60059" lon="15.43294"><ele>383.6666666666667</ele><time>2026-04-12T13:09:32.954Z</time></trkpt><trkpt lat="40.6006517" lon="15.4329017"><ele>380.33333333333337</ele><time>2026-04-12T13:09:33.954Z</time></trkpt><trkpt lat="40.6006983" lon="15.432825"><ele>377.0</ele><time>2026-04-12T13:09:34.954Z</time></trkpt><trkpt lat="40.60072" lon="15.4327233"><ele>376.6</ele><time>2026-04-12T13:09:35.954Z</time></trkpt><trkpt lat="40.6007217" lon="15.4326083"><ele>376.20000000000005</ele><time>2026-04-12T13:09:36.954Z</time></trkpt><trkpt lat="40.6007167" lon="15.43249"><ele>375.8</ele><time>2026-04-12T13:09:37.954Z</time></trkpt><trkpt lat="40.6007067" lon="15.4323667"><ele>375.4</ele><time>2026-04-12T13:09:38.955Z</time></trkpt><trkpt lat="40.6006867" lon="15.432245"><ele>375.0</ele><time>2026-04-12T13:09:39.954Z</time></trkpt><trkpt lat="40.6006617" lon="15.4321133"><ele>373.8</ele><time>2026-04-12T13:09:40.954Z</time></trkpt><trkpt lat="40.60064" lon="15.4319867"><ele>372.6</ele><time>2026-04-12T13:09:41.954Z</time></trkpt><trkpt lat="40.600625" lon="15.43186"><ele>371.4</ele><time>2026-04-12T13:09:42.954Z</time></trkpt><trkpt lat="40.6006117" lon="15.4317317"><ele>370.2</ele><time>2026-04-12T13:09:43.954Z</time></trkpt><trkpt lat="40.6006017" lon="15.4316017"><ele>369.0</ele><time>2026-04-12T13:09:44.954Z</time></trkpt><trkpt lat="40.600585" lon="15.4314733"><ele>369.0</ele><time>2026-04-12T13:09:45.954Z</time></trkpt><trkpt lat="40.6005867" lon="15.4313483"><ele>369.0</ele><time>2026-04-12T13:09:46.954Z</time></trkpt><trkpt lat="40.6006083" lon="15.4312233"><ele>369.0</ele><time>2026-04-12T13:09:47.954Z</time></trkpt><trkpt lat="40.6006583" lon="15.4311033"><ele>369.0</ele><time>2026-04-12T13:09:48.954Z</time></trkpt><trkpt lat="40.6007233" lon="15.4309867"><ele>369.0</ele><time>2026-04-12T13:09:49.954Z</time></trkpt><trkpt lat="40.6007917" lon="15.430865"><ele>368.79999999999995</ele><time>2026-04-12T13:09:50.954Z</time></trkpt><trkpt lat="40.6008633" lon="15.4307483"><ele>368.59999999999997</ele><time>2026-04-12T13:09:51.954Z</time></trkpt><trkpt lat="40.600925" lon="15.4306317"><ele>368.4</ele><time>2026-04-12T13:09:52.954Z</time></trkpt><trkpt lat="40.6009917" lon="15.43052"><ele>368.2</ele><time>2026-04-12T13:09:53.954Z</time></trkpt><trkpt lat="40.6010583" lon="15.4304117"><ele>368.0</ele><time>2026-04-12T13:09:54.954Z</time></trkpt><trkpt lat="40.601125" lon="15.430305"><ele>365.83333333333337</ele><time>2026-04-12T13:09:55.954Z</time></trkpt><trkpt lat="40.6011833" lon="15.4302033"><ele>363.6666666666667</ele><time>2026-04-12T13:09:56.953Z</time></trkpt><trkpt lat="40.60124" lon="15.4301217"><ele>361.5</ele><time>2026-04-12T13:09:57.953Z</time></trkpt><trkpt lat="40.60131" lon="15.4300767"><ele>359.3333333333333</ele><time>2026-04-12T13:09:58.953Z</time></trkpt><trkpt lat="40.601375" lon="15.4300517"><ele>357.16666666666663</ele><time>2026-04-12T13:09:59.953Z</time></trkpt><trkpt lat="40.6014417" lon="15.430065"><ele>355.0</ele><time>2026-04-12T13:10:00.953Z</time></trkpt><trkpt lat="40.601515" lon="15.4301133"><ele>355.0</ele><time>2026-04-12T13:10:01.953Z</time></trkpt><trkpt lat="40.601595" lon="15.4301733"><ele>355.0</ele><time>2026-04-12T13:10:02.953Z</time></trkpt><trkpt lat="40.6016683" lon="15.43023"><ele>355.0</ele><time>2026-04-12T13:10:03.953Z</time></trkpt><trkpt lat="40.6017467" lon="15.430285"><ele>355.0</ele><time>2026-04-12T13:10:04.953Z</time></trkpt><trkpt lat="40.6018267" lon="15.43034"><ele>355.0</ele><time>2026-04-12T13:10:05.953Z</time></trkpt><trkpt lat="40.6019067" lon="15.4303933"><ele>355.0</ele><time>2026-04-12T13:10:06.953Z</time></trkpt><trkpt lat="40.6019867" lon="15.4304467"><ele>352.66666666666663</ele><time>2026-04-12T13:10:07.953Z</time></trkpt><trkpt lat="40.6020683" lon="15.4304967"><ele>350.3333333333333</ele><time>2026-04-12T13:10:08.953Z</time></trkpt><trkpt lat="40.6021433" lon="15.4305417"><ele>348.0</ele><time>2026-04-12T13:10:09.953Z</time></trkpt><trkpt lat="40.6022083" lon="15.4305983"><ele>345.6666666666667</ele><time>2026-04-12T13:10:10.953Z</time></trkpt><trkpt lat="40.602255" lon="15.43066"><ele>343.33333333333337</ele><time>2026-04-12T13:10:11.954Z</time></trkpt><trkpt lat="40.6022883" lon="15.4307417"><ele>341.0</ele><time>2026-04-12T13:10:12.953Z</time></trkpt><trkpt lat="40.60231" lon="15.4308367"><ele>341.0</ele><time>2026-04-12T13:10:13.953Z</time></trkpt><trkpt lat="40.6023233" lon="15.430935"><ele>341.0</ele><time>2026-04-12T13:10:14.953Z</time></trkpt><trkpt lat="40.602335" lon="15.43104"><ele>341.0</ele><time>2026-04-12T13:10:15.953Z</time></trkpt><trkpt lat="40.6023467" lon="15.4311483"><ele>341.0</ele><time>2026-04-12T13:10:16.953Z</time></trkpt><trkpt lat="40.6023633" lon="15.431255"><ele>341.0</ele><time>2026-04-12T13:10:17.953Z</time></trkpt><trkpt lat="40.6023917" lon="15.43137"><ele>341.0</ele><time>2026-04-12T13:10:18.954Z</time></trkpt><trkpt lat="40.602415" lon="15.4314833"><ele>340.5</ele><time>2026-04-12T13:10:19.953Z</time></trkpt><trkpt lat="40.602445" lon="15.431595"><ele>340.0</ele><time>2026-04-12T13:10:20.954Z</time></trkpt><trkpt lat="40.60247" lon="15.4316933"><ele>339.5</ele><time>2026-04-12T13:10:21.953Z</time></trkpt><trkpt lat="40.6024883" lon="15.431785"><ele>339.0</ele><time>2026-04-12T13:10:22.953Z</time></trkpt><trkpt lat="40.6025017" lon="15.4318683"><ele>338.5</ele><time>2026-04-12T13:10:23.953Z</time></trkpt><trkpt lat="40.6025167" lon="15.43201"><ele>338.0</ele><time>2026-04-12T13:10:25.953Z</time></trkpt><trkpt lat="40.602535" lon="15.43218"><ele>338.0</ele><time>2026-04-12T13:10:27.954Z</time></trkpt><trkpt lat="40.6025417" lon="15.4322833"><ele>338.0</ele><time>2026-04-12T13:10:28.953Z</time></trkpt><trkpt lat="40.6025517" lon="15.4323967"><ele>338.0</ele><time>2026-04-12T13:10:29.953Z</time></trkpt><trkpt lat="40.6025617" lon="15.4325117"><ele>338.0</ele><time>2026-04-12T13:10:30.953Z</time></trkpt><trkpt lat="40.6025683" lon="15.432635"><ele>338.0</ele><time>2026-04-12T13:10:31.953Z</time></trkpt><trkpt lat="40.6025667" lon="15.4327583"><ele>338.0</ele><time>2026-04-12T13:10:32.953Z</time></trkpt><trkpt lat="40.6025617" lon="15.4328867"><ele>339.0</ele><time>2026-04-12T13:10:33.953Z</time></trkpt><trkpt lat="40.6025533" lon="15.43301"><ele>340.0</ele><time>2026-04-12T13:10:34.953Z</time></trkpt><trkpt lat="40.6025383" lon="15.4331367"><ele>341.0</ele><time>2026-04-12T13:10:35.954Z</time></trkpt><trkpt lat="40.6025217" lon="15.433265"><ele>342.0</ele><time>2026-04-12T13:10:36.953Z</time></trkpt><trkpt lat="40.602495" lon="15.4333883"><ele>343.0</ele><time>2026-04-12T13:10:37.953Z</time></trkpt><trkpt lat="40.6024567" lon="15.4335033"><ele>343.0</ele><time>2026-04-12T13:10:38.953Z</time></trkpt><trkpt lat="40.6024033" lon="15.4336117"><ele>343.0</ele><time>2026-04-12T13:10:39.953Z</time></trkpt><trkpt lat="40.6023383" lon="15.43372"><ele>343.0</ele><time>2026-04-12T13:10:40.953Z</time></trkpt><trkpt lat="40.6022717" lon="15.4338317"><ele>343.0</ele><time>2026-04-12T13:10:41.953Z</time></trkpt><trkpt lat="40.6022067" lon="15.4339367"><ele>343.0</ele><time>2026-04-12T13:10:42.953Z</time></trkpt><trkpt lat="40.6021533" lon="15.4340517"><ele>342.4</ele><time>2026-04-12T13:10:43.953Z</time></trkpt><trkpt lat="40.6021133" lon="15.4341717"><ele>341.79999999999995</ele><time>2026-04-12T13:10:44.953Z</time></trkpt><trkpt lat="40.6020783" lon="15.4343"><ele>341.2</ele><time>2026-04-12T13:10:45.953Z</time></trkpt><trkpt lat="40.6020567" lon="15.4344367"><ele>340.6</ele><time>2026-04-12T13:10:46.953Z</time></trkpt><trkpt lat="40.6020433" lon="15.43458"><ele>340.0</ele><time>2026-04-12T13:10:47.953Z</time></trkpt><trkpt lat="40.602035" lon="15.4347283"><ele>339.2</ele><time>2026-04-12T13:10:48.953Z</time></trkpt><trkpt lat="40.602025" lon="15.4348733"><ele>338.4</ele><time>2026-04-12T13:10:49.954Z</time></trkpt><trkpt lat="40.6020183" lon="15.4350233"><ele>337.6</ele><time>2026-04-12T13:10:50.953Z</time></trkpt><trkpt lat="40.6020067" lon="15.4351717"><ele>336.8</ele><time>2026-04-12T13:10:51.953Z</time></trkpt><trkpt lat="40.6019967" lon="15.435315"><ele>336.0</ele><time>2026-04-12T13:10:52.953Z</time></trkpt><trkpt lat="40.601985" lon="15.4354617"><ele>341.75</ele><time>2026-04-12T13:10:53.953Z</time></trkpt><trkpt lat="40.6019733" lon="15.4356117"><ele>347.5</ele><time>2026-04-12T13:10:54.953Z</time></trkpt><trkpt lat="40.60197" lon="15.4357617"><ele>353.25</ele><time>2026-04-12T13:10:55.953Z</time></trkpt><trkpt lat="40.6019717" lon="15.4359167"><ele>359.0</ele><time>2026-04-12T13:10:56.953Z</time></trkpt><trkpt lat="40.6019783" lon="15.4360667"><ele>359.0</ele><time>2026-04-12T13:10:57.953Z</time></trkpt><trkpt lat="40.601995" lon="15.4362117"><ele>359.0</ele><time>2026-04-12T13:10:58.954Z</time></trkpt><trkpt lat="40.602035" lon="15.4363483"><ele>359.0</ele><time>2026-04-12T13:10:59.953Z</time></trkpt><trkpt lat="40.6020917" lon="15.4364817"><ele>359.0</ele><time>2026-04-12T13:11:00.953Z</time></trkpt><trkpt lat="40.6021583" lon="15.4365967"><ele>359.0</ele><time>2026-04-12T13:11:01.954Z</time></trkpt><trkpt lat="40.602225" lon="15.4367067"><ele>358.25</ele><time>2026-04-12T13:11:02.953Z</time></trkpt><trkpt lat="40.6022867" lon="15.4368167"><ele>357.5</ele><time>2026-04-12T13:11:03.953Z</time></trkpt><trkpt lat="40.602325" lon="15.4369583"><ele>356.75</ele><time>2026-04-12T13:11:04.953Z</time></trkpt><trkpt lat="40.60235" lon="15.437105"><ele>356.0</ele><time>2026-04-12T13:11:05.953Z</time></trkpt><trkpt lat="40.6023633" lon="15.4372617"><ele>358.75</ele><time>2026-04-12T13:11:06.953Z</time></trkpt><trkpt lat="40.6023733" lon="15.4374133"><ele>361.5</ele><time>2026-04-12T13:11:07.954Z</time></trkpt><trkpt lat="40.60238" lon="15.437575"><ele>364.25</ele><time>2026-04-12T13:11:08.953Z</time></trkpt><trkpt lat="40.6023767" lon="15.437735"><ele>367.0</ele><time>2026-04-12T13:11:09.953Z</time></trkpt><trkpt lat="40.6023717" lon="15.4378833"><ele>368.5</ele><time>2026-04-12T13:11:10.953Z</time></trkpt><trkpt lat="40.60236" lon="15.4380333"><ele>370.0</ele><time>2026-04-12T13:11:11.953Z</time></trkpt><trkpt lat="40.602335" lon="15.4381783"><ele>371.5</ele><time>2026-04-12T13:11:12.953Z</time></trkpt><trkpt lat="40.6023033" lon="15.4383317"><ele>373.0</ele><time>2026-04-12T13:11:13.953Z</time></trkpt><trkpt lat="40.6022617" lon="15.43847"><ele>373.0</ele><time>2026-04-12T13:11:14.953Z</time></trkpt><trkpt lat="40.602215" lon="15.4385967"><ele>373.0</ele><time>2026-04-12T13:11:15.953Z</time></trkpt><trkpt lat="40.6021617" lon="15.4387083"><ele>373.0</ele><time>2026-04-12T13:11:16.953Z</time></trkpt><trkpt lat="40.6021" lon="15.4388117"><ele>373.0</ele><time>2026-04-12T13:11:17.953Z</time></trkpt><trkpt lat="40.6020333" lon="15.438905"><ele>373.0</ele><time>2026-04-12T13:11:18.953Z</time></trkpt><trkpt lat="40.6019617" lon="15.43898"><ele>374.16666666666663</ele><time>2026-04-12T13:11:19.954Z</time></trkpt><trkpt lat="40.6018867" lon="15.43904"><ele>375.3333333333333</ele><time>2026-04-12T13:11:20.953Z</time></trkpt><trkpt lat="40.6018183" lon="15.4390917"><ele>376.5</ele><time>2026-04-12T13:11:21.953Z</time></trkpt><trkpt lat="40.6017483" lon="15.4391317"><ele>377.6666666666667</ele><time>2026-04-12T13:11:22.953Z</time></trkpt><trkpt lat="40.60168" lon="15.4391633"><ele>378.83333333333337</ele><time>2026-04-12T13:11:23.953Z</time></trkpt><trkpt lat="40.6016117" lon="15.4391883"><ele>380.0</ele><time>2026-04-12T13:11:24.953Z</time></trkpt><trkpt lat="40.601545" lon="15.4392083"><ele>380.0</ele><time>2026-04-12T13:11:25.953Z</time></trkpt><trkpt lat="40.60148" lon="15.43922"><ele>380.0</ele><time>2026-04-12T13:11:26.953Z</time></trkpt><trkpt lat="40.6014117" lon="15.439235"><ele>380.0</ele><time>2026-04-12T13:11:27.953Z</time></trkpt><trkpt lat="40.601295" lon="15.4392533"><ele>380.0</ele><time>2026-04-12T13:11:29.953Z</time></trkpt><trkpt lat="40.6011783" lon="15.439255"><ele>380.0</ele><time>2026-04-12T13:11:31.954Z</time></trkpt><trkpt lat="40.6010717" lon="15.439235"><ele>379.83333333333337</ele><time>2026-04-12T13:11:33.953Z</time></trkpt><trkpt lat="40.600985" lon="15.4392117"><ele>379.6666666666667</ele><time>2026-04-12T13:11:35.953Z</time></trkpt><trkpt lat="40.600915" lon="15.4391867"><ele>379.5</ele><time>2026-04-12T13:11:37.953Z</time></trkpt><trkpt lat="40.60084" lon="15.4391383"><ele>379.3333333333333</ele><time>2026-04-12T13:11:40.953Z</time></trkpt><trkpt lat="40.600765" lon="15.439125"><ele>379.16666666666663</ele><time>2026-04-12T13:11:44.953Z</time></trkpt><trkpt lat="40.6008517" lon="15.43917"><ele>379.0</ele><time>2026-04-12T13:11:54.953Z</time></trkpt><trkpt lat="40.6009317" lon="15.4391883"><ele>379.0</ele><time>2026-04-12T13:11:55.953Z</time></trkpt><trkpt lat="40.60102" lon="15.4392117"><ele>379.0</ele><time>2026-04-12T13:11:56.953Z</time></trkpt><trkpt lat="40.6011117" lon="15.43923"><ele>379.0</ele><time>2026-04-12T13:11:57.953Z</time></trkpt><trkpt lat="40.6012067" lon="15.43925"><ele>379.0</ele><time>2026-04-12T13:11:58.953Z</time></trkpt><trkpt lat="40.6012967" lon="15.4392583"><ele>379.0</ele><time>2026-04-12T13:11:59.953Z</time></trkpt><trkpt lat="40.601385" lon="15.43926"><ele>379.16666666666663</ele><time>2026-04-12T13:12:00.953Z</time></trkpt><trkpt lat="40.6014717" lon="15.4392483"><ele>379.3333333333333</ele><time>2026-04-12T13:12:01.953Z</time></trkpt><trkpt lat="40.601545" lon="15.439225"><ele>379.5</ele><time>2026-04-12T13:12:02.953Z</time></trkpt><trkpt lat="40.6016067" lon="15.4391967"><ele>379.6666666666667</ele><time>2026-04-12T13:12:03.953Z</time></trkpt><trkpt lat="40.6016917" lon="15.439175"><ele>379.83333333333337</ele><time>2026-04-12T13:12:05.953Z</time></trkpt><trkpt lat="40.6016483" lon="15.4392783"><ele>380.0</ele><time>2026-04-12T13:12:09.953Z</time></trkpt><trkpt lat="40.6015517" lon="15.4393117"><ele>380.0</ele><time>2026-04-12T13:12:11.953Z</time></trkpt><trkpt lat="40.6014433" lon="15.43936"><ele>380.0</ele><time>2026-04-12T13:12:13.953Z</time></trkpt><trkpt lat="40.6013783" lon="15.4393917"><ele>380.0</ele><time>2026-04-12T13:12:14.953Z</time></trkpt><trkpt lat="40.60131" lon="15.4394267"><ele>380.0</ele><time>2026-04-12T13:12:15.953Z</time></trkpt><trkpt lat="40.6012367" lon="15.4394617"><ele>380.0</ele><time>2026-04-12T13:12:16.953Z</time></trkpt><trkpt lat="40.6011533" lon="15.4395033"><ele>380.0</ele><time>2026-04-12T13:12:17.953Z</time></trkpt><trkpt lat="40.6010733" lon="15.4395483"><ele>379.83333333333337</ele><time>2026-04-12T13:12:18.953Z</time></trkpt><trkpt lat="40.60099" lon="15.4395917"><ele>379.6666666666667</ele><time>2026-04-12T13:12:19.953Z</time></trkpt><trkpt lat="40.6009067" lon="15.4396317"><ele>379.5</ele><time>2026-04-12T13:12:20.953Z</time></trkpt><trkpt lat="40.6008233" lon="15.4396717"><ele>379.3333333333333</ele><time>2026-04-12T13:12:21.953Z</time></trkpt><trkpt lat="40.60074" lon="15.4397117"><ele>379.16666666666663</ele><time>2026-04-12T13:12:22.954Z</time></trkpt><trkpt lat="40.6006683" lon="15.4397467"><ele>379.0</ele><time>2026-04-12T13:12:23.954Z</time></trkpt><trkpt lat="40.6006067" lon="15.43978"><ele>377.0</ele><time>2026-04-12T13:12:24.953Z</time></trkpt><trkpt lat="40.600545" lon="15.43981"><ele>375.0</ele><time>2026-04-12T13:12:25.953Z</time></trkpt><trkpt lat="40.6004483" lon="15.4398617"><ele>373.0</ele><time>2026-04-12T13:12:27.953Z</time></trkpt><trkpt lat="40.6003983" lon="15.4399133"><ele>371.0</ele><time>2026-04-12T13:12:29.953Z</time></trkpt><trkpt lat="40.60045" lon="15.439975"><ele>369.0</ele><time>2026-04-12T13:12:55.953Z</time></trkpt><trkpt lat="40.600535" lon="15.4399517"><ele>367.0</ele><time>2026-04-12T13:12:57.954Z</time></trkpt><trkpt lat="40.6006383" lon="15.43997"><ele>367.0</ele><time>2026-04-12T13:12:59.953Z</time></trkpt><trkpt lat="40.6007533" lon="15.44004"><ele>367.0</ele><time>2026-04-12T13:13:01.953Z</time></trkpt><trkpt lat="40.60082" lon="15.4400817"><ele>367.0</ele><time>2026-04-12T13:13:02.953Z</time></trkpt><trkpt lat="40.6008883" lon="15.440115"><ele>367.0</ele><time>2026-04-12T13:13:03.953Z</time></trkpt><trkpt lat="40.6009533" lon="15.440145"><ele>367.0</ele><time>2026-04-12T13:13:04.954Z</time></trkpt><trkpt lat="40.6010233" lon="15.4401667"><ele>367.0</ele><time>2026-04-12T13:13:05.953Z</time></trkpt><trkpt lat="40.6010917" lon="15.440185"><ele>367.0</ele><time>2026-04-12T13:13:06.953Z</time></trkpt><trkpt lat="40.6011583" lon="15.4401967"><ele>367.0</ele><time>2026-04-12T13:13:07.953Z</time></trkpt><trkpt lat="40.6012867" lon="15.4402183"><ele>367.0</ele><time>2026-04-12T13:13:09.953Z</time></trkpt><trkpt lat="40.6013583" lon="15.4402317"><ele>367.0</ele><time>2026-04-12T13:13:10.953Z</time></trkpt><trkpt lat="40.601445" lon="15.4402467"><ele>367.0</ele><time>2026-04-12T13:13:11.953Z</time></trkpt><trkpt lat="40.6015333" lon="15.4402817"><ele>367.0</ele><time>2026-04-12T13:13:12.953Z</time></trkpt><trkpt lat="40.6016167" lon="15.4403267"><ele>366.8</ele><time>2026-04-12T13:13:13.953Z</time></trkpt><trkpt lat="40.6016967" lon="15.4403867"><ele>366.6</ele><time>2026-04-12T13:13:14.953Z</time></trkpt><trkpt lat="40.601775" lon="15.4404583"><ele>366.40000000000003</ele><time>2026-04-12T13:13:15.953Z</time></trkpt><trkpt lat="40.601855" lon="15.4405417"><ele>366.20000000000005</ele><time>2026-04-12T13:13:16.953Z</time></trkpt><trkpt lat="40.6019317" lon="15.4406367"><ele>366.0</ele><time>2026-04-12T13:13:17.953Z</time></trkpt><trkpt lat="40.6020083" lon="15.4407433"><ele>365.4</ele><time>2026-04-12T13:13:18.953Z</time></trkpt><trkpt lat="40.6020767" lon="15.4408633"><ele>364.8</ele><time>2026-04-12T13:13:19.953Z</time></trkpt><trkpt lat="40.602135" lon="15.4409833"><ele>364.2</ele><time>2026-04-12T13:13:20.953Z</time></trkpt><trkpt lat="40.6021867" lon="15.4410967"><ele>363.59999999999997</ele><time>2026-04-12T13:13:21.953Z</time></trkpt><trkpt lat="40.6022317" lon="15.4412133"><ele>363.0</ele><time>2026-04-12T13:13:22.953Z</time></trkpt><trkpt lat="40.602275" lon="15.4413233"><ele>361.0</ele><time>2026-04-12T13:13:23.953Z</time></trkpt><trkpt lat="40.602315" lon="15.4414483"><ele>359.0</ele><time>2026-04-12T13:13:24.953Z</time></trkpt><trkpt lat="40.60235" lon="15.4415733"><ele>357.0</ele><time>2026-04-12T13:13:25.953Z</time></trkpt><trkpt lat="40.6023817" lon="15.4417017"><ele>355.0</ele><time>2026-04-12T13:13:26.953Z</time></trkpt><trkpt lat="40.6024133" lon="15.4418233"><ele>353.0</ele><time>2026-04-12T13:13:27.954Z</time></trkpt><trkpt lat="40.6024433" lon="15.4419383"><ele>353.0</ele><time>2026-04-12T13:13:28.953Z</time></trkpt><trkpt lat="40.6024683" lon="15.44205"><ele>353.0</ele><time>2026-04-12T13:13:29.953Z</time></trkpt><trkpt lat="40.6024883" lon="15.4421567"><ele>353.0</ele><time>2026-04-12T13:13:30.953Z</time></trkpt><trkpt lat="40.6025183" lon="15.44225"><ele>353.0</ele><time>2026-04-12T13:13:31.953Z</time></trkpt><trkpt lat="40.6025517" lon="15.4423433"><ele>353.0</ele><time>2026-04-12T13:13:32.953Z</time></trkpt><trkpt lat="40.6025917" lon="15.4424233"><ele>353.0</ele><time>2026-04-12T13:13:33.953Z</time></trkpt><trkpt lat="40.6026417" lon="15.4424967"><ele>349.79999999999995</ele><time>2026-04-12T13:13:34.953Z</time></trkpt><trkpt lat="40.6026933" lon="15.4425467"><ele>346.6</ele><time>2026-04-12T13:13:35.953Z</time></trkpt><trkpt lat="40.6027533" lon="15.4425733"><ele>343.4</ele><time>2026-04-12T13:13:36.953Z</time></trkpt><trkpt lat="40.6028667" lon="15.44256"><ele>340.20000000000005</ele><time>2026-04-12T13:13:38.953Z</time></trkpt><trkpt lat="40.602985" lon="15.4425217"><ele>337.0</ele><time>2026-04-12T13:13:40.953Z</time></trkpt><trkpt lat="40.6031083" lon="15.442485"><ele>334.8</ele><time>2026-04-12T13:13:42.953Z</time></trkpt><trkpt lat="40.6032233" lon="15.4424883"><ele>332.6</ele><time>2026-04-12T13:13:44.953Z</time></trkpt><trkpt lat="40.6033383" lon="15.4424967"><ele>330.40000000000003</ele><time>2026-04-12T13:13:46.953Z</time></trkpt><trkpt lat="40.6034467" lon="15.4425317"><ele>328.20000000000005</ele><time>2026-04-12T13:13:48.953Z</time></trkpt><trkpt lat="40.6035517" lon="15.4425517"><ele>326.0</ele><time>2026-04-12T13:13:50.953Z</time></trkpt><trkpt lat="40.6036717" lon="15.44253"><ele>321.6666666666667</ele><time>2026-04-12T13:13:52.953Z</time></trkpt><trkpt lat="40.603745" lon="15.4425067"><ele>317.33333333333337</ele><time>2026-04-12T13:13:53.954Z</time></trkpt><trkpt lat="40.6038267" lon="15.4424783"><ele>313.0</ele><time>2026-04-12T13:13:54.953Z</time></trkpt><trkpt lat="40.6039" lon="15.4424467"><ele>308.6666666666667</ele><time>2026-04-12T13:13:55.953Z</time></trkpt><trkpt lat="40.6039717" lon="15.4424217"><ele>304.3333333333333</ele><time>2026-04-12T13:13:56.953Z</time></trkpt><trkpt lat="40.60404" lon="15.4424017"><ele>300.0</ele><time>2026-04-12T13:13:57.953Z</time></trkpt><trkpt lat="40.6041083" lon="15.4423817"><ele>299.99999999999994</ele><time>2026-04-12T13:13:58.953Z</time></trkpt><trkpt lat="40.604175" lon="15.44236"><ele>300.0</ele><time>2026-04-12T13:13:59.953Z</time></trkpt><trkpt lat="40.6042433" lon="15.4423367"><ele>300.0</ele><time>2026-04-12T13:14:00.953Z</time></trkpt><trkpt lat="40.6043167" lon="15.4423217"><ele>300.0</ele><time>2026-04-12T13:14:01.953Z</time></trkpt><trkpt lat="40.6043817" lon="15.4423033"><ele>300.0</ele><time>2026-04-12T13:14:02.953Z</time></trkpt><trkpt lat="40.6044483" lon="15.4422917"><ele>299.99999999999994</ele><time>2026-04-12T13:14:03.953Z</time></trkpt><trkpt lat="40.6045133" lon="15.4422733"><ele>300.0</ele><time>2026-04-12T13:14:04.953Z</time></trkpt><trkpt lat="40.6046233" lon="15.442265"><ele>295.5</ele><time>2026-04-12T13:14:06.953Z</time></trkpt><trkpt lat="40.6047333" lon="15.442325"><ele>291.0</ele><time>2026-04-12T13:14:08.953Z</time></trkpt><trkpt lat="40.604785" lon="15.4423917"><ele>286.5</ele><time>2026-04-12T13:14:09.953Z</time></trkpt><trkpt lat="40.6048317" lon="15.4424683"><ele>282.0</ele><time>2026-04-12T13:14:10.953Z</time></trkpt><trkpt lat="40.604875" lon="15.44256"><ele>277.5</ele><time>2026-04-12T13:14:11.953Z</time></trkpt><trkpt lat="40.6049133" lon="15.4426433"><ele>273.0</ele><time>2026-04-12T13:14:12.953Z</time></trkpt><trkpt lat="40.6049567" lon="15.4427267"><ele>273.0</ele><time>2026-04-12T13:14:13.953Z</time></trkpt><trkpt lat="40.60499" lon="15.4428033"><ele>273.0</ele><time>2026-04-12T13:14:14.953Z</time></trkpt><trkpt lat="40.6050233" lon="15.4428767"><ele>273.0</ele><time>2026-04-12T13:14:15.953Z</time></trkpt><trkpt lat="40.605055" lon="15.44295"><ele>273.0</ele><time>2026-04-12T13:14:16.953Z</time></trkpt><trkpt lat="40.6050917" lon="15.4430217"><ele>273.0</ele><time>2026-04-12T13:14:17.953Z</time></trkpt><trkpt lat="40.6051267" lon="15.443095"><ele>273.0</ele><time>2026-04-12T13:14:18.953Z</time></trkpt><trkpt lat="40.605155" lon="15.4431717"><ele>273.0</ele><time>2026-04-12T13:14:19.953Z</time></trkpt><trkpt lat="40.6051983" lon="15.4433267"><ele>271.4</ele><time>2026-04-12T13:14:21.953Z</time></trkpt><trkpt lat="40.605215" lon="15.44341"><ele>269.8</ele><time>2026-04-12T13:14:22.953Z</time></trkpt><trkpt lat="40.6052483" lon="15.44355"><ele>268.2</ele><time>2026-04-12T13:14:24.954Z</time></trkpt><trkpt lat="40.6052863" lon="15.4436744"><ele>266.6</ele><time>2026-04-12T13:14:26.953Z</time></trkpt><trkpt lat="40.605335" lon="15.4437893"><ele>265.0</ele><time>2026-04-12T13:14:28.954Z</time></trkpt><trkpt lat="40.6053972" lon="15.4438931"><ele>259.8333333333333</ele><time>2026-04-12T13:14:30.953Z</time></trkpt><trkpt lat="40.6054714" lon="15.4439919"><ele>254.66666666666666</ele><time>2026-04-12T13:14:32.953Z</time></trkpt><trkpt lat="40.6055195" lon="15.4440525"><ele>249.5</ele><time>2026-04-12T13:14:33.953Z</time></trkpt><trkpt lat="40.6055711" lon="15.4441198"><ele>244.33333333333331</ele><time>2026-04-12T13:14:34.954Z</time></trkpt><trkpt lat="40.6056165" lon="15.4441814"><ele>239.16666666666666</ele><time>2026-04-12T13:14:35.953Z</time></trkpt><trkpt lat="40.6056848" lon="15.4442843"><ele>234.0</ele><time>2026-04-12T13:14:37.954Z</time></trkpt><trkpt lat="40.6057173" lon="15.4443909"><ele>234.0</ele><time>2026-04-12T13:14:39.953Z</time></trkpt><trkpt lat="40.6057243" lon="15.4444984"><ele>233.99999999999997</ele><time>2026-04-12T13:14:41.953Z</time></trkpt><trkpt lat="40.6057224" lon="15.4445991"><ele>233.99999999999997</ele><time>2026-04-12T13:14:43.953Z</time></trkpt><trkpt lat="40.6056973" lon="15.4447248"><ele>234.0</ele><time>2026-04-12T13:14:45.953Z</time></trkpt><trkpt lat="40.6056608" lon="15.4448727"><ele>234.0</ele><time>2026-04-12T13:14:47.953Z</time></trkpt><trkpt lat="40.6056396" lon="15.4450017"><ele>232.66666666666666</ele><time>2026-04-12T13:14:49.953Z</time></trkpt><trkpt lat="40.6056607" lon="15.4451144"><ele>231.33333333333331</ele><time>2026-04-12T13:14:51.953Z</time></trkpt><trkpt lat="40.6057101" lon="15.4452011"><ele>230.0</ele><time>2026-04-12T13:14:53.953Z</time></trkpt><trkpt lat="40.6057817" lon="15.4452483"><ele>228.66666666666666</ele><time>2026-04-12T13:14:55.953Z</time></trkpt><trkpt lat="40.60586" lon="15.44527"><ele>227.33333333333331</ele><time>2026-04-12T13:14:58.953Z</time></trkpt><trkpt lat="40.60592" lon="15.4452317"><ele>226.0</ele><time>2026-04-12T13:15:01.953Z</time></trkpt><trkpt lat="40.6059317" lon="15.4451467"><ele>225.99999999999997</ele><time>2026-04-12T13:15:03.953Z</time></trkpt><trkpt lat="40.6059467" lon="15.4450283"><ele>226.0</ele><time>2026-04-12T13:15:05.953Z</time></trkpt><trkpt lat="40.6059583" lon="15.4448933"><ele>226.0</ele><time>2026-04-12T13:15:07.953Z</time></trkpt><trkpt lat="40.6059717" lon="15.4447867"><ele>226.0</ele><time>2026-04-12T13:15:09.953Z</time></trkpt><trkpt lat="40.6059867" lon="15.4446917"><ele>225.99999999999997</ele><time>2026-04-12T13:15:12.954Z</time></trkpt><trkpt lat="40.6060667" lon="15.4446833"><ele>226.0</ele><time>2026-04-12T13:16:29.952Z</time></trkpt><trkpt lat="40.60614" lon="15.44472"><ele>222.49999999999997</ele><time>2026-04-12T13:16:32.952Z</time></trkpt><trkpt lat="40.606195" lon="15.4447733"><ele>219.0</ele><time>2026-04-12T13:16:34.952Z</time></trkpt><trkpt lat="40.6062483" lon="15.4448483"><ele>215.5</ele><time>2026-04-12T13:16:36.952Z</time></trkpt><trkpt lat="40.6063067" lon="15.44492"><ele>212.0</ele><time>2026-04-12T13:16:38.952Z</time></trkpt><trkpt lat="40.6063817" lon="15.4449783"><ele>208.49999999999997</ele><time>2026-04-12T13:16:40.952Z</time></trkpt><trkpt lat="40.60645" lon="15.4450317"><ele>205.0</ele><time>2026-04-12T13:16:42.952Z</time></trkpt><trkpt lat="40.6065167" lon="15.4450833"><ele>205.0</ele><time>2026-04-12T13:16:45.952Z</time></trkpt><trkpt lat="40.6065633" lon="15.4451517"><ele>205.0</ele><time>2026-04-12T13:16:48.952Z</time></trkpt><trkpt lat="40.6065517" lon="15.4452633"><ele>205.0</ele><time>2026-04-12T13:16:51.952Z</time></trkpt><trkpt lat="40.6065233" lon="15.44535"><ele>205.0</ele><time>2026-04-12T13:16:53.952Z</time></trkpt><trkpt lat="40.6064883" lon="15.44544"><ele>205.0</ele><time>2026-04-12T13:16:55.952Z</time></trkpt><trkpt lat="40.606465" lon="15.44554"><ele>205.0</ele><time>2026-04-12T13:16:58.952Z</time></trkpt><trkpt lat="40.606505" lon="15.445605"><ele>205.0</ele><time>2026-04-12T13:17:02.952Z</time></trkpt><trkpt lat="40.606575" lon="15.445595"><ele>204.49999999999997</ele><time>2026-04-12T13:17:04.952Z</time></trkpt><trkpt lat="40.6066633" lon="15.4455883"><ele>204.0</ele><time>2026-04-12T13:17:06.952Z</time></trkpt><trkpt lat="40.60675" lon="15.4455833"><ele>203.5</ele><time>2026-04-12T13:17:08.952Z</time></trkpt><trkpt lat="40.606825" lon="15.4455717"><ele>203.0</ele><time>2026-04-12T13:17:10.953Z</time></trkpt><trkpt lat="40.60689" lon="15.4455733"><ele>202.49999999999997</ele><time>2026-04-12T13:17:13.952Z</time></trkpt><trkpt lat="40.606955" lon="15.445595"><ele>202.0</ele><time>2026-04-12T13:17:15.953Z</time></trkpt><trkpt lat="40.6070417" lon="15.44563"><ele>201.6</ele><time>2026-04-12T13:17:17.952Z</time></trkpt><trkpt lat="40.60715" lon="15.4456467"><ele>201.2</ele><time>2026-04-12T13:17:19.952Z</time></trkpt><trkpt lat="40.60726" lon="15.445645"><ele>200.8</ele><time>2026-04-12T13:17:21.952Z</time></trkpt><trkpt lat="40.60737" lon="15.4456467"><ele>200.4</ele><time>2026-04-12T13:17:23.952Z</time></trkpt><trkpt lat="40.6074667" lon="15.4456733"><ele>200.0</ele><time>2026-04-12T13:17:25.952Z</time></trkpt><trkpt lat="40.6075833" lon="15.4457983"><ele>200.00000000000003</ele><time>2026-04-12T13:26:51.95Z</time></trkpt><trkpt lat="40.607555" lon="15.445875"><ele>200.0</ele><time>2026-04-12T13:26:54.95Z</time></trkpt><trkpt lat="40.60749" lon="15.4459333"><ele>200.0</ele><time>2026-04-12T13:26:57.95Z</time></trkpt><trkpt lat="40.60741" lon="15.445995"><ele>200.0</ele><time>2026-04-12T13:27:00.95Z</time></trkpt><trkpt lat="40.6073417" lon="15.446045"><ele>200.00000000000003</ele><time>2026-04-12T13:27:08.95Z</time></trkpt><trkpt lat="40.6072767" lon="15.4461583"><ele>200.0</ele><time>2026-04-12T13:27:15.95Z</time></trkpt><trkpt lat="40.60722" lon="15.44626"><ele>199.66666666666669</ele><time>2026-04-12T13:27:21.95Z</time></trkpt><trkpt lat="40.6071483" lon="15.4463633"><ele>199.33333333333334</ele><time>2026-04-12T13:28:12.95Z</time></trkpt><trkpt lat="40.6070883" lon="15.4464383"><ele>199.0</ele><time>2026-04-12T13:28:15.95Z</time></trkpt><trkpt lat="40.60704" lon="15.4465017"><ele>198.66666666666669</ele><time>2026-04-12T13:28:17.951Z</time></trkpt><trkpt lat="40.6070083" lon="15.4465767"><ele>198.33333333333334</ele><time>2026-04-12T13:28:19.95Z</time></trkpt><trkpt lat="40.6070083" lon="15.4466817"><ele>198.0</ele><time>2026-04-12T13:28:21.95Z</time></trkpt><trkpt lat="40.6070333" lon="15.4468117"><ele>198.0</ele><time>2026-04-12T13:28:23.95Z</time></trkpt><trkpt lat="40.6070533" lon="15.4469217"><ele>198.0</ele><time>2026-04-12T13:28:25.95Z</time></trkpt><trkpt lat="40.6070783" lon="15.447015"><ele>198.0</ele><time>2026-04-12T13:28:27.95Z</time></trkpt><trkpt lat="40.6070867" lon="15.4471183"><ele>198.0</ele><time>2026-04-12T13:28:29.95Z</time></trkpt><trkpt lat="40.6070867" lon="15.44721"><ele>198.0</ele><time>2026-04-12T13:28:31.95Z</time></trkpt><trkpt lat="40.6070967" lon="15.447325"><ele>198.0</ele><time>2026-04-12T13:28:35.949Z</time></trkpt><trkpt lat="40.6070867" lon="15.44743"><ele>198.4</ele><time>2026-04-12T13:28:37.949Z</time></trkpt><trkpt lat="40.607075" lon="15.44752"><ele>198.8</ele><time>2026-04-12T13:28:39.949Z</time></trkpt><trkpt lat="40.6070417" lon="15.44763"><ele>199.2</ele><time>2026-04-12T13:28:42.949Z</time></trkpt><trkpt lat="40.6069983" lon="15.447705"><ele>199.6</ele><time>2026-04-12T13:28:44.949Z</time></trkpt><trkpt lat="40.6069283" lon="15.4478017"><ele>200.0</ele><time>2026-04-12T13:28:46.95Z</time></trkpt><trkpt lat="40.606845" lon="15.4479433"><ele>199.83333333333334</ele><time>2026-04-12T13:28:48.949Z</time></trkpt><trkpt lat="40.606805" lon="15.44802"><ele>199.66666666666669</ele><time>2026-04-12T13:28:49.949Z</time></trkpt><trkpt lat="40.60674" lon="15.4481367"><ele>199.5</ele><time>2026-04-12T13:28:51.949Z</time></trkpt><trkpt lat="40.6067133" lon="15.4482317"><ele>199.33333333333331</ele><time>2026-04-12T13:28:53.949Z</time></trkpt><trkpt lat="40.6067383" lon="15.4483217"><ele>199.16666666666666</ele><time>2026-04-12T13:28:55.949Z</time></trkpt><trkpt lat="40.60678" lon="15.4484133"><ele>199.0</ele><time>2026-04-12T13:28:57.949Z</time></trkpt><trkpt lat="40.6068017" lon="15.4485117"><ele>198.99999999999997</ele><time>2026-04-12T13:28:59.949Z</time></trkpt><trkpt lat="40.6067917" lon="15.4486317"><ele>199.0</ele><time>2026-04-12T13:29:02.949Z</time></trkpt><trkpt lat="40.6067383" lon="15.4487"><ele>199.0</ele><time>2026-04-12T13:29:04.949Z</time></trkpt><trkpt lat="40.6066867" lon="15.4487683"><ele>199.0</ele><time>2026-04-12T13:29:06.949Z</time></trkpt><trkpt lat="40.6066983" lon="15.448865"><ele>198.99999999999997</ele><time>2026-04-12T13:29:09.949Z</time></trkpt><trkpt lat="40.6067483" lon="15.44895"><ele>199.0</ele><time>2026-04-12T13:29:11.949Z</time></trkpt><trkpt lat="40.6067683" lon="15.4490617"><ele>199.2</ele><time>2026-04-12T13:29:13.949Z</time></trkpt><trkpt lat="40.6067817" lon="15.4492017"><ele>199.39999999999998</ele><time>2026-04-12T13:29:15.949Z</time></trkpt><trkpt lat="40.6068183" lon="15.4493117"><ele>199.6</ele><time>2026-04-12T13:29:17.949Z</time></trkpt><trkpt lat="40.6068733" lon="15.44939"><ele>199.8</ele><time>2026-04-12T13:29:19.949Z</time></trkpt><trkpt lat="40.6068983" lon="15.44949"><ele>200.0</ele><time>2026-04-12T13:29:21.949Z</time></trkpt><trkpt lat="40.6069117" lon="15.4496367"><ele>200.00000000000003</ele><time>2026-04-12T13:29:23.949Z</time></trkpt><trkpt lat="40.606915" lon="15.4497217"><ele>200.0</ele><time>2026-04-12T13:29:24.949Z</time></trkpt><trkpt lat="40.6069083" lon="15.4498517"><ele>200.0</ele><time>2026-04-12T13:29:26.949Z</time></trkpt><trkpt lat="40.6069317" lon="15.4499367"><ele>200.0</ele><time>2026-04-12T13:29:28.949Z</time></trkpt><trkpt lat="40.6070167" lon="15.4499717"><ele>200.00000000000003</ele><time>2026-04-12T13:29:31.95Z</time></trkpt><trkpt lat="40.6070783" lon="15.449995"><ele>200.0</ele><time>2026-04-12T13:29:33.949Z</time></trkpt><trkpt lat="40.6071633" lon="15.4500433"><ele>200.00000000000003</ele><time>2026-04-12T13:29:36.949Z</time></trkpt><trkpt lat="40.6072033" lon="15.450115"><ele>200.0</ele><time>2026-04-12T13:29:38.949Z</time></trkpt><trkpt lat="40.6072267" lon="15.4502067"><ele>200.0</ele><time>2026-04-12T13:35:49.948Z</time></trkpt><trkpt lat="40.6072267" lon="15.4503033"><ele>200.0</ele><time>2026-04-12T13:35:51.948Z</time></trkpt><trkpt lat="40.60721" lon="15.4504133"><ele>200.00000000000003</ele><time>2026-04-12T13:36:06.947Z</time></trkpt><trkpt lat="40.6071717" lon="15.4505083"><ele>200.0</ele><time>2026-04-12T13:36:08.947Z</time></trkpt><trkpt lat="40.607095" lon="15.450555"><ele>200.00000000000003</ele><time>2026-04-12T13:36:10.948Z</time></trkpt><trkpt lat="40.6070083" lon="15.4505917"><ele>200.0</ele><time>2026-04-12T13:36:12.947Z</time></trkpt><trkpt lat="40.60694" lon="15.4506467"><ele>200.0</ele><time>2026-04-12T13:36:14.947Z</time></trkpt><trkpt lat="40.6068767" lon="15.4507067"><ele>200.0</ele><time>2026-04-12T13:36:16.947Z</time></trkpt><trkpt lat="40.606805" lon="15.4507833"><ele>200.00000000000003</ele><time>2026-04-12T13:36:18.947Z</time></trkpt><trkpt lat="40.6067483" lon="15.4508733"><ele>200.0</ele><time>2026-04-12T13:36:20.947Z</time></trkpt><trkpt lat="40.6066983" lon="15.4509333"><ele>200.33333333333334</ele><time>2026-04-12T13:36:22.947Z</time></trkpt><trkpt lat="40.606645" lon="15.4509883"><ele>200.66666666666669</ele><time>2026-04-12T13:36:25.947Z</time></trkpt><trkpt lat="40.6065917" lon="15.4510433"><ele>201.0</ele><time>2026-04-12T13:36:27.947Z</time></trkpt><trkpt lat="40.6065333" lon="15.451115"><ele>201.33333333333331</ele><time>2026-04-12T13:36:29.947Z</time></trkpt><trkpt lat="40.606475" lon="15.4511983"><ele>201.66666666666666</ele><time>2026-04-12T13:36:31.947Z</time></trkpt><trkpt lat="40.606425" lon="15.4512733"><ele>202.0</ele><time>2026-04-12T13:36:33.947Z</time></trkpt><trkpt lat="40.606375" lon="15.4513483"><ele>201.99999999999997</ele><time>2026-04-12T13:36:35.947Z</time></trkpt><trkpt lat="40.6063217" lon="15.45144"><ele>202.0</ele><time>2026-04-12T13:36:37.947Z</time></trkpt><trkpt lat="40.6062717" lon="15.451535"><ele>202.0</ele><time>2026-04-12T13:36:39.947Z</time></trkpt><trkpt lat="40.6062317" lon="15.4516267"><ele>202.0</ele><time>2026-04-12T13:36:41.947Z</time></trkpt><trkpt lat="40.6061983" lon="15.4517017"><ele>201.99999999999997</ele><time>2026-04-12T13:36:43.947Z</time></trkpt><trkpt lat="40.6061167" lon="15.4517483"><ele>202.0</ele><time>2026-04-12T13:36:46.947Z</time></trkpt><trkpt lat="40.6060583" lon="15.45178"><ele>201.8</ele><time>2026-04-12T13:36:48.947Z</time></trkpt><trkpt lat="40.6060083" lon="15.4518833"><ele>201.6</ele><time>2026-04-12T13:36:51.947Z</time></trkpt><trkpt lat="40.605985" lon="15.4519817"><ele>201.4</ele><time>2026-04-12T13:36:53.947Z</time></trkpt><trkpt lat="40.60596" lon="15.4520917"><ele>201.20000000000002</ele><time>2026-04-12T13:36:55.947Z</time></trkpt><trkpt lat="40.6059633" lon="15.45222"><ele>201.0</ele><time>2026-04-12T13:36:57.947Z</time></trkpt><trkpt lat="40.605955" lon="15.4523517"><ele>201.0</ele><time>2026-04-12T13:36:59.947Z</time></trkpt><trkpt lat="40.6059467" lon="15.4524917"><ele>201.0</ele><time>2026-04-12T13:37:01.947Z</time></trkpt><trkpt lat="40.605915" lon="15.4526417"><ele>201.0</ele><time>2026-04-12T13:37:03.947Z</time></trkpt><trkpt lat="40.6058833" lon="15.45279"><ele>201.0</ele><time>2026-04-12T13:37:05.947Z</time></trkpt><trkpt lat="40.6058883" lon="15.4529033"><ele>201.0</ele><time>2026-04-12T13:37:07.947Z</time></trkpt><trkpt lat="40.6059217" lon="15.4530167"><ele>201.4</ele><time>2026-04-12T13:37:09.947Z</time></trkpt><trkpt lat="40.6059217" lon="15.4531317"><ele>201.8</ele><time>2026-04-12T13:37:12.947Z</time></trkpt><trkpt lat="40.6059133" lon="15.4532783"><ele>202.20000000000002</ele><time>2026-04-12T13:37:15.947Z</time></trkpt><trkpt lat="40.6059" lon="15.4534433"><ele>202.60000000000002</ele><time>2026-04-12T13:37:17.947Z</time></trkpt><trkpt lat="40.6058933" lon="15.45358"><ele>203.0</ele><time>2026-04-12T13:37:19.947Z</time></trkpt><trkpt lat="40.6058717" lon="15.453725"><ele>203.00000000000003</ele><time>2026-04-12T13:37:21.947Z</time></trkpt><trkpt lat="40.60587" lon="15.453865"><ele>203.0</ele><time>2026-04-12T13:37:23.947Z</time></trkpt><trkpt lat="40.6058483" lon="15.4539533"><ele>203.0</ele><time>2026-04-12T13:37:25.947Z</time></trkpt><trkpt lat="40.605775" lon="15.4540017"><ele>203.0</ele><time>2026-04-12T13:37:28.947Z</time></trkpt><trkpt lat="40.6056933" lon="15.4540283"><ele>203.00000000000003</ele><time>2026-04-12T13:37:30.947Z</time></trkpt><trkpt lat="40.6056117" lon="15.45409"><ele>203.0</ele><time>2026-04-12T13:37:32.947Z</time></trkpt><trkpt lat="40.6055383" lon="15.4541483"><ele>203.00000000000003</ele><time>2026-04-12T13:37:34.947Z</time></trkpt><trkpt lat="40.605475" lon="15.4541917"><ele>203.0</ele><time>2026-04-12T13:37:36.947Z</time></trkpt><trkpt lat="40.6054133" lon="15.454235"><ele>203.0</ele><time>2026-04-12T13:37:38.947Z</time></trkpt><trkpt lat="40.60533" lon="15.4542983"><ele>203.0</ele><time>2026-04-12T13:37:40.947Z</time></trkpt><trkpt lat="40.6052533" lon="15.4543917"><ele>203.00000000000003</ele><time>2026-04-12T13:37:42.947Z</time></trkpt><trkpt lat="40.6051917" lon="15.4544833"><ele>203.0</ele><time>2026-04-12T13:37:44.947Z</time></trkpt><trkpt lat="40.6051467" lon="15.4545517"><ele>203.4</ele><time>2026-04-12T13:37:46.947Z</time></trkpt><trkpt lat="40.605085" lon="15.4546433"><ele>203.8</ele><time>2026-04-12T13:37:48.947Z</time></trkpt><trkpt lat="40.6050167" lon="15.4547383"><ele>204.2</ele><time>2026-04-12T13:37:50.947Z</time></trkpt><trkpt lat="40.60495" lon="15.45486"><ele>204.6</ele><time>2026-04-12T13:37:52.947Z</time></trkpt><trkpt lat="40.604885" lon="15.4549917"><ele>205.0</ele><time>2026-04-12T13:37:54.947Z</time></trkpt><trkpt lat="40.6048283" lon="15.4551067"><ele>204.99999999999997</ele><time>2026-04-12T13:37:56.947Z</time></trkpt><trkpt lat="40.6047767" lon="15.4552233"><ele>205.0</ele><time>2026-04-12T13:37:58.947Z</time></trkpt><trkpt lat="40.6047333" lon="15.4553433"><ele>205.0</ele><time>2026-04-12T13:38:00.947Z</time></trkpt><trkpt lat="40.60471" lon="15.4554217"><ele>205.0</ele><time>2026-04-12T13:38:02.948Z</time></trkpt><trkpt lat="40.6046867" lon="15.45555"><ele>204.99999999999997</ele><time>2026-04-12T13:38:28.947Z</time></trkpt><trkpt lat="40.6046733" lon="15.455655"><ele>205.0</ele><time>2026-04-12T13:38:29.947Z</time></trkpt><trkpt lat="40.604655" lon="15.45576"><ele>205.16666666666666</ele><time>2026-04-12T13:38:30.947Z</time></trkpt><trkpt lat="40.6046417" lon="15.45586"><ele>205.33333333333331</ele><time>2026-04-12T13:38:31.947Z</time></trkpt><trkpt lat="40.6046267" lon="15.4559633"><ele>205.5</ele><time>2026-04-12T13:38:32.947Z</time></trkpt><trkpt lat="40.6046083" lon="15.456065"><ele>205.66666666666669</ele><time>2026-04-12T13:38:33.947Z</time></trkpt><trkpt lat="40.604595" lon="15.4561683"><ele>205.83333333333334</ele><time>2026-04-12T13:38:34.947Z</time></trkpt><trkpt lat="40.6045717" lon="15.4562633"><ele>206.0</ele><time>2026-04-12T13:38:35.947Z</time></trkpt><trkpt lat="40.6045533" lon="15.456355"><ele>206.16666666666669</ele><time>2026-04-12T13:38:36.948Z</time></trkpt><trkpt lat="40.6045417" lon="15.4564383"><ele>206.33333333333334</ele><time>2026-04-12T13:38:37.947Z</time></trkpt><trkpt lat="40.6045333" lon="15.456555"><ele>206.5</ele><time>2026-04-12T13:38:39.947Z</time></trkpt><trkpt lat="40.60454" lon="15.4566633"><ele>206.66666666666669</ele><time>2026-04-12T13:38:42.947Z</time></trkpt><trkpt lat="40.6044667" lon="15.4566333"><ele>206.83333333333334</ele><time>2026-04-12T13:39:06.947Z</time></trkpt><trkpt lat="40.6043883" lon="15.456705"><ele>207.0</ele><time>2026-04-12T13:39:09.947Z</time></trkpt><trkpt lat="40.60432" lon="15.45681"><ele>207.0</ele><time>2026-04-12T13:39:11.947Z</time></trkpt><trkpt lat="40.6042683" lon="15.4569517"><ele>207.0</ele><time>2026-04-12T13:39:13.947Z</time></trkpt><trkpt lat="40.6042383" lon="15.457085"><ele>207.0</ele><time>2026-04-12T13:39:15.947Z</time></trkpt><trkpt lat="40.604225" lon="15.4572083"><ele>207.0</ele><time>2026-04-12T13:39:17.947Z</time></trkpt><trkpt lat="40.604225" lon="15.457335"><ele>207.0</ele><time>2026-04-12T13:39:19.947Z</time></trkpt><trkpt lat="40.60424" lon="15.4574333"><ele>207.0</ele><time>2026-04-12T13:39:21.947Z</time></trkpt><trkpt lat="40.6042283" lon="15.4575333"><ele>207.0</ele><time>2026-04-12T13:39:23.948Z</time></trkpt><trkpt lat="40.604155" lon="15.4576917"><ele>207.0</ele><time>2026-04-12T13:39:25.947Z</time></trkpt><trkpt lat="40.6041017" lon="15.4578017"><ele>207.0</ele><time>2026-04-12T13:39:26.947Z</time></trkpt><trkpt lat="40.6040417" lon="15.4579033"><ele>207.0</ele><time>2026-04-12T13:39:27.947Z</time></trkpt><trkpt lat="40.6039933" lon="15.4579867"><ele>207.00000000000003</ele><time>2026-04-12T13:39:28.947Z</time></trkpt><trkpt lat="40.6039533" lon="15.4580667"><ele>207.0</ele><time>2026-04-12T13:39:29.947Z</time></trkpt><trkpt lat="40.6039133" lon="15.4581467"><ele>207.0</ele><time>2026-04-12T13:39:30.947Z</time></trkpt><trkpt lat="40.6038883" lon="15.4582283"><ele>207.0</ele><time>2026-04-12T13:39:31.947Z</time></trkpt><trkpt lat="40.60386" lon="15.4583083"><ele>207.0</ele><time>2026-04-12T13:39:32.947Z</time></trkpt><trkpt lat="40.6038333" lon="15.4583883"><ele>207.00000000000003</ele><time>2026-04-12T13:39:33.948Z</time></trkpt><trkpt lat="40.603805" lon="15.458475"><ele>207.0</ele><time>2026-04-12T13:39:34.947Z</time></trkpt><trkpt lat="40.60378" lon="15.4585567"><ele>207.0</ele><time>2026-04-12T13:39:35.947Z</time></trkpt><trkpt lat="40.6037317" lon="15.4586983"><ele>207.0</ele><time>2026-04-12T13:39:37.946Z</time></trkpt><trkpt lat="40.6037017" lon="15.458815"><ele>207.0</ele><time>2026-04-12T13:39:39.946Z</time></trkpt><trkpt lat="40.603695" lon="15.4589283"><ele>207.0</ele><time>2026-04-12T13:39:41.946Z</time></trkpt><trkpt lat="40.60368" lon="15.4590467"><ele>207.0</ele><time>2026-04-12T13:39:43.946Z</time></trkpt><trkpt lat="40.6036533" lon="15.4591633"><ele>208.16666666666666</ele><time>2026-04-12T13:39:45.946Z</time></trkpt><trkpt lat="40.6036317" lon="15.4592783"><ele>209.33333333333331</ele><time>2026-04-12T13:39:47.946Z</time></trkpt><trkpt lat="40.60361" lon="15.4593867"><ele>210.5</ele><time>2026-04-12T13:39:49.946Z</time></trkpt><trkpt lat="40.603595" lon="15.4594983"><ele>211.66666666666666</ele><time>2026-04-12T13:39:51.946Z</time></trkpt><trkpt lat="40.6035833" lon="15.459585"><ele>212.83333333333331</ele><time>2026-04-12T13:39:53.946Z</time></trkpt><trkpt lat="40.6035683" lon="15.45967"><ele>214.0</ele><time>2026-04-12T13:39:56.946Z</time></trkpt><trkpt lat="40.60355" lon="15.459785"><ele>213.99999999999997</ele><time>2026-04-12T13:40:00.946Z</time></trkpt><trkpt lat="40.603545" lon="15.4599117"><ele>214.0</ele><time>2026-04-12T13:40:02.946Z</time></trkpt><trkpt lat="40.6035367" lon="15.4599967"><ele>214.0</ele><time>2026-04-12T13:40:03.946Z</time></trkpt><trkpt lat="40.6035267" lon="15.46009"><ele>214.0</ele><time>2026-04-12T13:40:04.946Z</time></trkpt><trkpt lat="40.6035167" lon="15.4601933"><ele>213.99999999999997</ele><time>2026-04-12T13:40:05.946Z</time></trkpt><trkpt lat="40.603515" lon="15.4602967"><ele>214.0</ele><time>2026-04-12T13:40:06.946Z</time></trkpt><trkpt lat="40.6035183" lon="15.4603917"><ele>213.79999999999998</ele><time>2026-04-12T13:40:07.946Z</time></trkpt><trkpt lat="40.603505" lon="15.4605383"><ele>213.59999999999997</ele><time>2026-04-12T13:40:09.946Z</time></trkpt><trkpt lat="40.60345" lon="15.4606367"><ele>213.4</ele><time>2026-04-12T13:40:11.946Z</time></trkpt><trkpt lat="40.603375" lon="15.4607283"><ele>213.2</ele><time>2026-04-12T13:40:13.946Z</time></trkpt><trkpt lat="40.60329" lon="15.4608"><ele>213.0</ele><time>2026-04-12T13:40:15.946Z</time></trkpt><trkpt lat="40.60325" lon="15.4608817"><ele>213.0</ele><time>2026-04-12T13:40:17.946Z</time></trkpt><trkpt lat="40.6032367" lon="15.460985"><ele>213.0</ele><time>2026-04-12T13:40:20.946Z</time></trkpt><trkpt lat="40.60323" lon="15.4611317"><ele>213.0</ele><time>2026-04-12T13:40:22.946Z</time></trkpt><trkpt lat="40.6032383" lon="15.46122"><ele>213.0</ele><time>2026-04-12T13:40:23.946Z</time></trkpt><trkpt lat="40.6032433" lon="15.4613417"><ele>213.0</ele><time>2026-04-12T13:40:25.946Z</time></trkpt><trkpt lat="40.603235" lon="15.46144"><ele>213.0</ele><time>2026-04-12T13:40:27.946Z</time></trkpt><trkpt lat="40.6032217" lon="15.4615583"><ele>213.0</ele><time>2026-04-12T13:40:29.946Z</time></trkpt><trkpt lat="40.60319" lon="15.4616567"><ele>213.0</ele><time>2026-04-12T13:40:32.946Z</time></trkpt><trkpt lat="40.6032183" lon="15.4615733"><ele>213.0</ele><time>2026-04-12T13:41:39.946Z</time></trkpt><trkpt lat="40.6032383" lon="15.4614883"><ele>213.0</ele><time>2026-04-12T13:41:40.946Z</time></trkpt><trkpt lat="40.603255" lon="15.4613833"><ele>213.0</ele><time>2026-04-12T13:41:41.946Z</time></trkpt><trkpt lat="40.6032533" lon="15.4612867"><ele>213.0</ele><time>2026-04-12T13:41:42.946Z</time></trkpt><trkpt lat="40.6032533" lon="15.4611417"><ele>213.0</ele><time>2026-04-12T13:41:44.946Z</time></trkpt><trkpt lat="40.6032533" lon="15.460995"><ele>213.0</ele><time>2026-04-12T13:41:46.947Z</time></trkpt><trkpt lat="40.6032583" lon="15.460865"><ele>213.0</ele><time>2026-04-12T13:41:48.946Z</time></trkpt><trkpt lat="40.6033033" lon="15.4607933"><ele>213.0</ele><time>2026-04-12T13:41:50.946Z</time></trkpt><trkpt lat="40.603365" lon="15.4607517"><ele>213.0</ele><time>2026-04-12T13:41:52.946Z</time></trkpt><trkpt lat="40.6034317" lon="15.4606333"><ele>213.0</ele><time>2026-04-12T13:52:22.943Z</time></trkpt><trkpt lat="40.6034767" lon="15.460555"><ele>213.0</ele><time>2026-04-12T13:52:23.943Z</time></trkpt><trkpt lat="40.60351" lon="15.4604767"><ele>213.0</ele><time>2026-04-12T13:52:24.943Z</time></trkpt><trkpt lat="40.6035267" lon="15.460395"><ele>213.0</ele><time>2026-04-12T13:52:25.943Z</time></trkpt><trkpt lat="40.6035367" lon="15.4602433"><ele>213.0</ele><time>2026-04-12T13:52:27.943Z</time></trkpt><trkpt lat="40.6035433" lon="15.4601267"><ele>213.0</ele><time>2026-04-12T13:52:29.943Z</time></trkpt><trkpt lat="40.6035583" lon="15.460035"><ele>213.2</ele><time>2026-04-12T13:52:31.943Z</time></trkpt><trkpt lat="40.60357" lon="15.4599267"><ele>213.4</ele><time>2026-04-12T13:52:33.943Z</time></trkpt><trkpt lat="40.6035767" lon="15.4598117"><ele>213.59999999999997</ele><time>2026-04-12T13:52:35.943Z</time></trkpt><trkpt lat="40.6035883" lon="15.4596717"><ele>213.79999999999998</ele><time>2026-04-12T13:52:37.943Z</time></trkpt><trkpt lat="40.603605" lon="15.4595283"><ele>214.0</ele><time>2026-04-12T13:52:39.943Z</time></trkpt><trkpt lat="40.6036233" lon="15.4594133"><ele>214.0</ele><time>2026-04-12T13:52:41.944Z</time></trkpt><trkpt lat="40.60364" lon="15.4593"><ele>213.99999999999997</ele><time>2026-04-12T13:52:43.943Z</time></trkpt><trkpt lat="40.603665" lon="15.45918"><ele>213.99999999999997</ele><time>2026-04-12T13:52:45.943Z</time></trkpt><trkpt lat="40.603695" lon="15.4590383"><ele>214.0</ele><time>2026-04-12T13:52:47.943Z</time></trkpt><trkpt lat="40.6037083" lon="15.4589567"><ele>214.0</ele><time>2026-04-12T13:52:48.943Z</time></trkpt><trkpt lat="40.603725" lon="15.4588067"><ele>212.6</ele><time>2026-04-12T13:52:50.943Z</time></trkpt><trkpt lat="40.6037483" lon="15.4586767"><ele>211.2</ele><time>2026-04-12T13:52:52.943Z</time></trkpt><trkpt lat="40.6037917" lon="15.4585567"><ele>209.79999999999998</ele><time>2026-04-12T13:52:54.943Z</time></trkpt><trkpt lat="40.6038333" lon="15.4584217"><ele>208.39999999999998</ele><time>2026-04-12T13:52:56.943Z</time></trkpt><trkpt lat="40.6038683" lon="15.4582983"><ele>207.0</ele><time>2026-04-12T13:52:58.943Z</time></trkpt><trkpt lat="40.6039083" lon="15.4581883"><ele>207.0</ele><time>2026-04-12T13:53:00.943Z</time></trkpt><trkpt lat="40.6039517" lon="15.4580833"><ele>207.0</ele><time>2026-04-12T13:53:02.943Z</time></trkpt><trkpt lat="40.604005" lon="15.457975"><ele>207.0</ele><time>2026-04-12T13:53:04.943Z</time></trkpt><trkpt lat="40.6040733" lon="15.45786"><ele>207.0</ele><time>2026-04-12T13:53:06.943Z</time></trkpt><trkpt lat="40.60413" lon="15.457755"><ele>207.0</ele><time>2026-04-12T13:53:08.943Z</time></trkpt><trkpt lat="40.6041917" lon="15.4576533"><ele>207.0</ele><time>2026-04-12T13:53:10.943Z</time></trkpt><trkpt lat="40.604235" lon="15.4575617"><ele>207.0</ele><time>2026-04-12T13:53:12.943Z</time></trkpt><trkpt lat="40.6042617" lon="15.4574733"><ele>207.0</ele><time>2026-04-12T13:53:14.943Z</time></trkpt><trkpt lat="40.60425" lon="15.4573767"><ele>207.0</ele><time>2026-04-12T13:53:16.943Z</time></trkpt><trkpt lat="40.6042317" lon="15.45728"><ele>207.0</ele><time>2026-04-12T13:53:18.943Z</time></trkpt><trkpt lat="40.604245" lon="15.4571833"><ele>207.0</ele><time>2026-04-12T13:53:20.943Z</time></trkpt><trkpt lat="40.6042633" lon="15.4570917"><ele>207.0</ele><time>2026-04-12T13:53:22.943Z</time></trkpt><trkpt lat="40.6042867" lon="15.457005"><ele>207.0</ele><time>2026-04-12T13:53:24.943Z</time></trkpt><trkpt lat="40.6043133" lon="15.4569233"><ele>207.0</ele><time>2026-04-12T13:53:26.943Z</time></trkpt><trkpt lat="40.6043467" lon="15.4568383"><ele>207.0</ele><time>2026-04-12T13:53:28.943Z</time></trkpt><trkpt lat="40.6044067" lon="15.4567333"><ele>207.0</ele><time>2026-04-12T13:53:30.943Z</time></trkpt><trkpt lat="40.6044383" lon="15.4566483"><ele>207.0</ele><time>2026-04-12T13:53:32.944Z</time></trkpt><trkpt lat="40.6044567" lon="15.4565517"><ele>207.0</ele><time>2026-04-12T13:53:34.943Z</time></trkpt><trkpt lat="40.6045033" lon="15.4564533"><ele>207.0</ele><time>2026-04-12T13:53:37.944Z</time></trkpt><trkpt lat="40.6045417" lon="15.456375"><ele>207.0</ele><time>2026-04-12T13:53:39.943Z</time></trkpt><trkpt lat="40.60458" lon="15.4562667"><ele>207.0</ele><time>2026-04-12T13:53:41.943Z</time></trkpt><trkpt lat="40.6046033" lon="15.4561483"><ele>207.0</ele><time>2026-04-12T13:53:43.943Z</time></trkpt><trkpt lat="40.60462" lon="15.456005"><ele>206.8</ele><time>2026-04-12T13:53:45.943Z</time></trkpt><trkpt lat="40.6046367" lon="15.4558667"><ele>206.6</ele><time>2026-04-12T13:53:47.943Z</time></trkpt><trkpt lat="40.6046467" lon="15.45575"><ele>206.4</ele><time>2026-04-12T13:53:49.943Z</time></trkpt><trkpt lat="40.6046633" lon="15.4556433"><ele>206.20000000000002</ele><time>2026-04-12T13:53:51.943Z</time></trkpt><trkpt lat="40.6046967" lon="15.45552"><ele>206.0</ele><time>2026-04-12T13:53:53.943Z</time></trkpt><trkpt lat="40.60473" lon="15.4553983"><ele>205.83333333333334</ele><time>2026-04-12T13:53:55.944Z</time></trkpt><trkpt lat="40.6047667" lon="15.4553017"><ele>205.66666666666669</ele><time>2026-04-12T13:53:57.943Z</time></trkpt><trkpt lat="40.6047983" lon="15.4552133"><ele>205.5</ele><time>2026-04-12T13:53:59.943Z</time></trkpt><trkpt lat="40.6048317" lon="15.4551383"><ele>205.33333333333331</ele><time>2026-04-12T13:54:01.943Z</time></trkpt><trkpt lat="40.60488" lon="15.4550567"><ele>205.16666666666666</ele><time>2026-04-12T13:54:04.944Z</time></trkpt><trkpt lat="40.60494" lon="15.454935"><ele>205.0</ele><time>2026-04-12T13:54:07.943Z</time></trkpt><trkpt lat="40.60499" lon="15.4548117"><ele>204.99999999999997</ele><time>2026-04-12T13:54:09.944Z</time></trkpt><trkpt lat="40.605065" lon="15.454695"><ele>205.0</ele><time>2026-04-12T13:54:11.943Z</time></trkpt><trkpt lat="40.6051117" lon="15.4546317"><ele>205.0</ele><time>2026-04-12T13:54:12.944Z</time></trkpt><trkpt lat="40.6051567" lon="15.4545667"><ele>205.0</ele><time>2026-04-12T13:54:13.943Z</time></trkpt><trkpt lat="40.6052017" lon="15.4545"><ele>204.99999999999997</ele><time>2026-04-12T13:54:14.943Z</time></trkpt><trkpt lat="40.6052717" lon="15.45439"><ele>205.0</ele><time>2026-04-12T13:54:16.943Z</time></trkpt><trkpt lat="40.6053433" lon="15.4543083"><ele>204.66666666666666</ele><time>2026-04-12T13:54:18.943Z</time></trkpt><trkpt lat="40.6054133" lon="15.4542467"><ele>204.33333333333331</ele><time>2026-04-12T13:54:20.942Z</time></trkpt><trkpt lat="40.6054867" lon="15.454195"><ele>204.0</ele><time>2026-04-12T13:54:22.942Z</time></trkpt><trkpt lat="40.6055583" lon="15.4541433"><ele>203.66666666666669</ele><time>2026-04-12T13:54:24.942Z</time></trkpt><trkpt lat="40.6056217" lon="15.4541033"><ele>203.33333333333334</ele><time>2026-04-12T13:54:26.942Z</time></trkpt><trkpt lat="40.6057033" lon="15.4540433"><ele>203.0</ele><time>2026-04-12T13:54:29.942Z</time></trkpt><trkpt lat="40.6057733" lon="15.4540117"><ele>203.0</ele><time>2026-04-12T13:54:31.942Z</time></trkpt><trkpt lat="40.6058367" lon="15.4539767"><ele>203.0</ele><time>2026-04-12T13:54:33.942Z</time></trkpt><trkpt lat="40.6058717" lon="15.453875"><ele>203.0</ele><time>2026-04-12T13:55:04.942Z</time></trkpt><trkpt lat="40.6058783" lon="15.453735"><ele>203.0</ele><time>2026-04-12T13:55:06.942Z</time></trkpt><trkpt lat="40.6058883" lon="15.4535833"><ele>203.0</ele><time>2026-04-12T13:55:08.943Z</time></trkpt><trkpt lat="40.6058933" lon="15.4534517"><ele>203.00000000000003</ele><time>2026-04-12T13:55:10.942Z</time></trkpt><trkpt lat="40.6058917" lon="15.4533417"><ele>203.0</ele><time>2026-04-12T13:55:12.943Z</time></trkpt><trkpt lat="40.6058983" lon="15.4532583"><ele>203.0</ele><time>2026-04-12T13:55:14.942Z</time></trkpt><trkpt lat="40.605925" lon="15.453125"><ele>203.0</ele><time>2026-04-12T13:55:17.942Z</time></trkpt><trkpt lat="40.605915" lon="15.453"><ele>203.00000000000003</ele><time>2026-04-12T13:55:19.942Z</time></trkpt><trkpt lat="40.6058833" lon="15.4528783"><ele>203.0</ele><time>2026-04-12T13:55:21.943Z</time></trkpt><trkpt lat="40.6058783" lon="15.45276"><ele>202.66666666666669</ele><time>2026-04-12T13:55:23.942Z</time></trkpt><trkpt lat="40.605905" lon="15.4526517"><ele>202.33333333333334</ele><time>2026-04-12T13:55:25.943Z</time></trkpt><trkpt lat="40.60592" lon="15.45256"><ele>202.0</ele><time>2026-04-12T13:55:27.942Z</time></trkpt><trkpt lat="40.60594" lon="15.4524567"><ele>201.66666666666669</ele><time>2026-04-12T13:55:29.942Z</time></trkpt><trkpt lat="40.6059517" lon="15.4523483"><ele>201.33333333333334</ele><time>2026-04-12T13:55:31.942Z</time></trkpt><trkpt lat="40.60596" lon="15.452235"><ele>201.0</ele><time>2026-04-12T13:55:33.943Z</time></trkpt><trkpt lat="40.60596" lon="15.452135"><ele>201.16666666666666</ele><time>2026-04-12T13:55:35.942Z</time></trkpt><trkpt lat="40.6059633" lon="15.452035"><ele>201.33333333333331</ele><time>2026-04-12T13:55:37.942Z</time></trkpt><trkpt lat="40.6059883" lon="15.4519483"><ele>201.5</ele><time>2026-04-12T13:55:39.942Z</time></trkpt><trkpt lat="40.606015" lon="15.451855"><ele>201.66666666666666</ele><time>2026-04-12T13:55:41.942Z</time></trkpt><trkpt lat="40.6060483" lon="15.45178"><ele>201.83333333333331</ele><time>2026-04-12T13:55:43.942Z</time></trkpt><trkpt lat="40.60614" lon="15.4517317"><ele>202.0</ele><time>2026-04-12T13:55:46.942Z</time></trkpt><trkpt lat="40.6061967" lon="15.4516867"><ele>201.99999999999997</ele><time>2026-04-12T13:55:48.942Z</time></trkpt><trkpt lat="40.6062383" lon="15.4515883"><ele>202.0</ele><time>2026-04-12T13:55:50.942Z</time></trkpt><trkpt lat="40.6063017" lon="15.451475"><ele>202.0</ele><time>2026-04-12T13:55:52.942Z</time></trkpt><trkpt lat="40.6063583" lon="15.4513717"><ele>202.0</ele><time>2026-04-12T13:55:54.942Z</time></trkpt><trkpt lat="40.60641" lon="15.4512883"><ele>201.99999999999997</ele><time>2026-04-12T13:55:56.942Z</time></trkpt><trkpt lat="40.6064517" lon="15.4512233"><ele>202.0</ele><time>2026-04-12T13:55:58.942Z</time></trkpt><trkpt lat="40.6064967" lon="15.451145"><ele>202.33333333333331</ele><time>2026-04-12T13:56:00.942Z</time></trkpt><trkpt lat="40.6065583" lon="15.45107"><ele>202.66666666666666</ele><time>2026-04-12T13:56:02.942Z</time></trkpt><trkpt lat="40.6066367" lon="15.45098"><ele>203.0</ele><time>2026-04-12T13:56:04.943Z</time></trkpt><trkpt lat="40.606705" lon="15.4509217"><ele>203.33333333333331</ele><time>2026-04-12T13:56:06.942Z</time></trkpt><trkpt lat="40.6067583" lon="15.45086"><ele>203.66666666666666</ele><time>2026-04-12T13:56:08.942Z</time></trkpt><trkpt lat="40.6068133" lon="15.450785"><ele>204.0</ele><time>2026-04-12T13:56:10.942Z</time></trkpt><trkpt lat="40.6068733" lon="15.450715"><ele>204.0</ele><time>2026-04-12T13:56:12.942Z</time></trkpt><trkpt lat="40.6069417" lon="15.4506733"><ele>204.0</ele><time>2026-04-12T13:56:14.942Z</time></trkpt><trkpt lat="40.6069967" lon="15.4506067"><ele>204.0</ele><time>2026-04-12T13:56:16.942Z</time></trkpt><trkpt lat="40.6070733" lon="15.4505517"><ele>204.0</ele><time>2026-04-12T13:56:19.942Z</time></trkpt><trkpt lat="40.6071383" lon="15.45053"><ele>204.0</ele><time>2026-04-12T13:56:21.942Z</time></trkpt><trkpt lat="40.6071917" lon="15.45048"><ele>204.0</ele><time>2026-04-12T13:56:23.942Z</time></trkpt><trkpt lat="40.607225" lon="15.4503617"><ele>203.33333333333334</ele><time>2026-04-12T13:56:26.942Z</time></trkpt><trkpt lat="40.6072167" lon="15.450275"><ele>202.66666666666669</ele><time>2026-04-12T13:56:41.942Z</time></trkpt><trkpt lat="40.6072133" lon="15.45019"><ele>202.0</ele><time>2026-04-12T13:56:43.942Z</time></trkpt><trkpt lat="40.6072733" lon="15.450105"><ele>201.33333333333334</ele><time>2026-04-12T14:02:26.941Z</time></trkpt><trkpt lat="40.60718" lon="15.4500417"><ele>200.66666666666669</ele><time>2026-04-12T14:33:02.936Z</time></trkpt><trkpt lat="40.6071167" lon="15.449975"><ele>200.0</ele><time>2026-04-12T14:33:05.936Z</time></trkpt><trkpt lat="40.6070483" lon="15.449955"><ele>200.00000000000003</ele><time>2026-04-12T14:33:24.936Z</time></trkpt><trkpt lat="40.6069667" lon="15.44993"><ele>200.0</ele><time>2026-04-12T14:33:26.936Z</time></trkpt><trkpt lat="40.60691" lon="15.4498733"><ele>200.0</ele><time>2026-04-12T14:33:28.936Z</time></trkpt><trkpt lat="40.6069067" lon="15.449775"><ele>200.0</ele><time>2026-04-12T14:33:30.936Z</time></trkpt><trkpt lat="40.60691" lon="15.44964"><ele>200.00000000000003</ele><time>2026-04-12T14:33:32.936Z</time></trkpt><trkpt lat="40.6068983" lon="15.4495017"><ele>200.0</ele><time>2026-04-12T14:33:34.936Z</time></trkpt><trkpt lat="40.6068717" lon="15.4494067"><ele>200.00000000000003</ele><time>2026-04-12T14:33:36.936Z</time></trkpt><trkpt lat="40.6068367" lon="15.449335"><ele>200.0</ele><time>2026-04-12T14:33:38.937Z</time></trkpt><trkpt lat="40.6067933" lon="15.4492567"><ele>200.0</ele><time>2026-04-12T14:33:40.936Z</time></trkpt><trkpt lat="40.6067783" lon="15.4491667"><ele>200.0</ele><time>2026-04-12T14:33:42.936Z</time></trkpt><trkpt lat="40.6067767" lon="15.4490767"><ele>200.0</ele><time>2026-04-12T14:33:44.937Z</time></trkpt><trkpt lat="40.60677" lon="15.4489833"><ele>200.00000000000003</ele><time>2026-04-12T14:33:46.936Z</time></trkpt><trkpt lat="40.6067333" lon="15.4489033"><ele>200.0</ele><time>2026-04-12T14:33:48.936Z</time></trkpt><trkpt lat="40.6066917" lon="15.4488283"><ele>199.83333333333334</ele><time>2026-04-12T14:33:50.936Z</time></trkpt><trkpt lat="40.6067" lon="15.4487267"><ele>199.66666666666669</ele><time>2026-04-12T14:33:53.936Z</time></trkpt><trkpt lat="40.6067533" lon="15.448675"><ele>199.5</ele><time>2026-04-12T14:33:55.937Z</time></trkpt><trkpt lat="40.6067967" lon="15.4485983"><ele>199.33333333333331</ele><time>2026-04-12T14:33:57.936Z</time></trkpt><trkpt lat="40.6068017" lon="15.4485067"><ele>199.16666666666666</ele><time>2026-04-12T14:33:59.936Z</time></trkpt><trkpt lat="40.6067717" lon="15.4483867"><ele>199.0</ele><time>2026-04-12T14:34:01.936Z</time></trkpt><trkpt lat="40.6067417" lon="15.448275"><ele>199.0</ele><time>2026-04-12T14:34:03.936Z</time></trkpt><trkpt lat="40.60674" lon="15.44818"><ele>199.0</ele><time>2026-04-12T14:34:05.936Z</time></trkpt><trkpt lat="40.6067733" lon="15.4480733"><ele>199.0</ele><time>2026-04-12T14:34:07.936Z</time></trkpt><trkpt lat="40.6068367" lon="15.4479583"><ele>199.0</ele><time>2026-04-12T14:34:09.936Z</time></trkpt><trkpt lat="40.606905" lon="15.4478433"><ele>199.0</ele><time>2026-04-12T14:34:11.937Z</time></trkpt><trkpt lat="40.606985" lon="15.447735"><ele>199.16666666666666</ele><time>2026-04-12T14:34:13.936Z</time></trkpt><trkpt lat="40.6070583" lon="15.4476267"><ele>199.33333333333331</ele><time>2026-04-12T14:34:15.936Z</time></trkpt><trkpt lat="40.6071033" lon="15.44754"><ele>199.5</ele><time>2026-04-12T14:34:17.936Z</time></trkpt><trkpt lat="40.6071317" lon="15.4474617"><ele>199.66666666666669</ele><time>2026-04-12T14:34:19.936Z</time></trkpt><trkpt lat="40.6071417" lon="15.4473733"><ele>199.83333333333334</ele><time>2026-04-12T14:34:21.936Z</time></trkpt><trkpt lat="40.6071083" lon="15.447265"><ele>200.0</ele><time>2026-04-12T14:34:24.936Z</time></trkpt><trkpt lat="40.6070833" lon="15.447185"><ele>199.66666666666669</ele><time>2026-04-12T14:34:26.936Z</time></trkpt><trkpt lat="40.6070833" lon="15.4470967"><ele>199.33333333333334</ele><time>2026-04-12T14:34:28.936Z</time></trkpt><trkpt lat="40.6070717" lon="15.4470017"><ele>199.0</ele><time>2026-04-12T14:34:30.936Z</time></trkpt><trkpt lat="40.6070467" lon="15.446905"><ele>198.66666666666669</ele><time>2026-04-12T14:34:32.936Z</time></trkpt><trkpt lat="40.6070267" lon="15.4467933"><ele>198.33333333333334</ele><time>2026-04-12T14:34:34.936Z</time></trkpt><trkpt lat="40.6070017" lon="15.4466733"><ele>198.0</ele><time>2026-04-12T14:34:36.937Z</time></trkpt><trkpt lat="40.607" lon="15.44657"><ele>198.0</ele><time>2026-04-12T14:34:38.936Z</time></trkpt><trkpt lat="40.60703" lon="15.4464917"><ele>198.0</ele><time>2026-04-12T14:34:40.936Z</time></trkpt><trkpt lat="40.6071017" lon="15.4464167"><ele>198.0</ele><time>2026-04-12T14:34:43.936Z</time></trkpt><trkpt lat="40.607165" lon="15.4463367"><ele>198.0</ele><time>2026-04-12T14:34:46.936Z</time></trkpt><trkpt lat="40.60722" lon="15.44627"><ele>198.0</ele><time>2026-04-12T14:34:49.936Z</time></trkpt><trkpt lat="40.6072783" lon="15.4462"><ele>198.0</ele><time>2026-04-12T14:34:52.936Z</time></trkpt><trkpt lat="40.6073283" lon="15.446145"><ele>198.33333333333334</ele><time>2026-04-12T14:34:55.936Z</time></trkpt><trkpt lat="40.6074083" lon="15.44608"><ele>198.66666666666669</ele><time>2026-04-12T14:35:12.936Z</time></trkpt><trkpt lat="40.60747" lon="15.4459983"><ele>199.0</ele><time>2026-04-12T14:35:15.936Z</time></trkpt><trkpt lat="40.6075033" lon="15.44591"><ele>199.33333333333334</ele><time>2026-04-12T14:35:18.936Z</time></trkpt><trkpt lat="40.6075267" lon="15.44582"><ele>199.66666666666669</ele><time>2026-04-12T14:35:21.936Z</time></trkpt><trkpt lat="40.60753" lon="15.4457167"><ele>200.0</ele><time>2026-04-12T14:35:24.936Z</time></trkpt><trkpt lat="40.60743" lon="15.4456533"><ele>200.00000000000003</ele><time>2026-04-12T14:35:42.936Z</time></trkpt><trkpt lat="40.6073083" lon="15.445635"><ele>200.0</ele><time>2026-04-12T14:35:44.936Z</time></trkpt><trkpt lat="40.6072417" lon="15.4456383"><ele>200.0</ele><time>2026-04-12T14:35:45.936Z</time></trkpt><trkpt lat="40.6071717" lon="15.4456333"><ele>200.0</ele><time>2026-04-12T14:35:46.936Z</time></trkpt><trkpt lat="40.6071033" lon="15.4456233"><ele>200.00000000000003</ele><time>2026-04-12T14:35:47.936Z</time></trkpt><trkpt lat="40.6070317" lon="15.4456117"><ele>200.0</ele><time>2026-04-12T14:35:48.936Z</time></trkpt><trkpt lat="40.606925" lon="15.4455833"><ele>200.33333333333334</ele><time>2026-04-12T14:35:50.937Z</time></trkpt><trkpt lat="40.6068467" lon="15.4455733"><ele>200.66666666666669</ele><time>2026-04-12T14:35:52.936Z</time></trkpt><trkpt lat="40.606755" lon="15.44559"><ele>201.0</ele><time>2026-04-12T14:35:54.936Z</time></trkpt><trkpt lat="40.6066717" lon="15.4456017"><ele>201.33333333333331</ele><time>2026-04-12T14:35:56.936Z</time></trkpt><trkpt lat="40.6065917" lon="15.4456183"><ele>201.66666666666666</ele><time>2026-04-12T14:35:58.936Z</time></trkpt><trkpt lat="40.6065033" lon="15.4456267"><ele>202.0</ele><time>2026-04-12T14:36:01.936Z</time></trkpt><trkpt lat="40.606455" lon="15.4455533"><ele>202.6</ele><time>2026-04-12T14:37:06.936Z</time></trkpt><trkpt lat="40.6064867" lon="15.4454467"><ele>203.2</ele><time>2026-04-12T14:37:08.936Z</time></trkpt><trkpt lat="40.6065383" lon="15.445305"><ele>203.8</ele><time>2026-04-12T14:37:10.936Z</time></trkpt><trkpt lat="40.60655" lon="15.445175"><ele>204.4</ele><time>2026-04-12T14:37:12.936Z</time></trkpt><trkpt lat="40.6065017" lon="15.4450833"><ele>205.0</ele><time>2026-04-12T14:37:14.936Z</time></trkpt><trkpt lat="40.6064033" lon="15.4449983"><ele>205.0</ele><time>2026-04-12T14:37:16.936Z</time></trkpt><trkpt lat="40.6063117" lon="15.4448983"><ele>205.0</ele><time>2026-04-12T14:37:18.936Z</time></trkpt><trkpt lat="40.6062233" lon="15.44479"><ele>205.0</ele><time>2026-04-12T14:37:20.936Z</time></trkpt><trkpt lat="40.6061367" lon="15.4447117"><ele>205.0</ele><time>2026-04-12T14:37:22.936Z</time></trkpt><trkpt lat="40.606055" lon="15.4446767"><ele>205.0</ele><time>2026-04-12T14:37:24.936Z</time></trkpt><trkpt lat="40.6059767" lon="15.44457"><ele>210.8</ele><time>2026-04-12T14:37:54.936Z</time></trkpt><trkpt lat="40.6059833" lon="15.4443933"><ele>216.6</ele><time>2026-04-12T14:37:56.936Z</time></trkpt><trkpt lat="40.6059933" lon="15.44428"><ele>222.39999999999998</ele><time>2026-04-12T14:37:57.936Z</time></trkpt><trkpt lat="40.6060017" lon="15.4441467"><ele>228.2</ele><time>2026-04-12T14:37:58.936Z</time></trkpt><trkpt lat="40.606015" lon="15.4440083"><ele>234.0</ele><time>2026-04-12T14:37:59.936Z</time></trkpt><trkpt lat="40.606035" lon="15.4438717"><ele>234.39999999999998</ele><time>2026-04-12T14:38:00.936Z</time></trkpt><trkpt lat="40.60605" lon="15.44373"><ele>234.79999999999998</ele><time>2026-04-12T14:38:01.936Z</time></trkpt><trkpt lat="40.606065" lon="15.4435867"><ele>235.20000000000002</ele><time>2026-04-12T14:38:02.936Z</time></trkpt><trkpt lat="40.6060783" lon="15.4434433"><ele>235.60000000000002</ele><time>2026-04-12T14:38:03.936Z</time></trkpt><trkpt lat="40.6060917" lon="15.4432983"><ele>236.0</ele><time>2026-04-12T14:38:04.936Z</time></trkpt><trkpt lat="40.6061" lon="15.4431467"><ele>236.0</ele><time>2026-04-12T14:38:05.935Z</time></trkpt><trkpt lat="40.606115" lon="15.442995"><ele>236.00000000000003</ele><time>2026-04-12T14:38:06.935Z</time></trkpt><trkpt lat="40.6061317" lon="15.442845"><ele>236.00000000000003</ele><time>2026-04-12T14:38:07.935Z</time></trkpt><trkpt lat="40.606145" lon="15.4427"><ele>236.0</ele><time>2026-04-12T14:38:08.935Z</time></trkpt><trkpt lat="40.6061567" lon="15.4425633"><ele>236.0</ele><time>2026-04-12T14:38:09.935Z</time></trkpt><trkpt lat="40.6061733" lon="15.4424367"><ele>231.66666666666669</ele><time>2026-04-12T14:38:10.936Z</time></trkpt><trkpt lat="40.6061817" lon="15.442325"><ele>227.33333333333334</ele><time>2026-04-12T14:38:11.935Z</time></trkpt><trkpt lat="40.6061817" lon="15.44222"><ele>223.0</ele><time>2026-04-12T14:38:12.935Z</time></trkpt><trkpt lat="40.6061883" lon="15.44211"><ele>218.66666666666669</ele><time>2026-04-12T14:38:13.935Z</time></trkpt><trkpt lat="40.6061883" lon="15.44199"><ele>214.33333333333334</ele><time>2026-04-12T14:38:14.936Z</time></trkpt><trkpt lat="40.6061817" lon="15.4418633"><ele>210.0</ele><time>2026-04-12T14:38:15.935Z</time></trkpt><trkpt lat="40.60617" lon="15.44173"><ele>219.25</ele><time>2026-04-12T14:38:16.936Z</time></trkpt><trkpt lat="40.6061517" lon="15.4415767"><ele>228.5</ele><time>2026-04-12T14:38:17.935Z</time></trkpt><trkpt lat="40.6061317" lon="15.441425"><ele>237.75</ele><time>2026-04-12T14:38:18.935Z</time></trkpt><trkpt lat="40.6061067" lon="15.441265"><ele>247.0</ele><time>2026-04-12T14:38:19.935Z</time></trkpt><trkpt lat="40.606075" lon="15.4411067"><ele>247.0</ele><time>2026-04-12T14:38:20.936Z</time></trkpt><trkpt lat="40.6060433" lon="15.4409433"><ele>247.0</ele><time>2026-04-12T14:38:21.935Z</time></trkpt><trkpt lat="40.606005" lon="15.440785"><ele>247.0</ele><time>2026-04-12T14:38:22.936Z</time></trkpt><trkpt lat="40.6059717" lon="15.440625"><ele>247.0</ele><time>2026-04-12T14:38:23.935Z</time></trkpt><trkpt lat="40.6059417" lon="15.440455"><ele>247.5</ele><time>2026-04-12T14:38:24.935Z</time></trkpt><trkpt lat="40.605915" lon="15.4402933"><ele>248.0</ele><time>2026-04-12T14:38:25.935Z</time></trkpt><trkpt lat="40.605875" lon="15.4401267"><ele>248.5</ele><time>2026-04-12T14:38:26.935Z</time></trkpt><trkpt lat="40.6058417" lon="15.4399633"><ele>249.0</ele><time>2026-04-12T14:38:27.935Z</time></trkpt><trkpt lat="40.6058083" lon="15.4397933"><ele>248.25</ele><time>2026-04-12T14:38:28.935Z</time></trkpt><trkpt lat="40.6057867" lon="15.4396183"><ele>247.5</ele><time>2026-04-12T14:38:29.935Z</time></trkpt><trkpt lat="40.6057683" lon="15.439445"><ele>246.75</ele><time>2026-04-12T14:38:30.935Z</time></trkpt><trkpt lat="40.6057667" lon="15.4392683"><ele>246.0</ele><time>2026-04-12T14:38:31.936Z</time></trkpt><trkpt lat="40.6057667" lon="15.43909"><ele>246.0</ele><time>2026-04-12T14:38:32.935Z</time></trkpt><trkpt lat="40.605765" lon="15.43892"><ele>246.0</ele><time>2026-04-12T14:38:33.936Z</time></trkpt><trkpt lat="40.6057617" lon="15.4387533"><ele>246.0</ele><time>2026-04-12T14:38:34.935Z</time></trkpt><trkpt lat="40.60576" lon="15.4386"><ele>246.0</ele><time>2026-04-12T14:38:35.935Z</time></trkpt><trkpt lat="40.605765" lon="15.4384617"><ele>249.0</ele><time>2026-04-12T14:38:36.935Z</time></trkpt><trkpt lat="40.60577" lon="15.438315"><ele>252.0</ele><time>2026-04-12T14:38:37.936Z</time></trkpt><trkpt lat="40.605775" lon="15.438165"><ele>255.0</ele><time>2026-04-12T14:38:38.935Z</time></trkpt><trkpt lat="40.60578" lon="15.438015"><ele>258.0</ele><time>2026-04-12T14:38:39.935Z</time></trkpt><trkpt lat="40.6057817" lon="15.4378667"><ele>257.0</ele><time>2026-04-12T14:38:40.935Z</time></trkpt><trkpt lat="40.60582" lon="15.43657"><ele>257.0</ele><time>2026-04-12T14:38:47.979Z</time></trkpt><trkpt lat="40.60583" lon="15.43636"><ele>257.0</ele><time>2026-04-12T14:38:48.979Z</time></trkpt><trkpt lat="40.605835" lon="15.4361617"><ele>257.0</ele><time>2026-04-12T14:38:49.979Z</time></trkpt><trkpt lat="40.6058417" lon="15.435965"><ele>254.5</ele><time>2026-04-12T14:38:50.979Z</time></trkpt><trkpt lat="40.6058467" lon="15.435785"><ele>252.0</ele><time>2026-04-12T14:38:51.979Z</time></trkpt><trkpt lat="40.6058567" lon="15.4356"><ele>249.5</ele><time>2026-04-12T14:38:52.979Z</time></trkpt><trkpt lat="40.605865" lon="15.4354217"><ele>247.0</ele><time>2026-04-12T14:38:53.979Z</time></trkpt><trkpt lat="40.6058683" lon="15.4352483"><ele>246.75</ele><time>2026-04-12T14:38:54.979Z</time></trkpt><trkpt lat="40.6058667" lon="15.4350733"><ele>246.5</ele><time>2026-04-12T14:38:55.98Z</time></trkpt><trkpt lat="40.6058667" lon="15.4349033"><ele>246.25</ele><time>2026-04-12T14:38:56.979Z</time></trkpt><trkpt lat="40.6058733" lon="15.4347283"><ele>246.0</ele><time>2026-04-12T14:38:57.979Z</time></trkpt><trkpt lat="40.605885" lon="15.4345517"><ele>247.75</ele><time>2026-04-12T14:38:58.979Z</time></trkpt><trkpt lat="40.6058983" lon="15.4343783"><ele>249.5</ele><time>2026-04-12T14:38:59.979Z</time></trkpt><trkpt lat="40.6059133" lon="15.4342083"><ele>251.25</ele><time>2026-04-12T14:39:00.98Z</time></trkpt><trkpt lat="40.605935" lon="15.434035"><ele>253.0</ele><time>2026-04-12T14:39:01.979Z</time></trkpt><trkpt lat="40.60595" lon="15.4338533"><ele>253.5</ele><time>2026-04-12T14:39:02.979Z</time></trkpt><trkpt lat="40.6059767" lon="15.4336683"><ele>254.0</ele><time>2026-04-12T14:39:03.979Z</time></trkpt><trkpt lat="40.6060117" lon="15.4334917"><ele>254.5</ele><time>2026-04-12T14:39:04.98Z</time></trkpt><trkpt lat="40.60604" lon="15.4333067"><ele>255.0</ele><time>2026-04-12T14:39:05.979Z</time></trkpt><trkpt lat="40.6060733" lon="15.433125"><ele>255.25</ele><time>2026-04-12T14:39:06.979Z</time></trkpt><trkpt lat="40.606095" lon="15.4329417"><ele>255.5</ele><time>2026-04-12T14:39:07.979Z</time></trkpt><trkpt lat="40.6061283" lon="15.432765"><ele>255.75</ele><time>2026-04-12T14:39:08.98Z</time></trkpt><trkpt lat="40.6061633" lon="15.43259"><ele>256.0</ele><time>2026-04-12T14:39:09.979Z</time></trkpt><trkpt lat="40.6061967" lon="15.4324133"><ele>251.0</ele><time>2026-04-12T14:39:10.979Z</time></trkpt><trkpt lat="40.6062283" lon="15.432235"><ele>246.0</ele><time>2026-04-12T14:39:11.979Z</time></trkpt><trkpt lat="40.60626" lon="15.4320467"><ele>241.0</ele><time>2026-04-12T14:39:12.979Z</time></trkpt><trkpt lat="40.60628" lon="15.431865"><ele>236.0</ele><time>2026-04-12T14:39:13.979Z</time></trkpt><trkpt lat="40.606295" lon="15.431685"><ele>236.0</ele><time>2026-04-12T14:39:14.979Z</time></trkpt><trkpt lat="40.6063067" lon="15.4314983"><ele>236.0</ele><time>2026-04-12T14:39:15.979Z</time></trkpt><trkpt lat="40.6063083" lon="15.43131"><ele>236.0</ele><time>2026-04-12T14:39:16.979Z</time></trkpt><trkpt lat="40.6063017" lon="15.43112"><ele>236.0</ele><time>2026-04-12T14:39:17.979Z</time></trkpt><trkpt lat="40.6062967" lon="15.430935"><ele>236.0</ele><time>2026-04-12T14:39:18.979Z</time></trkpt><trkpt lat="40.6062917" lon="15.430745"><ele>236.0</ele><time>2026-04-12T14:39:19.979Z</time></trkpt><trkpt lat="40.6062783" lon="15.4305567"><ele>236.0</ele><time>2026-04-12T14:39:20.979Z</time></trkpt><trkpt lat="40.6062617" lon="15.430365"><ele>236.0</ele><time>2026-04-12T14:39:21.979Z</time></trkpt><trkpt lat="40.606235" lon="15.43017"><ele>236.0</ele><time>2026-04-12T14:39:22.979Z</time></trkpt><trkpt lat="40.6062017" lon="15.429975"><ele>236.0</ele><time>2026-04-12T14:39:23.979Z</time></trkpt><trkpt lat="40.6061667" lon="15.4297817"><ele>236.0</ele><time>2026-04-12T14:39:24.979Z</time></trkpt><trkpt lat="40.6061183" lon="15.4295983"><ele>243.25</ele><time>2026-04-12T14:39:25.979Z</time></trkpt><trkpt lat="40.6060633" lon="15.4294133"><ele>250.5</ele><time>2026-04-12T14:39:26.979Z</time></trkpt><trkpt lat="40.605995" lon="15.42924"><ele>257.75</ele><time>2026-04-12T14:39:27.98Z</time></trkpt><trkpt lat="40.605925" lon="15.429065"><ele>265.0</ele><time>2026-04-12T14:39:28.979Z</time></trkpt><trkpt lat="40.6058483" lon="15.4288917"><ele>263.5</ele><time>2026-04-12T14:39:29.98Z</time></trkpt><trkpt lat="40.605775" lon="15.4287233"><ele>262.0</ele><time>2026-04-12T14:39:30.979Z</time></trkpt><trkpt lat="40.6057083" lon="15.42855"><ele>260.5</ele><time>2026-04-12T14:39:31.979Z</time></trkpt><trkpt lat="40.60566" lon="15.4283733"><ele>259.0</ele><time>2026-04-12T14:39:32.979Z</time></trkpt><trkpt lat="40.6056217" lon="15.4282"><ele>259.0</ele><time>2026-04-12T14:39:33.979Z</time></trkpt><trkpt lat="40.605595" lon="15.4280267"><ele>259.0</ele><time>2026-04-12T14:39:34.979Z</time></trkpt><trkpt lat="40.6055883" lon="15.4278533"><ele>259.0</ele><time>2026-04-12T14:39:35.979Z</time></trkpt><trkpt lat="40.6055817" lon="15.427675"><ele>259.0</ele><time>2026-04-12T14:39:36.979Z</time></trkpt><trkpt lat="40.6055833" lon="15.4274933"><ele>258.0</ele><time>2026-04-12T14:39:37.979Z</time></trkpt><trkpt lat="40.6055917" lon="15.4273017"><ele>257.0</ele><time>2026-04-12T14:39:38.979Z</time></trkpt><trkpt lat="40.6056" lon="15.4270933"><ele>256.0</ele><time>2026-04-12T14:39:39.979Z</time></trkpt><trkpt lat="40.60561" lon="15.4268717"><ele>255.66666666666666</ele><time>2026-04-12T14:39:40.979Z</time></trkpt><trkpt lat="40.6056217" lon="15.426645"><ele>255.33333333333331</ele><time>2026-04-12T14:39:41.98Z</time></trkpt><trkpt lat="40.605645" lon="15.4264183"><ele>255.0</ele><time>2026-04-12T14:39:42.979Z</time></trkpt><trkpt lat="40.6056767" lon="15.4261883"><ele>255.0</ele><time>2026-04-12T14:39:43.979Z</time></trkpt><trkpt lat="40.605715" lon="15.4259633"><ele>255.0</ele><time>2026-04-12T14:39:44.979Z</time></trkpt><trkpt lat="40.6057683" lon="15.425735"><ele>255.0</ele><time>2026-04-12T14:39:45.979Z</time></trkpt><trkpt lat="40.6058217" lon="15.4255"><ele>257.6666666666667</ele><time>2026-04-12T14:39:46.979Z</time></trkpt><trkpt lat="40.6058717" lon="15.4252633"><ele>260.33333333333337</ele><time>2026-04-12T14:39:47.979Z</time></trkpt><trkpt lat="40.6059267" lon="15.4250367"><ele>263.0</ele><time>2026-04-12T14:39:48.979Z</time></trkpt><trkpt lat="40.605975" lon="15.4248067"><ele>262.33333333333337</ele><time>2026-04-12T14:39:49.979Z</time></trkpt><trkpt lat="40.6060283" lon="15.424585"><ele>261.6666666666667</ele><time>2026-04-12T14:39:50.979Z</time></trkpt><trkpt lat="40.6060883" lon="15.4243667"><ele>261.0</ele><time>2026-04-12T14:39:51.979Z</time></trkpt><trkpt lat="40.6061433" lon="15.424155"><ele>255.0</ele><time>2026-04-12T14:39:52.979Z</time></trkpt><trkpt lat="40.6061933" lon="15.4239483"><ele>249.0</ele><time>2026-04-12T14:39:53.979Z</time></trkpt><trkpt lat="40.6062467" lon="15.4237367"><ele>243.0</ele><time>2026-04-12T14:39:54.979Z</time></trkpt><trkpt lat="40.6062967" lon="15.42353"><ele>243.0</ele><time>2026-04-12T14:39:55.979Z</time></trkpt><trkpt lat="40.6063367" lon="15.423325"><ele>243.0</ele><time>2026-04-12T14:39:56.979Z</time></trkpt><trkpt lat="40.60638" lon="15.42312"><ele>243.0</ele><time>2026-04-12T14:39:57.979Z</time></trkpt><trkpt lat="40.6064217" lon="15.422915"><ele>245.0</ele><time>2026-04-12T14:39:58.979Z</time></trkpt><trkpt lat="40.606455" lon="15.4227067"><ele>247.0</ele><time>2026-04-12T14:39:59.979Z</time></trkpt><trkpt lat="40.60649" lon="15.4224967"><ele>249.0</ele><time>2026-04-12T14:40:00.98Z</time></trkpt><trkpt lat="40.6065317" lon="15.4222867"><ele>252.0</ele><time>2026-04-12T14:40:01.979Z</time></trkpt><trkpt lat="40.6065717" lon="15.4220783"><ele>255.0</ele><time>2026-04-12T14:40:02.979Z</time></trkpt><trkpt lat="40.6066217" lon="15.4218683"><ele>258.0</ele><time>2026-04-12T14:40:03.979Z</time></trkpt><trkpt lat="40.6066667" lon="15.4216617"><ele>258.0</ele><time>2026-04-12T14:40:04.979Z</time></trkpt><trkpt lat="40.6067167" lon="15.4214567"><ele>258.0</ele><time>2026-04-12T14:40:05.979Z</time></trkpt><trkpt lat="40.6067717" lon="15.4212517"><ele>258.0</ele><time>2026-04-12T14:40:06.979Z</time></trkpt><trkpt lat="40.6068333" lon="15.42105"><ele>260.0</ele><time>2026-04-12T14:40:07.979Z</time></trkpt><trkpt lat="40.6068983" lon="15.4208483"><ele>262.0</ele><time>2026-04-12T14:40:08.979Z</time></trkpt><trkpt lat="40.6069667" lon="15.4206667"><ele>264.0</ele><time>2026-04-12T14:40:09.98Z</time></trkpt><trkpt lat="40.6070483" lon="15.420495"><ele>261.75</ele><time>2026-04-12T14:40:10.979Z</time></trkpt><trkpt lat="40.6071367" lon="15.4203283"><ele>259.5</ele><time>2026-04-12T14:40:11.979Z</time></trkpt><trkpt lat="40.607225" lon="15.4201817"><ele>257.25</ele><time>2026-04-12T14:40:12.979Z</time></trkpt><trkpt lat="40.6073117" lon="15.420035"><ele>255.0</ele><time>2026-04-12T14:40:13.979Z</time></trkpt><trkpt lat="40.60741" lon="15.419905"><ele>255.0</ele><time>2026-04-12T14:40:14.979Z</time></trkpt><trkpt lat="40.6075167" lon="15.4197733"><ele>255.0</ele><time>2026-04-12T14:40:15.979Z</time></trkpt><trkpt lat="40.6076283" lon="15.41964"><ele>255.0</ele><time>2026-04-12T14:40:16.979Z</time></trkpt><trkpt lat="40.60774" lon="15.4195133"><ele>255.0</ele><time>2026-04-12T14:40:17.979Z</time></trkpt><trkpt lat="40.6078567" lon="15.4193917"><ele>255.5</ele><time>2026-04-12T14:40:18.979Z</time></trkpt><trkpt lat="40.6079683" lon="15.4192717"><ele>256.0</ele><time>2026-04-12T14:40:19.979Z</time></trkpt><trkpt lat="40.6080783" lon="15.419155"><ele>256.5</ele><time>2026-04-12T14:40:20.979Z</time></trkpt><trkpt lat="40.6081917" lon="15.41905"><ele>257.0</ele><time>2026-04-12T14:40:21.98Z</time></trkpt><trkpt lat="40.6082933" lon="15.4189367"><ele>257.0</ele><time>2026-04-12T14:40:22.979Z</time></trkpt><trkpt lat="40.6083967" lon="15.4188317"><ele>257.0</ele><time>2026-04-12T14:40:23.979Z</time></trkpt><trkpt lat="40.6085017" lon="15.418725"><ele>257.0</ele><time>2026-04-12T14:40:24.979Z</time></trkpt><trkpt lat="40.60861" lon="15.4186183"><ele>257.0</ele><time>2026-04-12T14:40:25.979Z</time></trkpt><trkpt lat="40.6087183" lon="15.41851"><ele>257.75</ele><time>2026-04-12T14:40:26.979Z</time></trkpt><trkpt lat="40.608825" lon="15.4184067"><ele>258.5</ele><time>2026-04-12T14:40:27.979Z</time></trkpt><trkpt lat="40.6089317" lon="15.4183017"><ele>259.25</ele><time>2026-04-12T14:40:28.979Z</time></trkpt><trkpt lat="40.609025" lon="15.4182033"><ele>260.0</ele><time>2026-04-12T14:40:29.979Z</time></trkpt><trkpt lat="40.6091067" lon="15.4181167"><ele>260.0</ele><time>2026-04-12T14:40:30.98Z</time></trkpt><trkpt lat="40.609175" lon="15.418045"><ele>260.0</ele><time>2026-04-12T14:40:31.979Z</time></trkpt><trkpt lat="40.609225" lon="15.41798"><ele>260.0</ele><time>2026-04-12T14:40:32.979Z</time></trkpt><trkpt lat="40.6092983" lon="15.4178783"><ele>260.0</ele><time>2026-04-12T14:40:34.979Z</time></trkpt><trkpt lat="40.6093817" lon="15.4177733"><ele>260.0</ele><time>2026-04-12T14:40:36.979Z</time></trkpt><trkpt lat="40.609435" lon="15.4176983"><ele>259.8</ele><time>2026-04-12T14:40:37.979Z</time></trkpt><trkpt lat="40.6094917" lon="15.4176133"><ele>259.6</ele><time>2026-04-12T14:40:38.979Z</time></trkpt><trkpt lat="40.6095533" lon="15.4175133"><ele>259.4</ele><time>2026-04-12T14:40:39.979Z</time></trkpt><trkpt lat="40.60962" lon="15.4174"><ele>259.2</ele><time>2026-04-12T14:40:40.979Z</time></trkpt><trkpt lat="40.6096883" lon="15.4172733"><ele>259.0</ele><time>2026-04-12T14:40:41.979Z</time></trkpt><trkpt lat="40.6097483" lon="15.4171467"><ele>259.0</ele><time>2026-04-12T14:40:42.979Z</time></trkpt><trkpt lat="40.6098" lon="15.4170267"><ele>259.0</ele><time>2026-04-12T14:40:43.98Z</time></trkpt><trkpt lat="40.609845" lon="15.4169117"><ele>259.0</ele><time>2026-04-12T14:40:44.98Z</time></trkpt><trkpt lat="40.6098917" lon="15.4167917"><ele>259.0</ele><time>2026-04-12T14:40:45.979Z</time></trkpt><trkpt lat="40.60994" lon="15.4166517"><ele>259.0</ele><time>2026-04-12T14:40:46.98Z</time></trkpt><trkpt lat="40.6099917" lon="15.41649"><ele>259.66666666666663</ele><time>2026-04-12T14:40:47.979Z</time></trkpt><trkpt lat="40.61004" lon="15.4163117"><ele>260.3333333333333</ele><time>2026-04-12T14:40:48.979Z</time></trkpt><trkpt lat="40.610085" lon="15.4161217"><ele>261.0</ele><time>2026-04-12T14:40:49.979Z</time></trkpt><trkpt lat="40.6101233" lon="15.41592"><ele>261.0</ele><time>2026-04-12T14:40:50.98Z</time></trkpt><trkpt lat="40.6101467" lon="15.4157067"><ele>261.0</ele><time>2026-04-12T14:40:51.979Z</time></trkpt><trkpt lat="40.610165" lon="15.4154783"><ele>261.0</ele><time>2026-04-12T14:40:52.98Z</time></trkpt><trkpt lat="40.6101717" lon="15.4152333"><ele>262.0</ele><time>2026-04-12T14:40:53.979Z</time></trkpt><trkpt lat="40.6101917" lon="15.41497"><ele>263.0</ele><time>2026-04-12T14:40:54.979Z</time></trkpt><trkpt lat="40.61022" lon="15.4147033"><ele>264.0</ele><time>2026-04-12T14:40:55.979Z</time></trkpt><trkpt lat="40.6102433" lon="15.4144417"><ele>264.6666666666667</ele><time>2026-04-12T14:40:56.979Z</time></trkpt><trkpt lat="40.6102733" lon="15.4141767"><ele>265.33333333333337</ele><time>2026-04-12T14:40:57.979Z</time></trkpt><trkpt lat="40.6102983" lon="15.4139183"><ele>266.0</ele><time>2026-04-12T14:40:58.979Z</time></trkpt><trkpt lat="40.6103267" lon="15.4136617"><ele>262.0</ele><time>2026-04-12T14:40:59.979Z</time></trkpt><trkpt lat="40.6103483" lon="15.4134033"><ele>258.0</ele><time>2026-04-12T14:41:00.98Z</time></trkpt><trkpt lat="40.61037" lon="15.4131483"><ele>254.0</ele><time>2026-04-12T14:41:01.979Z</time></trkpt><trkpt lat="40.6103883" lon="15.4128983"><ele>254.0</ele><time>2026-04-12T14:41:02.979Z</time></trkpt><trkpt lat="40.6104067" lon="15.4126533"><ele>254.0</ele><time>2026-04-12T14:41:03.98Z</time></trkpt><trkpt lat="40.61043" lon="15.412405"><ele>254.0</ele><time>2026-04-12T14:41:04.979Z</time></trkpt><trkpt lat="40.610445" lon="15.4121617"><ele>256.0</ele><time>2026-04-12T14:41:05.979Z</time></trkpt><trkpt lat="40.61046" lon="15.411915"><ele>258.0</ele><time>2026-04-12T14:41:06.979Z</time></trkpt><trkpt lat="40.6104767" lon="15.4116633"><ele>260.0</ele><time>2026-04-12T14:41:07.979Z</time></trkpt><trkpt lat="40.6104967" lon="15.4114283"><ele>261.0</ele><time>2026-04-12T14:41:08.979Z</time></trkpt><trkpt lat="40.61053" lon="15.4111883"><ele>262.0</ele><time>2026-04-12T14:41:09.979Z</time></trkpt><trkpt lat="40.6105633" lon="15.410945"><ele>263.0</ele><time>2026-04-12T14:41:10.979Z</time></trkpt><trkpt lat="40.6105833" lon="15.410695"><ele>262.6666666666667</ele><time>2026-04-12T14:41:11.979Z</time></trkpt><trkpt lat="40.61061" lon="15.4104417"><ele>262.3333333333333</ele><time>2026-04-12T14:41:12.979Z</time></trkpt><trkpt lat="40.6106233" lon="15.4101883"><ele>262.0</ele><time>2026-04-12T14:41:13.979Z</time></trkpt><trkpt lat="40.6106433" lon="15.40994"><ele>262.0</ele><time>2026-04-12T14:41:14.979Z</time></trkpt><trkpt lat="40.6106717" lon="15.4096983"><ele>262.0</ele><time>2026-04-12T14:41:15.979Z</time></trkpt><trkpt lat="40.6107017" lon="15.40945"><ele>262.0</ele><time>2026-04-12T14:41:16.979Z</time></trkpt><trkpt lat="40.6107217" lon="15.4092"><ele>262.0</ele><time>2026-04-12T14:41:17.979Z</time></trkpt><trkpt lat="40.6107383" lon="15.4089533"><ele>262.0</ele><time>2026-04-12T14:41:18.979Z</time></trkpt><trkpt lat="40.6107583" lon="15.4087083"><ele>262.0</ele><time>2026-04-12T14:41:19.979Z</time></trkpt><trkpt lat="40.6107783" lon="15.408465"><ele>263.66666666666663</ele><time>2026-04-12T14:41:20.979Z</time></trkpt><trkpt lat="40.6108" lon="15.4082183"><ele>265.3333333333333</ele><time>2026-04-12T14:41:21.979Z</time></trkpt><trkpt lat="40.610825" lon="15.4079717"><ele>267.0</ele><time>2026-04-12T14:41:22.979Z</time></trkpt><trkpt lat="40.6108517" lon="15.4077183"><ele>267.3333333333333</ele><time>2026-04-12T14:41:23.979Z</time></trkpt><trkpt lat="40.6108733" lon="15.40747"><ele>267.66666666666663</ele><time>2026-04-12T14:41:24.979Z</time></trkpt><trkpt lat="40.6108817" lon="15.407215"><ele>268.0</ele><time>2026-04-12T14:41:25.979Z</time></trkpt><trkpt lat="40.610885" lon="15.4069633"><ele>268.0</ele><time>2026-04-12T14:41:26.979Z</time></trkpt><trkpt lat="40.6108867" lon="15.4067117"><ele>268.0</ele><time>2026-04-12T14:41:27.979Z</time></trkpt><trkpt lat="40.6108867" lon="15.4064683"><ele>268.0</ele><time>2026-04-12T14:41:28.979Z</time></trkpt><trkpt lat="40.6108767" lon="15.40623"><ele>267.66666666666663</ele><time>2026-04-12T14:41:29.979Z</time></trkpt><trkpt lat="40.61086" lon="15.406005"><ele>267.3333333333333</ele><time>2026-04-12T14:41:30.979Z</time></trkpt><trkpt lat="40.61084" lon="15.405775"><ele>267.0</ele><time>2026-04-12T14:41:31.979Z</time></trkpt><trkpt lat="40.610815" lon="15.405545"><ele>266.6666666666667</ele><time>2026-04-12T14:41:32.979Z</time></trkpt><trkpt lat="40.610785" lon="15.4053067"><ele>266.33333333333337</ele><time>2026-04-12T14:41:33.979Z</time></trkpt><trkpt lat="40.6107583" lon="15.4050717"><ele>266.0</ele><time>2026-04-12T14:41:34.979Z</time></trkpt><trkpt lat="40.610735" lon="15.4048383"><ele>264.33333333333337</ele><time>2026-04-12T14:41:35.979Z</time></trkpt><trkpt lat="40.6107167" lon="15.404615"><ele>262.6666666666667</ele><time>2026-04-12T14:41:36.979Z</time></trkpt><trkpt lat="40.6106883" lon="15.4043917"><ele>261.0</ele><time>2026-04-12T14:41:37.979Z</time></trkpt><trkpt lat="40.610645" lon="15.4041683"><ele>261.0</ele><time>2026-04-12T14:41:38.98Z</time></trkpt><trkpt lat="40.610585" lon="15.403945"><ele>261.0</ele><time>2026-04-12T14:41:39.979Z</time></trkpt><trkpt lat="40.6105117" lon="15.40372"><ele>261.0</ele><time>2026-04-12T14:41:40.979Z</time></trkpt><trkpt lat="40.6104367" lon="15.4034933"><ele>261.6666666666667</ele><time>2026-04-12T14:41:41.979Z</time></trkpt><trkpt lat="40.610355" lon="15.4032633"><ele>262.33333333333337</ele><time>2026-04-12T14:41:42.98Z</time></trkpt><trkpt lat="40.6102783" lon="15.4030383"><ele>263.0</ele><time>2026-04-12T14:41:43.979Z</time></trkpt><trkpt lat="40.6101967" lon="15.4028183"><ele>263.0</ele><time>2026-04-12T14:41:44.979Z</time></trkpt><trkpt lat="40.6101133" lon="15.4026083"><ele>263.0</ele><time>2026-04-12T14:41:45.979Z</time></trkpt><trkpt lat="40.6100383" lon="15.402405"><ele>263.0</ele><time>2026-04-12T14:41:46.979Z</time></trkpt><trkpt lat="40.6099633" lon="15.4022083"><ele>259.33333333333337</ele><time>2026-04-12T14:41:47.979Z</time></trkpt><trkpt lat="40.609885" lon="15.4020083"><ele>255.66666666666669</ele><time>2026-04-12T14:41:48.979Z</time></trkpt><trkpt lat="40.6098" lon="15.4018183"><ele>252.0</ele><time>2026-04-12T14:41:49.979Z</time></trkpt><trkpt lat="40.6097217" lon="15.40163"><ele>252.0</ele><time>2026-04-12T14:41:50.979Z</time></trkpt><trkpt lat="40.60965" lon="15.4014433"><ele>252.0</ele><time>2026-04-12T14:41:51.98Z</time></trkpt><trkpt lat="40.6095733" lon="15.4012667"><ele>252.0</ele><time>2026-04-12T14:41:52.98Z</time></trkpt><trkpt lat="40.6094917" lon="15.4010967"><ele>253.33333333333331</ele><time>2026-04-12T14:41:53.98Z</time></trkpt><trkpt lat="40.60942" lon="15.40091"><ele>254.66666666666666</ele><time>2026-04-12T14:41:54.979Z</time></trkpt><trkpt lat="40.6093633" lon="15.4007067"><ele>256.0</ele><time>2026-04-12T14:41:55.979Z</time></trkpt><trkpt lat="40.609315" lon="15.4004933"><ele>253.33333333333331</ele><time>2026-04-12T14:41:56.979Z</time></trkpt><trkpt lat="40.609275" lon="15.400275"><ele>250.66666666666669</ele><time>2026-04-12T14:41:57.979Z</time></trkpt><trkpt lat="40.6092417" lon="15.40005"><ele>248.0</ele><time>2026-04-12T14:41:58.979Z</time></trkpt><trkpt lat="40.6092267" lon="15.3998133"><ele>246.33333333333334</ele><time>2026-04-12T14:41:59.979Z</time></trkpt><trkpt lat="40.6092233" lon="15.3995683"><ele>244.66666666666669</ele><time>2026-04-12T14:42:00.979Z</time></trkpt><trkpt lat="40.6092367" lon="15.3993217"><ele>243.0</ele><time>2026-04-12T14:42:01.979Z</time></trkpt><trkpt lat="40.6092717" lon="15.3990767"><ele>238.5</ele><time>2026-04-12T14:42:02.979Z</time></trkpt><trkpt lat="40.6093267" lon="15.398825"><ele>234.0</ele><time>2026-04-12T14:42:03.979Z</time></trkpt><trkpt lat="40.6095033" lon="15.39834"><ele>233.33333333333331</ele><time>2026-04-12T14:42:05.979Z</time></trkpt><trkpt lat="40.6096183" lon="15.3981183"><ele>232.66666666666666</ele><time>2026-04-12T14:42:06.979Z</time></trkpt><trkpt lat="40.6097483" lon="15.3979183"><ele>232.0</ele><time>2026-04-12T14:42:07.979Z</time></trkpt><trkpt lat="40.6098767" lon="15.397735"><ele>231.33333333333331</ele><time>2026-04-12T14:42:08.979Z</time></trkpt><trkpt lat="40.61" lon="15.3975533"><ele>230.66666666666669</ele><time>2026-04-12T14:42:09.979Z</time></trkpt><trkpt lat="40.61012" lon="15.3973733"><ele>230.0</ele><time>2026-04-12T14:42:10.979Z</time></trkpt><trkpt lat="40.6102383" lon="15.397195"><ele>229.0</ele><time>2026-04-12T14:42:11.979Z</time></trkpt><trkpt lat="40.6103417" lon="15.3970117"><ele>228.0</ele><time>2026-04-12T14:42:12.979Z</time></trkpt><trkpt lat="40.610445" lon="15.3968167"><ele>227.0</ele><time>2026-04-12T14:42:13.979Z</time></trkpt><trkpt lat="40.6105317" lon="15.3966067"><ele>227.0</ele><time>2026-04-12T14:42:14.979Z</time></trkpt><trkpt lat="40.6106117" lon="15.3963967"><ele>227.0</ele><time>2026-04-12T14:42:15.979Z</time></trkpt><trkpt lat="40.6106767" lon="15.396175"><ele>227.0</ele><time>2026-04-12T14:42:16.979Z</time></trkpt><trkpt lat="40.6107283" lon="15.3959567"><ele>226.0</ele><time>2026-04-12T14:42:17.979Z</time></trkpt><trkpt lat="40.6107667" lon="15.3957383"><ele>225.0</ele><time>2026-04-12T14:42:18.979Z</time></trkpt><trkpt lat="40.6107933" lon="15.395525"><ele>224.0</ele><time>2026-04-12T14:42:19.979Z</time></trkpt><trkpt lat="40.6108067" lon="15.3953133"><ele>224.0</ele><time>2026-04-12T14:42:20.979Z</time></trkpt><trkpt lat="40.61081" lon="15.3951017"><ele>224.0</ele><time>2026-04-12T14:42:21.979Z</time></trkpt><trkpt lat="40.6108083" lon="15.3949"><ele>224.0</ele><time>2026-04-12T14:42:22.979Z</time></trkpt><trkpt lat="40.6108017" lon="15.3946983"><ele>223.75</ele><time>2026-04-12T14:42:23.979Z</time></trkpt><trkpt lat="40.6107917" lon="15.3945067"><ele>223.5</ele><time>2026-04-12T14:42:24.979Z</time></trkpt><trkpt lat="40.610775" lon="15.3943183"><ele>223.25</ele><time>2026-04-12T14:42:25.979Z</time></trkpt><trkpt lat="40.6107583" lon="15.394135"><ele>223.0</ele><time>2026-04-12T14:42:26.979Z</time></trkpt><trkpt lat="40.6107433" lon="15.3939467"><ele>222.0</ele><time>2026-04-12T14:42:27.979Z</time></trkpt><trkpt lat="40.61073" lon="15.3937533"><ele>221.0</ele><time>2026-04-12T14:42:28.979Z</time></trkpt><trkpt lat="40.6107067" lon="15.3935533"><ele>220.0</ele><time>2026-04-12T14:42:29.979Z</time></trkpt><trkpt lat="40.6106867" lon="15.3933483"><ele>220.0</ele><time>2026-04-12T14:42:30.979Z</time></trkpt><trkpt lat="40.6106667" lon="15.3931367"><ele>220.0</ele><time>2026-04-12T14:42:31.979Z</time></trkpt><trkpt lat="40.610655" lon="15.392915"><ele>220.0</ele><time>2026-04-12T14:42:32.979Z</time></trkpt><trkpt lat="40.6106617" lon="15.3926917"><ele>219.33333333333331</ele><time>2026-04-12T14:42:33.979Z</time></trkpt><trkpt lat="40.6106817" lon="15.3924633"><ele>218.66666666666669</ele><time>2026-04-12T14:42:34.979Z</time></trkpt><trkpt lat="40.6107017" lon="15.3922333"><ele>218.0</ele><time>2026-04-12T14:42:35.979Z</time></trkpt><trkpt lat="40.6107283" lon="15.3920067"><ele>218.0</ele><time>2026-04-12T14:42:36.979Z</time></trkpt><trkpt lat="40.6107567" lon="15.391775"><ele>218.0</ele><time>2026-04-12T14:42:37.979Z</time></trkpt><trkpt lat="40.6107883" lon="15.391545"><ele>218.0</ele><time>2026-04-12T14:42:38.979Z</time></trkpt><trkpt lat="40.6108167" lon="15.391315"><ele>213.0</ele><time>2026-04-12T14:42:39.979Z</time></trkpt><trkpt lat="40.610845" lon="15.3910817"><ele>208.0</ele><time>2026-04-12T14:42:40.979Z</time></trkpt><trkpt lat="40.6108733" lon="15.390845"><ele>203.0</ele><time>2026-04-12T14:42:41.98Z</time></trkpt><trkpt lat="40.6109033" lon="15.39061"><ele>193.33333333333334</ele><time>2026-04-12T14:42:42.979Z</time></trkpt><trkpt lat="40.610935" lon="15.3903783"><ele>183.66666666666669</ele><time>2026-04-12T14:42:43.979Z</time></trkpt><trkpt lat="40.6109583" lon="15.3901433"><ele>174.0</ele><time>2026-04-12T14:42:44.979Z</time></trkpt><trkpt lat="40.6109833" lon="15.3899117"><ele>174.0</ele><time>2026-04-12T14:42:45.979Z</time></trkpt><trkpt lat="40.6110067" lon="15.3896867"><ele>174.0</ele><time>2026-04-12T14:42:46.979Z</time></trkpt><trkpt lat="40.6110333" lon="15.389475"><ele>174.0</ele><time>2026-04-12T14:42:47.979Z</time></trkpt><trkpt lat="40.611055" lon="15.3892717"><ele>179.66666666666666</ele><time>2026-04-12T14:42:48.979Z</time></trkpt><trkpt lat="40.611075" lon="15.389075"><ele>185.33333333333331</ele><time>2026-04-12T14:42:49.979Z</time></trkpt><trkpt lat="40.6110933" lon="15.38888"><ele>191.0</ele><time>2026-04-12T14:42:50.979Z</time></trkpt><trkpt lat="40.611125" lon="15.388685"><ele>195.66666666666666</ele><time>2026-04-12T14:42:51.979Z</time></trkpt><trkpt lat="40.6111533" lon="15.3884867"><ele>200.33333333333331</ele><time>2026-04-12T14:42:52.979Z</time></trkpt><trkpt lat="40.611175" lon="15.3882817"><ele>205.0</ele><time>2026-04-12T14:42:53.979Z</time></trkpt><trkpt lat="40.6111983" lon="15.38807"><ele>216.33333333333331</ele><time>2026-04-12T14:42:54.98Z</time></trkpt><trkpt lat="40.6112267" lon="15.3878533"><ele>227.66666666666669</ele><time>2026-04-12T14:42:55.979Z</time></trkpt><trkpt lat="40.611255" lon="15.38763"><ele>239.0</ele><time>2026-04-12T14:42:56.979Z</time></trkpt><trkpt lat="40.61128" lon="15.387405"><ele>238.0</ele><time>2026-04-12T14:42:57.98Z</time></trkpt><trkpt lat="40.6113017" lon="15.3871717"><ele>237.0</ele><time>2026-04-12T14:42:58.979Z</time></trkpt><trkpt lat="40.6113267" lon="15.3869383"><ele>236.0</ele><time>2026-04-12T14:42:59.979Z</time></trkpt><trkpt lat="40.61136" lon="15.3866967"><ele>236.0</ele><time>2026-04-12T14:43:00.979Z</time></trkpt><trkpt lat="40.61139" lon="15.3864617"><ele>236.0</ele><time>2026-04-12T14:43:01.979Z</time></trkpt><trkpt lat="40.6114167" lon="15.386225"><ele>236.0</ele><time>2026-04-12T14:43:02.979Z</time></trkpt><trkpt lat="40.61145" lon="15.3859933"><ele>233.66666666666669</ele><time>2026-04-12T14:43:03.979Z</time></trkpt><trkpt lat="40.6114767" lon="15.3857617"><ele>231.33333333333331</ele><time>2026-04-12T14:43:04.979Z</time></trkpt><trkpt lat="40.6115167" lon="15.3855367"><ele>229.0</ele><time>2026-04-12T14:43:05.979Z</time></trkpt><trkpt lat="40.61156" lon="15.3853"><ele>229.33333333333331</ele><time>2026-04-12T14:43:06.979Z</time></trkpt><trkpt lat="40.6116017" lon="15.385065"><ele>229.66666666666669</ele><time>2026-04-12T14:43:07.979Z</time></trkpt><trkpt lat="40.6116083" lon="15.3847933"><ele>230.0</ele><time>2026-04-12T14:43:08.979Z</time></trkpt><trkpt lat="40.6115133" lon="15.3845283"><ele>230.0</ele><time>2026-04-12T14:43:09.979Z</time></trkpt><trkpt lat="40.611395" lon="15.3842483"><ele>230.0</ele><time>2026-04-12T14:43:10.979Z</time></trkpt><trkpt lat="40.6113417" lon="15.384005"><ele>230.0</ele><time>2026-04-12T14:43:11.979Z</time></trkpt><trkpt lat="40.6111383" lon="15.3832683"><ele>226.5</ele><time>2026-04-12T14:43:14.979Z</time></trkpt><trkpt lat="40.6107067" lon="15.38332"><ele>223.0</ele><time>2026-04-12T14:43:15.978Z</time></trkpt><trkpt lat="40.6104283" lon="15.38328"><ele>221.0</ele><time>2026-04-12T14:43:16.978Z</time></trkpt><trkpt lat="40.610235" lon="15.38319"><ele>219.0</ele><time>2026-04-12T14:43:17.978Z</time></trkpt><trkpt lat="40.61005" lon="15.3830883"><ele>217.0</ele><time>2026-04-12T14:43:18.978Z</time></trkpt><trkpt lat="40.6098867" lon="15.3829817"><ele>217.0</ele><time>2026-04-12T14:43:19.978Z</time></trkpt><trkpt lat="40.609745" lon="15.3828283"><ele>217.0</ele><time>2026-04-12T14:43:20.978Z</time></trkpt><trkpt lat="40.6096117" lon="15.3826667"><ele>217.0</ele><time>2026-04-12T14:43:21.978Z</time></trkpt><trkpt lat="40.60948" lon="15.3824833"><ele>214.33333333333331</ele><time>2026-04-12T14:43:22.979Z</time></trkpt><trkpt lat="40.60935" lon="15.382305"><ele>211.66666666666669</ele><time>2026-04-12T14:43:23.978Z</time></trkpt><trkpt lat="40.6092183" lon="15.38212"><ele>209.0</ele><time>2026-04-12T14:43:24.978Z</time></trkpt><trkpt lat="40.609075" lon="15.38192"><ele>208.66666666666669</ele><time>2026-04-12T14:43:25.978Z</time></trkpt><trkpt lat="40.608945" lon="15.3817117"><ele>208.33333333333331</ele><time>2026-04-12T14:43:26.978Z</time></trkpt><trkpt lat="40.6088133" lon="15.3814983"><ele>208.0</ele><time>2026-04-12T14:43:27.978Z</time></trkpt><trkpt lat="40.608685" lon="15.381285"><ele>206.33333333333331</ele><time>2026-04-12T14:43:28.978Z</time></trkpt><trkpt lat="40.6085533" lon="15.3810667"><ele>204.66666666666669</ele><time>2026-04-12T14:43:29.978Z</time></trkpt><trkpt lat="40.6084233" lon="15.3808433"><ele>203.0</ele><time>2026-04-12T14:43:30.978Z</time></trkpt><trkpt lat="40.6082917" lon="15.3806167"><ele>204.0</ele><time>2026-04-12T14:43:31.978Z</time></trkpt><trkpt lat="40.608155" lon="15.380395"><ele>205.0</ele><time>2026-04-12T14:43:32.979Z</time></trkpt><trkpt lat="40.60802" lon="15.380175"><ele>206.0</ele><time>2026-04-12T14:43:33.979Z</time></trkpt><trkpt lat="40.6078867" lon="15.3799533"><ele>205.33333333333334</ele><time>2026-04-12T14:43:34.978Z</time></trkpt><trkpt lat="40.6077567" lon="15.379725"><ele>204.66666666666669</ele><time>2026-04-12T14:43:35.979Z</time></trkpt><trkpt lat="40.607625" lon="15.3794983"><ele>204.0</ele><time>2026-04-12T14:43:36.978Z</time></trkpt><trkpt lat="40.6074883" lon="15.3792667"><ele>204.0</ele><time>2026-04-12T14:43:37.978Z</time></trkpt><trkpt lat="40.6073567" lon="15.379035"><ele>204.0</ele><time>2026-04-12T14:43:38.978Z</time></trkpt><trkpt lat="40.6072217" lon="15.3787967"><ele>204.0</ele><time>2026-04-12T14:43:39.978Z</time></trkpt><trkpt lat="40.607085" lon="15.37856"><ele>203.0</ele><time>2026-04-12T14:43:40.978Z</time></trkpt><trkpt lat="40.606945" lon="15.3783183"><ele>202.0</ele><time>2026-04-12T14:43:41.978Z</time></trkpt><trkpt lat="40.6068017" lon="15.3780783"><ele>204.0</ele><time>2026-04-12T14:43:42.978Z</time></trkpt><trkpt lat="40.6066617" lon="15.3778383"><ele>206.0</ele><time>2026-04-12T14:43:43.978Z</time></trkpt><trkpt lat="40.6065183" lon="15.3775967"><ele>206.0</ele><time>2026-04-12T14:43:44.978Z</time></trkpt><trkpt lat="40.6063767" lon="15.377355"><ele>206.0</ele><time>2026-04-12T14:43:45.978Z</time></trkpt><trkpt lat="40.6062367" lon="15.3771167"><ele>203.5</ele><time>2026-04-12T14:43:46.978Z</time></trkpt><trkpt lat="40.6060967" lon="15.376875"><ele>201.0</ele><time>2026-04-12T14:43:47.978Z</time></trkpt><trkpt lat="40.6059567" lon="15.376635"><ele>201.0</ele><time>2026-04-12T14:43:48.978Z</time></trkpt><trkpt lat="40.6058183" lon="15.3763983"><ele>201.0</ele><time>2026-04-12T14:43:49.978Z</time></trkpt><trkpt lat="40.6056783" lon="15.376155"><ele>205.0</ele><time>2026-04-12T14:43:50.978Z</time></trkpt><trkpt lat="40.605535" lon="15.375915"><ele>209.0</ele><time>2026-04-12T14:43:51.978Z</time></trkpt><trkpt lat="40.60539" lon="15.375675"><ele>205.5</ele><time>2026-04-12T14:43:52.978Z</time></trkpt><trkpt lat="40.6052483" lon="15.3754317"><ele>202.0</ele><time>2026-04-12T14:43:53.978Z</time></trkpt><trkpt lat="40.6051083" lon="15.3751883"><ele>202.0</ele><time>2026-04-12T14:43:54.978Z</time></trkpt><trkpt lat="40.6049633" lon="15.3749483"><ele>202.0</ele><time>2026-04-12T14:43:55.978Z</time></trkpt><trkpt lat="40.6048233" lon="15.3747067"><ele>203.5</ele><time>2026-04-12T14:43:56.978Z</time></trkpt><trkpt lat="40.6046817" lon="15.374465"><ele>205.0</ele><time>2026-04-12T14:43:57.978Z</time></trkpt><trkpt lat="40.60454" lon="15.3742217"><ele>201.5</ele><time>2026-04-12T14:43:58.978Z</time></trkpt><trkpt lat="40.6044017" lon="15.373975"><ele>198.0</ele><time>2026-04-12T14:43:59.978Z</time></trkpt><trkpt lat="40.60426" lon="15.3737317"><ele>198.0</ele><time>2026-04-12T14:44:00.978Z</time></trkpt><trkpt lat="40.6041133" lon="15.3734883"><ele>198.0</ele><time>2026-04-12T14:44:01.978Z</time></trkpt><trkpt lat="40.6039733" lon="15.3732433"><ele>198.5</ele><time>2026-04-12T14:44:02.978Z</time></trkpt><trkpt lat="40.6038317" lon="15.3730017"><ele>199.0</ele><time>2026-04-12T14:44:03.978Z</time></trkpt><trkpt lat="40.60369" lon="15.3727617"><ele>197.5</ele><time>2026-04-12T14:44:04.979Z</time></trkpt><trkpt lat="40.60355" lon="15.3725233"><ele>196.0</ele><time>2026-04-12T14:44:05.978Z</time></trkpt><trkpt lat="40.603265" lon="15.3720417"><ele>200.0</ele><time>2026-04-12T14:44:07.978Z</time></trkpt><trkpt lat="40.6031267" lon="15.3717933"><ele>204.0</ele><time>2026-04-12T14:44:08.978Z</time></trkpt><trkpt lat="40.6029783" lon="15.3715467"><ele>204.5</ele><time>2026-04-12T14:44:09.978Z</time></trkpt><trkpt lat="40.60283" lon="15.371295"><ele>205.0</ele><time>2026-04-12T14:44:10.978Z</time></trkpt><trkpt lat="40.6026833" lon="15.371045"><ele>205.0</ele><time>2026-04-12T14:44:11.978Z</time></trkpt><trkpt lat="40.6025383" lon="15.3707967"><ele>205.0</ele><time>2026-04-12T14:44:12.978Z</time></trkpt><trkpt lat="40.60239" lon="15.3705483"><ele>206.5</ele><time>2026-04-12T14:44:13.978Z</time></trkpt><trkpt lat="40.602245" lon="15.3703017"><ele>208.0</ele><time>2026-04-12T14:44:14.978Z</time></trkpt><trkpt lat="40.6021" lon="15.37005"><ele>207.0</ele><time>2026-04-12T14:44:15.978Z</time></trkpt><trkpt lat="40.6019533" lon="15.369805"><ele>206.0</ele><time>2026-04-12T14:44:16.978Z</time></trkpt><trkpt lat="40.6018133" lon="15.3695567"><ele>206.0</ele><time>2026-04-12T14:44:17.978Z</time></trkpt><trkpt lat="40.6016683" lon="15.36931"><ele>206.0</ele><time>2026-04-12T14:44:18.978Z</time></trkpt><trkpt lat="40.6015217" lon="15.3690633"><ele>207.5</ele><time>2026-04-12T14:44:19.978Z</time></trkpt><trkpt lat="40.6013767" lon="15.3688167"><ele>209.0</ele><time>2026-04-12T14:44:20.978Z</time></trkpt><trkpt lat="40.601235" lon="15.36857"><ele>202.0</ele><time>2026-04-12T14:44:21.978Z</time></trkpt><trkpt lat="40.6010883" lon="15.36832"><ele>195.0</ele><time>2026-04-12T14:44:22.978Z</time></trkpt><trkpt lat="40.6009483" lon="15.3680683"><ele>192.0</ele><time>2026-04-12T14:44:23.978Z</time></trkpt><trkpt lat="40.600815" lon="15.367815"><ele>189.0</ele><time>2026-04-12T14:44:24.978Z</time></trkpt><trkpt lat="40.6006733" lon="15.3675567"><ele>189.0</ele><time>2026-04-12T14:44:25.978Z</time></trkpt><trkpt lat="40.600545" lon="15.367295"><ele>189.0</ele><time>2026-04-12T14:44:26.978Z</time></trkpt><trkpt lat="40.600415" lon="15.3670283"><ele>190.5</ele><time>2026-04-12T14:44:27.979Z</time></trkpt><trkpt lat="40.6002883" lon="15.36676"><ele>192.0</ele><time>2026-04-12T14:44:28.978Z</time></trkpt><trkpt lat="40.6001633" lon="15.3664833"><ele>194.5</ele><time>2026-04-12T14:44:29.978Z</time></trkpt><trkpt lat="40.6000417" lon="15.3661983"><ele>197.0</ele><time>2026-04-12T14:44:30.978Z</time></trkpt><trkpt lat="40.5999283" lon="15.3658983"><ele>197.0</ele><time>2026-04-12T14:44:31.978Z</time></trkpt><trkpt lat="40.599815" lon="15.3656183"><ele>197.0</ele><time>2026-04-12T14:44:32.978Z</time></trkpt><trkpt lat="40.5997083" lon="15.36533"><ele>199.0</ele><time>2026-04-12T14:44:33.978Z</time></trkpt><trkpt lat="40.5996017" lon="15.3650417"><ele>201.0</ele><time>2026-04-12T14:44:34.978Z</time></trkpt><trkpt lat="40.5994983" lon="15.3647517"><ele>196.0</ele><time>2026-04-12T14:44:35.978Z</time></trkpt><trkpt lat="40.5994" lon="15.3644567"><ele>191.0</ele><time>2026-04-12T14:44:36.978Z</time></trkpt><trkpt lat="40.5993083" lon="15.3641583"><ele>192.0</ele><time>2026-04-12T14:44:37.978Z</time></trkpt><trkpt lat="40.5992217" lon="15.3638583"><ele>193.0</ele><time>2026-04-12T14:44:38.978Z</time></trkpt><trkpt lat="40.599135" lon="15.3635567"><ele>193.0</ele><time>2026-04-12T14:44:39.978Z</time></trkpt><trkpt lat="40.5990533" lon="15.3632517"><ele>193.0</ele><time>2026-04-12T14:44:40.978Z</time></trkpt><trkpt lat="40.5989767" lon="15.3629433"><ele>195.0</ele><time>2026-04-12T14:44:41.978Z</time></trkpt><trkpt lat="40.598905" lon="15.3626333"><ele>197.0</ele><time>2026-04-12T14:44:42.978Z</time></trkpt><trkpt lat="40.5988367" lon="15.362325"><ele>197.0</ele><time>2026-04-12T14:44:43.978Z</time></trkpt><trkpt lat="40.5987733" lon="15.3620133"><ele>197.0</ele><time>2026-04-12T14:44:44.978Z</time></trkpt><trkpt lat="40.5987217" lon="15.3617"><ele>188.5</ele><time>2026-04-12T14:44:45.978Z</time></trkpt><trkpt lat="40.598665" lon="15.36139"><ele>180.0</ele><time>2026-04-12T14:44:46.978Z</time></trkpt><trkpt lat="40.598615" lon="15.3610767"><ele>180.0</ele><time>2026-04-12T14:44:47.978Z</time></trkpt><trkpt lat="40.5985667" lon="15.3607633"><ele>180.0</ele><time>2026-04-12T14:44:48.978Z</time></trkpt><trkpt lat="40.5985267" lon="15.3604467"><ele>179.5</ele><time>2026-04-12T14:44:49.978Z</time></trkpt><trkpt lat="40.598495" lon="15.36013"><ele>179.0</ele><time>2026-04-12T14:44:50.978Z</time></trkpt><trkpt lat="40.5984633" lon="15.3598133"><ele>178.5</ele><time>2026-04-12T14:44:51.978Z</time></trkpt><trkpt lat="40.5984317" lon="15.3594917"><ele>178.0</ele><time>2026-04-12T14:44:52.978Z</time></trkpt><trkpt lat="40.598405" lon="15.3591683"><ele>178.5</ele><time>2026-04-12T14:44:53.978Z</time></trkpt><trkpt lat="40.5983833" lon="15.358845"><ele>179.0</ele><time>2026-04-12T14:44:54.978Z</time></trkpt><trkpt lat="40.59837" lon="15.3585183"><ele>179.0</ele><time>2026-04-12T14:44:55.979Z</time></trkpt><trkpt lat="40.5983567" lon="15.3581883"><ele>179.0</ele><time>2026-04-12T14:44:56.978Z</time></trkpt><trkpt lat="40.5983433" lon="15.357855"><ele>177.5</ele><time>2026-04-12T14:44:57.978Z</time></trkpt><trkpt lat="40.5983267" lon="15.3575333"><ele>176.0</ele><time>2026-04-12T14:44:58.978Z</time></trkpt><trkpt lat="40.5983067" lon="15.3572067"><ele>176.0</ele><time>2026-04-12T14:44:59.978Z</time></trkpt><trkpt lat="40.5982733" lon="15.3568833"><ele>176.0</ele><time>2026-04-12T14:45:00.979Z</time></trkpt><trkpt lat="40.5982367" lon="15.3565617"><ele>177.5</ele><time>2026-04-12T14:45:01.979Z</time></trkpt><trkpt lat="40.5982" lon="15.3562433"><ele>179.0</ele><time>2026-04-12T14:45:02.978Z</time></trkpt><trkpt lat="40.59816" lon="15.355925"><ele>179.0</ele><time>2026-04-12T14:45:03.978Z</time></trkpt><trkpt lat="40.5981133" lon="15.3556167"><ele>179.0</ele><time>2026-04-12T14:45:04.978Z</time></trkpt><trkpt lat="40.5980667" lon="15.3553133"><ele>179.5</ele><time>2026-04-12T14:45:05.978Z</time></trkpt><trkpt lat="40.5980117" lon="15.35501"><ele>180.0</ele><time>2026-04-12T14:45:06.978Z</time></trkpt><trkpt lat="40.5979383" lon="15.3547117"><ele>180.0</ele><time>2026-04-12T14:45:07.978Z</time></trkpt><trkpt lat="40.59786" lon="15.3544167"><ele>180.0</ele><time>2026-04-12T14:45:08.978Z</time></trkpt><trkpt lat="40.5977683" lon="15.3541183"><ele>170.5</ele><time>2026-04-12T14:45:09.978Z</time></trkpt><trkpt lat="40.59767" lon="15.3538317"><ele>161.0</ele><time>2026-04-12T14:45:10.978Z</time></trkpt><trkpt lat="40.5975683" lon="15.3535483"><ele>161.0</ele><time>2026-04-12T14:45:11.978Z</time></trkpt><trkpt lat="40.5974517" lon="15.3532733"><ele>161.0</ele><time>2026-04-12T14:45:12.978Z</time></trkpt><trkpt lat="40.5973383" lon="15.3530017"><ele>161.0</ele><time>2026-04-12T14:45:13.978Z</time></trkpt><trkpt lat="40.5972133" lon="15.3527467"><ele>161.0</ele><time>2026-04-12T14:45:14.978Z</time></trkpt><trkpt lat="40.59709" lon="15.3524983"><ele>158.33333333333331</ele><time>2026-04-12T14:45:15.978Z</time></trkpt><trkpt lat="40.5969617" lon="15.3522567"><ele>155.66666666666666</ele><time>2026-04-12T14:45:16.978Z</time></trkpt><trkpt lat="40.5968333" lon="15.3520233"><ele>153.0</ele><time>2026-04-12T14:45:17.978Z</time></trkpt><trkpt lat="40.5967083" lon="15.3518033"><ele>153.0</ele><time>2026-04-12T14:45:18.978Z</time></trkpt><trkpt lat="40.5965967" lon="15.3515917"><ele>153.0</ele><time>2026-04-12T14:45:19.978Z</time></trkpt><trkpt lat="40.5964883" lon="15.35138"><ele>153.0</ele><time>2026-04-12T14:45:20.978Z</time></trkpt><trkpt lat="40.5963867" lon="15.3511683"><ele>152.66666666666666</ele><time>2026-04-12T14:45:21.978Z</time></trkpt><trkpt lat="40.5962883" lon="15.3509467"><ele>152.33333333333331</ele><time>2026-04-12T14:45:22.978Z</time></trkpt><trkpt lat="40.5961933" lon="15.350725"><ele>152.0</ele><time>2026-04-12T14:45:23.978Z</time></trkpt><trkpt lat="40.59611" lon="15.3505"><ele>151.66666666666666</ele><time>2026-04-12T14:45:24.978Z</time></trkpt><trkpt lat="40.59604" lon="15.3502783"><ele>151.33333333333334</ele><time>2026-04-12T14:45:25.978Z</time></trkpt><trkpt lat="40.595975" lon="15.350065"><ele>151.0</ele><time>2026-04-12T14:45:26.978Z</time></trkpt><trkpt lat="40.59591" lon="15.3498617"><ele>152.5</ele><time>2026-04-12T14:45:27.978Z</time></trkpt><trkpt lat="40.5958567" lon="15.34967"><ele>154.0</ele><time>2026-04-12T14:45:28.978Z</time></trkpt><trkpt lat="40.59582" lon="15.3494767"><ele>155.5</ele><time>2026-04-12T14:45:29.978Z</time></trkpt><trkpt lat="40.5957883" lon="15.3493067"><ele>157.0</ele><time>2026-04-12T14:45:30.978Z</time></trkpt><trkpt lat="40.59577" lon="15.3491733"><ele>157.0</ele><time>2026-04-12T14:45:31.978Z</time></trkpt><trkpt lat="40.5957533" lon="15.34908"><ele>157.0</ele><time>2026-04-12T14:45:32.978Z</time></trkpt><trkpt lat="40.595735" lon="15.3489767"><ele>157.0</ele><time>2026-04-12T14:45:34.978Z</time></trkpt><trkpt lat="40.595725" lon="15.34886"><ele>157.0</ele><time>2026-04-12T14:46:33.979Z</time></trkpt><trkpt lat="40.5957" lon="15.348765"><ele>157.0</ele><time>2026-04-12T14:46:34.978Z</time></trkpt><trkpt lat="40.595675" lon="15.3486583"><ele>157.0</ele><time>2026-04-12T14:46:35.979Z</time></trkpt><trkpt lat="40.5956583" lon="15.3485367"><ele>158.0</ele><time>2026-04-12T14:46:36.978Z</time></trkpt><trkpt lat="40.59564" lon="15.34839"><ele>159.0</ele><time>2026-04-12T14:46:37.978Z</time></trkpt><trkpt lat="40.5956217" lon="15.34823"><ele>160.0</ele><time>2026-04-12T14:46:38.978Z</time></trkpt><trkpt lat="40.595605" lon="15.3480533"><ele>161.0</ele><time>2026-04-12T14:46:39.978Z</time></trkpt><trkpt lat="40.595595" lon="15.3478617"><ele>161.0</ele><time>2026-04-12T14:46:40.978Z</time></trkpt><trkpt lat="40.595585" lon="15.3476583"><ele>161.0</ele><time>2026-04-12T14:46:41.978Z</time></trkpt><trkpt lat="40.5955733" lon="15.3474417"><ele>161.0</ele><time>2026-04-12T14:46:42.978Z</time></trkpt><trkpt lat="40.5955717" lon="15.347215"><ele>161.0</ele><time>2026-04-12T14:46:43.978Z</time></trkpt><trkpt lat="40.5955783" lon="15.3469833"><ele>161.0</ele><time>2026-04-12T14:46:44.978Z</time></trkpt><trkpt lat="40.5955783" lon="15.3467417"><ele>161.0</ele><time>2026-04-12T14:46:45.978Z</time></trkpt><trkpt lat="40.5955883" lon="15.3464933"><ele>162.33333333333331</ele><time>2026-04-12T14:46:46.978Z</time></trkpt><trkpt lat="40.595595" lon="15.3462367"><ele>163.66666666666666</ele><time>2026-04-12T14:46:47.978Z</time></trkpt><trkpt lat="40.5956067" lon="15.3459783"><ele>165.0</ele><time>2026-04-12T14:46:48.979Z</time></trkpt><trkpt lat="40.5956133" lon="15.345715"><ele>164.66666666666666</ele><time>2026-04-12T14:46:49.979Z</time></trkpt><trkpt lat="40.5956183" lon="15.3454333"><ele>164.33333333333331</ele><time>2026-04-12T14:46:50.978Z</time></trkpt><trkpt lat="40.5956233" lon="15.3451333"><ele>164.0</ele><time>2026-04-12T14:46:51.978Z</time></trkpt><trkpt lat="40.5956333" lon="15.34482"><ele>162.5</ele><time>2026-04-12T14:46:52.978Z</time></trkpt><trkpt lat="40.59564" lon="15.3444983"><ele>161.0</ele><time>2026-04-12T14:46:53.978Z</time></trkpt><trkpt lat="40.5956467" lon="15.3441783"><ele>161.5</ele><time>2026-04-12T14:46:54.978Z</time></trkpt><trkpt lat="40.595655" lon="15.3438517"><ele>162.0</ele><time>2026-04-12T14:46:55.978Z</time></trkpt><trkpt lat="40.595665" lon="15.34352"><ele>162.0</ele><time>2026-04-12T14:46:56.978Z</time></trkpt><trkpt lat="40.5956783" lon="15.3431867"><ele>162.0</ele><time>2026-04-12T14:46:57.978Z</time></trkpt><trkpt lat="40.5956917" lon="15.3428467"><ele>161.5</ele><time>2026-04-12T14:46:58.978Z</time></trkpt><trkpt lat="40.5957067" lon="15.3425067"><ele>161.0</ele><time>2026-04-12T14:46:59.978Z</time></trkpt><trkpt lat="40.5957233" lon="15.3421633"><ele>159.0</ele><time>2026-04-12T14:47:00.978Z</time></trkpt><trkpt lat="40.595745" lon="15.34181"><ele>157.0</ele><time>2026-04-12T14:47:01.978Z</time></trkpt><trkpt lat="40.5957767" lon="15.3414517"><ele>154.5</ele><time>2026-04-12T14:47:02.978Z</time></trkpt><trkpt lat="40.59582" lon="15.34109"><ele>152.0</ele><time>2026-04-12T14:47:03.978Z</time></trkpt><trkpt lat="40.5958833" lon="15.340735"><ele>149.5</ele><time>2026-04-12T14:47:04.978Z</time></trkpt><trkpt lat="40.595955" lon="15.34039"><ele>147.0</ele><time>2026-04-12T14:47:05.978Z</time></trkpt><trkpt lat="40.59604" lon="15.3400433"><ele>149.0</ele><time>2026-04-12T14:47:06.978Z</time></trkpt><trkpt lat="40.5961417" lon="15.339705"><ele>151.0</ele><time>2026-04-12T14:47:07.978Z</time></trkpt><trkpt lat="40.5962567" lon="15.3393733"><ele>151.0</ele><time>2026-04-12T14:47:08.978Z</time></trkpt><trkpt lat="40.596385" lon="15.3390483"><ele>151.0</ele><time>2026-04-12T14:47:09.978Z</time></trkpt><trkpt lat="40.5965217" lon="15.3387383"><ele>149.0</ele><time>2026-04-12T14:47:10.979Z</time></trkpt><trkpt lat="40.5966733" lon="15.338445"><ele>147.0</ele><time>2026-04-12T14:47:11.978Z</time></trkpt><trkpt lat="40.5968333" lon="15.3381617"><ele>149.5</ele><time>2026-04-12T14:47:12.978Z</time></trkpt><trkpt lat="40.5970017" lon="15.337885"><ele>152.0</ele><time>2026-04-12T14:47:13.978Z</time></trkpt><trkpt lat="40.5971767" lon="15.3376167"><ele>152.0</ele><time>2026-04-12T14:47:14.979Z</time></trkpt><trkpt lat="40.597355" lon="15.3373583"><ele>152.0</ele><time>2026-04-12T14:47:15.978Z</time></trkpt><trkpt lat="40.5975299" lon="15.3370948"><ele>153.0</ele><time>2026-04-12T14:47:16.978Z</time></trkpt><trkpt lat="40.5977018" lon="15.3368398"><ele>154.0</ele><time>2026-04-12T14:47:17.978Z</time></trkpt><trkpt lat="40.5978704" lon="15.3365832"><ele>150.5</ele><time>2026-04-12T14:47:18.978Z</time></trkpt><trkpt lat="40.5980392" lon="15.3363229"><ele>147.0</ele><time>2026-04-12T14:47:19.978Z</time></trkpt><trkpt lat="40.5982102" lon="15.336066"><ele>147.0</ele><time>2026-04-12T14:47:20.978Z</time></trkpt><trkpt lat="40.5983875" lon="15.335812"><ele>147.0</ele><time>2026-04-12T14:47:21.978Z</time></trkpt><trkpt lat="40.5985648" lon="15.3355662"><ele>150.0</ele><time>2026-04-12T14:47:22.978Z</time></trkpt><trkpt lat="40.5987303" lon="15.3353346"><ele>153.0</ele><time>2026-04-12T14:47:23.978Z</time></trkpt><trkpt lat="40.5988858" lon="15.3351029"><ele>153.0</ele><time>2026-04-12T14:47:24.979Z</time></trkpt><trkpt lat="40.5990368" lon="15.334874"><ele>153.0</ele><time>2026-04-12T14:47:25.978Z</time></trkpt><trkpt lat="40.5991867" lon="15.3346421"><ele>146.5</ele><time>2026-04-12T14:47:26.978Z</time></trkpt><trkpt lat="40.59934" lon="15.3344093"><ele>140.0</ele><time>2026-04-12T14:47:27.978Z</time></trkpt><trkpt lat="40.5994988" lon="15.3341863"><ele>141.0</ele><time>2026-04-12T14:47:28.979Z</time></trkpt><trkpt lat="40.599657" lon="15.3339605"><ele>142.0</ele><time>2026-04-12T14:47:29.978Z</time></trkpt><trkpt lat="40.5998114" lon="15.3337306"><ele>142.0</ele><time>2026-04-12T14:47:30.978Z</time></trkpt><trkpt lat="40.599966" lon="15.3334974"><ele>142.0</ele><time>2026-04-12T14:47:31.978Z</time></trkpt><trkpt lat="40.6001223" lon="15.3332681"><ele>145.0</ele><time>2026-04-12T14:47:32.978Z</time></trkpt><trkpt lat="40.6002752" lon="15.3330386"><ele>148.0</ele><time>2026-04-12T14:47:33.978Z</time></trkpt><trkpt lat="40.6004319" lon="15.3328053"><ele>148.0</ele><time>2026-04-12T14:47:34.978Z</time></trkpt><trkpt lat="40.6005874" lon="15.332572"><ele>148.0</ele><time>2026-04-12T14:47:35.978Z</time></trkpt><trkpt lat="40.6007416" lon="15.3323396"><ele>143.0</ele><time>2026-04-12T14:47:36.978Z</time></trkpt><trkpt lat="40.6008949" lon="15.3321115"><ele>138.0</ele><time>2026-04-12T14:47:37.978Z</time></trkpt><trkpt lat="40.6010477" lon="15.3318852"><ele>146.5</ele><time>2026-04-12T14:47:38.978Z</time></trkpt><trkpt lat="40.6012009" lon="15.3316587"><ele>155.0</ele><time>2026-04-12T14:47:39.978Z</time></trkpt><trkpt lat="40.601355" lon="15.3314301"><ele>149.0</ele><time>2026-04-12T14:47:40.978Z</time></trkpt><trkpt lat="40.6015053" lon="15.3311983"><ele>143.0</ele><time>2026-04-12T14:47:41.978Z</time></trkpt><trkpt lat="40.601644" lon="15.3309567"><ele>143.0</ele><time>2026-04-12T14:47:42.978Z</time></trkpt><trkpt lat="40.6017712" lon="15.3307017"><ele>143.0</ele><time>2026-04-12T14:47:43.978Z</time></trkpt><trkpt lat="40.6018879" lon="15.3304319"><ele>145.5</ele><time>2026-04-12T14:47:44.978Z</time></trkpt><trkpt lat="40.6019904" lon="15.3301524"><ele>148.0</ele><time>2026-04-12T14:47:45.979Z</time></trkpt><trkpt lat="40.6020833" lon="15.3298625"><ele>147.0</ele><time>2026-04-12T14:47:46.979Z</time></trkpt><trkpt lat="40.6021613" lon="15.3295643"><ele>146.0</ele><time>2026-04-12T14:47:47.978Z</time></trkpt><trkpt lat="40.6022341" lon="15.3292642"><ele>146.0</ele><time>2026-04-12T14:47:48.978Z</time></trkpt><trkpt lat="40.602299" lon="15.3289588"><ele>146.0</ele><time>2026-04-12T14:47:49.978Z</time></trkpt><trkpt lat="40.6023546" lon="15.3286487"><ele>146.0</ele><time>2026-04-12T14:47:50.978Z</time></trkpt><trkpt lat="40.6024001" lon="15.3283353"><ele>146.0</ele><time>2026-04-12T14:47:51.978Z</time></trkpt><trkpt lat="40.6024372" lon="15.3280149"><ele>146.0</ele><time>2026-04-12T14:47:52.979Z</time></trkpt><trkpt lat="40.6024596" lon="15.3276941"><ele>146.0</ele><time>2026-04-12T14:47:53.978Z</time></trkpt><trkpt lat="40.6024687" lon="15.3273734"><ele>144.5</ele><time>2026-04-12T14:47:54.978Z</time></trkpt><trkpt lat="40.6024785" lon="15.327049"><ele>143.0</ele><time>2026-04-12T14:47:55.978Z</time></trkpt><trkpt lat="40.6024929" lon="15.326725"><ele>143.0</ele><time>2026-04-12T14:47:56.978Z</time></trkpt><trkpt lat="40.6025163" lon="15.3263988"><ele>143.0</ele><time>2026-04-12T14:47:57.978Z</time></trkpt><trkpt lat="40.6025538" lon="15.3260748"><ele>143.0</ele><time>2026-04-12T14:47:58.978Z</time></trkpt><trkpt lat="40.6026088" lon="15.3257543"><ele>143.0</ele><time>2026-04-12T14:47:59.978Z</time></trkpt><trkpt lat="40.6026803" lon="15.3254363"><ele>142.0</ele><time>2026-04-12T14:48:00.978Z</time></trkpt><trkpt lat="40.6027665" lon="15.325125"><ele>141.0</ele><time>2026-04-12T14:48:01.978Z</time></trkpt><trkpt lat="40.6028649" lon="15.3248195"><ele>142.0</ele><time>2026-04-12T14:48:02.978Z</time></trkpt><trkpt lat="40.6029729" lon="15.3245181"><ele>143.0</ele><time>2026-04-12T14:48:03.978Z</time></trkpt><trkpt lat="40.6030928" lon="15.3242258"><ele>143.0</ele><time>2026-04-12T14:48:04.978Z</time></trkpt><trkpt lat="40.6032228" lon="15.3239451"><ele>143.0</ele><time>2026-04-12T14:48:05.978Z</time></trkpt><trkpt lat="40.603362" lon="15.323675"><ele>140.5</ele><time>2026-04-12T14:48:06.978Z</time></trkpt><trkpt lat="40.6035054" lon="15.3234178"><ele>138.0</ele><time>2026-04-12T14:48:07.978Z</time></trkpt><trkpt lat="40.6036533" lon="15.3231735"><ele>141.5</ele><time>2026-04-12T14:48:08.978Z</time></trkpt><trkpt lat="40.6037988" lon="15.3229289"><ele>145.0</ele><time>2026-04-12T14:48:09.978Z</time></trkpt><trkpt lat="40.6039431" lon="15.3226779"><ele>145.0</ele><time>2026-04-12T14:48:10.978Z</time></trkpt><trkpt lat="40.6040858" lon="15.3224285"><ele>145.0</ele><time>2026-04-12T14:48:11.978Z</time></trkpt><trkpt lat="40.6042263" lon="15.3221764"><ele>145.0</ele><time>2026-04-12T14:48:12.978Z</time></trkpt><trkpt lat="40.6043651" lon="15.3219233"><ele>145.0</ele><time>2026-04-12T14:48:13.978Z</time></trkpt><trkpt lat="40.6045002" lon="15.3216658"><ele>145.0</ele><time>2026-04-12T14:48:14.978Z</time></trkpt><trkpt lat="40.6046292" lon="15.3214042"><ele>145.0</ele><time>2026-04-12T14:48:15.978Z</time></trkpt><trkpt lat="40.6047506" lon="15.3211372"><ele>143.5</ele><time>2026-04-12T14:48:16.978Z</time></trkpt><trkpt lat="40.6048648" lon="15.3208669"><ele>142.0</ele><time>2026-04-12T14:48:17.978Z</time></trkpt><trkpt lat="40.604974" lon="15.3205921"><ele>141.0</ele><time>2026-04-12T14:48:18.978Z</time></trkpt><trkpt lat="40.6050755" lon="15.3203165"><ele>140.0</ele><time>2026-04-12T14:48:19.978Z</time></trkpt><trkpt lat="40.6051702" lon="15.3200377"><ele>140.0</ele><time>2026-04-12T14:48:20.978Z</time></trkpt><trkpt lat="40.6052573" lon="15.3197573"><ele>140.0</ele><time>2026-04-12T14:48:21.978Z</time></trkpt><trkpt lat="40.6053461" lon="15.3194759"><ele>145.5</ele><time>2026-04-12T14:48:22.978Z</time></trkpt><trkpt lat="40.6054334" lon="15.3191939"><ele>151.0</ele><time>2026-04-12T14:48:23.978Z</time></trkpt><trkpt lat="40.6055265" lon="15.3189121"><ele>148.5</ele><time>2026-04-12T14:48:24.978Z</time></trkpt><trkpt lat="40.6056264" lon="15.3186322"><ele>146.0</ele><time>2026-04-12T14:48:25.978Z</time></trkpt><trkpt lat="40.60573" lon="15.3183517"><ele>146.0</ele><time>2026-04-12T14:48:26.978Z</time></trkpt><trkpt lat="40.6058367" lon="15.31807"><ele>146.0</ele><time>2026-04-12T14:48:27.979Z</time></trkpt><trkpt lat="40.60594" lon="15.31779"><ele>144.5</ele><time>2026-04-12T14:48:28.978Z</time></trkpt><trkpt lat="40.60604" lon="15.3175117"><ele>143.0</ele><time>2026-04-12T14:48:29.978Z</time></trkpt><trkpt lat="40.6061383" lon="15.3172367"><ele>145.5</ele><time>2026-04-12T14:48:30.978Z</time></trkpt><trkpt lat="40.60624" lon="15.3169633"><ele>148.0</ele><time>2026-04-12T14:48:31.978Z</time></trkpt><trkpt lat="40.6063383" lon="15.31669"><ele>148.0</ele><time>2026-04-12T14:48:32.978Z</time></trkpt><trkpt lat="40.606435" lon="15.31642"><ele>148.0</ele><time>2026-04-12T14:48:33.978Z</time></trkpt><trkpt lat="40.606535" lon="15.3161483"><ele>145.0</ele><time>2026-04-12T14:48:34.978Z</time></trkpt><trkpt lat="40.606635" lon="15.3158733"><ele>142.0</ele><time>2026-04-12T14:48:35.978Z</time></trkpt><trkpt lat="40.6067383" lon="15.3156"><ele>141.0</ele><time>2026-04-12T14:48:36.978Z</time></trkpt><trkpt lat="40.6068383" lon="15.3153267"><ele>140.0</ele><time>2026-04-12T14:48:37.978Z</time></trkpt><trkpt lat="40.60694" lon="15.3150517"><ele>142.5</ele><time>2026-04-12T14:48:38.978Z</time></trkpt><trkpt lat="40.60704" lon="15.31478"><ele>145.0</ele><time>2026-04-12T14:48:39.978Z</time></trkpt><trkpt lat="40.6071367" lon="15.3145083"><ele>145.0</ele><time>2026-04-12T14:48:40.978Z</time></trkpt><trkpt lat="40.6072383" lon="15.3142367"><ele>145.0</ele><time>2026-04-12T14:48:41.978Z</time></trkpt><trkpt lat="40.60734" lon="15.313965"><ele>142.5</ele><time>2026-04-12T14:48:42.978Z</time></trkpt><trkpt lat="40.6074467" lon="15.3136933"><ele>140.0</ele><time>2026-04-12T14:48:43.978Z</time></trkpt><trkpt lat="40.60755" lon="15.3134217"><ele>140.0</ele><time>2026-04-12T14:48:44.978Z</time></trkpt><trkpt lat="40.607655" lon="15.3131517"><ele>140.0</ele><time>2026-04-12T14:48:45.978Z</time></trkpt><trkpt lat="40.6077583" lon="15.3128767"><ele>142.5</ele><time>2026-04-12T14:48:46.978Z</time></trkpt><trkpt lat="40.6078567" lon="15.3126067"><ele>145.0</ele><time>2026-04-12T14:48:47.978Z</time></trkpt><trkpt lat="40.6079567" lon="15.3123333"><ele>143.5</ele><time>2026-04-12T14:48:48.978Z</time></trkpt><trkpt lat="40.6080583" lon="15.312065"><ele>142.0</ele><time>2026-04-12T14:48:49.978Z</time></trkpt><trkpt lat="40.6081583" lon="15.31179"><ele>142.0</ele><time>2026-04-12T14:48:50.978Z</time></trkpt><trkpt lat="40.6082533" lon="15.3115117"><ele>142.0</ele><time>2026-04-12T14:48:51.978Z</time></trkpt><trkpt lat="40.6083433" lon="15.3112333"><ele>139.5</ele><time>2026-04-12T14:48:52.978Z</time></trkpt><trkpt lat="40.6084233" lon="15.3109517"><ele>137.0</ele><time>2026-04-12T14:48:53.978Z</time></trkpt><trkpt lat="40.6085033" lon="15.3106683"><ele>134.0</ele><time>2026-04-12T14:48:54.978Z</time></trkpt><trkpt lat="40.6085767" lon="15.3103783"><ele>131.0</ele><time>2026-04-12T14:48:55.978Z</time></trkpt><trkpt lat="40.6086483" lon="15.3100867"><ele>133.0</ele><time>2026-04-12T14:48:56.978Z</time></trkpt><trkpt lat="40.6087217" lon="15.3097967"><ele>135.0</ele><time>2026-04-12T14:48:57.978Z</time></trkpt><trkpt lat="40.6087933" lon="15.30951"><ele>136.5</ele><time>2026-04-12T14:48:58.978Z</time></trkpt><trkpt lat="40.6088667" lon="15.309225"><ele>138.0</ele><time>2026-04-12T14:48:59.978Z</time></trkpt><trkpt lat="40.6089417" lon="15.30894"><ele>140.0</ele><time>2026-04-12T14:49:00.978Z</time></trkpt><trkpt lat="40.609025" lon="15.30866"><ele>142.0</ele><time>2026-04-12T14:49:01.978Z</time></trkpt><trkpt lat="40.609105" lon="15.3083783"><ele>142.0</ele><time>2026-04-12T14:49:02.979Z</time></trkpt><trkpt lat="40.6091817" lon="15.3080933"><ele>142.0</ele><time>2026-04-12T14:49:03.978Z</time></trkpt><trkpt lat="40.60926" lon="15.30781"><ele>144.5</ele><time>2026-04-12T14:49:04.978Z</time></trkpt><trkpt lat="40.6093383" lon="15.3075283"><ele>147.0</ele><time>2026-04-12T14:49:05.978Z</time></trkpt><trkpt lat="40.6094033" lon="15.307245"><ele>149.5</ele><time>2026-04-12T14:49:06.978Z</time></trkpt><trkpt lat="40.60947" lon="15.3069567"><ele>152.0</ele><time>2026-04-12T14:49:07.978Z</time></trkpt><trkpt lat="40.6095283" lon="15.3066683"><ele>154.0</ele><time>2026-04-12T14:49:08.978Z</time></trkpt><trkpt lat="40.6095867" lon="15.3063733"><ele>156.0</ele><time>2026-04-12T14:49:09.978Z</time></trkpt><trkpt lat="40.6096417" lon="15.3060767"><ele>156.0</ele><time>2026-04-12T14:49:10.978Z</time></trkpt><trkpt lat="40.6096917" lon="15.3057817"><ele>156.0</ele><time>2026-04-12T14:49:11.978Z</time></trkpt><trkpt lat="40.6097417" lon="15.3054833"><ele>159.5</ele><time>2026-04-12T14:49:12.978Z</time></trkpt><trkpt lat="40.609785" lon="15.3051817"><ele>163.0</ele><time>2026-04-12T14:49:13.978Z</time></trkpt><trkpt lat="40.6098233" lon="15.304885"><ele>166.0</ele><time>2026-04-12T14:49:14.978Z</time></trkpt><trkpt lat="40.6098617" lon="15.3045883"><ele>169.0</ele><time>2026-04-12T14:49:15.978Z</time></trkpt><trkpt lat="40.6098967" lon="15.3042933"><ele>169.0</ele><time>2026-04-12T14:49:16.978Z</time></trkpt><trkpt lat="40.6099267" lon="15.3039967"><ele>169.0</ele><time>2026-04-12T14:49:17.978Z</time></trkpt><trkpt lat="40.6099433" lon="15.303695"><ele>169.0</ele><time>2026-04-12T14:49:18.978Z</time></trkpt><trkpt lat="40.609955" lon="15.3033967"><ele>169.0</ele><time>2026-04-12T14:49:19.978Z</time></trkpt><trkpt lat="40.6099683" lon="15.3030967"><ele>168.5</ele><time>2026-04-12T14:49:20.979Z</time></trkpt><trkpt lat="40.6099767" lon="15.3027883"><ele>168.0</ele><time>2026-04-12T14:49:21.978Z</time></trkpt><trkpt lat="40.6099817" lon="15.3024867"><ele>168.5</ele><time>2026-04-12T14:49:22.978Z</time></trkpt><trkpt lat="40.609985" lon="15.3021833"><ele>169.0</ele><time>2026-04-12T14:49:23.978Z</time></trkpt><trkpt lat="40.6099817" lon="15.3018833"><ele>169.0</ele><time>2026-04-12T14:49:24.979Z</time></trkpt><trkpt lat="40.6099733" lon="15.30158"><ele>169.0</ele><time>2026-04-12T14:49:25.978Z</time></trkpt><trkpt lat="40.6099667" lon="15.3012767"><ele>170.0</ele><time>2026-04-12T14:49:26.978Z</time></trkpt><trkpt lat="40.609965" lon="15.30098"><ele>171.0</ele><time>2026-04-12T14:49:27.978Z</time></trkpt><trkpt lat="40.609965" lon="15.3006733"><ele>173.5</ele><time>2026-04-12T14:49:28.978Z</time></trkpt><trkpt lat="40.6099583" lon="15.3003667"><ele>176.0</ele><time>2026-04-12T14:49:29.978Z</time></trkpt><trkpt lat="40.609955" lon="15.3000667"><ele>176.0</ele><time>2026-04-12T14:49:30.979Z</time></trkpt><trkpt lat="40.609965" lon="15.2997667"><ele>176.0</ele><time>2026-04-12T14:49:31.978Z</time></trkpt><trkpt lat="40.6099933" lon="15.2994667"><ele>176.5</ele><time>2026-04-12T14:49:32.979Z</time></trkpt><trkpt lat="40.6100367" lon="15.29917"><ele>177.0</ele><time>2026-04-12T14:49:33.978Z</time></trkpt><trkpt lat="40.6100883" lon="15.298875"><ele>179.0</ele><time>2026-04-12T14:49:34.978Z</time></trkpt><trkpt lat="40.61015" lon="15.298585"><ele>181.0</ele><time>2026-04-12T14:49:35.978Z</time></trkpt><trkpt lat="40.6102183" lon="15.298295"><ele>180.5</ele><time>2026-04-12T14:49:36.978Z</time></trkpt><trkpt lat="40.6102983" lon="15.2980083"><ele>180.0</ele><time>2026-04-12T14:49:37.978Z</time></trkpt><trkpt lat="40.6103833" lon="15.297725"><ele>180.0</ele><time>2026-04-12T14:49:38.978Z</time></trkpt><trkpt lat="40.6104817" lon="15.2974433"><ele>180.0</ele><time>2026-04-12T14:49:39.978Z</time></trkpt><trkpt lat="40.61057" lon="15.2971683"><ele>180.0</ele><time>2026-04-12T14:49:40.978Z</time></trkpt><trkpt lat="40.61066" lon="15.2968883"><ele>180.0</ele><time>2026-04-12T14:49:41.978Z</time></trkpt><trkpt lat="40.6107517" lon="15.29661"><ele>179.0</ele><time>2026-04-12T14:49:42.978Z</time></trkpt><trkpt lat="40.6108367" lon="15.2963333"><ele>178.0</ele><time>2026-04-12T14:49:43.978Z</time></trkpt><trkpt lat="40.6109133" lon="15.2960667"><ele>177.0</ele><time>2026-04-12T14:49:44.978Z</time></trkpt><trkpt lat="40.6109833" lon="15.2958133"><ele>176.0</ele><time>2026-04-12T14:49:45.978Z</time></trkpt><trkpt lat="40.6110433" lon="15.2955633"><ele>175.0</ele><time>2026-04-12T14:49:46.978Z</time></trkpt><trkpt lat="40.6110617" lon="15.2953217"><ele>174.0</ele><time>2026-04-12T14:49:47.978Z</time></trkpt><trkpt lat="40.6110433" lon="15.2950917"><ele>174.0</ele><time>2026-04-12T14:49:48.978Z</time></trkpt><trkpt lat="40.611005" lon="15.2948633"><ele>174.0</ele><time>2026-04-12T14:49:49.978Z</time></trkpt><trkpt lat="40.6109483" lon="15.2946383"><ele>174.0</ele><time>2026-04-12T14:49:50.978Z</time></trkpt><trkpt lat="40.6108733" lon="15.2944167"><ele>173.66666666666666</ele><time>2026-04-12T14:49:51.978Z</time></trkpt><trkpt lat="40.6107867" lon="15.29419"><ele>173.33333333333331</ele><time>2026-04-12T14:49:52.978Z</time></trkpt><trkpt lat="40.61071" lon="15.2939583"><ele>173.0</ele><time>2026-04-12T14:49:53.978Z</time></trkpt><trkpt lat="40.6106367" lon="15.293735"><ele>171.66666666666666</ele><time>2026-04-12T14:49:54.978Z</time></trkpt><trkpt lat="40.61057" lon="15.2935183"><ele>170.33333333333334</ele><time>2026-04-12T14:49:55.978Z</time></trkpt><trkpt lat="40.6105033" lon="15.2933"><ele>169.0</ele><time>2026-04-12T14:49:56.978Z</time></trkpt><trkpt lat="40.61044" lon="15.2930833"><ele>170.0</ele><time>2026-04-12T14:49:57.978Z</time></trkpt><trkpt lat="40.610375" lon="15.29285"><ele>171.0</ele><time>2026-04-12T14:49:58.978Z</time></trkpt><trkpt lat="40.61031" lon="15.2925983"><ele>172.0</ele><time>2026-04-12T14:49:59.978Z</time></trkpt><trkpt lat="40.61025" lon="15.2923433"><ele>171.66666666666669</ele><time>2026-04-12T14:50:00.978Z</time></trkpt><trkpt lat="40.6102017" lon="15.2920667"><ele>171.33333333333334</ele><time>2026-04-12T14:50:01.978Z</time></trkpt><trkpt lat="40.6101783" lon="15.291785"><ele>171.0</ele><time>2026-04-12T14:50:02.978Z</time></trkpt><trkpt lat="40.61017" lon="15.291495"><ele>170.33333333333334</ele><time>2026-04-12T14:50:03.978Z</time></trkpt><trkpt lat="40.61017" lon="15.2912033"><ele>169.66666666666669</ele><time>2026-04-12T14:50:04.978Z</time></trkpt><trkpt lat="40.6101667" lon="15.2909033"><ele>169.0</ele><time>2026-04-12T14:50:05.978Z</time></trkpt><trkpt lat="40.6101733" lon="15.2905983"><ele>168.33333333333334</ele><time>2026-04-12T14:50:06.978Z</time></trkpt><trkpt lat="40.61018" lon="15.2903017"><ele>167.66666666666666</ele><time>2026-04-12T14:50:07.978Z</time></trkpt><trkpt lat="40.6101833" lon="15.2900067"><ele>167.0</ele><time>2026-04-12T14:50:08.978Z</time></trkpt><trkpt lat="40.6101883" lon="15.2897133"><ele>166.0</ele><time>2026-04-12T14:50:09.978Z</time></trkpt><trkpt lat="40.6102" lon="15.2894233"><ele>165.0</ele><time>2026-04-12T14:50:10.978Z</time></trkpt><trkpt lat="40.6102183" lon="15.2891383"><ele>164.0</ele><time>2026-04-12T14:50:11.978Z</time></trkpt><trkpt lat="40.61024" lon="15.2888433"><ele>163.33333333333331</ele><time>2026-04-12T14:50:12.978Z</time></trkpt><trkpt lat="40.6102667" lon="15.288555"><ele>162.66666666666666</ele><time>2026-04-12T14:50:13.978Z</time></trkpt><trkpt lat="40.6103017" lon="15.2882617"><ele>162.0</ele><time>2026-04-12T14:50:14.978Z</time></trkpt><trkpt lat="40.6103483" lon="15.287955"><ele>154.5</ele><time>2026-04-12T14:50:15.978Z</time></trkpt><trkpt lat="40.610405" lon="15.2876367"><ele>147.0</ele><time>2026-04-12T14:50:16.978Z</time></trkpt><trkpt lat="40.61046" lon="15.2873367"><ele>147.66666666666666</ele><time>2026-04-12T14:50:17.978Z</time></trkpt><trkpt lat="40.610525" lon="15.2870517"><ele>148.33333333333331</ele><time>2026-04-12T14:50:18.978Z</time></trkpt><trkpt lat="40.6105883" lon="15.2867783"><ele>149.0</ele><time>2026-04-12T14:50:19.978Z</time></trkpt><trkpt lat="40.610655" lon="15.286505"><ele>146.5</ele><time>2026-04-12T14:50:20.978Z</time></trkpt><trkpt lat="40.610735" lon="15.286225"><ele>144.0</ele><time>2026-04-12T14:50:21.978Z</time></trkpt><trkpt lat="40.61082" lon="15.2859317"><ele>144.0</ele><time>2026-04-12T14:50:22.978Z</time></trkpt><trkpt lat="40.6109117" lon="15.2856383"><ele>144.0</ele><time>2026-04-12T14:50:23.978Z</time></trkpt><trkpt lat="40.61102" lon="15.285345"><ele>143.5</ele><time>2026-04-12T14:50:24.979Z</time></trkpt><trkpt lat="40.6111317" lon="15.2850533"><ele>143.0</ele><time>2026-04-12T14:50:25.978Z</time></trkpt><trkpt lat="40.6112483" lon="15.2847617"><ele>152.5</ele><time>2026-04-12T14:50:26.978Z</time></trkpt><trkpt lat="40.61137" lon="15.2844767"><ele>162.0</ele><time>2026-04-12T14:50:27.978Z</time></trkpt><trkpt lat="40.6114933" lon="15.2841933"><ele>161.5</ele><time>2026-04-12T14:50:28.978Z</time></trkpt><trkpt lat="40.6116183" lon="15.2839117"><ele>161.0</ele><time>2026-04-12T14:50:29.979Z</time></trkpt><trkpt lat="40.6117483" lon="15.28363"><ele>161.0</ele><time>2026-04-12T14:50:30.978Z</time></trkpt><trkpt lat="40.6118817" lon="15.2833567"><ele>161.0</ele><time>2026-04-12T14:50:31.978Z</time></trkpt><trkpt lat="40.61201" lon="15.2830817"><ele>164.0</ele><time>2026-04-12T14:50:32.979Z</time></trkpt><trkpt lat="40.61214" lon="15.2828083"><ele>167.0</ele><time>2026-04-12T14:50:33.978Z</time></trkpt><trkpt lat="40.6122683" lon="15.2825417"><ele>167.0</ele><time>2026-04-12T14:50:34.978Z</time></trkpt><trkpt lat="40.6124017" lon="15.2822667"><ele>167.0</ele><time>2026-04-12T14:50:35.978Z</time></trkpt><trkpt lat="40.6125283" lon="15.28199"><ele>165.0</ele><time>2026-04-12T14:50:36.978Z</time></trkpt><trkpt lat="40.6126583" lon="15.28171"><ele>163.0</ele><time>2026-04-12T14:50:37.978Z</time></trkpt><trkpt lat="40.6127883" lon="15.2814267"><ele>166.0</ele><time>2026-04-12T14:50:38.978Z</time></trkpt><trkpt lat="40.6129183" lon="15.2811417"><ele>169.0</ele><time>2026-04-12T14:50:39.978Z</time></trkpt><trkpt lat="40.6130483" lon="15.2808517"><ele>168.0</ele><time>2026-04-12T14:50:40.978Z</time></trkpt><trkpt lat="40.6131733" lon="15.280555"><ele>167.0</ele><time>2026-04-12T14:50:41.978Z</time></trkpt><trkpt lat="40.6134167" lon="15.2799517"><ele>168.0</ele><time>2026-04-12T14:50:43.978Z</time></trkpt><trkpt lat="40.61353" lon="15.2796517"><ele>169.0</ele><time>2026-04-12T14:50:44.978Z</time></trkpt><trkpt lat="40.61364" lon="15.2793467"><ele>169.5</ele><time>2026-04-12T14:50:45.978Z</time></trkpt><trkpt lat="40.613745" lon="15.2790317"><ele>170.0</ele><time>2026-04-12T14:50:46.978Z</time></trkpt><trkpt lat="40.6138417" lon="15.2787167"><ele>170.0</ele><time>2026-04-12T14:50:47.978Z</time></trkpt><trkpt lat="40.6139367" lon="15.2784033"><ele>170.0</ele><time>2026-04-12T14:50:48.978Z</time></trkpt><trkpt lat="40.6140233" lon="15.278085"><ele>168.0</ele><time>2026-04-12T14:50:49.979Z</time></trkpt><trkpt lat="40.6141133" lon="15.2777633"><ele>166.0</ele><time>2026-04-12T14:50:50.978Z</time></trkpt><trkpt lat="40.61419" lon="15.2774383"><ele>165.5</ele><time>2026-04-12T14:50:51.978Z</time></trkpt><trkpt lat="40.6142567" lon="15.2771167"><ele>165.0</ele><time>2026-04-12T14:50:52.978Z</time></trkpt><trkpt lat="40.6143217" lon="15.2767867"><ele>165.0</ele><time>2026-04-12T14:50:53.978Z</time></trkpt><trkpt lat="40.6143817" lon="15.276455"><ele>165.0</ele><time>2026-04-12T14:50:54.978Z</time></trkpt><trkpt lat="40.61444" lon="15.2761217"><ele>166.0</ele><time>2026-04-12T14:50:55.978Z</time></trkpt><trkpt lat="40.6144867" lon="15.275785"><ele>167.0</ele><time>2026-04-12T14:50:56.978Z</time></trkpt><trkpt lat="40.6145317" lon="15.2754533"><ele>164.5</ele><time>2026-04-12T14:50:57.978Z</time></trkpt><trkpt lat="40.61457" lon="15.2751167"><ele>162.0</ele><time>2026-04-12T14:50:58.978Z</time></trkpt><trkpt lat="40.614605" lon="15.2747783"><ele>159.0</ele><time>2026-04-12T14:50:59.978Z</time></trkpt><trkpt lat="40.6146383" lon="15.2744433"><ele>156.0</ele><time>2026-04-12T14:51:00.978Z</time></trkpt><trkpt lat="40.61466" lon="15.2741017"><ele>153.0</ele><time>2026-04-12T14:51:01.978Z</time></trkpt><trkpt lat="40.614675" lon="15.27376"><ele>150.0</ele><time>2026-04-12T14:51:02.978Z</time></trkpt><trkpt lat="40.6146883" lon="15.2734183"><ele>150.5</ele><time>2026-04-12T14:51:03.978Z</time></trkpt><trkpt lat="40.6146883" lon="15.273075"><ele>151.0</ele><time>2026-04-12T14:51:04.978Z</time></trkpt><trkpt lat="40.61468" lon="15.2727283"><ele>151.0</ele><time>2026-04-12T14:51:05.978Z</time></trkpt><trkpt lat="40.6146717" lon="15.2723817"><ele>151.0</ele><time>2026-04-12T14:51:06.979Z</time></trkpt><trkpt lat="40.614655" lon="15.272035"><ele>151.5</ele><time>2026-04-12T14:51:07.978Z</time></trkpt><trkpt lat="40.6146383" lon="15.2716783"><ele>152.0</ele><time>2026-04-12T14:51:08.978Z</time></trkpt><trkpt lat="40.614615" lon="15.27132"><ele>155.5</ele><time>2026-04-12T14:51:09.978Z</time></trkpt><trkpt lat="40.6145867" lon="15.270965"><ele>159.0</ele><time>2026-04-12T14:51:10.978Z</time></trkpt><trkpt lat="40.614555" lon="15.2706067"><ele>164.0</ele><time>2026-04-12T14:51:11.978Z</time></trkpt><trkpt lat="40.6145217" lon="15.2702433"><ele>169.0</ele><time>2026-04-12T14:51:12.978Z</time></trkpt><trkpt lat="40.6144867" lon="15.2698767"><ele>168.5</ele><time>2026-04-12T14:51:13.979Z</time></trkpt><trkpt lat="40.6144383" lon="15.269525"><ele>168.0</ele><time>2026-04-12T14:51:14.978Z</time></trkpt><trkpt lat="40.6143983" lon="15.2691517"><ele>166.0</ele><time>2026-04-12T14:51:15.978Z</time></trkpt><trkpt lat="40.6143533" lon="15.2687883"><ele>164.0</ele><time>2026-04-12T14:51:16.978Z</time></trkpt><trkpt lat="40.614305" lon="15.2684267"><ele>162.5</ele><time>2026-04-12T14:51:17.979Z</time></trkpt><trkpt lat="40.6142533" lon="15.2680567"><ele>161.0</ele><time>2026-04-12T14:51:18.978Z</time></trkpt><trkpt lat="40.6142" lon="15.2676933"><ele>161.0</ele><time>2026-04-12T14:51:19.978Z</time></trkpt><trkpt lat="40.61415" lon="15.2673333"><ele>161.0</ele><time>2026-04-12T14:51:20.978Z</time></trkpt><trkpt lat="40.6140967" lon="15.2669717"><ele>160.5</ele><time>2026-04-12T14:51:21.978Z</time></trkpt><trkpt lat="40.6140467" lon="15.2666067"><ele>160.0</ele><time>2026-04-12T14:51:22.978Z</time></trkpt><trkpt lat="40.614" lon="15.2662467"><ele>159.0</ele><time>2026-04-12T14:51:23.978Z</time></trkpt><trkpt lat="40.6139517" lon="15.2658833"><ele>158.0</ele><time>2026-04-12T14:51:24.978Z</time></trkpt><trkpt lat="40.6139" lon="15.2655183"><ele>158.0</ele><time>2026-04-12T14:51:25.979Z</time></trkpt><trkpt lat="40.6138483" lon="15.2651483"><ele>158.0</ele><time>2026-04-12T14:51:26.978Z</time></trkpt><trkpt lat="40.613795" lon="15.2647817"><ele>154.0</ele><time>2026-04-12T14:51:27.978Z</time></trkpt><trkpt lat="40.61374" lon="15.264405"><ele>150.0</ele><time>2026-04-12T14:51:28.978Z</time></trkpt><trkpt lat="40.6136833" lon="15.264035"><ele>145.0</ele><time>2026-04-12T14:51:29.978Z</time></trkpt><trkpt lat="40.6136317" lon="15.2636567"><ele>140.0</ele><time>2026-04-12T14:51:30.978Z</time></trkpt><trkpt lat="40.6135783" lon="15.2632783"><ele>141.5</ele><time>2026-04-12T14:51:31.978Z</time></trkpt><trkpt lat="40.6135283" lon="15.2628983"><ele>143.0</ele><time>2026-04-12T14:51:32.978Z</time></trkpt><trkpt lat="40.6134783" lon="15.2625183"><ele>142.0</ele><time>2026-04-12T14:51:33.978Z</time></trkpt><trkpt lat="40.6134233" lon="15.2621333"><ele>141.0</ele><time>2026-04-12T14:51:34.978Z</time></trkpt><trkpt lat="40.6133733" lon="15.2617517"><ele>136.5</ele><time>2026-04-12T14:51:35.978Z</time></trkpt><trkpt lat="40.6133217" lon="15.2613633"><ele>132.0</ele><time>2026-04-12T14:51:36.978Z</time></trkpt><trkpt lat="40.613265" lon="15.2609833"><ele>123.0</ele><time>2026-04-12T14:51:37.978Z</time></trkpt><trkpt lat="40.6132167" lon="15.2606"><ele>114.0</ele><time>2026-04-12T14:51:38.978Z</time></trkpt><trkpt lat="40.6131617" lon="15.2602183"><ele>114.0</ele><time>2026-04-12T14:51:39.978Z</time></trkpt><trkpt lat="40.6131033" lon="15.2598367"><ele>114.0</ele><time>2026-04-12T14:51:40.978Z</time></trkpt><trkpt lat="40.613055" lon="15.25946"><ele>106.5</ele><time>2026-04-12T14:51:41.979Z</time></trkpt><trkpt lat="40.613005" lon="15.2590833"><ele>99.0</ele><time>2026-04-12T14:51:42.978Z</time></trkpt><trkpt lat="40.6129633" lon="15.2587083"><ele>97.0</ele><time>2026-04-12T14:51:43.978Z</time></trkpt><trkpt lat="40.6129183" lon="15.2583333"><ele>95.0</ele><time>2026-04-12T14:51:44.978Z</time></trkpt><trkpt lat="40.61288" lon="15.2579567"><ele>95.0</ele><time>2026-04-12T14:51:45.978Z</time></trkpt><trkpt lat="40.6128383" lon="15.257585"><ele>95.0</ele><time>2026-04-12T14:51:46.979Z</time></trkpt><trkpt lat="40.6128017" lon="15.2572083"><ele>96.5</ele><time>2026-04-12T14:51:47.978Z</time></trkpt><trkpt lat="40.6127717" lon="15.25684"><ele>98.0</ele><time>2026-04-12T14:51:48.978Z</time></trkpt><trkpt lat="40.61275" lon="15.25647"><ele>102.0</ele><time>2026-04-12T14:51:49.978Z</time></trkpt><trkpt lat="40.612735" lon="15.2560983"><ele>106.0</ele><time>2026-04-12T14:51:50.978Z</time></trkpt><trkpt lat="40.6127267" lon="15.255725"><ele>108.5</ele><time>2026-04-12T14:51:51.978Z</time></trkpt><trkpt lat="40.6127299" lon="15.2553497"><ele>111.0</ele><time>2026-04-12T14:51:52.978Z</time></trkpt><trkpt lat="40.6127418" lon="15.2549755"><ele>113.0</ele><time>2026-04-12T14:51:53.978Z</time></trkpt><trkpt lat="40.6127612" lon="15.2545967"><ele>115.0</ele><time>2026-04-12T14:51:54.978Z</time></trkpt><trkpt lat="40.6127872" lon="15.2542189"><ele>116.5</ele><time>2026-04-12T14:51:55.978Z</time></trkpt><trkpt lat="40.6128173" lon="15.2538405"><ele>118.0</ele><time>2026-04-12T14:51:56.978Z</time></trkpt><trkpt lat="40.6128526" lon="15.2534635"><ele>111.0</ele><time>2026-04-12T14:51:57.978Z</time></trkpt><trkpt lat="40.6128951" lon="15.2530885"><ele>104.0</ele><time>2026-04-12T14:51:58.978Z</time></trkpt><trkpt lat="40.6129542" lon="15.2527155"><ele>104.0</ele><time>2026-04-12T14:51:59.978Z</time></trkpt><trkpt lat="40.6130277" lon="15.2523481"><ele>104.0</ele><time>2026-04-12T14:52:00.979Z</time></trkpt><trkpt lat="40.6131146" lon="15.251981"><ele>107.0</ele><time>2026-04-12T14:52:01.979Z</time></trkpt><trkpt lat="40.6132115" lon="15.2516235"><ele>110.0</ele><time>2026-04-12T14:52:02.978Z</time></trkpt><trkpt lat="40.6133122" lon="15.2512675"><ele>116.5</ele><time>2026-04-12T14:52:03.978Z</time></trkpt><trkpt lat="40.6134253" lon="15.2509112"><ele>123.0</ele><time>2026-04-12T14:52:04.978Z</time></trkpt><trkpt lat="40.6135438" lon="15.2505697"><ele>122.5</ele><time>2026-04-12T14:52:05.978Z</time></trkpt><trkpt lat="40.6136654" lon="15.2502285"><ele>122.0</ele><time>2026-04-12T14:52:06.978Z</time></trkpt><trkpt lat="40.6137906" lon="15.2498846"><ele>134.5</ele><time>2026-04-12T14:52:07.978Z</time></trkpt><trkpt lat="40.6139186" lon="15.2495375"><ele>147.0</ele><time>2026-04-12T14:52:08.978Z</time></trkpt><trkpt lat="40.614045" lon="15.2491918"><ele>150.0</ele><time>2026-04-12T14:52:09.977Z</time></trkpt><trkpt lat="40.6141706" lon="15.2488464"><ele>153.0</ele><time>2026-04-12T14:52:10.977Z</time></trkpt><trkpt lat="40.6147864" lon="15.2471209"><ele>114.0</ele><time>2026-04-12T14:52:16.086Z</time></trkpt><trkpt lat="40.617445" lon="15.245315"><ele>114.0</ele><time>2026-04-12T14:52:26.977Z</time></trkpt><trkpt lat="40.6176443" lon="15.2451605"><ele>114.0</ele><time>2026-04-12T14:52:27.977Z</time></trkpt><trkpt lat="40.6178442" lon="15.245009"><ele>112.5</ele><time>2026-04-12T14:52:28.977Z</time></trkpt><trkpt lat="40.6180465" lon="15.2448559"><ele>111.0</ele><time>2026-04-12T14:52:29.977Z</time></trkpt><trkpt lat="40.6182529" lon="15.2447027"><ele>111.0</ele><time>2026-04-12T14:52:30.977Z</time></trkpt><trkpt lat="40.6184626" lon="15.2445502"><ele>111.0</ele><time>2026-04-12T14:52:31.977Z</time></trkpt><trkpt lat="40.6186761" lon="15.2443927"><ele>112.5</ele><time>2026-04-12T14:52:32.977Z</time></trkpt><trkpt lat="40.6188927" lon="15.2442355"><ele>114.0</ele><time>2026-04-12T14:52:33.978Z</time></trkpt><trkpt lat="40.6191049" lon="15.2440772"><ele>118.5</ele><time>2026-04-12T14:52:34.977Z</time></trkpt><trkpt lat="40.6193143" lon="15.2439248"><ele>123.0</ele><time>2026-04-12T14:52:35.978Z</time></trkpt><trkpt lat="40.6195251" lon="15.2437721"><ele>123.0</ele><time>2026-04-12T14:52:36.977Z</time></trkpt><trkpt lat="40.6197415" lon="15.2436164"><ele>123.0</ele><time>2026-04-12T14:52:37.977Z</time></trkpt><trkpt lat="40.6199607" lon="15.2434564"><ele>123.0</ele><time>2026-04-12T14:52:38.977Z</time></trkpt><trkpt lat="40.6201857" lon="15.2432876"><ele>123.0</ele><time>2026-04-12T14:52:39.978Z</time></trkpt><trkpt lat="40.6204261" lon="15.243125"><ele>129.5</ele><time>2026-04-12T14:52:40.977Z</time></trkpt><trkpt lat="40.6206596" lon="15.242963"><ele>136.0</ele><time>2026-04-12T14:52:41.977Z</time></trkpt><trkpt lat="40.6208916" lon="15.2428"><ele>143.0</ele><time>2026-04-12T14:52:42.977Z</time></trkpt><trkpt lat="40.6219977" lon="15.2419828"><ele>113.0</ele><time>2026-04-12T14:52:48.084Z</time></trkpt><trkpt lat="40.626825" lon="15.2373683"><ele>108.5</ele><time>2026-04-12T14:53:10.977Z</time></trkpt><trkpt lat="40.6269803" lon="15.2370874"><ele>104.0</ele><time>2026-04-12T14:53:11.977Z</time></trkpt><trkpt lat="40.6271307" lon="15.2368097"><ele>104.0</ele><time>2026-04-12T14:53:12.977Z</time></trkpt><trkpt lat="40.627272" lon="15.2365272"><ele>104.0</ele><time>2026-04-12T14:53:13.977Z</time></trkpt><trkpt lat="40.6274045" lon="15.2362361"><ele>105.5</ele><time>2026-04-12T14:53:14.977Z</time></trkpt><trkpt lat="40.6275283" lon="15.2359423"><ele>107.0</ele><time>2026-04-12T14:53:15.977Z</time></trkpt><trkpt lat="40.6276485" lon="15.235644"><ele>110.0</ele><time>2026-04-12T14:53:16.977Z</time></trkpt><trkpt lat="40.6277635" lon="15.2353436"><ele>113.0</ele><time>2026-04-12T14:53:17.977Z</time></trkpt><trkpt lat="40.6278716" lon="15.2350426"><ele>109.5</ele><time>2026-04-12T14:53:18.977Z</time></trkpt><trkpt lat="40.6279726" lon="15.2347356"><ele>106.0</ele><time>2026-04-12T14:53:19.977Z</time></trkpt><trkpt lat="40.6280693" lon="15.2344257"><ele>106.0</ele><time>2026-04-12T14:53:20.977Z</time></trkpt><trkpt lat="40.6281636" lon="15.2341135"><ele>106.0</ele><time>2026-04-12T14:53:21.977Z</time></trkpt><trkpt lat="40.6282539" lon="15.2337943"><ele>106.5</ele><time>2026-04-12T14:53:22.977Z</time></trkpt><trkpt lat="40.628332" lon="15.2334708"><ele>107.0</ele><time>2026-04-12T14:53:23.977Z</time></trkpt><trkpt lat="40.6283998" lon="15.2331397"><ele>106.5</ele><time>2026-04-12T14:53:24.977Z</time></trkpt><trkpt lat="40.6284548" lon="15.2328122"><ele>106.0</ele><time>2026-04-12T14:53:25.977Z</time></trkpt><trkpt lat="40.6285131" lon="15.2324761"><ele>106.0</ele><time>2026-04-12T14:53:26.978Z</time></trkpt><trkpt lat="40.6285612" lon="15.2321404"><ele>106.0</ele><time>2026-04-12T14:53:27.977Z</time></trkpt><trkpt lat="40.6286013" lon="15.2318106"><ele>106.0</ele><time>2026-04-12T14:53:28.977Z</time></trkpt><trkpt lat="40.6286344" lon="15.231485"><ele>106.0</ele><time>2026-04-12T14:53:29.977Z</time></trkpt><trkpt lat="40.628659" lon="15.2311633"><ele>104.5</ele><time>2026-04-12T14:53:30.977Z</time></trkpt><trkpt lat="40.6286789" lon="15.2308427"><ele>103.0</ele><time>2026-04-12T14:53:31.977Z</time></trkpt><trkpt lat="40.6286951" lon="15.2305243"><ele>100.0</ele><time>2026-04-12T14:53:32.977Z</time></trkpt><trkpt lat="40.6287107" lon="15.2302024"><ele>97.0</ele><time>2026-04-12T14:53:33.977Z</time></trkpt><trkpt lat="40.6287175" lon="15.2298817"><ele>92.5</ele><time>2026-04-12T14:53:34.978Z</time></trkpt><trkpt lat="40.628724" lon="15.2295611"><ele>88.0</ele><time>2026-04-12T14:53:35.977Z</time></trkpt><trkpt lat="40.6287309" lon="15.2292382"><ele>83.0</ele><time>2026-04-12T14:53:36.977Z</time></trkpt><trkpt lat="40.6287374" lon="15.2289108"><ele>78.0</ele><time>2026-04-12T14:53:37.977Z</time></trkpt><trkpt lat="40.6287477" lon="15.2285836"><ele>78.0</ele><time>2026-04-12T14:53:38.977Z</time></trkpt><trkpt lat="40.628759" lon="15.2282564"><ele>78.0</ele><time>2026-04-12T14:53:39.977Z</time></trkpt><trkpt lat="40.6287669" lon="15.2279265"><ele>76.0</ele><time>2026-04-12T14:53:40.977Z</time></trkpt><trkpt lat="40.6287763" lon="15.2275947"><ele>74.0</ele><time>2026-04-12T14:53:41.978Z</time></trkpt><trkpt lat="40.6287814" lon="15.2272614"><ele>73.5</ele><time>2026-04-12T14:53:42.978Z</time></trkpt><trkpt lat="40.6287888" lon="15.2269268"><ele>73.0</ele><time>2026-04-12T14:53:43.977Z</time></trkpt><trkpt lat="40.6287933" lon="15.2265955"><ele>72.5</ele><time>2026-04-12T14:53:44.977Z</time></trkpt><trkpt lat="40.6288017" lon="15.2262604"><ele>72.0</ele><time>2026-04-12T14:53:45.977Z</time></trkpt><trkpt lat="40.6288101" lon="15.225929"><ele>73.0</ele><time>2026-04-12T14:53:46.977Z</time></trkpt><trkpt lat="40.6288185" lon="15.2255991"><ele>74.0</ele><time>2026-04-12T14:53:47.977Z</time></trkpt><trkpt lat="40.6288196" lon="15.2252711"><ele>74.0</ele><time>2026-04-12T14:53:48.977Z</time></trkpt><trkpt lat="40.6288211" lon="15.2249433"><ele>74.0</ele><time>2026-04-12T14:53:49.977Z</time></trkpt><trkpt lat="40.6288239" lon="15.2246177"><ele>72.5</ele><time>2026-04-12T14:53:50.977Z</time></trkpt><trkpt lat="40.6288295" lon="15.2242901"><ele>71.0</ele><time>2026-04-12T14:53:51.977Z</time></trkpt><trkpt lat="40.6288371" lon="15.2239618"><ele>74.0</ele><time>2026-04-12T14:53:52.977Z</time></trkpt><trkpt lat="40.6288441" lon="15.223637"><ele>77.0</ele><time>2026-04-12T14:53:53.977Z</time></trkpt><trkpt lat="40.6288518" lon="15.2233121"><ele>80.0</ele><time>2026-04-12T14:53:54.977Z</time></trkpt><trkpt lat="40.6288614" lon="15.2229889"><ele>83.0</ele><time>2026-04-12T14:53:55.977Z</time></trkpt><trkpt lat="40.6288676" lon="15.222668"><ele>83.0</ele><time>2026-04-12T14:53:56.977Z</time></trkpt><trkpt lat="40.6288729" lon="15.2223561"><ele>83.0</ele><time>2026-04-12T14:53:57.977Z</time></trkpt><trkpt lat="40.628879" lon="15.2220482"><ele>88.5</ele><time>2026-04-12T14:53:58.977Z</time></trkpt><trkpt lat="40.6288822" lon="15.2217462"><ele>94.0</ele><time>2026-04-12T14:53:59.977Z</time></trkpt><trkpt lat="40.6288794" lon="15.2214437"><ele>103.0</ele><time>2026-04-12T14:54:00.977Z</time></trkpt><trkpt lat="40.6288659" lon="15.2211348"><ele>112.0</ele><time>2026-04-12T14:54:01.977Z</time></trkpt><trkpt lat="40.6288531" lon="15.2208361"><ele>117.0</ele><time>2026-04-12T14:54:02.977Z</time></trkpt><trkpt lat="40.6288406" lon="15.2205342"><ele>122.0</ele><time>2026-04-12T14:54:03.977Z</time></trkpt><trkpt lat="40.6288174" lon="15.2202474"><ele>127.0</ele><time>2026-04-12T14:54:04.977Z</time></trkpt><trkpt lat="40.6287747" lon="15.2187433"><ele>75.0</ele><time>2026-04-12T14:54:10.074Z</time></trkpt><trkpt lat="40.6277633" lon="15.2070133"><ele>75.0</ele><time>2026-04-12T14:54:43.975Z</time></trkpt><trkpt lat="40.6276823" lon="15.2066511"><ele>75.0</ele><time>2026-04-12T14:54:44.975Z</time></trkpt><trkpt lat="40.6276081" lon="15.2063042"><ele>79.5</ele><time>2026-04-12T14:54:45.976Z</time></trkpt><trkpt lat="40.6275317" lon="15.2059531"><ele>84.0</ele><time>2026-04-12T14:54:46.975Z</time></trkpt><trkpt lat="40.6274572" lon="15.2056055"><ele>90.5</ele><time>2026-04-12T14:54:47.975Z</time></trkpt><trkpt lat="40.6273788" lon="15.2052613"><ele>97.0</ele><time>2026-04-12T14:54:48.975Z</time></trkpt><trkpt lat="40.6272941" lon="15.2049216"><ele>102.5</ele><time>2026-04-12T14:54:49.975Z</time></trkpt><trkpt lat="40.6272089" lon="15.2045843"><ele>108.0</ele><time>2026-04-12T14:54:50.975Z</time></trkpt><trkpt lat="40.6271124" lon="15.2042501"><ele>110.5</ele><time>2026-04-12T14:54:51.975Z</time></trkpt><trkpt lat="40.6270214" lon="15.2039167"><ele>113.0</ele><time>2026-04-12T14:54:52.975Z</time></trkpt><trkpt lat="40.6264054" lon="15.197987"><ele>96.5</ele><time>2026-04-12T14:55:09.974Z</time></trkpt><trkpt lat="40.6264217" lon="15.1976465"><ele>80.0</ele><time>2026-04-12T14:55:10.974Z</time></trkpt><trkpt lat="40.6264447" lon="15.1972949"><ele>80.0</ele><time>2026-04-12T14:55:11.974Z</time></trkpt><trkpt lat="40.6264717" lon="15.1969484"><ele>80.0</ele><time>2026-04-12T14:55:12.974Z</time></trkpt><trkpt lat="40.6265007" lon="15.1966061"><ele>79.0</ele><time>2026-04-12T14:55:13.974Z</time></trkpt><trkpt lat="40.6265308" lon="15.1962648"><ele>78.0</ele><time>2026-04-12T14:55:14.974Z</time></trkpt><trkpt lat="40.6265655" lon="15.1959274"><ele>76.0</ele><time>2026-04-12T14:55:15.974Z</time></trkpt><trkpt lat="40.626604" lon="15.1955949"><ele>74.0</ele><time>2026-04-12T14:55:16.974Z</time></trkpt><trkpt lat="40.6266459" lon="15.1952662"><ele>74.0</ele><time>2026-04-12T14:55:17.974Z</time></trkpt><trkpt lat="40.6266875" lon="15.1949412"><ele>74.0</ele><time>2026-04-12T14:55:18.974Z</time></trkpt><trkpt lat="40.6267291" lon="15.1946184"><ele>73.0</ele><time>2026-04-12T14:55:19.974Z</time></trkpt><trkpt lat="40.6267767" lon="15.1942944"><ele>72.0</ele><time>2026-04-12T14:55:20.974Z</time></trkpt><trkpt lat="40.6268226" lon="15.1939682"><ele>70.5</ele><time>2026-04-12T14:55:21.974Z</time></trkpt><trkpt lat="40.6268688" lon="15.1936382"><ele>69.0</ele><time>2026-04-12T14:55:22.974Z</time></trkpt><trkpt lat="40.6269157" lon="15.1933035"><ele>70.5</ele><time>2026-04-12T14:55:23.974Z</time></trkpt><trkpt lat="40.62696" lon="15.1929703"><ele>72.0</ele><time>2026-04-12T14:55:24.974Z</time></trkpt><trkpt lat="40.627005" lon="15.1926365"><ele>71.0</ele><time>2026-04-12T14:55:25.974Z</time></trkpt><trkpt lat="40.627051" lon="15.1923031"><ele>70.0</ele><time>2026-04-12T14:55:26.974Z</time></trkpt><trkpt lat="40.6270953" lon="15.191972"><ele>70.0</ele><time>2026-04-12T14:55:27.975Z</time></trkpt><trkpt lat="40.6271325" lon="15.1916393"><ele>70.0</ele><time>2026-04-12T14:55:28.974Z</time></trkpt><trkpt lat="40.6271636" lon="15.191306"><ele>69.5</ele><time>2026-04-12T14:55:29.974Z</time></trkpt><trkpt lat="40.6271961" lon="15.1909713"><ele>69.0</ele><time>2026-04-12T14:55:30.974Z</time></trkpt><trkpt lat="40.6272208" lon="15.1906334"><ele>68.5</ele><time>2026-04-12T14:55:31.974Z</time></trkpt><trkpt lat="40.6272386" lon="15.1902935"><ele>68.0</ele><time>2026-04-12T14:55:32.974Z</time></trkpt><trkpt lat="40.6272518" lon="15.189953"><ele>66.0</ele><time>2026-04-12T14:55:33.974Z</time></trkpt><trkpt lat="40.6272615" lon="15.1896091"><ele>64.0</ele><time>2026-04-12T14:55:34.974Z</time></trkpt><trkpt lat="40.6272665" lon="15.1892667"><ele>64.0</ele><time>2026-04-12T14:55:35.974Z</time></trkpt><trkpt lat="40.6272703" lon="15.1889235"><ele>64.0</ele><time>2026-04-12T14:55:36.974Z</time></trkpt><trkpt lat="40.6272652" lon="15.1885854"><ele>64.0</ele><time>2026-04-12T14:55:37.974Z</time></trkpt><trkpt lat="40.6272577" lon="15.1882461"><ele>64.0</ele><time>2026-04-12T14:55:38.974Z</time></trkpt><trkpt lat="40.6272436" lon="15.1879114"><ele>64.5</ele><time>2026-04-12T14:55:39.974Z</time></trkpt><trkpt lat="40.627225" lon="15.1875754"><ele>65.0</ele><time>2026-04-12T14:55:40.974Z</time></trkpt><trkpt lat="40.6271959" lon="15.1872393"><ele>66.0</ele><time>2026-04-12T14:55:41.974Z</time></trkpt><trkpt lat="40.6271588" lon="15.1869045"><ele>67.0</ele><time>2026-04-12T14:55:42.974Z</time></trkpt><trkpt lat="40.6271149" lon="15.1865675"><ele>67.0</ele><time>2026-04-12T14:55:43.974Z</time></trkpt><trkpt lat="40.6270616" lon="15.186236"><ele>67.0</ele><time>2026-04-12T14:55:44.974Z</time></trkpt><trkpt lat="40.6270082" lon="15.1859032"><ele>66.0</ele><time>2026-04-12T14:55:45.974Z</time></trkpt><trkpt lat="40.6269477" lon="15.1855727"><ele>65.0</ele><time>2026-04-12T14:55:46.974Z</time></trkpt><trkpt lat="40.62688" lon="15.1852427"><ele>65.0</ele><time>2026-04-12T14:55:47.974Z</time></trkpt><trkpt lat="40.6268084" lon="15.1849109"><ele>65.0</ele><time>2026-04-12T14:55:48.974Z</time></trkpt><trkpt lat="40.6267332" lon="15.1845811"><ele>67.0</ele><time>2026-04-12T14:55:49.974Z</time></trkpt><trkpt lat="40.6266507" lon="15.1842528"><ele>69.0</ele><time>2026-04-12T14:55:50.975Z</time></trkpt><trkpt lat="40.6265592" lon="15.1839348"><ele>71.0</ele><time>2026-04-12T14:55:51.974Z</time></trkpt><trkpt lat="40.6264628" lon="15.1836189"><ele>73.0</ele><time>2026-04-12T14:55:52.974Z</time></trkpt><trkpt lat="40.626357" lon="15.1833086"><ele>72.0</ele><time>2026-04-12T14:55:53.974Z</time></trkpt><trkpt lat="40.6262484" lon="15.1830114"><ele>71.0</ele><time>2026-04-12T14:55:54.974Z</time></trkpt><trkpt lat="40.6261357" lon="15.1827166"><ele>68.5</ele><time>2026-04-12T14:55:55.974Z</time></trkpt><trkpt lat="40.6260158" lon="15.1824207"><ele>66.0</ele><time>2026-04-12T14:55:56.974Z</time></trkpt><trkpt lat="40.6258947" lon="15.1821314"><ele>66.0</ele><time>2026-04-12T14:55:57.974Z</time></trkpt><trkpt lat="40.6257676" lon="15.1818487"><ele>66.0</ele><time>2026-04-12T14:55:58.974Z</time></trkpt><trkpt lat="40.6256359" lon="15.1815701"><ele>66.5</ele><time>2026-04-12T14:55:59.974Z</time></trkpt><trkpt lat="40.6254973" lon="15.1812904"><ele>67.0</ele><time>2026-04-12T14:56:00.974Z</time></trkpt><trkpt lat="40.625352" lon="15.1810164"><ele>69.0</ele><time>2026-04-12T14:56:01.974Z</time></trkpt><trkpt lat="40.6252019" lon="15.1807448"><ele>71.0</ele><time>2026-04-12T14:56:02.975Z</time></trkpt><trkpt lat="40.6250521" lon="15.1804712"><ele>74.5</ele><time>2026-04-12T14:56:03.974Z</time></trkpt><trkpt lat="40.6249089" lon="15.1801937"><ele>78.0</ele><time>2026-04-12T14:56:04.974Z</time></trkpt><trkpt lat="40.6247683" lon="15.1799153"><ele>83.5</ele><time>2026-04-12T14:56:05.974Z</time></trkpt><trkpt lat="40.6246346" lon="15.1796526"><ele>89.0</ele><time>2026-04-12T14:56:06.974Z</time></trkpt><trkpt lat="40.6244991" lon="15.1793747"><ele>88.5</ele><time>2026-04-12T14:56:07.974Z</time></trkpt><trkpt lat="40.6243669" lon="15.1790876"><ele>88.0</ele><time>2026-04-12T14:56:08.974Z</time></trkpt><trkpt lat="40.6242305" lon="15.1787991"><ele>94.0</ele><time>2026-04-12T14:56:09.974Z</time></trkpt><trkpt lat="40.6240873" lon="15.1785204"><ele>100.0</ele><time>2026-04-12T14:56:10.974Z</time></trkpt><trkpt lat="40.6233667" lon="15.1771268"><ele>58.0</ele><time>2026-04-12T14:56:16.08Z</time></trkpt><trkpt lat="40.6193317" lon="15.1707367"><ele>57.5</ele><time>2026-04-12T14:56:37.979Z</time></trkpt><trkpt lat="40.6191933" lon="15.170405"><ele>57.0</ele><time>2026-04-12T14:56:38.979Z</time></trkpt><trkpt lat="40.6190683" lon="15.170065"><ele>56.5</ele><time>2026-04-12T14:56:39.979Z</time></trkpt><trkpt lat="40.61895" lon="15.1697267"><ele>56.0</ele><time>2026-04-12T14:56:40.979Z</time></trkpt><trkpt lat="40.618845" lon="15.1693917"><ele>56.0</ele><time>2026-04-12T14:56:41.979Z</time></trkpt><trkpt lat="40.6187367" lon="15.169055"><ele>56.0</ele><time>2026-04-12T14:56:42.979Z</time></trkpt><trkpt lat="40.6186267" lon="15.1687083"><ele>53.5</ele><time>2026-04-12T14:56:43.979Z</time></trkpt><trkpt lat="40.6185133" lon="15.1683767"><ele>51.0</ele><time>2026-04-12T14:56:44.979Z</time></trkpt><trkpt lat="40.6184167" lon="15.1680617"><ele>51.0</ele><time>2026-04-12T14:56:45.979Z</time></trkpt><trkpt lat="40.6183383" lon="15.16777"><ele>51.0</ele><time>2026-04-12T14:56:46.979Z</time></trkpt><trkpt lat="40.6182917" lon="15.1674933"><ele>51.33333333333333</ele><time>2026-04-12T14:56:47.979Z</time></trkpt><trkpt lat="40.61826" lon="15.16722"><ele>51.666666666666664</ele><time>2026-04-12T14:56:48.979Z</time></trkpt><trkpt lat="40.618235" lon="15.1669667"><ele>52.0</ele><time>2026-04-12T14:56:49.979Z</time></trkpt><trkpt lat="40.6182017" lon="15.1667233"><ele>51.5</ele><time>2026-04-12T14:56:50.979Z</time></trkpt><trkpt lat="40.61815" lon="15.1665067"><ele>51.0</ele><time>2026-04-12T14:56:51.98Z</time></trkpt><trkpt lat="40.6181133" lon="15.1663283"><ele>50.5</ele><time>2026-04-12T14:56:52.979Z</time></trkpt><trkpt lat="40.6180833" lon="15.166175"><ele>50.0</ele><time>2026-04-12T14:56:53.979Z</time></trkpt><trkpt lat="40.6180617" lon="15.1660533"><ele>50.00000000000001</ele><time>2026-04-12T14:56:54.979Z</time></trkpt><trkpt lat="40.61805" lon="15.1659483"><ele>50.0</ele><time>2026-04-12T14:56:55.979Z</time></trkpt><trkpt lat="40.618065" lon="15.1658617"><ele>50.0</ele><time>2026-04-12T14:56:56.979Z</time></trkpt><trkpt lat="40.618135" lon="15.1657733"><ele>50.0</ele><time>2026-04-12T14:56:58.979Z</time></trkpt><trkpt lat="40.618205" lon="15.1657033"><ele>50.00000000000001</ele><time>2026-04-12T14:57:01.979Z</time></trkpt><trkpt lat="40.6182533" lon="15.165635"><ele>50.0</ele><time>2026-04-12T14:57:04.979Z</time></trkpt><trkpt lat="40.6182783" lon="15.1655417"><ele>50.16666666666667</ele><time>2026-04-12T14:57:07.979Z</time></trkpt><trkpt lat="40.6182867" lon="15.1654483"><ele>50.333333333333336</ele><time>2026-04-12T14:57:10.979Z</time></trkpt><trkpt lat="40.618255" lon="15.1653583"><ele>50.5</ele><time>2026-04-12T14:57:16.979Z</time></trkpt><trkpt lat="40.6182017" lon="15.1652617"><ele>50.66666666666667</ele><time>2026-04-12T15:20:04.977Z</time></trkpt><trkpt lat="40.6181233" lon="15.1652217"><ele>50.833333333333336</ele><time>2026-04-12T15:20:06.977Z</time></trkpt><trkpt lat="40.61804" lon="15.16522"><ele>51.0</ele><time>2026-04-12T15:20:08.977Z</time></trkpt><trkpt lat="40.6179433" lon="15.1652017"><ele>51.0</ele><time>2026-04-12T15:20:10.977Z</time></trkpt><trkpt lat="40.617845" lon="15.1651"><ele>51.0</ele><time>2026-04-12T15:20:12.977Z</time></trkpt><trkpt lat="40.6177917" lon="15.1650417"><ele>51.0</ele><time>2026-04-12T15:20:13.977Z</time></trkpt><trkpt lat="40.6177417" lon="15.1649683"><ele>51.0</ele><time>2026-04-12T15:20:14.977Z</time></trkpt><trkpt lat="40.617695" lon="15.1648867"><ele>51.0</ele><time>2026-04-12T15:20:15.977Z</time></trkpt><trkpt lat="40.617655" lon="15.1647917"><ele>51.0</ele><time>2026-04-12T15:20:16.977Z</time></trkpt><trkpt lat="40.61761" lon="15.1646917"><ele>51.0</ele><time>2026-04-12T15:20:17.977Z</time></trkpt><trkpt lat="40.61756" lon="15.1645783"><ele>51.0</ele><time>2026-04-12T15:20:18.977Z</time></trkpt><trkpt lat="40.617505" lon="15.16446"><ele>51.0</ele><time>2026-04-12T15:20:19.977Z</time></trkpt><trkpt lat="40.6174517" lon="15.16433"><ele>51.0</ele><time>2026-04-12T15:20:20.977Z</time></trkpt><trkpt lat="40.6173983" lon="15.164185"><ele>51.0</ele><time>2026-04-12T15:20:21.977Z</time></trkpt><trkpt lat="40.61735" lon="15.1640367"><ele>51.5</ele><time>2026-04-12T15:20:22.977Z</time></trkpt><trkpt lat="40.6173033" lon="15.163885"><ele>52.0</ele><time>2026-04-12T15:20:23.977Z</time></trkpt><trkpt lat="40.6172583" lon="15.1637233"><ele>52.5</ele><time>2026-04-12T15:20:24.977Z</time></trkpt><trkpt lat="40.6172183" lon="15.1635633"><ele>53.0</ele><time>2026-04-12T15:20:25.977Z</time></trkpt><trkpt lat="40.6171767" lon="15.1634133"><ele>53.0</ele><time>2026-04-12T15:20:26.977Z</time></trkpt><trkpt lat="40.6171383" lon="15.163265"><ele>53.0</ele><time>2026-04-12T15:20:27.977Z</time></trkpt><trkpt lat="40.617095" lon="15.1631117"><ele>53.0</ele><time>2026-04-12T15:20:28.977Z</time></trkpt><trkpt lat="40.617045" lon="15.162945"><ele>53.0</ele><time>2026-04-12T15:20:29.977Z</time></trkpt><trkpt lat="40.6169917" lon="15.1627667"><ele>53.0</ele><time>2026-04-12T15:20:30.977Z</time></trkpt><trkpt lat="40.6169333" lon="15.1625783"><ele>53.0</ele><time>2026-04-12T15:20:31.977Z</time></trkpt><trkpt lat="40.616875" lon="15.1623733"><ele>53.0</ele><time>2026-04-12T15:20:32.977Z</time></trkpt><trkpt lat="40.6168133" lon="15.1621567"><ele>53.0</ele><time>2026-04-12T15:20:33.977Z</time></trkpt><trkpt lat="40.616755" lon="15.1619317"><ele>53.0</ele><time>2026-04-12T15:20:34.977Z</time></trkpt><trkpt lat="40.6166933" lon="15.161705"><ele>53.0</ele><time>2026-04-12T15:20:35.978Z</time></trkpt><trkpt lat="40.61663" lon="15.161465"><ele>53.0</ele><time>2026-04-12T15:20:36.977Z</time></trkpt><trkpt lat="40.6165617" lon="15.1612183"><ele>53.0</ele><time>2026-04-12T15:20:37.977Z</time></trkpt><trkpt lat="40.616495" lon="15.1609683"><ele>53.0</ele><time>2026-04-12T15:20:38.977Z</time></trkpt><trkpt lat="40.616425" lon="15.1607083"><ele>52.66666666666667</ele><time>2026-04-12T15:20:39.977Z</time></trkpt><trkpt lat="40.6163533" lon="15.1604483"><ele>52.33333333333333</ele><time>2026-04-12T15:20:40.977Z</time></trkpt><trkpt lat="40.61628" lon="15.160185"><ele>52.0</ele><time>2026-04-12T15:20:41.977Z</time></trkpt><trkpt lat="40.6162067" lon="15.15992"><ele>51.666666666666664</ele><time>2026-04-12T15:20:42.977Z</time></trkpt><trkpt lat="40.6161317" lon="15.1596517"><ele>51.33333333333333</ele><time>2026-04-12T15:20:43.977Z</time></trkpt><trkpt lat="40.61606" lon="15.1593717"><ele>51.0</ele><time>2026-04-12T15:20:44.977Z</time></trkpt><trkpt lat="40.6159867" lon="15.1590933"><ele>50.5</ele><time>2026-04-12T15:20:45.977Z</time></trkpt><trkpt lat="40.6159133" lon="15.158805"><ele>50.0</ele><time>2026-04-12T15:20:46.977Z</time></trkpt><trkpt lat="40.6158383" lon="15.1585167"><ele>50.0</ele><time>2026-04-12T15:20:47.977Z</time></trkpt><trkpt lat="40.615765" lon="15.1582283"><ele>50.0</ele><time>2026-04-12T15:20:48.977Z</time></trkpt><trkpt lat="40.6156917" lon="15.1579383"><ele>50.0</ele><time>2026-04-12T15:20:49.977Z</time></trkpt><trkpt lat="40.6156167" lon="15.1576483"><ele>50.0</ele><time>2026-04-12T15:20:50.977Z</time></trkpt><trkpt lat="40.615535" lon="15.157355"><ele>50.0</ele><time>2026-04-12T15:20:51.977Z</time></trkpt><trkpt lat="40.6154667" lon="15.157065"><ele>50.0</ele><time>2026-04-12T15:20:52.978Z</time></trkpt><trkpt lat="40.6153883" lon="15.1567717"><ele>52.0</ele><time>2026-04-12T15:20:53.977Z</time></trkpt><trkpt lat="40.61531" lon="15.1564767"><ele>54.0</ele><time>2026-04-12T15:20:54.977Z</time></trkpt><trkpt lat="40.615225" lon="15.1561817"><ele>54.0</ele><time>2026-04-12T15:20:55.977Z</time></trkpt><trkpt lat="40.6151467" lon="15.1558867"><ele>54.0</ele><time>2026-04-12T15:20:56.977Z</time></trkpt><trkpt lat="40.6150717" lon="15.1555917"><ele>53.0</ele><time>2026-04-12T15:20:57.977Z</time></trkpt><trkpt lat="40.61499" lon="15.155295"><ele>52.0</ele><time>2026-04-12T15:20:58.977Z</time></trkpt><trkpt lat="40.6149133" lon="15.154995"><ele>53.5</ele><time>2026-04-12T15:20:59.977Z</time></trkpt><trkpt lat="40.6148333" lon="15.1546917"><ele>55.0</ele><time>2026-04-12T15:21:00.977Z</time></trkpt><trkpt lat="40.614755" lon="15.1543917"><ele>55.0</ele><time>2026-04-12T15:21:01.977Z</time></trkpt><trkpt lat="40.6146783" lon="15.15409"><ele>55.0</ele><time>2026-04-12T15:21:02.977Z</time></trkpt><trkpt lat="40.614595" lon="15.1537883"><ele>57.5</ele><time>2026-04-12T15:21:03.977Z</time></trkpt><trkpt lat="40.6145133" lon="15.1534817"><ele>60.0</ele><time>2026-04-12T15:21:04.977Z</time></trkpt><trkpt lat="40.6144283" lon="15.15318"><ele>60.0</ele><time>2026-04-12T15:21:05.977Z</time></trkpt><trkpt lat="40.6143417" lon="15.152875"><ele>60.0</ele><time>2026-04-12T15:21:06.977Z</time></trkpt><trkpt lat="40.6142667" lon="15.1525733"><ele>63.5</ele><time>2026-04-12T15:21:07.977Z</time></trkpt><trkpt lat="40.61419" lon="15.15227"><ele>67.0</ele><time>2026-04-12T15:21:08.977Z</time></trkpt><trkpt lat="40.614115" lon="15.15197"><ele>67.0</ele><time>2026-04-12T15:21:09.977Z</time></trkpt><trkpt lat="40.6140417" lon="15.1516667"><ele>67.0</ele><time>2026-04-12T15:21:10.977Z</time></trkpt><trkpt lat="40.6139683" lon="15.1513617"><ele>71.0</ele><time>2026-04-12T15:21:11.977Z</time></trkpt><trkpt lat="40.6139" lon="15.1510533"><ele>75.0</ele><time>2026-04-12T15:21:12.977Z</time></trkpt><trkpt lat="40.6138383" lon="15.150745"><ele>75.0</ele><time>2026-04-12T15:21:13.977Z</time></trkpt><trkpt lat="40.6137833" lon="15.150435"><ele>75.0</ele><time>2026-04-12T15:21:14.977Z</time></trkpt><trkpt lat="40.613745" lon="15.15012"><ele>75.5</ele><time>2026-04-12T15:21:15.977Z</time></trkpt><trkpt lat="40.6137083" lon="15.149805"><ele>76.0</ele><time>2026-04-12T15:21:16.977Z</time></trkpt><trkpt lat="40.6136767" lon="15.14949"><ele>70.0</ele><time>2026-04-12T15:21:17.977Z</time></trkpt><trkpt lat="40.6136483" lon="15.1491767"><ele>64.0</ele><time>2026-04-12T15:21:18.977Z</time></trkpt><trkpt lat="40.6136217" lon="15.1488633"><ele>64.0</ele><time>2026-04-12T15:21:19.977Z</time></trkpt><trkpt lat="40.613605" lon="15.1485517"><ele>64.0</ele><time>2026-04-12T15:21:20.977Z</time></trkpt><trkpt lat="40.6135983" lon="15.14823"><ele>63.0</ele><time>2026-04-12T15:21:21.977Z</time></trkpt><trkpt lat="40.613595" lon="15.1479083"><ele>62.0</ele><time>2026-04-12T15:21:22.977Z</time></trkpt><trkpt lat="40.6136" lon="15.147585"><ele>61.5</ele><time>2026-04-12T15:21:23.977Z</time></trkpt><trkpt lat="40.6136067" lon="15.147265"><ele>61.0</ele><time>2026-04-12T15:21:24.977Z</time></trkpt><trkpt lat="40.61362" lon="15.1469467"><ele>61.0</ele><time>2026-04-12T15:21:25.977Z</time></trkpt><trkpt lat="40.6136383" lon="15.14663"><ele>61.0</ele><time>2026-04-12T15:21:26.977Z</time></trkpt><trkpt lat="40.6136517" lon="15.1463083"><ele>64.0</ele><time>2026-04-12T15:21:27.977Z</time></trkpt><trkpt lat="40.613665" lon="15.145995"><ele>67.0</ele><time>2026-04-12T15:21:28.978Z</time></trkpt><trkpt lat="40.613675" lon="15.145675"><ele>67.0</ele><time>2026-04-12T15:21:29.977Z</time></trkpt><trkpt lat="40.6136833" lon="15.145355"><ele>67.0</ele><time>2026-04-12T15:21:30.977Z</time></trkpt><trkpt lat="40.6136867" lon="15.145035"><ele>67.0</ele><time>2026-04-12T15:21:31.977Z</time></trkpt><trkpt lat="40.61368" lon="15.1447133"><ele>67.0</ele><time>2026-04-12T15:21:32.978Z</time></trkpt><trkpt lat="40.6136733" lon="15.1443883"><ele>67.0</ele><time>2026-04-12T15:21:33.977Z</time></trkpt><trkpt lat="40.6136667" lon="15.1440633"><ele>67.0</ele><time>2026-04-12T15:21:34.977Z</time></trkpt><trkpt lat="40.6136483" lon="15.1437433"><ele>64.5</ele><time>2026-04-12T15:21:35.977Z</time></trkpt><trkpt lat="40.613625" lon="15.14342"><ele>62.0</ele><time>2026-04-12T15:21:36.977Z</time></trkpt><trkpt lat="40.6135917" lon="15.1430983"><ele>62.0</ele><time>2026-04-12T15:21:37.977Z</time></trkpt><trkpt lat="40.6135517" lon="15.1427767"><ele>62.0</ele><time>2026-04-12T15:21:38.977Z</time></trkpt><trkpt lat="40.6135067" lon="15.1424617"><ele>65.0</ele><time>2026-04-12T15:21:39.977Z</time></trkpt><trkpt lat="40.6134517" lon="15.1421517"><ele>68.0</ele><time>2026-04-12T15:21:40.977Z</time></trkpt><trkpt lat="40.613395" lon="15.1418433"><ele>71.5</ele><time>2026-04-12T15:21:41.977Z</time></trkpt><trkpt lat="40.61333" lon="15.141545"><ele>75.0</ele><time>2026-04-12T15:21:42.977Z</time></trkpt><trkpt lat="40.6132683" lon="15.1412433"><ele>75.0</ele><time>2026-04-12T15:21:43.977Z</time></trkpt><trkpt lat="40.613195" lon="15.140945"><ele>75.0</ele><time>2026-04-12T15:21:44.977Z</time></trkpt><trkpt lat="40.61312" lon="15.1406517"><ele>78.5</ele><time>2026-04-12T15:21:45.977Z</time></trkpt><trkpt lat="40.6130267" lon="15.1403633"><ele>82.0</ele><time>2026-04-12T15:21:46.977Z</time></trkpt><trkpt lat="40.6129367" lon="15.140075"><ele>83.0</ele><time>2026-04-12T15:21:47.977Z</time></trkpt><trkpt lat="40.61283" lon="15.13979"><ele>84.0</ele><time>2026-04-12T15:21:48.977Z</time></trkpt><trkpt lat="40.6127233" lon="15.1395117"><ele>80.0</ele><time>2026-04-12T15:21:49.977Z</time></trkpt><trkpt lat="40.612615" lon="15.139235"><ele>76.0</ele><time>2026-04-12T15:21:50.977Z</time></trkpt><trkpt lat="40.6125033" lon="15.1389533"><ele>76.0</ele><time>2026-04-12T15:21:51.977Z</time></trkpt><trkpt lat="40.6123883" lon="15.1386733"><ele>76.0</ele><time>2026-04-12T15:21:52.977Z</time></trkpt><trkpt lat="40.6122667" lon="15.1383967"><ele>77.5</ele><time>2026-04-12T15:21:53.978Z</time></trkpt><trkpt lat="40.6121433" lon="15.1381183"><ele>79.0</ele><time>2026-04-12T15:21:54.977Z</time></trkpt><trkpt lat="40.61203" lon="15.1378383"><ele>74.0</ele><time>2026-04-12T15:21:55.977Z</time></trkpt><trkpt lat="40.6119117" lon="15.1375633"><ele>69.0</ele><time>2026-04-12T15:21:56.977Z</time></trkpt><trkpt lat="40.6118" lon="15.137285"><ele>69.0</ele><time>2026-04-12T15:21:57.977Z</time></trkpt><trkpt lat="40.6116917" lon="15.1370083"><ele>69.0</ele><time>2026-04-12T15:21:58.977Z</time></trkpt><trkpt lat="40.6115667" lon="15.1367433"><ele>72.0</ele><time>2026-04-12T15:21:59.977Z</time></trkpt><trkpt lat="40.6114483" lon="15.1364767"><ele>75.0</ele><time>2026-04-12T15:22:00.977Z</time></trkpt><trkpt lat="40.6113333" lon="15.1361983"><ele>75.0</ele><time>2026-04-12T15:22:01.977Z</time></trkpt><trkpt lat="40.6112083" lon="15.13593"><ele>75.0</ele><time>2026-04-12T15:22:02.977Z</time></trkpt><trkpt lat="40.6110933" lon="15.135665"><ele>79.0</ele><time>2026-04-12T15:22:03.977Z</time></trkpt><trkpt lat="40.6109733" lon="15.135405"><ele>83.0</ele><time>2026-04-12T15:22:04.977Z</time></trkpt><trkpt lat="40.6108567" lon="15.13514"><ele>88.5</ele><time>2026-04-12T15:22:05.977Z</time></trkpt><trkpt lat="40.6107367" lon="15.1348683"><ele>94.0</ele><time>2026-04-12T15:22:06.977Z</time></trkpt><trkpt lat="40.61061" lon="15.1346017"><ele>94.0</ele><time>2026-04-12T15:22:07.977Z</time></trkpt><trkpt lat="40.6104817" lon="15.1343333"><ele>94.0</ele><time>2026-04-12T15:22:08.977Z</time></trkpt><trkpt lat="40.6103483" lon="15.1340733"><ele>97.5</ele><time>2026-04-12T15:22:09.978Z</time></trkpt><trkpt lat="40.6102117" lon="15.1338083"><ele>101.0</ele><time>2026-04-12T15:22:10.977Z</time></trkpt><trkpt lat="40.610075" lon="15.133515"><ele>101.0</ele><time>2026-04-12T15:22:11.977Z</time></trkpt><trkpt lat="40.6099433" lon="15.1332533"><ele>101.0</ele><time>2026-04-12T15:22:12.977Z</time></trkpt><trkpt lat="40.6098083" lon="15.132985"><ele>73.0</ele><time>2026-04-12T15:22:13.977Z</time></trkpt><trkpt lat="40.609005" lon="15.1310117"><ele>65.0</ele><time>2026-04-12T15:22:20.977Z</time></trkpt><trkpt lat="40.6089267" lon="15.1307167"><ele>57.0</ele><time>2026-04-12T15:22:21.978Z</time></trkpt><trkpt lat="40.60884" lon="15.1304267"><ele>57.0</ele><time>2026-04-12T15:22:22.977Z</time></trkpt><trkpt lat="40.6087433" lon="15.1301283"><ele>57.0</ele><time>2026-04-12T15:22:23.977Z</time></trkpt><trkpt lat="40.6086467" lon="15.12984"><ele>57.5</ele><time>2026-04-12T15:22:24.977Z</time></trkpt><trkpt lat="40.608555" lon="15.129555"><ele>58.0</ele><time>2026-04-12T15:22:25.977Z</time></trkpt><trkpt lat="40.608465" lon="15.1292667"><ele>68.5</ele><time>2026-04-12T15:22:26.978Z</time></trkpt><trkpt lat="40.6083783" lon="15.12898"><ele>79.0</ele><time>2026-04-12T15:22:27.977Z</time></trkpt><trkpt lat="40.6082967" lon="15.1286917"><ele>79.0</ele><time>2026-04-12T15:22:28.977Z</time></trkpt><trkpt lat="40.6082167" lon="15.1283983"><ele>79.0</ele><time>2026-04-12T15:22:29.977Z</time></trkpt><trkpt lat="40.6081417" lon="15.1281017"><ele>88.5</ele><time>2026-04-12T15:22:30.977Z</time></trkpt><trkpt lat="40.6080683" lon="15.1277983"><ele>98.0</ele><time>2026-04-12T15:22:31.977Z</time></trkpt><trkpt lat="40.6080033" lon="15.1275033"><ele>101.5</ele><time>2026-04-12T15:22:32.977Z</time></trkpt><trkpt lat="40.6079467" lon="15.1272017"><ele>105.0</ele><time>2026-04-12T15:22:33.977Z</time></trkpt><trkpt lat="40.6078933" lon="15.12689"><ele>105.0</ele><time>2026-04-12T15:22:34.977Z</time></trkpt><trkpt lat="40.60785" lon="15.1265817"><ele>105.0</ele><time>2026-04-12T15:22:35.977Z</time></trkpt><trkpt lat="40.6077967" lon="15.1262767"><ele>103.5</ele><time>2026-04-12T15:22:36.977Z</time></trkpt><trkpt lat="40.607755" lon="15.1259633"><ele>102.0</ele><time>2026-04-12T15:22:37.977Z</time></trkpt><trkpt lat="40.6077133" lon="15.1256567"><ele>102.0</ele><time>2026-04-12T15:22:38.977Z</time></trkpt><trkpt lat="40.6076767" lon="15.1253433"><ele>102.0</ele><time>2026-04-12T15:22:39.977Z</time></trkpt><trkpt lat="40.6076433" lon="15.12503"><ele>100.5</ele><time>2026-04-12T15:22:40.977Z</time></trkpt><trkpt lat="40.607615" lon="15.1247167"><ele>99.0</ele><time>2026-04-12T15:22:41.978Z</time></trkpt><trkpt lat="40.60758" lon="15.1244033"><ele>99.0</ele><time>2026-04-12T15:22:42.977Z</time></trkpt><trkpt lat="40.6075467" lon="15.1240917"><ele>99.0</ele><time>2026-04-12T15:22:43.977Z</time></trkpt><trkpt lat="40.6075183" lon="15.12378"><ele>94.0</ele><time>2026-04-12T15:22:44.977Z</time></trkpt><trkpt lat="40.6074883" lon="15.1234683"><ele>89.0</ele><time>2026-04-12T15:22:45.977Z</time></trkpt><trkpt lat="40.6074617" lon="15.123155"><ele>89.0</ele><time>2026-04-12T15:22:46.977Z</time></trkpt><trkpt lat="40.6074383" lon="15.1228417"><ele>89.0</ele><time>2026-04-12T15:22:47.977Z</time></trkpt><trkpt lat="40.6074167" lon="15.1225317"><ele>96.0</ele><time>2026-04-12T15:22:48.977Z</time></trkpt><trkpt lat="40.6073867" lon="15.1222217"><ele>103.0</ele><time>2026-04-12T15:22:49.977Z</time></trkpt><trkpt lat="40.607355" lon="15.12192"><ele>103.0</ele><time>2026-04-12T15:22:50.977Z</time></trkpt><trkpt lat="40.6073267" lon="15.1216133"><ele>103.0</ele><time>2026-04-12T15:22:51.977Z</time></trkpt><trkpt lat="40.607295" lon="15.1213017"><ele>104.5</ele><time>2026-04-12T15:22:52.977Z</time></trkpt><trkpt lat="40.60727" lon="15.120985"><ele>106.0</ele><time>2026-04-12T15:22:53.977Z</time></trkpt><trkpt lat="40.607245" lon="15.1206683"><ele>107.5</ele><time>2026-04-12T15:22:54.977Z</time></trkpt><trkpt lat="40.6072167" lon="15.1203533"><ele>109.0</ele><time>2026-04-12T15:22:55.977Z</time></trkpt><trkpt lat="40.6071917" lon="15.1200333"><ele>109.0</ele><time>2026-04-12T15:22:56.977Z</time></trkpt><trkpt lat="40.6071633" lon="15.119715"><ele>109.0</ele><time>2026-04-12T15:22:57.977Z</time></trkpt><trkpt lat="40.607135" lon="15.11939"><ele>109.0</ele><time>2026-04-12T15:22:58.978Z</time></trkpt><trkpt lat="40.6071067" lon="15.1190717"><ele>109.0</ele><time>2026-04-12T15:22:59.978Z</time></trkpt><trkpt lat="40.6070833" lon="15.11875"><ele>108.5</ele><time>2026-04-12T15:23:00.977Z</time></trkpt><trkpt lat="40.60705" lon="15.1184283"><ele>108.0</ele><time>2026-04-12T15:23:01.977Z</time></trkpt><trkpt lat="40.6070217" lon="15.1181067"><ele>108.0</ele><time>2026-04-12T15:23:02.977Z</time></trkpt><trkpt lat="40.60699" lon="15.11779"><ele>108.0</ele><time>2026-04-12T15:23:03.977Z</time></trkpt><trkpt lat="40.6069583" lon="15.1174667"><ele>106.5</ele><time>2026-04-12T15:23:04.977Z</time></trkpt><trkpt lat="40.60693" lon="15.11714"><ele>105.0</ele><time>2026-04-12T15:23:05.977Z</time></trkpt><trkpt lat="40.606905" lon="15.1168133"><ele>105.0</ele><time>2026-04-12T15:23:06.977Z</time></trkpt><trkpt lat="40.6068833" lon="15.116485"><ele>105.0</ele><time>2026-04-12T15:23:07.977Z</time></trkpt><trkpt lat="40.6068683" lon="15.1161533"><ele>105.0</ele><time>2026-04-12T15:23:08.977Z</time></trkpt><trkpt lat="40.6068467" lon="15.1158267"><ele>105.0</ele><time>2026-04-12T15:23:09.977Z</time></trkpt><trkpt lat="40.6068267" lon="15.1154983"><ele>106.0</ele><time>2026-04-12T15:23:10.978Z</time></trkpt><trkpt lat="40.606805" lon="15.1151667"><ele>107.0</ele><time>2026-04-12T15:23:11.977Z</time></trkpt><trkpt lat="40.6067883" lon="15.1148383"><ele>107.0</ele><time>2026-04-12T15:23:12.977Z</time></trkpt><trkpt lat="40.6067667" lon="15.114505"><ele>107.0</ele><time>2026-04-12T15:23:13.977Z</time></trkpt><trkpt lat="40.6067433" lon="15.1141717"><ele>107.0</ele><time>2026-04-12T15:23:14.977Z</time></trkpt><trkpt lat="40.6067217" lon="15.1138367"><ele>107.0</ele><time>2026-04-12T15:23:15.977Z</time></trkpt><trkpt lat="40.6067017" lon="15.1134983"><ele>107.0</ele><time>2026-04-12T15:23:16.978Z</time></trkpt><trkpt lat="40.6066867" lon="15.11316"><ele>107.0</ele><time>2026-04-12T15:23:17.977Z</time></trkpt><trkpt lat="40.6066683" lon="15.1128217"><ele>107.0</ele><time>2026-04-12T15:23:18.978Z</time></trkpt><trkpt lat="40.60665" lon="15.112485"><ele>107.0</ele><time>2026-04-12T15:23:19.977Z</time></trkpt><trkpt lat="40.6066317" lon="15.1121517"><ele>106.0</ele><time>2026-04-12T15:23:20.977Z</time></trkpt><trkpt lat="40.6066133" lon="15.1118233"><ele>105.0</ele><time>2026-04-12T15:23:21.977Z</time></trkpt><trkpt lat="40.606595" lon="15.11149"><ele>104.5</ele><time>2026-04-12T15:23:22.977Z</time></trkpt><trkpt lat="40.6065717" lon="15.1111533"><ele>104.0</ele><time>2026-04-12T15:23:23.977Z</time></trkpt><trkpt lat="40.606555" lon="15.1108133"><ele>104.5</ele><time>2026-04-12T15:23:24.978Z</time></trkpt><trkpt lat="40.6065367" lon="15.1104767"><ele>105.0</ele><time>2026-04-12T15:23:25.977Z</time></trkpt><trkpt lat="40.6065167" lon="15.1101433"><ele>104.5</ele><time>2026-04-12T15:23:26.978Z</time></trkpt><trkpt lat="40.606495" lon="15.109805"><ele>104.0</ele><time>2026-04-12T15:23:27.977Z</time></trkpt><trkpt lat="40.6064717" lon="15.1094617"><ele>104.0</ele><time>2026-04-12T15:23:28.977Z</time></trkpt><trkpt lat="40.6064533" lon="15.1091233"><ele>104.0</ele><time>2026-04-12T15:23:29.978Z</time></trkpt><trkpt lat="40.6064324" lon="15.1087845"><ele>102.0</ele><time>2026-04-12T15:23:30.977Z</time></trkpt><trkpt lat="40.6064122" lon="15.1084438"><ele>100.0</ele><time>2026-04-12T15:23:31.977Z</time></trkpt><trkpt lat="40.6063945" lon="15.1081036"><ele>98.5</ele><time>2026-04-12T15:23:32.977Z</time></trkpt><trkpt lat="40.6063741" lon="15.107767"><ele>97.0</ele><time>2026-04-12T15:23:33.977Z</time></trkpt><trkpt lat="40.6063553" lon="15.1074326"><ele>97.5</ele><time>2026-04-12T15:23:34.977Z</time></trkpt><trkpt lat="40.6063321" lon="15.1070958"><ele>98.0</ele><time>2026-04-12T15:23:35.977Z</time></trkpt><trkpt lat="40.6063121" lon="15.1067568"><ele>99.5</ele><time>2026-04-12T15:23:36.977Z</time></trkpt><trkpt lat="40.6062933" lon="15.1064172"><ele>101.0</ele><time>2026-04-12T15:23:37.977Z</time></trkpt><trkpt lat="40.6062737" lon="15.1060785"><ele>101.0</ele><time>2026-04-12T15:23:38.978Z</time></trkpt><trkpt lat="40.6062504" lon="15.1057411"><ele>101.0</ele><time>2026-04-12T15:23:39.977Z</time></trkpt><trkpt lat="40.6062315" lon="15.1054015"><ele>101.0</ele><time>2026-04-12T15:23:40.977Z</time></trkpt><trkpt lat="40.6062165" lon="15.1050603"><ele>101.0</ele><time>2026-04-12T15:23:41.977Z</time></trkpt><trkpt lat="40.6062029" lon="15.1047137"><ele>101.5</ele><time>2026-04-12T15:23:42.977Z</time></trkpt><trkpt lat="40.6061943" lon="15.1043669"><ele>102.0</ele><time>2026-04-12T15:23:43.977Z</time></trkpt><trkpt lat="40.606192" lon="15.1040188"><ele>100.5</ele><time>2026-04-12T15:23:44.977Z</time></trkpt><trkpt lat="40.6061975" lon="15.1036679"><ele>99.0</ele><time>2026-04-12T15:23:45.977Z</time></trkpt><trkpt lat="40.6062124" lon="15.1033211"><ele>97.0</ele><time>2026-04-12T15:23:46.977Z</time></trkpt><trkpt lat="40.6062348" lon="15.1029779"><ele>95.0</ele><time>2026-04-12T15:23:47.977Z</time></trkpt><trkpt lat="40.6062653" lon="15.1026385"><ele>94.5</ele><time>2026-04-12T15:23:48.978Z</time></trkpt><trkpt lat="40.6063003" lon="15.1022934"><ele>94.0</ele><time>2026-04-12T15:23:49.977Z</time></trkpt><trkpt lat="40.6063437" lon="15.1019534"><ele>94.0</ele><time>2026-04-12T15:23:50.977Z</time></trkpt><trkpt lat="40.6063931" lon="15.1016141"><ele>94.0</ele><time>2026-04-12T15:23:51.977Z</time></trkpt><trkpt lat="40.606448" lon="15.1012787"><ele>94.5</ele><time>2026-04-12T15:23:52.977Z</time></trkpt><trkpt lat="40.6065065" lon="15.1009459"><ele>95.0</ele><time>2026-04-12T15:23:53.977Z</time></trkpt><trkpt lat="40.6065719" lon="15.1006122"><ele>95.0</ele><time>2026-04-12T15:23:54.977Z</time></trkpt><trkpt lat="40.6066348" lon="15.1002754"><ele>95.0</ele><time>2026-04-12T15:23:55.977Z</time></trkpt><trkpt lat="40.6066958" lon="15.0999398"><ele>95.5</ele><time>2026-04-12T15:23:56.978Z</time></trkpt><trkpt lat="40.6067537" lon="15.0996093"><ele>96.0</ele><time>2026-04-12T15:23:57.977Z</time></trkpt><trkpt lat="40.6068096" lon="15.0992783"><ele>96.0</ele><time>2026-04-12T15:23:58.977Z</time></trkpt><trkpt lat="40.606873" lon="15.098949"><ele>96.0</ele><time>2026-04-12T15:23:59.977Z</time></trkpt><trkpt lat="40.606941" lon="15.0986207"><ele>95.5</ele><time>2026-04-12T15:24:00.977Z</time></trkpt><trkpt lat="40.6070129" lon="15.0982907"><ele>95.0</ele><time>2026-04-12T15:24:01.977Z</time></trkpt><trkpt lat="40.6070835" lon="15.0979635"><ele>95.0</ele><time>2026-04-12T15:24:02.977Z</time></trkpt><trkpt lat="40.6071558" lon="15.0976384"><ele>95.0</ele><time>2026-04-12T15:24:03.977Z</time></trkpt><trkpt lat="40.6072302" lon="15.0973126"><ele>95.5</ele><time>2026-04-12T15:24:04.978Z</time></trkpt><trkpt lat="40.6073088" lon="15.0969875"><ele>96.0</ele><time>2026-04-12T15:24:05.977Z</time></trkpt><trkpt lat="40.6073919" lon="15.0966653"><ele>96.0</ele><time>2026-04-12T15:24:06.977Z</time></trkpt><trkpt lat="40.6074823" lon="15.0963429"><ele>96.0</ele><time>2026-04-12T15:24:07.977Z</time></trkpt><trkpt lat="40.6075759" lon="15.0960243"><ele>96.0</ele><time>2026-04-12T15:24:08.977Z</time></trkpt><trkpt lat="40.6076728" lon="15.0957091"><ele>96.0</ele><time>2026-04-12T15:24:09.977Z</time></trkpt><trkpt lat="40.6077697" lon="15.095395"><ele>96.0</ele><time>2026-04-12T15:24:10.977Z</time></trkpt><trkpt lat="40.6078629" lon="15.0950807"><ele>96.0</ele><time>2026-04-12T15:24:11.977Z</time></trkpt><trkpt lat="40.6079633" lon="15.0947662"><ele>96.0</ele><time>2026-04-12T15:24:12.977Z</time></trkpt><trkpt lat="40.6080669" lon="15.0944547"><ele>96.0</ele><time>2026-04-12T15:24:13.978Z</time></trkpt><trkpt lat="40.6081715" lon="15.0941456"><ele>95.5</ele><time>2026-04-12T15:24:14.978Z</time></trkpt><trkpt lat="40.6082809" lon="15.0938397"><ele>95.0</ele><time>2026-04-12T15:24:15.977Z</time></trkpt><trkpt lat="40.6083899" lon="15.093533"><ele>94.5</ele><time>2026-04-12T15:24:16.977Z</time></trkpt><trkpt lat="40.6084995" lon="15.0932254"><ele>94.0</ele><time>2026-04-12T15:24:17.977Z</time></trkpt><trkpt lat="40.6086073" lon="15.092916"><ele>95.0</ele><time>2026-04-12T15:24:18.977Z</time></trkpt><trkpt lat="40.6087153" lon="15.0926037"><ele>96.0</ele><time>2026-04-12T15:24:19.977Z</time></trkpt><trkpt lat="40.6088155" lon="15.092294"><ele>97.0</ele><time>2026-04-12T15:24:20.977Z</time></trkpt><trkpt lat="40.6089176" lon="15.0919838"><ele>98.0</ele><time>2026-04-12T15:24:21.977Z</time></trkpt><trkpt lat="40.6090113" lon="15.0916684"><ele>97.0</ele><time>2026-04-12T15:24:22.977Z</time></trkpt><trkpt lat="40.6090999" lon="15.0913502"><ele>96.0</ele><time>2026-04-12T15:24:23.977Z</time></trkpt><trkpt lat="40.6091834" lon="15.0910273"><ele>96.0</ele><time>2026-04-12T15:24:24.977Z</time></trkpt><trkpt lat="40.6092586" lon="15.0907007"><ele>96.0</ele><time>2026-04-12T15:24:25.977Z</time></trkpt><trkpt lat="40.6093279" lon="15.0903732"><ele>96.0</ele><time>2026-04-12T15:24:26.977Z</time></trkpt><trkpt lat="40.6093901" lon="15.0900445"><ele>96.0</ele><time>2026-04-12T15:24:27.977Z</time></trkpt><trkpt lat="40.6094447" lon="15.0897118"><ele>95.5</ele><time>2026-04-12T15:24:28.977Z</time></trkpt><trkpt lat="40.6095" lon="15.0893756"><ele>95.0</ele><time>2026-04-12T15:24:29.977Z</time></trkpt><trkpt lat="40.609539" lon="15.0890373"><ele>94.5</ele><time>2026-04-12T15:24:30.977Z</time></trkpt><trkpt lat="40.6095731" lon="15.0886947"><ele>94.0</ele><time>2026-04-12T15:24:31.977Z</time></trkpt><trkpt lat="40.6096004" lon="15.0883522"><ele>92.5</ele><time>2026-04-12T15:24:32.977Z</time></trkpt><trkpt lat="40.6096235" lon="15.0880097"><ele>91.0</ele><time>2026-04-12T15:24:33.977Z</time></trkpt><trkpt lat="40.609648" lon="15.0876677"><ele>89.0</ele><time>2026-04-12T15:24:34.977Z</time></trkpt><trkpt lat="40.6096677" lon="15.0873272"><ele>87.0</ele><time>2026-04-12T15:24:35.977Z</time></trkpt><trkpt lat="40.6096855" lon="15.0869873"><ele>87.0</ele><time>2026-04-12T15:24:36.977Z</time></trkpt><trkpt lat="40.6097056" lon="15.0866486"><ele>87.0</ele><time>2026-04-12T15:24:37.977Z</time></trkpt><trkpt lat="40.6097213" lon="15.0863067"><ele>87.0</ele><time>2026-04-12T15:24:38.977Z</time></trkpt><trkpt lat="40.6097421" lon="15.0859665"><ele>87.0</ele><time>2026-04-12T15:24:39.978Z</time></trkpt><trkpt lat="40.6097612" lon="15.0856255"><ele>87.0</ele><time>2026-04-12T15:24:40.977Z</time></trkpt><trkpt lat="40.6097834" lon="15.0852892"><ele>87.0</ele><time>2026-04-12T15:24:41.977Z</time></trkpt><trkpt lat="40.609804" lon="15.0849542"><ele>88.5</ele><time>2026-04-12T15:24:42.977Z</time></trkpt><trkpt lat="40.6098217" lon="15.0846208"><ele>90.0</ele><time>2026-04-12T15:24:43.977Z</time></trkpt><trkpt lat="40.6098385" lon="15.0842901"><ele>90.0</ele><time>2026-04-12T15:24:44.977Z</time></trkpt><trkpt lat="40.6098529" lon="15.0839564"><ele>90.0</ele><time>2026-04-12T15:24:45.977Z</time></trkpt><trkpt lat="40.6098678" lon="15.083623"><ele>90.0</ele><time>2026-04-12T15:24:46.977Z</time></trkpt><trkpt lat="40.6098777" lon="15.0832923"><ele>90.0</ele><time>2026-04-12T15:24:47.976Z</time></trkpt><trkpt lat="40.6098854" lon="15.082961"><ele>90.5</ele><time>2026-04-12T15:24:48.977Z</time></trkpt><trkpt lat="40.6098875" lon="15.082628"><ele>91.0</ele><time>2026-04-12T15:24:49.976Z</time></trkpt><trkpt lat="40.6098857" lon="15.0822934"><ele>91.0</ele><time>2026-04-12T15:24:50.976Z</time></trkpt><trkpt lat="40.6098791" lon="15.08196"><ele>91.0</ele><time>2026-04-12T15:24:51.976Z</time></trkpt><trkpt lat="40.6098676" lon="15.0816279"><ele>90.5</ele><time>2026-04-12T15:24:52.976Z</time></trkpt><trkpt lat="40.6098489" lon="15.0812973"><ele>90.0</ele><time>2026-04-12T15:24:53.977Z</time></trkpt><trkpt lat="40.6098314" lon="15.0809635"><ele>89.5</ele><time>2026-04-12T15:24:54.976Z</time></trkpt><trkpt lat="40.6098085" lon="15.0806284"><ele>89.0</ele><time>2026-04-12T15:24:55.976Z</time></trkpt><trkpt lat="40.6097841" lon="15.0802954"><ele>89.0</ele><time>2026-04-12T15:24:56.976Z</time></trkpt><trkpt lat="40.6097544" lon="15.0799635"><ele>89.0</ele><time>2026-04-12T15:24:57.977Z</time></trkpt><trkpt lat="40.6097173" lon="15.0796297"><ele>89.0</ele><time>2026-04-12T15:24:58.976Z</time></trkpt><trkpt lat="40.6096793" lon="15.0792941"><ele>89.0</ele><time>2026-04-12T15:24:59.976Z</time></trkpt><trkpt lat="40.6096387" lon="15.0789593"><ele>88.5</ele><time>2026-04-12T15:25:00.976Z</time></trkpt><trkpt lat="40.6095911" lon="15.0786294"><ele>88.0</ele><time>2026-04-12T15:25:01.976Z</time></trkpt><trkpt lat="40.6095444" lon="15.0783046"><ele>87.0</ele><time>2026-04-12T15:25:02.976Z</time></trkpt><trkpt lat="40.6094987" lon="15.0779785"><ele>86.0</ele><time>2026-04-12T15:25:03.976Z</time></trkpt><trkpt lat="40.6094476" lon="15.0776523"><ele>83.5</ele><time>2026-04-12T15:25:04.976Z</time></trkpt><trkpt lat="40.6093925" lon="15.0773286"><ele>81.0</ele><time>2026-04-12T15:25:05.976Z</time></trkpt><trkpt lat="40.609329" lon="15.0770081"><ele>81.0</ele><time>2026-04-12T15:25:06.976Z</time></trkpt><trkpt lat="40.6092612" lon="15.0766859"><ele>81.0</ele><time>2026-04-12T15:25:07.976Z</time></trkpt><trkpt lat="40.609194" lon="15.0763596"><ele>81.0</ele><time>2026-04-12T15:25:08.976Z</time></trkpt><trkpt lat="40.6091316" lon="15.0760328"><ele>81.0</ele><time>2026-04-12T15:25:09.977Z</time></trkpt><trkpt lat="40.6090652" lon="15.0757082"><ele>80.5</ele><time>2026-04-12T15:25:10.976Z</time></trkpt><trkpt lat="40.609001" lon="15.075384"><ele>80.0</ele><time>2026-04-12T15:25:11.976Z</time></trkpt><trkpt lat="40.6089339" lon="15.07506"><ele>80.0</ele><time>2026-04-12T15:25:12.976Z</time></trkpt><trkpt lat="40.6088739" lon="15.0747376"><ele>80.0</ele><time>2026-04-12T15:25:13.976Z</time></trkpt><trkpt lat="40.6088094" lon="15.0744099"><ele>78.5</ele><time>2026-04-12T15:25:14.976Z</time></trkpt><trkpt lat="40.6087468" lon="15.0740831"><ele>77.0</ele><time>2026-04-12T15:25:15.976Z</time></trkpt><trkpt lat="40.6086803" lon="15.0737624"><ele>76.5</ele><time>2026-04-12T15:25:16.976Z</time></trkpt><trkpt lat="40.6086136" lon="15.0734438"><ele>76.0</ele><time>2026-04-12T15:25:17.976Z</time></trkpt><trkpt lat="40.608548" lon="15.0731264"><ele>76.0</ele><time>2026-04-12T15:25:18.976Z</time></trkpt><trkpt lat="40.608482" lon="15.0728038"><ele>76.0</ele><time>2026-04-12T15:25:19.976Z</time></trkpt><trkpt lat="40.6084224" lon="15.072484"><ele>76.0</ele><time>2026-04-12T15:25:20.976Z</time></trkpt><trkpt lat="40.6083684" lon="15.0721635"><ele>76.0</ele><time>2026-04-12T15:25:21.976Z</time></trkpt><trkpt lat="40.6083173" lon="15.0718299"><ele>74.5</ele><time>2026-04-12T15:25:22.976Z</time></trkpt><trkpt lat="40.6082682" lon="15.0714943"><ele>73.0</ele><time>2026-04-12T15:25:23.976Z</time></trkpt><trkpt lat="40.6082173" lon="15.0711628"><ele>73.0</ele><time>2026-04-12T15:25:24.976Z</time></trkpt><trkpt lat="40.6081705" lon="15.0708358"><ele>73.0</ele><time>2026-04-12T15:25:25.976Z</time></trkpt><trkpt lat="40.6081228" lon="15.0705064"><ele>72.0</ele><time>2026-04-12T15:25:26.976Z</time></trkpt><trkpt lat="40.6080782" lon="15.0701777"><ele>71.0</ele><time>2026-04-12T15:25:27.976Z</time></trkpt><trkpt lat="40.6080381" lon="15.0698482"><ele>71.0</ele><time>2026-04-12T15:25:28.976Z</time></trkpt><trkpt lat="40.6080099" lon="15.0695152"><ele>71.0</ele><time>2026-04-12T15:25:29.976Z</time></trkpt><trkpt lat="40.6079887" lon="15.0691783"><ele>71.0</ele><time>2026-04-12T15:25:30.976Z</time></trkpt><trkpt lat="40.6079663" lon="15.0688461"><ele>71.0</ele><time>2026-04-12T15:25:31.977Z</time></trkpt><trkpt lat="40.6079447" lon="15.068513"><ele>71.5</ele><time>2026-04-12T15:25:32.976Z</time></trkpt><trkpt lat="40.6079265" lon="15.068181"><ele>72.0</ele><time>2026-04-12T15:25:33.976Z</time></trkpt><trkpt lat="40.6079071" lon="15.0678484"><ele>72.0</ele><time>2026-04-12T15:25:34.976Z</time></trkpt><trkpt lat="40.6078932" lon="15.067516"><ele>72.0</ele><time>2026-04-12T15:25:35.976Z</time></trkpt><trkpt lat="40.6078822" lon="15.0671817"><ele>72.5</ele><time>2026-04-12T15:25:36.976Z</time></trkpt><trkpt lat="40.6078767" lon="15.0668479"><ele>73.0</ele><time>2026-04-12T15:25:37.976Z</time></trkpt><trkpt lat="40.6078776" lon="15.0665122"><ele>73.0</ele><time>2026-04-12T15:25:38.976Z</time></trkpt><trkpt lat="40.6078837" lon="15.066177"><ele>73.0</ele><time>2026-04-12T15:25:39.976Z</time></trkpt><trkpt lat="40.6078869" lon="15.0658453"><ele>73.0</ele><time>2026-04-12T15:25:40.976Z</time></trkpt><trkpt lat="40.6078878" lon="15.0655149"><ele>73.0</ele><time>2026-04-12T15:25:41.976Z</time></trkpt><trkpt lat="40.6078893" lon="15.0651824"><ele>73.5</ele><time>2026-04-12T15:25:42.976Z</time></trkpt><trkpt lat="40.6078898" lon="15.0648473"><ele>74.0</ele><time>2026-04-12T15:25:43.976Z</time></trkpt><trkpt lat="40.6078922" lon="15.0645111"><ele>74.0</ele><time>2026-04-12T15:25:44.976Z</time></trkpt><trkpt lat="40.6078929" lon="15.0641803"><ele>74.0</ele><time>2026-04-12T15:25:45.976Z</time></trkpt><trkpt lat="40.6078943" lon="15.0638489"><ele>75.0</ele><time>2026-04-12T15:25:46.976Z</time></trkpt><trkpt lat="40.607896" lon="15.0635158"><ele>76.0</ele><time>2026-04-12T15:25:47.976Z</time></trkpt><trkpt lat="40.6078964" lon="15.0631826"><ele>76.5</ele><time>2026-04-12T15:25:48.976Z</time></trkpt><trkpt lat="40.6078964" lon="15.0628485"><ele>77.0</ele><time>2026-04-12T15:25:49.976Z</time></trkpt><trkpt lat="40.6078963" lon="15.0625171"><ele>77.5</ele><time>2026-04-12T15:25:50.976Z</time></trkpt><trkpt lat="40.607894" lon="15.0621842"><ele>78.0</ele><time>2026-04-12T15:25:51.976Z</time></trkpt><trkpt lat="40.6078899" lon="15.0618521"><ele>79.5</ele><time>2026-04-12T15:25:52.976Z</time></trkpt><trkpt lat="40.6078886" lon="15.0615192"><ele>81.0</ele><time>2026-04-12T15:25:53.976Z</time></trkpt><trkpt lat="40.6078881" lon="15.0611826"><ele>81.0</ele><time>2026-04-12T15:25:54.976Z</time></trkpt><trkpt lat="40.6078835" lon="15.0608539"><ele>81.0</ele><time>2026-04-12T15:25:55.976Z</time></trkpt><trkpt lat="40.6078879" lon="15.0605156"><ele>81.5</ele><time>2026-04-12T15:25:56.976Z</time></trkpt><trkpt lat="40.6078927" lon="15.0601814"><ele>82.0</ele><time>2026-04-12T15:25:57.976Z</time></trkpt><trkpt lat="40.6078931" lon="15.0598433"><ele>82.0</ele><time>2026-04-12T15:25:58.976Z</time></trkpt><trkpt lat="40.6078956" lon="15.059505"><ele>82.0</ele><time>2026-04-12T15:25:59.977Z</time></trkpt><trkpt lat="40.6078986" lon="15.0591718"><ele>82.5</ele><time>2026-04-12T15:26:00.976Z</time></trkpt><trkpt lat="40.6079018" lon="15.0588415"><ele>83.0</ele><time>2026-04-12T15:26:01.976Z</time></trkpt><trkpt lat="40.6079017" lon="15.0585102"><ele>83.5</ele><time>2026-04-12T15:26:02.976Z</time></trkpt><trkpt lat="40.6078993" lon="15.0581766"><ele>84.0</ele><time>2026-04-12T15:26:03.976Z</time></trkpt><trkpt lat="40.6078962" lon="15.057842"><ele>84.0</ele><time>2026-04-12T15:26:04.976Z</time></trkpt><trkpt lat="40.607894" lon="15.0575093"><ele>84.0</ele><time>2026-04-12T15:26:05.976Z</time></trkpt><trkpt lat="40.6078945" lon="15.057176"><ele>84.0</ele><time>2026-04-12T15:26:06.976Z</time></trkpt><trkpt lat="40.6078982" lon="15.0568423"><ele>84.0</ele><time>2026-04-12T15:26:07.976Z</time></trkpt><trkpt lat="40.6079014" lon="15.0565077"><ele>84.0</ele><time>2026-04-12T15:26:08.977Z</time></trkpt><trkpt lat="40.6079013" lon="15.0561739"><ele>84.0</ele><time>2026-04-12T15:26:09.976Z</time></trkpt><trkpt lat="40.6079015" lon="15.0558381"><ele>83.5</ele><time>2026-04-12T15:26:10.976Z</time></trkpt><trkpt lat="40.6079005" lon="15.0555044"><ele>83.0</ele><time>2026-04-12T15:26:11.976Z</time></trkpt><trkpt lat="40.6079035" lon="15.0551744"><ele>83.0</ele><time>2026-04-12T15:26:12.976Z</time></trkpt><trkpt lat="40.6079034" lon="15.0548375"><ele>83.0</ele><time>2026-04-12T15:26:13.976Z</time></trkpt><trkpt lat="40.6079056" lon="15.0545005"><ele>83.0</ele><time>2026-04-12T15:26:14.976Z</time></trkpt><trkpt lat="40.6079086" lon="15.0541649"><ele>83.0</ele><time>2026-04-12T15:26:15.976Z</time></trkpt><trkpt lat="40.6079084" lon="15.0538309"><ele>83.0</ele><time>2026-04-12T15:26:16.976Z</time></trkpt><trkpt lat="40.6079117" lon="15.0534962"><ele>83.0</ele><time>2026-04-12T15:26:17.976Z</time></trkpt><trkpt lat="40.6079128" lon="15.05316"><ele>82.5</ele><time>2026-04-12T15:26:18.977Z</time></trkpt><trkpt lat="40.6079121" lon="15.0528235"><ele>82.0</ele><time>2026-04-12T15:26:19.976Z</time></trkpt><trkpt lat="40.6079107" lon="15.0524881"><ele>81.5</ele><time>2026-04-12T15:26:20.976Z</time></trkpt><trkpt lat="40.6079125" lon="15.0521531"><ele>81.0</ele><time>2026-04-12T15:26:21.976Z</time></trkpt><trkpt lat="40.6079154" lon="15.0518192"><ele>80.0</ele><time>2026-04-12T15:26:22.976Z</time></trkpt><trkpt lat="40.6079151" lon="15.0514835"><ele>79.0</ele><time>2026-04-12T15:26:23.976Z</time></trkpt><trkpt lat="40.6079114" lon="15.0511483"><ele>79.0</ele><time>2026-04-12T15:26:24.976Z</time></trkpt><trkpt lat="40.6079078" lon="15.0508153"><ele>79.0</ele><time>2026-04-12T15:26:25.976Z</time></trkpt><trkpt lat="40.6078974" lon="15.050482"><ele>79.0</ele><time>2026-04-12T15:26:26.976Z</time></trkpt><trkpt lat="40.6078859" lon="15.0501488"><ele>79.0</ele><time>2026-04-12T15:26:27.976Z</time></trkpt><trkpt lat="40.6078728" lon="15.0498157"><ele>79.0</ele><time>2026-04-12T15:26:28.976Z</time></trkpt><trkpt lat="40.6078561" lon="15.0494835"><ele>79.0</ele><time>2026-04-12T15:26:29.976Z</time></trkpt><trkpt lat="40.6078358" lon="15.0491483"><ele>78.0</ele><time>2026-04-12T15:26:30.976Z</time></trkpt><trkpt lat="40.6078086" lon="15.0488135"><ele>77.0</ele><time>2026-04-12T15:26:31.976Z</time></trkpt><trkpt lat="40.6077758" lon="15.0484851"><ele>77.0</ele><time>2026-04-12T15:26:32.976Z</time></trkpt><trkpt lat="40.6077368" lon="15.0481586"><ele>77.0</ele><time>2026-04-12T15:26:33.976Z</time></trkpt><trkpt lat="40.6076946" lon="15.0478312"><ele>77.0</ele><time>2026-04-12T15:26:34.977Z</time></trkpt><trkpt lat="40.607648" lon="15.0475069"><ele>77.0</ele><time>2026-04-12T15:26:35.976Z</time></trkpt><trkpt lat="40.6075977" lon="15.0471811"><ele>77.0</ele><time>2026-04-12T15:26:36.976Z</time></trkpt><trkpt lat="40.6075428" lon="15.0468562"><ele>77.0</ele><time>2026-04-12T15:26:37.976Z</time></trkpt><trkpt lat="40.607489" lon="15.0465316"><ele>77.5</ele><time>2026-04-12T15:26:38.977Z</time></trkpt><trkpt lat="40.6074377" lon="15.046205"><ele>78.0</ele><time>2026-04-12T15:26:39.976Z</time></trkpt><trkpt lat="40.6073933" lon="15.0458795"><ele>78.5</ele><time>2026-04-12T15:26:40.976Z</time></trkpt><trkpt lat="40.6073509" lon="15.0455529"><ele>79.0</ele><time>2026-04-12T15:26:41.976Z</time></trkpt><trkpt lat="40.6073102" lon="15.0452263"><ele>82.5</ele><time>2026-04-12T15:26:42.977Z</time></trkpt><trkpt lat="40.6072641" lon="15.0449021"><ele>86.0</ele><time>2026-04-12T15:26:43.976Z</time></trkpt><trkpt lat="40.607214" lon="15.0445737"><ele>86.0</ele><time>2026-04-12T15:26:44.976Z</time></trkpt><trkpt lat="40.6071582" lon="15.0442493"><ele>86.0</ele><time>2026-04-12T15:26:45.976Z</time></trkpt><trkpt lat="40.607104" lon="15.0439273"><ele>92.0</ele><time>2026-04-12T15:26:46.976Z</time></trkpt><trkpt lat="40.6070562" lon="15.0435996"><ele>98.0</ele><time>2026-04-12T15:26:47.976Z</time></trkpt><trkpt lat="40.6070128" lon="15.0432675"><ele>91.5</ele><time>2026-04-12T15:26:48.976Z</time></trkpt><trkpt lat="40.6069707" lon="15.0429387"><ele>85.0</ele><time>2026-04-12T15:26:49.976Z</time></trkpt><trkpt lat="40.6069264" lon="15.0426103"><ele>90.5</ele><time>2026-04-12T15:26:50.976Z</time></trkpt><trkpt lat="40.6068791" lon="15.0422853"><ele>96.0</ele><time>2026-04-12T15:26:51.976Z</time></trkpt><trkpt lat="40.6068239" lon="15.0419608"><ele>96.0</ele><time>2026-04-12T15:26:52.976Z</time></trkpt><trkpt lat="40.6067583" lon="15.0416403"><ele>96.0</ele><time>2026-04-12T15:26:53.976Z</time></trkpt><trkpt lat="40.6066813" lon="15.041321"><ele>102.0</ele><time>2026-04-12T15:26:54.976Z</time></trkpt><trkpt lat="40.6065996" lon="15.0410054"><ele>108.0</ele><time>2026-04-12T15:26:55.976Z</time></trkpt><trkpt lat="40.6065121" lon="15.0406973"><ele>114.0</ele><time>2026-04-12T15:26:56.976Z</time></trkpt><trkpt lat="40.6064169" lon="15.0403864"><ele>120.0</ele><time>2026-04-12T15:26:57.976Z</time></trkpt><trkpt lat="40.6063171" lon="15.0400787"><ele>127.0</ele><time>2026-04-12T15:26:58.976Z</time></trkpt><trkpt lat="40.6062102" lon="15.0397755"><ele>134.0</ele><time>2026-04-12T15:26:59.976Z</time></trkpt><trkpt lat="40.6060976" lon="15.0394763"><ele>120.5</ele><time>2026-04-12T15:27:00.976Z</time></trkpt><trkpt lat="40.6059842" lon="15.0391739"><ele>107.0</ele><time>2026-04-12T15:27:01.977Z</time></trkpt><trkpt lat="40.6058708" lon="15.0388708"><ele>107.0</ele><time>2026-04-12T15:27:02.976Z</time></trkpt><trkpt lat="40.6057586" lon="15.0385698"><ele>107.0</ele><time>2026-04-12T15:27:03.976Z</time></trkpt><trkpt lat="40.605649" lon="15.0382695"><ele>111.0</ele><time>2026-04-12T15:27:04.976Z</time></trkpt><trkpt lat="40.6055403" lon="15.0379684"><ele>115.0</ele><time>2026-04-12T15:27:05.976Z</time></trkpt><trkpt lat="40.6054296" lon="15.0376675"><ele>105.0</ele><time>2026-04-12T15:27:06.976Z</time></trkpt><trkpt lat="40.6053157" lon="15.0373659"><ele>95.0</ele><time>2026-04-12T15:27:07.976Z</time></trkpt><trkpt lat="40.6052022" lon="15.0370678"><ele>95.0</ele><time>2026-04-12T15:27:08.976Z</time></trkpt><trkpt lat="40.6050877" lon="15.0367679"><ele>95.0</ele><time>2026-04-12T15:27:09.976Z</time></trkpt><trkpt lat="40.6049739" lon="15.0364673"><ele>100.0</ele><time>2026-04-12T15:27:10.976Z</time></trkpt><trkpt lat="40.6048617" lon="15.0361681"><ele>105.0</ele><time>2026-04-12T15:27:11.976Z</time></trkpt><trkpt lat="40.6047522" lon="15.0358678"><ele>111.0</ele><time>2026-04-12T15:27:12.976Z</time></trkpt><trkpt lat="40.6046413" lon="15.0355654"><ele>117.0</ele><time>2026-04-12T15:27:13.976Z</time></trkpt><trkpt lat="40.6045345" lon="15.0352612"><ele>106.5</ele><time>2026-04-12T15:27:14.976Z</time></trkpt><trkpt lat="40.6044278" lon="15.0349592"><ele>96.0</ele><time>2026-04-12T15:27:15.976Z</time></trkpt><trkpt lat="40.6043213" lon="15.0346564"><ele>96.0</ele><time>2026-04-12T15:27:16.976Z</time></trkpt><trkpt lat="40.6042148" lon="15.0343522"><ele>96.0</ele><time>2026-04-12T15:27:17.976Z</time></trkpt><trkpt lat="40.6041139" lon="15.0340456"><ele>100.5</ele><time>2026-04-12T15:27:18.976Z</time></trkpt><trkpt lat="40.6040162" lon="15.0337374"><ele>105.0</ele><time>2026-04-12T15:27:19.976Z</time></trkpt><trkpt lat="40.6039238" lon="15.033426"><ele>108.0</ele><time>2026-04-12T15:27:20.976Z</time></trkpt><trkpt lat="40.6038356" lon="15.0331136"><ele>111.0</ele><time>2026-04-12T15:27:21.976Z</time></trkpt><trkpt lat="40.6037624" lon="15.0327961"><ele>111.0</ele><time>2026-04-12T15:27:22.977Z</time></trkpt><trkpt lat="40.6036963" lon="15.032477"><ele>111.0</ele><time>2026-04-12T15:27:23.976Z</time></trkpt><trkpt lat="40.6036405" lon="15.0321528"><ele>106.0</ele><time>2026-04-12T15:27:24.976Z</time></trkpt><trkpt lat="40.6035878" lon="15.0318282"><ele>101.0</ele><time>2026-04-12T15:27:25.976Z</time></trkpt><trkpt lat="40.6035406" lon="15.0315003"><ele>101.0</ele><time>2026-04-12T15:27:26.976Z</time></trkpt><trkpt lat="40.6034998" lon="15.031169"><ele>101.0</ele><time>2026-04-12T15:27:27.977Z</time></trkpt><trkpt lat="40.6034633" lon="15.0308334"><ele>101.5</ele><time>2026-04-12T15:27:28.976Z</time></trkpt><trkpt lat="40.603435" lon="15.0304979"><ele>102.0</ele><time>2026-04-12T15:27:29.976Z</time></trkpt><trkpt lat="40.6034185" lon="15.030168"><ele>100.0</ele><time>2026-04-12T15:27:30.976Z</time></trkpt><trkpt lat="40.6034011" lon="15.0298332"><ele>98.0</ele><time>2026-04-12T15:27:31.976Z</time></trkpt><trkpt lat="40.6033857" lon="15.0294958"><ele>98.0</ele><time>2026-04-12T15:27:32.976Z</time></trkpt><trkpt lat="40.603366" lon="15.029159"><ele>98.0</ele><time>2026-04-12T15:27:33.976Z</time></trkpt><trkpt lat="40.6033494" lon="15.0288273"><ele>98.0</ele><time>2026-04-12T15:27:34.976Z</time></trkpt><trkpt lat="40.6033326" lon="15.0284945"><ele>98.0</ele><time>2026-04-12T15:27:35.977Z</time></trkpt><trkpt lat="40.6033127" lon="15.0281588"><ele>97.0</ele><time>2026-04-12T15:27:36.977Z</time></trkpt><trkpt lat="40.6032901" lon="15.027826"><ele>96.0</ele><time>2026-04-12T15:27:37.976Z</time></trkpt><trkpt lat="40.6032766" lon="15.0274964"><ele>94.5</ele><time>2026-04-12T15:27:38.976Z</time></trkpt><trkpt lat="40.6032597" lon="15.0271593"><ele>93.0</ele><time>2026-04-12T15:27:39.976Z</time></trkpt><trkpt lat="40.6032381" lon="15.0268262"><ele>91.0</ele><time>2026-04-12T15:27:40.976Z</time></trkpt><trkpt lat="40.6032127" lon="15.0264929"><ele>89.0</ele><time>2026-04-12T15:27:41.976Z</time></trkpt><trkpt lat="40.6031841" lon="15.0261647"><ele>89.0</ele><time>2026-04-12T15:27:42.976Z</time></trkpt><trkpt lat="40.6031533" lon="15.0258356"><ele>89.0</ele><time>2026-04-12T15:27:43.976Z</time></trkpt><trkpt lat="40.6031146" lon="15.0255062"><ele>90.5</ele><time>2026-04-12T15:27:44.976Z</time></trkpt><trkpt lat="40.6030762" lon="15.0251742"><ele>92.0</ele><time>2026-04-12T15:27:45.976Z</time></trkpt><trkpt lat="40.6030293" lon="15.0248439"><ele>95.0</ele><time>2026-04-12T15:27:46.976Z</time></trkpt><trkpt lat="40.6029745" lon="15.0245178"><ele>98.0</ele><time>2026-04-12T15:27:47.976Z</time></trkpt><trkpt lat="40.6029216" lon="15.0241914"><ele>101.0</ele><time>2026-04-12T15:27:48.976Z</time></trkpt><trkpt lat="40.6028626" lon="15.023865"><ele>104.0</ele><time>2026-04-12T15:27:49.976Z</time></trkpt><trkpt lat="40.6028014" lon="15.0235397"><ele>95.0</ele><time>2026-04-12T15:27:50.976Z</time></trkpt><trkpt lat="40.6027427" lon="15.0232135"><ele>86.0</ele><time>2026-04-12T15:27:51.976Z</time></trkpt><trkpt lat="40.60269" lon="15.0228856"><ele>86.0</ele><time>2026-04-12T15:27:52.976Z</time></trkpt><trkpt lat="40.6026426" lon="15.0225608"><ele>86.0</ele><time>2026-04-12T15:27:53.976Z</time></trkpt><trkpt lat="40.6025961" lon="15.0222333"><ele>88.0</ele><time>2026-04-12T15:27:54.976Z</time></trkpt><trkpt lat="40.6025477" lon="15.0219051"><ele>90.0</ele><time>2026-04-12T15:27:55.976Z</time></trkpt><trkpt lat="40.6024987" lon="15.0215793"><ele>94.5</ele><time>2026-04-12T15:27:56.976Z</time></trkpt><trkpt lat="40.6024452" lon="15.0212504"><ele>99.0</ele><time>2026-04-12T15:27:57.976Z</time></trkpt><trkpt lat="40.6023917" lon="15.0209206"><ele>103.0</ele><time>2026-04-12T15:27:58.976Z</time></trkpt><trkpt lat="40.6023385" lon="15.0205907"><ele>107.0</ele><time>2026-04-12T15:27:59.976Z</time></trkpt><trkpt lat="40.6022827" lon="15.0202632"><ele>110.5</ele><time>2026-04-12T15:28:00.977Z</time></trkpt><trkpt lat="40.6022275" lon="15.0199377"><ele>114.0</ele><time>2026-04-12T15:28:01.976Z</time></trkpt><trkpt lat="40.6021761" lon="15.0196103"><ele>114.0</ele><time>2026-04-12T15:28:02.976Z</time></trkpt><trkpt lat="40.6021245" lon="15.0192832"><ele>114.0</ele><time>2026-04-12T15:28:03.976Z</time></trkpt><trkpt lat="40.602074" lon="15.0189552"><ele>117.0</ele><time>2026-04-12T15:28:04.976Z</time></trkpt><trkpt lat="40.6020203" lon="15.0186281"><ele>120.0</ele><time>2026-04-12T15:28:05.976Z</time></trkpt><trkpt lat="40.6019656" lon="15.0183002"><ele>104.5</ele><time>2026-04-12T15:28:06.976Z</time></trkpt><trkpt lat="40.6019143" lon="15.0179745"><ele>89.0</ele><time>2026-04-12T15:28:07.976Z</time></trkpt><trkpt lat="40.6018568" lon="15.0176495"><ele>90.5</ele><time>2026-04-12T15:28:08.976Z</time></trkpt><trkpt lat="40.6018013" lon="15.0173244"><ele>92.0</ele><time>2026-04-12T15:28:09.976Z</time></trkpt><trkpt lat="40.6017494" lon="15.0170005"><ele>92.0</ele><time>2026-04-12T15:28:10.976Z</time></trkpt><trkpt lat="40.6016954" lon="15.0166734"><ele>92.0</ele><time>2026-04-12T15:28:11.976Z</time></trkpt><trkpt lat="40.6016407" lon="15.0163465"><ele>93.0</ele><time>2026-04-12T15:28:12.976Z</time></trkpt><trkpt lat="40.6015882" lon="15.0160185"><ele>94.0</ele><time>2026-04-12T15:28:13.976Z</time></trkpt><trkpt lat="40.6015387" lon="15.015689"><ele>96.0</ele><time>2026-04-12T15:28:14.976Z</time></trkpt><trkpt lat="40.6014876" lon="15.0153603"><ele>98.0</ele><time>2026-04-12T15:28:15.976Z</time></trkpt><trkpt lat="40.6014335" lon="15.0150343"><ele>98.0</ele><time>2026-04-12T15:28:16.977Z</time></trkpt><trkpt lat="40.601378" lon="15.0147064"><ele>98.0</ele><time>2026-04-12T15:28:17.976Z</time></trkpt><trkpt lat="40.6013248" lon="15.0143777"><ele>98.5</ele><time>2026-04-12T15:28:18.976Z</time></trkpt><trkpt lat="40.6012717" lon="15.0140441"><ele>99.0</ele><time>2026-04-12T15:28:19.976Z</time></trkpt><trkpt lat="40.6012281" lon="15.0137089"><ele>99.0</ele><time>2026-04-12T15:28:20.976Z</time></trkpt><trkpt lat="40.601193" lon="15.0133723"><ele>99.0</ele><time>2026-04-12T15:28:21.976Z</time></trkpt><trkpt lat="40.601171" lon="15.0130353"><ele>92.5</ele><time>2026-04-12T15:28:22.977Z</time></trkpt><trkpt lat="40.601154" lon="15.0126984"><ele>86.0</ele><time>2026-04-12T15:28:23.976Z</time></trkpt><trkpt lat="40.6011347" lon="15.0123616"><ele>86.0</ele><time>2026-04-12T15:28:24.976Z</time></trkpt><trkpt lat="40.601115" lon="15.0120247"><ele>86.0</ele><time>2026-04-12T15:28:25.976Z</time></trkpt><trkpt lat="40.601095" lon="15.0116856"><ele>84.0</ele><time>2026-04-12T15:28:26.976Z</time></trkpt><trkpt lat="40.601074" lon="15.0113482"><ele>82.0</ele><time>2026-04-12T15:28:27.976Z</time></trkpt><trkpt lat="40.6010513" lon="15.0110113"><ele>81.0</ele><time>2026-04-12T15:28:28.976Z</time></trkpt><trkpt lat="40.6010294" lon="15.0106745"><ele>80.0</ele><time>2026-04-12T15:28:29.976Z</time></trkpt><trkpt lat="40.6010079" lon="15.0103365"><ele>80.0</ele><time>2026-04-12T15:28:30.976Z</time></trkpt><trkpt lat="40.60099" lon="15.0099993"><ele>80.0</ele><time>2026-04-12T15:28:31.976Z</time></trkpt><trkpt lat="40.6009777" lon="15.0096604"><ele>80.5</ele><time>2026-04-12T15:28:32.976Z</time></trkpt><trkpt lat="40.6009708" lon="15.0093182"><ele>81.0</ele><time>2026-04-12T15:28:33.976Z</time></trkpt><trkpt lat="40.6009771" lon="15.0089765"><ele>81.0</ele><time>2026-04-12T15:28:34.976Z</time></trkpt><trkpt lat="40.6009887" lon="15.0086372"><ele>81.0</ele><time>2026-04-12T15:28:35.976Z</time></trkpt><trkpt lat="40.6010123" lon="15.0083031"><ele>79.5</ele><time>2026-04-12T15:28:36.976Z</time></trkpt><trkpt lat="40.6010453" lon="15.0079685"><ele>78.0</ele><time>2026-04-12T15:28:37.976Z</time></trkpt><trkpt lat="40.6010894" lon="15.0076398"><ele>76.5</ele><time>2026-04-12T15:28:38.976Z</time></trkpt><trkpt lat="40.6011415" lon="15.0073127"><ele>75.0</ele><time>2026-04-12T15:28:39.976Z</time></trkpt><trkpt lat="40.6012053" lon="15.0069863"><ele>80.0</ele><time>2026-04-12T15:28:40.977Z</time></trkpt><trkpt lat="40.601282" lon="15.0066631"><ele>85.0</ele><time>2026-04-12T15:28:41.976Z</time></trkpt><trkpt lat="40.6013741" lon="15.0063448"><ele>85.0</ele><time>2026-04-12T15:28:42.976Z</time></trkpt><trkpt lat="40.6014674" lon="15.0060314"><ele>85.0</ele><time>2026-04-12T15:28:43.976Z</time></trkpt><trkpt lat="40.6015737" lon="15.0057227"><ele>80.5</ele><time>2026-04-12T15:28:44.976Z</time></trkpt><trkpt lat="40.6016898" lon="15.0054208"><ele>76.0</ele><time>2026-04-12T15:28:45.976Z</time></trkpt><trkpt lat="40.6018158" lon="15.0051231"><ele>77.0</ele><time>2026-04-12T15:28:46.976Z</time></trkpt><trkpt lat="40.6019515" lon="15.0048333"><ele>78.0</ele><time>2026-04-12T15:28:47.976Z</time></trkpt><trkpt lat="40.6020973" lon="15.0045559"><ele>78.0</ele><time>2026-04-12T15:28:48.976Z</time></trkpt><trkpt lat="40.6022492" lon="15.0042879"><ele>78.0</ele><time>2026-04-12T15:28:49.976Z</time></trkpt><trkpt lat="40.6024102" lon="15.0040287"><ele>77.0</ele><time>2026-04-12T15:28:50.976Z</time></trkpt><trkpt lat="40.6025782" lon="15.0037827"><ele>76.0</ele><time>2026-04-12T15:28:51.976Z</time></trkpt><trkpt lat="40.6027532" lon="15.0035385"><ele>76.5</ele><time>2026-04-12T15:28:52.976Z</time></trkpt><trkpt lat="40.6029306" lon="15.0032997"><ele>77.0</ele><time>2026-04-12T15:28:53.976Z</time></trkpt><trkpt lat="40.603114" lon="15.003067"><ele>77.0</ele><time>2026-04-12T15:28:54.976Z</time></trkpt><trkpt lat="40.6033007" lon="15.0028411"><ele>77.0</ele><time>2026-04-12T15:28:55.976Z</time></trkpt><trkpt lat="40.6034959" lon="15.0026174"><ele>78.0</ele><time>2026-04-12T15:28:56.976Z</time></trkpt><trkpt lat="40.6036925" lon="15.0024016"><ele>79.0</ele><time>2026-04-12T15:28:57.976Z</time></trkpt><trkpt lat="40.603891" lon="15.0021848"><ele>79.0</ele><time>2026-04-12T15:28:58.976Z</time></trkpt><trkpt lat="40.604089" lon="15.0019692"><ele>79.0</ele><time>2026-04-12T15:28:59.976Z</time></trkpt><trkpt lat="40.6042852" lon="15.001753"><ele>79.0</ele><time>2026-04-12T15:29:00.977Z</time></trkpt><trkpt lat="40.6044828" lon="15.0015364"><ele>79.0</ele><time>2026-04-12T15:29:01.976Z</time></trkpt><trkpt lat="40.6046775" lon="15.0013208"><ele>79.0</ele><time>2026-04-12T15:29:02.976Z</time></trkpt><trkpt lat="40.604874" lon="15.0011017"><ele>79.0</ele><time>2026-04-12T15:29:03.976Z</time></trkpt><trkpt lat="40.6050705" lon="15.0008846"><ele>79.0</ele><time>2026-04-12T15:29:04.976Z</time></trkpt><trkpt lat="40.605268" lon="15.0006677"><ele>79.0</ele><time>2026-04-12T15:29:05.976Z</time></trkpt><trkpt lat="40.605463" lon="15.0004485"><ele>80.5</ele><time>2026-04-12T15:29:06.976Z</time></trkpt><trkpt lat="40.6056591" lon="15.0002299"><ele>82.0</ele><time>2026-04-12T15:29:07.976Z</time></trkpt><trkpt lat="40.6058544" lon="15.0000104"><ele>82.0</ele><time>2026-04-12T15:29:08.976Z</time></trkpt><trkpt lat="40.6060505" lon="14.9997896"><ele>82.0</ele><time>2026-04-12T15:29:09.976Z</time></trkpt><trkpt lat="40.6062484" lon="14.9995702"><ele>81.5</ele><time>2026-04-12T15:29:10.976Z</time></trkpt><trkpt lat="40.6064455" lon="14.9993515"><ele>81.0</ele><time>2026-04-12T15:29:11.976Z</time></trkpt><trkpt lat="40.606642" lon="14.9991334"><ele>81.0</ele><time>2026-04-12T15:29:12.976Z</time></trkpt><trkpt lat="40.6068412" lon="14.9989188"><ele>81.0</ele><time>2026-04-12T15:29:13.976Z</time></trkpt><trkpt lat="40.6070415" lon="14.9987072"><ele>81.0</ele><time>2026-04-12T15:29:14.976Z</time></trkpt><trkpt lat="40.6072442" lon="14.9985034"><ele>81.0</ele><time>2026-04-12T15:29:15.976Z</time></trkpt><trkpt lat="40.6074547" lon="14.998307"><ele>80.5</ele><time>2026-04-12T15:29:16.976Z</time></trkpt><trkpt lat="40.6076687" lon="14.9981254"><ele>80.0</ele><time>2026-04-12T15:29:17.976Z</time></trkpt><trkpt lat="40.6078924" lon="14.9979549"><ele>81.5</ele><time>2026-04-12T15:29:18.976Z</time></trkpt><trkpt lat="40.6081209" lon="14.9977983"><ele>83.0</ele><time>2026-04-12T15:29:19.976Z</time></trkpt><trkpt lat="40.6083515" lon="14.9976447"><ele>82.5</ele><time>2026-04-12T15:29:20.976Z</time></trkpt><trkpt lat="40.6085811" lon="14.9974948"><ele>82.0</ele><time>2026-04-12T15:29:21.976Z</time></trkpt><trkpt lat="40.6088087" lon="14.9973427"><ele>82.0</ele><time>2026-04-12T15:29:22.976Z</time></trkpt><trkpt lat="40.6090368" lon="14.9971884"><ele>82.0</ele><time>2026-04-12T15:29:23.976Z</time></trkpt><trkpt lat="40.6092659" lon="14.9970349"><ele>84.5</ele><time>2026-04-12T15:29:24.976Z</time></trkpt><trkpt lat="40.6094943" lon="14.9968813"><ele>87.0</ele><time>2026-04-12T15:29:25.977Z</time></trkpt><trkpt lat="40.609725" lon="14.9967256"><ele>84.5</ele><time>2026-04-12T15:29:26.976Z</time></trkpt><trkpt lat="40.609955" lon="14.9965705"><ele>82.0</ele><time>2026-04-12T15:29:27.976Z</time></trkpt><trkpt lat="40.610185" lon="14.9964167"><ele>87.0</ele><time>2026-04-12T15:29:28.976Z</time></trkpt><trkpt lat="40.61041" lon="14.9962595"><ele>92.0</ele><time>2026-04-12T15:29:29.976Z</time></trkpt><trkpt lat="40.6106344" lon="14.9960968"><ele>92.0</ele><time>2026-04-12T15:29:30.976Z</time></trkpt><trkpt lat="40.6108551" lon="14.995927"><ele>92.0</ele><time>2026-04-12T15:29:31.976Z</time></trkpt><trkpt lat="40.6110716" lon="14.9957433"><ele>96.5</ele><time>2026-04-12T15:29:32.976Z</time></trkpt><trkpt lat="40.6112764" lon="14.9955458"><ele>101.0</ele><time>2026-04-12T15:29:33.976Z</time></trkpt><trkpt lat="40.6114784" lon="14.9953325"><ele>101.0</ele><time>2026-04-12T15:29:34.976Z</time></trkpt><trkpt lat="40.6116765" lon="14.9951153"><ele>101.0</ele><time>2026-04-12T15:29:35.976Z</time></trkpt><trkpt lat="40.6118728" lon="14.9948936"><ele>104.5</ele><time>2026-04-12T15:29:36.976Z</time></trkpt><trkpt lat="40.612068" lon="14.9946681"><ele>108.0</ele><time>2026-04-12T15:29:37.976Z</time></trkpt><trkpt lat="40.612263" lon="14.9944452"><ele>108.0</ele><time>2026-04-12T15:29:38.976Z</time></trkpt><trkpt lat="40.6124592" lon="14.9942232"><ele>108.0</ele><time>2026-04-12T15:29:39.976Z</time></trkpt><trkpt lat="40.6126536" lon="14.994004"><ele>108.5</ele><time>2026-04-12T15:29:40.976Z</time></trkpt><trkpt lat="40.6128487" lon="14.9937912"><ele>109.0</ele><time>2026-04-12T15:29:41.976Z</time></trkpt><trkpt lat="40.6130448" lon="14.9935758"><ele>109.0</ele><time>2026-04-12T15:29:42.976Z</time></trkpt><trkpt lat="40.6132423" lon="14.9933571"><ele>109.0</ele><time>2026-04-12T15:29:43.976Z</time></trkpt><trkpt lat="40.6134352" lon="14.9931384"><ele>103.5</ele><time>2026-04-12T15:29:44.976Z</time></trkpt><trkpt lat="40.6136291" lon="14.9929168"><ele>98.0</ele><time>2026-04-12T15:29:45.977Z</time></trkpt><trkpt lat="40.6138185" lon="14.9926873"><ele>100.5</ele><time>2026-04-12T15:29:46.976Z</time></trkpt><trkpt lat="40.6140034" lon="14.9924492"><ele>103.0</ele><time>2026-04-12T15:29:47.976Z</time></trkpt><trkpt lat="40.6141822" lon="14.9922053"><ele>103.0</ele><time>2026-04-12T15:29:48.976Z</time></trkpt><trkpt lat="40.6143581" lon="14.9919543"><ele>103.0</ele><time>2026-04-12T15:29:49.977Z</time></trkpt><trkpt lat="40.6145271" lon="14.9916915"><ele>105.5</ele><time>2026-04-12T15:29:50.976Z</time></trkpt><trkpt lat="40.6146907" lon="14.991428"><ele>108.0</ele><time>2026-04-12T15:29:51.976Z</time></trkpt><trkpt lat="40.6148489" lon="14.991157"><ele>108.0</ele><time>2026-04-12T15:29:52.976Z</time></trkpt><trkpt lat="40.6150034" lon="14.990884"><ele>108.0</ele><time>2026-04-12T15:29:53.976Z</time></trkpt><trkpt lat="40.6151533" lon="14.9906058"><ele>106.5</ele><time>2026-04-12T15:29:54.976Z</time></trkpt><trkpt lat="40.6153027" lon="14.9903233"><ele>105.0</ele><time>2026-04-12T15:29:55.976Z</time></trkpt><trkpt lat="40.6154518" lon="14.9900432"><ele>99.0</ele><time>2026-04-12T15:29:56.976Z</time></trkpt><trkpt lat="40.6155941" lon="14.9897678"><ele>93.0</ele><time>2026-04-12T15:29:57.976Z</time></trkpt><trkpt lat="40.6157422" lon="14.9894942"><ele>93.0</ele><time>2026-04-12T15:29:58.976Z</time></trkpt><trkpt lat="40.6158898" lon="14.9892223"><ele>93.0</ele><time>2026-04-12T15:29:59.976Z</time></trkpt><trkpt lat="40.6160369" lon="14.9889471"><ele>90.5</ele><time>2026-04-12T15:30:00.976Z</time></trkpt><trkpt lat="40.6161875" lon="14.9886735"><ele>88.0</ele><time>2026-04-12T15:30:01.976Z</time></trkpt><trkpt lat="40.6163453" lon="14.9883993"><ele>84.0</ele><time>2026-04-12T15:30:02.976Z</time></trkpt><trkpt lat="40.6164927" lon="14.9881214"><ele>80.0</ele><time>2026-04-12T15:30:03.976Z</time></trkpt><trkpt lat="40.6166284" lon="14.9878327"><ele>80.0</ele><time>2026-04-12T15:30:04.976Z</time></trkpt><trkpt lat="40.6167525" lon="14.9875348"><ele>80.0</ele><time>2026-04-12T15:30:05.976Z</time></trkpt><trkpt lat="40.6168615" lon="14.9872324"><ele>77.0</ele><time>2026-04-12T15:30:06.976Z</time></trkpt><trkpt lat="40.616963" lon="14.986923"><ele>74.0</ele><time>2026-04-12T15:30:07.976Z</time></trkpt><trkpt lat="40.6170584" lon="14.9866104"><ele>71.5</ele><time>2026-04-12T15:30:08.976Z</time></trkpt><trkpt lat="40.6171446" lon="14.9862897"><ele>69.0</ele><time>2026-04-12T15:30:09.976Z</time></trkpt><trkpt lat="40.6172235" lon="14.9859673"><ele>67.5</ele><time>2026-04-12T15:30:10.976Z</time></trkpt><trkpt lat="40.6172949" lon="14.9856421"><ele>66.0</ele><time>2026-04-12T15:30:11.976Z</time></trkpt><trkpt lat="40.6173593" lon="14.9853161"><ele>67.5</ele><time>2026-04-12T15:30:12.976Z</time></trkpt><trkpt lat="40.6174157" lon="14.9849853"><ele>69.0</ele><time>2026-04-12T15:30:13.976Z</time></trkpt><trkpt lat="40.6174628" lon="14.9846522"><ele>69.0</ele><time>2026-04-12T15:30:14.977Z</time></trkpt><trkpt lat="40.6175019" lon="14.9843185"><ele>69.0</ele><time>2026-04-12T15:30:15.976Z</time></trkpt><trkpt lat="40.6175374" lon="14.9839809"><ele>69.5</ele><time>2026-04-12T15:30:16.976Z</time></trkpt><trkpt lat="40.6175672" lon="14.9836486"><ele>70.0</ele><time>2026-04-12T15:30:17.976Z</time></trkpt><trkpt lat="40.6175976" lon="14.9833168"><ele>71.5</ele><time>2026-04-12T15:30:18.976Z</time></trkpt><trkpt lat="40.6176356" lon="14.9829889"><ele>73.0</ele><time>2026-04-12T15:30:19.976Z</time></trkpt><trkpt lat="40.6176781" lon="14.9826572"><ele>72.5</ele><time>2026-04-12T15:30:20.976Z</time></trkpt><trkpt lat="40.6177267" lon="14.9823249"><ele>72.0</ele><time>2026-04-12T15:30:21.976Z</time></trkpt><trkpt lat="40.6177858" lon="14.9819996"><ele>72.5</ele><time>2026-04-12T15:30:22.976Z</time></trkpt><trkpt lat="40.6178534" lon="14.9816764"><ele>73.0</ele><time>2026-04-12T15:30:23.976Z</time></trkpt><trkpt lat="40.617935" lon="14.9813557"><ele>73.0</ele><time>2026-04-12T15:30:24.976Z</time></trkpt><trkpt lat="40.6180303" lon="14.9810419"><ele>73.0</ele><time>2026-04-12T15:30:25.976Z</time></trkpt><trkpt lat="40.6181343" lon="14.9807423"><ele>71.5</ele><time>2026-04-12T15:30:26.976Z</time></trkpt><trkpt lat="40.6182448" lon="14.9804366"><ele>70.0</ele><time>2026-04-12T15:30:27.976Z</time></trkpt><trkpt lat="40.6183589" lon="14.9801319"><ele>70.5</ele><time>2026-04-12T15:30:28.976Z</time></trkpt><trkpt lat="40.6184776" lon="14.979831"><ele>71.0</ele><time>2026-04-12T15:30:29.976Z</time></trkpt><trkpt lat="40.6186051" lon="14.9795306"><ele>71.0</ele><time>2026-04-12T15:30:30.976Z</time></trkpt><trkpt lat="40.6187372" lon="14.9792423"><ele>71.0</ele><time>2026-04-12T15:30:31.976Z</time></trkpt><trkpt lat="40.6188732" lon="14.9789551"><ele>71.0</ele><time>2026-04-12T15:30:32.976Z</time></trkpt><trkpt lat="40.6190095" lon="14.9786704"><ele>71.0</ele><time>2026-04-12T15:30:33.976Z</time></trkpt><trkpt lat="40.6191484" lon="14.9783844"><ele>71.0</ele><time>2026-04-12T15:30:34.976Z</time></trkpt><trkpt lat="40.6192788" lon="14.9781"><ele>71.0</ele><time>2026-04-12T15:30:35.976Z</time></trkpt><trkpt lat="40.6194078" lon="14.9778083"><ele>71.0</ele><time>2026-04-12T15:30:36.976Z</time></trkpt><trkpt lat="40.6195319" lon="14.9775157"><ele>71.0</ele><time>2026-04-12T15:30:37.976Z</time></trkpt><trkpt lat="40.6196507" lon="14.9772146"><ele>71.0</ele><time>2026-04-12T15:30:38.976Z</time></trkpt><trkpt lat="40.6197628" lon="14.9769097"><ele>71.0</ele><time>2026-04-12T15:30:39.976Z</time></trkpt><trkpt lat="40.6198658" lon="14.9765995"><ele>71.0</ele><time>2026-04-12T15:30:40.976Z</time></trkpt><trkpt lat="40.619962" lon="14.9762858"><ele>71.0</ele><time>2026-04-12T15:30:41.976Z</time></trkpt><trkpt lat="40.6200512" lon="14.97597"><ele>71.0</ele><time>2026-04-12T15:30:42.976Z</time></trkpt><trkpt lat="40.6201373" lon="14.9756504"><ele>71.0</ele><time>2026-04-12T15:30:43.976Z</time></trkpt><trkpt lat="40.6202133" lon="14.9753272"><ele>69.5</ele><time>2026-04-12T15:30:44.976Z</time></trkpt><trkpt lat="40.6202859" lon="14.9750032"><ele>68.0</ele><time>2026-04-12T15:30:45.976Z</time></trkpt><trkpt lat="40.6203509" lon="14.9746766"><ele>67.5</ele><time>2026-04-12T15:30:46.976Z</time></trkpt><trkpt lat="40.6204133" lon="14.9743472"><ele>67.0</ele><time>2026-04-12T15:30:47.977Z</time></trkpt><trkpt lat="40.6204678" lon="14.9740169"><ele>68.0</ele><time>2026-04-12T15:30:48.976Z</time></trkpt><trkpt lat="40.6205168" lon="14.973685"><ele>69.0</ele><time>2026-04-12T15:30:49.976Z</time></trkpt><trkpt lat="40.620552" lon="14.97336"><ele>69.0</ele><time>2026-04-12T15:30:50.976Z</time></trkpt><trkpt lat="40.620592" lon="14.9730213"><ele>69.0</ele><time>2026-04-12T15:30:51.976Z</time></trkpt><trkpt lat="40.6206166" lon="14.9726836"><ele>67.0</ele><time>2026-04-12T15:30:52.976Z</time></trkpt><trkpt lat="40.6206351" lon="14.972344"><ele>65.0</ele><time>2026-04-12T15:30:53.976Z</time></trkpt><trkpt lat="40.6206476" lon="14.9720076"><ele>64.5</ele><time>2026-04-12T15:30:54.976Z</time></trkpt><trkpt lat="40.6206592" lon="14.9716698"><ele>64.0</ele><time>2026-04-12T15:30:55.976Z</time></trkpt><trkpt lat="40.620672" lon="14.9713316"><ele>64.0</ele><time>2026-04-12T15:30:56.976Z</time></trkpt><trkpt lat="40.6206851" lon="14.9709933"><ele>64.0</ele><time>2026-04-12T15:30:57.976Z</time></trkpt><trkpt lat="40.6206995" lon="14.9706562"><ele>65.5</ele><time>2026-04-12T15:30:58.976Z</time></trkpt><trkpt lat="40.6207109" lon="14.9703182"><ele>67.0</ele><time>2026-04-12T15:30:59.976Z</time></trkpt><trkpt lat="40.62072" lon="14.9699837"><ele>67.0</ele><time>2026-04-12T15:31:00.976Z</time></trkpt><trkpt lat="40.6207297" lon="14.9696477"><ele>67.0</ele><time>2026-04-12T15:31:01.976Z</time></trkpt><trkpt lat="40.6207421" lon="14.9693098"><ele>65.5</ele><time>2026-04-12T15:31:02.976Z</time></trkpt><trkpt lat="40.6207623" lon="14.9689717"><ele>64.0</ele><time>2026-04-12T15:31:03.976Z</time></trkpt><trkpt lat="40.6207788" lon="14.9686322"><ele>65.0</ele><time>2026-04-12T15:31:04.976Z</time></trkpt><trkpt lat="40.6207966" lon="14.9682948"><ele>66.0</ele><time>2026-04-12T15:31:05.976Z</time></trkpt><trkpt lat="40.6208124" lon="14.9679555"><ele>66.0</ele><time>2026-04-12T15:31:06.977Z</time></trkpt><trkpt lat="40.6208288" lon="14.967618"><ele>66.0</ele><time>2026-04-12T15:31:07.976Z</time></trkpt><trkpt lat="40.6208444" lon="14.96728"><ele>65.0</ele><time>2026-04-12T15:31:08.976Z</time></trkpt><trkpt lat="40.6208655" lon="14.9669442"><ele>64.0</ele><time>2026-04-12T15:31:09.976Z</time></trkpt><trkpt lat="40.6208906" lon="14.9666078"><ele>63.5</ele><time>2026-04-12T15:31:10.976Z</time></trkpt><trkpt lat="40.6209217" lon="14.9662714"><ele>63.0</ele><time>2026-04-12T15:31:11.976Z</time></trkpt><trkpt lat="40.620958" lon="14.9659385"><ele>62.0</ele><time>2026-04-12T15:31:12.977Z</time></trkpt><trkpt lat="40.6209997" lon="14.9656056"><ele>61.0</ele><time>2026-04-12T15:31:13.976Z</time></trkpt><trkpt lat="40.6210495" lon="14.9652752"><ele>60.0</ele><time>2026-04-12T15:31:14.976Z</time></trkpt><trkpt lat="40.6211019" lon="14.9649468"><ele>59.0</ele><time>2026-04-12T15:31:15.976Z</time></trkpt><trkpt lat="40.6211636" lon="14.9646201"><ele>59.0</ele><time>2026-04-12T15:31:16.976Z</time></trkpt><trkpt lat="40.6212299" lon="14.964294"><ele>59.0</ele><time>2026-04-12T15:31:17.976Z</time></trkpt><trkpt lat="40.6213002" lon="14.9639714"><ele>59.0</ele><time>2026-04-12T15:31:18.976Z</time></trkpt><trkpt lat="40.6213774" lon="14.9636486"><ele>59.0</ele><time>2026-04-12T15:31:19.976Z</time></trkpt><trkpt lat="40.6214532" lon="14.9633245"><ele>59.0</ele><time>2026-04-12T15:31:20.976Z</time></trkpt><trkpt lat="40.6215306" lon="14.9630012"><ele>59.0</ele><time>2026-04-12T15:31:21.976Z</time></trkpt><trkpt lat="40.6216088" lon="14.9626805"><ele>58.0</ele><time>2026-04-12T15:31:22.976Z</time></trkpt><trkpt lat="40.6216895" lon="14.9623603"><ele>57.0</ele><time>2026-04-12T15:31:23.976Z</time></trkpt><trkpt lat="40.6217722" lon="14.9620404"><ele>57.0</ele><time>2026-04-12T15:31:24.977Z</time></trkpt><trkpt lat="40.6218539" lon="14.9617171"><ele>57.0</ele><time>2026-04-12T15:31:25.976Z</time></trkpt><trkpt lat="40.6219381" lon="14.9613988"><ele>58.0</ele><time>2026-04-12T15:31:26.976Z</time></trkpt><trkpt lat="40.6220229" lon="14.9610833"><ele>59.0</ele><time>2026-04-12T15:31:27.976Z</time></trkpt><trkpt lat="40.6221113" lon="14.9607685"><ele>59.5</ele><time>2026-04-12T15:31:28.976Z</time></trkpt><trkpt lat="40.6222007" lon="14.9604536"><ele>60.0</ele><time>2026-04-12T15:31:29.976Z</time></trkpt><trkpt lat="40.6222848" lon="14.9601374"><ele>60.5</ele><time>2026-04-12T15:31:30.976Z</time></trkpt><trkpt lat="40.6223647" lon="14.9598233"><ele>61.0</ele><time>2026-04-12T15:31:31.976Z</time></trkpt><trkpt lat="40.622447" lon="14.9595061"><ele>61.0</ele><time>2026-04-12T15:31:32.976Z</time></trkpt><trkpt lat="40.6225337" lon="14.9591857"><ele>61.0</ele><time>2026-04-12T15:31:33.976Z</time></trkpt><trkpt lat="40.6226179" lon="14.9588691"><ele>61.0</ele><time>2026-04-12T15:31:34.976Z</time></trkpt><trkpt lat="40.6227052" lon="14.9585501"><ele>61.0</ele><time>2026-04-12T15:31:35.976Z</time></trkpt><trkpt lat="40.6227922" lon="14.9582315"><ele>62.0</ele><time>2026-04-12T15:31:36.976Z</time></trkpt><trkpt lat="40.6228822" lon="14.9579144"><ele>63.0</ele><time>2026-04-12T15:31:37.976Z</time></trkpt><trkpt lat="40.6229749" lon="14.957594"><ele>64.0</ele><time>2026-04-12T15:31:38.976Z</time></trkpt><trkpt lat="40.6230669" lon="14.9572777"><ele>65.0</ele><time>2026-04-12T15:31:39.976Z</time></trkpt><trkpt lat="40.623163" lon="14.9569637"><ele>65.5</ele><time>2026-04-12T15:31:40.976Z</time></trkpt><trkpt lat="40.6232632" lon="14.9566519"><ele>66.0</ele><time>2026-04-12T15:31:41.976Z</time></trkpt><trkpt lat="40.6233656" lon="14.9563393"><ele>66.0</ele><time>2026-04-12T15:31:42.976Z</time></trkpt><trkpt lat="40.6234687" lon="14.9560302"><ele>66.0</ele><time>2026-04-12T15:31:43.976Z</time></trkpt><trkpt lat="40.6235733" lon="14.9557216"><ele>67.0</ele><time>2026-04-12T15:31:44.976Z</time></trkpt><trkpt lat="40.6236805" lon="14.9554139"><ele>68.0</ele><time>2026-04-12T15:31:45.976Z</time></trkpt><trkpt lat="40.623785" lon="14.9551172"><ele>68.5</ele><time>2026-04-12T15:31:46.976Z</time></trkpt><trkpt lat="40.623889" lon="14.9548078"><ele>69.0</ele><time>2026-04-12T15:31:47.976Z</time></trkpt><trkpt lat="40.6239979" lon="14.9545"><ele>67.5</ele><time>2026-04-12T15:31:48.976Z</time></trkpt><trkpt lat="40.624112" lon="14.9541936"><ele>66.0</ele><time>2026-04-12T15:31:49.976Z</time></trkpt><trkpt lat="40.624226" lon="14.9538903"><ele>66.0</ele><time>2026-04-12T15:31:50.976Z</time></trkpt><trkpt lat="40.6243417" lon="14.9535887"><ele>66.0</ele><time>2026-04-12T15:31:51.976Z</time></trkpt><trkpt lat="40.6244594" lon="14.9532848"><ele>67.0</ele><time>2026-04-12T15:31:52.977Z</time></trkpt><trkpt lat="40.6245753" lon="14.9529821"><ele>68.0</ele><time>2026-04-12T15:31:53.976Z</time></trkpt><trkpt lat="40.6246928" lon="14.9526848"><ele>67.0</ele><time>2026-04-12T15:31:54.976Z</time></trkpt><trkpt lat="40.6248047" lon="14.9523802"><ele>66.0</ele><time>2026-04-12T15:31:55.976Z</time></trkpt><trkpt lat="40.6249226" lon="14.952079"><ele>66.0</ele><time>2026-04-12T15:31:56.976Z</time></trkpt><trkpt lat="40.6250422" lon="14.951781"><ele>66.0</ele><time>2026-04-12T15:31:57.976Z</time></trkpt><trkpt lat="40.6251619" lon="14.9514844"><ele>64.5</ele><time>2026-04-12T15:31:58.976Z</time></trkpt><trkpt lat="40.6252795" lon="14.9511843"><ele>63.0</ele><time>2026-04-12T15:31:59.976Z</time></trkpt><trkpt lat="40.6254011" lon="14.9508888"><ele>61.5</ele><time>2026-04-12T15:32:00.976Z</time></trkpt><trkpt lat="40.6255204" lon="14.9505903"><ele>60.0</ele><time>2026-04-12T15:32:01.976Z</time></trkpt><trkpt lat="40.6256415" lon="14.9502881"><ele>60.0</ele><time>2026-04-12T15:32:02.976Z</time></trkpt><trkpt lat="40.6257607" lon="14.9499863"><ele>60.0</ele><time>2026-04-12T15:32:03.976Z</time></trkpt><trkpt lat="40.6258804" lon="14.9496858"><ele>60.0</ele><time>2026-04-12T15:32:04.976Z</time></trkpt><trkpt lat="40.6260014" lon="14.9493845"><ele>60.0</ele><time>2026-04-12T15:32:05.976Z</time></trkpt><trkpt lat="40.6261206" lon="14.9490841"><ele>60.5</ele><time>2026-04-12T15:32:06.976Z</time></trkpt><trkpt lat="40.6262368" lon="14.9487798"><ele>61.0</ele><time>2026-04-12T15:32:07.976Z</time></trkpt><trkpt lat="40.6263522" lon="14.9484797"><ele>61.0</ele><time>2026-04-12T15:32:08.976Z</time></trkpt><trkpt lat="40.6264684" lon="14.9481815"><ele>61.0</ele><time>2026-04-12T15:32:09.976Z</time></trkpt><trkpt lat="40.6265838" lon="14.9478856"><ele>61.0</ele><time>2026-04-12T15:32:10.976Z</time></trkpt><trkpt lat="40.6266977" lon="14.9475862"><ele>61.0</ele><time>2026-04-12T15:32:11.977Z</time></trkpt><trkpt lat="40.6268135" lon="14.9472853"><ele>61.0</ele><time>2026-04-12T15:32:12.976Z</time></trkpt><trkpt lat="40.6269275" lon="14.9469839"><ele>61.0</ele><time>2026-04-12T15:32:13.976Z</time></trkpt><trkpt lat="40.6270399" lon="14.94668"><ele>62.0</ele><time>2026-04-12T15:32:14.976Z</time></trkpt><trkpt lat="40.6271507" lon="14.9463769"><ele>63.0</ele><time>2026-04-12T15:32:15.976Z</time></trkpt><trkpt lat="40.6272608" lon="14.9460679"><ele>62.5</ele><time>2026-04-12T15:32:16.976Z</time></trkpt><trkpt lat="40.6273663" lon="14.9457582"><ele>62.0</ele><time>2026-04-12T15:32:17.976Z</time></trkpt><trkpt lat="40.6274609" lon="14.9454424"><ele>62.0</ele><time>2026-04-12T15:32:18.976Z</time></trkpt><trkpt lat="40.6275476" lon="14.9451298"><ele>62.0</ele><time>2026-04-12T15:32:19.976Z</time></trkpt><trkpt lat="40.6276329" lon="14.9448081"><ele>62.5</ele><time>2026-04-12T15:32:20.976Z</time></trkpt><trkpt lat="40.6277156" lon="14.944483"><ele>63.0</ele><time>2026-04-12T15:32:21.976Z</time></trkpt><trkpt lat="40.6277927" lon="14.9441575"><ele>65.0</ele><time>2026-04-12T15:32:22.976Z</time></trkpt><trkpt lat="40.6278658" lon="14.9438329"><ele>67.0</ele><time>2026-04-12T15:32:23.977Z</time></trkpt><trkpt lat="40.6279331" lon="14.9435061"><ele>66.0</ele><time>2026-04-12T15:32:24.976Z</time></trkpt><trkpt lat="40.627994" lon="14.9431754"><ele>65.0</ele><time>2026-04-12T15:32:25.976Z</time></trkpt><trkpt lat="40.6280518" lon="14.9428413"><ele>65.0</ele><time>2026-04-12T15:32:26.976Z</time></trkpt><trkpt lat="40.628104" lon="14.9425097"><ele>65.0</ele><time>2026-04-12T15:32:27.976Z</time></trkpt><trkpt lat="40.628151" lon="14.9421777"><ele>65.0</ele><time>2026-04-12T15:32:28.976Z</time></trkpt><trkpt lat="40.6281929" lon="14.9418445"><ele>65.0</ele><time>2026-04-12T15:32:29.976Z</time></trkpt><trkpt lat="40.6282343" lon="14.9415084"><ele>65.0</ele><time>2026-04-12T15:32:30.976Z</time></trkpt><trkpt lat="40.6282674" lon="14.9411705"><ele>65.0</ele><time>2026-04-12T15:32:31.976Z</time></trkpt><trkpt lat="40.6282939" lon="14.9408345"><ele>64.5</ele><time>2026-04-12T15:32:32.976Z</time></trkpt><trkpt lat="40.628314" lon="14.9404955"><ele>64.0</ele><time>2026-04-12T15:32:33.976Z</time></trkpt><trkpt lat="40.6283293" lon="14.9401568"><ele>64.0</ele><time>2026-04-12T15:32:34.977Z</time></trkpt><trkpt lat="40.6283494" lon="14.9398229"><ele>64.0</ele><time>2026-04-12T15:32:35.976Z</time></trkpt><trkpt lat="40.6283657" lon="14.9394796"><ele>64.0</ele><time>2026-04-12T15:32:36.976Z</time></trkpt><trkpt lat="40.6283834" lon="14.9391389"><ele>64.0</ele><time>2026-04-12T15:32:37.977Z</time></trkpt><trkpt lat="40.6283966" lon="14.9388034"><ele>64.0</ele><time>2026-04-12T15:32:38.976Z</time></trkpt><trkpt lat="40.6284115" lon="14.9384671"><ele>64.0</ele><time>2026-04-12T15:32:39.976Z</time></trkpt><trkpt lat="40.6284273" lon="14.9381319"><ele>63.5</ele><time>2026-04-12T15:32:40.976Z</time></trkpt><trkpt lat="40.6284378" lon="14.937796"><ele>63.0</ele><time>2026-04-12T15:32:41.976Z</time></trkpt><trkpt lat="40.6284505" lon="14.9374547"><ele>61.5</ele><time>2026-04-12T15:32:42.976Z</time></trkpt><trkpt lat="40.628472" lon="14.9371166"><ele>60.0</ele><time>2026-04-12T15:32:43.976Z</time></trkpt><trkpt lat="40.6284983" lon="14.9367793"><ele>60.0</ele><time>2026-04-12T15:32:44.976Z</time></trkpt><trkpt lat="40.6285252" lon="14.9364435"><ele>60.0</ele><time>2026-04-12T15:32:45.976Z</time></trkpt><trkpt lat="40.6285553" lon="14.9361087"><ele>59.0</ele><time>2026-04-12T15:32:46.976Z</time></trkpt><trkpt lat="40.6285903" lon="14.9357752"><ele>58.0</ele><time>2026-04-12T15:32:47.976Z</time></trkpt><trkpt lat="40.6286253" lon="14.9354397"><ele>58.5</ele><time>2026-04-12T15:32:48.976Z</time></trkpt><trkpt lat="40.6286615" lon="14.9351059"><ele>59.0</ele><time>2026-04-12T15:32:49.976Z</time></trkpt><trkpt lat="40.6287041" lon="14.9347738"><ele>59.0</ele><time>2026-04-12T15:32:50.976Z</time></trkpt><trkpt lat="40.6287594" lon="14.9344436"><ele>59.0</ele><time>2026-04-12T15:32:51.976Z</time></trkpt><trkpt lat="40.6288165" lon="14.934113"><ele>58.5</ele><time>2026-04-12T15:32:52.976Z</time></trkpt><trkpt lat="40.6288833" lon="14.9337858"><ele>58.0</ele><time>2026-04-12T15:32:53.976Z</time></trkpt><trkpt lat="40.6289593" lon="14.933462"><ele>58.0</ele><time>2026-04-12T15:32:54.976Z</time></trkpt><trkpt lat="40.6290372" lon="14.9331389"><ele>58.0</ele><time>2026-04-12T15:32:55.976Z</time></trkpt><trkpt lat="40.6291179" lon="14.9328171"><ele>58.5</ele><time>2026-04-12T15:32:56.976Z</time></trkpt><trkpt lat="40.6292017" lon="14.9324996"><ele>59.0</ele><time>2026-04-12T15:32:57.976Z</time></trkpt><trkpt lat="40.6292899" lon="14.932182"><ele>59.0</ele><time>2026-04-12T15:32:58.976Z</time></trkpt><trkpt lat="40.6293794" lon="14.9318669"><ele>59.0</ele><time>2026-04-12T15:32:59.976Z</time></trkpt><trkpt lat="40.629474" lon="14.9315586"><ele>59.0</ele><time>2026-04-12T15:33:00.976Z</time></trkpt><trkpt lat="40.629571" lon="14.9312457"><ele>59.0</ele><time>2026-04-12T15:33:01.976Z</time></trkpt><trkpt lat="40.6296735" lon="14.930926"><ele>59.0</ele><time>2026-04-12T15:33:02.976Z</time></trkpt><trkpt lat="40.6297735" lon="14.9306114"><ele>59.0</ele><time>2026-04-12T15:33:03.977Z</time></trkpt><trkpt lat="40.6298748" lon="14.9303026"><ele>59.0</ele><time>2026-04-12T15:33:04.976Z</time></trkpt><trkpt lat="40.6299727" lon="14.929993"><ele>59.0</ele><time>2026-04-12T15:33:05.976Z</time></trkpt><trkpt lat="40.6300712" lon="14.9296783"><ele>59.0</ele><time>2026-04-12T15:33:06.976Z</time></trkpt><trkpt lat="40.6301717" lon="14.9293673"><ele>59.0</ele><time>2026-04-12T15:33:07.976Z</time></trkpt><trkpt lat="40.6302717" lon="14.9290559"><ele>59.5</ele><time>2026-04-12T15:33:08.976Z</time></trkpt><trkpt lat="40.6303698" lon="14.9287441"><ele>60.0</ele><time>2026-04-12T15:33:09.977Z</time></trkpt><trkpt lat="40.6304688" lon="14.9284375"><ele>58.0</ele><time>2026-04-12T15:33:10.976Z</time></trkpt><trkpt lat="40.6305698" lon="14.9281286"><ele>56.0</ele><time>2026-04-12T15:33:11.976Z</time></trkpt><trkpt lat="40.6306725" lon="14.9278177"><ele>55.5</ele><time>2026-04-12T15:33:12.976Z</time></trkpt><trkpt lat="40.6307757" lon="14.9275087"><ele>55.0</ele><time>2026-04-12T15:33:13.976Z</time></trkpt><trkpt lat="40.630879" lon="14.9272002"><ele>55.0</ele><time>2026-04-12T15:33:14.976Z</time></trkpt><trkpt lat="40.6309823" lon="14.9268894"><ele>55.0</ele><time>2026-04-12T15:33:15.976Z</time></trkpt><trkpt lat="40.6310831" lon="14.9265769"><ele>55.0</ele><time>2026-04-12T15:33:16.976Z</time></trkpt><trkpt lat="40.6311846" lon="14.9262674"><ele>55.0</ele><time>2026-04-12T15:33:17.976Z</time></trkpt><trkpt lat="40.6312874" lon="14.9259599"><ele>54.0</ele><time>2026-04-12T15:33:18.976Z</time></trkpt><trkpt lat="40.6313871" lon="14.9256504"><ele>53.0</ele><time>2026-04-12T15:33:19.976Z</time></trkpt><trkpt lat="40.6314907" lon="14.9253393"><ele>52.0</ele><time>2026-04-12T15:33:20.976Z</time></trkpt><trkpt lat="40.6315953" lon="14.9250277"><ele>51.0</ele><time>2026-04-12T15:33:21.977Z</time></trkpt><trkpt lat="40.6317001" lon="14.9247185"><ele>51.0</ele><time>2026-04-12T15:33:22.977Z</time></trkpt><trkpt lat="40.6318051" lon="14.9244089"><ele>51.0</ele><time>2026-04-12T15:33:23.977Z</time></trkpt><trkpt lat="40.6319064" lon="14.924099"><ele>51.5</ele><time>2026-04-12T15:33:24.976Z</time></trkpt><trkpt lat="40.6320104" lon="14.9237891"><ele>52.0</ele><time>2026-04-12T15:33:25.976Z</time></trkpt><trkpt lat="40.6321103" lon="14.9234743"><ele>52.0</ele><time>2026-04-12T15:33:26.977Z</time></trkpt><trkpt lat="40.6322126" lon="14.923163"><ele>52.0</ele><time>2026-04-12T15:33:27.977Z</time></trkpt><trkpt lat="40.6323181" lon="14.922855"><ele>51.0</ele><time>2026-04-12T15:33:28.976Z</time></trkpt><trkpt lat="40.632422" lon="14.9225419"><ele>50.0</ele><time>2026-04-12T15:33:29.976Z</time></trkpt><trkpt lat="40.6325244" lon="14.922231"><ele>50.0</ele><time>2026-04-12T15:33:30.976Z</time></trkpt><trkpt lat="40.6326262" lon="14.9219209"><ele>50.0</ele><time>2026-04-12T15:33:31.976Z</time></trkpt><trkpt lat="40.6327291" lon="14.921612"><ele>50.5</ele><time>2026-04-12T15:33:32.976Z</time></trkpt><trkpt lat="40.6328299" lon="14.9213047"><ele>51.0</ele><time>2026-04-12T15:33:33.976Z</time></trkpt><trkpt lat="40.6329302" lon="14.920993"><ele>50.0</ele><time>2026-04-12T15:33:34.976Z</time></trkpt><trkpt lat="40.6330303" lon="14.9206825"><ele>49.0</ele><time>2026-04-12T15:33:35.976Z</time></trkpt><trkpt lat="40.6331279" lon="14.9203724"><ele>48.0</ele><time>2026-04-12T15:33:36.977Z</time></trkpt><trkpt lat="40.6332296" lon="14.9200623"><ele>47.0</ele><time>2026-04-12T15:33:37.976Z</time></trkpt><trkpt lat="40.6333325" lon="14.9197487"><ele>47.0</ele><time>2026-04-12T15:33:38.976Z</time></trkpt><trkpt lat="40.6334369" lon="14.9194377"><ele>47.0</ele><time>2026-04-12T15:33:39.976Z</time></trkpt><trkpt lat="40.6335382" lon="14.9191324"><ele>47.0</ele><time>2026-04-12T15:33:40.976Z</time></trkpt><trkpt lat="40.6336418" lon="14.9188219"><ele>47.0</ele><time>2026-04-12T15:33:41.976Z</time></trkpt><trkpt lat="40.6337463" lon="14.9185103"><ele>46.0</ele><time>2026-04-12T15:33:42.976Z</time></trkpt><trkpt lat="40.6338542" lon="14.9182021"><ele>45.0</ele><time>2026-04-12T15:33:43.976Z</time></trkpt><trkpt lat="40.6339585" lon="14.9178938"><ele>45.0</ele><time>2026-04-12T15:33:44.976Z</time></trkpt><trkpt lat="40.6340586" lon="14.9175828"><ele>45.0</ele><time>2026-04-12T15:33:45.976Z</time></trkpt><trkpt lat="40.6341586" lon="14.9172723"><ele>44.5</ele><time>2026-04-12T15:33:46.976Z</time></trkpt><trkpt lat="40.6342586" lon="14.9169575"><ele>44.0</ele><time>2026-04-12T15:33:47.976Z</time></trkpt><trkpt lat="40.6343634" lon="14.9166462"><ele>43.0</ele><time>2026-04-12T15:33:48.976Z</time></trkpt><trkpt lat="40.6344646" lon="14.9163345"><ele>42.0</ele><time>2026-04-12T15:33:49.977Z</time></trkpt><trkpt lat="40.634564" lon="14.9160213"><ele>42.0</ele><time>2026-04-12T15:33:50.976Z</time></trkpt><trkpt lat="40.6346614" lon="14.9157067"><ele>42.0</ele><time>2026-04-12T15:33:51.976Z</time></trkpt><trkpt lat="40.6347645" lon="14.9153903"><ele>42.0</ele><time>2026-04-12T15:33:52.977Z</time></trkpt><trkpt lat="40.6348662" lon="14.9150813"><ele>42.0</ele><time>2026-04-12T15:33:53.976Z</time></trkpt><trkpt lat="40.6349692" lon="14.9147693"><ele>42.0</ele><time>2026-04-12T15:33:54.976Z</time></trkpt><trkpt lat="40.6350714" lon="14.9144604"><ele>42.0</ele><time>2026-04-12T15:33:55.976Z</time></trkpt><trkpt lat="40.6351737" lon="14.9141536"><ele>41.0</ele><time>2026-04-12T15:33:56.976Z</time></trkpt><trkpt lat="40.6352772" lon="14.9138454"><ele>40.0</ele><time>2026-04-12T15:33:57.976Z</time></trkpt><trkpt lat="40.6353795" lon="14.9135332"><ele>39.0</ele><time>2026-04-12T15:33:58.976Z</time></trkpt><trkpt lat="40.6354812" lon="14.9132264"><ele>38.0</ele><time>2026-04-12T15:33:59.976Z</time></trkpt><trkpt lat="40.6355828" lon="14.9129186"><ele>38.0</ele><time>2026-04-12T15:34:00.976Z</time></trkpt><trkpt lat="40.6356868" lon="14.9126081"><ele>38.0</ele><time>2026-04-12T15:34:01.976Z</time></trkpt><trkpt lat="40.6357905" lon="14.9122977"><ele>38.5</ele><time>2026-04-12T15:34:02.976Z</time></trkpt><trkpt lat="40.6358927" lon="14.9119864"><ele>39.0</ele><time>2026-04-12T15:34:03.976Z</time></trkpt><trkpt lat="40.6359981" lon="14.911676"><ele>39.0</ele><time>2026-04-12T15:34:04.976Z</time></trkpt><trkpt lat="40.636102" lon="14.9113683"><ele>39.0</ele><time>2026-04-12T15:34:05.976Z</time></trkpt><trkpt lat="40.6362067" lon="14.911065"><ele>38.0</ele><time>2026-04-12T15:34:06.976Z</time></trkpt><trkpt lat="40.6363104" lon="14.9107486"><ele>37.0</ele><time>2026-04-12T15:34:07.976Z</time></trkpt><trkpt lat="40.6364175" lon="14.9104331"><ele>37.0</ele><time>2026-04-12T15:34:08.976Z</time></trkpt><trkpt lat="40.6365218" lon="14.9101215"><ele>37.0</ele><time>2026-04-12T15:34:09.976Z</time></trkpt><trkpt lat="40.6366256" lon="14.909812"><ele>36.5</ele><time>2026-04-12T15:34:10.976Z</time></trkpt><trkpt lat="40.6367253" lon="14.9095035"><ele>36.0</ele><time>2026-04-12T15:34:11.977Z</time></trkpt><trkpt lat="40.6368276" lon="14.9091942"><ele>37.0</ele><time>2026-04-12T15:34:12.976Z</time></trkpt><trkpt lat="40.6369381" lon="14.9088919"><ele>38.0</ele><time>2026-04-12T15:34:13.976Z</time></trkpt><trkpt lat="40.6370486" lon="14.9085896"><ele>39.0</ele><time>2026-04-12T15:34:14.976Z</time></trkpt><trkpt lat="40.6371618" lon="14.908287"><ele>40.0</ele><time>2026-04-12T15:34:15.976Z</time></trkpt><trkpt lat="40.6372818" lon="14.9079824"><ele>40.0</ele><time>2026-04-12T15:34:16.976Z</time></trkpt><trkpt lat="40.6374054" lon="14.9076869"><ele>40.0</ele><time>2026-04-12T15:34:17.976Z</time></trkpt><trkpt lat="40.6375273" lon="14.9073861"><ele>40.0</ele><time>2026-04-12T15:34:18.976Z</time></trkpt><trkpt lat="40.6376524" lon="14.9070854"><ele>40.0</ele><time>2026-04-12T15:34:19.976Z</time></trkpt><trkpt lat="40.6377851" lon="14.906798"><ele>40.0</ele><time>2026-04-12T15:34:20.976Z</time></trkpt><trkpt lat="40.6379135" lon="14.9065092"><ele>40.0</ele><time>2026-04-12T15:34:21.976Z</time></trkpt><trkpt lat="40.6380427" lon="14.9062201"><ele>40.0</ele><time>2026-04-12T15:34:22.976Z</time></trkpt><trkpt lat="40.638175" lon="14.9059293"><ele>40.0</ele><time>2026-04-12T15:34:23.976Z</time></trkpt><trkpt lat="40.6383069" lon="14.9056403"><ele>39.5</ele><time>2026-04-12T15:34:24.976Z</time></trkpt><trkpt lat="40.6384389" lon="14.9053492"><ele>39.0</ele><time>2026-04-12T15:34:25.976Z</time></trkpt><trkpt lat="40.6385739" lon="14.905063"><ele>39.5</ele><time>2026-04-12T15:34:26.976Z</time></trkpt><trkpt lat="40.6387078" lon="14.9047778"><ele>40.0</ele><time>2026-04-12T15:34:27.976Z</time></trkpt><trkpt lat="40.6388388" lon="14.904489"><ele>39.5</ele><time>2026-04-12T15:34:28.977Z</time></trkpt><trkpt lat="40.6389708" lon="14.9041953"><ele>39.0</ele><time>2026-04-12T15:34:29.976Z</time></trkpt><trkpt lat="40.6391056" lon="14.9039022"><ele>39.0</ele><time>2026-04-12T15:34:30.976Z</time></trkpt><trkpt lat="40.6392385" lon="14.9036097"><ele>39.0</ele><time>2026-04-12T15:34:31.976Z</time></trkpt><trkpt lat="40.6393682" lon="14.9033154"><ele>40.0</ele><time>2026-04-12T15:34:32.976Z</time></trkpt><trkpt lat="40.6395015" lon="14.903022"><ele>41.0</ele><time>2026-04-12T15:34:33.976Z</time></trkpt><trkpt lat="40.6396357" lon="14.902735"><ele>40.5</ele><time>2026-04-12T15:34:34.976Z</time></trkpt><trkpt lat="40.6397661" lon="14.9024456"><ele>40.0</ele><time>2026-04-12T15:34:35.976Z</time></trkpt><trkpt lat="40.639901" lon="14.9021594"><ele>40.0</ele><time>2026-04-12T15:34:36.976Z</time></trkpt><trkpt lat="40.6400344" lon="14.9018729"><ele>40.0</ele><time>2026-04-12T15:34:37.976Z</time></trkpt><trkpt lat="40.6401633" lon="14.9015812"><ele>39.5</ele><time>2026-04-12T15:34:38.976Z</time></trkpt><trkpt lat="40.6402929" lon="14.9012929"><ele>39.0</ele><time>2026-04-12T15:34:39.976Z</time></trkpt><trkpt lat="40.6404229" lon="14.9010033"><ele>39.5</ele><time>2026-04-12T15:34:40.976Z</time></trkpt><trkpt lat="40.6405553" lon="14.9007146"><ele>40.0</ele><time>2026-04-12T15:34:41.976Z</time></trkpt><trkpt lat="40.6406897" lon="14.9004264"><ele>40.0</ele><time>2026-04-12T15:34:42.976Z</time></trkpt><trkpt lat="40.640824" lon="14.9001364"><ele>40.0</ele><time>2026-04-12T15:34:43.976Z</time></trkpt><trkpt lat="40.6409576" lon="14.8998492"><ele>39.5</ele><time>2026-04-12T15:34:44.976Z</time></trkpt><trkpt lat="40.6410897" lon="14.8995634"><ele>39.0</ele><time>2026-04-12T15:34:45.976Z</time></trkpt><trkpt lat="40.6412182" lon="14.8992705"><ele>38.5</ele><time>2026-04-12T15:34:46.976Z</time></trkpt><trkpt lat="40.6413477" lon="14.8989784"><ele>38.0</ele><time>2026-04-12T15:34:47.976Z</time></trkpt><trkpt lat="40.6414765" lon="14.8986863"><ele>37.5</ele><time>2026-04-12T15:34:48.976Z</time></trkpt><trkpt lat="40.6416075" lon="14.898393"><ele>37.0</ele><time>2026-04-12T15:34:49.976Z</time></trkpt><trkpt lat="40.6417391" lon="14.8981047"><ele>37.0</ele><time>2026-04-12T15:34:50.976Z</time></trkpt><trkpt lat="40.6418752" lon="14.8978145"><ele>37.0</ele><time>2026-04-12T15:34:51.976Z</time></trkpt><trkpt lat="40.642008" lon="14.8975258"><ele>38.0</ele><time>2026-04-12T15:34:52.976Z</time></trkpt><trkpt lat="40.6421403" lon="14.897237"><ele>39.0</ele><time>2026-04-12T15:34:53.976Z</time></trkpt><trkpt lat="40.6422731" lon="14.8969477"><ele>39.0</ele><time>2026-04-12T15:34:54.976Z</time></trkpt><trkpt lat="40.6424036" lon="14.8966595"><ele>39.0</ele><time>2026-04-12T15:34:55.976Z</time></trkpt><trkpt lat="40.64254" lon="14.89637"><ele>39.0</ele><time>2026-04-12T15:34:56.976Z</time></trkpt><trkpt lat="40.6426681" lon="14.896097"><ele>39.0</ele><time>2026-04-12T15:34:57.976Z</time></trkpt><trkpt lat="40.6428027" lon="14.8958071"><ele>41.0</ele><time>2026-04-12T15:34:58.976Z</time></trkpt><trkpt lat="40.6429454" lon="14.8955147"><ele>43.0</ele><time>2026-04-12T15:34:59.976Z</time></trkpt><trkpt lat="40.6430847" lon="14.8952225"><ele>42.0</ele><time>2026-04-12T15:35:00.976Z</time></trkpt><trkpt lat="40.6432226" lon="14.8949349"><ele>41.0</ele><time>2026-04-12T15:35:01.976Z</time></trkpt><trkpt lat="40.6433606" lon="14.8946529"><ele>41.0</ele><time>2026-04-12T15:35:02.976Z</time></trkpt><trkpt lat="40.6434956" lon="14.8943684"><ele>41.0</ele><time>2026-04-12T15:35:03.976Z</time></trkpt><trkpt lat="40.6436268" lon="14.894082"><ele>42.0</ele><time>2026-04-12T15:35:04.976Z</time></trkpt><trkpt lat="40.6437563" lon="14.8937949"><ele>43.0</ele><time>2026-04-12T15:35:05.976Z</time></trkpt><trkpt lat="40.6438872" lon="14.8935056"><ele>43.0</ele><time>2026-04-12T15:35:06.977Z</time></trkpt><trkpt lat="40.6440175" lon="14.8932168"><ele>43.0</ele><time>2026-04-12T15:35:07.976Z</time></trkpt><trkpt lat="40.6441475" lon="14.8929232"><ele>43.0</ele><time>2026-04-12T15:35:08.976Z</time></trkpt><trkpt lat="40.6442743" lon="14.8926293"><ele>43.0</ele><time>2026-04-12T15:35:09.976Z</time></trkpt><trkpt lat="40.6443985" lon="14.8923357"><ele>44.5</ele><time>2026-04-12T15:35:10.976Z</time></trkpt><trkpt lat="40.6445233" lon="14.8920373"><ele>46.0</ele><time>2026-04-12T15:35:11.976Z</time></trkpt><trkpt lat="40.6446481" lon="14.8917424"><ele>46.0</ele><time>2026-04-12T15:35:12.976Z</time></trkpt><trkpt lat="40.6447748" lon="14.8914483"><ele>46.0</ele><time>2026-04-12T15:35:13.976Z</time></trkpt><trkpt lat="40.644901" lon="14.891154"><ele>45.0</ele><time>2026-04-12T15:35:14.976Z</time></trkpt><trkpt lat="40.6450289" lon="14.8908594"><ele>44.0</ele><time>2026-04-12T15:35:15.976Z</time></trkpt><trkpt lat="40.6451604" lon="14.8905687"><ele>44.0</ele><time>2026-04-12T15:35:16.977Z</time></trkpt><trkpt lat="40.6452909" lon="14.8902786"><ele>44.0</ele><time>2026-04-12T15:35:17.976Z</time></trkpt><trkpt lat="40.6454185" lon="14.8899873"><ele>45.5</ele><time>2026-04-12T15:35:18.977Z</time></trkpt><trkpt lat="40.6455458" lon="14.8896952"><ele>47.0</ele><time>2026-04-12T15:35:19.976Z</time></trkpt><trkpt lat="40.6456725" lon="14.889401"><ele>46.5</ele><time>2026-04-12T15:35:20.976Z</time></trkpt><trkpt lat="40.6458015" lon="14.8891014"><ele>46.0</ele><time>2026-04-12T15:35:21.976Z</time></trkpt><trkpt lat="40.6459241" lon="14.8888172"><ele>46.0</ele><time>2026-04-12T15:35:22.976Z</time></trkpt><trkpt lat="40.646046" lon="14.8885203"><ele>46.0</ele><time>2026-04-12T15:35:23.976Z</time></trkpt><trkpt lat="40.6461739" lon="14.8882196"><ele>45.5</ele><time>2026-04-12T15:35:24.976Z</time></trkpt><trkpt lat="40.646301" lon="14.8879217"><ele>45.0</ele><time>2026-04-12T15:35:25.976Z</time></trkpt><trkpt lat="40.6464266" lon="14.8876271"><ele>44.0</ele><time>2026-04-12T15:35:26.976Z</time></trkpt><trkpt lat="40.6465528" lon="14.8873323"><ele>43.0</ele><time>2026-04-12T15:35:27.976Z</time></trkpt><trkpt lat="40.6466819" lon="14.8870376"><ele>43.0</ele><time>2026-04-12T15:35:28.976Z</time></trkpt><trkpt lat="40.64681" lon="14.8867457"><ele>43.0</ele><time>2026-04-12T15:35:29.977Z</time></trkpt><trkpt lat="40.6469419" lon="14.8864555"><ele>43.5</ele><time>2026-04-12T15:35:30.976Z</time></trkpt><trkpt lat="40.6470714" lon="14.8861642"><ele>44.0</ele><time>2026-04-12T15:35:31.977Z</time></trkpt><trkpt lat="40.6472" lon="14.885875"><ele>44.0</ele><time>2026-04-12T15:35:32.976Z</time></trkpt><trkpt lat="40.6473282" lon="14.8855815"><ele>44.0</ele><time>2026-04-12T15:35:33.976Z</time></trkpt><trkpt lat="40.647456" lon="14.8852866"><ele>43.0</ele><time>2026-04-12T15:35:34.976Z</time></trkpt><trkpt lat="40.6475897" lon="14.8849945"><ele>42.0</ele><time>2026-04-12T15:35:35.976Z</time></trkpt><trkpt lat="40.6477252" lon="14.8847082"><ele>42.0</ele><time>2026-04-12T15:35:36.976Z</time></trkpt><trkpt lat="40.6478605" lon="14.8844218"><ele>42.0</ele><time>2026-04-12T15:35:37.976Z</time></trkpt><trkpt lat="40.6479919" lon="14.8841339"><ele>42.0</ele><time>2026-04-12T15:35:38.976Z</time></trkpt><trkpt lat="40.6481226" lon="14.8838416"><ele>42.0</ele><time>2026-04-12T15:35:39.976Z</time></trkpt><trkpt lat="40.6482562" lon="14.8835553"><ele>41.5</ele><time>2026-04-12T15:35:40.976Z</time></trkpt><trkpt lat="40.6483795" lon="14.8832522"><ele>41.0</ele><time>2026-04-12T15:35:41.976Z</time></trkpt><trkpt lat="40.6485063" lon="14.8829547"><ele>41.0</ele><time>2026-04-12T15:35:42.976Z</time></trkpt><trkpt lat="40.648634" lon="14.8826629"><ele>41.0</ele><time>2026-04-12T15:35:43.976Z</time></trkpt><trkpt lat="40.6487597" lon="14.8823688"><ele>41.0</ele><time>2026-04-12T15:35:44.977Z</time></trkpt><trkpt lat="40.6488847" lon="14.8820727"><ele>41.0</ele><time>2026-04-12T15:35:45.976Z</time></trkpt><trkpt lat="40.6490112" lon="14.8817768"><ele>40.5</ele><time>2026-04-12T15:35:46.976Z</time></trkpt><trkpt lat="40.64914" lon="14.8814846"><ele>40.0</ele><time>2026-04-12T15:35:47.976Z</time></trkpt><trkpt lat="40.6492732" lon="14.8811942"><ele>40.0</ele><time>2026-04-12T15:35:48.976Z</time></trkpt><trkpt lat="40.6494122" lon="14.8809085"><ele>40.0</ele><time>2026-04-12T15:35:49.976Z</time></trkpt><trkpt lat="40.6495529" lon="14.8806201"><ele>40.0</ele><time>2026-04-12T15:35:50.976Z</time></trkpt><trkpt lat="40.6496852" lon="14.8803308"><ele>40.0</ele><time>2026-04-12T15:35:51.976Z</time></trkpt><trkpt lat="40.6498125" lon="14.8800425"><ele>39.0</ele><time>2026-04-12T15:35:52.976Z</time></trkpt><trkpt lat="40.6499436" lon="14.87975"><ele>38.0</ele><time>2026-04-12T15:35:53.976Z</time></trkpt><trkpt lat="40.6500751" lon="14.8794626"><ele>38.0</ele><time>2026-04-12T15:35:54.976Z</time></trkpt><trkpt lat="40.6502069" lon="14.8791673"><ele>38.0</ele><time>2026-04-12T15:35:55.976Z</time></trkpt><trkpt lat="40.6503387" lon="14.8788734"><ele>38.5</ele><time>2026-04-12T15:35:56.976Z</time></trkpt><trkpt lat="40.6504726" lon="14.8785841"><ele>39.0</ele><time>2026-04-12T15:35:57.976Z</time></trkpt><trkpt lat="40.6506049" lon="14.8782995"><ele>37.5</ele><time>2026-04-12T15:35:58.976Z</time></trkpt><trkpt lat="40.6507368" lon="14.8780122"><ele>36.0</ele><time>2026-04-12T15:35:59.976Z</time></trkpt><trkpt lat="40.6508708" lon="14.8777229"><ele>36.0</ele><time>2026-04-12T15:36:00.976Z</time></trkpt><trkpt lat="40.6509998" lon="14.8774311"><ele>36.0</ele><time>2026-04-12T15:36:01.976Z</time></trkpt><trkpt lat="40.6511283" lon="14.8771405"><ele>36.0</ele><time>2026-04-12T15:36:02.976Z</time></trkpt><trkpt lat="40.6512578" lon="14.8768491"><ele>36.0</ele><time>2026-04-12T15:36:03.976Z</time></trkpt><trkpt lat="40.6513829" lon="14.8765649"><ele>36.0</ele><time>2026-04-12T15:36:04.976Z</time></trkpt><trkpt lat="40.6515104" lon="14.8762721"><ele>36.0</ele><time>2026-04-12T15:36:05.976Z</time></trkpt><trkpt lat="40.6516451" lon="14.8759787"><ele>36.0</ele><time>2026-04-12T15:36:06.976Z</time></trkpt><trkpt lat="40.651779" lon="14.8756935"><ele>36.0</ele><time>2026-04-12T15:36:07.976Z</time></trkpt><trkpt lat="40.6519101" lon="14.875403"><ele>37.0</ele><time>2026-04-12T15:36:08.976Z</time></trkpt><trkpt lat="40.6520405" lon="14.8751104"><ele>38.0</ele><time>2026-04-12T15:36:09.976Z</time></trkpt><trkpt lat="40.6521718" lon="14.8748205"><ele>36.0</ele><time>2026-04-12T15:36:10.976Z</time></trkpt><trkpt lat="40.6523012" lon="14.8745293"><ele>34.0</ele><time>2026-04-12T15:36:11.976Z</time></trkpt><trkpt lat="40.652431" lon="14.87424"><ele>32.5</ele><time>2026-04-12T15:36:12.976Z</time></trkpt><trkpt lat="40.6525643" lon="14.8739469"><ele>31.0</ele><time>2026-04-12T15:36:13.976Z</time></trkpt><trkpt lat="40.6526941" lon="14.8736574"><ele>32.0</ele><time>2026-04-12T15:36:14.976Z</time></trkpt><trkpt lat="40.6528206" lon="14.8733695"><ele>33.0</ele><time>2026-04-12T15:36:15.976Z</time></trkpt><trkpt lat="40.652946" lon="14.8730751"><ele>33.0</ele><time>2026-04-12T15:36:16.976Z</time></trkpt><trkpt lat="40.653071" lon="14.8727825"><ele>33.0</ele><time>2026-04-12T15:36:17.976Z</time></trkpt><trkpt lat="40.6531938" lon="14.8724873"><ele>32.0</ele><time>2026-04-12T15:36:18.976Z</time></trkpt><trkpt lat="40.6533123" lon="14.8721865"><ele>31.0</ele><time>2026-04-12T15:36:19.976Z</time></trkpt><trkpt lat="40.6534296" lon="14.8718888"><ele>31.5</ele><time>2026-04-12T15:36:20.976Z</time></trkpt><trkpt lat="40.6535476" lon="14.8715903"><ele>32.0</ele><time>2026-04-12T15:36:21.976Z</time></trkpt><trkpt lat="40.6536681" lon="14.8712943"><ele>33.0</ele><time>2026-04-12T15:36:22.976Z</time></trkpt><trkpt lat="40.6537918" lon="14.8709955"><ele>34.0</ele><time>2026-04-12T15:36:23.976Z</time></trkpt><trkpt lat="40.6539163" lon="14.8707001"><ele>35.5</ele><time>2026-04-12T15:36:24.976Z</time></trkpt><trkpt lat="40.6540403" lon="14.8704026"><ele>37.0</ele><time>2026-04-12T15:36:25.976Z</time></trkpt><trkpt lat="40.6541646" lon="14.8701093"><ele>38.5</ele><time>2026-04-12T15:36:26.976Z</time></trkpt><trkpt lat="40.6542862" lon="14.8698151"><ele>40.0</ele><time>2026-04-12T15:36:27.976Z</time></trkpt><trkpt lat="40.6544112" lon="14.8695211"><ele>41.5</ele><time>2026-04-12T15:36:28.976Z</time></trkpt><trkpt lat="40.6545314" lon="14.8692238"><ele>43.0</ele><time>2026-04-12T15:36:29.976Z</time></trkpt><trkpt lat="40.6546514" lon="14.8689234"><ele>43.0</ele><time>2026-04-12T15:36:30.977Z</time></trkpt><trkpt lat="40.6547692" lon="14.8686248"><ele>43.0</ele><time>2026-04-12T15:36:31.976Z</time></trkpt><trkpt lat="40.6548887" lon="14.8683299"><ele>43.0</ele><time>2026-04-12T15:36:32.976Z</time></trkpt><trkpt lat="40.6550132" lon="14.8680314"><ele>43.0</ele><time>2026-04-12T15:36:33.976Z</time></trkpt><trkpt lat="40.6551369" lon="14.8677329"><ele>43.0</ele><time>2026-04-12T15:36:34.976Z</time></trkpt><trkpt lat="40.6552579" lon="14.8674321"><ele>43.0</ele><time>2026-04-12T15:36:35.976Z</time></trkpt><trkpt lat="40.6553786" lon="14.8671326"><ele>45.0</ele><time>2026-04-12T15:36:36.976Z</time></trkpt><trkpt lat="40.6554987" lon="14.8668326"><ele>47.0</ele><time>2026-04-12T15:36:37.976Z</time></trkpt><trkpt lat="40.65562" lon="14.8665365"><ele>47.5</ele><time>2026-04-12T15:36:38.976Z</time></trkpt><trkpt lat="40.6557436" lon="14.866242"><ele>48.0</ele><time>2026-04-12T15:36:39.976Z</time></trkpt><trkpt lat="40.6558693" lon="14.8659503"><ele>47.0</ele><time>2026-04-12T15:36:40.976Z</time></trkpt><trkpt lat="40.6560017" lon="14.8656604"><ele>46.0</ele><time>2026-04-12T15:36:41.976Z</time></trkpt><trkpt lat="40.656136" lon="14.8653763"><ele>46.5</ele><time>2026-04-12T15:36:42.976Z</time></trkpt><trkpt lat="40.6562761" lon="14.8650997"><ele>47.0</ele><time>2026-04-12T15:36:43.976Z</time></trkpt><trkpt lat="40.6564277" lon="14.8648308"><ele>47.0</ele><time>2026-04-12T15:36:44.976Z</time></trkpt><trkpt lat="40.6565913" lon="14.8645715"><ele>47.0</ele><time>2026-04-12T15:36:45.976Z</time></trkpt><trkpt lat="40.6567596" lon="14.864325"><ele>47.5</ele><time>2026-04-12T15:36:46.976Z</time></trkpt><trkpt lat="40.6569329" lon="14.8640787"><ele>48.0</ele><time>2026-04-12T15:36:47.976Z</time></trkpt><trkpt lat="40.6571102" lon="14.8638437"><ele>48.5</ele><time>2026-04-12T15:36:48.976Z</time></trkpt><trkpt lat="40.6572903" lon="14.8636138"><ele>49.0</ele><time>2026-04-12T15:36:49.976Z</time></trkpt><trkpt lat="40.6574724" lon="14.8633878"><ele>49.0</ele><time>2026-04-12T15:36:50.976Z</time></trkpt><trkpt lat="40.6576594" lon="14.8631671"><ele>49.0</ele><time>2026-04-12T15:36:51.976Z</time></trkpt><trkpt lat="40.6578564" lon="14.8629502"><ele>48.5</ele><time>2026-04-12T15:36:52.976Z</time></trkpt><trkpt lat="40.6580583" lon="14.8627405"><ele>48.0</ele><time>2026-04-12T15:36:53.976Z</time></trkpt><trkpt lat="40.6582648" lon="14.8625418"><ele>50.0</ele><time>2026-04-12T15:36:54.977Z</time></trkpt><trkpt lat="40.6584752" lon="14.8623502"><ele>52.0</ele><time>2026-04-12T15:36:55.976Z</time></trkpt><trkpt lat="40.65869" lon="14.8621663"><ele>54.5</ele><time>2026-04-12T15:36:56.976Z</time></trkpt><trkpt lat="40.658906" lon="14.8619852"><ele>57.0</ele><time>2026-04-12T15:36:57.976Z</time></trkpt><trkpt lat="40.6591243" lon="14.8618051"><ele>57.0</ele><time>2026-04-12T15:36:58.976Z</time></trkpt><trkpt lat="40.6593451" lon="14.8616266"><ele>57.0</ele><time>2026-04-12T15:36:59.976Z</time></trkpt><trkpt lat="40.6595652" lon="14.8614508"><ele>62.5</ele><time>2026-04-12T15:37:00.976Z</time></trkpt><trkpt lat="40.6597817" lon="14.8612719"><ele>68.0</ele><time>2026-04-12T15:37:01.976Z</time></trkpt><trkpt lat="40.6599996" lon="14.8610933"><ele>69.0</ele><time>2026-04-12T15:37:02.976Z</time></trkpt><trkpt lat="40.6602166" lon="14.8609161"><ele>70.0</ele><time>2026-04-12T15:37:03.976Z</time></trkpt><trkpt lat="40.6604359" lon="14.8607419"><ele>70.0</ele><time>2026-04-12T15:37:04.976Z</time></trkpt><trkpt lat="40.6606538" lon="14.8605708"><ele>70.0</ele><time>2026-04-12T15:37:05.976Z</time></trkpt><trkpt lat="40.6608789" lon="14.8604091"><ele>70.0</ele><time>2026-04-12T15:37:06.977Z</time></trkpt><trkpt lat="40.6611121" lon="14.8602619"><ele>70.0</ele><time>2026-04-12T15:37:07.976Z</time></trkpt><trkpt lat="40.66134" lon="14.8601194"><ele>70.0</ele><time>2026-04-12T15:37:08.976Z</time></trkpt><trkpt lat="40.6615739" lon="14.8599885"><ele>70.0</ele><time>2026-04-12T15:37:09.976Z</time></trkpt><trkpt lat="40.6618081" lon="14.8598613"><ele>74.5</ele><time>2026-04-12T15:37:10.976Z</time></trkpt><trkpt lat="40.662046" lon="14.8597408"><ele>79.0</ele><time>2026-04-12T15:37:11.976Z</time></trkpt><trkpt lat="40.6622894" lon="14.8596271"><ele>79.0</ele><time>2026-04-12T15:37:12.976Z</time></trkpt><trkpt lat="40.6625331" lon="14.8595118"><ele>79.0</ele><time>2026-04-12T15:37:13.977Z</time></trkpt><trkpt lat="40.662776" lon="14.8594102"><ele>86.0</ele><time>2026-04-12T15:37:14.976Z</time></trkpt><trkpt lat="40.6630232" lon="14.8593283"><ele>93.0</ele><time>2026-04-12T15:37:15.976Z</time></trkpt><trkpt lat="40.6632652" lon="14.859251"><ele>93.0</ele><time>2026-04-12T15:37:16.976Z</time></trkpt><trkpt lat="40.6635057" lon="14.859169"><ele>93.0</ele><time>2026-04-12T15:37:17.976Z</time></trkpt><trkpt lat="40.6637434" lon="14.859095"><ele>112.0</ele><time>2026-04-12T15:37:18.976Z</time></trkpt><trkpt lat="40.6639776" lon="14.8590208"><ele>131.0</ele><time>2026-04-12T15:37:19.976Z</time></trkpt><trkpt lat="40.6642122" lon="14.8589477"><ele>186.0</ele><time>2026-04-12T15:37:20.976Z</time></trkpt><trkpt lat="40.665415" lon="14.8585284"><ele>112.0</ele><time>2026-04-12T15:37:26.09Z</time></trkpt><trkpt lat="40.670165" lon="14.8583267"><ele>126.0</ele><time>2026-04-12T15:37:43.976Z</time></trkpt><trkpt lat="40.6704401" lon="14.8583143"><ele>140.0</ele><time>2026-04-12T15:37:44.976Z</time></trkpt><trkpt lat="40.6707092" lon="14.8583096"><ele>207.0</ele><time>2026-04-12T15:37:45.976Z</time></trkpt><trkpt lat="40.6720322" lon="14.858236"><ele>117.0</ele><time>2026-04-12T15:37:51.076Z</time></trkpt><trkpt lat="40.67815" lon="14.85761"><ele>117.0</ele><time>2026-04-12T15:38:14.976Z</time></trkpt><trkpt lat="40.6784024" lon="14.8575868"><ele>117.0</ele><time>2026-04-12T15:38:15.976Z</time></trkpt><trkpt lat="40.6786543" lon="14.8575649"><ele>115.5</ele><time>2026-04-12T15:38:16.976Z</time></trkpt><trkpt lat="40.6789121" lon="14.8575378"><ele>114.0</ele><time>2026-04-12T15:38:17.976Z</time></trkpt><trkpt lat="40.6791677" lon="14.8575006"><ele>114.0</ele><time>2026-04-12T15:38:18.976Z</time></trkpt><trkpt lat="40.6794204" lon="14.8574596"><ele>114.0</ele><time>2026-04-12T15:38:19.976Z</time></trkpt><trkpt lat="40.6796722" lon="14.8574143"><ele>114.0</ele><time>2026-04-12T15:38:20.976Z</time></trkpt><trkpt lat="40.6799252" lon="14.857363"><ele>114.0</ele><time>2026-04-12T15:38:21.976Z</time></trkpt><trkpt lat="40.6801774" lon="14.8573086"><ele>114.0</ele><time>2026-04-12T15:38:22.976Z</time></trkpt><trkpt lat="40.68043" lon="14.8572461"><ele>114.0</ele><time>2026-04-12T15:38:23.976Z</time></trkpt><trkpt lat="40.6806827" lon="14.8571715"><ele>114.0</ele><time>2026-04-12T15:38:24.976Z</time></trkpt><trkpt lat="40.6809301" lon="14.8570824"><ele>114.0</ele><time>2026-04-12T15:38:25.976Z</time></trkpt><trkpt lat="40.6811736" lon="14.8569762"><ele>114.5</ele><time>2026-04-12T15:38:26.976Z</time></trkpt><trkpt lat="40.6814161" lon="14.8568518"><ele>115.0</ele><time>2026-04-12T15:38:27.976Z</time></trkpt><trkpt lat="40.681656" lon="14.8567215"><ele>115.0</ele><time>2026-04-12T15:38:28.976Z</time></trkpt><trkpt lat="40.6818939" lon="14.8565826"><ele>115.0</ele><time>2026-04-12T15:38:29.977Z</time></trkpt><trkpt lat="40.6821279" lon="14.8564325"><ele>115.5</ele><time>2026-04-12T15:38:30.976Z</time></trkpt><trkpt lat="40.6823557" lon="14.8562762"><ele>116.0</ele><time>2026-04-12T15:38:31.976Z</time></trkpt><trkpt lat="40.6825793" lon="14.8561129"><ele>114.5</ele><time>2026-04-12T15:38:32.976Z</time></trkpt><trkpt lat="40.6827977" lon="14.8559362"><ele>113.0</ele><time>2026-04-12T15:38:33.976Z</time></trkpt><trkpt lat="40.6830133" lon="14.8557518"><ele>113.0</ele><time>2026-04-12T15:38:34.976Z</time></trkpt><trkpt lat="40.6832211" lon="14.8555582"><ele>113.0</ele><time>2026-04-12T15:38:35.976Z</time></trkpt><trkpt lat="40.6834242" lon="14.8553526"><ele>113.0</ele><time>2026-04-12T15:38:36.977Z</time></trkpt><trkpt lat="40.6836223" lon="14.8551364"><ele>113.0</ele><time>2026-04-12T15:38:37.976Z</time></trkpt><trkpt lat="40.6838152" lon="14.8549127"><ele>113.0</ele><time>2026-04-12T15:38:38.976Z</time></trkpt><trkpt lat="40.6840044" lon="14.8546795"><ele>113.0</ele><time>2026-04-12T15:38:39.976Z</time></trkpt><trkpt lat="40.6841876" lon="14.8544378"><ele>113.0</ele><time>2026-04-12T15:38:40.976Z</time></trkpt><trkpt lat="40.6843634" lon="14.8541878"><ele>113.0</ele><time>2026-04-12T15:38:41.976Z</time></trkpt><trkpt lat="40.6845302" lon="14.8539375"><ele>114.0</ele><time>2026-04-12T15:38:42.976Z</time></trkpt><trkpt lat="40.6846989" lon="14.8536784"><ele>115.0</ele><time>2026-04-12T15:38:43.976Z</time></trkpt><trkpt lat="40.68486" lon="14.8534127"><ele>115.0</ele><time>2026-04-12T15:38:44.976Z</time></trkpt><trkpt lat="40.6850125" lon="14.8531409"><ele>115.0</ele><time>2026-04-12T15:38:45.976Z</time></trkpt><trkpt lat="40.6851599" lon="14.8528602"><ele>115.5</ele><time>2026-04-12T15:38:46.976Z</time></trkpt><trkpt lat="40.685295" lon="14.8525736"><ele>116.0</ele><time>2026-04-12T15:38:47.976Z</time></trkpt><trkpt lat="40.6854207" lon="14.8522814"><ele>116.0</ele><time>2026-04-12T15:38:48.976Z</time></trkpt><trkpt lat="40.6855391" lon="14.8519914"><ele>116.0</ele><time>2026-04-12T15:38:49.976Z</time></trkpt><trkpt lat="40.6856555" lon="14.8516904"><ele>114.0</ele><time>2026-04-12T15:38:50.976Z</time></trkpt><trkpt lat="40.6857645" lon="14.8513829"><ele>112.0</ele><time>2026-04-12T15:38:51.976Z</time></trkpt><trkpt lat="40.6858639" lon="14.8510737"><ele>110.5</ele><time>2026-04-12T15:38:52.976Z</time></trkpt><trkpt lat="40.68596" lon="14.8507619"><ele>109.0</ele><time>2026-04-12T15:38:53.977Z</time></trkpt><trkpt lat="40.6860518" lon="14.8504482"><ele>109.0</ele><time>2026-04-12T15:38:54.976Z</time></trkpt><trkpt lat="40.6861435" lon="14.8501306"><ele>109.0</ele><time>2026-04-12T15:38:55.976Z</time></trkpt><trkpt lat="40.6862292" lon="14.8498154"><ele>110.0</ele><time>2026-04-12T15:38:56.976Z</time></trkpt><trkpt lat="40.6863146" lon="14.8494986"><ele>111.0</ele><time>2026-04-12T15:38:57.976Z</time></trkpt><trkpt lat="40.6863958" lon="14.8491771"><ele>111.0</ele><time>2026-04-12T15:38:58.977Z</time></trkpt><trkpt lat="40.6864764" lon="14.8488564"><ele>111.0</ele><time>2026-04-12T15:38:59.976Z</time></trkpt><trkpt lat="40.6865588" lon="14.8485362"><ele>111.5</ele><time>2026-04-12T15:39:00.976Z</time></trkpt><trkpt lat="40.6866419" lon="14.8482136"><ele>112.0</ele><time>2026-04-12T15:39:01.976Z</time></trkpt><trkpt lat="40.686724" lon="14.8478953"><ele>115.5</ele><time>2026-04-12T15:39:02.977Z</time></trkpt><trkpt lat="40.6868045" lon="14.8475758"><ele>119.0</ele><time>2026-04-12T15:39:03.976Z</time></trkpt><trkpt lat="40.6868834" lon="14.8472596"><ele>120.5</ele><time>2026-04-12T15:39:04.976Z</time></trkpt><trkpt lat="40.686962" lon="14.8469383"><ele>122.0</ele><time>2026-04-12T15:39:05.976Z</time></trkpt><trkpt lat="40.6870391" lon="14.8466179"><ele>122.0</ele><time>2026-04-12T15:39:06.976Z</time></trkpt><trkpt lat="40.6871183" lon="14.8462967"><ele>122.0</ele><time>2026-04-12T15:39:07.976Z</time></trkpt><trkpt lat="40.6872005" lon="14.8459764"><ele>123.0</ele><time>2026-04-12T15:39:08.976Z</time></trkpt><trkpt lat="40.6872835" lon="14.8456587"><ele>124.0</ele><time>2026-04-12T15:39:09.976Z</time></trkpt><trkpt lat="40.6873667" lon="14.8453405"><ele>125.0</ele><time>2026-04-12T15:39:10.976Z</time></trkpt><trkpt lat="40.6874502" lon="14.8450212"><ele>126.0</ele><time>2026-04-12T15:39:11.976Z</time></trkpt><trkpt lat="40.6875357" lon="14.8447041"><ele>126.0</ele><time>2026-04-12T15:39:12.976Z</time></trkpt><trkpt lat="40.6876233" lon="14.8443886"><ele>126.0</ele><time>2026-04-12T15:39:13.976Z</time></trkpt><trkpt lat="40.6877103" lon="14.8440758"><ele>127.0</ele><time>2026-04-12T15:39:14.976Z</time></trkpt><trkpt lat="40.6877996" lon="14.8437616"><ele>128.0</ele><time>2026-04-12T15:39:15.976Z</time></trkpt><trkpt lat="40.687894" lon="14.8434484"><ele>128.5</ele><time>2026-04-12T15:39:16.976Z</time></trkpt><trkpt lat="40.6879948" lon="14.8431369"><ele>129.0</ele><time>2026-04-12T15:39:17.976Z</time></trkpt><trkpt lat="40.6880986" lon="14.8428282"><ele>129.5</ele><time>2026-04-12T15:39:18.976Z</time></trkpt><trkpt lat="40.6882081" lon="14.8425202"><ele>130.0</ele><time>2026-04-12T15:39:19.976Z</time></trkpt><trkpt lat="40.6883215" lon="14.842215"><ele>130.0</ele><time>2026-04-12T15:39:20.976Z</time></trkpt><trkpt lat="40.6884336" lon="14.8419107"><ele>130.0</ele><time>2026-04-12T15:39:21.976Z</time></trkpt><trkpt lat="40.6885537" lon="14.8416065"><ele>133.0</ele><time>2026-04-12T15:39:22.977Z</time></trkpt><trkpt lat="40.6886772" lon="14.8413087"><ele>136.0</ele><time>2026-04-12T15:39:23.976Z</time></trkpt><trkpt lat="40.688804" lon="14.841018"><ele>136.5</ele><time>2026-04-12T15:39:24.976Z</time></trkpt><trkpt lat="40.6889338" lon="14.8407314"><ele>137.0</ele><time>2026-04-12T15:39:25.976Z</time></trkpt><trkpt lat="40.6890684" lon="14.8404455"><ele>137.0</ele><time>2026-04-12T15:39:26.976Z</time></trkpt><trkpt lat="40.6892048" lon="14.8401571"><ele>137.0</ele><time>2026-04-12T15:39:27.976Z</time></trkpt><trkpt lat="40.6893349" lon="14.8398897"><ele>139.0</ele><time>2026-04-12T15:39:28.976Z</time></trkpt><trkpt lat="40.6894739" lon="14.8396061"><ele>141.0</ele><time>2026-04-12T15:39:29.976Z</time></trkpt><trkpt lat="40.6896168" lon="14.8393209"><ele>141.5</ele><time>2026-04-12T15:39:30.976Z</time></trkpt><trkpt lat="40.6897624" lon="14.8390437"><ele>142.0</ele><time>2026-04-12T15:39:31.976Z</time></trkpt><trkpt lat="40.6899159" lon="14.8387719"><ele>142.0</ele><time>2026-04-12T15:39:32.976Z</time></trkpt><trkpt lat="40.6900755" lon="14.838508"><ele>142.0</ele><time>2026-04-12T15:39:33.976Z</time></trkpt><trkpt lat="40.6902354" lon="14.8382456"><ele>144.5</ele><time>2026-04-12T15:39:34.976Z</time></trkpt><trkpt lat="40.6903988" lon="14.8379859"><ele>147.0</ele><time>2026-04-12T15:39:35.976Z</time></trkpt><trkpt lat="40.6905667" lon="14.8377317"><ele>148.5</ele><time>2026-04-12T15:39:36.976Z</time></trkpt><trkpt lat="40.6907369" lon="14.8374802"><ele>150.0</ele><time>2026-04-12T15:39:37.976Z</time></trkpt><trkpt lat="40.6909074" lon="14.8372313"><ele>150.0</ele><time>2026-04-12T15:39:38.976Z</time></trkpt><trkpt lat="40.6910806" lon="14.8369824"><ele>150.0</ele><time>2026-04-12T15:39:39.976Z</time></trkpt><trkpt lat="40.6912591" lon="14.8367342"><ele>150.5</ele><time>2026-04-12T15:39:40.976Z</time></trkpt><trkpt lat="40.6914381" lon="14.8364866"><ele>151.0</ele><time>2026-04-12T15:39:41.976Z</time></trkpt><trkpt lat="40.691618" lon="14.8362458"><ele>151.0</ele><time>2026-04-12T15:39:42.976Z</time></trkpt><trkpt lat="40.6917943" lon="14.8360069"><ele>151.0</ele><time>2026-04-12T15:39:43.976Z</time></trkpt><trkpt lat="40.6919674" lon="14.8357663"><ele>153.0</ele><time>2026-04-12T15:39:44.976Z</time></trkpt><trkpt lat="40.6921449" lon="14.8355266"><ele>155.0</ele><time>2026-04-12T15:39:45.976Z</time></trkpt><trkpt lat="40.6923292" lon="14.8352845"><ele>155.5</ele><time>2026-04-12T15:39:46.976Z</time></trkpt><trkpt lat="40.6925115" lon="14.8350465"><ele>156.0</ele><time>2026-04-12T15:39:47.976Z</time></trkpt><trkpt lat="40.6926911" lon="14.8348022"><ele>157.0</ele><time>2026-04-12T15:39:48.976Z</time></trkpt><trkpt lat="40.6928723" lon="14.8345636"><ele>158.0</ele><time>2026-04-12T15:39:49.976Z</time></trkpt><trkpt lat="40.6930544" lon="14.8343283"><ele>158.0</ele><time>2026-04-12T15:39:50.976Z</time></trkpt><trkpt lat="40.6932374" lon="14.8340934"><ele>158.0</ele><time>2026-04-12T15:39:51.976Z</time></trkpt><trkpt lat="40.6934181" lon="14.8338535"><ele>160.0</ele><time>2026-04-12T15:39:52.976Z</time></trkpt><trkpt lat="40.6936013" lon="14.8336081"><ele>162.0</ele><time>2026-04-12T15:39:53.976Z</time></trkpt><trkpt lat="40.6937713" lon="14.8333748"><ele>163.0</ele><time>2026-04-12T15:39:54.976Z</time></trkpt><trkpt lat="40.693945" lon="14.8331293"><ele>164.0</ele><time>2026-04-12T15:39:55.977Z</time></trkpt><trkpt lat="40.694122" lon="14.8328903"><ele>164.0</ele><time>2026-04-12T15:39:56.976Z</time></trkpt><trkpt lat="40.6942986" lon="14.8326531"><ele>164.0</ele><time>2026-04-12T15:39:57.976Z</time></trkpt><trkpt lat="40.6944799" lon="14.8324123"><ele>165.0</ele><time>2026-04-12T15:39:58.976Z</time></trkpt><trkpt lat="40.6946573" lon="14.8321614"><ele>166.0</ele><time>2026-04-12T15:39:59.976Z</time></trkpt><trkpt lat="40.6948297" lon="14.8319077"><ele>166.0</ele><time>2026-04-12T15:40:00.976Z</time></trkpt><trkpt lat="40.6950022" lon="14.831652"><ele>166.0</ele><time>2026-04-12T15:40:01.976Z</time></trkpt><trkpt lat="40.6951749" lon="14.8313904"><ele>168.5</ele><time>2026-04-12T15:40:02.976Z</time></trkpt><trkpt lat="40.6953434" lon="14.8311318"><ele>171.0</ele><time>2026-04-12T15:40:03.976Z</time></trkpt><trkpt lat="40.6955062" lon="14.8308691"><ele>172.5</ele><time>2026-04-12T15:40:04.977Z</time></trkpt><trkpt lat="40.6956653" lon="14.8306015"><ele>174.0</ele><time>2026-04-12T15:40:05.977Z</time></trkpt><trkpt lat="40.6958168" lon="14.8303342"><ele>174.5</ele><time>2026-04-12T15:40:06.976Z</time></trkpt><trkpt lat="40.6959717" lon="14.8300631"><ele>175.0</ele><time>2026-04-12T15:40:07.976Z</time></trkpt><trkpt lat="40.6961232" lon="14.8297896"><ele>176.0</ele><time>2026-04-12T15:40:08.976Z</time></trkpt><trkpt lat="40.6962761" lon="14.829512"><ele>177.0</ele><time>2026-04-12T15:40:09.976Z</time></trkpt><trkpt lat="40.6964224" lon="14.8292417"><ele>178.0</ele><time>2026-04-12T15:40:10.976Z</time></trkpt><trkpt lat="40.6965576" lon="14.8289559"><ele>179.0</ele><time>2026-04-12T15:40:11.977Z</time></trkpt><trkpt lat="40.6966901" lon="14.8286699"><ele>178.0</ele><time>2026-04-12T15:40:12.976Z</time></trkpt><trkpt lat="40.6968183" lon="14.8283758"><ele>177.0</ele><time>2026-04-12T15:40:13.977Z</time></trkpt><trkpt lat="40.6969419" lon="14.8280797"><ele>178.0</ele><time>2026-04-12T15:40:14.976Z</time></trkpt><trkpt lat="40.6970632" lon="14.8277827"><ele>179.0</ele><time>2026-04-12T15:40:15.976Z</time></trkpt><trkpt lat="40.6971894" lon="14.8274885"><ele>179.0</ele><time>2026-04-12T15:40:16.976Z</time></trkpt><trkpt lat="40.6973164" lon="14.8271936"><ele>179.0</ele><time>2026-04-12T15:40:17.976Z</time></trkpt><trkpt lat="40.6974329" lon="14.8268938"><ele>177.5</ele><time>2026-04-12T15:40:18.976Z</time></trkpt><trkpt lat="40.6975395" lon="14.8265862"><ele>176.0</ele><time>2026-04-12T15:40:19.976Z</time></trkpt><trkpt lat="40.697641" lon="14.8262793"><ele>175.0</ele><time>2026-04-12T15:40:20.976Z</time></trkpt><trkpt lat="40.6977394" lon="14.8259655"><ele>174.0</ele><time>2026-04-12T15:40:21.976Z</time></trkpt><trkpt lat="40.6978364" lon="14.82565"><ele>174.5</ele><time>2026-04-12T15:40:22.976Z</time></trkpt><trkpt lat="40.6979238" lon="14.8253331"><ele>175.0</ele><time>2026-04-12T15:40:23.976Z</time></trkpt><trkpt lat="40.6980079" lon="14.8250137"><ele>175.0</ele><time>2026-04-12T15:40:24.976Z</time></trkpt><trkpt lat="40.6980868" lon="14.8246909"><ele>175.0</ele><time>2026-04-12T15:40:25.976Z</time></trkpt><trkpt lat="40.6981592" lon="14.8243659"><ele>175.0</ele><time>2026-04-12T15:40:26.976Z</time></trkpt><trkpt lat="40.6982278" lon="14.8240401"><ele>175.0</ele><time>2026-04-12T15:40:27.976Z</time></trkpt><trkpt lat="40.6982938" lon="14.8237171"><ele>175.5</ele><time>2026-04-12T15:40:28.976Z</time></trkpt><trkpt lat="40.6983598" lon="14.8233914"><ele>176.0</ele><time>2026-04-12T15:40:29.976Z</time></trkpt><trkpt lat="40.6984206" lon="14.8230631"><ele>176.0</ele><time>2026-04-12T15:40:30.976Z</time></trkpt><trkpt lat="40.6984784" lon="14.8227296"><ele>176.0</ele><time>2026-04-12T15:40:31.975Z</time></trkpt><trkpt lat="40.6985293" lon="14.8223969"><ele>176.5</ele><time>2026-04-12T15:40:32.975Z</time></trkpt><trkpt lat="40.6985784" lon="14.8220623"><ele>177.0</ele><time>2026-04-12T15:40:33.975Z</time></trkpt><trkpt lat="40.6986221" lon="14.821727"><ele>177.5</ele><time>2026-04-12T15:40:34.975Z</time></trkpt><trkpt lat="40.6986632" lon="14.8213941"><ele>178.0</ele><time>2026-04-12T15:40:35.975Z</time></trkpt><trkpt lat="40.6987093" lon="14.8210584"><ele>179.0</ele><time>2026-04-12T15:40:36.975Z</time></trkpt><trkpt lat="40.698751" lon="14.8207242"><ele>180.0</ele><time>2026-04-12T15:40:37.975Z</time></trkpt><trkpt lat="40.6987904" lon="14.8203869"><ele>180.5</ele><time>2026-04-12T15:40:38.975Z</time></trkpt><trkpt lat="40.6988278" lon="14.8200486"><ele>181.0</ele><time>2026-04-12T15:40:39.975Z</time></trkpt><trkpt lat="40.6988598" lon="14.8197128"><ele>181.0</ele><time>2026-04-12T15:40:40.975Z</time></trkpt><trkpt lat="40.6988915" lon="14.8193764"><ele>181.0</ele><time>2026-04-12T15:40:41.975Z</time></trkpt><trkpt lat="40.6989172" lon="14.8190507"><ele>182.0</ele><time>2026-04-12T15:40:42.976Z</time></trkpt><trkpt lat="40.6989444" lon="14.8187231"><ele>183.0</ele><time>2026-04-12T15:40:43.975Z</time></trkpt><trkpt lat="40.6989674" lon="14.8183976"><ele>184.5</ele><time>2026-04-12T15:40:44.975Z</time></trkpt><trkpt lat="40.698993" lon="14.8180713"><ele>186.0</ele><time>2026-04-12T15:40:45.976Z</time></trkpt><trkpt lat="40.6990228" lon="14.8177402"><ele>187.0</ele><time>2026-04-12T15:40:46.975Z</time></trkpt><trkpt lat="40.6990553" lon="14.8174074"><ele>188.0</ele><time>2026-04-12T15:40:47.975Z</time></trkpt><trkpt lat="40.6992001" lon="14.8157259"><ele>173.0</ele><time>2026-04-12T15:40:53.09Z</time></trkpt><trkpt lat="40.6995614" lon="14.8112863"><ele>174.5</ele><time>2026-04-12T15:41:05.981Z</time></trkpt><trkpt lat="40.6995628" lon="14.8109425"><ele>176.0</ele><time>2026-04-12T15:41:06.98Z</time></trkpt><trkpt lat="40.6995587" lon="14.8106019"><ele>176.0</ele><time>2026-04-12T15:41:07.98Z</time></trkpt><trkpt lat="40.6995476" lon="14.8102625"><ele>176.0</ele><time>2026-04-12T15:41:08.98Z</time></trkpt><trkpt lat="40.6995321" lon="14.8099239"><ele>176.0</ele><time>2026-04-12T15:41:09.981Z</time></trkpt><trkpt lat="40.6995151" lon="14.8095833"><ele>176.0</ele><time>2026-04-12T15:41:10.98Z</time></trkpt><trkpt lat="40.6994893" lon="14.8092436"><ele>176.0</ele><time>2026-04-12T15:41:11.98Z</time></trkpt><trkpt lat="40.6994549" lon="14.8089089"><ele>176.0</ele><time>2026-04-12T15:41:12.98Z</time></trkpt><trkpt lat="40.6994198" lon="14.8085779"><ele>168.0</ele><time>2026-04-12T15:41:13.98Z</time></trkpt><trkpt lat="40.6993823" lon="14.8082431"><ele>160.0</ele><time>2026-04-12T15:41:14.98Z</time></trkpt><trkpt lat="40.6993322" lon="14.8079108"><ele>156.5</ele><time>2026-04-12T15:41:15.98Z</time></trkpt><trkpt lat="40.6992807" lon="14.8075794"><ele>153.0</ele><time>2026-04-12T15:41:16.98Z</time></trkpt><trkpt lat="40.699221" lon="14.8072495"><ele>153.0</ele><time>2026-04-12T15:41:17.98Z</time></trkpt><trkpt lat="40.6991585" lon="14.8069198"><ele>153.0</ele><time>2026-04-12T15:41:18.98Z</time></trkpt><trkpt lat="40.6990929" lon="14.8065939"><ele>154.0</ele><time>2026-04-12T15:41:19.98Z</time></trkpt><trkpt lat="40.6990218" lon="14.8062667"><ele>155.0</ele><time>2026-04-12T15:41:20.98Z</time></trkpt><trkpt lat="40.698949" lon="14.805939"><ele>156.0</ele><time>2026-04-12T15:41:21.98Z</time></trkpt><trkpt lat="40.6988701" lon="14.8056113"><ele>157.0</ele><time>2026-04-12T15:41:22.98Z</time></trkpt><trkpt lat="40.6987925" lon="14.8052892"><ele>153.5</ele><time>2026-04-12T15:41:23.98Z</time></trkpt><trkpt lat="40.6987144" lon="14.804971"><ele>150.0</ele><time>2026-04-12T15:41:24.98Z</time></trkpt><trkpt lat="40.6986337" lon="14.8046492"><ele>144.0</ele><time>2026-04-12T15:41:25.98Z</time></trkpt><trkpt lat="40.6985573" lon="14.8043261"><ele>138.0</ele><time>2026-04-12T15:41:26.98Z</time></trkpt><trkpt lat="40.6984779" lon="14.8040025"><ele>138.0</ele><time>2026-04-12T15:41:27.98Z</time></trkpt><trkpt lat="40.698397" lon="14.8036829"><ele>138.0</ele><time>2026-04-12T15:41:28.98Z</time></trkpt><trkpt lat="40.6983157" lon="14.8033583"><ele>139.5</ele><time>2026-04-12T15:41:29.98Z</time></trkpt><trkpt lat="40.6982399" lon="14.803031"><ele>141.0</ele><time>2026-04-12T15:41:30.98Z</time></trkpt><trkpt lat="40.6981641" lon="14.802704"><ele>142.5</ele><time>2026-04-12T15:41:31.981Z</time></trkpt><trkpt lat="40.698088" lon="14.8023808"><ele>144.0</ele><time>2026-04-12T15:41:32.98Z</time></trkpt><trkpt lat="40.6980097" lon="14.802059"><ele>143.5</ele><time>2026-04-12T15:41:33.98Z</time></trkpt><trkpt lat="40.69793" lon="14.8017411"><ele>143.0</ele><time>2026-04-12T15:41:34.98Z</time></trkpt><trkpt lat="40.6978525" lon="14.801417"><ele>143.0</ele><time>2026-04-12T15:41:35.98Z</time></trkpt><trkpt lat="40.6977758" lon="14.8010921"><ele>143.0</ele><time>2026-04-12T15:41:36.98Z</time></trkpt><trkpt lat="40.6977025" lon="14.8007631"><ele>134.0</ele><time>2026-04-12T15:41:37.98Z</time></trkpt><trkpt lat="40.6976386" lon="14.8004329"><ele>125.0</ele><time>2026-04-12T15:41:38.98Z</time></trkpt><trkpt lat="40.6975754" lon="14.800105"><ele>125.0</ele><time>2026-04-12T15:41:39.98Z</time></trkpt><trkpt lat="40.697512" lon="14.7997764"><ele>125.0</ele><time>2026-04-12T15:41:40.98Z</time></trkpt><trkpt lat="40.6974534" lon="14.7994501"><ele>125.0</ele><time>2026-04-12T15:41:41.98Z</time></trkpt><trkpt lat="40.6974035" lon="14.7991183"><ele>125.0</ele><time>2026-04-12T15:41:42.98Z</time></trkpt><trkpt lat="40.6973545" lon="14.7987828"><ele>122.5</ele><time>2026-04-12T15:41:43.98Z</time></trkpt><trkpt lat="40.6973041" lon="14.7984486"><ele>120.0</ele><time>2026-04-12T15:41:44.98Z</time></trkpt><trkpt lat="40.697262" lon="14.7981159"><ele>120.0</ele><time>2026-04-12T15:41:45.98Z</time></trkpt><trkpt lat="40.6972264" lon="14.7977823"><ele>120.0</ele><time>2026-04-12T15:41:46.98Z</time></trkpt><trkpt lat="40.6972023" lon="14.7974462"><ele>118.0</ele><time>2026-04-12T15:41:47.981Z</time></trkpt><trkpt lat="40.6971822" lon="14.7971058"><ele>116.0</ele><time>2026-04-12T15:41:48.98Z</time></trkpt><trkpt lat="40.6971635" lon="14.7967667"><ele>114.0</ele><time>2026-04-12T15:41:49.98Z</time></trkpt><trkpt lat="40.6971499" lon="14.7964268"><ele>112.0</ele><time>2026-04-12T15:41:50.98Z</time></trkpt><trkpt lat="40.697145" lon="14.7960927"><ele>111.0</ele><time>2026-04-12T15:41:51.98Z</time></trkpt><trkpt lat="40.697145" lon="14.7957506"><ele>110.0</ele><time>2026-04-12T15:41:52.98Z</time></trkpt><trkpt lat="40.6971496" lon="14.7954122"><ele>111.5</ele><time>2026-04-12T15:41:53.98Z</time></trkpt><trkpt lat="40.6971548" lon="14.7950763"><ele>113.0</ele><time>2026-04-12T15:41:54.98Z</time></trkpt><trkpt lat="40.6971634" lon="14.7947366"><ele>113.0</ele><time>2026-04-12T15:41:55.98Z</time></trkpt><trkpt lat="40.6971776" lon="14.7943931"><ele>113.0</ele><time>2026-04-12T15:41:56.98Z</time></trkpt><trkpt lat="40.6971928" lon="14.7940509"><ele>114.0</ele><time>2026-04-12T15:41:57.98Z</time></trkpt><trkpt lat="40.6972114" lon="14.7937067"><ele>115.0</ele><time>2026-04-12T15:41:58.98Z</time></trkpt><trkpt lat="40.6972346" lon="14.7933656"><ele>115.0</ele><time>2026-04-12T15:41:59.98Z</time></trkpt><trkpt lat="40.6972616" lon="14.7930265"><ele>115.0</ele><time>2026-04-12T15:42:00.98Z</time></trkpt><trkpt lat="40.6972954" lon="14.7926904"><ele>112.5</ele><time>2026-04-12T15:42:01.98Z</time></trkpt><trkpt lat="40.6973266" lon="14.7923527"><ele>110.0</ele><time>2026-04-12T15:42:02.98Z</time></trkpt><trkpt lat="40.6973582" lon="14.7920194"><ele>107.5</ele><time>2026-04-12T15:42:03.98Z</time></trkpt><trkpt lat="40.6973887" lon="14.7916824"><ele>105.0</ele><time>2026-04-12T15:42:04.98Z</time></trkpt><trkpt lat="40.6974162" lon="14.7913445"><ele>103.0</ele><time>2026-04-12T15:42:05.98Z</time></trkpt><trkpt lat="40.6974324" lon="14.7910062"><ele>101.0</ele><time>2026-04-12T15:42:06.98Z</time></trkpt><trkpt lat="40.6974465" lon="14.7906677"><ele>101.0</ele><time>2026-04-12T15:42:07.98Z</time></trkpt><trkpt lat="40.6974624" lon="14.7903244"><ele>101.0</ele><time>2026-04-12T15:42:08.98Z</time></trkpt><trkpt lat="40.6974689" lon="14.7899823"><ele>99.0</ele><time>2026-04-12T15:42:09.98Z</time></trkpt><trkpt lat="40.6974628" lon="14.789643"><ele>97.0</ele><time>2026-04-12T15:42:10.981Z</time></trkpt><trkpt lat="40.6974462" lon="14.7893091"><ele>96.5</ele><time>2026-04-12T15:42:11.98Z</time></trkpt><trkpt lat="40.6974238" lon="14.788967"><ele>96.0</ele><time>2026-04-12T15:42:12.98Z</time></trkpt><trkpt lat="40.6973934" lon="14.7886293"><ele>93.0</ele><time>2026-04-12T15:42:13.98Z</time></trkpt><trkpt lat="40.6973572" lon="14.7882942"><ele>90.0</ele><time>2026-04-12T15:42:14.98Z</time></trkpt><trkpt lat="40.6973172" lon="14.7879597"><ele>87.5</ele><time>2026-04-12T15:42:15.98Z</time></trkpt><trkpt lat="40.6972708" lon="14.7876288"><ele>85.0</ele><time>2026-04-12T15:42:16.98Z</time></trkpt><trkpt lat="40.697218" lon="14.7872953"><ele>85.0</ele><time>2026-04-12T15:42:17.98Z</time></trkpt><trkpt lat="40.6971577" lon="14.7869634"><ele>85.0</ele><time>2026-04-12T15:42:18.98Z</time></trkpt><trkpt lat="40.6970989" lon="14.7866308"><ele>85.0</ele><time>2026-04-12T15:42:19.98Z</time></trkpt><trkpt lat="40.6970427" lon="14.7863025"><ele>85.0</ele><time>2026-04-12T15:42:20.981Z</time></trkpt><trkpt lat="40.6969799" lon="14.7859828"><ele>79.0</ele><time>2026-04-12T15:42:21.98Z</time></trkpt><trkpt lat="40.6969149" lon="14.7856531"><ele>73.0</ele><time>2026-04-12T15:42:22.98Z</time></trkpt><trkpt lat="40.6968529" lon="14.7853208"><ele>72.0</ele><time>2026-04-12T15:42:23.98Z</time></trkpt><trkpt lat="40.6967927" lon="14.7849887"><ele>71.0</ele><time>2026-04-12T15:42:24.98Z</time></trkpt><trkpt lat="40.6967371" lon="14.784657"><ele>71.0</ele><time>2026-04-12T15:42:25.98Z</time></trkpt><trkpt lat="40.6966808" lon="14.7843255"><ele>71.0</ele><time>2026-04-12T15:42:26.98Z</time></trkpt><trkpt lat="40.6966196" lon="14.783993"><ele>71.0</ele><time>2026-04-12T15:42:27.98Z</time></trkpt><trkpt lat="40.6965643" lon="14.7836612"><ele>71.0</ele><time>2026-04-12T15:42:28.98Z</time></trkpt><trkpt lat="40.696513" lon="14.7833292"><ele>71.0</ele><time>2026-04-12T15:42:29.98Z</time></trkpt><trkpt lat="40.6964724" lon="14.7830006"><ele>71.0</ele><time>2026-04-12T15:42:30.98Z</time></trkpt><trkpt lat="40.6964559" lon="14.7826684"><ele>71.0</ele><time>2026-04-12T15:42:31.98Z</time></trkpt><trkpt lat="40.6964728" lon="14.7823311"><ele>71.0</ele><time>2026-04-12T15:42:32.98Z</time></trkpt><trkpt lat="40.6965128" lon="14.7820147"><ele>70.0</ele><time>2026-04-12T15:42:33.981Z</time></trkpt><trkpt lat="40.6965822" lon="14.7817061"><ele>69.0</ele><time>2026-04-12T15:42:34.98Z</time></trkpt><trkpt lat="40.6966781" lon="14.7814096"><ele>69.0</ele><time>2026-04-12T15:42:35.981Z</time></trkpt><trkpt lat="40.6967988" lon="14.7811247"><ele>69.0</ele><time>2026-04-12T15:42:36.98Z</time></trkpt><trkpt lat="40.6969417" lon="14.7808497"><ele>76.5</ele><time>2026-04-12T15:42:37.98Z</time></trkpt><trkpt lat="40.6971017" lon="14.7805967"><ele>84.0</ele><time>2026-04-12T15:42:38.98Z</time></trkpt><trkpt lat="40.6972805" lon="14.7803761"><ele>80.5</ele><time>2026-04-12T15:42:39.98Z</time></trkpt><trkpt lat="40.697476" lon="14.7801592"><ele>77.0</ele><time>2026-04-12T15:42:40.98Z</time></trkpt><trkpt lat="40.6976821" lon="14.7799628"><ele>80.0</ele><time>2026-04-12T15:42:41.98Z</time></trkpt><trkpt lat="40.6979007" lon="14.779786"><ele>83.0</ele><time>2026-04-12T15:42:42.98Z</time></trkpt><trkpt lat="40.6981244" lon="14.779622"><ele>83.0</ele><time>2026-04-12T15:42:43.98Z</time></trkpt><trkpt lat="40.6983552" lon="14.7794726"><ele>83.0</ele><time>2026-04-12T15:42:44.98Z</time></trkpt><trkpt lat="40.6985911" lon="14.7793412"><ele>76.0</ele><time>2026-04-12T15:42:45.98Z</time></trkpt><trkpt lat="40.6988304" lon="14.7792307"><ele>69.0</ele><time>2026-04-12T15:42:46.98Z</time></trkpt><trkpt lat="40.6990803" lon="14.7791548"><ele>69.0</ele><time>2026-04-12T15:42:47.98Z</time></trkpt><trkpt lat="40.6993367" lon="14.7790918"><ele>69.0</ele><time>2026-04-12T15:42:48.98Z</time></trkpt><trkpt lat="40.6995933" lon="14.7790397"><ele>68.5</ele><time>2026-04-12T15:42:49.98Z</time></trkpt><trkpt lat="40.6998507" lon="14.7789935"><ele>68.0</ele><time>2026-04-12T15:42:50.98Z</time></trkpt><trkpt lat="40.7001057" lon="14.778954"><ele>70.5</ele><time>2026-04-12T15:42:51.98Z</time></trkpt><trkpt lat="40.7003597" lon="14.7789191"><ele>73.0</ele><time>2026-04-12T15:42:52.98Z</time></trkpt><trkpt lat="40.7006159" lon="14.7788856"><ele>73.0</ele><time>2026-04-12T15:42:53.98Z</time></trkpt><trkpt lat="40.700869" lon="14.7788535"><ele>73.0</ele><time>2026-04-12T15:42:54.98Z</time></trkpt><trkpt lat="40.7011248" lon="14.7788256"><ele>76.0</ele><time>2026-04-12T15:42:55.98Z</time></trkpt><trkpt lat="40.70138" lon="14.7788011"><ele>79.0</ele><time>2026-04-12T15:42:56.98Z</time></trkpt><trkpt lat="40.7016339" lon="14.778774"><ele>79.0</ele><time>2026-04-12T15:42:57.981Z</time></trkpt><trkpt lat="40.7018921" lon="14.7787398"><ele>79.0</ele><time>2026-04-12T15:42:58.98Z</time></trkpt><trkpt lat="40.702148" lon="14.7787086"><ele>81.5</ele><time>2026-04-12T15:42:59.98Z</time></trkpt><trkpt lat="40.7024044" lon="14.7786769"><ele>84.0</ele><time>2026-04-12T15:43:00.98Z</time></trkpt><trkpt lat="40.7026597" lon="14.7786453"><ele>86.0</ele><time>2026-04-12T15:43:01.98Z</time></trkpt><trkpt lat="40.7029134" lon="14.7786136"><ele>88.0</ele><time>2026-04-12T15:43:02.98Z</time></trkpt><trkpt lat="40.7031656" lon="14.7785832"><ele>88.0</ele><time>2026-04-12T15:43:03.98Z</time></trkpt><trkpt lat="40.703421" lon="14.7785507"><ele>88.0</ele><time>2026-04-12T15:43:04.98Z</time></trkpt><trkpt lat="40.7036749" lon="14.7785249"><ele>84.5</ele><time>2026-04-12T15:43:05.98Z</time></trkpt><trkpt lat="40.7039298" lon="14.7785049"><ele>81.0</ele><time>2026-04-12T15:43:06.98Z</time></trkpt><trkpt lat="40.7041838" lon="14.7784939"><ele>83.0</ele><time>2026-04-12T15:43:07.98Z</time></trkpt><trkpt lat="40.7044437" lon="14.7784877"><ele>85.0</ele><time>2026-04-12T15:43:08.98Z</time></trkpt><trkpt lat="40.7047039" lon="14.7784927"><ele>85.0</ele><time>2026-04-12T15:43:09.981Z</time></trkpt><trkpt lat="40.7049602" lon="14.7785129"><ele>85.0</ele><time>2026-04-12T15:43:10.98Z</time></trkpt><trkpt lat="40.705215" lon="14.7785512"><ele>87.5</ele><time>2026-04-12T15:43:11.981Z</time></trkpt><trkpt lat="40.7054644" lon="14.77861"><ele>90.0</ele><time>2026-04-12T15:43:12.98Z</time></trkpt><trkpt lat="40.7057107" lon="14.7786939"><ele>90.0</ele><time>2026-04-12T15:43:13.98Z</time></trkpt><trkpt lat="40.7059523" lon="14.7787954"><ele>90.0</ele><time>2026-04-12T15:43:14.98Z</time></trkpt><trkpt lat="40.7061892" lon="14.7789162"><ele>91.0</ele><time>2026-04-12T15:43:15.98Z</time></trkpt><trkpt lat="40.7064253" lon="14.7790459"><ele>92.0</ele><time>2026-04-12T15:43:16.98Z</time></trkpt><trkpt lat="40.7066602" lon="14.7791838"><ele>92.0</ele><time>2026-04-12T15:43:17.981Z</time></trkpt><trkpt lat="40.7068949" lon="14.7793212"><ele>92.0</ele><time>2026-04-12T15:43:18.98Z</time></trkpt><trkpt lat="40.7071286" lon="14.779457"><ele>98.0</ele><time>2026-04-12T15:43:19.98Z</time></trkpt><trkpt lat="40.7073661" lon="14.7795913"><ele>104.0</ele><time>2026-04-12T15:43:20.98Z</time></trkpt><trkpt lat="40.7075995" lon="14.779722"><ele>104.0</ele><time>2026-04-12T15:43:21.98Z</time></trkpt><trkpt lat="40.7078367" lon="14.7798524"><ele>104.0</ele><time>2026-04-12T15:43:22.98Z</time></trkpt><trkpt lat="40.7080699" lon="14.779981"><ele>104.0</ele><time>2026-04-12T15:43:23.98Z</time></trkpt><trkpt lat="40.7083084" lon="14.7800961"><ele>104.0</ele><time>2026-04-12T15:43:24.98Z</time></trkpt><trkpt lat="40.7085477" lon="14.7801916"><ele>112.5</ele><time>2026-04-12T15:43:25.98Z</time></trkpt><trkpt lat="40.7087932" lon="14.7802626"><ele>121.0</ele><time>2026-04-12T15:43:26.98Z</time></trkpt><trkpt lat="40.7090452" lon="14.7803139"><ele>121.0</ele><time>2026-04-12T15:43:27.981Z</time></trkpt><trkpt lat="40.7092988" lon="14.7803431"><ele>121.0</ele><time>2026-04-12T15:43:28.98Z</time></trkpt><trkpt lat="40.7095538" lon="14.7803525"><ele>122.0</ele><time>2026-04-12T15:43:29.98Z</time></trkpt><trkpt lat="40.7098068" lon="14.7803466"><ele>123.0</ele><time>2026-04-12T15:43:30.98Z</time></trkpt><trkpt lat="40.7100589" lon="14.7803219"><ele>126.0</ele><time>2026-04-12T15:43:31.98Z</time></trkpt><trkpt lat="40.7103129" lon="14.7802774"><ele>129.0</ele><time>2026-04-12T15:43:32.98Z</time></trkpt><trkpt lat="40.7105648" lon="14.7802204"><ele>120.0</ele><time>2026-04-12T15:43:33.98Z</time></trkpt><trkpt lat="40.7108121" lon="14.7801361"><ele>111.0</ele><time>2026-04-12T15:43:34.98Z</time></trkpt><trkpt lat="40.7110591" lon="14.7800378"><ele>112.5</ele><time>2026-04-12T15:43:35.98Z</time></trkpt><trkpt lat="40.7113039" lon="14.7799329"><ele>114.0</ele><time>2026-04-12T15:43:36.98Z</time></trkpt><trkpt lat="40.7115473" lon="14.779816"><ele>114.0</ele><time>2026-04-12T15:43:37.98Z</time></trkpt><trkpt lat="40.711788" lon="14.7796989"><ele>114.0</ele><time>2026-04-12T15:43:38.98Z</time></trkpt><trkpt lat="40.7120272" lon="14.7795844"><ele>118.0</ele><time>2026-04-12T15:43:39.98Z</time></trkpt><trkpt lat="40.7122673" lon="14.7794794"><ele>122.0</ele><time>2026-04-12T15:43:40.98Z</time></trkpt><trkpt lat="40.712509" lon="14.7793822"><ele>120.5</ele><time>2026-04-12T15:43:41.98Z</time></trkpt><trkpt lat="40.7127547" lon="14.7792982"><ele>119.0</ele><time>2026-04-12T15:43:42.98Z</time></trkpt><trkpt lat="40.7130077" lon="14.7792299"><ele>119.0</ele><time>2026-04-12T15:43:43.98Z</time></trkpt><trkpt lat="40.7132591" lon="14.7791708"><ele>119.0</ele><time>2026-04-12T15:43:44.98Z</time></trkpt><trkpt lat="40.7135149" lon="14.7791188"><ele>118.0</ele><time>2026-04-12T15:43:45.981Z</time></trkpt><trkpt lat="40.7137705" lon="14.77907"><ele>117.0</ele><time>2026-04-12T15:43:46.981Z</time></trkpt><trkpt lat="40.7140283" lon="14.7790266"><ele>117.0</ele><time>2026-04-12T15:43:47.98Z</time></trkpt><trkpt lat="40.714283" lon="14.7789822"><ele>117.0</ele><time>2026-04-12T15:43:48.98Z</time></trkpt><trkpt lat="40.7145368" lon="14.778941"><ele>123.0</ele><time>2026-04-12T15:43:49.98Z</time></trkpt><trkpt lat="40.7147914" lon="14.7788995"><ele>129.0</ele><time>2026-04-12T15:43:50.98Z</time></trkpt><trkpt lat="40.715045" lon="14.7788567"><ele>134.5</ele><time>2026-04-12T15:43:51.98Z</time></trkpt><trkpt lat="40.7152972" lon="14.7788195"><ele>140.0</ele><time>2026-04-12T15:43:52.98Z</time></trkpt><trkpt lat="40.715549" lon="14.7787759"><ele>140.0</ele><time>2026-04-12T15:43:53.98Z</time></trkpt><trkpt lat="40.715802" lon="14.778734"><ele>140.0</ele><time>2026-04-12T15:43:54.98Z</time></trkpt><trkpt lat="40.7160553" lon="14.7786878"><ele>148.5</ele><time>2026-04-12T15:43:55.98Z</time></trkpt><trkpt lat="40.7163098" lon="14.7786388"><ele>157.0</ele><time>2026-04-12T15:43:56.98Z</time></trkpt><trkpt lat="40.7165671" lon="14.7785915"><ele>157.0</ele><time>2026-04-12T15:43:57.98Z</time></trkpt><trkpt lat="40.7168216" lon="14.7785459"><ele>157.0</ele><time>2026-04-12T15:43:58.98Z</time></trkpt><trkpt lat="40.7170764" lon="14.7784986"><ele>147.5</ele><time>2026-04-12T15:43:59.98Z</time></trkpt><trkpt lat="40.7173288" lon="14.778459"><ele>138.0</ele><time>2026-04-12T15:44:00.98Z</time></trkpt><trkpt lat="40.7175855" lon="14.7784182"><ele>138.5</ele><time>2026-04-12T15:44:01.981Z</time></trkpt><trkpt lat="40.7178399" lon="14.778372"><ele>139.0</ele><time>2026-04-12T15:44:02.98Z</time></trkpt><trkpt lat="40.718091" lon="14.7783288"><ele>139.0</ele><time>2026-04-12T15:44:03.98Z</time></trkpt><trkpt lat="40.7183436" lon="14.7782929"><ele>139.0</ele><time>2026-04-12T15:44:04.981Z</time></trkpt><trkpt lat="40.7185979" lon="14.7782499"><ele>138.0</ele><time>2026-04-12T15:44:05.98Z</time></trkpt><trkpt lat="40.7188539" lon="14.7782042"><ele>137.0</ele><time>2026-04-12T15:44:06.98Z</time></trkpt><trkpt lat="40.7191069" lon="14.7781588"><ele>137.0</ele><time>2026-04-12T15:44:07.98Z</time></trkpt><trkpt lat="40.719359" lon="14.7781148"><ele>137.0</ele><time>2026-04-12T15:44:08.98Z</time></trkpt><trkpt lat="40.7196143" lon="14.7780665"><ele>139.0</ele><time>2026-04-12T15:44:09.98Z</time></trkpt><trkpt lat="40.7198717" lon="14.7780182"><ele>141.0</ele><time>2026-04-12T15:44:10.98Z</time></trkpt><trkpt lat="40.7201262" lon="14.7779687"><ele>142.0</ele><time>2026-04-12T15:44:11.981Z</time></trkpt><trkpt lat="40.7203786" lon="14.7779149"><ele>143.0</ele><time>2026-04-12T15:44:12.98Z</time></trkpt><trkpt lat="40.7206325" lon="14.7778427"><ele>143.0</ele><time>2026-04-12T15:44:13.981Z</time></trkpt><trkpt lat="40.7208768" lon="14.7777556"><ele>143.0</ele><time>2026-04-12T15:44:14.98Z</time></trkpt><trkpt lat="40.7211192" lon="14.7776509"><ele>145.0</ele><time>2026-04-12T15:44:15.98Z</time></trkpt><trkpt lat="40.7213573" lon="14.777526"><ele>147.0</ele><time>2026-04-12T15:44:16.98Z</time></trkpt><trkpt lat="40.7215955" lon="14.7773896"><ele>147.0</ele><time>2026-04-12T15:44:17.981Z</time></trkpt><trkpt lat="40.7218222" lon="14.7772542"><ele>147.0</ele><time>2026-04-12T15:44:18.98Z</time></trkpt><trkpt lat="40.7220487" lon="14.7771149"><ele>155.0</ele><time>2026-04-12T15:44:19.98Z</time></trkpt><trkpt lat="40.7222776" lon="14.7769725"><ele>163.0</ele><time>2026-04-12T15:44:20.98Z</time></trkpt><trkpt lat="40.7225135" lon="14.7768229"><ele>162.5</ele><time>2026-04-12T15:44:21.98Z</time></trkpt><trkpt lat="40.7227576" lon="14.7766738"><ele>162.0</ele><time>2026-04-12T15:44:22.98Z</time></trkpt><trkpt lat="40.722993" lon="14.7765289"><ele>162.0</ele><time>2026-04-12T15:44:23.98Z</time></trkpt><trkpt lat="40.7232394" lon="14.7764003"><ele>162.0</ele><time>2026-04-12T15:44:24.98Z</time></trkpt><trkpt lat="40.7234661" lon="14.7762787"><ele>158.0</ele><time>2026-04-12T15:44:25.98Z</time></trkpt><trkpt lat="40.7237068" lon="14.7761558"><ele>154.0</ele><time>2026-04-12T15:44:26.98Z</time></trkpt><trkpt lat="40.7239499" lon="14.776047"><ele>151.5</ele><time>2026-04-12T15:44:27.981Z</time></trkpt><trkpt lat="40.7241965" lon="14.7759538"><ele>149.0</ele><time>2026-04-12T15:44:28.98Z</time></trkpt><trkpt lat="40.7244479" lon="14.7758843"><ele>149.0</ele><time>2026-04-12T15:44:29.98Z</time></trkpt><trkpt lat="40.7247063" lon="14.7758333"><ele>149.0</ele><time>2026-04-12T15:44:30.98Z</time></trkpt><trkpt lat="40.7249617" lon="14.7757944"><ele>149.0</ele><time>2026-04-12T15:44:31.98Z</time></trkpt><trkpt lat="40.7252148" lon="14.7757705"><ele>149.0</ele><time>2026-04-12T15:44:32.98Z</time></trkpt><trkpt lat="40.7254673" lon="14.7757538"><ele>152.0</ele><time>2026-04-12T15:44:33.98Z</time></trkpt><trkpt lat="40.7257218" lon="14.7757411"><ele>155.0</ele><time>2026-04-12T15:44:34.98Z</time></trkpt><trkpt lat="40.7259755" lon="14.7757279"><ele>156.0</ele><time>2026-04-12T15:44:35.98Z</time></trkpt><trkpt lat="40.7262324" lon="14.7757147"><ele>157.0</ele><time>2026-04-12T15:44:36.98Z</time></trkpt><trkpt lat="40.7264894" lon="14.7756968"><ele>157.0</ele><time>2026-04-12T15:44:37.98Z</time></trkpt><trkpt lat="40.7267427" lon="14.7756745"><ele>157.0</ele><time>2026-04-12T15:44:38.98Z</time></trkpt><trkpt lat="40.7269994" lon="14.7756549"><ele>159.0</ele><time>2026-04-12T15:44:39.98Z</time></trkpt><trkpt lat="40.7272539" lon="14.7756379"><ele>161.0</ele><time>2026-04-12T15:44:40.98Z</time></trkpt><trkpt lat="40.7275096" lon="14.7756247"><ele>162.0</ele><time>2026-04-12T15:44:41.98Z</time></trkpt><trkpt lat="40.7277674" lon="14.7756136"><ele>163.0</ele><time>2026-04-12T15:44:42.981Z</time></trkpt><trkpt lat="40.7280267" lon="14.7755987"><ele>163.0</ele><time>2026-04-12T15:44:43.981Z</time></trkpt><trkpt lat="40.7282868" lon="14.7755826"><ele>163.0</ele><time>2026-04-12T15:44:44.98Z</time></trkpt><trkpt lat="40.7285411" lon="14.7755661"><ele>165.0</ele><time>2026-04-12T15:44:45.981Z</time></trkpt><trkpt lat="40.7287967" lon="14.7755552"><ele>167.0</ele><time>2026-04-12T15:44:46.98Z</time></trkpt><trkpt lat="40.7290507" lon="14.7755501"><ele>167.0</ele><time>2026-04-12T15:44:47.98Z</time></trkpt><trkpt lat="40.7293079" lon="14.7755428"><ele>167.0</ele><time>2026-04-12T15:44:48.98Z</time></trkpt><trkpt lat="40.7295636" lon="14.7755262"><ele>169.5</ele><time>2026-04-12T15:44:49.98Z</time></trkpt><trkpt lat="40.7298188" lon="14.7755042"><ele>172.0</ele><time>2026-04-12T15:44:50.98Z</time></trkpt><trkpt lat="40.7300786" lon="14.775483"><ele>172.5</ele><time>2026-04-12T15:44:51.98Z</time></trkpt><trkpt lat="40.7303359" lon="14.7754699"><ele>173.0</ele><time>2026-04-12T15:44:52.98Z</time></trkpt><trkpt lat="40.7305926" lon="14.7754522"><ele>173.0</ele><time>2026-04-12T15:44:53.981Z</time></trkpt><trkpt lat="40.7308501" lon="14.7754404"><ele>173.0</ele><time>2026-04-12T15:44:54.98Z</time></trkpt><trkpt lat="40.7311047" lon="14.7754265"><ele>171.0</ele><time>2026-04-12T15:44:55.98Z</time></trkpt><trkpt lat="40.7313618" lon="14.7754183"><ele>169.0</ele><time>2026-04-12T15:44:56.98Z</time></trkpt><trkpt lat="40.7316197" lon="14.7754119"><ele>169.0</ele><time>2026-04-12T15:44:57.981Z</time></trkpt><trkpt lat="40.7318776" lon="14.7754231"><ele>169.0</ele><time>2026-04-12T15:44:58.98Z</time></trkpt><trkpt lat="40.7321321" lon="14.7754446"><ele>168.5</ele><time>2026-04-12T15:44:59.98Z</time></trkpt><trkpt lat="40.7323894" lon="14.7754697"><ele>168.0</ele><time>2026-04-12T15:45:00.98Z</time></trkpt><trkpt lat="40.732645" lon="14.7754979"><ele>170.0</ele><time>2026-04-12T15:45:01.981Z</time></trkpt><trkpt lat="40.7329024" lon="14.7755314"><ele>172.0</ele><time>2026-04-12T15:45:02.98Z</time></trkpt><trkpt lat="40.7331568" lon="14.7755788"><ele>172.0</ele><time>2026-04-12T15:45:03.98Z</time></trkpt><trkpt lat="40.73341" lon="14.7756385"><ele>172.0</ele><time>2026-04-12T15:45:04.98Z</time></trkpt><trkpt lat="40.7336617" lon="14.7757135"><ele>171.5</ele><time>2026-04-12T15:45:05.98Z</time></trkpt><trkpt lat="40.7339106" lon="14.7758001"><ele>171.0</ele><time>2026-04-12T15:45:06.981Z</time></trkpt><trkpt lat="40.7341575" lon="14.7758962"><ele>170.0</ele><time>2026-04-12T15:45:07.98Z</time></trkpt><trkpt lat="40.7344023" lon="14.7760053"><ele>169.0</ele><time>2026-04-12T15:45:08.98Z</time></trkpt><trkpt lat="40.7346466" lon="14.7761191"><ele>172.5</ele><time>2026-04-12T15:45:09.98Z</time></trkpt><trkpt lat="40.7348858" lon="14.7762405"><ele>176.0</ele><time>2026-04-12T15:45:10.98Z</time></trkpt><trkpt lat="40.7351224" lon="14.7763661"><ele>175.5</ele><time>2026-04-12T15:45:11.98Z</time></trkpt><trkpt lat="40.7353535" lon="14.7765026"><ele>175.0</ele><time>2026-04-12T15:45:12.98Z</time></trkpt><trkpt lat="40.7355807" lon="14.776649"><ele>175.0</ele><time>2026-04-12T15:45:13.98Z</time></trkpt><trkpt lat="40.735808" lon="14.7768093"><ele>175.0</ele><time>2026-04-12T15:45:14.98Z</time></trkpt><trkpt lat="40.7360286" lon="14.7769783"><ele>178.0</ele><time>2026-04-12T15:45:15.981Z</time></trkpt><trkpt lat="40.7362463" lon="14.7771545"><ele>181.0</ele><time>2026-04-12T15:45:16.98Z</time></trkpt><trkpt lat="40.7364607" lon="14.7773376"><ele>181.0</ele><time>2026-04-12T15:45:17.98Z</time></trkpt><trkpt lat="40.7366732" lon="14.7775287"><ele>181.0</ele><time>2026-04-12T15:45:18.98Z</time></trkpt><trkpt lat="40.7368809" lon="14.7777253"><ele>184.0</ele><time>2026-04-12T15:45:19.98Z</time></trkpt><trkpt lat="40.7370848" lon="14.7779258"><ele>187.0</ele><time>2026-04-12T15:45:20.981Z</time></trkpt><trkpt lat="40.7372864" lon="14.7781309"><ele>187.0</ele><time>2026-04-12T15:45:21.98Z</time></trkpt><trkpt lat="40.7374859" lon="14.7783394"><ele>187.0</ele><time>2026-04-12T15:45:22.98Z</time></trkpt><trkpt lat="40.737682" lon="14.7785489"><ele>189.5</ele><time>2026-04-12T15:45:23.98Z</time></trkpt><trkpt lat="40.7378775" lon="14.7787723"><ele>192.0</ele><time>2026-04-12T15:45:24.98Z</time></trkpt><trkpt lat="40.738072" lon="14.7789956"><ele>192.0</ele><time>2026-04-12T15:45:25.98Z</time></trkpt><trkpt lat="40.7382652" lon="14.7792202"><ele>192.0</ele><time>2026-04-12T15:45:26.98Z</time></trkpt><trkpt lat="40.7384548" lon="14.7794453"><ele>195.0</ele><time>2026-04-12T15:45:27.98Z</time></trkpt><trkpt lat="40.7386471" lon="14.7796691"><ele>198.0</ele><time>2026-04-12T15:45:28.98Z</time></trkpt><trkpt lat="40.738839" lon="14.7798923"><ele>198.0</ele><time>2026-04-12T15:45:29.98Z</time></trkpt><trkpt lat="40.7390324" lon="14.7801147"><ele>198.0</ele><time>2026-04-12T15:45:30.98Z</time></trkpt><trkpt lat="40.7392295" lon="14.7803317"><ele>203.0</ele><time>2026-04-12T15:45:31.98Z</time></trkpt><trkpt lat="40.7394228" lon="14.7805545"><ele>208.0</ele><time>2026-04-12T15:45:32.98Z</time></trkpt><trkpt lat="40.7396183" lon="14.7807767"><ele>208.0</ele><time>2026-04-12T15:45:33.98Z</time></trkpt><trkpt lat="40.7398093" lon="14.7810015"><ele>208.0</ele><time>2026-04-12T15:45:34.98Z</time></trkpt><trkpt lat="40.7399956" lon="14.7812291"><ele>209.0</ele><time>2026-04-12T15:45:35.98Z</time></trkpt><trkpt lat="40.7401908" lon="14.7814429"><ele>210.0</ele><time>2026-04-12T15:45:36.98Z</time></trkpt><trkpt lat="40.7403887" lon="14.7816531"><ele>213.0</ele><time>2026-04-12T15:45:37.98Z</time></trkpt><trkpt lat="40.7405872" lon="14.7818661"><ele>216.0</ele><time>2026-04-12T15:45:38.98Z</time></trkpt><trkpt lat="40.7407878" lon="14.7820766"><ele>216.0</ele><time>2026-04-12T15:45:39.98Z</time></trkpt><trkpt lat="40.7409889" lon="14.7822865"><ele>216.0</ele><time>2026-04-12T15:45:40.981Z</time></trkpt><trkpt lat="40.7411935" lon="14.7824931"><ele>218.5</ele><time>2026-04-12T15:45:41.98Z</time></trkpt><trkpt lat="40.741403" lon="14.7826943"><ele>221.0</ele><time>2026-04-12T15:45:42.98Z</time></trkpt><trkpt lat="40.7416125" lon="14.7828798"><ele>221.0</ele><time>2026-04-12T15:45:43.98Z</time></trkpt><trkpt lat="40.7418303" lon="14.7830575"><ele>221.0</ele><time>2026-04-12T15:45:44.98Z</time></trkpt><trkpt lat="40.7420527" lon="14.7832283"><ele>221.5</ele><time>2026-04-12T15:45:45.98Z</time></trkpt><trkpt lat="40.7422728" lon="14.7834008"><ele>222.0</ele><time>2026-04-12T15:45:46.98Z</time></trkpt><trkpt lat="40.7424959" lon="14.7835693"><ele>220.5</ele><time>2026-04-12T15:45:47.98Z</time></trkpt><trkpt lat="40.7427158" lon="14.7837386"><ele>219.0</ele><time>2026-04-12T15:45:48.98Z</time></trkpt><trkpt lat="40.7429323" lon="14.7839139"><ele>219.0</ele><time>2026-04-12T15:45:49.98Z</time></trkpt><trkpt lat="40.7431529" lon="14.7840806"><ele>219.0</ele><time>2026-04-12T15:45:50.98Z</time></trkpt><trkpt lat="40.7433762" lon="14.784237"><ele>221.0</ele><time>2026-04-12T15:45:51.98Z</time></trkpt><trkpt lat="40.7436054" lon="14.7843838"><ele>223.0</ele><time>2026-04-12T15:45:52.98Z</time></trkpt><trkpt lat="40.7438409" lon="14.7845244"><ele>223.0</ele><time>2026-04-12T15:45:53.98Z</time></trkpt><trkpt lat="40.7440804" lon="14.7846493"><ele>223.0</ele><time>2026-04-12T15:45:54.98Z</time></trkpt><trkpt lat="40.7443233" lon="14.7847752"><ele>221.5</ele><time>2026-04-12T15:45:55.98Z</time></trkpt><trkpt lat="40.7445659" lon="14.7848942"><ele>220.0</ele><time>2026-04-12T15:45:56.98Z</time></trkpt><trkpt lat="40.7448119" lon="14.78501"><ele>220.0</ele><time>2026-04-12T15:45:57.98Z</time></trkpt><trkpt lat="40.7450588" lon="14.7851178"><ele>220.0</ele><time>2026-04-12T15:45:58.98Z</time></trkpt><trkpt lat="40.7453035" lon="14.7852245"><ele>223.5</ele><time>2026-04-12T15:45:59.98Z</time></trkpt><trkpt lat="40.7455488" lon="14.7853224"><ele>227.0</ele><time>2026-04-12T15:46:00.98Z</time></trkpt><trkpt lat="40.7457978" lon="14.7854164"><ele>230.0</ele><time>2026-04-12T15:46:01.98Z</time></trkpt><trkpt lat="40.7460467" lon="14.7854974"><ele>233.0</ele><time>2026-04-12T15:46:02.98Z</time></trkpt><trkpt lat="40.7463003" lon="14.7855651"><ele>233.0</ele><time>2026-04-12T15:46:03.98Z</time></trkpt><trkpt lat="40.7465541" lon="14.7856293"><ele>233.0</ele><time>2026-04-12T15:46:04.98Z</time></trkpt><trkpt lat="40.7468044" lon="14.7856901"><ele>229.5</ele><time>2026-04-12T15:46:05.981Z</time></trkpt><trkpt lat="40.7470559" lon="14.7857379"><ele>226.0</ele><time>2026-04-12T15:46:06.98Z</time></trkpt><trkpt lat="40.74731" lon="14.7857917"><ele>226.0</ele><time>2026-04-12T15:46:07.98Z</time></trkpt><trkpt lat="40.7475649" lon="14.7858486"><ele>226.0</ele><time>2026-04-12T15:46:08.98Z</time></trkpt><trkpt lat="40.7478212" lon="14.7859038"><ele>224.5</ele><time>2026-04-12T15:46:09.98Z</time></trkpt><trkpt lat="40.7480802" lon="14.7859575"><ele>223.0</ele><time>2026-04-12T15:46:10.98Z</time></trkpt><trkpt lat="40.7483339" lon="14.7860073"><ele>223.5</ele><time>2026-04-12T15:46:11.98Z</time></trkpt><trkpt lat="40.7485896" lon="14.7860585"><ele>224.0</ele><time>2026-04-12T15:46:12.98Z</time></trkpt><trkpt lat="40.7488459" lon="14.7861114"><ele>224.0</ele><time>2026-04-12T15:46:13.98Z</time></trkpt><trkpt lat="40.7490999" lon="14.786167"><ele>224.0</ele><time>2026-04-12T15:46:14.98Z</time></trkpt><trkpt lat="40.7493547" lon="14.7862198"><ele>223.5</ele><time>2026-04-12T15:46:15.981Z</time></trkpt><trkpt lat="40.7496085" lon="14.7862742"><ele>223.0</ele><time>2026-04-12T15:46:16.98Z</time></trkpt><trkpt lat="40.7498621" lon="14.786324"><ele>223.0</ele><time>2026-04-12T15:46:17.98Z</time></trkpt><trkpt lat="40.7501179" lon="14.7863763"><ele>223.0</ele><time>2026-04-12T15:46:18.98Z</time></trkpt><trkpt lat="40.7503707" lon="14.7864258"><ele>223.5</ele><time>2026-04-12T15:46:19.98Z</time></trkpt><trkpt lat="40.7506263" lon="14.7864757"><ele>224.0</ele><time>2026-04-12T15:46:20.98Z</time></trkpt><trkpt lat="40.7508791" lon="14.7865244"><ele>223.5</ele><time>2026-04-12T15:46:21.98Z</time></trkpt><trkpt lat="40.7511322" lon="14.7865753"><ele>223.0</ele><time>2026-04-12T15:46:22.98Z</time></trkpt><trkpt lat="40.751389" lon="14.7866207"><ele>223.0</ele><time>2026-04-12T15:46:23.98Z</time></trkpt><trkpt lat="40.7516445" lon="14.7866851"><ele>223.0</ele><time>2026-04-12T15:46:24.981Z</time></trkpt><trkpt lat="40.7518946" lon="14.7867364"><ele>222.5</ele><time>2026-04-12T15:46:25.98Z</time></trkpt><trkpt lat="40.7521458" lon="14.7867877"><ele>222.0</ele><time>2026-04-12T15:46:26.98Z</time></trkpt><trkpt lat="40.7523985" lon="14.7868438"><ele>223.5</ele><time>2026-04-12T15:46:27.98Z</time></trkpt><trkpt lat="40.7526466" lon="14.7869042"><ele>225.0</ele><time>2026-04-12T15:46:28.98Z</time></trkpt><trkpt lat="40.7528995" lon="14.7869689"><ele>225.0</ele><time>2026-04-12T15:46:29.98Z</time></trkpt><trkpt lat="40.7531541" lon="14.7870254"><ele>225.0</ele><time>2026-04-12T15:46:30.981Z</time></trkpt><trkpt lat="40.753408" lon="14.7870808"><ele>226.0</ele><time>2026-04-12T15:46:31.98Z</time></trkpt><trkpt lat="40.7536626" lon="14.7871321"><ele>227.0</ele><time>2026-04-12T15:46:32.98Z</time></trkpt><trkpt lat="40.7539141" lon="14.7871847"><ele>227.0</ele><time>2026-04-12T15:46:33.98Z</time></trkpt><trkpt lat="40.7541693" lon="14.7872353"><ele>227.0</ele><time>2026-04-12T15:46:34.98Z</time></trkpt><trkpt lat="40.7544268" lon="14.7872843"><ele>229.0</ele><time>2026-04-12T15:46:35.98Z</time></trkpt><trkpt lat="40.7546849" lon="14.7873304"><ele>231.0</ele><time>2026-04-12T15:46:36.98Z</time></trkpt><trkpt lat="40.7549336" lon="14.7873803"><ele>231.0</ele><time>2026-04-12T15:46:37.98Z</time></trkpt><trkpt lat="40.7551832" lon="14.7874279"><ele>231.0</ele><time>2026-04-12T15:46:38.98Z</time></trkpt><trkpt lat="40.7554326" lon="14.7874784"><ele>233.0</ele><time>2026-04-12T15:46:39.98Z</time></trkpt><trkpt lat="40.7556722" lon="14.7875271"><ele>235.0</ele><time>2026-04-12T15:46:40.98Z</time></trkpt><trkpt lat="40.7559006" lon="14.7875753"><ele>235.33333333333331</ele><time>2026-04-12T15:46:41.98Z</time></trkpt><trkpt lat="40.7561222" lon="14.7876313"><ele>235.66666666666669</ele><time>2026-04-12T15:46:42.981Z</time></trkpt><trkpt lat="40.7563394" lon="14.7876869"><ele>236.0</ele><time>2026-04-12T15:46:43.98Z</time></trkpt><trkpt lat="40.7565509" lon="14.7877405"><ele>236.66666666666669</ele><time>2026-04-12T15:46:44.98Z</time></trkpt><trkpt lat="40.7567537" lon="14.7877895"><ele>237.33333333333331</ele><time>2026-04-12T15:46:45.98Z</time></trkpt><trkpt lat="40.7569392" lon="14.7878266"><ele>238.0</ele><time>2026-04-12T15:46:46.981Z</time></trkpt><trkpt lat="40.7571027" lon="14.7878612"><ele>238.4</ele><time>2026-04-12T15:46:47.98Z</time></trkpt><trkpt lat="40.7572412" lon="14.7878922"><ele>238.8</ele><time>2026-04-12T15:46:48.98Z</time></trkpt><trkpt lat="40.7573569" lon="14.7879229"><ele>239.2</ele><time>2026-04-12T15:46:49.981Z</time></trkpt><trkpt lat="40.7574388" lon="14.7879644"><ele>239.6</ele><time>2026-04-12T15:46:50.98Z</time></trkpt><trkpt lat="40.7574944" lon="14.788037"><ele>240.0</ele><time>2026-04-12T15:46:51.98Z</time></trkpt><trkpt lat="40.7575225" lon="14.7881281"><ele>240.0</ele><time>2026-04-12T15:46:52.98Z</time></trkpt><trkpt lat="40.7574924" lon="14.7882367"><ele>240.0</ele><time>2026-04-12T15:46:53.98Z</time></trkpt><trkpt lat="40.7574354" lon="14.7883425"><ele>240.0</ele><time>2026-04-12T15:46:54.981Z</time></trkpt><trkpt lat="40.757354" lon="14.7884238"><ele>240.0</ele><time>2026-04-12T15:46:55.98Z</time></trkpt><trkpt lat="40.7572387" lon="14.7884553"><ele>240.0</ele><time>2026-04-12T15:46:56.98Z</time></trkpt><trkpt lat="40.7570932" lon="14.7884312"><ele>240.0</ele><time>2026-04-12T15:46:57.98Z</time></trkpt><trkpt lat="40.7569289" lon="14.7883881"><ele>240.0</ele><time>2026-04-12T15:46:58.98Z</time></trkpt><trkpt lat="40.7567319" lon="14.7883408"><ele>240.0</ele><time>2026-04-12T15:46:59.98Z</time></trkpt><trkpt lat="40.7565349" lon="14.7883115"><ele>239.33333333333331</ele><time>2026-04-12T15:47:00.981Z</time></trkpt><trkpt lat="40.756362" lon="14.7882943"><ele>238.66666666666666</ele><time>2026-04-12T15:47:01.98Z</time></trkpt><trkpt lat="40.756198" lon="14.7882839"><ele>238.0</ele><time>2026-04-12T15:47:02.98Z</time></trkpt><trkpt lat="40.7560533" lon="14.78826"><ele>237.75</ele><time>2026-04-12T15:47:03.98Z</time></trkpt><trkpt lat="40.7559233" lon="14.7882183"><ele>237.5</ele><time>2026-04-12T15:47:04.98Z</time></trkpt><trkpt lat="40.7558017" lon="14.7881767"><ele>237.25</ele><time>2026-04-12T15:47:05.98Z</time></trkpt><trkpt lat="40.755685" lon="14.788135"><ele>237.0</ele><time>2026-04-12T15:47:06.98Z</time></trkpt><trkpt lat="40.75559" lon="14.788065"><ele>237.0</ele><time>2026-04-12T15:47:07.98Z</time></trkpt><trkpt lat="40.755515" lon="14.7879583"><ele>237.0</ele><time>2026-04-12T15:47:08.98Z</time></trkpt><trkpt lat="40.7554733" lon="14.7878367"><ele>237.0</ele><time>2026-04-12T15:47:09.98Z</time></trkpt><trkpt lat="40.7554633" lon="14.787695"><ele>237.0</ele><time>2026-04-12T15:47:10.98Z</time></trkpt><trkpt lat="40.7554683" lon="14.7875333"><ele>237.0</ele><time>2026-04-12T15:47:11.98Z</time></trkpt><trkpt lat="40.75548" lon="14.7873583"><ele>236.33333333333331</ele><time>2026-04-12T15:47:12.98Z</time></trkpt><trkpt lat="40.7555083" lon="14.7871167"><ele>235.66666666666666</ele><time>2026-04-12T15:47:13.98Z</time></trkpt><trkpt lat="40.75557" lon="14.7868967"><ele>235.0</ele><time>2026-04-12T15:47:14.98Z</time></trkpt><trkpt lat="40.7556233" lon="14.786695"><ele>234.25</ele><time>2026-04-12T15:47:15.98Z</time></trkpt><trkpt lat="40.7556667" lon="14.7865167"><ele>233.5</ele><time>2026-04-12T15:47:16.98Z</time></trkpt><trkpt lat="40.75569" lon="14.78635"><ele>232.75</ele><time>2026-04-12T15:47:17.98Z</time></trkpt><trkpt lat="40.755695" lon="14.7861933"><ele>232.0</ele><time>2026-04-12T15:47:18.981Z</time></trkpt><trkpt lat="40.75568" lon="14.7860567"><ele>231.39999999999998</ele><time>2026-04-12T15:47:19.98Z</time></trkpt><trkpt lat="40.75566" lon="14.7859433"><ele>230.79999999999998</ele><time>2026-04-12T15:47:20.98Z</time></trkpt><trkpt lat="40.7556317" lon="14.78583"><ele>230.2</ele><time>2026-04-12T15:47:21.98Z</time></trkpt><trkpt lat="40.7555917" lon="14.7857167"><ele>229.6</ele><time>2026-04-12T15:47:22.98Z</time></trkpt><trkpt lat="40.7555383" lon="14.7855933"><ele>229.0</ele><time>2026-04-12T15:47:23.98Z</time></trkpt><trkpt lat="40.7554867" lon="14.7854417"><ele>229.0</ele><time>2026-04-12T15:47:24.98Z</time></trkpt><trkpt lat="40.7554333" lon="14.7852567"><ele>229.0</ele><time>2026-04-12T15:47:25.98Z</time></trkpt><trkpt lat="40.7553833" lon="14.7851033"><ele>229.0</ele><time>2026-04-12T15:47:26.98Z</time></trkpt><trkpt lat="40.7553333" lon="14.78497"><ele>229.0</ele><time>2026-04-12T15:47:27.98Z</time></trkpt><trkpt lat="40.755295" lon="14.7848433"><ele>228.49999999999997</ele><time>2026-04-12T15:47:28.98Z</time></trkpt><trkpt lat="40.7552617" lon="14.7847267"><ele>228.0</ele><time>2026-04-12T15:47:29.98Z</time></trkpt><trkpt lat="40.7552317" lon="14.784615"><ele>227.5</ele><time>2026-04-12T15:47:30.98Z</time></trkpt><trkpt lat="40.755195" lon="14.7845133"><ele>227.0</ele><time>2026-04-12T15:47:31.98Z</time></trkpt><trkpt lat="40.7551633" lon="14.7844217"><ele>226.49999999999997</ele><time>2026-04-12T15:47:32.98Z</time></trkpt><trkpt lat="40.7551267" lon="14.7843417"><ele>226.0</ele><time>2026-04-12T15:47:33.98Z</time></trkpt><trkpt lat="40.75507" lon="14.7842"><ele>225.4</ele><time>2026-04-12T15:47:35.98Z</time></trkpt><trkpt lat="40.7550217" lon="14.7840533"><ele>224.8</ele><time>2026-04-12T15:47:37.98Z</time></trkpt><trkpt lat="40.75496" lon="14.78391"><ele>224.20000000000002</ele><time>2026-04-12T15:47:39.98Z</time></trkpt><trkpt lat="40.7549233" lon="14.78383"><ele>223.60000000000002</ele><time>2026-04-12T15:47:40.98Z</time></trkpt><trkpt lat="40.75489" lon="14.7837433"><ele>223.0</ele><time>2026-04-12T15:47:41.98Z</time></trkpt><trkpt lat="40.7548567" lon="14.7836467"><ele>222.99999999999997</ele><time>2026-04-12T15:47:42.98Z</time></trkpt><trkpt lat="40.7548183" lon="14.7835517"><ele>223.0</ele><time>2026-04-12T15:47:43.98Z</time></trkpt><trkpt lat="40.7547783" lon="14.7834567"><ele>223.0</ele><time>2026-04-12T15:47:44.98Z</time></trkpt><trkpt lat="40.7547433" lon="14.783355"><ele>223.0</ele><time>2026-04-12T15:47:45.98Z</time></trkpt><trkpt lat="40.7547" lon="14.7832633"><ele>222.99999999999997</ele><time>2026-04-12T15:47:46.981Z</time></trkpt><trkpt lat="40.7546533" lon="14.783185"><ele>223.0</ele><time>2026-04-12T15:47:47.98Z</time></trkpt><trkpt lat="40.7546233" lon="14.7831"><ele>222.49999999999997</ele><time>2026-04-12T15:47:48.98Z</time></trkpt><trkpt lat="40.754605" lon="14.7830033"><ele>222.0</ele><time>2026-04-12T15:47:49.98Z</time></trkpt><trkpt lat="40.7545967" lon="14.7829"><ele>221.5</ele><time>2026-04-12T15:47:50.98Z</time></trkpt><trkpt lat="40.7545683" lon="14.7828"><ele>221.0</ele><time>2026-04-12T15:47:51.98Z</time></trkpt><trkpt lat="40.7545167" lon="14.7827117"><ele>220.49999999999997</ele><time>2026-04-12T15:47:52.98Z</time></trkpt><trkpt lat="40.754455" lon="14.782635"><ele>220.0</ele><time>2026-04-12T15:47:53.98Z</time></trkpt><trkpt lat="40.7543933" lon="14.78255"><ele>219.0</ele><time>2026-04-12T15:47:54.98Z</time></trkpt><trkpt lat="40.7543367" lon="14.7824367"><ele>218.0</ele><time>2026-04-12T15:47:55.98Z</time></trkpt><trkpt lat="40.7542817" lon="14.7823167"><ele>217.0</ele><time>2026-04-12T15:47:56.98Z</time></trkpt><trkpt lat="40.7542267" lon="14.7821967"><ele>216.0</ele><time>2026-04-12T15:47:57.98Z</time></trkpt><trkpt lat="40.754175" lon="14.7820633"><ele>215.0</ele><time>2026-04-12T15:47:58.98Z</time></trkpt><trkpt lat="40.7541183" lon="14.781925"><ele>214.5</ele><time>2026-04-12T15:47:59.98Z</time></trkpt><trkpt lat="40.7540633" lon="14.7817883"><ele>214.0</ele><time>2026-04-12T15:48:00.98Z</time></trkpt><trkpt lat="40.7540033" lon="14.7816533"><ele>213.5</ele><time>2026-04-12T15:48:01.98Z</time></trkpt><trkpt lat="40.75394" lon="14.7815283"><ele>213.0</ele><time>2026-04-12T15:48:02.98Z</time></trkpt><trkpt lat="40.7538367" lon="14.7812867"><ele>213.0</ele><time>2026-04-12T15:48:04.98Z</time></trkpt><trkpt lat="40.7538067" lon="14.7811767"><ele>213.0</ele><time>2026-04-12T15:48:05.981Z</time></trkpt><trkpt lat="40.753785" lon="14.7810817"><ele>213.0</ele><time>2026-04-12T15:48:06.98Z</time></trkpt><trkpt lat="40.7537517" lon="14.780925"><ele>211.0</ele><time>2026-04-12T15:48:08.98Z</time></trkpt><trkpt lat="40.753745" lon="14.780775"><ele>211.0</ele><time>2026-04-12T15:48:10.98Z</time></trkpt></trkseg></trk></gpx>